<?xml version="1.0" encoding="UTF-8" standalone="no" ?>
<gpx xmlns="http://www.topografix.com/GPX/1/1" xmlns:xsi="http://www.w3.org/2001/XMLSchema-instance" xsi:schemaLocation="http://www.topografix.com/GPX/1/1 http://www.topografix.com/GPX/1/1/gpx.xsd" version="1.1" creator="VisuGPX - https://www.visugpx.com">
  <metadata>
    <name>Mandeure, Va remboure, etc...</name>
    <desc><![CDATA[Mandeure, Va remboure, etc...]]></desc>
  </metadata>
  <wpt lat="47.4949" lon="6.75732">
    <ele>322</ele>
    <name><![CDATA[Point de cheminement 1]]></name>
    <desc><![CDATA[]]></desc>
  </wpt>
  <wpt lat="47.47533" lon="6.77129">
    <ele>310</ele>
    <name><![CDATA[Point de cheminement 2]]></name>
    <desc><![CDATA[]]></desc>
  </wpt>
  <wpt lat="47.45203" lon="6.79246">
    <ele>334</ele>
    <name><![CDATA[Point de cheminement 3]]></name>
    <desc><![CDATA[]]></desc>
  </wpt>
  <wpt lat="47.44202" lon="6.79911">
    <ele>423</ele>
    <name><![CDATA[Point de cheminement 4]]></name>
    <desc><![CDATA[]]></desc>
  </wpt>
  <wpt lat="47.42941" lon="6.79596">
    <ele>489</ele>
    <name><![CDATA[Point de cheminement 5]]></name>
    <desc><![CDATA[]]></desc>
  </wpt>
  <wpt lat="47.41189" lon="6.79389">
    <ele>453</ele>
    <name><![CDATA[Point de cheminement 6]]></name>
    <desc><![CDATA[]]></desc>
  </wpt>
  <wpt lat="47.41953" lon="6.76866">
    <ele>398</ele>
    <name><![CDATA[Point de cheminement 7]]></name>
    <desc><![CDATA[]]></desc>
  </wpt>
  <wpt lat="47.41007" lon="6.75977">
    <ele>548</ele>
    <name><![CDATA[Point de cheminement 8]]></name>
    <desc><![CDATA[]]></desc>
  </wpt>
  <wpt lat="47.41563" lon="6.74142">
    <ele>483</ele>
    <name><![CDATA[Point de cheminement 9]]></name>
    <desc><![CDATA[]]></desc>
  </wpt>
  <wpt lat="47.45027" lon="6.75448">
    <ele>351</ele>
    <name><![CDATA[Point de cheminement 10]]></name>
    <desc><![CDATA[]]></desc>
  </wpt>
  <wpt lat="47.49188" lon="6.77334">
    <ele>309</ele>
    <name><![CDATA[Point de cheminement 11]]></name>
    <desc><![CDATA[]]></desc>
  </wpt>
  <wpt lat="47.50101" lon="6.76038">
    <ele>380</ele>
    <name><![CDATA[Point de cheminement 12]]></name>
    <desc><![CDATA[]]></desc>
  </wpt>
  <wpt lat="47.518" lon="6.77476">
    <ele>388</ele>
    <name><![CDATA[Point de cheminement 13]]></name>
    <desc><![CDATA[]]></desc>
  </wpt>
  <trk>
    <name><![CDATA[Rue Antoine Coysevox]]></name>
    <desc><![CDATA[]]></desc>
    <trkseg>
      <trkpt lat="47.5181" lon="6.77498">
        <ele>388</ele>
        <time>2015-11-11T08:14:44.989Z</time>
      </trkpt>
      <trkpt lat="47.51819" lon="6.77502">
        <ele>388</ele>
        <time>2015-11-11T08:14:45.994Z</time>
      </trkpt>
      <trkpt lat="47.51817" lon="6.77487">
        <ele>387</ele>
        <time>2015-11-11T08:14:47.000Z</time>
      </trkpt>
      <trkpt lat="47.51816" lon="6.77491">
        <ele>387</ele>
        <time>2015-11-11T08:14:49.000Z</time>
      </trkpt>
      <trkpt lat="47.51813" lon="6.77492">
        <ele>388</ele>
        <time>2015-11-11T08:14:50.000Z</time>
      </trkpt>
      <trkpt lat="47.51809" lon="6.77492">
        <ele>388</ele>
        <time>2015-11-11T08:14:54.000Z</time>
      </trkpt>
      <trkpt lat="47.51808" lon="6.77492">
        <ele>388</ele>
        <time>2015-11-11T08:14:55.000Z</time>
      </trkpt>
      <trkpt lat="47.51808" lon="6.77491">
        <ele>388</ele>
        <time>2015-11-11T08:14:57.000Z</time>
      </trkpt>
      <trkpt lat="47.51807" lon="6.77485">
        <ele>388</ele>
        <time>2015-11-11T08:14:58.995Z</time>
      </trkpt>
      <trkpt lat="47.51809" lon="6.77485">
        <ele>388</ele>
        <time>2015-11-11T08:16:13.000Z</time>
      </trkpt>
      <trkpt lat="47.51811" lon="6.77481">
        <ele>388</ele>
        <time>2015-11-11T08:16:14.000Z</time>
      </trkpt>
      <trkpt lat="47.51807" lon="6.7748">
        <ele>388</ele>
        <time>2015-11-11T08:18:05.000Z</time>
      </trkpt>
      <trkpt lat="47.51806" lon="6.7748">
        <ele>388</ele>
        <time>2015-11-11T08:18:06.000Z</time>
      </trkpt>
      <trkpt lat="47.5181" lon="6.7748">
        <ele>388</ele>
        <time>2015-11-11T08:18:21.000Z</time>
      </trkpt>
      <trkpt lat="47.51812" lon="6.77483">
        <ele>388</ele>
        <time>2015-11-11T08:18:22.000Z</time>
      </trkpt>
      <trkpt lat="47.51813" lon="6.77486">
        <ele>388</ele>
        <time>2015-11-11T08:18:23.000Z</time>
      </trkpt>
      <trkpt lat="47.51813" lon="6.77489">
        <ele>388</ele>
        <time>2015-11-11T08:18:24.000Z</time>
      </trkpt>
      <trkpt lat="47.51812" lon="6.77492">
        <ele>388</ele>
        <time>2015-11-11T08:18:25.000Z</time>
      </trkpt>
      <trkpt lat="47.51809" lon="6.77494">
        <ele>388</ele>
        <time>2015-11-11T08:18:26.000Z</time>
      </trkpt>
      <trkpt lat="47.51805" lon="6.77496">
        <ele>388</ele>
        <time>2015-11-11T08:18:27.000Z</time>
      </trkpt>
      <trkpt lat="47.51801" lon="6.77496">
        <ele>388</ele>
        <time>2015-11-11T08:18:28.000Z</time>
      </trkpt>
      <trkpt lat="47.51797" lon="6.77496">
        <ele>388</ele>
        <time>2015-11-11T08:18:29.000Z</time>
      </trkpt>
      <trkpt lat="47.51795" lon="6.77495">
        <ele>388</ele>
        <time>2015-11-11T08:18:30.000Z</time>
      </trkpt>
      <trkpt lat="47.51792" lon="6.77495">
        <ele>388</ele>
        <time>2015-11-11T08:18:31.000Z</time>
      </trkpt>
      <trkpt lat="47.5179" lon="6.77493">
        <ele>388</ele>
        <time>2015-11-11T08:18:32.000Z</time>
      </trkpt>
      <trkpt lat="47.51787" lon="6.77492">
        <ele>388</ele>
        <time>2015-11-11T08:18:33.000Z</time>
      </trkpt>
      <trkpt lat="47.51784" lon="6.77491">
        <ele>388</ele>
        <time>2015-11-11T08:18:34.000Z</time>
      </trkpt>
      <trkpt lat="47.51782" lon="6.77489">
        <ele>388</ele>
        <time>2015-11-11T08:18:35.000Z</time>
      </trkpt>
      <trkpt lat="47.51779" lon="6.77488">
        <ele>388</ele>
        <time>2015-11-11T08:18:36.000Z</time>
      </trkpt>
      <trkpt lat="47.51776" lon="6.77486">
        <ele>388</ele>
        <time>2015-11-11T08:18:37.000Z</time>
      </trkpt>
      <trkpt lat="47.51774" lon="6.77484">
        <ele>388</ele>
        <time>2015-11-11T08:18:38.000Z</time>
      </trkpt>
      <trkpt lat="47.5177" lon="6.77483">
        <ele>388</ele>
        <time>2015-11-11T08:18:39.000Z</time>
      </trkpt>
      <trkpt lat="47.51768" lon="6.77482">
        <ele>389</ele>
        <time>2015-11-11T08:18:40.000Z</time>
      </trkpt>
      <trkpt lat="47.51764" lon="6.77478">
        <ele>389</ele>
        <time>2015-11-11T08:19:00.998Z</time>
      </trkpt>
      <trkpt lat="47.51763" lon="6.77477">
        <ele>389</ele>
        <time>2015-11-11T08:19:02.000Z</time>
      </trkpt>
      <trkpt lat="47.5176" lon="6.77476">
        <ele>389</ele>
        <time>2015-11-11T08:19:04.000Z</time>
      </trkpt>
      <trkpt lat="47.51758" lon="6.77476">
        <ele>389</ele>
        <time>2015-11-11T08:19:05.000Z</time>
      </trkpt>
      <trkpt lat="47.51755" lon="6.77476">
        <ele>389</ele>
        <time>2015-11-11T08:19:06.000Z</time>
      </trkpt>
      <trkpt lat="47.51752" lon="6.77476">
        <ele>389</ele>
        <time>2015-11-11T08:19:07.000Z</time>
      </trkpt>
      <trkpt lat="47.51749" lon="6.77475">
        <ele>389</ele>
        <time>2015-11-11T08:19:08.000Z</time>
      </trkpt>
      <trkpt lat="47.51746" lon="6.77475">
        <ele>389</ele>
        <time>2015-11-11T08:19:09.000Z</time>
      </trkpt>
      <trkpt lat="47.51743" lon="6.77475">
        <ele>389</ele>
        <time>2015-11-11T08:19:10.000Z</time>
      </trkpt>
      <trkpt lat="47.5174" lon="6.77474">
        <ele>389</ele>
        <time>2015-11-11T08:19:11.000Z</time>
      </trkpt>
      <trkpt lat="47.51738" lon="6.77474">
        <ele>389</ele>
        <time>2015-11-11T08:19:11.998Z</time>
      </trkpt>
      <trkpt lat="47.51734" lon="6.77476">
        <ele>389</ele>
        <time>2015-11-11T08:19:13.000Z</time>
      </trkpt>
      <trkpt lat="47.51731" lon="6.77479">
        <ele>389</ele>
        <time>2015-11-11T08:19:14.000Z</time>
      </trkpt>
      <trkpt lat="47.51728" lon="6.77491">
        <ele>389</ele>
        <time>2015-11-11T08:19:15.000Z</time>
      </trkpt>
      <trkpt lat="47.51727" lon="6.77498">
        <ele>389</ele>
        <time>2015-11-11T08:19:16.000Z</time>
      </trkpt>
      <trkpt lat="47.51726" lon="6.77507">
        <ele>390</ele>
        <time>2015-11-11T08:19:17.000Z</time>
      </trkpt>
      <trkpt lat="47.51725" lon="6.77515">
        <ele>390</ele>
        <time>2015-11-11T08:19:18.000Z</time>
      </trkpt>
      <trkpt lat="47.51723" lon="6.77523">
        <ele>390</ele>
        <time>2015-11-11T08:19:19.000Z</time>
      </trkpt>
      <trkpt lat="47.51722" lon="6.7753">
        <ele>390</ele>
        <time>2015-11-11T08:19:20.000Z</time>
      </trkpt>
      <trkpt lat="47.51721" lon="6.77536">
        <ele>390</ele>
        <time>2015-11-11T08:19:21.000Z</time>
      </trkpt>
      <trkpt lat="47.5172" lon="6.77542">
        <ele>390</ele>
        <time>2015-11-11T08:19:22.000Z</time>
      </trkpt>
      <trkpt lat="47.51718" lon="6.77549">
        <ele>390</ele>
        <time>2015-11-11T08:19:23.000Z</time>
      </trkpt>
      <trkpt lat="47.51715" lon="6.77552">
        <ele>390</ele>
        <time>2015-11-11T08:19:24.000Z</time>
      </trkpt>
      <trkpt lat="47.5171" lon="6.77545">
        <ele>390</ele>
        <time>2015-11-11T08:19:25.000Z</time>
      </trkpt>
      <trkpt lat="47.51705" lon="6.77543">
        <ele>390</ele>
        <time>2015-11-11T08:19:26.000Z</time>
      </trkpt>
      <trkpt lat="47.51701" lon="6.77541">
        <ele>390</ele>
        <time>2015-11-11T08:19:27.000Z</time>
      </trkpt>
      <trkpt lat="47.51697" lon="6.77537">
        <ele>390</ele>
        <time>2015-11-11T08:19:27.999Z</time>
      </trkpt>
      <trkpt lat="47.51692" lon="6.77533">
        <ele>390</ele>
        <time>2015-11-11T08:19:29.001Z</time>
      </trkpt>
      <trkpt lat="47.51688" lon="6.77528">
        <ele>390</ele>
        <time>2015-11-11T08:19:30.000Z</time>
      </trkpt>
      <trkpt lat="47.51682" lon="6.7752">
        <ele>390</ele>
        <time>2015-11-11T08:19:31.000Z</time>
      </trkpt>
      <trkpt lat="47.51677" lon="6.77514">
        <ele>389</ele>
        <time>2015-11-11T08:19:32.000Z</time>
      </trkpt>
      <trkpt lat="47.51672" lon="6.77509">
        <ele>389</ele>
        <time>2015-11-11T08:19:33.000Z</time>
      </trkpt>
      <trkpt lat="47.51667" lon="6.77504">
        <ele>389</ele>
        <time>2015-11-11T08:19:34.000Z</time>
      </trkpt>
      <trkpt lat="47.51663" lon="6.77498">
        <ele>388</ele>
        <time>2015-11-11T08:19:35.000Z</time>
      </trkpt>
      <trkpt lat="47.51658" lon="6.77493">
        <ele>388</ele>
        <time>2015-11-11T08:19:36.000Z</time>
      </trkpt>
      <trkpt lat="47.51653" lon="6.77487">
        <ele>387</ele>
        <time>2015-11-11T08:19:37.000Z</time>
      </trkpt>
      <trkpt lat="47.51649" lon="6.77482">
        <ele>387</ele>
        <time>2015-11-11T08:19:38.000Z</time>
      </trkpt>
      <trkpt lat="47.51645" lon="6.77477">
        <ele>387</ele>
        <time>2015-11-11T08:19:39.000Z</time>
      </trkpt>
      <trkpt lat="47.51641" lon="6.77473">
        <ele>386</ele>
        <time>2015-11-11T08:19:40.000Z</time>
      </trkpt>
      <trkpt lat="47.51637" lon="6.77468">
        <ele>386</ele>
        <time>2015-11-11T08:19:41.000Z</time>
      </trkpt>
      <trkpt lat="47.51632" lon="6.77463">
        <ele>386</ele>
        <time>2015-11-11T08:19:42.000Z</time>
      </trkpt>
      <trkpt lat="47.51628" lon="6.77458">
        <ele>386</ele>
        <time>2015-11-11T08:19:43.000Z</time>
      </trkpt>
      <trkpt lat="47.51623" lon="6.77453">
        <ele>386</ele>
        <time>2015-11-11T08:19:44.000Z</time>
      </trkpt>
      <trkpt lat="47.51618" lon="6.77449">
        <ele>385</ele>
        <time>2015-11-11T08:19:45.000Z</time>
      </trkpt>
      <trkpt lat="47.51612" lon="6.77441">
        <ele>385</ele>
        <time>2015-11-11T08:19:46.000Z</time>
      </trkpt>
      <trkpt lat="47.51606" lon="6.77433">
        <ele>385</ele>
        <time>2015-11-11T08:19:47.000Z</time>
      </trkpt>
      <trkpt lat="47.516" lon="6.77426">
        <ele>384</ele>
        <time>2015-11-11T08:19:48.000Z</time>
      </trkpt>
      <trkpt lat="47.51593" lon="6.77417">
        <ele>384</ele>
        <time>2015-11-11T08:19:49.000Z</time>
      </trkpt>
      <trkpt lat="47.51586" lon="6.77409">
        <ele>383</ele>
        <time>2015-11-11T08:19:50.000Z</time>
      </trkpt>
      <trkpt lat="47.51579" lon="6.77401">
        <ele>382</ele>
        <time>2015-11-11T08:19:51.000Z</time>
      </trkpt>
      <trkpt lat="47.51571" lon="6.77392">
        <ele>381</ele>
        <time>2015-11-11T08:19:52.000Z</time>
      </trkpt>
      <trkpt lat="47.51565" lon="6.77384">
        <ele>381</ele>
        <time>2015-11-11T08:19:53.000Z</time>
      </trkpt>
      <trkpt lat="47.51558" lon="6.77375">
        <ele>381</ele>
        <time>2015-11-11T08:19:54.000Z</time>
      </trkpt>
      <trkpt lat="47.5155" lon="6.77366">
        <ele>381</ele>
        <time>2015-11-11T08:19:55.000Z</time>
      </trkpt>
      <trkpt lat="47.51543" lon="6.77357">
        <ele>380</ele>
        <time>2015-11-11T08:19:56.000Z</time>
      </trkpt>
      <trkpt lat="47.51536" lon="6.77348">
        <ele>380</ele>
        <time>2015-11-11T08:19:57.000Z</time>
      </trkpt>
      <trkpt lat="47.51529" lon="6.7734">
        <ele>380</ele>
        <time>2015-11-11T08:19:58.000Z</time>
      </trkpt>
      <trkpt lat="47.51521" lon="6.77331">
        <ele>378</ele>
        <time>2015-11-11T08:19:59.000Z</time>
      </trkpt>
      <trkpt lat="47.51514" lon="6.77322">
        <ele>378</ele>
        <time>2015-11-11T08:20:00.000Z</time>
      </trkpt>
      <trkpt lat="47.51506" lon="6.77313">
        <ele>378</ele>
        <time>2015-11-11T08:20:01.000Z</time>
      </trkpt>
      <trkpt lat="47.51499" lon="6.77302">
        <ele>377</ele>
        <time>2015-11-11T08:20:02.000Z</time>
      </trkpt>
      <trkpt lat="47.51495" lon="6.77288">
        <ele>377</ele>
        <time>2015-11-11T08:20:03.000Z</time>
      </trkpt>
      <trkpt lat="47.51492" lon="6.77275">
        <ele>377</ele>
        <time>2015-11-11T08:20:04.000Z</time>
      </trkpt>
      <trkpt lat="47.51491" lon="6.77262">
        <ele>376</ele>
        <time>2015-11-11T08:20:05.000Z</time>
      </trkpt>
      <trkpt lat="47.5149" lon="6.77249">
        <ele>376</ele>
        <time>2015-11-11T08:20:06.000Z</time>
      </trkpt>
      <trkpt lat="47.51488" lon="6.77236">
        <ele>375</ele>
        <time>2015-11-11T08:20:07.000Z</time>
      </trkpt>
      <trkpt lat="47.51488" lon="6.77224">
        <ele>375</ele>
        <time>2015-11-11T08:20:08.000Z</time>
      </trkpt>
      <trkpt lat="47.51487" lon="6.77213">
        <ele>375</ele>
        <time>2015-11-11T08:20:09.000Z</time>
      </trkpt>
      <trkpt lat="47.51482" lon="6.77204">
        <ele>375</ele>
        <time>2015-11-11T08:20:10.001Z</time>
      </trkpt>
      <trkpt lat="47.51478" lon="6.77195">
        <ele>375</ele>
        <time>2015-11-11T08:20:11.000Z</time>
      </trkpt>
      <trkpt lat="47.51468" lon="6.77199">
        <ele>375</ele>
        <time>2015-11-11T08:20:12.000Z</time>
      </trkpt>
      <trkpt lat="47.51461" lon="6.77199">
        <ele>375</ele>
        <time>2015-11-11T08:20:13.000Z</time>
      </trkpt>
      <trkpt lat="47.51453" lon="6.77202">
        <ele>375</ele>
        <time>2015-11-11T08:20:14.000Z</time>
      </trkpt>
      <trkpt lat="47.51445" lon="6.77207">
        <ele>375</ele>
        <time>2015-11-11T08:20:15.000Z</time>
      </trkpt>
      <trkpt lat="47.51437" lon="6.77211">
        <ele>375</ele>
        <time>2015-11-11T08:20:16.000Z</time>
      </trkpt>
      <trkpt lat="47.5143" lon="6.77216">
        <ele>375</ele>
        <time>2015-11-11T08:20:17.000Z</time>
      </trkpt>
      <trkpt lat="47.51423" lon="6.77221">
        <ele>375</ele>
        <time>2015-11-11T08:20:18.000Z</time>
      </trkpt>
      <trkpt lat="47.51417" lon="6.77225">
        <ele>375</ele>
        <time>2015-11-11T08:20:19.000Z</time>
      </trkpt>
      <trkpt lat="47.51411" lon="6.77228">
        <ele>376</ele>
        <time>2015-11-11T08:20:20.000Z</time>
      </trkpt>
      <trkpt lat="47.51404" lon="6.77231">
        <ele>376</ele>
        <time>2015-11-11T08:20:21.000Z</time>
      </trkpt>
      <trkpt lat="47.51397" lon="6.77235">
        <ele>376</ele>
        <time>2015-11-11T08:20:22.000Z</time>
      </trkpt>
      <trkpt lat="47.51392" lon="6.77239">
        <ele>376</ele>
        <time>2015-11-11T08:20:23.000Z</time>
      </trkpt>
      <trkpt lat="47.51387" lon="6.77242">
        <ele>376</ele>
        <time>2015-11-11T08:20:24.000Z</time>
      </trkpt>
      <trkpt lat="47.51383" lon="6.77245">
        <ele>376</ele>
        <time>2015-11-11T08:20:25.000Z</time>
      </trkpt>
      <trkpt lat="47.51378" lon="6.77248">
        <ele>376</ele>
        <time>2015-11-11T08:20:26.000Z</time>
      </trkpt>
      <trkpt lat="47.51374" lon="6.77252">
        <ele>377</ele>
        <time>2015-11-11T08:20:27.000Z</time>
      </trkpt>
      <trkpt lat="47.51369" lon="6.77256">
        <ele>378</ele>
        <time>2015-11-11T08:20:28.000Z</time>
      </trkpt>
      <trkpt lat="47.51365" lon="6.77259">
        <ele>378</ele>
        <time>2015-11-11T08:20:29.000Z</time>
      </trkpt>
      <trkpt lat="47.51362" lon="6.77261">
        <ele>378</ele>
        <time>2015-11-11T08:20:30.000Z</time>
      </trkpt>
      <trkpt lat="47.51358" lon="6.77265">
        <ele>378</ele>
        <time>2015-11-11T08:20:31.000Z</time>
      </trkpt>
      <trkpt lat="47.51355" lon="6.77268">
        <ele>378</ele>
        <time>2015-11-11T08:20:32.000Z</time>
      </trkpt>
      <trkpt lat="47.5135" lon="6.77272">
        <ele>378</ele>
        <time>2015-11-11T08:20:33.000Z</time>
      </trkpt>
      <trkpt lat="47.51347" lon="6.77275">
        <ele>378</ele>
        <time>2015-11-11T08:20:34.000Z</time>
      </trkpt>
      <trkpt lat="47.51344" lon="6.77278">
        <ele>378</ele>
        <time>2015-11-11T08:20:35.000Z</time>
      </trkpt>
      <trkpt lat="47.51341" lon="6.7728">
        <ele>378</ele>
        <time>2015-11-11T08:20:36.000Z</time>
      </trkpt>
      <trkpt lat="47.51338" lon="6.77282">
        <ele>378</ele>
        <time>2015-11-11T08:20:37.000Z</time>
      </trkpt>
      <trkpt lat="47.51336" lon="6.77282">
        <ele>378</ele>
        <time>2015-11-11T08:20:38.000Z</time>
      </trkpt>
      <trkpt lat="47.51332" lon="6.77283">
        <ele>378</ele>
        <time>2015-11-11T08:20:39.000Z</time>
      </trkpt>
      <trkpt lat="47.5133" lon="6.77284">
        <ele>378</ele>
        <time>2015-11-11T08:20:40.000Z</time>
      </trkpt>
      <trkpt lat="47.51327" lon="6.77284">
        <ele>378</ele>
        <time>2015-11-11T08:20:41.000Z</time>
      </trkpt>
      <trkpt lat="47.51323" lon="6.77283">
        <ele>377</ele>
        <time>2015-11-11T08:20:42.000Z</time>
      </trkpt>
      <trkpt lat="47.51319" lon="6.77282">
        <ele>377</ele>
        <time>2015-11-11T08:20:43.000Z</time>
      </trkpt>
      <trkpt lat="47.51316" lon="6.77281">
        <ele>377</ele>
        <time>2015-11-11T08:20:44.000Z</time>
      </trkpt>
      <trkpt lat="47.51312" lon="6.7728">
        <ele>377</ele>
        <time>2015-11-11T08:20:45.000Z</time>
      </trkpt>
      <trkpt lat="47.51308" lon="6.77279">
        <ele>377</ele>
        <time>2015-11-11T08:20:46.000Z</time>
      </trkpt>
      <trkpt lat="47.51305" lon="6.77277">
        <ele>377</ele>
        <time>2015-11-11T08:20:47.000Z</time>
      </trkpt>
      <trkpt lat="47.51301" lon="6.77275">
        <ele>377</ele>
        <time>2015-11-11T08:20:48.000Z</time>
      </trkpt>
      <trkpt lat="47.51298" lon="6.77274">
        <ele>377</ele>
        <time>2015-11-11T08:20:49.000Z</time>
      </trkpt>
      <trkpt lat="47.51294" lon="6.77272">
        <ele>377</ele>
        <time>2015-11-11T08:20:50.000Z</time>
      </trkpt>
      <trkpt lat="47.51291" lon="6.77269">
        <ele>377</ele>
        <time>2015-11-11T08:20:51.000Z</time>
      </trkpt>
      <trkpt lat="47.51287" lon="6.77267">
        <ele>377</ele>
        <time>2015-11-11T08:20:52.000Z</time>
      </trkpt>
      <trkpt lat="47.51284" lon="6.77265">
        <ele>377</ele>
        <time>2015-11-11T08:20:53.000Z</time>
      </trkpt>
      <trkpt lat="47.5128" lon="6.77262">
        <ele>377</ele>
        <time>2015-11-11T08:20:54.000Z</time>
      </trkpt>
      <trkpt lat="47.51276" lon="6.77259">
        <ele>377</ele>
        <time>2015-11-11T08:20:55.001Z</time>
      </trkpt>
      <trkpt lat="47.51272" lon="6.77256">
        <ele>377</ele>
        <time>2015-11-11T08:20:56.000Z</time>
      </trkpt>
      <trkpt lat="47.51269" lon="6.77253">
        <ele>378</ele>
        <time>2015-11-11T08:20:57.000Z</time>
      </trkpt>
      <trkpt lat="47.51265" lon="6.7725">
        <ele>378</ele>
        <time>2015-11-11T08:20:58.000Z</time>
      </trkpt>
      <trkpt lat="47.51261" lon="6.77244">
        <ele>378</ele>
        <time>2015-11-11T08:20:59.000Z</time>
      </trkpt>
      <trkpt lat="47.51257" lon="6.7724">
        <ele>378</ele>
        <time>2015-11-11T08:21:00.000Z</time>
      </trkpt>
      <trkpt lat="47.51254" lon="6.77235">
        <ele>378</ele>
        <time>2015-11-11T08:21:01.000Z</time>
      </trkpt>
      <trkpt lat="47.5125" lon="6.77228">
        <ele>377</ele>
        <time>2015-11-11T08:21:02.000Z</time>
      </trkpt>
      <trkpt lat="47.51247" lon="6.77222">
        <ele>376</ele>
        <time>2015-11-11T08:21:03.000Z</time>
      </trkpt>
      <trkpt lat="47.51244" lon="6.77216">
        <ele>376</ele>
        <time>2015-11-11T08:21:04.000Z</time>
      </trkpt>
      <trkpt lat="47.51241" lon="6.77209">
        <ele>376</ele>
        <time>2015-11-11T08:21:05.000Z</time>
      </trkpt>
      <trkpt lat="47.51238" lon="6.77203">
        <ele>376</ele>
        <time>2015-11-11T08:21:06.000Z</time>
      </trkpt>
      <trkpt lat="47.51234" lon="6.77195">
        <ele>376</ele>
        <time>2015-11-11T08:21:07.000Z</time>
      </trkpt>
      <trkpt lat="47.51231" lon="6.77188">
        <ele>376</ele>
        <time>2015-11-11T08:21:08.000Z</time>
      </trkpt>
      <trkpt lat="47.51227" lon="6.77181">
        <ele>377</ele>
        <time>2015-11-11T08:21:09.000Z</time>
      </trkpt>
      <trkpt lat="47.51224" lon="6.77174">
        <ele>377</ele>
        <time>2015-11-11T08:21:10.000Z</time>
      </trkpt>
      <trkpt lat="47.5122" lon="6.77168">
        <ele>377</ele>
        <time>2015-11-11T08:21:11.000Z</time>
      </trkpt>
      <trkpt lat="47.51217" lon="6.77161">
        <ele>378</ele>
        <time>2015-11-11T08:21:12.000Z</time>
      </trkpt>
      <trkpt lat="47.51214" lon="6.77155">
        <ele>378</ele>
        <time>2015-11-11T08:21:13.000Z</time>
      </trkpt>
      <trkpt lat="47.51211" lon="6.77148">
        <ele>378</ele>
        <time>2015-11-11T08:21:14.000Z</time>
      </trkpt>
      <trkpt lat="47.51206" lon="6.77142">
        <ele>378</ele>
        <time>2015-11-11T08:21:15.001Z</time>
      </trkpt>
      <trkpt lat="47.51204" lon="6.77135">
        <ele>378</ele>
        <time>2015-11-11T08:21:16.000Z</time>
      </trkpt>
      <trkpt lat="47.512" lon="6.77128">
        <ele>378</ele>
        <time>2015-11-11T08:21:17.000Z</time>
      </trkpt>
      <trkpt lat="47.51196" lon="6.7712">
        <ele>378</ele>
        <time>2015-11-11T08:21:18.000Z</time>
      </trkpt>
      <trkpt lat="47.51192" lon="6.77112">
        <ele>378</ele>
        <time>2015-11-11T08:21:19.000Z</time>
      </trkpt>
      <trkpt lat="47.51187" lon="6.77104">
        <ele>378</ele>
        <time>2015-11-11T08:21:20.000Z</time>
      </trkpt>
      <trkpt lat="47.51184" lon="6.77097">
        <ele>378</ele>
        <time>2015-11-11T08:21:21.000Z</time>
      </trkpt>
      <trkpt lat="47.5118" lon="6.77089">
        <ele>378</ele>
        <time>2015-11-11T08:21:22.000Z</time>
      </trkpt>
      <trkpt lat="47.51176" lon="6.77082">
        <ele>377</ele>
        <time>2015-11-11T08:21:23.000Z</time>
      </trkpt>
      <trkpt lat="47.51172" lon="6.77074">
        <ele>377</ele>
        <time>2015-11-11T08:21:24.000Z</time>
      </trkpt>
      <trkpt lat="47.51168" lon="6.77068">
        <ele>377</ele>
        <time>2015-11-11T08:21:25.000Z</time>
      </trkpt>
      <trkpt lat="47.51164" lon="6.77061">
        <ele>376</ele>
        <time>2015-11-11T08:21:26.000Z</time>
      </trkpt>
      <trkpt lat="47.51159" lon="6.77055">
        <ele>376</ele>
        <time>2015-11-11T08:21:27.000Z</time>
      </trkpt>
      <trkpt lat="47.51153" lon="6.77049">
        <ele>376</ele>
        <time>2015-11-11T08:21:28.000Z</time>
      </trkpt>
      <trkpt lat="47.51149" lon="6.77043">
        <ele>376</ele>
        <time>2015-11-11T08:21:29.000Z</time>
      </trkpt>
      <trkpt lat="47.51143" lon="6.77039">
        <ele>375</ele>
        <time>2015-11-11T08:21:30.000Z</time>
      </trkpt>
      <trkpt lat="47.51136" lon="6.77033">
        <ele>375</ele>
        <time>2015-11-11T08:21:31.000Z</time>
      </trkpt>
      <trkpt lat="47.51132" lon="6.77029">
        <ele>375</ele>
        <time>2015-11-11T08:21:32.000Z</time>
      </trkpt>
      <trkpt lat="47.51127" lon="6.77026">
        <ele>375</ele>
        <time>2015-11-11T08:21:33.000Z</time>
      </trkpt>
      <trkpt lat="47.51121" lon="6.77021">
        <ele>375</ele>
        <time>2015-11-11T08:21:34.000Z</time>
      </trkpt>
      <trkpt lat="47.51115" lon="6.77017">
        <ele>375</ele>
        <time>2015-11-11T08:21:35.000Z</time>
      </trkpt>
      <trkpt lat="47.5111" lon="6.77012">
        <ele>375</ele>
        <time>2015-11-11T08:21:36.000Z</time>
      </trkpt>
      <trkpt lat="47.51105" lon="6.77007">
        <ele>375</ele>
        <time>2015-11-11T08:21:37.000Z</time>
      </trkpt>
      <trkpt lat="47.511" lon="6.77002">
        <ele>375</ele>
        <time>2015-11-11T08:21:38.000Z</time>
      </trkpt>
      <trkpt lat="47.51093" lon="6.76998">
        <ele>375</ele>
        <time>2015-11-11T08:21:39.000Z</time>
      </trkpt>
      <trkpt lat="47.51088" lon="6.76993">
        <ele>375</ele>
        <time>2015-11-11T08:21:40.000Z</time>
      </trkpt>
      <trkpt lat="47.51082" lon="6.76989">
        <ele>375</ele>
        <time>2015-11-11T08:21:41.000Z</time>
      </trkpt>
      <trkpt lat="47.51078" lon="6.76985">
        <ele>375</ele>
        <time>2015-11-11T08:21:42.000Z</time>
      </trkpt>
      <trkpt lat="47.51072" lon="6.76979">
        <ele>375</ele>
        <time>2015-11-11T08:21:43.000Z</time>
      </trkpt>
      <trkpt lat="47.51067" lon="6.76975">
        <ele>375</ele>
        <time>2015-11-11T08:21:44.000Z</time>
      </trkpt>
      <trkpt lat="47.51061" lon="6.7697">
        <ele>375</ele>
        <time>2015-11-11T08:21:45.000Z</time>
      </trkpt>
      <trkpt lat="47.51057" lon="6.76969">
        <ele>375</ele>
        <time>2015-11-11T08:21:46.000Z</time>
      </trkpt>
      <trkpt lat="47.51052" lon="6.76967">
        <ele>375</ele>
        <time>2015-11-11T08:21:47.000Z</time>
      </trkpt>
      <trkpt lat="47.51047" lon="6.76964">
        <ele>375</ele>
        <time>2015-11-11T08:21:48.000Z</time>
      </trkpt>
      <trkpt lat="47.51042" lon="6.7696">
        <ele>375</ele>
        <time>2015-11-11T08:21:49.000Z</time>
      </trkpt>
      <trkpt lat="47.51037" lon="6.76955">
        <ele>375</ele>
        <time>2015-11-11T08:21:50.000Z</time>
      </trkpt>
      <trkpt lat="47.51033" lon="6.76948">
        <ele>375</ele>
        <time>2015-11-11T08:21:51.000Z</time>
      </trkpt>
      <trkpt lat="47.5103" lon="6.76943">
        <ele>375</ele>
        <time>2015-11-11T08:21:52.000Z</time>
      </trkpt>
      <trkpt lat="47.51026" lon="6.76937">
        <ele>375</ele>
        <time>2015-11-11T08:21:53.000Z</time>
      </trkpt>
      <trkpt lat="47.51019" lon="6.76932">
        <ele>375</ele>
        <time>2015-11-11T08:21:54.000Z</time>
      </trkpt>
      <trkpt lat="47.51014" lon="6.7693">
        <ele>375</ele>
        <time>2015-11-11T08:21:55.000Z</time>
      </trkpt>
      <trkpt lat="47.51008" lon="6.76926">
        <ele>375</ele>
        <time>2015-11-11T08:21:56.000Z</time>
      </trkpt>
      <trkpt lat="47.51004" lon="6.76921">
        <ele>376</ele>
        <time>2015-11-11T08:21:57.000Z</time>
      </trkpt>
      <trkpt lat="47.51001" lon="6.76916">
        <ele>376</ele>
        <time>2015-11-11T08:21:58.000Z</time>
      </trkpt>
      <trkpt lat="47.51" lon="6.76911">
        <ele>376</ele>
        <time>2015-11-11T08:21:59.000Z</time>
      </trkpt>
      <trkpt lat="47.50996" lon="6.76905">
        <ele>377</ele>
        <time>2015-11-11T08:22:00.000Z</time>
      </trkpt>
      <trkpt lat="47.50992" lon="6.769">
        <ele>377</ele>
        <time>2015-11-11T08:22:01.000Z</time>
      </trkpt>
      <trkpt lat="47.50987" lon="6.76898">
        <ele>377</ele>
        <time>2015-11-11T08:22:02.000Z</time>
      </trkpt>
      <trkpt lat="47.50982" lon="6.76896">
        <ele>377</ele>
        <time>2015-11-11T08:22:03.000Z</time>
      </trkpt>
      <trkpt lat="47.50977" lon="6.76896">
        <ele>377</ele>
        <time>2015-11-11T08:22:04.000Z</time>
      </trkpt>
      <trkpt lat="47.50973" lon="6.76896">
        <ele>377</ele>
        <time>2015-11-11T08:22:05.000Z</time>
      </trkpt>
      <trkpt lat="47.5097" lon="6.76894">
        <ele>377</ele>
        <time>2015-11-11T08:22:06.000Z</time>
      </trkpt>
      <trkpt lat="47.50965" lon="6.7689">
        <ele>377</ele>
        <time>2015-11-11T08:22:07.000Z</time>
      </trkpt>
      <trkpt lat="47.50961" lon="6.76887">
        <ele>377</ele>
        <time>2015-11-11T08:22:08.000Z</time>
      </trkpt>
      <trkpt lat="47.50956" lon="6.76884">
        <ele>377</ele>
        <time>2015-11-11T08:22:09.000Z</time>
      </trkpt>
      <trkpt lat="47.50953" lon="6.76883">
        <ele>378</ele>
        <time>2015-11-11T08:22:10.000Z</time>
      </trkpt>
      <trkpt lat="47.50949" lon="6.76877">
        <ele>378</ele>
        <time>2015-11-11T08:22:11.000Z</time>
      </trkpt>
      <trkpt lat="47.50946" lon="6.76876">
        <ele>378</ele>
        <time>2015-11-11T08:22:12.000Z</time>
      </trkpt>
      <trkpt lat="47.50942" lon="6.76871">
        <ele>378</ele>
        <time>2015-11-11T08:22:13.000Z</time>
      </trkpt>
      <trkpt lat="47.5094" lon="6.76868">
        <ele>378</ele>
        <time>2015-11-11T08:22:14.000Z</time>
      </trkpt>
      <trkpt lat="47.50937" lon="6.76864">
        <ele>378</ele>
        <time>2015-11-11T08:22:15.000Z</time>
      </trkpt>
      <trkpt lat="47.50934" lon="6.7686">
        <ele>378</ele>
        <time>2015-11-11T08:22:16.000Z</time>
      </trkpt>
      <trkpt lat="47.50931" lon="6.76858">
        <ele>378</ele>
        <time>2015-11-11T08:22:17.000Z</time>
      </trkpt>
      <trkpt lat="47.50928" lon="6.76855">
        <ele>378</ele>
        <time>2015-11-11T08:22:18.000Z</time>
      </trkpt>
      <trkpt lat="47.50925" lon="6.7685">
        <ele>379</ele>
        <time>2015-11-11T08:22:19.000Z</time>
      </trkpt>
      <trkpt lat="47.50923" lon="6.76845">
        <ele>379</ele>
        <time>2015-11-11T08:22:20.000Z</time>
      </trkpt>
      <trkpt lat="47.50919" lon="6.76838">
        <ele>379</ele>
        <time>2015-11-11T08:22:21.000Z</time>
      </trkpt>
      <trkpt lat="47.50916" lon="6.76835">
        <ele>380</ele>
        <time>2015-11-11T08:22:22.000Z</time>
      </trkpt>
      <trkpt lat="47.50915" lon="6.76829">
        <ele>380</ele>
        <time>2015-11-11T08:22:23.000Z</time>
      </trkpt>
      <trkpt lat="47.50912" lon="6.76823">
        <ele>381</ele>
        <time>2015-11-11T08:22:24.000Z</time>
      </trkpt>
      <trkpt lat="47.5091" lon="6.76817">
        <ele>381</ele>
        <time>2015-11-11T08:22:25.000Z</time>
      </trkpt>
      <trkpt lat="47.50908" lon="6.76812">
        <ele>381</ele>
        <time>2015-11-11T08:22:26.000Z</time>
      </trkpt>
      <trkpt lat="47.50906" lon="6.76807">
        <ele>381</ele>
        <time>2015-11-11T08:22:27.000Z</time>
      </trkpt>
      <trkpt lat="47.50904" lon="6.76802">
        <ele>381</ele>
        <time>2015-11-11T08:22:28.000Z</time>
      </trkpt>
      <trkpt lat="47.50904" lon="6.76796">
        <ele>381</ele>
        <time>2015-11-11T08:22:29.000Z</time>
      </trkpt>
      <trkpt lat="47.50902" lon="6.76791">
        <ele>381</ele>
        <time>2015-11-11T08:22:30.000Z</time>
      </trkpt>
      <trkpt lat="47.509" lon="6.76787">
        <ele>381</ele>
        <time>2015-11-11T08:22:31.000Z</time>
      </trkpt>
      <trkpt lat="47.50897" lon="6.76783">
        <ele>381</ele>
        <time>2015-11-11T08:22:32.000Z</time>
      </trkpt>
      <trkpt lat="47.50895" lon="6.76777">
        <ele>381</ele>
        <time>2015-11-11T08:22:33.000Z</time>
      </trkpt>
      <trkpt lat="47.50892" lon="6.7677">
        <ele>381</ele>
        <time>2015-11-11T08:22:34.000Z</time>
      </trkpt>
      <trkpt lat="47.5089" lon="6.76766">
        <ele>381</ele>
        <time>2015-11-11T08:22:35.000Z</time>
      </trkpt>
      <trkpt lat="47.50888" lon="6.76761">
        <ele>381</ele>
        <time>2015-11-11T08:22:36.000Z</time>
      </trkpt>
      <trkpt lat="47.50886" lon="6.76754">
        <ele>381</ele>
        <time>2015-11-11T08:22:37.000Z</time>
      </trkpt>
      <trkpt lat="47.50885" lon="6.76748">
        <ele>382</ele>
        <time>2015-11-11T08:22:38.000Z</time>
      </trkpt>
      <trkpt lat="47.50883" lon="6.76742">
        <ele>382</ele>
        <time>2015-11-11T08:22:39.000Z</time>
      </trkpt>
      <trkpt lat="47.50882" lon="6.76738">
        <ele>382</ele>
        <time>2015-11-11T08:22:40.000Z</time>
      </trkpt>
      <trkpt lat="47.5088" lon="6.76732">
        <ele>383</ele>
        <time>2015-11-11T08:22:41.000Z</time>
      </trkpt>
      <trkpt lat="47.50879" lon="6.76728">
        <ele>383</ele>
        <time>2015-11-11T08:22:42.000Z</time>
      </trkpt>
      <trkpt lat="47.50877" lon="6.76721">
        <ele>383</ele>
        <time>2015-11-11T08:22:43.000Z</time>
      </trkpt>
      <trkpt lat="47.50874" lon="6.76716">
        <ele>383</ele>
        <time>2015-11-11T08:22:44.000Z</time>
      </trkpt>
      <trkpt lat="47.50872" lon="6.76711">
        <ele>383</ele>
        <time>2015-11-11T08:22:45.000Z</time>
      </trkpt>
      <trkpt lat="47.5087" lon="6.76706">
        <ele>384</ele>
        <time>2015-11-11T08:22:46.000Z</time>
      </trkpt>
      <trkpt lat="47.50869" lon="6.76702">
        <ele>384</ele>
        <time>2015-11-11T08:22:47.000Z</time>
      </trkpt>
      <trkpt lat="47.50867" lon="6.76697">
        <ele>384</ele>
        <time>2015-11-11T08:22:48.000Z</time>
      </trkpt>
      <trkpt lat="47.50866" lon="6.76693">
        <ele>384</ele>
        <time>2015-11-11T08:22:49.000Z</time>
      </trkpt>
      <trkpt lat="47.50864" lon="6.76689">
        <ele>384</ele>
        <time>2015-11-11T08:22:50.000Z</time>
      </trkpt>
      <trkpt lat="47.50863" lon="6.76685">
        <ele>384</ele>
        <time>2015-11-11T08:22:51.000Z</time>
      </trkpt>
      <trkpt lat="47.50861" lon="6.7668">
        <ele>385</ele>
        <time>2015-11-11T08:22:52.000Z</time>
      </trkpt>
      <trkpt lat="47.50859" lon="6.76676">
        <ele>385</ele>
        <time>2015-11-11T08:22:53.000Z</time>
      </trkpt>
      <trkpt lat="47.50858" lon="6.76672">
        <ele>385</ele>
        <time>2015-11-11T08:22:54.000Z</time>
      </trkpt>
      <trkpt lat="47.50856" lon="6.76668">
        <ele>385</ele>
        <time>2015-11-11T08:22:55.000Z</time>
      </trkpt>
      <trkpt lat="47.50854" lon="6.76664">
        <ele>387</ele>
        <time>2015-11-11T08:22:56.000Z</time>
      </trkpt>
      <trkpt lat="47.50853" lon="6.7666">
        <ele>387</ele>
        <time>2015-11-11T08:22:57.000Z</time>
      </trkpt>
      <trkpt lat="47.50851" lon="6.76657">
        <ele>387</ele>
        <time>2015-11-11T08:22:58.000Z</time>
      </trkpt>
      <trkpt lat="47.5085" lon="6.76653">
        <ele>387</ele>
        <time>2015-11-11T08:22:59.000Z</time>
      </trkpt>
      <trkpt lat="47.50848" lon="6.7665">
        <ele>387</ele>
        <time>2015-11-11T08:23:00.000Z</time>
      </trkpt>
      <trkpt lat="47.50847" lon="6.76646">
        <ele>387</ele>
        <time>2015-11-11T08:23:01.000Z</time>
      </trkpt>
      <trkpt lat="47.50845" lon="6.76643">
        <ele>387</ele>
        <time>2015-11-11T08:23:02.000Z</time>
      </trkpt>
      <trkpt lat="47.50843" lon="6.76639">
        <ele>387</ele>
        <time>2015-11-11T08:23:03.000Z</time>
      </trkpt>
      <trkpt lat="47.50841" lon="6.76635">
        <ele>387</ele>
        <time>2015-11-11T08:23:04.000Z</time>
      </trkpt>
      <trkpt lat="47.5084" lon="6.76632">
        <ele>387</ele>
        <time>2015-11-11T08:23:05.000Z</time>
      </trkpt>
      <trkpt lat="47.50838" lon="6.76628">
        <ele>387</ele>
        <time>2015-11-11T08:23:06.000Z</time>
      </trkpt>
      <trkpt lat="47.50837" lon="6.76625">
        <ele>387</ele>
        <time>2015-11-11T08:23:07.000Z</time>
      </trkpt>
      <trkpt lat="47.50835" lon="6.76621">
        <ele>387</ele>
        <time>2015-11-11T08:23:08.000Z</time>
      </trkpt>
      <trkpt lat="47.50833" lon="6.76618">
        <ele>390</ele>
        <time>2015-11-11T08:23:09.000Z</time>
      </trkpt>
      <trkpt lat="47.50831" lon="6.76614">
        <ele>390</ele>
        <time>2015-11-11T08:23:10.000Z</time>
      </trkpt>
      <trkpt lat="47.50829" lon="6.7661">
        <ele>390</ele>
        <time>2015-11-11T08:23:11.000Z</time>
      </trkpt>
      <trkpt lat="47.50828" lon="6.76606">
        <ele>390</ele>
        <time>2015-11-11T08:23:12.000Z</time>
      </trkpt>
      <trkpt lat="47.50826" lon="6.76601">
        <ele>390</ele>
        <time>2015-11-11T08:23:13.000Z</time>
      </trkpt>
      <trkpt lat="47.50825" lon="6.76598">
        <ele>390</ele>
        <time>2015-11-11T08:23:14.000Z</time>
      </trkpt>
      <trkpt lat="47.50823" lon="6.76595">
        <ele>390</ele>
        <time>2015-11-11T08:23:15.000Z</time>
      </trkpt>
      <trkpt lat="47.5082" lon="6.76594">
        <ele>390</ele>
        <time>2015-11-11T08:23:16.000Z</time>
      </trkpt>
      <trkpt lat="47.50818" lon="6.76595">
        <ele>390</ele>
        <time>2015-11-11T08:23:17.000Z</time>
      </trkpt>
      <trkpt lat="47.50815" lon="6.76596">
        <ele>390</ele>
        <time>2015-11-11T08:23:18.000Z</time>
      </trkpt>
      <trkpt lat="47.50813" lon="6.76597">
        <ele>390</ele>
        <time>2015-11-11T08:23:19.000Z</time>
      </trkpt>
      <trkpt lat="47.50812" lon="6.76595">
        <ele>390</ele>
        <time>2015-11-11T08:23:20.000Z</time>
      </trkpt>
      <trkpt lat="47.5081" lon="6.76592">
        <ele>390</ele>
        <time>2015-11-11T08:23:21.000Z</time>
      </trkpt>
      <trkpt lat="47.50808" lon="6.76588">
        <ele>390</ele>
        <time>2015-11-11T08:23:22.000Z</time>
      </trkpt>
      <trkpt lat="47.50806" lon="6.76585">
        <ele>390</ele>
        <time>2015-11-11T08:23:23.000Z</time>
      </trkpt>
      <trkpt lat="47.50803" lon="6.76583">
        <ele>391</ele>
        <time>2015-11-11T08:23:24.000Z</time>
      </trkpt>
      <trkpt lat="47.508" lon="6.76583">
        <ele>391</ele>
        <time>2015-11-11T08:23:25.000Z</time>
      </trkpt>
      <trkpt lat="47.50798" lon="6.76583">
        <ele>392</ele>
        <time>2015-11-11T08:23:26.000Z</time>
      </trkpt>
      <trkpt lat="47.50795" lon="6.76583">
        <ele>392</ele>
        <time>2015-11-11T08:23:27.000Z</time>
      </trkpt>
      <trkpt lat="47.50793" lon="6.76584">
        <ele>391</ele>
        <time>2015-11-11T08:23:28.000Z</time>
      </trkpt>
      <trkpt lat="47.5079" lon="6.76585">
        <ele>391</ele>
        <time>2015-11-11T08:23:29.000Z</time>
      </trkpt>
      <trkpt lat="47.50787" lon="6.76586">
        <ele>391</ele>
        <time>2015-11-11T08:23:30.000Z</time>
      </trkpt>
      <trkpt lat="47.50784" lon="6.76587">
        <ele>391</ele>
        <time>2015-11-11T08:23:31.000Z</time>
      </trkpt>
      <trkpt lat="47.5078" lon="6.76587">
        <ele>392</ele>
        <time>2015-11-11T08:23:32.000Z</time>
      </trkpt>
      <trkpt lat="47.50777" lon="6.76588">
        <ele>392</ele>
        <time>2015-11-11T08:23:33.000Z</time>
      </trkpt>
      <trkpt lat="47.50774" lon="6.76589">
        <ele>392</ele>
        <time>2015-11-11T08:23:34.000Z</time>
      </trkpt>
      <trkpt lat="47.5077" lon="6.76589">
        <ele>392</ele>
        <time>2015-11-11T08:23:35.000Z</time>
      </trkpt>
      <trkpt lat="47.50767" lon="6.7659">
        <ele>392</ele>
        <time>2015-11-11T08:23:36.000Z</time>
      </trkpt>
      <trkpt lat="47.50764" lon="6.7659">
        <ele>392</ele>
        <time>2015-11-11T08:23:37.000Z</time>
      </trkpt>
      <trkpt lat="47.5076" lon="6.7659">
        <ele>393</ele>
        <time>2015-11-11T08:23:38.000Z</time>
      </trkpt>
      <trkpt lat="47.50757" lon="6.76591">
        <ele>393</ele>
        <time>2015-11-11T08:23:39.000Z</time>
      </trkpt>
      <trkpt lat="47.50753" lon="6.76592">
        <ele>393</ele>
        <time>2015-11-11T08:23:40.000Z</time>
      </trkpt>
      <trkpt lat="47.5075" lon="6.76592">
        <ele>393</ele>
        <time>2015-11-11T08:23:41.000Z</time>
      </trkpt>
      <trkpt lat="47.50747" lon="6.76593">
        <ele>394</ele>
        <time>2015-11-11T08:23:42.000Z</time>
      </trkpt>
      <trkpt lat="47.50743" lon="6.76593">
        <ele>394</ele>
        <time>2015-11-11T08:23:43.000Z</time>
      </trkpt>
      <trkpt lat="47.5074" lon="6.76593">
        <ele>394</ele>
        <time>2015-11-11T08:23:44.000Z</time>
      </trkpt>
      <trkpt lat="47.50736" lon="6.76592">
        <ele>394</ele>
        <time>2015-11-11T08:23:45.000Z</time>
      </trkpt>
      <trkpt lat="47.50732" lon="6.76591">
        <ele>394</ele>
        <time>2015-11-11T08:23:46.000Z</time>
      </trkpt>
      <trkpt lat="47.50728" lon="6.7659">
        <ele>394</ele>
        <time>2015-11-11T08:23:47.000Z</time>
      </trkpt>
      <trkpt lat="47.50724" lon="6.76589">
        <ele>394</ele>
        <time>2015-11-11T08:23:48.000Z</time>
      </trkpt>
      <trkpt lat="47.5072" lon="6.76588">
        <ele>394</ele>
        <time>2015-11-11T08:23:49.000Z</time>
      </trkpt>
      <trkpt lat="47.50716" lon="6.76587">
        <ele>395</ele>
        <time>2015-11-11T08:23:50.000Z</time>
      </trkpt>
      <trkpt lat="47.50712" lon="6.76586">
        <ele>395</ele>
        <time>2015-11-11T08:23:51.000Z</time>
      </trkpt>
      <trkpt lat="47.50708" lon="6.76585">
        <ele>395</ele>
        <time>2015-11-11T08:23:52.000Z</time>
      </trkpt>
      <trkpt lat="47.50704" lon="6.76584">
        <ele>395</ele>
        <time>2015-11-11T08:23:53.000Z</time>
      </trkpt>
      <trkpt lat="47.50701" lon="6.76584">
        <ele>395</ele>
        <time>2015-11-11T08:23:54.000Z</time>
      </trkpt>
      <trkpt lat="47.50697" lon="6.76584">
        <ele>395</ele>
        <time>2015-11-11T08:23:55.000Z</time>
      </trkpt>
      <trkpt lat="47.50693" lon="6.76585">
        <ele>395</ele>
        <time>2015-11-11T08:23:56.000Z</time>
      </trkpt>
      <trkpt lat="47.5069" lon="6.76585">
        <ele>395</ele>
        <time>2015-11-11T08:23:57.000Z</time>
      </trkpt>
      <trkpt lat="47.50686" lon="6.76586">
        <ele>396</ele>
        <time>2015-11-11T08:23:58.000Z</time>
      </trkpt>
      <trkpt lat="47.50683" lon="6.76587">
        <ele>396</ele>
        <time>2015-11-11T08:23:59.000Z</time>
      </trkpt>
      <trkpt lat="47.50679" lon="6.76587">
        <ele>396</ele>
        <time>2015-11-11T08:24:00.000Z</time>
      </trkpt>
      <trkpt lat="47.50675" lon="6.76588">
        <ele>396</ele>
        <time>2015-11-11T08:24:01.000Z</time>
      </trkpt>
      <trkpt lat="47.50672" lon="6.76589">
        <ele>396</ele>
        <time>2015-11-11T08:24:02.000Z</time>
      </trkpt>
      <trkpt lat="47.50668" lon="6.76589">
        <ele>396</ele>
        <time>2015-11-11T08:24:03.000Z</time>
      </trkpt>
      <trkpt lat="47.50665" lon="6.7659">
        <ele>397</ele>
        <time>2015-11-11T08:24:04.000Z</time>
      </trkpt>
      <trkpt lat="47.50662" lon="6.76591">
        <ele>397</ele>
        <time>2015-11-11T08:24:05.000Z</time>
      </trkpt>
      <trkpt lat="47.50659" lon="6.76592">
        <ele>397</ele>
        <time>2015-11-11T08:24:06.000Z</time>
      </trkpt>
      <trkpt lat="47.50656" lon="6.76593">
        <ele>397</ele>
        <time>2015-11-11T08:24:07.000Z</time>
      </trkpt>
      <trkpt lat="47.50653" lon="6.76594">
        <ele>397</ele>
        <time>2015-11-11T08:24:08.000Z</time>
      </trkpt>
      <trkpt lat="47.5065" lon="6.76596">
        <ele>397</ele>
        <time>2015-11-11T08:24:09.000Z</time>
      </trkpt>
      <trkpt lat="47.50646" lon="6.76598">
        <ele>397</ele>
        <time>2015-11-11T08:24:10.000Z</time>
      </trkpt>
      <trkpt lat="47.50643" lon="6.76599">
        <ele>397</ele>
        <time>2015-11-11T08:24:11.000Z</time>
      </trkpt>
      <trkpt lat="47.50639" lon="6.76601">
        <ele>397</ele>
        <time>2015-11-11T08:24:12.000Z</time>
      </trkpt>
      <trkpt lat="47.50636" lon="6.76603">
        <ele>397</ele>
        <time>2015-11-11T08:24:13.000Z</time>
      </trkpt>
      <trkpt lat="47.50633" lon="6.76605">
        <ele>397</ele>
        <time>2015-11-11T08:24:14.000Z</time>
      </trkpt>
      <trkpt lat="47.50629" lon="6.76607">
        <ele>397</ele>
        <time>2015-11-11T08:24:15.000Z</time>
      </trkpt>
      <trkpt lat="47.50626" lon="6.76609">
        <ele>397</ele>
        <time>2015-11-11T08:24:16.000Z</time>
      </trkpt>
      <trkpt lat="47.50623" lon="6.76612">
        <ele>397</ele>
        <time>2015-11-11T08:24:17.000Z</time>
      </trkpt>
      <trkpt lat="47.5062" lon="6.76614">
        <ele>397</ele>
        <time>2015-11-11T08:24:18.000Z</time>
      </trkpt>
      <trkpt lat="47.50617" lon="6.76616">
        <ele>397</ele>
        <time>2015-11-11T08:24:19.000Z</time>
      </trkpt>
      <trkpt lat="47.50613" lon="6.76617">
        <ele>397</ele>
        <time>2015-11-11T08:24:20.000Z</time>
      </trkpt>
      <trkpt lat="47.5061" lon="6.76619">
        <ele>398</ele>
        <time>2015-11-11T08:24:21.000Z</time>
      </trkpt>
      <trkpt lat="47.50607" lon="6.7662">
        <ele>398</ele>
        <time>2015-11-11T08:24:22.000Z</time>
      </trkpt>
      <trkpt lat="47.50604" lon="6.76621">
        <ele>398</ele>
        <time>2015-11-11T08:24:23.000Z</time>
      </trkpt>
      <trkpt lat="47.50601" lon="6.76623">
        <ele>398</ele>
        <time>2015-11-11T08:24:24.000Z</time>
      </trkpt>
      <trkpt lat="47.50598" lon="6.76624">
        <ele>398</ele>
        <time>2015-11-11T08:24:25.000Z</time>
      </trkpt>
      <trkpt lat="47.50595" lon="6.76625">
        <ele>398</ele>
        <time>2015-11-11T08:24:26.000Z</time>
      </trkpt>
      <trkpt lat="47.50591" lon="6.76626">
        <ele>398</ele>
        <time>2015-11-11T08:24:27.000Z</time>
      </trkpt>
      <trkpt lat="47.50588" lon="6.76627">
        <ele>398</ele>
        <time>2015-11-11T08:24:28.000Z</time>
      </trkpt>
      <trkpt lat="47.50585" lon="6.76628">
        <ele>398</ele>
        <time>2015-11-11T08:24:29.000Z</time>
      </trkpt>
      <trkpt lat="47.50582" lon="6.76629">
        <ele>399</ele>
        <time>2015-11-11T08:24:30.001Z</time>
      </trkpt>
      <trkpt lat="47.50578" lon="6.7663">
        <ele>399</ele>
        <time>2015-11-11T08:24:31.000Z</time>
      </trkpt>
      <trkpt lat="47.50575" lon="6.76631">
        <ele>399</ele>
        <time>2015-11-11T08:24:32.000Z</time>
      </trkpt>
      <trkpt lat="47.50572" lon="6.76631">
        <ele>399</ele>
        <time>2015-11-11T08:24:33.000Z</time>
      </trkpt>
      <trkpt lat="47.50569" lon="6.76632">
        <ele>399</ele>
        <time>2015-11-11T08:24:34.000Z</time>
      </trkpt>
      <trkpt lat="47.50566" lon="6.76633">
        <ele>399</ele>
        <time>2015-11-11T08:24:35.000Z</time>
      </trkpt>
      <trkpt lat="47.50563" lon="6.76634">
        <ele>399</ele>
        <time>2015-11-11T08:24:36.000Z</time>
      </trkpt>
      <trkpt lat="47.5056" lon="6.76635">
        <ele>399</ele>
        <time>2015-11-11T08:24:37.000Z</time>
      </trkpt>
      <trkpt lat="47.50557" lon="6.76635">
        <ele>399</ele>
        <time>2015-11-11T08:24:38.000Z</time>
      </trkpt>
      <trkpt lat="47.50553" lon="6.76636">
        <ele>399</ele>
        <time>2015-11-11T08:24:39.000Z</time>
      </trkpt>
      <trkpt lat="47.5055" lon="6.76636">
        <ele>399</ele>
        <time>2015-11-11T08:24:40.000Z</time>
      </trkpt>
      <trkpt lat="47.50546" lon="6.76637">
        <ele>399</ele>
        <time>2015-11-11T08:24:41.000Z</time>
      </trkpt>
      <trkpt lat="47.50542" lon="6.76638">
        <ele>399</ele>
        <time>2015-11-11T08:24:42.000Z</time>
      </trkpt>
      <trkpt lat="47.50538" lon="6.76639">
        <ele>399</ele>
        <time>2015-11-11T08:24:43.000Z</time>
      </trkpt>
      <trkpt lat="47.50535" lon="6.7664">
        <ele>399</ele>
        <time>2015-11-11T08:24:44.000Z</time>
      </trkpt>
      <trkpt lat="47.50531" lon="6.76641">
        <ele>399</ele>
        <time>2015-11-11T08:24:45.000Z</time>
      </trkpt>
      <trkpt lat="47.50526" lon="6.76642">
        <ele>399</ele>
        <time>2015-11-11T08:24:46.000Z</time>
      </trkpt>
      <trkpt lat="47.50522" lon="6.76644">
        <ele>399</ele>
        <time>2015-11-11T08:24:47.000Z</time>
      </trkpt>
      <trkpt lat="47.50518" lon="6.76645">
        <ele>399</ele>
        <time>2015-11-11T08:24:48.000Z</time>
      </trkpt>
      <trkpt lat="47.50511" lon="6.76646">
        <ele>399</ele>
        <time>2015-11-11T08:24:49.000Z</time>
      </trkpt>
      <trkpt lat="47.50507" lon="6.76649">
        <ele>399</ele>
        <time>2015-11-11T08:24:50.000Z</time>
      </trkpt>
      <trkpt lat="47.50502" lon="6.76649">
        <ele>399</ele>
        <time>2015-11-11T08:24:51.000Z</time>
      </trkpt>
      <trkpt lat="47.50498" lon="6.76651">
        <ele>399</ele>
        <time>2015-11-11T08:24:52.000Z</time>
      </trkpt>
      <trkpt lat="47.50492" lon="6.76653">
        <ele>399</ele>
        <time>2015-11-11T08:24:52.999Z</time>
      </trkpt>
      <trkpt lat="47.50488" lon="6.76655">
        <ele>399</ele>
        <time>2015-11-11T08:24:54.000Z</time>
      </trkpt>
      <trkpt lat="47.50482" lon="6.76656">
        <ele>399</ele>
        <time>2015-11-11T08:24:55.000Z</time>
      </trkpt>
      <trkpt lat="47.50476" lon="6.76659">
        <ele>398</ele>
        <time>2015-11-11T08:24:56.000Z</time>
      </trkpt>
      <trkpt lat="47.50471" lon="6.76661">
        <ele>398</ele>
        <time>2015-11-11T08:24:57.000Z</time>
      </trkpt>
      <trkpt lat="47.50466" lon="6.76664">
        <ele>398</ele>
        <time>2015-11-11T08:24:58.000Z</time>
      </trkpt>
      <trkpt lat="47.50459" lon="6.76665">
        <ele>398</ele>
        <time>2015-11-11T08:24:59.000Z</time>
      </trkpt>
      <trkpt lat="47.50455" lon="6.76669">
        <ele>397</ele>
        <time>2015-11-11T08:25:00.000Z</time>
      </trkpt>
      <trkpt lat="47.5045" lon="6.7667">
        <ele>397</ele>
        <time>2015-11-11T08:25:01.000Z</time>
      </trkpt>
      <trkpt lat="47.50445" lon="6.76672">
        <ele>397</ele>
        <time>2015-11-11T08:25:02.000Z</time>
      </trkpt>
      <trkpt lat="47.5044" lon="6.76676">
        <ele>397</ele>
        <time>2015-11-11T08:25:03.000Z</time>
      </trkpt>
      <trkpt lat="47.50435" lon="6.76678">
        <ele>397</ele>
        <time>2015-11-11T08:25:04.000Z</time>
      </trkpt>
      <trkpt lat="47.50431" lon="6.76681">
        <ele>397</ele>
        <time>2015-11-11T08:25:04.998Z</time>
      </trkpt>
      <trkpt lat="47.50427" lon="6.76681">
        <ele>397</ele>
        <time>2015-11-11T08:25:06.000Z</time>
      </trkpt>
      <trkpt lat="47.50422" lon="6.76683">
        <ele>397</ele>
        <time>2015-11-11T08:25:07.000Z</time>
      </trkpt>
      <trkpt lat="47.50418" lon="6.76685">
        <ele>397</ele>
        <time>2015-11-11T08:25:08.000Z</time>
      </trkpt>
      <trkpt lat="47.50413" lon="6.76687">
        <ele>397</ele>
        <time>2015-11-11T08:25:09.000Z</time>
      </trkpt>
      <trkpt lat="47.50407" lon="6.76688">
        <ele>397</ele>
        <time>2015-11-11T08:25:10.000Z</time>
      </trkpt>
      <trkpt lat="47.50402" lon="6.7669">
        <ele>397</ele>
        <time>2015-11-11T08:25:11.000Z</time>
      </trkpt>
      <trkpt lat="47.50398" lon="6.76692">
        <ele>397</ele>
        <time>2015-11-11T08:25:12.000Z</time>
      </trkpt>
      <trkpt lat="47.50393" lon="6.76694">
        <ele>397</ele>
        <time>2015-11-11T08:25:13.001Z</time>
      </trkpt>
      <trkpt lat="47.50388" lon="6.76695">
        <ele>397</ele>
        <time>2015-11-11T08:25:14.000Z</time>
      </trkpt>
      <trkpt lat="47.50383" lon="6.76698">
        <ele>397</ele>
        <time>2015-11-11T08:25:15.000Z</time>
      </trkpt>
      <trkpt lat="47.50379" lon="6.767">
        <ele>397</ele>
        <time>2015-11-11T08:25:16.000Z</time>
      </trkpt>
      <trkpt lat="47.50374" lon="6.76702">
        <ele>397</ele>
        <time>2015-11-11T08:25:17.000Z</time>
      </trkpt>
      <trkpt lat="47.5037" lon="6.76703">
        <ele>397</ele>
        <time>2015-11-11T08:25:18.000Z</time>
      </trkpt>
      <trkpt lat="47.50367" lon="6.76705">
        <ele>397</ele>
        <time>2015-11-11T08:25:19.000Z</time>
      </trkpt>
      <trkpt lat="47.50363" lon="6.76707">
        <ele>397</ele>
        <time>2015-11-11T08:25:20.000Z</time>
      </trkpt>
      <trkpt lat="47.50359" lon="6.76709">
        <ele>398</ele>
        <time>2015-11-11T08:25:21.000Z</time>
      </trkpt>
      <trkpt lat="47.50355" lon="6.7671">
        <ele>398</ele>
        <time>2015-11-11T08:25:22.000Z</time>
      </trkpt>
      <trkpt lat="47.5035" lon="6.76711">
        <ele>398</ele>
        <time>2015-11-11T08:25:23.000Z</time>
      </trkpt>
      <trkpt lat="47.50345" lon="6.76713">
        <ele>398</ele>
        <time>2015-11-11T08:25:24.000Z</time>
      </trkpt>
      <trkpt lat="47.5034" lon="6.76716">
        <ele>398</ele>
        <time>2015-11-11T08:25:25.000Z</time>
      </trkpt>
      <trkpt lat="47.50336" lon="6.76717">
        <ele>398</ele>
        <time>2015-11-11T08:25:26.000Z</time>
      </trkpt>
      <trkpt lat="47.50331" lon="6.76719">
        <ele>398</ele>
        <time>2015-11-11T08:25:27.000Z</time>
      </trkpt>
      <trkpt lat="47.50327" lon="6.76721">
        <ele>398</ele>
        <time>2015-11-11T08:25:28.000Z</time>
      </trkpt>
      <trkpt lat="47.50323" lon="6.76723">
        <ele>398</ele>
        <time>2015-11-11T08:25:29.000Z</time>
      </trkpt>
      <trkpt lat="47.50318" lon="6.76725">
        <ele>398</ele>
        <time>2015-11-11T08:25:30.000Z</time>
      </trkpt>
      <trkpt lat="47.50313" lon="6.76727">
        <ele>398</ele>
        <time>2015-11-11T08:25:31.000Z</time>
      </trkpt>
      <trkpt lat="47.50309" lon="6.76727">
        <ele>398</ele>
        <time>2015-11-11T08:25:32.000Z</time>
      </trkpt>
      <trkpt lat="47.50304" lon="6.76726">
        <ele>398</ele>
        <time>2015-11-11T08:25:33.000Z</time>
      </trkpt>
      <trkpt lat="47.50302" lon="6.76725">
        <ele>398</ele>
        <time>2015-11-11T08:25:34.000Z</time>
      </trkpt>
      <trkpt lat="47.50298" lon="6.76723">
        <ele>398</ele>
        <time>2015-11-11T08:25:35.000Z</time>
      </trkpt>
      <trkpt lat="47.50293" lon="6.76725">
        <ele>399</ele>
        <time>2015-11-11T08:25:36.000Z</time>
      </trkpt>
      <trkpt lat="47.50288" lon="6.76725">
        <ele>399</ele>
        <time>2015-11-11T08:25:37.000Z</time>
      </trkpt>
      <trkpt lat="47.50283" lon="6.76726">
        <ele>399</ele>
        <time>2015-11-11T08:25:38.000Z</time>
      </trkpt>
      <trkpt lat="47.50278" lon="6.76727">
        <ele>399</ele>
        <time>2015-11-11T08:25:39.000Z</time>
      </trkpt>
      <trkpt lat="47.50274" lon="6.76731">
        <ele>399</ele>
        <time>2015-11-11T08:25:40.000Z</time>
      </trkpt>
      <trkpt lat="47.5027" lon="6.76734">
        <ele>399</ele>
        <time>2015-11-11T08:25:41.000Z</time>
      </trkpt>
      <trkpt lat="47.50266" lon="6.76736">
        <ele>399</ele>
        <time>2015-11-11T08:25:42.000Z</time>
      </trkpt>
      <trkpt lat="47.50261" lon="6.76739">
        <ele>399</ele>
        <time>2015-11-11T08:25:43.000Z</time>
      </trkpt>
      <trkpt lat="47.50257" lon="6.7674">
        <ele>399</ele>
        <time>2015-11-11T08:25:44.000Z</time>
      </trkpt>
      <trkpt lat="47.50253" lon="6.76741">
        <ele>400</ele>
        <time>2015-11-11T08:25:45.000Z</time>
      </trkpt>
      <trkpt lat="47.50249" lon="6.76744">
        <ele>400</ele>
        <time>2015-11-11T08:25:46.000Z</time>
      </trkpt>
      <trkpt lat="47.50246" lon="6.76744">
        <ele>401</ele>
        <time>2015-11-11T08:25:47.000Z</time>
      </trkpt>
      <trkpt lat="47.50243" lon="6.76742">
        <ele>401</ele>
        <time>2015-11-11T08:25:48.000Z</time>
      </trkpt>
      <trkpt lat="47.5024" lon="6.76739">
        <ele>401</ele>
        <time>2015-11-11T08:25:49.000Z</time>
      </trkpt>
      <trkpt lat="47.50237" lon="6.76736">
        <ele>401</ele>
        <time>2015-11-11T08:25:50.000Z</time>
      </trkpt>
      <trkpt lat="47.50235" lon="6.76732">
        <ele>401</ele>
        <time>2015-11-11T08:25:51.000Z</time>
      </trkpt>
      <trkpt lat="47.50232" lon="6.76728">
        <ele>402</ele>
        <time>2015-11-11T08:25:52.000Z</time>
      </trkpt>
      <trkpt lat="47.5023" lon="6.76725">
        <ele>402</ele>
        <time>2015-11-11T08:25:53.000Z</time>
      </trkpt>
      <trkpt lat="47.50229" lon="6.76721">
        <ele>402</ele>
        <time>2015-11-11T08:25:54.000Z</time>
      </trkpt>
      <trkpt lat="47.50227" lon="6.76717">
        <ele>402</ele>
        <time>2015-11-11T08:25:55.000Z</time>
      </trkpt>
      <trkpt lat="47.50225" lon="6.76712">
        <ele>402</ele>
        <time>2015-11-11T08:25:56.000Z</time>
      </trkpt>
      <trkpt lat="47.50224" lon="6.76706">
        <ele>402</ele>
        <time>2015-11-11T08:25:57.000Z</time>
      </trkpt>
      <trkpt lat="47.50224" lon="6.76697">
        <ele>402</ele>
        <time>2015-11-11T08:25:58.000Z</time>
      </trkpt>
      <trkpt lat="47.50221" lon="6.76692">
        <ele>402</ele>
        <time>2015-11-11T08:25:59.000Z</time>
      </trkpt>
      <trkpt lat="47.5022" lon="6.76687">
        <ele>402</ele>
        <time>2015-11-11T08:26:00.000Z</time>
      </trkpt>
      <trkpt lat="47.50219" lon="6.7668">
        <ele>402</ele>
        <time>2015-11-11T08:26:01.000Z</time>
      </trkpt>
      <trkpt lat="47.50217" lon="6.76673">
        <ele>402</ele>
        <time>2015-11-11T08:26:02.000Z</time>
      </trkpt>
      <trkpt lat="47.50215" lon="6.76667">
        <ele>402</ele>
        <time>2015-11-11T08:26:03.000Z</time>
      </trkpt>
      <trkpt lat="47.50213" lon="6.76662">
        <ele>402</ele>
        <time>2015-11-11T08:26:04.000Z</time>
      </trkpt>
      <trkpt lat="47.50212" lon="6.76658">
        <ele>402</ele>
        <time>2015-11-11T08:26:05.000Z</time>
      </trkpt>
      <trkpt lat="47.5021" lon="6.76654">
        <ele>402</ele>
        <time>2015-11-11T08:26:06.000Z</time>
      </trkpt>
      <trkpt lat="47.50209" lon="6.76646">
        <ele>402</ele>
        <time>2015-11-11T08:26:07.000Z</time>
      </trkpt>
      <trkpt lat="47.50208" lon="6.76641">
        <ele>402</ele>
        <time>2015-11-11T08:26:08.000Z</time>
      </trkpt>
      <trkpt lat="47.50205" lon="6.76634">
        <ele>402</ele>
        <time>2015-11-11T08:26:09.000Z</time>
      </trkpt>
      <trkpt lat="47.50203" lon="6.76626">
        <ele>402</ele>
        <time>2015-11-11T08:26:10.000Z</time>
      </trkpt>
      <trkpt lat="47.50201" lon="6.76621">
        <ele>402</ele>
        <time>2015-11-11T08:26:11.000Z</time>
      </trkpt>
      <trkpt lat="47.50199" lon="6.76615">
        <ele>403</ele>
        <time>2015-11-11T08:26:11.999Z</time>
      </trkpt>
      <trkpt lat="47.50195" lon="6.76608">
        <ele>403</ele>
        <time>2015-11-11T08:26:13.000Z</time>
      </trkpt>
      <trkpt lat="47.50194" lon="6.76606">
        <ele>403</ele>
        <time>2015-11-11T08:26:16.000Z</time>
      </trkpt>
      <trkpt lat="47.50194" lon="6.76601">
        <ele>403</ele>
        <time>2015-11-11T08:26:17.000Z</time>
      </trkpt>
      <trkpt lat="47.50193" lon="6.76597">
        <ele>403</ele>
        <time>2015-11-11T08:26:18.000Z</time>
      </trkpt>
      <trkpt lat="47.50194" lon="6.76592">
        <ele>403</ele>
        <time>2015-11-11T08:26:19.000Z</time>
      </trkpt>
      <trkpt lat="47.50196" lon="6.76587">
        <ele>403</ele>
        <time>2015-11-11T08:26:20.000Z</time>
      </trkpt>
      <trkpt lat="47.50196" lon="6.76584">
        <ele>403</ele>
        <time>2015-11-11T08:26:21.001Z</time>
      </trkpt>
      <trkpt lat="47.50198" lon="6.76579">
        <ele>402</ele>
        <time>2015-11-11T08:26:22.000Z</time>
      </trkpt>
      <trkpt lat="47.50199" lon="6.76575">
        <ele>402</ele>
        <time>2015-11-11T08:26:23.000Z</time>
      </trkpt>
      <trkpt lat="47.50202" lon="6.76573">
        <ele>402</ele>
        <time>2015-11-11T08:26:24.000Z</time>
      </trkpt>
      <trkpt lat="47.50203" lon="6.76571">
        <ele>402</ele>
        <time>2015-11-11T08:26:24.999Z</time>
      </trkpt>
      <trkpt lat="47.50206" lon="6.76569">
        <ele>401</ele>
        <time>2015-11-11T08:26:26.001Z</time>
      </trkpt>
      <trkpt lat="47.50208" lon="6.76567">
        <ele>401</ele>
        <time>2015-11-11T08:26:27.000Z</time>
      </trkpt>
      <trkpt lat="47.50213" lon="6.76551">
        <ele>401</ele>
        <time>2015-11-11T08:26:28.000Z</time>
      </trkpt>
      <trkpt lat="47.50214" lon="6.76545">
        <ele>400</ele>
        <time>2015-11-11T08:26:28.999Z</time>
      </trkpt>
      <trkpt lat="47.50214" lon="6.7654">
        <ele>400</ele>
        <time>2015-11-11T08:26:30.000Z</time>
      </trkpt>
      <trkpt lat="47.5021" lon="6.76538">
        <ele>401</ele>
        <time>2015-11-11T08:26:35.001Z</time>
      </trkpt>
      <trkpt lat="47.50211" lon="6.76534">
        <ele>400</ele>
        <time>2015-11-11T08:26:36.000Z</time>
      </trkpt>
      <trkpt lat="47.50208" lon="6.76529">
        <ele>401</ele>
        <time>2015-11-11T08:26:39.000Z</time>
      </trkpt>
      <trkpt lat="47.50207" lon="6.76528">
        <ele>401</ele>
        <time>2015-11-11T08:26:40.002Z</time>
      </trkpt>
      <trkpt lat="47.50205" lon="6.76522">
        <ele>401</ele>
        <time>2015-11-11T08:26:41.000Z</time>
      </trkpt>
      <trkpt lat="47.50204" lon="6.76516">
        <ele>401</ele>
        <time>2015-11-11T08:26:42.000Z</time>
      </trkpt>
      <trkpt lat="47.50202" lon="6.76509">
        <ele>401</ele>
        <time>2015-11-11T08:26:43.000Z</time>
      </trkpt>
      <trkpt lat="47.502" lon="6.76502">
        <ele>401</ele>
        <time>2015-11-11T08:26:44.000Z</time>
      </trkpt>
      <trkpt lat="47.50198" lon="6.76496">
        <ele>398</ele>
        <time>2015-11-11T08:26:45.000Z</time>
      </trkpt>
      <trkpt lat="47.50197" lon="6.76489">
        <ele>398</ele>
        <time>2015-11-11T08:26:46.000Z</time>
      </trkpt>
      <trkpt lat="47.50196" lon="6.76483">
        <ele>398</ele>
        <time>2015-11-11T08:26:47.000Z</time>
      </trkpt>
      <trkpt lat="47.50195" lon="6.76476">
        <ele>397</ele>
        <time>2015-11-11T08:26:48.000Z</time>
      </trkpt>
      <trkpt lat="47.50193" lon="6.7647">
        <ele>397</ele>
        <time>2015-11-11T08:26:49.000Z</time>
      </trkpt>
      <trkpt lat="47.50184" lon="6.76435">
        <ele>397</ele>
        <time>2015-11-11T08:26:50.000Z</time>
      </trkpt>
      <trkpt lat="47.5018" lon="6.7642">
        <ele>397</ele>
        <time>2015-11-11T08:26:51.000Z</time>
      </trkpt>
      <trkpt lat="47.50175" lon="6.76404">
        <ele>394</ele>
        <time>2015-11-11T08:26:52.000Z</time>
      </trkpt>
      <trkpt lat="47.50171" lon="6.76393">
        <ele>393</ele>
        <time>2015-11-11T08:26:53.000Z</time>
      </trkpt>
      <trkpt lat="47.5017" lon="6.76379">
        <ele>391</ele>
        <time>2015-11-11T08:26:54.000Z</time>
      </trkpt>
      <trkpt lat="47.50167" lon="6.76362">
        <ele>391</ele>
        <time>2015-11-11T08:26:55.000Z</time>
      </trkpt>
      <trkpt lat="47.50162" lon="6.76344">
        <ele>395</ele>
        <time>2015-11-11T08:26:56.000Z</time>
      </trkpt>
      <trkpt lat="47.50158" lon="6.76327">
        <ele>393</ele>
        <time>2015-11-11T08:26:57.000Z</time>
      </trkpt>
      <trkpt lat="47.50156" lon="6.76313">
        <ele>394</ele>
        <time>2015-11-11T08:26:58.000Z</time>
      </trkpt>
      <trkpt lat="47.50151" lon="6.76294">
        <ele>395</ele>
        <time>2015-11-11T08:26:59.000Z</time>
      </trkpt>
      <trkpt lat="47.50148" lon="6.76276">
        <ele>394</ele>
        <time>2015-11-11T08:27:00.000Z</time>
      </trkpt>
      <trkpt lat="47.50144" lon="6.7626">
        <ele>393</ele>
        <time>2015-11-11T08:27:01.000Z</time>
      </trkpt>
      <trkpt lat="47.5014" lon="6.76247">
        <ele>390</ele>
        <time>2015-11-11T08:27:02.000Z</time>
      </trkpt>
      <trkpt lat="47.5013" lon="6.76228">
        <ele>391</ele>
        <time>2015-11-11T08:27:03.000Z</time>
      </trkpt>
      <trkpt lat="47.50123" lon="6.76214">
        <ele>391</ele>
        <time>2015-11-11T08:27:04.000Z</time>
      </trkpt>
      <trkpt lat="47.50117" lon="6.76201">
        <ele>391</ele>
        <time>2015-11-11T08:27:05.000Z</time>
      </trkpt>
      <trkpt lat="47.50115" lon="6.76186">
        <ele>391</ele>
        <time>2015-11-11T08:27:06.000Z</time>
      </trkpt>
      <trkpt lat="47.50118" lon="6.76175">
        <ele>390</ele>
        <time>2015-11-11T08:27:07.000Z</time>
      </trkpt>
      <trkpt lat="47.50118" lon="6.76158">
        <ele>386</ele>
        <time>2015-11-11T08:27:08.000Z</time>
      </trkpt>
      <trkpt lat="47.50116" lon="6.76142">
        <ele>386</ele>
        <time>2015-11-11T08:27:09.000Z</time>
      </trkpt>
      <trkpt lat="47.50114" lon="6.76124">
        <ele>385</ele>
        <time>2015-11-11T08:27:10.000Z</time>
      </trkpt>
      <trkpt lat="47.50112" lon="6.76107">
        <ele>385</ele>
        <time>2015-11-11T08:27:11.000Z</time>
      </trkpt>
      <trkpt lat="47.50109" lon="6.7609">
        <ele>385</ele>
        <time>2015-11-11T08:27:12.000Z</time>
      </trkpt>
      <trkpt lat="47.50108" lon="6.76075">
        <ele>382</ele>
        <time>2015-11-11T08:27:13.000Z</time>
      </trkpt>
      <trkpt lat="47.50105" lon="6.76061">
        <ele>381</ele>
        <time>2015-11-11T08:27:14.000Z</time>
      </trkpt>
      <trkpt lat="47.50102" lon="6.76049">
        <ele>381</ele>
        <time>2015-11-11T08:27:15.000Z</time>
      </trkpt>
      <trkpt lat="47.50095" lon="6.76032">
        <ele>380</ele>
        <time>2015-11-11T08:27:16.000Z</time>
      </trkpt>
      <trkpt lat="47.50091" lon="6.76019">
        <ele>380</ele>
        <time>2015-11-11T08:27:17.000Z</time>
      </trkpt>
      <trkpt lat="47.50091" lon="6.76008">
        <ele>380</ele>
        <time>2015-11-11T08:27:18.000Z</time>
      </trkpt>
      <trkpt lat="47.50089" lon="6.75995">
        <ele>378</ele>
        <time>2015-11-11T08:27:19.000Z</time>
      </trkpt>
      <trkpt lat="47.50085" lon="6.75984">
        <ele>376</ele>
        <time>2015-11-11T08:27:20.000Z</time>
      </trkpt>
      <trkpt lat="47.50081" lon="6.75975">
        <ele>379</ele>
        <time>2015-11-11T08:27:21.000Z</time>
      </trkpt>
      <trkpt lat="47.50076" lon="6.75965">
        <ele>378</ele>
        <time>2015-11-11T08:27:22.000Z</time>
      </trkpt>
      <trkpt lat="47.50073" lon="6.75957">
        <ele>378</ele>
        <time>2015-11-11T08:27:23.000Z</time>
      </trkpt>
      <trkpt lat="47.50068" lon="6.75949">
        <ele>378</ele>
        <time>2015-11-11T08:27:24.000Z</time>
      </trkpt>
      <trkpt lat="47.50063" lon="6.75943">
        <ele>378</ele>
        <time>2015-11-11T08:27:25.000Z</time>
      </trkpt>
      <trkpt lat="47.50059" lon="6.75931">
        <ele>377</ele>
        <time>2015-11-11T08:27:26.000Z</time>
      </trkpt>
      <trkpt lat="47.50053" lon="6.75924">
        <ele>377</ele>
        <time>2015-11-11T08:27:27.000Z</time>
      </trkpt>
      <trkpt lat="47.50048" lon="6.75916">
        <ele>376</ele>
        <time>2015-11-11T08:27:28.000Z</time>
      </trkpt>
      <trkpt lat="47.50041" lon="6.75906">
        <ele>376</ele>
        <time>2015-11-11T08:27:29.000Z</time>
      </trkpt>
      <trkpt lat="47.50035" lon="6.75897">
        <ele>376</ele>
        <time>2015-11-11T08:27:30.000Z</time>
      </trkpt>
      <trkpt lat="47.5003" lon="6.75889">
        <ele>376</ele>
        <time>2015-11-11T08:27:31.000Z</time>
      </trkpt>
      <trkpt lat="47.50024" lon="6.7588">
        <ele>376</ele>
        <time>2015-11-11T08:27:32.000Z</time>
      </trkpt>
      <trkpt lat="47.50019" lon="6.7587">
        <ele>377</ele>
        <time>2015-11-11T08:27:33.000Z</time>
      </trkpt>
      <trkpt lat="47.50013" lon="6.75862">
        <ele>377</ele>
        <time>2015-11-11T08:27:34.000Z</time>
      </trkpt>
      <trkpt lat="47.50007" lon="6.7585">
        <ele>377</ele>
        <time>2015-11-11T08:27:35.000Z</time>
      </trkpt>
      <trkpt lat="47.50002" lon="6.7584">
        <ele>378</ele>
        <time>2015-11-11T08:27:36.000Z</time>
      </trkpt>
      <trkpt lat="47.49997" lon="6.75831">
        <ele>378</ele>
        <time>2015-11-11T08:27:37.000Z</time>
      </trkpt>
      <trkpt lat="47.49992" lon="6.75821">
        <ele>377</ele>
        <time>2015-11-11T08:27:38.000Z</time>
      </trkpt>
      <trkpt lat="47.49986" lon="6.75812">
        <ele>376</ele>
        <time>2015-11-11T08:27:39.000Z</time>
      </trkpt>
      <trkpt lat="47.4998" lon="6.75801">
        <ele>375</ele>
        <time>2015-11-11T08:27:40.000Z</time>
      </trkpt>
      <trkpt lat="47.49976" lon="6.7579">
        <ele>375</ele>
        <time>2015-11-11T08:27:41.000Z</time>
      </trkpt>
      <trkpt lat="47.49973" lon="6.75782">
        <ele>374</ele>
        <time>2015-11-11T08:27:42.000Z</time>
      </trkpt>
      <trkpt lat="47.49965" lon="6.75779">
        <ele>374</ele>
        <time>2015-11-11T08:27:43.000Z</time>
      </trkpt>
      <trkpt lat="47.4996" lon="6.75773">
        <ele>374</ele>
        <time>2015-11-11T08:27:44.000Z</time>
      </trkpt>
      <trkpt lat="47.49954" lon="6.75764">
        <ele>373</ele>
        <time>2015-11-11T08:27:45.000Z</time>
      </trkpt>
      <trkpt lat="47.49948" lon="6.75756">
        <ele>373</ele>
        <time>2015-11-11T08:27:46.000Z</time>
      </trkpt>
      <trkpt lat="47.4994" lon="6.75744">
        <ele>370</ele>
        <time>2015-11-11T08:27:47.000Z</time>
      </trkpt>
      <trkpt lat="47.49933" lon="6.75738">
        <ele>370</ele>
        <time>2015-11-11T08:27:48.000Z</time>
      </trkpt>
      <trkpt lat="47.49928" lon="6.75734">
        <ele>370</ele>
        <time>2015-11-11T08:27:49.000Z</time>
      </trkpt>
      <trkpt lat="47.49921" lon="6.75724">
        <ele>370</ele>
        <time>2015-11-11T08:27:50.000Z</time>
      </trkpt>
      <trkpt lat="47.49914" lon="6.75715">
        <ele>365</ele>
        <time>2015-11-11T08:27:51.000Z</time>
      </trkpt>
      <trkpt lat="47.49903" lon="6.75709">
        <ele>364</ele>
        <time>2015-11-11T08:27:52.000Z</time>
      </trkpt>
      <trkpt lat="47.49896" lon="6.75709">
        <ele>364</ele>
        <time>2015-11-11T08:27:53.000Z</time>
      </trkpt>
      <trkpt lat="47.49886" lon="6.75709">
        <ele>363</ele>
        <time>2015-11-11T08:27:54.000Z</time>
      </trkpt>
      <trkpt lat="47.49875" lon="6.75711">
        <ele>363</ele>
        <time>2015-11-11T08:27:55.000Z</time>
      </trkpt>
      <trkpt lat="47.49866" lon="6.75712">
        <ele>362</ele>
        <time>2015-11-11T08:27:56.000Z</time>
      </trkpt>
      <trkpt lat="47.49857" lon="6.75716">
        <ele>361</ele>
        <time>2015-11-11T08:27:57.000Z</time>
      </trkpt>
      <trkpt lat="47.49849" lon="6.75723">
        <ele>361</ele>
        <time>2015-11-11T08:27:58.000Z</time>
      </trkpt>
      <trkpt lat="47.4984" lon="6.75723">
        <ele>361</ele>
        <time>2015-11-11T08:27:59.000Z</time>
      </trkpt>
      <trkpt lat="47.49829" lon="6.75724">
        <ele>354</ele>
        <time>2015-11-11T08:28:00.000Z</time>
      </trkpt>
      <trkpt lat="47.4982" lon="6.75727">
        <ele>354</ele>
        <time>2015-11-11T08:28:01.000Z</time>
      </trkpt>
      <trkpt lat="47.4981" lon="6.75731">
        <ele>353</ele>
        <time>2015-11-11T08:28:02.000Z</time>
      </trkpt>
      <trkpt lat="47.49799" lon="6.75736">
        <ele>352</ele>
        <time>2015-11-11T08:28:03.000Z</time>
      </trkpt>
      <trkpt lat="47.49791" lon="6.75742">
        <ele>352</ele>
        <time>2015-11-11T08:28:04.000Z</time>
      </trkpt>
      <trkpt lat="47.49779" lon="6.75745">
        <ele>351</ele>
        <time>2015-11-11T08:28:05.000Z</time>
      </trkpt>
      <trkpt lat="47.49768" lon="6.75753">
        <ele>356</ele>
        <time>2015-11-11T08:28:06.000Z</time>
      </trkpt>
      <trkpt lat="47.49756" lon="6.75757">
        <ele>354</ele>
        <time>2015-11-11T08:28:07.000Z</time>
      </trkpt>
      <trkpt lat="47.49746" lon="6.75761">
        <ele>352</ele>
        <time>2015-11-11T08:28:08.000Z</time>
      </trkpt>
      <trkpt lat="47.49737" lon="6.75763">
        <ele>353</ele>
        <time>2015-11-11T08:28:09.000Z</time>
      </trkpt>
      <trkpt lat="47.4973" lon="6.75768">
        <ele>353</ele>
        <time>2015-11-11T08:28:10.000Z</time>
      </trkpt>
      <trkpt lat="47.49721" lon="6.75773">
        <ele>354</ele>
        <time>2015-11-11T08:28:11.000Z</time>
      </trkpt>
      <trkpt lat="47.49714" lon="6.75777">
        <ele>354</ele>
        <time>2015-11-11T08:28:12.000Z</time>
      </trkpt>
      <trkpt lat="47.49707" lon="6.75778">
        <ele>353</ele>
        <time>2015-11-11T08:28:13.000Z</time>
      </trkpt>
      <trkpt lat="47.49699" lon="6.75778">
        <ele>353</ele>
        <time>2015-11-11T08:28:14.000Z</time>
      </trkpt>
      <trkpt lat="47.49689" lon="6.75783">
        <ele>353</ele>
        <time>2015-11-11T08:28:15.000Z</time>
      </trkpt>
      <trkpt lat="47.4968" lon="6.75783">
        <ele>353</ele>
        <time>2015-11-11T08:28:16.000Z</time>
      </trkpt>
      <trkpt lat="47.49675" lon="6.75783">
        <ele>352</ele>
        <time>2015-11-11T08:28:17.000Z</time>
      </trkpt>
      <trkpt lat="47.49668" lon="6.75785">
        <ele>352</ele>
        <time>2015-11-11T08:28:18.000Z</time>
      </trkpt>
      <trkpt lat="47.49661" lon="6.75787">
        <ele>347</ele>
        <time>2015-11-11T08:28:19.000Z</time>
      </trkpt>
      <trkpt lat="47.49653" lon="6.75787">
        <ele>347</ele>
        <time>2015-11-11T08:28:20.000Z</time>
      </trkpt>
      <trkpt lat="47.49645" lon="6.75788">
        <ele>347</ele>
        <time>2015-11-11T08:28:21.000Z</time>
      </trkpt>
      <trkpt lat="47.49639" lon="6.75788">
        <ele>347</ele>
        <time>2015-11-11T08:28:22.000Z</time>
      </trkpt>
      <trkpt lat="47.49633" lon="6.75791">
        <ele>347</ele>
        <time>2015-11-11T08:28:23.000Z</time>
      </trkpt>
      <trkpt lat="47.49622" lon="6.75785">
        <ele>346</ele>
        <time>2015-11-11T08:28:24.000Z</time>
      </trkpt>
      <trkpt lat="47.49613" lon="6.75786">
        <ele>345</ele>
        <time>2015-11-11T08:28:25.000Z</time>
      </trkpt>
      <trkpt lat="47.49606" lon="6.75784">
        <ele>344</ele>
        <time>2015-11-11T08:28:26.000Z</time>
      </trkpt>
      <trkpt lat="47.49602" lon="6.75783">
        <ele>344</ele>
        <time>2015-11-11T08:28:27.000Z</time>
      </trkpt>
      <trkpt lat="47.49596" lon="6.75775">
        <ele>342</ele>
        <time>2015-11-11T08:28:28.000Z</time>
      </trkpt>
      <trkpt lat="47.49588" lon="6.75774">
        <ele>342</ele>
        <time>2015-11-11T08:28:29.000Z</time>
      </trkpt>
      <trkpt lat="47.49582" lon="6.75772">
        <ele>336</ele>
        <time>2015-11-11T08:28:30.000Z</time>
      </trkpt>
      <trkpt lat="47.49574" lon="6.75772">
        <ele>336</ele>
        <time>2015-11-11T08:28:31.000Z</time>
      </trkpt>
      <trkpt lat="47.4957" lon="6.75766">
        <ele>335</ele>
        <time>2015-11-11T08:28:32.000Z</time>
      </trkpt>
      <trkpt lat="47.49566" lon="6.75763">
        <ele>335</ele>
        <time>2015-11-11T08:28:33.000Z</time>
      </trkpt>
      <trkpt lat="47.49561" lon="6.75757">
        <ele>335</ele>
        <time>2015-11-11T08:28:34.000Z</time>
      </trkpt>
      <trkpt lat="47.49557" lon="6.7575">
        <ele>328</ele>
        <time>2015-11-11T08:28:35.000Z</time>
      </trkpt>
      <trkpt lat="47.49554" lon="6.75742">
        <ele>328</ele>
        <time>2015-11-11T08:28:36.000Z</time>
      </trkpt>
      <trkpt lat="47.49562" lon="6.75746">
        <ele>329</ele>
        <time>2015-11-11T08:28:37.000Z</time>
      </trkpt>
      <trkpt lat="47.49563" lon="6.75744">
        <ele>329</ele>
        <time>2015-11-11T08:28:38.000Z</time>
      </trkpt>
      <trkpt lat="47.49566" lon="6.75742">
        <ele>329</ele>
        <time>2015-11-11T08:28:39.000Z</time>
      </trkpt>
      <trkpt lat="47.4957" lon="6.7574">
        <ele>330</ele>
        <time>2015-11-11T08:28:40.000Z</time>
      </trkpt>
      <trkpt lat="47.49575" lon="6.75736">
        <ele>329</ele>
        <time>2015-11-11T08:28:41.000Z</time>
      </trkpt>
      <trkpt lat="47.4958" lon="6.75732">
        <ele>329</ele>
        <time>2015-11-11T08:28:42.000Z</time>
      </trkpt>
      <trkpt lat="47.49585" lon="6.75728">
        <ele>332</ele>
        <time>2015-11-11T08:28:43.000Z</time>
      </trkpt>
      <trkpt lat="47.49589" lon="6.75723">
        <ele>332</ele>
        <time>2015-11-11T08:28:44.000Z</time>
      </trkpt>
      <trkpt lat="47.49592" lon="6.75716">
        <ele>331</ele>
        <time>2015-11-11T08:28:45.000Z</time>
      </trkpt>
      <trkpt lat="47.49596" lon="6.75709">
        <ele>330</ele>
        <time>2015-11-11T08:28:46.000Z</time>
      </trkpt>
      <trkpt lat="47.49601" lon="6.75702">
        <ele>330</ele>
        <time>2015-11-11T08:28:47.000Z</time>
      </trkpt>
      <trkpt lat="47.49601" lon="6.75695">
        <ele>329</ele>
        <time>2015-11-11T08:28:48.000Z</time>
      </trkpt>
      <trkpt lat="47.49595" lon="6.75687">
        <ele>327</ele>
        <time>2015-11-11T08:28:49.000Z</time>
      </trkpt>
      <trkpt lat="47.49593" lon="6.75679">
        <ele>326</ele>
        <time>2015-11-11T08:28:50.000Z</time>
      </trkpt>
      <trkpt lat="47.49588" lon="6.75671">
        <ele>323</ele>
        <time>2015-11-11T08:28:51.000Z</time>
      </trkpt>
      <trkpt lat="47.49583" lon="6.75665">
        <ele>321</ele>
        <time>2015-11-11T08:28:52.000Z</time>
      </trkpt>
      <trkpt lat="47.49578" lon="6.75663">
        <ele>321</ele>
        <time>2015-11-11T08:28:53.000Z</time>
      </trkpt>
      <trkpt lat="47.49572" lon="6.75664">
        <ele>321</ele>
        <time>2015-11-11T08:28:54.000Z</time>
      </trkpt>
      <trkpt lat="47.49567" lon="6.75669">
        <ele>323</ele>
        <time>2015-11-11T08:28:55.000Z</time>
      </trkpt>
      <trkpt lat="47.4956" lon="6.75672">
        <ele>323</ele>
        <time>2015-11-11T08:28:56.000Z</time>
      </trkpt>
      <trkpt lat="47.4956" lon="6.75676">
        <ele>324</ele>
        <time>2015-11-11T08:28:57.000Z</time>
      </trkpt>
      <trkpt lat="47.49555" lon="6.75681">
        <ele>324</ele>
        <time>2015-11-11T08:28:58.000Z</time>
      </trkpt>
      <trkpt lat="47.49549" lon="6.75689">
        <ele>324</ele>
        <time>2015-11-11T08:28:59.000Z</time>
      </trkpt>
      <trkpt lat="47.49545" lon="6.75696">
        <ele>324</ele>
        <time>2015-11-11T08:29:00.000Z</time>
      </trkpt>
      <trkpt lat="47.4954" lon="6.75701">
        <ele>325</ele>
        <time>2015-11-11T08:29:01.000Z</time>
      </trkpt>
      <trkpt lat="47.49535" lon="6.75707">
        <ele>325</ele>
        <time>2015-11-11T08:29:02.000Z</time>
      </trkpt>
      <trkpt lat="47.49529" lon="6.75713">
        <ele>325</ele>
        <time>2015-11-11T08:29:03.000Z</time>
      </trkpt>
      <trkpt lat="47.49523" lon="6.75717">
        <ele>325</ele>
        <time>2015-11-11T08:29:04.000Z</time>
      </trkpt>
      <trkpt lat="47.49518" lon="6.7572">
        <ele>325</ele>
        <time>2015-11-11T08:29:05.000Z</time>
      </trkpt>
      <trkpt lat="47.49513" lon="6.75724">
        <ele>325</ele>
        <time>2015-11-11T08:29:06.000Z</time>
      </trkpt>
      <trkpt lat="47.49507" lon="6.75726">
        <ele>325</ele>
        <time>2015-11-11T08:29:07.000Z</time>
      </trkpt>
      <trkpt lat="47.49501" lon="6.75728">
        <ele>324</ele>
        <time>2015-11-11T08:29:08.000Z</time>
      </trkpt>
      <trkpt lat="47.49496" lon="6.75731">
        <ele>322</ele>
        <time>2015-11-11T08:29:09.000Z</time>
      </trkpt>
      <trkpt lat="47.4949" lon="6.75732">
        <ele>322</ele>
        <time>2015-11-11T08:29:10.000Z</time>
      </trkpt>
      <trkpt lat="47.49484" lon="6.75731">
        <ele>322</ele>
        <time>2015-11-11T08:29:11.000Z</time>
      </trkpt>
      <trkpt lat="47.4948" lon="6.75726">
        <ele>322</ele>
        <time>2015-11-11T08:29:12.000Z</time>
      </trkpt>
      <trkpt lat="47.49477" lon="6.75717">
        <ele>321</ele>
        <time>2015-11-11T08:29:13.000Z</time>
      </trkpt>
      <trkpt lat="47.49474" lon="6.7571">
        <ele>321</ele>
        <time>2015-11-11T08:29:14.000Z</time>
      </trkpt>
      <trkpt lat="47.49472" lon="6.75704">
        <ele>321</ele>
        <time>2015-11-11T08:29:15.000Z</time>
      </trkpt>
      <trkpt lat="47.4947" lon="6.75697">
        <ele>321</ele>
        <time>2015-11-11T08:29:16.000Z</time>
      </trkpt>
      <trkpt lat="47.49465" lon="6.75693">
        <ele>321</ele>
        <time>2015-11-11T08:29:17.000Z</time>
      </trkpt>
      <trkpt lat="47.49459" lon="6.7569">
        <ele>321</ele>
        <time>2015-11-11T08:29:18.000Z</time>
      </trkpt>
      <trkpt lat="47.49454" lon="6.75687">
        <ele>321</ele>
        <time>2015-11-11T08:29:19.000Z</time>
      </trkpt>
      <trkpt lat="47.4945" lon="6.757">
        <ele>321</ele>
        <time>2015-11-11T08:29:20.000Z</time>
      </trkpt>
      <trkpt lat="47.49445" lon="6.75701">
        <ele>321</ele>
        <time>2015-11-11T08:29:21.000Z</time>
      </trkpt>
      <trkpt lat="47.49441" lon="6.75699">
        <ele>321</ele>
        <time>2015-11-11T08:29:22.000Z</time>
      </trkpt>
      <trkpt lat="47.49439" lon="6.75694">
        <ele>320</ele>
        <time>2015-11-11T08:29:23.000Z</time>
      </trkpt>
      <trkpt lat="47.49437" lon="6.75691">
        <ele>320</ele>
        <time>2015-11-11T08:29:23.999Z</time>
      </trkpt>
      <trkpt lat="47.49437" lon="6.75684">
        <ele>320</ele>
        <time>2015-11-11T08:29:25.000Z</time>
      </trkpt>
      <trkpt lat="47.49435" lon="6.75679">
        <ele>320</ele>
        <time>2015-11-11T08:29:25.999Z</time>
      </trkpt>
      <trkpt lat="47.4943" lon="6.75681">
        <ele>320</ele>
        <time>2015-11-11T08:29:27.000Z</time>
      </trkpt>
      <trkpt lat="47.49425" lon="6.75681">
        <ele>320</ele>
        <time>2015-11-11T08:29:28.000Z</time>
      </trkpt>
      <trkpt lat="47.49421" lon="6.75683">
        <ele>320</ele>
        <time>2015-11-11T08:29:29.000Z</time>
      </trkpt>
      <trkpt lat="47.49418" lon="6.75686">
        <ele>320</ele>
        <time>2015-11-11T08:29:30.000Z</time>
      </trkpt>
      <trkpt lat="47.49412" lon="6.75689">
        <ele>319</ele>
        <time>2015-11-11T08:29:31.000Z</time>
      </trkpt>
      <trkpt lat="47.49408" lon="6.75689">
        <ele>319</ele>
        <time>2015-11-11T08:29:32.000Z</time>
      </trkpt>
      <trkpt lat="47.49403" lon="6.75691">
        <ele>319</ele>
        <time>2015-11-11T08:29:33.000Z</time>
      </trkpt>
      <trkpt lat="47.49398" lon="6.75695">
        <ele>319</ele>
        <time>2015-11-11T08:29:34.000Z</time>
      </trkpt>
      <trkpt lat="47.49393" lon="6.75697">
        <ele>319</ele>
        <time>2015-11-11T08:29:35.000Z</time>
      </trkpt>
      <trkpt lat="47.49388" lon="6.75701">
        <ele>319</ele>
        <time>2015-11-11T08:29:36.000Z</time>
      </trkpt>
      <trkpt lat="47.49382" lon="6.75705">
        <ele>319</ele>
        <time>2015-11-11T08:29:37.000Z</time>
      </trkpt>
      <trkpt lat="47.49378" lon="6.75708">
        <ele>319</ele>
        <time>2015-11-11T08:29:37.998Z</time>
      </trkpt>
      <trkpt lat="47.49375" lon="6.75704">
        <ele>319</ele>
        <time>2015-11-11T08:29:40.000Z</time>
      </trkpt>
      <trkpt lat="47.4937" lon="6.75708">
        <ele>319</ele>
        <time>2015-11-11T08:29:41.000Z</time>
      </trkpt>
      <trkpt lat="47.49364" lon="6.75714">
        <ele>319</ele>
        <time>2015-11-11T08:29:42.000Z</time>
      </trkpt>
      <trkpt lat="47.4936" lon="6.75717">
        <ele>319</ele>
        <time>2015-11-11T08:29:44.000Z</time>
      </trkpt>
      <trkpt lat="47.49358" lon="6.75718">
        <ele>319</ele>
        <time>2015-11-11T08:29:45.000Z</time>
      </trkpt>
      <trkpt lat="47.49354" lon="6.75721">
        <ele>319</ele>
        <time>2015-11-11T08:29:47.000Z</time>
      </trkpt>
      <trkpt lat="47.49352" lon="6.7572">
        <ele>319</ele>
        <time>2015-11-11T08:29:48.000Z</time>
      </trkpt>
      <trkpt lat="47.49348" lon="6.75722">
        <ele>319</ele>
        <time>2015-11-11T08:29:49.999Z</time>
      </trkpt>
      <trkpt lat="47.49341" lon="6.75722">
        <ele>318</ele>
        <time>2015-11-11T08:29:51.000Z</time>
      </trkpt>
      <trkpt lat="47.49338" lon="6.75725">
        <ele>318</ele>
        <time>2015-11-11T08:29:52.000Z</time>
      </trkpt>
      <trkpt lat="47.49334" lon="6.75726">
        <ele>318</ele>
        <time>2015-11-11T08:29:53.000Z</time>
      </trkpt>
      <trkpt lat="47.49331" lon="6.75728">
        <ele>319</ele>
        <time>2015-11-11T08:29:54.000Z</time>
      </trkpt>
      <trkpt lat="47.49327" lon="6.75729">
        <ele>319</ele>
        <time>2015-11-11T08:29:55.000Z</time>
      </trkpt>
      <trkpt lat="47.49323" lon="6.75732">
        <ele>319</ele>
        <time>2015-11-11T08:29:56.000Z</time>
      </trkpt>
      <trkpt lat="47.49319" lon="6.75736">
        <ele>319</ele>
        <time>2015-11-11T08:29:57.000Z</time>
      </trkpt>
      <trkpt lat="47.49316" lon="6.7574">
        <ele>319</ele>
        <time>2015-11-11T08:29:58.000Z</time>
      </trkpt>
      <trkpt lat="47.49312" lon="6.75745">
        <ele>319</ele>
        <time>2015-11-11T08:29:59.000Z</time>
      </trkpt>
      <trkpt lat="47.49308" lon="6.7575">
        <ele>318</ele>
        <time>2015-11-11T08:30:00.000Z</time>
      </trkpt>
      <trkpt lat="47.49304" lon="6.75756">
        <ele>318</ele>
        <time>2015-11-11T08:30:01.000Z</time>
      </trkpt>
      <trkpt lat="47.493" lon="6.75761">
        <ele>318</ele>
        <time>2015-11-11T08:30:02.000Z</time>
      </trkpt>
      <trkpt lat="47.49288" lon="6.75778">
        <ele>318</ele>
        <time>2015-11-11T08:30:03.000Z</time>
      </trkpt>
      <trkpt lat="47.49284" lon="6.75785">
        <ele>318</ele>
        <time>2015-11-11T08:30:04.000Z</time>
      </trkpt>
      <trkpt lat="47.4928" lon="6.75792">
        <ele>318</ele>
        <time>2015-11-11T08:30:05.000Z</time>
      </trkpt>
      <trkpt lat="47.49274" lon="6.75802">
        <ele>317</ele>
        <time>2015-11-11T08:30:06.000Z</time>
      </trkpt>
      <trkpt lat="47.49268" lon="6.7581">
        <ele>317</ele>
        <time>2015-11-11T08:30:07.000Z</time>
      </trkpt>
      <trkpt lat="47.49264" lon="6.75818">
        <ele>316</ele>
        <time>2015-11-11T08:30:08.000Z</time>
      </trkpt>
      <trkpt lat="47.4926" lon="6.75825">
        <ele>315</ele>
        <time>2015-11-11T08:30:09.000Z</time>
      </trkpt>
      <trkpt lat="47.49256" lon="6.75833">
        <ele>314</ele>
        <time>2015-11-11T08:30:10.000Z</time>
      </trkpt>
      <trkpt lat="47.49252" lon="6.75843">
        <ele>315</ele>
        <time>2015-11-11T08:30:11.000Z</time>
      </trkpt>
      <trkpt lat="47.49249" lon="6.75849">
        <ele>316</ele>
        <time>2015-11-11T08:30:12.000Z</time>
      </trkpt>
      <trkpt lat="47.49246" lon="6.75854">
        <ele>317</ele>
        <time>2015-11-11T08:30:13.000Z</time>
      </trkpt>
      <trkpt lat="47.49242" lon="6.75863">
        <ele>317</ele>
        <time>2015-11-11T08:30:14.000Z</time>
      </trkpt>
      <trkpt lat="47.49239" lon="6.75871">
        <ele>318</ele>
        <time>2015-11-11T08:30:15.000Z</time>
      </trkpt>
      <trkpt lat="47.49235" lon="6.75879">
        <ele>318</ele>
        <time>2015-11-11T08:30:16.000Z</time>
      </trkpt>
      <trkpt lat="47.4923" lon="6.75887">
        <ele>318</ele>
        <time>2015-11-11T08:30:17.000Z</time>
      </trkpt>
      <trkpt lat="47.49227" lon="6.75894">
        <ele>318</ele>
        <time>2015-11-11T08:30:18.000Z</time>
      </trkpt>
      <trkpt lat="47.49224" lon="6.75899">
        <ele>319</ele>
        <time>2015-11-11T08:30:19.000Z</time>
      </trkpt>
      <trkpt lat="47.49222" lon="6.75905">
        <ele>319</ele>
        <time>2015-11-11T08:30:20.000Z</time>
      </trkpt>
      <trkpt lat="47.4922" lon="6.75911">
        <ele>319</ele>
        <time>2015-11-11T08:30:21.000Z</time>
      </trkpt>
      <trkpt lat="47.49217" lon="6.75915">
        <ele>319</ele>
        <time>2015-11-11T08:30:23.000Z</time>
      </trkpt>
      <trkpt lat="47.49216" lon="6.75919">
        <ele>320</ele>
        <time>2015-11-11T08:30:24.000Z</time>
      </trkpt>
      <trkpt lat="47.49212" lon="6.75927">
        <ele>320</ele>
        <time>2015-11-11T08:30:25.000Z</time>
      </trkpt>
      <trkpt lat="47.49208" lon="6.75933">
        <ele>320</ele>
        <time>2015-11-11T08:30:26.000Z</time>
      </trkpt>
      <trkpt lat="47.49208" lon="6.75937">
        <ele>320</ele>
        <time>2015-11-11T08:30:27.000Z</time>
      </trkpt>
      <trkpt lat="47.49208" lon="6.75941">
        <ele>320</ele>
        <time>2015-11-11T08:30:28.000Z</time>
      </trkpt>
      <trkpt lat="47.49204" lon="6.75947">
        <ele>320</ele>
        <time>2015-11-11T08:30:29.000Z</time>
      </trkpt>
      <trkpt lat="47.49202" lon="6.75952">
        <ele>320</ele>
        <time>2015-11-11T08:30:30.000Z</time>
      </trkpt>
      <trkpt lat="47.49209" lon="6.7594">
        <ele>320</ele>
        <time>2015-11-11T08:30:31.000Z</time>
      </trkpt>
      <trkpt lat="47.49208" lon="6.75941">
        <ele>320</ele>
        <time>2015-11-11T08:30:32.000Z</time>
      </trkpt>
      <trkpt lat="47.49203" lon="6.75952">
        <ele>320</ele>
        <time>2015-11-11T08:30:33.000Z</time>
      </trkpt>
      <trkpt lat="47.49199" lon="6.75961">
        <ele>320</ele>
        <time>2015-11-11T08:30:34.000Z</time>
      </trkpt>
      <trkpt lat="47.49193" lon="6.7597">
        <ele>320</ele>
        <time>2015-11-11T08:30:35.000Z</time>
      </trkpt>
      <trkpt lat="47.4919" lon="6.75976">
        <ele>320</ele>
        <time>2015-11-11T08:30:36.000Z</time>
      </trkpt>
      <trkpt lat="47.49188" lon="6.75982">
        <ele>320</ele>
        <time>2015-11-11T08:30:37.000Z</time>
      </trkpt>
      <trkpt lat="47.49185" lon="6.7599">
        <ele>320</ele>
        <time>2015-11-11T08:30:38.000Z</time>
      </trkpt>
      <trkpt lat="47.49183" lon="6.75998">
        <ele>320</ele>
        <time>2015-11-11T08:30:39.000Z</time>
      </trkpt>
      <trkpt lat="47.4918" lon="6.76009">
        <ele>320</ele>
        <time>2015-11-11T08:30:40.000Z</time>
      </trkpt>
      <trkpt lat="47.49178" lon="6.76014">
        <ele>320</ele>
        <time>2015-11-11T08:30:41.000Z</time>
      </trkpt>
      <trkpt lat="47.49175" lon="6.76024">
        <ele>320</ele>
        <time>2015-11-11T08:30:42.000Z</time>
      </trkpt>
      <trkpt lat="47.49171" lon="6.76034">
        <ele>320</ele>
        <time>2015-11-11T08:30:43.000Z</time>
      </trkpt>
      <trkpt lat="47.49168" lon="6.76042">
        <ele>320</ele>
        <time>2015-11-11T08:30:44.000Z</time>
      </trkpt>
      <trkpt lat="47.49164" lon="6.76056">
        <ele>322</ele>
        <time>2015-11-11T08:30:45.000Z</time>
      </trkpt>
      <trkpt lat="47.49162" lon="6.76068">
        <ele>321</ele>
        <time>2015-11-11T08:30:46.000Z</time>
      </trkpt>
      <trkpt lat="47.49159" lon="6.7608">
        <ele>320</ele>
        <time>2015-11-11T08:30:47.000Z</time>
      </trkpt>
      <trkpt lat="47.49157" lon="6.76093">
        <ele>320</ele>
        <time>2015-11-11T08:30:48.000Z</time>
      </trkpt>
      <trkpt lat="47.49153" lon="6.76104">
        <ele>321</ele>
        <time>2015-11-11T08:30:49.000Z</time>
      </trkpt>
      <trkpt lat="47.49151" lon="6.76114">
        <ele>321</ele>
        <time>2015-11-11T08:30:50.000Z</time>
      </trkpt>
      <trkpt lat="47.49149" lon="6.76123">
        <ele>321</ele>
        <time>2015-11-11T08:30:51.000Z</time>
      </trkpt>
      <trkpt lat="47.49149" lon="6.76134">
        <ele>321</ele>
        <time>2015-11-11T08:30:52.000Z</time>
      </trkpt>
      <trkpt lat="47.49146" lon="6.76142">
        <ele>321</ele>
        <time>2015-11-11T08:30:53.000Z</time>
      </trkpt>
      <trkpt lat="47.49141" lon="6.76153">
        <ele>321</ele>
        <time>2015-11-11T08:30:54.000Z</time>
      </trkpt>
      <trkpt lat="47.49138" lon="6.76162">
        <ele>321</ele>
        <time>2015-11-11T08:30:55.000Z</time>
      </trkpt>
      <trkpt lat="47.49136" lon="6.76172">
        <ele>321</ele>
        <time>2015-11-11T08:30:56.000Z</time>
      </trkpt>
      <trkpt lat="47.49137" lon="6.76181">
        <ele>321</ele>
        <time>2015-11-11T08:30:57.000Z</time>
      </trkpt>
      <trkpt lat="47.49137" lon="6.76191">
        <ele>321</ele>
        <time>2015-11-11T08:30:58.000Z</time>
      </trkpt>
      <trkpt lat="47.49135" lon="6.76203">
        <ele>321</ele>
        <time>2015-11-11T08:30:59.000Z</time>
      </trkpt>
      <trkpt lat="47.49134" lon="6.76212">
        <ele>321</ele>
        <time>2015-11-11T08:31:00.000Z</time>
      </trkpt>
      <trkpt lat="47.49134" lon="6.76221">
        <ele>320</ele>
        <time>2015-11-11T08:31:01.000Z</time>
      </trkpt>
      <trkpt lat="47.49133" lon="6.76233">
        <ele>320</ele>
        <time>2015-11-11T08:31:02.000Z</time>
      </trkpt>
      <trkpt lat="47.49132" lon="6.76244">
        <ele>320</ele>
        <time>2015-11-11T08:31:03.000Z</time>
      </trkpt>
      <trkpt lat="47.49131" lon="6.76253">
        <ele>319</ele>
        <time>2015-11-11T08:31:04.000Z</time>
      </trkpt>
      <trkpt lat="47.49131" lon="6.76257">
        <ele>319</ele>
        <time>2015-11-11T08:31:05.000Z</time>
      </trkpt>
      <trkpt lat="47.49133" lon="6.76261">
        <ele>319</ele>
        <time>2015-11-11T08:31:06.000Z</time>
      </trkpt>
      <trkpt lat="47.49132" lon="6.7627">
        <ele>319</ele>
        <time>2015-11-11T08:31:07.000Z</time>
      </trkpt>
      <trkpt lat="47.4913" lon="6.76282">
        <ele>319</ele>
        <time>2015-11-11T08:31:08.000Z</time>
      </trkpt>
      <trkpt lat="47.49131" lon="6.76291">
        <ele>319</ele>
        <time>2015-11-11T08:31:09.000Z</time>
      </trkpt>
      <trkpt lat="47.49131" lon="6.76301">
        <ele>319</ele>
        <time>2015-11-11T08:31:10.000Z</time>
      </trkpt>
      <trkpt lat="47.49131" lon="6.7631">
        <ele>319</ele>
        <time>2015-11-11T08:31:11.000Z</time>
      </trkpt>
      <trkpt lat="47.49129" lon="6.76321">
        <ele>319</ele>
        <time>2015-11-11T08:31:12.000Z</time>
      </trkpt>
      <trkpt lat="47.49129" lon="6.7633">
        <ele>319</ele>
        <time>2015-11-11T08:31:13.000Z</time>
      </trkpt>
      <trkpt lat="47.49128" lon="6.76341">
        <ele>318</ele>
        <time>2015-11-11T08:31:14.000Z</time>
      </trkpt>
      <trkpt lat="47.49128" lon="6.76347">
        <ele>318</ele>
        <time>2015-11-11T08:31:15.000Z</time>
      </trkpt>
      <trkpt lat="47.4913" lon="6.76358">
        <ele>318</ele>
        <time>2015-11-11T08:31:16.000Z</time>
      </trkpt>
      <trkpt lat="47.49129" lon="6.76368">
        <ele>318</ele>
        <time>2015-11-11T08:31:17.000Z</time>
      </trkpt>
      <trkpt lat="47.4913" lon="6.76376">
        <ele>318</ele>
        <time>2015-11-11T08:31:18.001Z</time>
      </trkpt>
      <trkpt lat="47.49129" lon="6.76388">
        <ele>317</ele>
        <time>2015-11-11T08:31:19.000Z</time>
      </trkpt>
      <trkpt lat="47.4913" lon="6.76396">
        <ele>317</ele>
        <time>2015-11-11T08:31:20.000Z</time>
      </trkpt>
      <trkpt lat="47.49129" lon="6.76403">
        <ele>317</ele>
        <time>2015-11-11T08:31:21.000Z</time>
      </trkpt>
      <trkpt lat="47.49129" lon="6.76411">
        <ele>317</ele>
        <time>2015-11-11T08:31:22.000Z</time>
      </trkpt>
      <trkpt lat="47.49128" lon="6.7642">
        <ele>317</ele>
        <time>2015-11-11T08:31:23.000Z</time>
      </trkpt>
      <trkpt lat="47.4913" lon="6.76429">
        <ele>317</ele>
        <time>2015-11-11T08:31:24.000Z</time>
      </trkpt>
      <trkpt lat="47.49131" lon="6.76438">
        <ele>317</ele>
        <time>2015-11-11T08:31:25.000Z</time>
      </trkpt>
      <trkpt lat="47.4913" lon="6.76444">
        <ele>317</ele>
        <time>2015-11-11T08:31:26.000Z</time>
      </trkpt>
      <trkpt lat="47.49131" lon="6.76447">
        <ele>317</ele>
        <time>2015-11-11T08:31:27.000Z</time>
      </trkpt>
      <trkpt lat="47.49132" lon="6.76453">
        <ele>317</ele>
        <time>2015-11-11T08:31:28.000Z</time>
      </trkpt>
      <trkpt lat="47.49132" lon="6.76458">
        <ele>317</ele>
        <time>2015-11-11T08:31:29.000Z</time>
      </trkpt>
      <trkpt lat="47.49132" lon="6.76467">
        <ele>317</ele>
        <time>2015-11-11T08:31:30.000Z</time>
      </trkpt>
      <trkpt lat="47.4913" lon="6.76478">
        <ele>317</ele>
        <time>2015-11-11T08:31:31.000Z</time>
      </trkpt>
      <trkpt lat="47.49131" lon="6.76487">
        <ele>317</ele>
        <time>2015-11-11T08:31:32.000Z</time>
      </trkpt>
      <trkpt lat="47.49134" lon="6.76495">
        <ele>316</ele>
        <time>2015-11-11T08:31:33.000Z</time>
      </trkpt>
      <trkpt lat="47.49135" lon="6.76502">
        <ele>316</ele>
        <time>2015-11-11T08:31:34.000Z</time>
      </trkpt>
      <trkpt lat="47.49138" lon="6.76508">
        <ele>315</ele>
        <time>2015-11-11T08:31:35.000Z</time>
      </trkpt>
      <trkpt lat="47.49144" lon="6.76513">
        <ele>315</ele>
        <time>2015-11-11T08:31:36.000Z</time>
      </trkpt>
      <trkpt lat="47.4915" lon="6.76514">
        <ele>315</ele>
        <time>2015-11-11T08:31:37.000Z</time>
      </trkpt>
      <trkpt lat="47.49157" lon="6.7651">
        <ele>314</ele>
        <time>2015-11-11T08:31:38.000Z</time>
      </trkpt>
      <trkpt lat="47.49163" lon="6.76507">
        <ele>314</ele>
        <time>2015-11-11T08:31:39.000Z</time>
      </trkpt>
      <trkpt lat="47.49169" lon="6.76503">
        <ele>314</ele>
        <time>2015-11-11T08:31:40.000Z</time>
      </trkpt>
      <trkpt lat="47.49172" lon="6.76502">
        <ele>314</ele>
        <time>2015-11-11T08:31:41.000Z</time>
      </trkpt>
      <trkpt lat="47.49176" lon="6.765">
        <ele>314</ele>
        <time>2015-11-11T08:31:42.000Z</time>
      </trkpt>
      <trkpt lat="47.49178" lon="6.76496">
        <ele>315</ele>
        <time>2015-11-11T08:31:43.000Z</time>
      </trkpt>
      <trkpt lat="47.49181" lon="6.76494">
        <ele>315</ele>
        <time>2015-11-11T08:31:44.000Z</time>
      </trkpt>
      <trkpt lat="47.49177" lon="6.76491">
        <ele>315</ele>
        <time>2015-11-11T08:31:45.000Z</time>
      </trkpt>
      <trkpt lat="47.49175" lon="6.76488">
        <ele>315</ele>
        <time>2015-11-11T08:31:46.000Z</time>
      </trkpt>
      <trkpt lat="47.49177" lon="6.76493">
        <ele>315</ele>
        <time>2015-11-11T08:34:16.000Z</time>
      </trkpt>
      <trkpt lat="47.49177" lon="6.76495">
        <ele>315</ele>
        <time>2015-11-11T08:34:17.000Z</time>
      </trkpt>
      <trkpt lat="47.49175" lon="6.76498">
        <ele>314</ele>
        <time>2015-11-11T08:34:19.000Z</time>
      </trkpt>
      <trkpt lat="47.49174" lon="6.76499">
        <ele>314</ele>
        <time>2015-11-11T08:34:20.000Z</time>
      </trkpt>
      <trkpt lat="47.49171" lon="6.76502">
        <ele>314</ele>
        <time>2015-11-11T08:34:35.000Z</time>
      </trkpt>
      <trkpt lat="47.4917" lon="6.76503">
        <ele>314</ele>
        <time>2015-11-11T08:34:36.000Z</time>
      </trkpt>
      <trkpt lat="47.49168" lon="6.76504">
        <ele>314</ele>
        <time>2015-11-11T08:34:37.000Z</time>
      </trkpt>
      <trkpt lat="47.49165" lon="6.76506">
        <ele>314</ele>
        <time>2015-11-11T08:34:38.000Z</time>
      </trkpt>
      <trkpt lat="47.49156" lon="6.76511">
        <ele>314</ele>
        <time>2015-11-11T08:34:39.000Z</time>
      </trkpt>
      <trkpt lat="47.49151" lon="6.76515">
        <ele>315</ele>
        <time>2015-11-11T08:34:40.000Z</time>
      </trkpt>
      <trkpt lat="47.49146" lon="6.76518">
        <ele>315</ele>
        <time>2015-11-11T08:34:41.000Z</time>
      </trkpt>
      <trkpt lat="47.49141" lon="6.76519">
        <ele>315</ele>
        <time>2015-11-11T08:34:42.000Z</time>
      </trkpt>
      <trkpt lat="47.49135" lon="6.76519">
        <ele>316</ele>
        <time>2015-11-11T08:34:43.000Z</time>
      </trkpt>
      <trkpt lat="47.4913" lon="6.76518">
        <ele>316</ele>
        <time>2015-11-11T08:34:44.000Z</time>
      </trkpt>
      <trkpt lat="47.49125" lon="6.7652">
        <ele>316</ele>
        <time>2015-11-11T08:34:45.000Z</time>
      </trkpt>
      <trkpt lat="47.49124" lon="6.76525">
        <ele>316</ele>
        <time>2015-11-11T08:34:46.000Z</time>
      </trkpt>
      <trkpt lat="47.49121" lon="6.76531">
        <ele>316</ele>
        <time>2015-11-11T08:34:47.000Z</time>
      </trkpt>
      <trkpt lat="47.49122" lon="6.76535">
        <ele>316</ele>
        <time>2015-11-11T08:35:10.000Z</time>
      </trkpt>
      <trkpt lat="47.49123" lon="6.76539">
        <ele>316</ele>
        <time>2015-11-11T08:35:11.000Z</time>
      </trkpt>
      <trkpt lat="47.49123" lon="6.76545">
        <ele>316</ele>
        <time>2015-11-11T08:35:12.000Z</time>
      </trkpt>
      <trkpt lat="47.49124" lon="6.76549">
        <ele>316</ele>
        <time>2015-11-11T08:35:13.000Z</time>
      </trkpt>
      <trkpt lat="47.49123" lon="6.76553">
        <ele>316</ele>
        <time>2015-11-11T08:35:14.000Z</time>
      </trkpt>
      <trkpt lat="47.49123" lon="6.76558">
        <ele>316</ele>
        <time>2015-11-11T08:35:15.000Z</time>
      </trkpt>
      <trkpt lat="47.49123" lon="6.76563">
        <ele>316</ele>
        <time>2015-11-11T08:35:16.000Z</time>
      </trkpt>
      <trkpt lat="47.49123" lon="6.76567">
        <ele>315</ele>
        <time>2015-11-11T08:35:17.000Z</time>
      </trkpt>
      <trkpt lat="47.49123" lon="6.76572">
        <ele>315</ele>
        <time>2015-11-11T08:35:18.000Z</time>
      </trkpt>
      <trkpt lat="47.49124" lon="6.76576">
        <ele>315</ele>
        <time>2015-11-11T08:35:19.000Z</time>
      </trkpt>
      <trkpt lat="47.49124" lon="6.76581">
        <ele>315</ele>
        <time>2015-11-11T08:35:20.000Z</time>
      </trkpt>
      <trkpt lat="47.49125" lon="6.76585">
        <ele>314</ele>
        <time>2015-11-11T08:35:21.000Z</time>
      </trkpt>
      <trkpt lat="47.49126" lon="6.7659">
        <ele>314</ele>
        <time>2015-11-11T08:35:22.000Z</time>
      </trkpt>
      <trkpt lat="47.49128" lon="6.76595">
        <ele>314</ele>
        <time>2015-11-11T08:35:23.000Z</time>
      </trkpt>
      <trkpt lat="47.49129" lon="6.766">
        <ele>314</ele>
        <time>2015-11-11T08:35:24.000Z</time>
      </trkpt>
      <trkpt lat="47.4913" lon="6.76606">
        <ele>314</ele>
        <time>2015-11-11T08:35:25.000Z</time>
      </trkpt>
      <trkpt lat="47.49131" lon="6.76612">
        <ele>314</ele>
        <time>2015-11-11T08:35:26.000Z</time>
      </trkpt>
      <trkpt lat="47.49132" lon="6.76618">
        <ele>314</ele>
        <time>2015-11-11T08:35:27.000Z</time>
      </trkpt>
      <trkpt lat="47.49133" lon="6.76623">
        <ele>314</ele>
        <time>2015-11-11T08:35:28.000Z</time>
      </trkpt>
      <trkpt lat="47.49134" lon="6.76629">
        <ele>314</ele>
        <time>2015-11-11T08:35:29.000Z</time>
      </trkpt>
      <trkpt lat="47.49135" lon="6.76636">
        <ele>314</ele>
        <time>2015-11-11T08:35:30.000Z</time>
      </trkpt>
      <trkpt lat="47.49136" lon="6.76642">
        <ele>314</ele>
        <time>2015-11-11T08:35:31.000Z</time>
      </trkpt>
      <trkpt lat="47.49137" lon="6.76648">
        <ele>314</ele>
        <time>2015-11-11T08:35:32.000Z</time>
      </trkpt>
      <trkpt lat="47.49137" lon="6.76654">
        <ele>314</ele>
        <time>2015-11-11T08:35:33.000Z</time>
      </trkpt>
      <trkpt lat="47.49138" lon="6.7666">
        <ele>314</ele>
        <time>2015-11-11T08:35:34.000Z</time>
      </trkpt>
      <trkpt lat="47.49139" lon="6.76666">
        <ele>314</ele>
        <time>2015-11-11T08:35:35.000Z</time>
      </trkpt>
      <trkpt lat="47.49139" lon="6.76671">
        <ele>314</ele>
        <time>2015-11-11T08:35:36.000Z</time>
      </trkpt>
      <trkpt lat="47.49138" lon="6.76687">
        <ele>313</ele>
        <time>2015-11-11T08:35:37.000Z</time>
      </trkpt>
      <trkpt lat="47.4914" lon="6.76693">
        <ele>313</ele>
        <time>2015-11-11T08:35:38.000Z</time>
      </trkpt>
      <trkpt lat="47.49142" lon="6.76696">
        <ele>313</ele>
        <time>2015-11-11T08:35:39.000Z</time>
      </trkpt>
      <trkpt lat="47.49143" lon="6.76702">
        <ele>313</ele>
        <time>2015-11-11T08:35:40.000Z</time>
      </trkpt>
      <trkpt lat="47.49145" lon="6.76707">
        <ele>313</ele>
        <time>2015-11-11T08:35:41.000Z</time>
      </trkpt>
      <trkpt lat="47.49145" lon="6.76713">
        <ele>313</ele>
        <time>2015-11-11T08:35:42.000Z</time>
      </trkpt>
      <trkpt lat="47.49146" lon="6.76718">
        <ele>313</ele>
        <time>2015-11-11T08:35:43.000Z</time>
      </trkpt>
      <trkpt lat="47.49148" lon="6.76722">
        <ele>313</ele>
        <time>2015-11-11T08:35:44.000Z</time>
      </trkpt>
      <trkpt lat="47.49149" lon="6.7673">
        <ele>313</ele>
        <time>2015-11-11T08:35:45.000Z</time>
      </trkpt>
      <trkpt lat="47.4915" lon="6.76736">
        <ele>313</ele>
        <time>2015-11-11T08:35:46.000Z</time>
      </trkpt>
      <trkpt lat="47.49151" lon="6.76742">
        <ele>313</ele>
        <time>2015-11-11T08:35:47.000Z</time>
      </trkpt>
      <trkpt lat="47.49152" lon="6.76748">
        <ele>313</ele>
        <time>2015-11-11T08:35:48.000Z</time>
      </trkpt>
      <trkpt lat="47.49152" lon="6.76755">
        <ele>313</ele>
        <time>2015-11-11T08:35:49.000Z</time>
      </trkpt>
      <trkpt lat="47.49153" lon="6.76763">
        <ele>313</ele>
        <time>2015-11-11T08:35:50.000Z</time>
      </trkpt>
      <trkpt lat="47.49153" lon="6.76769">
        <ele>313</ele>
        <time>2015-11-11T08:35:51.000Z</time>
      </trkpt>
      <trkpt lat="47.49153" lon="6.76774">
        <ele>313</ele>
        <time>2015-11-11T08:35:52.000Z</time>
      </trkpt>
      <trkpt lat="47.49152" lon="6.76782">
        <ele>312</ele>
        <time>2015-11-11T08:35:53.000Z</time>
      </trkpt>
      <trkpt lat="47.49152" lon="6.76785">
        <ele>312</ele>
        <time>2015-11-11T08:35:54.000Z</time>
      </trkpt>
      <trkpt lat="47.49153" lon="6.76791">
        <ele>312</ele>
        <time>2015-11-11T08:35:55.000Z</time>
      </trkpt>
      <trkpt lat="47.49153" lon="6.76795">
        <ele>312</ele>
        <time>2015-11-11T08:35:56.000Z</time>
      </trkpt>
      <trkpt lat="47.49155" lon="6.76804">
        <ele>312</ele>
        <time>2015-11-11T08:35:57.000Z</time>
      </trkpt>
      <trkpt lat="47.49156" lon="6.7681">
        <ele>313</ele>
        <time>2015-11-11T08:35:58.000Z</time>
      </trkpt>
      <trkpt lat="47.49155" lon="6.7682">
        <ele>313</ele>
        <time>2015-11-11T08:35:59.000Z</time>
      </trkpt>
      <trkpt lat="47.49155" lon="6.76828">
        <ele>313</ele>
        <time>2015-11-11T08:36:00.000Z</time>
      </trkpt>
      <trkpt lat="47.49155" lon="6.76836">
        <ele>313</ele>
        <time>2015-11-11T08:36:01.000Z</time>
      </trkpt>
      <trkpt lat="47.49154" lon="6.76842">
        <ele>313</ele>
        <time>2015-11-11T08:36:02.000Z</time>
      </trkpt>
      <trkpt lat="47.49155" lon="6.76847">
        <ele>312</ele>
        <time>2015-11-11T08:36:03.000Z</time>
      </trkpt>
      <trkpt lat="47.49155" lon="6.76852">
        <ele>312</ele>
        <time>2015-11-11T08:36:04.000Z</time>
      </trkpt>
      <trkpt lat="47.49155" lon="6.76855">
        <ele>312</ele>
        <time>2015-11-11T08:36:05.000Z</time>
      </trkpt>
      <trkpt lat="47.49156" lon="6.76859">
        <ele>312</ele>
        <time>2015-11-11T08:36:06.000Z</time>
      </trkpt>
      <trkpt lat="47.49157" lon="6.76865">
        <ele>312</ele>
        <time>2015-11-11T08:36:08.000Z</time>
      </trkpt>
      <trkpt lat="47.49154" lon="6.76878">
        <ele>312</ele>
        <time>2015-11-11T08:36:09.000Z</time>
      </trkpt>
      <trkpt lat="47.49154" lon="6.76885">
        <ele>312</ele>
        <time>2015-11-11T08:36:10.000Z</time>
      </trkpt>
      <trkpt lat="47.49153" lon="6.76895">
        <ele>312</ele>
        <time>2015-11-11T08:36:11.000Z</time>
      </trkpt>
      <trkpt lat="47.49152" lon="6.76906">
        <ele>312</ele>
        <time>2015-11-11T08:36:12.000Z</time>
      </trkpt>
      <trkpt lat="47.49152" lon="6.76914">
        <ele>313</ele>
        <time>2015-11-11T08:36:13.000Z</time>
      </trkpt>
      <trkpt lat="47.49154" lon="6.76919">
        <ele>312</ele>
        <time>2015-11-11T08:36:15.000Z</time>
      </trkpt>
      <trkpt lat="47.49155" lon="6.76921">
        <ele>312</ele>
        <time>2015-11-11T08:36:16.001Z</time>
      </trkpt>
      <trkpt lat="47.49154" lon="6.7693">
        <ele>312</ele>
        <time>2015-11-11T08:36:17.000Z</time>
      </trkpt>
      <trkpt lat="47.49155" lon="6.76937">
        <ele>312</ele>
        <time>2015-11-11T08:36:18.000Z</time>
      </trkpt>
      <trkpt lat="47.49155" lon="6.76941">
        <ele>312</ele>
        <time>2015-11-11T08:36:19.000Z</time>
      </trkpt>
      <trkpt lat="47.49156" lon="6.76949">
        <ele>312</ele>
        <time>2015-11-11T08:36:20.000Z</time>
      </trkpt>
      <trkpt lat="47.49156" lon="6.76962">
        <ele>312</ele>
        <time>2015-11-11T08:36:21.000Z</time>
      </trkpt>
      <trkpt lat="47.49158" lon="6.7697">
        <ele>312</ele>
        <time>2015-11-11T08:36:22.000Z</time>
      </trkpt>
      <trkpt lat="47.49159" lon="6.76975">
        <ele>312</ele>
        <time>2015-11-11T08:36:23.000Z</time>
      </trkpt>
      <trkpt lat="47.49162" lon="6.76981">
        <ele>312</ele>
        <time>2015-11-11T08:36:24.000Z</time>
      </trkpt>
      <trkpt lat="47.49166" lon="6.76987">
        <ele>312</ele>
        <time>2015-11-11T08:36:25.000Z</time>
      </trkpt>
      <trkpt lat="47.49167" lon="6.76995">
        <ele>312</ele>
        <time>2015-11-11T08:36:26.000Z</time>
      </trkpt>
      <trkpt lat="47.49169" lon="6.77001">
        <ele>312</ele>
        <time>2015-11-11T08:36:27.000Z</time>
      </trkpt>
      <trkpt lat="47.49171" lon="6.77009">
        <ele>312</ele>
        <time>2015-11-11T08:36:28.000Z</time>
      </trkpt>
      <trkpt lat="47.49172" lon="6.77017">
        <ele>313</ele>
        <time>2015-11-11T08:36:29.000Z</time>
      </trkpt>
      <trkpt lat="47.49173" lon="6.77024">
        <ele>313</ele>
        <time>2015-11-11T08:36:30.000Z</time>
      </trkpt>
      <trkpt lat="47.49173" lon="6.77035">
        <ele>313</ele>
        <time>2015-11-11T08:36:31.000Z</time>
      </trkpt>
      <trkpt lat="47.49174" lon="6.77045">
        <ele>313</ele>
        <time>2015-11-11T08:36:32.000Z</time>
      </trkpt>
      <trkpt lat="47.49175" lon="6.77052">
        <ele>313</ele>
        <time>2015-11-11T08:36:33.000Z</time>
      </trkpt>
      <trkpt lat="47.49176" lon="6.77061">
        <ele>313</ele>
        <time>2015-11-11T08:36:34.000Z</time>
      </trkpt>
      <trkpt lat="47.49177" lon="6.77069">
        <ele>313</ele>
        <time>2015-11-11T08:36:35.000Z</time>
      </trkpt>
      <trkpt lat="47.49178" lon="6.77076">
        <ele>312</ele>
        <time>2015-11-11T08:36:36.000Z</time>
      </trkpt>
      <trkpt lat="47.4918" lon="6.77082">
        <ele>312</ele>
        <time>2015-11-11T08:36:37.000Z</time>
      </trkpt>
      <trkpt lat="47.49181" lon="6.77091">
        <ele>312</ele>
        <time>2015-11-11T08:36:38.000Z</time>
      </trkpt>
      <trkpt lat="47.49182" lon="6.77098">
        <ele>312</ele>
        <time>2015-11-11T08:36:39.000Z</time>
      </trkpt>
      <trkpt lat="47.49182" lon="6.771">
        <ele>312</ele>
        <time>2015-11-11T08:36:40.000Z</time>
      </trkpt>
      <trkpt lat="47.49181" lon="6.77109">
        <ele>313</ele>
        <time>2015-11-11T08:36:41.000Z</time>
      </trkpt>
      <trkpt lat="47.49181" lon="6.77114">
        <ele>313</ele>
        <time>2015-11-11T08:36:42.000Z</time>
      </trkpt>
      <trkpt lat="47.49183" lon="6.77119">
        <ele>313</ele>
        <time>2015-11-11T08:36:43.000Z</time>
      </trkpt>
      <trkpt lat="47.4918" lon="6.77121">
        <ele>313</ele>
        <time>2015-11-11T08:36:49.000Z</time>
      </trkpt>
      <trkpt lat="47.4918" lon="6.77124">
        <ele>313</ele>
        <time>2015-11-11T08:36:50.000Z</time>
      </trkpt>
      <trkpt lat="47.49182" lon="6.77127">
        <ele>313</ele>
        <time>2015-11-11T08:36:51.000Z</time>
      </trkpt>
      <trkpt lat="47.49183" lon="6.77131">
        <ele>313</ele>
        <time>2015-11-11T08:36:52.000Z</time>
      </trkpt>
      <trkpt lat="47.49185" lon="6.77133">
        <ele>313</ele>
        <time>2015-11-11T08:36:53.001Z</time>
      </trkpt>
      <trkpt lat="47.49186" lon="6.77139">
        <ele>313</ele>
        <time>2015-11-11T08:36:54.001Z</time>
      </trkpt>
      <trkpt lat="47.4919" lon="6.77151">
        <ele>313</ele>
        <time>2015-11-11T08:36:55.000Z</time>
      </trkpt>
      <trkpt lat="47.49191" lon="6.77159">
        <ele>313</ele>
        <time>2015-11-11T08:36:56.000Z</time>
      </trkpt>
      <trkpt lat="47.49189" lon="6.77167">
        <ele>313</ele>
        <time>2015-11-11T08:36:57.000Z</time>
      </trkpt>
      <trkpt lat="47.49188" lon="6.77174">
        <ele>313</ele>
        <time>2015-11-11T08:36:58.000Z</time>
      </trkpt>
      <trkpt lat="47.49186" lon="6.77181">
        <ele>313</ele>
        <time>2015-11-11T08:36:59.000Z</time>
      </trkpt>
      <trkpt lat="47.49186" lon="6.77187">
        <ele>313</ele>
        <time>2015-11-11T08:37:00.001Z</time>
      </trkpt>
      <trkpt lat="47.49186" lon="6.77193">
        <ele>312</ele>
        <time>2015-11-11T08:37:01.000Z</time>
      </trkpt>
      <trkpt lat="47.49187" lon="6.77199">
        <ele>312</ele>
        <time>2015-11-11T08:37:02.000Z</time>
      </trkpt>
      <trkpt lat="47.49188" lon="6.77205">
        <ele>312</ele>
        <time>2015-11-11T08:37:03.000Z</time>
      </trkpt>
      <trkpt lat="47.49187" lon="6.77212">
        <ele>312</ele>
        <time>2015-11-11T08:37:04.000Z</time>
      </trkpt>
      <trkpt lat="47.49187" lon="6.77219">
        <ele>312</ele>
        <time>2015-11-11T08:37:05.000Z</time>
      </trkpt>
      <trkpt lat="47.49186" lon="6.77226">
        <ele>312</ele>
        <time>2015-11-11T08:37:06.000Z</time>
      </trkpt>
      <trkpt lat="47.49186" lon="6.77232">
        <ele>312</ele>
        <time>2015-11-11T08:37:07.000Z</time>
      </trkpt>
      <trkpt lat="47.49186" lon="6.77237">
        <ele>312</ele>
        <time>2015-11-11T08:37:08.000Z</time>
      </trkpt>
      <trkpt lat="47.49187" lon="6.77242">
        <ele>312</ele>
        <time>2015-11-11T08:37:09.000Z</time>
      </trkpt>
      <trkpt lat="47.49188" lon="6.77246">
        <ele>312</ele>
        <time>2015-11-11T08:37:10.000Z</time>
      </trkpt>
      <trkpt lat="47.49189" lon="6.77251">
        <ele>311</ele>
        <time>2015-11-11T08:37:11.000Z</time>
      </trkpt>
      <trkpt lat="47.49188" lon="6.77261">
        <ele>311</ele>
        <time>2015-11-11T08:37:12.000Z</time>
      </trkpt>
      <trkpt lat="47.49188" lon="6.77269">
        <ele>311</ele>
        <time>2015-11-11T08:37:13.000Z</time>
      </trkpt>
      <trkpt lat="47.49188" lon="6.77277">
        <ele>311</ele>
        <time>2015-11-11T08:37:14.000Z</time>
      </trkpt>
      <trkpt lat="47.49187" lon="6.77286">
        <ele>311</ele>
        <time>2015-11-11T08:37:15.000Z</time>
      </trkpt>
      <trkpt lat="47.49186" lon="6.77294">
        <ele>311</ele>
        <time>2015-11-11T08:37:16.000Z</time>
      </trkpt>
      <trkpt lat="47.49186" lon="6.77302">
        <ele>311</ele>
        <time>2015-11-11T08:37:17.000Z</time>
      </trkpt>
      <trkpt lat="47.49186" lon="6.7731">
        <ele>311</ele>
        <time>2015-11-11T08:37:18.000Z</time>
      </trkpt>
      <trkpt lat="47.49185" lon="6.77317">
        <ele>310</ele>
        <time>2015-11-11T08:37:19.000Z</time>
      </trkpt>
      <trkpt lat="47.49183" lon="6.77323">
        <ele>310</ele>
        <time>2015-11-11T08:37:20.000Z</time>
      </trkpt>
      <trkpt lat="47.49181" lon="6.77327">
        <ele>310</ele>
        <time>2015-11-11T08:37:21.000Z</time>
      </trkpt>
      <trkpt lat="47.49178" lon="6.77324">
        <ele>310</ele>
        <time>2015-11-11T08:37:22.000Z</time>
      </trkpt>
      <trkpt lat="47.49175" lon="6.77324">
        <ele>310</ele>
        <time>2015-11-11T08:37:23.000Z</time>
      </trkpt>
      <trkpt lat="47.49172" lon="6.77324">
        <ele>310</ele>
        <time>2015-11-11T08:37:24.000Z</time>
      </trkpt>
      <trkpt lat="47.49166" lon="6.77324">
        <ele>310</ele>
        <time>2015-11-11T08:37:25.000Z</time>
      </trkpt>
      <trkpt lat="47.49162" lon="6.77325">
        <ele>310</ele>
        <time>2015-11-11T08:37:26.000Z</time>
      </trkpt>
      <trkpt lat="47.49157" lon="6.77325">
        <ele>311</ele>
        <time>2015-11-11T08:37:27.000Z</time>
      </trkpt>
      <trkpt lat="47.49153" lon="6.77325">
        <ele>311</ele>
        <time>2015-11-11T08:37:28.000Z</time>
      </trkpt>
      <trkpt lat="47.49149" lon="6.77324">
        <ele>311</ele>
        <time>2015-11-11T08:37:29.000Z</time>
      </trkpt>
      <trkpt lat="47.49143" lon="6.77325">
        <ele>311</ele>
        <time>2015-11-11T08:37:30.000Z</time>
      </trkpt>
      <trkpt lat="47.49138" lon="6.77325">
        <ele>311</ele>
        <time>2015-11-11T08:37:31.000Z</time>
      </trkpt>
      <trkpt lat="47.49134" lon="6.77324">
        <ele>311</ele>
        <time>2015-11-11T08:37:32.000Z</time>
      </trkpt>
      <trkpt lat="47.49129" lon="6.77324">
        <ele>311</ele>
        <time>2015-11-11T08:37:33.000Z</time>
      </trkpt>
      <trkpt lat="47.49124" lon="6.77324">
        <ele>311</ele>
        <time>2015-11-11T08:37:34.000Z</time>
      </trkpt>
      <trkpt lat="47.49118" lon="6.77323">
        <ele>311</ele>
        <time>2015-11-11T08:37:35.000Z</time>
      </trkpt>
      <trkpt lat="47.49113" lon="6.77322">
        <ele>311</ele>
        <time>2015-11-11T08:37:36.000Z</time>
      </trkpt>
      <trkpt lat="47.49108" lon="6.77321">
        <ele>311</ele>
        <time>2015-11-11T08:37:37.000Z</time>
      </trkpt>
      <trkpt lat="47.49103" lon="6.7732">
        <ele>311</ele>
        <time>2015-11-11T08:37:38.000Z</time>
      </trkpt>
      <trkpt lat="47.49098" lon="6.77319">
        <ele>311</ele>
        <time>2015-11-11T08:37:39.000Z</time>
      </trkpt>
      <trkpt lat="47.49093" lon="6.77318">
        <ele>311</ele>
        <time>2015-11-11T08:37:40.000Z</time>
      </trkpt>
      <trkpt lat="47.49087" lon="6.77318">
        <ele>311</ele>
        <time>2015-11-11T08:37:41.000Z</time>
      </trkpt>
      <trkpt lat="47.49082" lon="6.77318">
        <ele>311</ele>
        <time>2015-11-11T08:37:42.000Z</time>
      </trkpt>
      <trkpt lat="47.49077" lon="6.77318">
        <ele>311</ele>
        <time>2015-11-11T08:37:43.000Z</time>
      </trkpt>
      <trkpt lat="47.49072" lon="6.77318">
        <ele>311</ele>
        <time>2015-11-11T08:37:44.000Z</time>
      </trkpt>
      <trkpt lat="47.49067" lon="6.77316">
        <ele>311</ele>
        <time>2015-11-11T08:37:45.000Z</time>
      </trkpt>
      <trkpt lat="47.49062" lon="6.77314">
        <ele>311</ele>
        <time>2015-11-11T08:37:46.000Z</time>
      </trkpt>
      <trkpt lat="47.49056" lon="6.77313">
        <ele>311</ele>
        <time>2015-11-11T08:37:47.000Z</time>
      </trkpt>
      <trkpt lat="47.49051" lon="6.77312">
        <ele>311</ele>
        <time>2015-11-11T08:37:48.000Z</time>
      </trkpt>
      <trkpt lat="47.49047" lon="6.77312">
        <ele>311</ele>
        <time>2015-11-11T08:37:49.000Z</time>
      </trkpt>
      <trkpt lat="47.49042" lon="6.77313">
        <ele>311</ele>
        <time>2015-11-11T08:37:50.000Z</time>
      </trkpt>
      <trkpt lat="47.49037" lon="6.77313">
        <ele>311</ele>
        <time>2015-11-11T08:37:51.000Z</time>
      </trkpt>
      <trkpt lat="47.49033" lon="6.77312">
        <ele>311</ele>
        <time>2015-11-11T08:37:52.000Z</time>
      </trkpt>
      <trkpt lat="47.49028" lon="6.77312">
        <ele>311</ele>
        <time>2015-11-11T08:37:52.999Z</time>
      </trkpt>
      <trkpt lat="47.49024" lon="6.77311">
        <ele>311</ele>
        <time>2015-11-11T08:37:54.000Z</time>
      </trkpt>
      <trkpt lat="47.49018" lon="6.77312">
        <ele>311</ele>
        <time>2015-11-11T08:37:55.000Z</time>
      </trkpt>
      <trkpt lat="47.49013" lon="6.77312">
        <ele>311</ele>
        <time>2015-11-11T08:37:56.000Z</time>
      </trkpt>
      <trkpt lat="47.49008" lon="6.77311">
        <ele>311</ele>
        <time>2015-11-11T08:37:57.000Z</time>
      </trkpt>
      <trkpt lat="47.49004" lon="6.77313">
        <ele>311</ele>
        <time>2015-11-11T08:37:58.000Z</time>
      </trkpt>
      <trkpt lat="47.48999" lon="6.77312">
        <ele>311</ele>
        <time>2015-11-11T08:37:59.000Z</time>
      </trkpt>
      <trkpt lat="47.48994" lon="6.77311">
        <ele>311</ele>
        <time>2015-11-11T08:38:00.000Z</time>
      </trkpt>
      <trkpt lat="47.48989" lon="6.7731">
        <ele>311</ele>
        <time>2015-11-11T08:38:01.000Z</time>
      </trkpt>
      <trkpt lat="47.48983" lon="6.7731">
        <ele>311</ele>
        <time>2015-11-11T08:38:02.000Z</time>
      </trkpt>
      <trkpt lat="47.48978" lon="6.7731">
        <ele>311</ele>
        <time>2015-11-11T08:38:03.000Z</time>
      </trkpt>
      <trkpt lat="47.48974" lon="6.77308">
        <ele>311</ele>
        <time>2015-11-11T08:38:04.000Z</time>
      </trkpt>
      <trkpt lat="47.48969" lon="6.77309">
        <ele>311</ele>
        <time>2015-11-11T08:38:05.000Z</time>
      </trkpt>
      <trkpt lat="47.48964" lon="6.77309">
        <ele>311</ele>
        <time>2015-11-11T08:38:06.000Z</time>
      </trkpt>
      <trkpt lat="47.48959" lon="6.77309">
        <ele>311</ele>
        <time>2015-11-11T08:38:07.001Z</time>
      </trkpt>
      <trkpt lat="47.48955" lon="6.77308">
        <ele>311</ele>
        <time>2015-11-11T08:38:08.000Z</time>
      </trkpt>
      <trkpt lat="47.4895" lon="6.77306">
        <ele>311</ele>
        <time>2015-11-11T08:38:09.000Z</time>
      </trkpt>
      <trkpt lat="47.48945" lon="6.77303">
        <ele>311</ele>
        <time>2015-11-11T08:38:10.000Z</time>
      </trkpt>
      <trkpt lat="47.4894" lon="6.77301">
        <ele>311</ele>
        <time>2015-11-11T08:38:11.000Z</time>
      </trkpt>
      <trkpt lat="47.48935" lon="6.773">
        <ele>311</ele>
        <time>2015-11-11T08:38:12.000Z</time>
      </trkpt>
      <trkpt lat="47.4893" lon="6.77298">
        <ele>311</ele>
        <time>2015-11-11T08:38:13.000Z</time>
      </trkpt>
      <trkpt lat="47.48925" lon="6.77296">
        <ele>311</ele>
        <time>2015-11-11T08:38:14.000Z</time>
      </trkpt>
      <trkpt lat="47.4892" lon="6.77293">
        <ele>311</ele>
        <time>2015-11-11T08:38:15.000Z</time>
      </trkpt>
      <trkpt lat="47.48914" lon="6.77291">
        <ele>310</ele>
        <time>2015-11-11T08:38:16.000Z</time>
      </trkpt>
      <trkpt lat="47.48909" lon="6.77288">
        <ele>310</ele>
        <time>2015-11-11T08:38:17.000Z</time>
      </trkpt>
      <trkpt lat="47.48903" lon="6.77286">
        <ele>310</ele>
        <time>2015-11-11T08:38:18.000Z</time>
      </trkpt>
      <trkpt lat="47.48898" lon="6.77284">
        <ele>310</ele>
        <time>2015-11-11T08:38:19.000Z</time>
      </trkpt>
      <trkpt lat="47.48892" lon="6.77282">
        <ele>310</ele>
        <time>2015-11-11T08:38:20.000Z</time>
      </trkpt>
      <trkpt lat="47.48886" lon="6.77281">
        <ele>310</ele>
        <time>2015-11-11T08:38:21.000Z</time>
      </trkpt>
      <trkpt lat="47.48882" lon="6.77278">
        <ele>310</ele>
        <time>2015-11-11T08:38:22.000Z</time>
      </trkpt>
      <trkpt lat="47.48877" lon="6.77276">
        <ele>310</ele>
        <time>2015-11-11T08:38:22.999Z</time>
      </trkpt>
      <trkpt lat="47.4887" lon="6.77276">
        <ele>310</ele>
        <time>2015-11-11T08:38:24.000Z</time>
      </trkpt>
      <trkpt lat="47.48866" lon="6.77274">
        <ele>310</ele>
        <time>2015-11-11T08:38:25.000Z</time>
      </trkpt>
      <trkpt lat="47.48861" lon="6.77272">
        <ele>310</ele>
        <time>2015-11-11T08:38:26.000Z</time>
      </trkpt>
      <trkpt lat="47.48856" lon="6.7727">
        <ele>310</ele>
        <time>2015-11-11T08:38:27.000Z</time>
      </trkpt>
      <trkpt lat="47.48852" lon="6.77268">
        <ele>310</ele>
        <time>2015-11-11T08:38:28.000Z</time>
      </trkpt>
      <trkpt lat="47.48848" lon="6.77265">
        <ele>310</ele>
        <time>2015-11-11T08:38:29.000Z</time>
      </trkpt>
      <trkpt lat="47.48843" lon="6.77262">
        <ele>310</ele>
        <time>2015-11-11T08:38:30.000Z</time>
      </trkpt>
      <trkpt lat="47.48838" lon="6.77259">
        <ele>311</ele>
        <time>2015-11-11T08:38:31.000Z</time>
      </trkpt>
      <trkpt lat="47.48833" lon="6.77257">
        <ele>311</ele>
        <time>2015-11-11T08:38:32.000Z</time>
      </trkpt>
      <trkpt lat="47.48829" lon="6.77254">
        <ele>311</ele>
        <time>2015-11-11T08:38:33.000Z</time>
      </trkpt>
      <trkpt lat="47.48824" lon="6.7725">
        <ele>311</ele>
        <time>2015-11-11T08:38:34.000Z</time>
      </trkpt>
      <trkpt lat="47.48819" lon="6.77247">
        <ele>311</ele>
        <time>2015-11-11T08:38:35.000Z</time>
      </trkpt>
      <trkpt lat="47.48813" lon="6.77244">
        <ele>311</ele>
        <time>2015-11-11T08:38:36.000Z</time>
      </trkpt>
      <trkpt lat="47.48809" lon="6.77241">
        <ele>311</ele>
        <time>2015-11-11T08:38:37.000Z</time>
      </trkpt>
      <trkpt lat="47.48803" lon="6.77238">
        <ele>311</ele>
        <time>2015-11-11T08:38:38.000Z</time>
      </trkpt>
      <trkpt lat="47.48798" lon="6.77235">
        <ele>310</ele>
        <time>2015-11-11T08:38:39.000Z</time>
      </trkpt>
      <trkpt lat="47.48794" lon="6.77232">
        <ele>310</ele>
        <time>2015-11-11T08:38:40.000Z</time>
      </trkpt>
      <trkpt lat="47.4879" lon="6.77231">
        <ele>310</ele>
        <time>2015-11-11T08:38:41.000Z</time>
      </trkpt>
      <trkpt lat="47.48785" lon="6.77228">
        <ele>310</ele>
        <time>2015-11-11T08:38:42.000Z</time>
      </trkpt>
      <trkpt lat="47.4878" lon="6.77224">
        <ele>310</ele>
        <time>2015-11-11T08:38:43.000Z</time>
      </trkpt>
      <trkpt lat="47.48775" lon="6.7722">
        <ele>310</ele>
        <time>2015-11-11T08:38:44.000Z</time>
      </trkpt>
      <trkpt lat="47.4877" lon="6.77216">
        <ele>310</ele>
        <time>2015-11-11T08:38:45.000Z</time>
      </trkpt>
      <trkpt lat="47.48766" lon="6.77213">
        <ele>310</ele>
        <time>2015-11-11T08:38:46.000Z</time>
      </trkpt>
      <trkpt lat="47.48761" lon="6.7721">
        <ele>310</ele>
        <time>2015-11-11T08:38:47.000Z</time>
      </trkpt>
      <trkpt lat="47.48756" lon="6.77206">
        <ele>310</ele>
        <time>2015-11-11T08:38:48.000Z</time>
      </trkpt>
      <trkpt lat="47.48752" lon="6.77203">
        <ele>310</ele>
        <time>2015-11-11T08:38:49.000Z</time>
      </trkpt>
      <trkpt lat="47.48747" lon="6.772">
        <ele>310</ele>
        <time>2015-11-11T08:38:50.000Z</time>
      </trkpt>
      <trkpt lat="47.48742" lon="6.77196">
        <ele>310</ele>
        <time>2015-11-11T08:38:51.000Z</time>
      </trkpt>
      <trkpt lat="47.48737" lon="6.77192">
        <ele>310</ele>
        <time>2015-11-11T08:38:52.000Z</time>
      </trkpt>
      <trkpt lat="47.48733" lon="6.77188">
        <ele>310</ele>
        <time>2015-11-11T08:38:53.000Z</time>
      </trkpt>
      <trkpt lat="47.48727" lon="6.77182">
        <ele>310</ele>
        <time>2015-11-11T08:38:54.000Z</time>
      </trkpt>
      <trkpt lat="47.48723" lon="6.77177">
        <ele>311</ele>
        <time>2015-11-11T08:38:55.000Z</time>
      </trkpt>
      <trkpt lat="47.48717" lon="6.77175">
        <ele>311</ele>
        <time>2015-11-11T08:38:56.000Z</time>
      </trkpt>
      <trkpt lat="47.48712" lon="6.77171">
        <ele>311</ele>
        <time>2015-11-11T08:38:57.000Z</time>
      </trkpt>
      <trkpt lat="47.48707" lon="6.77168">
        <ele>311</ele>
        <time>2015-11-11T08:38:58.000Z</time>
      </trkpt>
      <trkpt lat="47.48703" lon="6.77165">
        <ele>311</ele>
        <time>2015-11-11T08:38:59.000Z</time>
      </trkpt>
      <trkpt lat="47.48699" lon="6.77159">
        <ele>311</ele>
        <time>2015-11-11T08:39:00.000Z</time>
      </trkpt>
      <trkpt lat="47.48695" lon="6.77154">
        <ele>311</ele>
        <time>2015-11-11T08:39:01.000Z</time>
      </trkpt>
      <trkpt lat="47.4869" lon="6.77149">
        <ele>311</ele>
        <time>2015-11-11T08:39:02.000Z</time>
      </trkpt>
      <trkpt lat="47.48685" lon="6.77144">
        <ele>311</ele>
        <time>2015-11-11T08:39:03.000Z</time>
      </trkpt>
      <trkpt lat="47.48682" lon="6.7714">
        <ele>311</ele>
        <time>2015-11-11T08:39:04.000Z</time>
      </trkpt>
      <trkpt lat="47.48679" lon="6.77138">
        <ele>311</ele>
        <time>2015-11-11T08:39:05.000Z</time>
      </trkpt>
      <trkpt lat="47.48674" lon="6.77133">
        <ele>312</ele>
        <time>2015-11-11T08:39:06.000Z</time>
      </trkpt>
      <trkpt lat="47.4867" lon="6.77128">
        <ele>312</ele>
        <time>2015-11-11T08:39:07.000Z</time>
      </trkpt>
      <trkpt lat="47.48666" lon="6.77124">
        <ele>312</ele>
        <time>2015-11-11T08:39:08.000Z</time>
      </trkpt>
      <trkpt lat="47.48662" lon="6.77119">
        <ele>312</ele>
        <time>2015-11-11T08:39:09.000Z</time>
      </trkpt>
      <trkpt lat="47.48657" lon="6.77115">
        <ele>312</ele>
        <time>2015-11-11T08:39:10.000Z</time>
      </trkpt>
      <trkpt lat="47.48652" lon="6.77109">
        <ele>312</ele>
        <time>2015-11-11T08:39:11.000Z</time>
      </trkpt>
      <trkpt lat="47.48649" lon="6.77106">
        <ele>312</ele>
        <time>2015-11-11T08:39:12.000Z</time>
      </trkpt>
      <trkpt lat="47.48646" lon="6.77103">
        <ele>312</ele>
        <time>2015-11-11T08:39:13.000Z</time>
      </trkpt>
      <trkpt lat="47.48641" lon="6.77098">
        <ele>312</ele>
        <time>2015-11-11T08:39:14.000Z</time>
      </trkpt>
      <trkpt lat="47.48638" lon="6.77094">
        <ele>312</ele>
        <time>2015-11-11T08:39:15.000Z</time>
      </trkpt>
      <trkpt lat="47.48633" lon="6.77089">
        <ele>312</ele>
        <time>2015-11-11T08:39:16.000Z</time>
      </trkpt>
      <trkpt lat="47.48628" lon="6.77084">
        <ele>312</ele>
        <time>2015-11-11T08:39:17.000Z</time>
      </trkpt>
      <trkpt lat="47.48624" lon="6.77081">
        <ele>313</ele>
        <time>2015-11-11T08:39:18.000Z</time>
      </trkpt>
      <trkpt lat="47.48618" lon="6.77077">
        <ele>313</ele>
        <time>2015-11-11T08:39:19.000Z</time>
      </trkpt>
      <trkpt lat="47.48615" lon="6.77075">
        <ele>313</ele>
        <time>2015-11-11T08:39:20.000Z</time>
      </trkpt>
      <trkpt lat="47.48611" lon="6.77073">
        <ele>313</ele>
        <time>2015-11-11T08:39:21.000Z</time>
      </trkpt>
      <trkpt lat="47.48608" lon="6.77068">
        <ele>313</ele>
        <time>2015-11-11T08:39:22.000Z</time>
      </trkpt>
      <trkpt lat="47.48602" lon="6.77063">
        <ele>313</ele>
        <time>2015-11-11T08:39:23.000Z</time>
      </trkpt>
      <trkpt lat="47.48596" lon="6.77059">
        <ele>313</ele>
        <time>2015-11-11T08:39:24.000Z</time>
      </trkpt>
      <trkpt lat="47.48591" lon="6.77057">
        <ele>313</ele>
        <time>2015-11-11T08:39:25.000Z</time>
      </trkpt>
      <trkpt lat="47.48586" lon="6.77054">
        <ele>313</ele>
        <time>2015-11-11T08:39:26.000Z</time>
      </trkpt>
      <trkpt lat="47.48581" lon="6.77054">
        <ele>314</ele>
        <time>2015-11-11T08:39:27.000Z</time>
      </trkpt>
      <trkpt lat="47.48576" lon="6.77051">
        <ele>314</ele>
        <time>2015-11-11T08:39:28.000Z</time>
      </trkpt>
      <trkpt lat="47.48571" lon="6.77049">
        <ele>314</ele>
        <time>2015-11-11T08:39:28.999Z</time>
      </trkpt>
      <trkpt lat="47.48567" lon="6.77047">
        <ele>314</ele>
        <time>2015-11-11T08:39:30.000Z</time>
      </trkpt>
      <trkpt lat="47.48562" lon="6.77046">
        <ele>314</ele>
        <time>2015-11-11T08:39:31.000Z</time>
      </trkpt>
      <trkpt lat="47.48557" lon="6.77045">
        <ele>314</ele>
        <time>2015-11-11T08:39:32.000Z</time>
      </trkpt>
      <trkpt lat="47.48552" lon="6.77043">
        <ele>314</ele>
        <time>2015-11-11T08:39:32.999Z</time>
      </trkpt>
      <trkpt lat="47.48546" lon="6.7704">
        <ele>314</ele>
        <time>2015-11-11T08:39:34.000Z</time>
      </trkpt>
      <trkpt lat="47.4854" lon="6.77037">
        <ele>314</ele>
        <time>2015-11-11T08:39:34.999Z</time>
      </trkpt>
      <trkpt lat="47.48534" lon="6.77032">
        <ele>314</ele>
        <time>2015-11-11T08:39:36.000Z</time>
      </trkpt>
      <trkpt lat="47.4853" lon="6.77028">
        <ele>314</ele>
        <time>2015-11-11T08:39:37.000Z</time>
      </trkpt>
      <trkpt lat="47.48524" lon="6.77023">
        <ele>314</ele>
        <time>2015-11-11T08:39:38.000Z</time>
      </trkpt>
      <trkpt lat="47.48519" lon="6.7702">
        <ele>315</ele>
        <time>2015-11-11T08:39:39.000Z</time>
      </trkpt>
      <trkpt lat="47.48514" lon="6.77016">
        <ele>315</ele>
        <time>2015-11-11T08:39:40.000Z</time>
      </trkpt>
      <trkpt lat="47.48509" lon="6.77012">
        <ele>315</ele>
        <time>2015-11-11T08:39:41.000Z</time>
      </trkpt>
      <trkpt lat="47.48504" lon="6.77009">
        <ele>315</ele>
        <time>2015-11-11T08:39:42.000Z</time>
      </trkpt>
      <trkpt lat="47.48499" lon="6.77004">
        <ele>316</ele>
        <time>2015-11-11T08:39:43.000Z</time>
      </trkpt>
      <trkpt lat="47.48494" lon="6.77001">
        <ele>315</ele>
        <time>2015-11-11T08:39:44.000Z</time>
      </trkpt>
      <trkpt lat="47.48489" lon="6.76997">
        <ele>316</ele>
        <time>2015-11-11T08:39:45.000Z</time>
      </trkpt>
      <trkpt lat="47.48484" lon="6.76994">
        <ele>315</ele>
        <time>2015-11-11T08:39:46.000Z</time>
      </trkpt>
      <trkpt lat="47.48478" lon="6.76991">
        <ele>315</ele>
        <time>2015-11-11T08:39:47.000Z</time>
      </trkpt>
      <trkpt lat="47.48473" lon="6.76986">
        <ele>315</ele>
        <time>2015-11-11T08:39:48.000Z</time>
      </trkpt>
      <trkpt lat="47.48468" lon="6.76982">
        <ele>315</ele>
        <time>2015-11-11T08:39:49.000Z</time>
      </trkpt>
      <trkpt lat="47.48463" lon="6.76979">
        <ele>315</ele>
        <time>2015-11-11T08:39:50.000Z</time>
      </trkpt>
      <trkpt lat="47.48459" lon="6.76977">
        <ele>315</ele>
        <time>2015-11-11T08:39:51.000Z</time>
      </trkpt>
      <trkpt lat="47.48454" lon="6.76972">
        <ele>315</ele>
        <time>2015-11-11T08:39:52.000Z</time>
      </trkpt>
      <trkpt lat="47.4845" lon="6.76967">
        <ele>315</ele>
        <time>2015-11-11T08:39:53.000Z</time>
      </trkpt>
      <trkpt lat="47.48445" lon="6.76964">
        <ele>315</ele>
        <time>2015-11-11T08:39:54.000Z</time>
      </trkpt>
      <trkpt lat="47.4844" lon="6.76961">
        <ele>315</ele>
        <time>2015-11-11T08:39:55.000Z</time>
      </trkpt>
      <trkpt lat="47.48435" lon="6.76957">
        <ele>314</ele>
        <time>2015-11-11T08:39:56.000Z</time>
      </trkpt>
      <trkpt lat="47.48429" lon="6.76955">
        <ele>314</ele>
        <time>2015-11-11T08:39:57.000Z</time>
      </trkpt>
      <trkpt lat="47.48424" lon="6.76952">
        <ele>314</ele>
        <time>2015-11-11T08:39:58.000Z</time>
      </trkpt>
      <trkpt lat="47.48418" lon="6.76949">
        <ele>314</ele>
        <time>2015-11-11T08:39:59.000Z</time>
      </trkpt>
      <trkpt lat="47.48413" lon="6.76948">
        <ele>312</ele>
        <time>2015-11-11T08:40:00.000Z</time>
      </trkpt>
      <trkpt lat="47.48407" lon="6.76945">
        <ele>312</ele>
        <time>2015-11-11T08:40:01.000Z</time>
      </trkpt>
      <trkpt lat="47.48401" lon="6.76942">
        <ele>312</ele>
        <time>2015-11-11T08:40:02.000Z</time>
      </trkpt>
      <trkpt lat="47.48396" lon="6.76938">
        <ele>312</ele>
        <time>2015-11-11T08:40:03.000Z</time>
      </trkpt>
      <trkpt lat="47.48391" lon="6.76935">
        <ele>312</ele>
        <time>2015-11-11T08:40:04.000Z</time>
      </trkpt>
      <trkpt lat="47.48385" lon="6.76933">
        <ele>312</ele>
        <time>2015-11-11T08:40:05.000Z</time>
      </trkpt>
      <trkpt lat="47.48379" lon="6.7693">
        <ele>312</ele>
        <time>2015-11-11T08:40:06.000Z</time>
      </trkpt>
      <trkpt lat="47.48373" lon="6.76927">
        <ele>312</ele>
        <time>2015-11-11T08:40:07.000Z</time>
      </trkpt>
      <trkpt lat="47.48368" lon="6.76924">
        <ele>311</ele>
        <time>2015-11-11T08:40:08.000Z</time>
      </trkpt>
      <trkpt lat="47.48363" lon="6.7692">
        <ele>311</ele>
        <time>2015-11-11T08:40:09.000Z</time>
      </trkpt>
      <trkpt lat="47.48357" lon="6.76917">
        <ele>311</ele>
        <time>2015-11-11T08:40:10.000Z</time>
      </trkpt>
      <trkpt lat="47.48352" lon="6.76914">
        <ele>310</ele>
        <time>2015-11-11T08:40:11.000Z</time>
      </trkpt>
      <trkpt lat="47.48347" lon="6.76912">
        <ele>310</ele>
        <time>2015-11-11T08:40:12.000Z</time>
      </trkpt>
      <trkpt lat="47.48341" lon="6.76909">
        <ele>310</ele>
        <time>2015-11-11T08:40:13.000Z</time>
      </trkpt>
      <trkpt lat="47.48336" lon="6.76905">
        <ele>310</ele>
        <time>2015-11-11T08:40:14.000Z</time>
      </trkpt>
      <trkpt lat="47.48331" lon="6.76901">
        <ele>310</ele>
        <time>2015-11-11T08:40:15.000Z</time>
      </trkpt>
      <trkpt lat="47.48326" lon="6.76897">
        <ele>310</ele>
        <time>2015-11-11T08:40:16.000Z</time>
      </trkpt>
      <trkpt lat="47.48321" lon="6.76893">
        <ele>310</ele>
        <time>2015-11-11T08:40:17.000Z</time>
      </trkpt>
      <trkpt lat="47.48316" lon="6.76888">
        <ele>310</ele>
        <time>2015-11-11T08:40:18.000Z</time>
      </trkpt>
      <trkpt lat="47.48311" lon="6.76884">
        <ele>310</ele>
        <time>2015-11-11T08:40:19.000Z</time>
      </trkpt>
      <trkpt lat="47.48307" lon="6.76882">
        <ele>310</ele>
        <time>2015-11-11T08:40:20.000Z</time>
      </trkpt>
      <trkpt lat="47.48302" lon="6.76878">
        <ele>310</ele>
        <time>2015-11-11T08:40:21.000Z</time>
      </trkpt>
      <trkpt lat="47.48298" lon="6.76874">
        <ele>310</ele>
        <time>2015-11-11T08:40:22.000Z</time>
      </trkpt>
      <trkpt lat="47.48293" lon="6.76868">
        <ele>310</ele>
        <time>2015-11-11T08:40:23.000Z</time>
      </trkpt>
      <trkpt lat="47.48289" lon="6.76864">
        <ele>310</ele>
        <time>2015-11-11T08:40:24.000Z</time>
      </trkpt>
      <trkpt lat="47.48285" lon="6.76859">
        <ele>310</ele>
        <time>2015-11-11T08:40:25.000Z</time>
      </trkpt>
      <trkpt lat="47.48281" lon="6.76855">
        <ele>310</ele>
        <time>2015-11-11T08:40:26.000Z</time>
      </trkpt>
      <trkpt lat="47.48278" lon="6.7685">
        <ele>310</ele>
        <time>2015-11-11T08:40:27.000Z</time>
      </trkpt>
      <trkpt lat="47.48274" lon="6.76845">
        <ele>311</ele>
        <time>2015-11-11T08:40:28.000Z</time>
      </trkpt>
      <trkpt lat="47.48271" lon="6.76838">
        <ele>311</ele>
        <time>2015-11-11T08:40:29.000Z</time>
      </trkpt>
      <trkpt lat="47.48268" lon="6.76833">
        <ele>312</ele>
        <time>2015-11-11T08:40:30.000Z</time>
      </trkpt>
      <trkpt lat="47.48263" lon="6.76826">
        <ele>312</ele>
        <time>2015-11-11T08:40:31.000Z</time>
      </trkpt>
      <trkpt lat="47.48259" lon="6.7682">
        <ele>312</ele>
        <time>2015-11-11T08:40:32.000Z</time>
      </trkpt>
      <trkpt lat="47.48256" lon="6.76815">
        <ele>312</ele>
        <time>2015-11-11T08:40:33.000Z</time>
      </trkpt>
      <trkpt lat="47.48251" lon="6.76809">
        <ele>312</ele>
        <time>2015-11-11T08:40:34.000Z</time>
      </trkpt>
      <trkpt lat="47.48246" lon="6.76805">
        <ele>312</ele>
        <time>2015-11-11T08:40:35.000Z</time>
      </trkpt>
      <trkpt lat="47.48242" lon="6.76801">
        <ele>312</ele>
        <time>2015-11-11T08:40:36.000Z</time>
      </trkpt>
      <trkpt lat="47.48237" lon="6.76798">
        <ele>312</ele>
        <time>2015-11-11T08:40:37.000Z</time>
      </trkpt>
      <trkpt lat="47.48232" lon="6.76795">
        <ele>312</ele>
        <time>2015-11-11T08:40:38.000Z</time>
      </trkpt>
      <trkpt lat="47.48226" lon="6.76792">
        <ele>312</ele>
        <time>2015-11-11T08:40:39.000Z</time>
      </trkpt>
      <trkpt lat="47.48221" lon="6.7679">
        <ele>312</ele>
        <time>2015-11-11T08:40:40.000Z</time>
      </trkpt>
      <trkpt lat="47.48216" lon="6.76787">
        <ele>312</ele>
        <time>2015-11-11T08:40:41.000Z</time>
      </trkpt>
      <trkpt lat="47.4821" lon="6.76786">
        <ele>312</ele>
        <time>2015-11-11T08:40:42.000Z</time>
      </trkpt>
      <trkpt lat="47.48205" lon="6.76782">
        <ele>312</ele>
        <time>2015-11-11T08:40:43.000Z</time>
      </trkpt>
      <trkpt lat="47.48199" lon="6.7678">
        <ele>312</ele>
        <time>2015-11-11T08:40:44.000Z</time>
      </trkpt>
      <trkpt lat="47.48193" lon="6.76777">
        <ele>312</ele>
        <time>2015-11-11T08:40:45.000Z</time>
      </trkpt>
      <trkpt lat="47.48188" lon="6.76773">
        <ele>312</ele>
        <time>2015-11-11T08:40:46.000Z</time>
      </trkpt>
      <trkpt lat="47.48183" lon="6.76769">
        <ele>312</ele>
        <time>2015-11-11T08:40:47.000Z</time>
      </trkpt>
      <trkpt lat="47.48178" lon="6.76766">
        <ele>312</ele>
        <time>2015-11-11T08:40:48.000Z</time>
      </trkpt>
      <trkpt lat="47.48174" lon="6.7676">
        <ele>313</ele>
        <time>2015-11-11T08:40:49.000Z</time>
      </trkpt>
      <trkpt lat="47.48169" lon="6.76756">
        <ele>313</ele>
        <time>2015-11-11T08:40:50.000Z</time>
      </trkpt>
      <trkpt lat="47.48165" lon="6.7675">
        <ele>313</ele>
        <time>2015-11-11T08:40:51.000Z</time>
      </trkpt>
      <trkpt lat="47.48161" lon="6.76745">
        <ele>313</ele>
        <time>2015-11-11T08:40:52.000Z</time>
      </trkpt>
      <trkpt lat="47.48157" lon="6.7674">
        <ele>313</ele>
        <time>2015-11-11T08:40:53.000Z</time>
      </trkpt>
      <trkpt lat="47.48154" lon="6.76735">
        <ele>312</ele>
        <time>2015-11-11T08:40:54.000Z</time>
      </trkpt>
      <trkpt lat="47.4815" lon="6.76726">
        <ele>312</ele>
        <time>2015-11-11T08:40:55.000Z</time>
      </trkpt>
      <trkpt lat="47.48147" lon="6.76718">
        <ele>312</ele>
        <time>2015-11-11T08:40:56.000Z</time>
      </trkpt>
      <trkpt lat="47.48144" lon="6.7671">
        <ele>312</ele>
        <time>2015-11-11T08:40:57.000Z</time>
      </trkpt>
      <trkpt lat="47.48141" lon="6.76703">
        <ele>312</ele>
        <time>2015-11-11T08:40:58.000Z</time>
      </trkpt>
      <trkpt lat="47.48137" lon="6.76697">
        <ele>312</ele>
        <time>2015-11-11T08:40:59.000Z</time>
      </trkpt>
      <trkpt lat="47.48134" lon="6.76691">
        <ele>312</ele>
        <time>2015-11-11T08:41:00.000Z</time>
      </trkpt>
      <trkpt lat="47.4813" lon="6.76685">
        <ele>312</ele>
        <time>2015-11-11T08:41:01.000Z</time>
      </trkpt>
      <trkpt lat="47.48127" lon="6.76678">
        <ele>312</ele>
        <time>2015-11-11T08:41:02.000Z</time>
      </trkpt>
      <trkpt lat="47.48125" lon="6.76675">
        <ele>312</ele>
        <time>2015-11-11T08:41:03.000Z</time>
      </trkpt>
      <trkpt lat="47.4812" lon="6.76668">
        <ele>312</ele>
        <time>2015-11-11T08:41:04.000Z</time>
      </trkpt>
      <trkpt lat="47.48116" lon="6.76662">
        <ele>312</ele>
        <time>2015-11-11T08:41:05.000Z</time>
      </trkpt>
      <trkpt lat="47.48112" lon="6.76658">
        <ele>312</ele>
        <time>2015-11-11T08:41:06.000Z</time>
      </trkpt>
      <trkpt lat="47.48108" lon="6.76652">
        <ele>312</ele>
        <time>2015-11-11T08:41:07.000Z</time>
      </trkpt>
      <trkpt lat="47.48104" lon="6.76648">
        <ele>312</ele>
        <time>2015-11-11T08:41:08.000Z</time>
      </trkpt>
      <trkpt lat="47.48103" lon="6.76642">
        <ele>313</ele>
        <time>2015-11-11T08:41:09.000Z</time>
      </trkpt>
      <trkpt lat="47.48101" lon="6.76637">
        <ele>313</ele>
        <time>2015-11-11T08:41:10.000Z</time>
      </trkpt>
      <trkpt lat="47.481" lon="6.76633">
        <ele>313</ele>
        <time>2015-11-11T08:41:11.000Z</time>
      </trkpt>
      <trkpt lat="47.48101" lon="6.76625">
        <ele>313</ele>
        <time>2015-11-11T08:41:12.000Z</time>
      </trkpt>
      <trkpt lat="47.48099" lon="6.76614">
        <ele>313</ele>
        <time>2015-11-11T08:41:13.000Z</time>
      </trkpt>
      <trkpt lat="47.481" lon="6.76603">
        <ele>313</ele>
        <time>2015-11-11T08:41:14.000Z</time>
      </trkpt>
      <trkpt lat="47.481" lon="6.76593">
        <ele>313</ele>
        <time>2015-11-11T08:41:15.000Z</time>
      </trkpt>
      <trkpt lat="47.481" lon="6.76586">
        <ele>313</ele>
        <time>2015-11-11T08:41:16.000Z</time>
      </trkpt>
      <trkpt lat="47.48102" lon="6.76582">
        <ele>316</ele>
        <time>2015-11-11T08:41:17.000Z</time>
      </trkpt>
      <trkpt lat="47.48108" lon="6.7658">
        <ele>317</ele>
        <time>2015-11-11T08:41:18.000Z</time>
      </trkpt>
      <trkpt lat="47.48113" lon="6.76576">
        <ele>317</ele>
        <time>2015-11-11T08:41:19.000Z</time>
      </trkpt>
      <trkpt lat="47.48117" lon="6.76575">
        <ele>318</ele>
        <time>2015-11-11T08:41:19.998Z</time>
      </trkpt>
      <trkpt lat="47.48119" lon="6.76569">
        <ele>318</ele>
        <time>2015-11-11T08:41:21.000Z</time>
      </trkpt>
      <trkpt lat="47.48122" lon="6.76562">
        <ele>319</ele>
        <time>2015-11-11T08:41:22.000Z</time>
      </trkpt>
      <trkpt lat="47.48124" lon="6.76555">
        <ele>319</ele>
        <time>2015-11-11T08:41:23.000Z</time>
      </trkpt>
      <trkpt lat="47.48123" lon="6.76547">
        <ele>320</ele>
        <time>2015-11-11T08:41:24.000Z</time>
      </trkpt>
      <trkpt lat="47.48122" lon="6.76541">
        <ele>320</ele>
        <time>2015-11-11T08:41:25.000Z</time>
      </trkpt>
      <trkpt lat="47.48121" lon="6.76536">
        <ele>320</ele>
        <time>2015-11-11T08:41:25.999Z</time>
      </trkpt>
      <trkpt lat="47.4812" lon="6.76532">
        <ele>320</ele>
        <time>2015-11-11T08:41:27.000Z</time>
      </trkpt>
      <trkpt lat="47.48118" lon="6.76527">
        <ele>320</ele>
        <time>2015-11-11T08:41:28.000Z</time>
      </trkpt>
      <trkpt lat="47.48115" lon="6.76522">
        <ele>320</ele>
        <time>2015-11-11T08:41:29.000Z</time>
      </trkpt>
      <trkpt lat="47.48111" lon="6.76517">
        <ele>319</ele>
        <time>2015-11-11T08:41:30.000Z</time>
      </trkpt>
      <trkpt lat="47.48108" lon="6.76512">
        <ele>319</ele>
        <time>2015-11-11T08:41:31.000Z</time>
      </trkpt>
      <trkpt lat="47.48105" lon="6.76513">
        <ele>318</ele>
        <time>2015-11-11T08:41:32.000Z</time>
      </trkpt>
      <trkpt lat="47.48101" lon="6.76514">
        <ele>318</ele>
        <time>2015-11-11T08:41:33.000Z</time>
      </trkpt>
      <trkpt lat="47.48097" lon="6.76515">
        <ele>317</ele>
        <time>2015-11-11T08:41:34.000Z</time>
      </trkpt>
      <trkpt lat="47.48093" lon="6.76519">
        <ele>317</ele>
        <time>2015-11-11T08:41:35.000Z</time>
      </trkpt>
      <trkpt lat="47.48088" lon="6.76521">
        <ele>317</ele>
        <time>2015-11-11T08:41:36.000Z</time>
      </trkpt>
      <trkpt lat="47.48084" lon="6.76523">
        <ele>317</ele>
        <time>2015-11-11T08:41:37.000Z</time>
      </trkpt>
      <trkpt lat="47.48081" lon="6.76526">
        <ele>312</ele>
        <time>2015-11-11T08:41:38.000Z</time>
      </trkpt>
      <trkpt lat="47.48077" lon="6.7653">
        <ele>312</ele>
        <time>2015-11-11T08:41:39.000Z</time>
      </trkpt>
      <trkpt lat="47.48073" lon="6.76533">
        <ele>312</ele>
        <time>2015-11-11T08:41:40.000Z</time>
      </trkpt>
      <trkpt lat="47.48069" lon="6.76536">
        <ele>312</ele>
        <time>2015-11-11T08:41:41.000Z</time>
      </trkpt>
      <trkpt lat="47.48066" lon="6.76538">
        <ele>312</ele>
        <time>2015-11-11T08:41:42.000Z</time>
      </trkpt>
      <trkpt lat="47.48062" lon="6.76542">
        <ele>312</ele>
        <time>2015-11-11T08:41:43.000Z</time>
      </trkpt>
      <trkpt lat="47.48059" lon="6.76545">
        <ele>312</ele>
        <time>2015-11-11T08:41:44.000Z</time>
      </trkpt>
      <trkpt lat="47.48055" lon="6.76548">
        <ele>312</ele>
        <time>2015-11-11T08:41:45.000Z</time>
      </trkpt>
      <trkpt lat="47.48052" lon="6.76552">
        <ele>312</ele>
        <time>2015-11-11T08:41:46.001Z</time>
      </trkpt>
      <trkpt lat="47.48047" lon="6.76556">
        <ele>312</ele>
        <time>2015-11-11T08:41:47.000Z</time>
      </trkpt>
      <trkpt lat="47.48044" lon="6.76558">
        <ele>312</ele>
        <time>2015-11-11T08:41:48.000Z</time>
      </trkpt>
      <trkpt lat="47.48041" lon="6.76561">
        <ele>312</ele>
        <time>2015-11-11T08:41:49.000Z</time>
      </trkpt>
      <trkpt lat="47.48035" lon="6.76563">
        <ele>312</ele>
        <time>2015-11-11T08:41:50.000Z</time>
      </trkpt>
      <trkpt lat="47.48031" lon="6.76568">
        <ele>312</ele>
        <time>2015-11-11T08:41:51.000Z</time>
      </trkpt>
      <trkpt lat="47.48027" lon="6.76572">
        <ele>312</ele>
        <time>2015-11-11T08:41:52.000Z</time>
      </trkpt>
      <trkpt lat="47.48022" lon="6.76576">
        <ele>312</ele>
        <time>2015-11-11T08:41:53.000Z</time>
      </trkpt>
      <trkpt lat="47.48018" lon="6.7658">
        <ele>312</ele>
        <time>2015-11-11T08:41:54.000Z</time>
      </trkpt>
      <trkpt lat="47.48013" lon="6.76584">
        <ele>312</ele>
        <time>2015-11-11T08:41:55.000Z</time>
      </trkpt>
      <trkpt lat="47.48009" lon="6.76587">
        <ele>312</ele>
        <time>2015-11-11T08:41:56.000Z</time>
      </trkpt>
      <trkpt lat="47.48005" lon="6.7659">
        <ele>312</ele>
        <time>2015-11-11T08:41:57.000Z</time>
      </trkpt>
      <trkpt lat="47.48001" lon="6.76592">
        <ele>312</ele>
        <time>2015-11-11T08:41:58.000Z</time>
      </trkpt>
      <trkpt lat="47.47996" lon="6.76594">
        <ele>312</ele>
        <time>2015-11-11T08:41:58.999Z</time>
      </trkpt>
      <trkpt lat="47.47991" lon="6.76597">
        <ele>312</ele>
        <time>2015-11-11T08:42:00.000Z</time>
      </trkpt>
      <trkpt lat="47.47987" lon="6.766">
        <ele>312</ele>
        <time>2015-11-11T08:42:01.000Z</time>
      </trkpt>
      <trkpt lat="47.47982" lon="6.76603">
        <ele>311</ele>
        <time>2015-11-11T08:42:01.999Z</time>
      </trkpt>
      <trkpt lat="47.47978" lon="6.76605">
        <ele>311</ele>
        <time>2015-11-11T08:42:03.001Z</time>
      </trkpt>
      <trkpt lat="47.47974" lon="6.76605">
        <ele>311</ele>
        <time>2015-11-11T08:42:04.000Z</time>
      </trkpt>
      <trkpt lat="47.4797" lon="6.76608">
        <ele>311</ele>
        <time>2015-11-11T08:42:05.000Z</time>
      </trkpt>
      <trkpt lat="47.47966" lon="6.76609">
        <ele>311</ele>
        <time>2015-11-11T08:42:06.000Z</time>
      </trkpt>
      <trkpt lat="47.47964" lon="6.76611">
        <ele>311</ele>
        <time>2015-11-11T08:42:07.000Z</time>
      </trkpt>
      <trkpt lat="47.47961" lon="6.7661">
        <ele>311</ele>
        <time>2015-11-11T08:42:08.000Z</time>
      </trkpt>
      <trkpt lat="47.47959" lon="6.76609">
        <ele>311</ele>
        <time>2015-11-11T08:42:09.000Z</time>
      </trkpt>
      <trkpt lat="47.47956" lon="6.76609">
        <ele>311</ele>
        <time>2015-11-11T08:42:10.000Z</time>
      </trkpt>
      <trkpt lat="47.4795" lon="6.76613">
        <ele>311</ele>
        <time>2015-11-11T08:42:11.000Z</time>
      </trkpt>
      <trkpt lat="47.47945" lon="6.76616">
        <ele>311</ele>
        <time>2015-11-11T08:42:12.000Z</time>
      </trkpt>
      <trkpt lat="47.4794" lon="6.76619">
        <ele>311</ele>
        <time>2015-11-11T08:42:12.998Z</time>
      </trkpt>
      <trkpt lat="47.47934" lon="6.76622">
        <ele>311</ele>
        <time>2015-11-11T08:42:14.000Z</time>
      </trkpt>
      <trkpt lat="47.4793" lon="6.76625">
        <ele>311</ele>
        <time>2015-11-11T08:42:14.999Z</time>
      </trkpt>
      <trkpt lat="47.47924" lon="6.76629">
        <ele>311</ele>
        <time>2015-11-11T08:42:16.000Z</time>
      </trkpt>
      <trkpt lat="47.47919" lon="6.76631">
        <ele>311</ele>
        <time>2015-11-11T08:42:17.000Z</time>
      </trkpt>
      <trkpt lat="47.47913" lon="6.76637">
        <ele>310</ele>
        <time>2015-11-11T08:42:18.000Z</time>
      </trkpt>
      <trkpt lat="47.47907" lon="6.76642">
        <ele>310</ele>
        <time>2015-11-11T08:42:19.000Z</time>
      </trkpt>
      <trkpt lat="47.47903" lon="6.76649">
        <ele>310</ele>
        <time>2015-11-11T08:42:20.000Z</time>
      </trkpt>
      <trkpt lat="47.47898" lon="6.76656">
        <ele>310</ele>
        <time>2015-11-11T08:42:21.000Z</time>
      </trkpt>
      <trkpt lat="47.47894" lon="6.76663">
        <ele>310</ele>
        <time>2015-11-11T08:42:22.000Z</time>
      </trkpt>
      <trkpt lat="47.47889" lon="6.7667">
        <ele>310</ele>
        <time>2015-11-11T08:42:23.000Z</time>
      </trkpt>
      <trkpt lat="47.47885" lon="6.76678">
        <ele>310</ele>
        <time>2015-11-11T08:42:24.000Z</time>
      </trkpt>
      <trkpt lat="47.47881" lon="6.76686">
        <ele>310</ele>
        <time>2015-11-11T08:42:25.000Z</time>
      </trkpt>
      <trkpt lat="47.47877" lon="6.76693">
        <ele>310</ele>
        <time>2015-11-11T08:42:25.999Z</time>
      </trkpt>
      <trkpt lat="47.47874" lon="6.76702">
        <ele>310</ele>
        <time>2015-11-11T08:42:27.000Z</time>
      </trkpt>
      <trkpt lat="47.47872" lon="6.76709">
        <ele>310</ele>
        <time>2015-11-11T08:42:28.000Z</time>
      </trkpt>
      <trkpt lat="47.4787" lon="6.76718">
        <ele>310</ele>
        <time>2015-11-11T08:42:29.000Z</time>
      </trkpt>
      <trkpt lat="47.47867" lon="6.76725">
        <ele>310</ele>
        <time>2015-11-11T08:42:30.000Z</time>
      </trkpt>
      <trkpt lat="47.47863" lon="6.76731">
        <ele>310</ele>
        <time>2015-11-11T08:42:30.999Z</time>
      </trkpt>
      <trkpt lat="47.47861" lon="6.76736">
        <ele>310</ele>
        <time>2015-11-11T08:42:32.000Z</time>
      </trkpt>
      <trkpt lat="47.47857" lon="6.76742">
        <ele>310</ele>
        <time>2015-11-11T08:42:33.000Z</time>
      </trkpt>
      <trkpt lat="47.47853" lon="6.76748">
        <ele>310</ele>
        <time>2015-11-11T08:42:34.000Z</time>
      </trkpt>
      <trkpt lat="47.4785" lon="6.76755">
        <ele>311</ele>
        <time>2015-11-11T08:42:34.999Z</time>
      </trkpt>
      <trkpt lat="47.47848" lon="6.76763">
        <ele>311</ele>
        <time>2015-11-11T08:42:36.000Z</time>
      </trkpt>
      <trkpt lat="47.47845" lon="6.76769">
        <ele>311</ele>
        <time>2015-11-11T08:42:37.000Z</time>
      </trkpt>
      <trkpt lat="47.47842" lon="6.76768">
        <ele>311</ele>
        <time>2015-11-11T08:42:38.000Z</time>
      </trkpt>
      <trkpt lat="47.4784" lon="6.76771">
        <ele>311</ele>
        <time>2015-11-11T08:42:39.000Z</time>
      </trkpt>
      <trkpt lat="47.47838" lon="6.7677">
        <ele>311</ele>
        <time>2015-11-11T08:42:40.000Z</time>
      </trkpt>
      <trkpt lat="47.47835" lon="6.7677">
        <ele>311</ele>
        <time>2015-11-11T08:42:41.000Z</time>
      </trkpt>
      <trkpt lat="47.47834" lon="6.76769">
        <ele>311</ele>
        <time>2015-11-11T08:42:42.000Z</time>
      </trkpt>
      <trkpt lat="47.47828" lon="6.76776">
        <ele>310</ele>
        <time>2015-11-11T08:42:43.000Z</time>
      </trkpt>
      <trkpt lat="47.47822" lon="6.7678">
        <ele>310</ele>
        <time>2015-11-11T08:42:44.000Z</time>
      </trkpt>
      <trkpt lat="47.47815" lon="6.76783">
        <ele>310</ele>
        <time>2015-11-11T08:42:45.000Z</time>
      </trkpt>
      <trkpt lat="47.47809" lon="6.76785">
        <ele>310</ele>
        <time>2015-11-11T08:42:46.000Z</time>
      </trkpt>
      <trkpt lat="47.47802" lon="6.76785">
        <ele>310</ele>
        <time>2015-11-11T08:42:47.000Z</time>
      </trkpt>
      <trkpt lat="47.47796" lon="6.76785">
        <ele>310</ele>
        <time>2015-11-11T08:42:48.000Z</time>
      </trkpt>
      <trkpt lat="47.47791" lon="6.76784">
        <ele>311</ele>
        <time>2015-11-11T08:42:49.000Z</time>
      </trkpt>
      <trkpt lat="47.47786" lon="6.76784">
        <ele>311</ele>
        <time>2015-11-11T08:42:50.000Z</time>
      </trkpt>
      <trkpt lat="47.47781" lon="6.76783">
        <ele>311</ele>
        <time>2015-11-11T08:42:51.000Z</time>
      </trkpt>
      <trkpt lat="47.47776" lon="6.76784">
        <ele>311</ele>
        <time>2015-11-11T08:42:52.000Z</time>
      </trkpt>
      <trkpt lat="47.47771" lon="6.76785">
        <ele>311</ele>
        <time>2015-11-11T08:42:53.000Z</time>
      </trkpt>
      <trkpt lat="47.47766" lon="6.76785">
        <ele>311</ele>
        <time>2015-11-11T08:42:54.000Z</time>
      </trkpt>
      <trkpt lat="47.47761" lon="6.76786">
        <ele>311</ele>
        <time>2015-11-11T08:42:55.000Z</time>
      </trkpt>
      <trkpt lat="47.47757" lon="6.76785">
        <ele>311</ele>
        <time>2015-11-11T08:42:56.000Z</time>
      </trkpt>
      <trkpt lat="47.47751" lon="6.76786">
        <ele>311</ele>
        <time>2015-11-11T08:42:57.000Z</time>
      </trkpt>
      <trkpt lat="47.47746" lon="6.76787">
        <ele>311</ele>
        <time>2015-11-11T08:42:58.000Z</time>
      </trkpt>
      <trkpt lat="47.4774" lon="6.76788">
        <ele>311</ele>
        <time>2015-11-11T08:42:59.000Z</time>
      </trkpt>
      <trkpt lat="47.47734" lon="6.76792">
        <ele>311</ele>
        <time>2015-11-11T08:43:00.000Z</time>
      </trkpt>
      <trkpt lat="47.47729" lon="6.768">
        <ele>311</ele>
        <time>2015-11-11T08:43:01.000Z</time>
      </trkpt>
      <trkpt lat="47.47725" lon="6.76809">
        <ele>311</ele>
        <time>2015-11-11T08:43:02.000Z</time>
      </trkpt>
      <trkpt lat="47.47722" lon="6.76818">
        <ele>311</ele>
        <time>2015-11-11T08:43:03.000Z</time>
      </trkpt>
      <trkpt lat="47.47718" lon="6.76826">
        <ele>311</ele>
        <time>2015-11-11T08:43:04.000Z</time>
      </trkpt>
      <trkpt lat="47.47715" lon="6.76835">
        <ele>311</ele>
        <time>2015-11-11T08:43:05.000Z</time>
      </trkpt>
      <trkpt lat="47.47712" lon="6.76844">
        <ele>311</ele>
        <time>2015-11-11T08:43:06.000Z</time>
      </trkpt>
      <trkpt lat="47.47709" lon="6.76852">
        <ele>311</ele>
        <time>2015-11-11T08:43:07.000Z</time>
      </trkpt>
      <trkpt lat="47.47706" lon="6.7686">
        <ele>311</ele>
        <time>2015-11-11T08:43:08.000Z</time>
      </trkpt>
      <trkpt lat="47.47704" lon="6.76868">
        <ele>311</ele>
        <time>2015-11-11T08:43:09.000Z</time>
      </trkpt>
      <trkpt lat="47.47701" lon="6.76876">
        <ele>311</ele>
        <time>2015-11-11T08:43:10.000Z</time>
      </trkpt>
      <trkpt lat="47.47699" lon="6.76884">
        <ele>311</ele>
        <time>2015-11-11T08:43:11.000Z</time>
      </trkpt>
      <trkpt lat="47.47696" lon="6.76891">
        <ele>311</ele>
        <time>2015-11-11T08:43:12.000Z</time>
      </trkpt>
      <trkpt lat="47.47693" lon="6.76901">
        <ele>311</ele>
        <time>2015-11-11T08:43:13.000Z</time>
      </trkpt>
      <trkpt lat="47.4769" lon="6.76908">
        <ele>311</ele>
        <time>2015-11-11T08:43:14.000Z</time>
      </trkpt>
      <trkpt lat="47.47687" lon="6.76915">
        <ele>311</ele>
        <time>2015-11-11T08:43:15.000Z</time>
      </trkpt>
      <trkpt lat="47.47684" lon="6.76922">
        <ele>311</ele>
        <time>2015-11-11T08:43:16.000Z</time>
      </trkpt>
      <trkpt lat="47.47682" lon="6.76929">
        <ele>311</ele>
        <time>2015-11-11T08:43:17.000Z</time>
      </trkpt>
      <trkpt lat="47.47679" lon="6.76937">
        <ele>311</ele>
        <time>2015-11-11T08:43:18.000Z</time>
      </trkpt>
      <trkpt lat="47.47675" lon="6.76945">
        <ele>311</ele>
        <time>2015-11-11T08:43:19.000Z</time>
      </trkpt>
      <trkpt lat="47.47673" lon="6.76949">
        <ele>311</ele>
        <time>2015-11-11T08:43:20.000Z</time>
      </trkpt>
      <trkpt lat="47.47671" lon="6.76956">
        <ele>311</ele>
        <time>2015-11-11T08:43:21.000Z</time>
      </trkpt>
      <trkpt lat="47.47668" lon="6.76963">
        <ele>311</ele>
        <time>2015-11-11T08:43:22.000Z</time>
      </trkpt>
      <trkpt lat="47.47665" lon="6.76969">
        <ele>311</ele>
        <time>2015-11-11T08:43:23.000Z</time>
      </trkpt>
      <trkpt lat="47.47663" lon="6.76975">
        <ele>311</ele>
        <time>2015-11-11T08:43:24.000Z</time>
      </trkpt>
      <trkpt lat="47.47661" lon="6.76982">
        <ele>311</ele>
        <time>2015-11-11T08:43:25.000Z</time>
      </trkpt>
      <trkpt lat="47.47659" lon="6.76987">
        <ele>311</ele>
        <time>2015-11-11T08:43:26.000Z</time>
      </trkpt>
      <trkpt lat="47.47657" lon="6.76992">
        <ele>311</ele>
        <time>2015-11-11T08:43:27.000Z</time>
      </trkpt>
      <trkpt lat="47.47655" lon="6.76998">
        <ele>311</ele>
        <time>2015-11-11T08:43:28.000Z</time>
      </trkpt>
      <trkpt lat="47.47654" lon="6.77004">
        <ele>311</ele>
        <time>2015-11-11T08:43:28.999Z</time>
      </trkpt>
      <trkpt lat="47.47652" lon="6.7701">
        <ele>311</ele>
        <time>2015-11-11T08:43:31.000Z</time>
      </trkpt>
      <trkpt lat="47.47652" lon="6.77016">
        <ele>311</ele>
        <time>2015-11-11T08:43:32.000Z</time>
      </trkpt>
      <trkpt lat="47.47653" lon="6.77022">
        <ele>311</ele>
        <time>2015-11-11T08:43:33.000Z</time>
      </trkpt>
      <trkpt lat="47.47653" lon="6.77027">
        <ele>311</ele>
        <time>2015-11-11T08:43:34.000Z</time>
      </trkpt>
      <trkpt lat="47.47652" lon="6.77031">
        <ele>311</ele>
        <time>2015-11-11T08:43:35.000Z</time>
      </trkpt>
      <trkpt lat="47.47652" lon="6.77035">
        <ele>311</ele>
        <time>2015-11-11T08:43:36.000Z</time>
      </trkpt>
      <trkpt lat="47.47652" lon="6.77039">
        <ele>311</ele>
        <time>2015-11-11T08:43:37.000Z</time>
      </trkpt>
      <trkpt lat="47.47651" lon="6.77044">
        <ele>311</ele>
        <time>2015-11-11T08:43:38.000Z</time>
      </trkpt>
      <trkpt lat="47.4765" lon="6.7705">
        <ele>311</ele>
        <time>2015-11-11T08:43:39.000Z</time>
      </trkpt>
      <trkpt lat="47.47648" lon="6.77055">
        <ele>311</ele>
        <time>2015-11-11T08:43:40.000Z</time>
      </trkpt>
      <trkpt lat="47.47647" lon="6.7706">
        <ele>311</ele>
        <time>2015-11-11T08:43:41.000Z</time>
      </trkpt>
      <trkpt lat="47.47646" lon="6.77066">
        <ele>311</ele>
        <time>2015-11-11T08:43:42.000Z</time>
      </trkpt>
      <trkpt lat="47.47645" lon="6.77072">
        <ele>311</ele>
        <time>2015-11-11T08:43:43.000Z</time>
      </trkpt>
      <trkpt lat="47.47645" lon="6.77077">
        <ele>311</ele>
        <time>2015-11-11T08:43:44.000Z</time>
      </trkpt>
      <trkpt lat="47.47643" lon="6.77089">
        <ele>311</ele>
        <time>2015-11-11T08:43:45.000Z</time>
      </trkpt>
      <trkpt lat="47.47642" lon="6.77097">
        <ele>311</ele>
        <time>2015-11-11T08:43:46.000Z</time>
      </trkpt>
      <trkpt lat="47.47641" lon="6.77104">
        <ele>310</ele>
        <time>2015-11-11T08:43:47.000Z</time>
      </trkpt>
      <trkpt lat="47.47641" lon="6.77112">
        <ele>310</ele>
        <time>2015-11-11T08:43:48.000Z</time>
      </trkpt>
      <trkpt lat="47.47639" lon="6.77121">
        <ele>310</ele>
        <time>2015-11-11T08:43:49.000Z</time>
      </trkpt>
      <trkpt lat="47.47638" lon="6.77132">
        <ele>310</ele>
        <time>2015-11-11T08:43:50.000Z</time>
      </trkpt>
      <trkpt lat="47.47633" lon="6.77141">
        <ele>310</ele>
        <time>2015-11-11T08:43:51.000Z</time>
      </trkpt>
      <trkpt lat="47.47631" lon="6.77151">
        <ele>310</ele>
        <time>2015-11-11T08:43:52.000Z</time>
      </trkpt>
      <trkpt lat="47.47625" lon="6.7716">
        <ele>310</ele>
        <time>2015-11-11T08:43:53.000Z</time>
      </trkpt>
      <trkpt lat="47.47622" lon="6.77169">
        <ele>310</ele>
        <time>2015-11-11T08:43:54.000Z</time>
      </trkpt>
      <trkpt lat="47.47615" lon="6.77172">
        <ele>310</ele>
        <time>2015-11-11T08:43:55.000Z</time>
      </trkpt>
      <trkpt lat="47.47608" lon="6.77176">
        <ele>310</ele>
        <time>2015-11-11T08:43:56.000Z</time>
      </trkpt>
      <trkpt lat="47.47601" lon="6.77173">
        <ele>310</ele>
        <time>2015-11-11T08:43:57.000Z</time>
      </trkpt>
      <trkpt lat="47.47595" lon="6.77169">
        <ele>309</ele>
        <time>2015-11-11T08:43:58.000Z</time>
      </trkpt>
      <trkpt lat="47.47588" lon="6.77165">
        <ele>309</ele>
        <time>2015-11-11T08:43:59.000Z</time>
      </trkpt>
      <trkpt lat="47.47583" lon="6.77161">
        <ele>309</ele>
        <time>2015-11-11T08:44:00.000Z</time>
      </trkpt>
      <trkpt lat="47.47578" lon="6.77157">
        <ele>309</ele>
        <time>2015-11-11T08:44:01.000Z</time>
      </trkpt>
      <trkpt lat="47.47572" lon="6.77153">
        <ele>310</ele>
        <time>2015-11-11T08:44:02.000Z</time>
      </trkpt>
      <trkpt lat="47.47567" lon="6.7715">
        <ele>310</ele>
        <time>2015-11-11T08:44:03.000Z</time>
      </trkpt>
      <trkpt lat="47.47562" lon="6.77146">
        <ele>310</ele>
        <time>2015-11-11T08:44:04.000Z</time>
      </trkpt>
      <trkpt lat="47.47557" lon="6.77143">
        <ele>310</ele>
        <time>2015-11-11T08:44:05.000Z</time>
      </trkpt>
      <trkpt lat="47.47552" lon="6.7714">
        <ele>310</ele>
        <time>2015-11-11T08:44:06.000Z</time>
      </trkpt>
      <trkpt lat="47.47547" lon="6.77137">
        <ele>310</ele>
        <time>2015-11-11T08:44:07.000Z</time>
      </trkpt>
      <trkpt lat="47.47543" lon="6.77133">
        <ele>310</ele>
        <time>2015-11-11T08:44:08.000Z</time>
      </trkpt>
      <trkpt lat="47.47537" lon="6.77129">
        <ele>310</ele>
        <time>2015-11-11T08:44:09.000Z</time>
      </trkpt>
      <trkpt lat="47.47533" lon="6.77129">
        <ele>310</ele>
        <time>2015-11-11T08:44:10.000Z</time>
      </trkpt>
      <trkpt lat="47.47528" lon="6.77132">
        <ele>310</ele>
        <time>2015-11-11T08:44:11.000Z</time>
      </trkpt>
      <trkpt lat="47.47524" lon="6.77133">
        <ele>310</ele>
        <time>2015-11-11T08:44:12.001Z</time>
      </trkpt>
      <trkpt lat="47.47521" lon="6.77131">
        <ele>310</ele>
        <time>2015-11-11T08:44:13.001Z</time>
      </trkpt>
      <trkpt lat="47.47521" lon="6.77136">
        <ele>310</ele>
        <time>2015-11-11T08:44:15.000Z</time>
      </trkpt>
      <trkpt lat="47.47524" lon="6.77149">
        <ele>310</ele>
        <time>2015-11-11T08:44:16.000Z</time>
      </trkpt>
      <trkpt lat="47.47525" lon="6.77162">
        <ele>310</ele>
        <time>2015-11-11T08:44:17.000Z</time>
      </trkpt>
      <trkpt lat="47.47525" lon="6.77169">
        <ele>310</ele>
        <time>2015-11-11T08:44:18.000Z</time>
      </trkpt>
      <trkpt lat="47.47524" lon="6.77175">
        <ele>310</ele>
        <time>2015-11-11T08:44:19.000Z</time>
      </trkpt>
      <trkpt lat="47.47519" lon="6.77182">
        <ele>310</ele>
        <time>2015-11-11T08:44:20.000Z</time>
      </trkpt>
      <trkpt lat="47.47517" lon="6.77186">
        <ele>310</ele>
        <time>2015-11-11T08:44:21.000Z</time>
      </trkpt>
      <trkpt lat="47.47516" lon="6.7719">
        <ele>310</ele>
        <time>2015-11-11T08:44:22.000Z</time>
      </trkpt>
      <trkpt lat="47.47513" lon="6.77192">
        <ele>310</ele>
        <time>2015-11-11T08:44:23.000Z</time>
      </trkpt>
      <trkpt lat="47.47512" lon="6.77198">
        <ele>310</ele>
        <time>2015-11-11T08:44:24.000Z</time>
      </trkpt>
      <trkpt lat="47.47506" lon="6.77209">
        <ele>311</ele>
        <time>2015-11-11T08:44:25.000Z</time>
      </trkpt>
      <trkpt lat="47.47501" lon="6.77215">
        <ele>311</ele>
        <time>2015-11-11T08:44:26.000Z</time>
      </trkpt>
      <trkpt lat="47.47497" lon="6.77222">
        <ele>312</ele>
        <time>2015-11-11T08:44:27.000Z</time>
      </trkpt>
      <trkpt lat="47.47491" lon="6.77232">
        <ele>312</ele>
        <time>2015-11-11T08:44:28.000Z</time>
      </trkpt>
      <trkpt lat="47.47487" lon="6.77239">
        <ele>312</ele>
        <time>2015-11-11T08:44:29.000Z</time>
      </trkpt>
      <trkpt lat="47.47484" lon="6.77243">
        <ele>312</ele>
        <time>2015-11-11T08:44:30.000Z</time>
      </trkpt>
      <trkpt lat="47.47482" lon="6.77248">
        <ele>312</ele>
        <time>2015-11-11T08:44:31.000Z</time>
      </trkpt>
      <trkpt lat="47.4748" lon="6.77256">
        <ele>313</ele>
        <time>2015-11-11T08:44:32.000Z</time>
      </trkpt>
      <trkpt lat="47.47478" lon="6.77257">
        <ele>314</ele>
        <time>2015-11-11T08:44:33.000Z</time>
      </trkpt>
      <trkpt lat="47.47475" lon="6.77261">
        <ele>314</ele>
        <time>2015-11-11T08:44:34.000Z</time>
      </trkpt>
      <trkpt lat="47.47473" lon="6.77264">
        <ele>314</ele>
        <time>2015-11-11T08:44:35.000Z</time>
      </trkpt>
      <trkpt lat="47.47472" lon="6.77269">
        <ele>314</ele>
        <time>2015-11-11T08:44:36.000Z</time>
      </trkpt>
      <trkpt lat="47.47472" lon="6.77274">
        <ele>314</ele>
        <time>2015-11-11T08:44:38.000Z</time>
      </trkpt>
      <trkpt lat="47.47472" lon="6.77277">
        <ele>314</ele>
        <time>2015-11-11T08:44:39.000Z</time>
      </trkpt>
      <trkpt lat="47.47474" lon="6.77281">
        <ele>314</ele>
        <time>2015-11-11T08:44:40.000Z</time>
      </trkpt>
      <trkpt lat="47.47476" lon="6.77284">
        <ele>314</ele>
        <time>2015-11-11T08:44:41.000Z</time>
      </trkpt>
      <trkpt lat="47.47481" lon="6.77295">
        <ele>314</ele>
        <time>2015-11-11T08:44:42.000Z</time>
      </trkpt>
      <trkpt lat="47.47483" lon="6.77301">
        <ele>314</ele>
        <time>2015-11-11T08:44:43.000Z</time>
      </trkpt>
      <trkpt lat="47.47486" lon="6.77306">
        <ele>314</ele>
        <time>2015-11-11T08:44:44.000Z</time>
      </trkpt>
      <trkpt lat="47.47489" lon="6.77309">
        <ele>315</ele>
        <time>2015-11-11T08:44:45.000Z</time>
      </trkpt>
      <trkpt lat="47.47492" lon="6.77313">
        <ele>315</ele>
        <time>2015-11-11T08:44:46.000Z</time>
      </trkpt>
      <trkpt lat="47.47494" lon="6.77318">
        <ele>315</ele>
        <time>2015-11-11T08:44:47.000Z</time>
      </trkpt>
      <trkpt lat="47.47496" lon="6.77324">
        <ele>315</ele>
        <time>2015-11-11T08:44:48.000Z</time>
      </trkpt>
      <trkpt lat="47.47498" lon="6.77329">
        <ele>315</ele>
        <time>2015-11-11T08:44:49.000Z</time>
      </trkpt>
      <trkpt lat="47.47501" lon="6.77333">
        <ele>315</ele>
        <time>2015-11-11T08:44:50.000Z</time>
      </trkpt>
      <trkpt lat="47.47504" lon="6.77338">
        <ele>315</ele>
        <time>2015-11-11T08:44:51.000Z</time>
      </trkpt>
      <trkpt lat="47.47507" lon="6.77342">
        <ele>315</ele>
        <time>2015-11-11T08:44:52.000Z</time>
      </trkpt>
      <trkpt lat="47.47512" lon="6.77347">
        <ele>315</ele>
        <time>2015-11-11T08:44:53.000Z</time>
      </trkpt>
      <trkpt lat="47.47516" lon="6.77352">
        <ele>315</ele>
        <time>2015-11-11T08:44:54.000Z</time>
      </trkpt>
      <trkpt lat="47.47519" lon="6.77356">
        <ele>314</ele>
        <time>2015-11-11T08:44:55.000Z</time>
      </trkpt>
      <trkpt lat="47.47522" lon="6.77359">
        <ele>314</ele>
        <time>2015-11-11T08:44:56.000Z</time>
      </trkpt>
      <trkpt lat="47.47524" lon="6.77363">
        <ele>314</ele>
        <time>2015-11-11T08:44:57.000Z</time>
      </trkpt>
      <trkpt lat="47.47526" lon="6.77368">
        <ele>314</ele>
        <time>2015-11-11T08:44:58.000Z</time>
      </trkpt>
      <trkpt lat="47.47529" lon="6.77374">
        <ele>314</ele>
        <time>2015-11-11T08:44:59.000Z</time>
      </trkpt>
      <trkpt lat="47.47531" lon="6.77379">
        <ele>314</ele>
        <time>2015-11-11T08:45:00.000Z</time>
      </trkpt>
      <trkpt lat="47.47533" lon="6.77383">
        <ele>314</ele>
        <time>2015-11-11T08:45:00.999Z</time>
      </trkpt>
      <trkpt lat="47.47538" lon="6.77391">
        <ele>314</ele>
        <time>2015-11-11T08:45:02.000Z</time>
      </trkpt>
      <trkpt lat="47.47539" lon="6.77395">
        <ele>314</ele>
        <time>2015-11-11T08:45:03.000Z</time>
      </trkpt>
      <trkpt lat="47.47541" lon="6.77398">
        <ele>314</ele>
        <time>2015-11-11T08:45:04.000Z</time>
      </trkpt>
      <trkpt lat="47.47534" lon="6.77405">
        <ele>315</ele>
        <time>2015-11-11T08:45:05.000Z</time>
      </trkpt>
      <trkpt lat="47.47529" lon="6.77406">
        <ele>315</ele>
        <time>2015-11-11T08:45:06.999Z</time>
      </trkpt>
      <trkpt lat="47.47528" lon="6.77411">
        <ele>315</ele>
        <time>2015-11-11T08:45:08.000Z</time>
      </trkpt>
      <trkpt lat="47.47525" lon="6.77414">
        <ele>315</ele>
        <time>2015-11-11T08:45:09.000Z</time>
      </trkpt>
      <trkpt lat="47.47524" lon="6.77416">
        <ele>315</ele>
        <time>2015-11-11T08:45:10.000Z</time>
      </trkpt>
      <trkpt lat="47.47522" lon="6.77418">
        <ele>316</ele>
        <time>2015-11-11T08:45:11.000Z</time>
      </trkpt>
      <trkpt lat="47.4752" lon="6.7742">
        <ele>316</ele>
        <time>2015-11-11T08:45:12.000Z</time>
      </trkpt>
      <trkpt lat="47.47519" lon="6.77428">
        <ele>316</ele>
        <time>2015-11-11T08:45:13.000Z</time>
      </trkpt>
      <trkpt lat="47.47519" lon="6.77435">
        <ele>316</ele>
        <time>2015-11-11T08:45:14.000Z</time>
      </trkpt>
      <trkpt lat="47.47516" lon="6.77438">
        <ele>316</ele>
        <time>2015-11-11T08:45:15.000Z</time>
      </trkpt>
      <trkpt lat="47.47513" lon="6.7744">
        <ele>316</ele>
        <time>2015-11-11T08:45:16.000Z</time>
      </trkpt>
      <trkpt lat="47.47511" lon="6.77441">
        <ele>316</ele>
        <time>2015-11-11T08:45:17.000Z</time>
      </trkpt>
      <trkpt lat="47.47508" lon="6.77444">
        <ele>316</ele>
        <time>2015-11-11T08:45:18.000Z</time>
      </trkpt>
      <trkpt lat="47.47506" lon="6.77448">
        <ele>316</ele>
        <time>2015-11-11T08:45:19.000Z</time>
      </trkpt>
      <trkpt lat="47.47504" lon="6.77452">
        <ele>316</ele>
        <time>2015-11-11T08:45:20.000Z</time>
      </trkpt>
      <trkpt lat="47.47503" lon="6.77456">
        <ele>316</ele>
        <time>2015-11-11T08:45:21.000Z</time>
      </trkpt>
      <trkpt lat="47.47501" lon="6.7746">
        <ele>316</ele>
        <time>2015-11-11T08:45:22.000Z</time>
      </trkpt>
      <trkpt lat="47.47499" lon="6.77464">
        <ele>317</ele>
        <time>2015-11-11T08:45:23.000Z</time>
      </trkpt>
      <trkpt lat="47.47497" lon="6.77468">
        <ele>317</ele>
        <time>2015-11-11T08:45:24.000Z</time>
      </trkpt>
      <trkpt lat="47.47495" lon="6.77472">
        <ele>317</ele>
        <time>2015-11-11T08:45:25.000Z</time>
      </trkpt>
      <trkpt lat="47.47493" lon="6.77476">
        <ele>317</ele>
        <time>2015-11-11T08:45:26.000Z</time>
      </trkpt>
      <trkpt lat="47.4749" lon="6.7748">
        <ele>317</ele>
        <time>2015-11-11T08:45:27.000Z</time>
      </trkpt>
      <trkpt lat="47.47488" lon="6.77484">
        <ele>317</ele>
        <time>2015-11-11T08:45:28.000Z</time>
      </trkpt>
      <trkpt lat="47.47486" lon="6.77489">
        <ele>317</ele>
        <time>2015-11-11T08:45:29.000Z</time>
      </trkpt>
      <trkpt lat="47.47484" lon="6.77492">
        <ele>317</ele>
        <time>2015-11-11T08:45:30.000Z</time>
      </trkpt>
      <trkpt lat="47.47482" lon="6.77495">
        <ele>317</ele>
        <time>2015-11-11T08:45:31.000Z</time>
      </trkpt>
      <trkpt lat="47.47481" lon="6.77497">
        <ele>317</ele>
        <time>2015-11-11T08:45:32.000Z</time>
      </trkpt>
      <trkpt lat="47.47479" lon="6.77502">
        <ele>318</ele>
        <time>2015-11-11T08:45:33.000Z</time>
      </trkpt>
      <trkpt lat="47.47476" lon="6.77506">
        <ele>318</ele>
        <time>2015-11-11T08:45:34.000Z</time>
      </trkpt>
      <trkpt lat="47.47474" lon="6.7751">
        <ele>318</ele>
        <time>2015-11-11T08:45:35.000Z</time>
      </trkpt>
      <trkpt lat="47.47471" lon="6.77514">
        <ele>318</ele>
        <time>2015-11-11T08:45:36.000Z</time>
      </trkpt>
      <trkpt lat="47.47468" lon="6.77517">
        <ele>318</ele>
        <time>2015-11-11T08:45:37.000Z</time>
      </trkpt>
      <trkpt lat="47.47464" lon="6.7752">
        <ele>318</ele>
        <time>2015-11-11T08:45:38.000Z</time>
      </trkpt>
      <trkpt lat="47.4746" lon="6.77521">
        <ele>319</ele>
        <time>2015-11-11T08:45:39.000Z</time>
      </trkpt>
      <trkpt lat="47.47458" lon="6.77522">
        <ele>319</ele>
        <time>2015-11-11T08:45:40.000Z</time>
      </trkpt>
      <trkpt lat="47.47453" lon="6.77522">
        <ele>319</ele>
        <time>2015-11-11T08:45:41.000Z</time>
      </trkpt>
      <trkpt lat="47.47451" lon="6.77522">
        <ele>319</ele>
        <time>2015-11-11T08:45:42.000Z</time>
      </trkpt>
      <trkpt lat="47.47444" lon="6.77526">
        <ele>319</ele>
        <time>2015-11-11T08:45:43.000Z</time>
      </trkpt>
      <trkpt lat="47.4744" lon="6.77528">
        <ele>319</ele>
        <time>2015-11-11T08:45:44.000Z</time>
      </trkpt>
      <trkpt lat="47.47435" lon="6.7753">
        <ele>319</ele>
        <time>2015-11-11T08:45:45.000Z</time>
      </trkpt>
      <trkpt lat="47.4743" lon="6.77533">
        <ele>319</ele>
        <time>2015-11-11T08:45:46.000Z</time>
      </trkpt>
      <trkpt lat="47.47426" lon="6.77535">
        <ele>319</ele>
        <time>2015-11-11T08:45:47.000Z</time>
      </trkpt>
      <trkpt lat="47.47422" lon="6.77537">
        <ele>319</ele>
        <time>2015-11-11T08:45:48.000Z</time>
      </trkpt>
      <trkpt lat="47.47418" lon="6.7754">
        <ele>319</ele>
        <time>2015-11-11T08:45:49.000Z</time>
      </trkpt>
      <trkpt lat="47.47413" lon="6.77542">
        <ele>321</ele>
        <time>2015-11-11T08:45:50.000Z</time>
      </trkpt>
      <trkpt lat="47.47409" lon="6.77544">
        <ele>321</ele>
        <time>2015-11-11T08:45:51.000Z</time>
      </trkpt>
      <trkpt lat="47.47405" lon="6.77546">
        <ele>321</ele>
        <time>2015-11-11T08:45:52.000Z</time>
      </trkpt>
      <trkpt lat="47.474" lon="6.77548">
        <ele>322</ele>
        <time>2015-11-11T08:45:53.000Z</time>
      </trkpt>
      <trkpt lat="47.47396" lon="6.77549">
        <ele>322</ele>
        <time>2015-11-11T08:45:54.000Z</time>
      </trkpt>
      <trkpt lat="47.47392" lon="6.77551">
        <ele>322</ele>
        <time>2015-11-11T08:45:55.000Z</time>
      </trkpt>
      <trkpt lat="47.47388" lon="6.77552">
        <ele>322</ele>
        <time>2015-11-11T08:45:56.000Z</time>
      </trkpt>
      <trkpt lat="47.47384" lon="6.77552">
        <ele>322</ele>
        <time>2015-11-11T08:45:57.000Z</time>
      </trkpt>
      <trkpt lat="47.4738" lon="6.77553">
        <ele>322</ele>
        <time>2015-11-11T08:45:58.000Z</time>
      </trkpt>
      <trkpt lat="47.47376" lon="6.77553">
        <ele>322</ele>
        <time>2015-11-11T08:45:59.000Z</time>
      </trkpt>
      <trkpt lat="47.47372" lon="6.77553">
        <ele>322</ele>
        <time>2015-11-11T08:46:00.000Z</time>
      </trkpt>
      <trkpt lat="47.47368" lon="6.77553">
        <ele>322</ele>
        <time>2015-11-11T08:46:01.000Z</time>
      </trkpt>
      <trkpt lat="47.47363" lon="6.77554">
        <ele>322</ele>
        <time>2015-11-11T08:46:02.000Z</time>
      </trkpt>
      <trkpt lat="47.47359" lon="6.77555">
        <ele>323</ele>
        <time>2015-11-11T08:46:03.000Z</time>
      </trkpt>
      <trkpt lat="47.47355" lon="6.77556">
        <ele>323</ele>
        <time>2015-11-11T08:46:04.000Z</time>
      </trkpt>
      <trkpt lat="47.47352" lon="6.77555">
        <ele>323</ele>
        <time>2015-11-11T08:46:05.000Z</time>
      </trkpt>
      <trkpt lat="47.47349" lon="6.77554">
        <ele>323</ele>
        <time>2015-11-11T08:46:06.000Z</time>
      </trkpt>
      <trkpt lat="47.47346" lon="6.77553">
        <ele>323</ele>
        <time>2015-11-11T08:46:07.000Z</time>
      </trkpt>
      <trkpt lat="47.47343" lon="6.77553">
        <ele>323</ele>
        <time>2015-11-11T08:46:08.000Z</time>
      </trkpt>
      <trkpt lat="47.4734" lon="6.77552">
        <ele>323</ele>
        <time>2015-11-11T08:46:09.000Z</time>
      </trkpt>
      <trkpt lat="47.47337" lon="6.77551">
        <ele>323</ele>
        <time>2015-11-11T08:46:10.000Z</time>
      </trkpt>
      <trkpt lat="47.47334" lon="6.7755">
        <ele>323</ele>
        <time>2015-11-11T08:46:11.000Z</time>
      </trkpt>
      <trkpt lat="47.47331" lon="6.7755">
        <ele>326</ele>
        <time>2015-11-11T08:46:12.000Z</time>
      </trkpt>
      <trkpt lat="47.47328" lon="6.7755">
        <ele>326</ele>
        <time>2015-11-11T08:46:14.000Z</time>
      </trkpt>
      <trkpt lat="47.47325" lon="6.7755">
        <ele>326</ele>
        <time>2015-11-11T08:46:15.000Z</time>
      </trkpt>
      <trkpt lat="47.47323" lon="6.77551">
        <ele>326</ele>
        <time>2015-11-11T08:46:16.000Z</time>
      </trkpt>
      <trkpt lat="47.4732" lon="6.77552">
        <ele>326</ele>
        <time>2015-11-11T08:46:17.000Z</time>
      </trkpt>
      <trkpt lat="47.47317" lon="6.77553">
        <ele>326</ele>
        <time>2015-11-11T08:46:18.000Z</time>
      </trkpt>
      <trkpt lat="47.47314" lon="6.77554">
        <ele>326</ele>
        <time>2015-11-11T08:46:19.000Z</time>
      </trkpt>
      <trkpt lat="47.4731" lon="6.77555">
        <ele>326</ele>
        <time>2015-11-11T08:46:20.000Z</time>
      </trkpt>
      <trkpt lat="47.47307" lon="6.77556">
        <ele>326</ele>
        <time>2015-11-11T08:46:21.000Z</time>
      </trkpt>
      <trkpt lat="47.47304" lon="6.77556">
        <ele>326</ele>
        <time>2015-11-11T08:46:22.000Z</time>
      </trkpt>
      <trkpt lat="47.473" lon="6.77556">
        <ele>326</ele>
        <time>2015-11-11T08:46:23.000Z</time>
      </trkpt>
      <trkpt lat="47.47296" lon="6.77556">
        <ele>327</ele>
        <time>2015-11-11T08:46:24.000Z</time>
      </trkpt>
      <trkpt lat="47.47293" lon="6.77557">
        <ele>327</ele>
        <time>2015-11-11T08:46:25.000Z</time>
      </trkpt>
      <trkpt lat="47.47289" lon="6.77557">
        <ele>327</ele>
        <time>2015-11-11T08:46:26.000Z</time>
      </trkpt>
      <trkpt lat="47.47286" lon="6.77557">
        <ele>327</ele>
        <time>2015-11-11T08:46:27.000Z</time>
      </trkpt>
      <trkpt lat="47.47283" lon="6.77557">
        <ele>327</ele>
        <time>2015-11-11T08:46:28.000Z</time>
      </trkpt>
      <trkpt lat="47.47279" lon="6.77557">
        <ele>327</ele>
        <time>2015-11-11T08:46:29.000Z</time>
      </trkpt>
      <trkpt lat="47.47276" lon="6.77557">
        <ele>327</ele>
        <time>2015-11-11T08:46:30.000Z</time>
      </trkpt>
      <trkpt lat="47.47272" lon="6.77557">
        <ele>327</ele>
        <time>2015-11-11T08:46:31.000Z</time>
      </trkpt>
      <trkpt lat="47.47269" lon="6.77557">
        <ele>327</ele>
        <time>2015-11-11T08:46:32.000Z</time>
      </trkpt>
      <trkpt lat="47.47265" lon="6.77557">
        <ele>328</ele>
        <time>2015-11-11T08:46:33.000Z</time>
      </trkpt>
      <trkpt lat="47.47262" lon="6.77558">
        <ele>328</ele>
        <time>2015-11-11T08:46:34.000Z</time>
      </trkpt>
      <trkpt lat="47.47258" lon="6.77558">
        <ele>328</ele>
        <time>2015-11-11T08:46:35.000Z</time>
      </trkpt>
      <trkpt lat="47.47255" lon="6.77557">
        <ele>328</ele>
        <time>2015-11-11T08:46:36.000Z</time>
      </trkpt>
      <trkpt lat="47.47252" lon="6.77557">
        <ele>328</ele>
        <time>2015-11-11T08:46:37.000Z</time>
      </trkpt>
      <trkpt lat="47.47249" lon="6.77557">
        <ele>331</ele>
        <time>2015-11-11T08:46:38.000Z</time>
      </trkpt>
      <trkpt lat="47.47246" lon="6.77556">
        <ele>331</ele>
        <time>2015-11-11T08:46:39.000Z</time>
      </trkpt>
      <trkpt lat="47.47243" lon="6.77557">
        <ele>331</ele>
        <time>2015-11-11T08:46:40.000Z</time>
      </trkpt>
      <trkpt lat="47.4724" lon="6.77557">
        <ele>331</ele>
        <time>2015-11-11T08:46:41.000Z</time>
      </trkpt>
      <trkpt lat="47.47237" lon="6.77557">
        <ele>331</ele>
        <time>2015-11-11T08:46:42.000Z</time>
      </trkpt>
      <trkpt lat="47.47234" lon="6.77557">
        <ele>331</ele>
        <time>2015-11-11T08:46:43.000Z</time>
      </trkpt>
      <trkpt lat="47.47231" lon="6.77557">
        <ele>331</ele>
        <time>2015-11-11T08:46:44.000Z</time>
      </trkpt>
      <trkpt lat="47.47228" lon="6.77557">
        <ele>331</ele>
        <time>2015-11-11T08:46:45.000Z</time>
      </trkpt>
      <trkpt lat="47.47226" lon="6.77556">
        <ele>331</ele>
        <time>2015-11-11T08:46:46.000Z</time>
      </trkpt>
      <trkpt lat="47.47223" lon="6.77556">
        <ele>331</ele>
        <time>2015-11-11T08:46:47.000Z</time>
      </trkpt>
      <trkpt lat="47.47221" lon="6.77556">
        <ele>331</ele>
        <time>2015-11-11T08:46:48.000Z</time>
      </trkpt>
      <trkpt lat="47.47218" lon="6.77555">
        <ele>331</ele>
        <time>2015-11-11T08:46:49.000Z</time>
      </trkpt>
      <trkpt lat="47.47216" lon="6.77555">
        <ele>331</ele>
        <time>2015-11-11T08:46:50.000Z</time>
      </trkpt>
      <trkpt lat="47.47214" lon="6.77554">
        <ele>331</ele>
        <time>2015-11-11T08:46:51.000Z</time>
      </trkpt>
      <trkpt lat="47.47211" lon="6.77554">
        <ele>331</ele>
        <time>2015-11-11T08:46:52.000Z</time>
      </trkpt>
      <trkpt lat="47.47208" lon="6.77553">
        <ele>331</ele>
        <time>2015-11-11T08:46:53.000Z</time>
      </trkpt>
      <trkpt lat="47.47205" lon="6.77552">
        <ele>331</ele>
        <time>2015-11-11T08:46:54.000Z</time>
      </trkpt>
      <trkpt lat="47.47202" lon="6.77552">
        <ele>332</ele>
        <time>2015-11-11T08:46:55.000Z</time>
      </trkpt>
      <trkpt lat="47.47199" lon="6.77552">
        <ele>332</ele>
        <time>2015-11-11T08:46:56.000Z</time>
      </trkpt>
      <trkpt lat="47.47196" lon="6.77551">
        <ele>332</ele>
        <time>2015-11-11T08:46:57.000Z</time>
      </trkpt>
      <trkpt lat="47.47193" lon="6.77551">
        <ele>332</ele>
        <time>2015-11-11T08:46:58.000Z</time>
      </trkpt>
      <trkpt lat="47.4719" lon="6.77552">
        <ele>332</ele>
        <time>2015-11-11T08:46:59.000Z</time>
      </trkpt>
      <trkpt lat="47.47187" lon="6.77552">
        <ele>332</ele>
        <time>2015-11-11T08:47:00.000Z</time>
      </trkpt>
      <trkpt lat="47.47184" lon="6.77553">
        <ele>332</ele>
        <time>2015-11-11T08:47:01.000Z</time>
      </trkpt>
      <trkpt lat="47.47181" lon="6.77553">
        <ele>332</ele>
        <time>2015-11-11T08:47:02.000Z</time>
      </trkpt>
      <trkpt lat="47.47178" lon="6.77553">
        <ele>332</ele>
        <time>2015-11-11T08:47:03.000Z</time>
      </trkpt>
      <trkpt lat="47.47175" lon="6.77554">
        <ele>332</ele>
        <time>2015-11-11T08:47:04.000Z</time>
      </trkpt>
      <trkpt lat="47.47171" lon="6.77555">
        <ele>332</ele>
        <time>2015-11-11T08:47:05.000Z</time>
      </trkpt>
      <trkpt lat="47.47167" lon="6.77557">
        <ele>332</ele>
        <time>2015-11-11T08:47:06.000Z</time>
      </trkpt>
      <trkpt lat="47.47164" lon="6.7756">
        <ele>334</ele>
        <time>2015-11-11T08:47:07.000Z</time>
      </trkpt>
      <trkpt lat="47.47162" lon="6.77564">
        <ele>334</ele>
        <time>2015-11-11T08:47:08.000Z</time>
      </trkpt>
      <trkpt lat="47.4716" lon="6.77568">
        <ele>334</ele>
        <time>2015-11-11T08:47:09.000Z</time>
      </trkpt>
      <trkpt lat="47.47158" lon="6.77577">
        <ele>334</ele>
        <time>2015-11-11T08:47:10.000Z</time>
      </trkpt>
      <trkpt lat="47.47155" lon="6.77582">
        <ele>334</ele>
        <time>2015-11-11T08:47:11.000Z</time>
      </trkpt>
      <trkpt lat="47.47153" lon="6.77586">
        <ele>334</ele>
        <time>2015-11-11T08:47:12.000Z</time>
      </trkpt>
      <trkpt lat="47.47151" lon="6.7759">
        <ele>334</ele>
        <time>2015-11-11T08:47:13.000Z</time>
      </trkpt>
      <trkpt lat="47.4715" lon="6.77593">
        <ele>334</ele>
        <time>2015-11-11T08:47:14.000Z</time>
      </trkpt>
      <trkpt lat="47.47148" lon="6.77599">
        <ele>334</ele>
        <time>2015-11-11T08:47:15.000Z</time>
      </trkpt>
      <trkpt lat="47.47148" lon="6.77602">
        <ele>334</ele>
        <time>2015-11-11T08:47:16.000Z</time>
      </trkpt>
      <trkpt lat="47.47147" lon="6.77605">
        <ele>334</ele>
        <time>2015-11-11T08:47:17.000Z</time>
      </trkpt>
      <trkpt lat="47.47145" lon="6.77608">
        <ele>334</ele>
        <time>2015-11-11T08:47:18.000Z</time>
      </trkpt>
      <trkpt lat="47.47144" lon="6.77612">
        <ele>334</ele>
        <time>2015-11-11T08:47:19.000Z</time>
      </trkpt>
      <trkpt lat="47.47142" lon="6.77617">
        <ele>334</ele>
        <time>2015-11-11T08:47:20.000Z</time>
      </trkpt>
      <trkpt lat="47.47136" lon="6.77629">
        <ele>334</ele>
        <time>2015-11-11T08:47:21.000Z</time>
      </trkpt>
      <trkpt lat="47.47134" lon="6.77632">
        <ele>334</ele>
        <time>2015-11-11T08:47:23.000Z</time>
      </trkpt>
      <trkpt lat="47.47136" lon="6.77644">
        <ele>335</ele>
        <time>2015-11-11T08:47:24.000Z</time>
      </trkpt>
      <trkpt lat="47.47128" lon="6.77649">
        <ele>335</ele>
        <time>2015-11-11T08:47:25.000Z</time>
      </trkpt>
      <trkpt lat="47.47123" lon="6.77652">
        <ele>334</ele>
        <time>2015-11-11T08:47:26.000Z</time>
      </trkpt>
      <trkpt lat="47.47119" lon="6.77645">
        <ele>334</ele>
        <time>2015-11-11T08:47:27.000Z</time>
      </trkpt>
      <trkpt lat="47.47115" lon="6.7764">
        <ele>334</ele>
        <time>2015-11-11T08:47:28.000Z</time>
      </trkpt>
      <trkpt lat="47.4711" lon="6.77636">
        <ele>334</ele>
        <time>2015-11-11T08:47:29.000Z</time>
      </trkpt>
      <trkpt lat="47.47105" lon="6.77631">
        <ele>334</ele>
        <time>2015-11-11T08:47:30.000Z</time>
      </trkpt>
      <trkpt lat="47.47099" lon="6.77628">
        <ele>334</ele>
        <time>2015-11-11T08:47:31.000Z</time>
      </trkpt>
      <trkpt lat="47.47094" lon="6.77624">
        <ele>334</ele>
        <time>2015-11-11T08:47:32.000Z</time>
      </trkpt>
      <trkpt lat="47.47089" lon="6.77619">
        <ele>334</ele>
        <time>2015-11-11T08:47:33.000Z</time>
      </trkpt>
      <trkpt lat="47.47085" lon="6.77612">
        <ele>334</ele>
        <time>2015-11-11T08:47:34.000Z</time>
      </trkpt>
      <trkpt lat="47.4708" lon="6.77607">
        <ele>334</ele>
        <time>2015-11-11T08:47:35.000Z</time>
      </trkpt>
      <trkpt lat="47.47076" lon="6.77602">
        <ele>334</ele>
        <time>2015-11-11T08:47:36.000Z</time>
      </trkpt>
      <trkpt lat="47.47072" lon="6.77597">
        <ele>334</ele>
        <time>2015-11-11T08:47:37.000Z</time>
      </trkpt>
      <trkpt lat="47.47068" lon="6.77592">
        <ele>334</ele>
        <time>2015-11-11T08:47:38.000Z</time>
      </trkpt>
      <trkpt lat="47.47063" lon="6.77587">
        <ele>334</ele>
        <time>2015-11-11T08:47:39.000Z</time>
      </trkpt>
      <trkpt lat="47.4706" lon="6.77582">
        <ele>334</ele>
        <time>2015-11-11T08:47:40.000Z</time>
      </trkpt>
      <trkpt lat="47.47056" lon="6.77577">
        <ele>335</ele>
        <time>2015-11-11T08:47:41.000Z</time>
      </trkpt>
      <trkpt lat="47.47052" lon="6.77571">
        <ele>335</ele>
        <time>2015-11-11T08:47:42.000Z</time>
      </trkpt>
      <trkpt lat="47.47049" lon="6.77567">
        <ele>335</ele>
        <time>2015-11-11T08:47:43.000Z</time>
      </trkpt>
      <trkpt lat="47.47046" lon="6.77563">
        <ele>335</ele>
        <time>2015-11-11T08:47:44.000Z</time>
      </trkpt>
      <trkpt lat="47.47042" lon="6.77558">
        <ele>335</ele>
        <time>2015-11-11T08:47:45.000Z</time>
      </trkpt>
      <trkpt lat="47.47039" lon="6.77554">
        <ele>335</ele>
        <time>2015-11-11T08:47:46.000Z</time>
      </trkpt>
      <trkpt lat="47.47035" lon="6.7755">
        <ele>335</ele>
        <time>2015-11-11T08:47:47.000Z</time>
      </trkpt>
      <trkpt lat="47.47032" lon="6.77547">
        <ele>335</ele>
        <time>2015-11-11T08:47:48.000Z</time>
      </trkpt>
      <trkpt lat="47.47028" lon="6.77544">
        <ele>336</ele>
        <time>2015-11-11T08:47:49.000Z</time>
      </trkpt>
      <trkpt lat="47.47025" lon="6.77541">
        <ele>336</ele>
        <time>2015-11-11T08:47:50.000Z</time>
      </trkpt>
      <trkpt lat="47.47021" lon="6.77538">
        <ele>336</ele>
        <time>2015-11-11T08:47:51.000Z</time>
      </trkpt>
      <trkpt lat="47.47018" lon="6.77535">
        <ele>336</ele>
        <time>2015-11-11T08:47:52.000Z</time>
      </trkpt>
      <trkpt lat="47.47016" lon="6.77532">
        <ele>336</ele>
        <time>2015-11-11T08:47:53.000Z</time>
      </trkpt>
      <trkpt lat="47.47012" lon="6.77529">
        <ele>336</ele>
        <time>2015-11-11T08:47:54.000Z</time>
      </trkpt>
      <trkpt lat="47.47009" lon="6.77526">
        <ele>336</ele>
        <time>2015-11-11T08:47:55.000Z</time>
      </trkpt>
      <trkpt lat="47.47007" lon="6.77523">
        <ele>336</ele>
        <time>2015-11-11T08:47:56.000Z</time>
      </trkpt>
      <trkpt lat="47.47004" lon="6.7752">
        <ele>336</ele>
        <time>2015-11-11T08:47:57.000Z</time>
      </trkpt>
      <trkpt lat="47.47001" lon="6.77518">
        <ele>337</ele>
        <time>2015-11-11T08:47:58.000Z</time>
      </trkpt>
      <trkpt lat="47.46999" lon="6.77514">
        <ele>339</ele>
        <time>2015-11-11T08:47:59.000Z</time>
      </trkpt>
      <trkpt lat="47.46996" lon="6.7751">
        <ele>339</ele>
        <time>2015-11-11T08:48:00.000Z</time>
      </trkpt>
      <trkpt lat="47.46994" lon="6.77506">
        <ele>339</ele>
        <time>2015-11-11T08:48:01.000Z</time>
      </trkpt>
      <trkpt lat="47.46992" lon="6.77503">
        <ele>339</ele>
        <time>2015-11-11T08:48:02.000Z</time>
      </trkpt>
      <trkpt lat="47.46989" lon="6.77499">
        <ele>339</ele>
        <time>2015-11-11T08:48:03.000Z</time>
      </trkpt>
      <trkpt lat="47.46987" lon="6.77496">
        <ele>339</ele>
        <time>2015-11-11T08:48:04.000Z</time>
      </trkpt>
      <trkpt lat="47.46985" lon="6.77492">
        <ele>340</ele>
        <time>2015-11-11T08:48:05.000Z</time>
      </trkpt>
      <trkpt lat="47.46983" lon="6.77489">
        <ele>340</ele>
        <time>2015-11-11T08:48:06.000Z</time>
      </trkpt>
      <trkpt lat="47.46981" lon="6.77486">
        <ele>340</ele>
        <time>2015-11-11T08:48:07.000Z</time>
      </trkpt>
      <trkpt lat="47.46979" lon="6.77483">
        <ele>340</ele>
        <time>2015-11-11T08:48:08.000Z</time>
      </trkpt>
      <trkpt lat="47.46977" lon="6.77479">
        <ele>340</ele>
        <time>2015-11-11T08:48:09.000Z</time>
      </trkpt>
      <trkpt lat="47.46974" lon="6.77475">
        <ele>340</ele>
        <time>2015-11-11T08:48:10.000Z</time>
      </trkpt>
      <trkpt lat="47.46972" lon="6.77471">
        <ele>340</ele>
        <time>2015-11-11T08:48:11.000Z</time>
      </trkpt>
      <trkpt lat="47.4697" lon="6.77468">
        <ele>341</ele>
        <time>2015-11-11T08:48:12.000Z</time>
      </trkpt>
      <trkpt lat="47.46967" lon="6.77463">
        <ele>341</ele>
        <time>2015-11-11T08:48:13.000Z</time>
      </trkpt>
      <trkpt lat="47.46965" lon="6.7746">
        <ele>341</ele>
        <time>2015-11-11T08:48:14.000Z</time>
      </trkpt>
      <trkpt lat="47.46962" lon="6.77456">
        <ele>341</ele>
        <time>2015-11-11T08:48:15.000Z</time>
      </trkpt>
      <trkpt lat="47.4696" lon="6.77452">
        <ele>341</ele>
        <time>2015-11-11T08:48:16.000Z</time>
      </trkpt>
      <trkpt lat="47.46957" lon="6.77449">
        <ele>341</ele>
        <time>2015-11-11T08:48:17.000Z</time>
      </trkpt>
      <trkpt lat="47.46955" lon="6.77445">
        <ele>341</ele>
        <time>2015-11-11T08:48:18.000Z</time>
      </trkpt>
      <trkpt lat="47.46953" lon="6.77442">
        <ele>341</ele>
        <time>2015-11-11T08:48:19.000Z</time>
      </trkpt>
      <trkpt lat="47.46951" lon="6.77439">
        <ele>341</ele>
        <time>2015-11-11T08:48:20.000Z</time>
      </trkpt>
      <trkpt lat="47.46949" lon="6.77435">
        <ele>341</ele>
        <time>2015-11-11T08:48:21.000Z</time>
      </trkpt>
      <trkpt lat="47.46948" lon="6.77432">
        <ele>342</ele>
        <time>2015-11-11T08:48:22.000Z</time>
      </trkpt>
      <trkpt lat="47.46947" lon="6.77429">
        <ele>342</ele>
        <time>2015-11-11T08:48:23.000Z</time>
      </trkpt>
      <trkpt lat="47.46945" lon="6.77425">
        <ele>342</ele>
        <time>2015-11-11T08:48:24.000Z</time>
      </trkpt>
      <trkpt lat="47.46944" lon="6.77422">
        <ele>342</ele>
        <time>2015-11-11T08:48:25.000Z</time>
      </trkpt>
      <trkpt lat="47.46942" lon="6.77419">
        <ele>342</ele>
        <time>2015-11-11T08:48:26.000Z</time>
      </trkpt>
      <trkpt lat="47.4694" lon="6.77416">
        <ele>342</ele>
        <time>2015-11-11T08:48:27.000Z</time>
      </trkpt>
      <trkpt lat="47.46938" lon="6.77413">
        <ele>342</ele>
        <time>2015-11-11T08:48:28.000Z</time>
      </trkpt>
      <trkpt lat="47.46935" lon="6.77412">
        <ele>343</ele>
        <time>2015-11-11T08:48:29.000Z</time>
      </trkpt>
      <trkpt lat="47.46933" lon="6.77411">
        <ele>343</ele>
        <time>2015-11-11T08:48:30.000Z</time>
      </trkpt>
      <trkpt lat="47.4693" lon="6.77412">
        <ele>343</ele>
        <time>2015-11-11T08:48:31.000Z</time>
      </trkpt>
      <trkpt lat="47.46927" lon="6.77414">
        <ele>343</ele>
        <time>2015-11-11T08:48:32.000Z</time>
      </trkpt>
      <trkpt lat="47.46925" lon="6.77418">
        <ele>343</ele>
        <time>2015-11-11T08:48:33.000Z</time>
      </trkpt>
      <trkpt lat="47.46923" lon="6.77421">
        <ele>343</ele>
        <time>2015-11-11T08:48:34.000Z</time>
      </trkpt>
      <trkpt lat="47.46921" lon="6.77425">
        <ele>343</ele>
        <time>2015-11-11T08:48:35.000Z</time>
      </trkpt>
      <trkpt lat="47.46919" lon="6.77428">
        <ele>343</ele>
        <time>2015-11-11T08:48:36.000Z</time>
      </trkpt>
      <trkpt lat="47.46917" lon="6.7743">
        <ele>343</ele>
        <time>2015-11-11T08:48:37.000Z</time>
      </trkpt>
      <trkpt lat="47.46915" lon="6.77432">
        <ele>346</ele>
        <time>2015-11-11T08:48:38.000Z</time>
      </trkpt>
      <trkpt lat="47.46912" lon="6.77434">
        <ele>346</ele>
        <time>2015-11-11T08:48:39.000Z</time>
      </trkpt>
      <trkpt lat="47.4691" lon="6.77436">
        <ele>346</ele>
        <time>2015-11-11T08:48:40.000Z</time>
      </trkpt>
      <trkpt lat="47.46907" lon="6.77438">
        <ele>346</ele>
        <time>2015-11-11T08:48:41.000Z</time>
      </trkpt>
      <trkpt lat="47.46904" lon="6.7744">
        <ele>346</ele>
        <time>2015-11-11T08:48:42.000Z</time>
      </trkpt>
      <trkpt lat="47.46901" lon="6.77441">
        <ele>347</ele>
        <time>2015-11-11T08:48:43.000Z</time>
      </trkpt>
      <trkpt lat="47.46898" lon="6.77442">
        <ele>347</ele>
        <time>2015-11-11T08:48:44.000Z</time>
      </trkpt>
      <trkpt lat="47.46895" lon="6.77443">
        <ele>347</ele>
        <time>2015-11-11T08:48:45.000Z</time>
      </trkpt>
      <trkpt lat="47.46892" lon="6.77443">
        <ele>347</ele>
        <time>2015-11-11T08:48:46.000Z</time>
      </trkpt>
      <trkpt lat="47.46889" lon="6.77442">
        <ele>347</ele>
        <time>2015-11-11T08:48:47.000Z</time>
      </trkpt>
      <trkpt lat="47.46886" lon="6.77442">
        <ele>347</ele>
        <time>2015-11-11T08:48:48.000Z</time>
      </trkpt>
      <trkpt lat="47.46884" lon="6.77441">
        <ele>347</ele>
        <time>2015-11-11T08:48:49.000Z</time>
      </trkpt>
      <trkpt lat="47.46881" lon="6.77441">
        <ele>348</ele>
        <time>2015-11-11T08:48:50.000Z</time>
      </trkpt>
      <trkpt lat="47.46879" lon="6.77441">
        <ele>348</ele>
        <time>2015-11-11T08:48:51.000Z</time>
      </trkpt>
      <trkpt lat="47.46876" lon="6.7744">
        <ele>348</ele>
        <time>2015-11-11T08:48:52.000Z</time>
      </trkpt>
      <trkpt lat="47.46873" lon="6.7744">
        <ele>348</ele>
        <time>2015-11-11T08:48:53.000Z</time>
      </trkpt>
      <trkpt lat="47.46871" lon="6.77439">
        <ele>348</ele>
        <time>2015-11-11T08:48:54.000Z</time>
      </trkpt>
      <trkpt lat="47.46867" lon="6.77437">
        <ele>348</ele>
        <time>2015-11-11T08:48:55.000Z</time>
      </trkpt>
      <trkpt lat="47.46865" lon="6.77436">
        <ele>348</ele>
        <time>2015-11-11T08:48:56.000Z</time>
      </trkpt>
      <trkpt lat="47.46862" lon="6.77435">
        <ele>349</ele>
        <time>2015-11-11T08:48:56.999Z</time>
      </trkpt>
      <trkpt lat="47.46859" lon="6.77433">
        <ele>349</ele>
        <time>2015-11-11T08:48:58.000Z</time>
      </trkpt>
      <trkpt lat="47.46856" lon="6.77432">
        <ele>349</ele>
        <time>2015-11-11T08:48:59.000Z</time>
      </trkpt>
      <trkpt lat="47.46852" lon="6.77431">
        <ele>349</ele>
        <time>2015-11-11T08:49:00.000Z</time>
      </trkpt>
      <trkpt lat="47.46849" lon="6.7743">
        <ele>349</ele>
        <time>2015-11-11T08:49:01.000Z</time>
      </trkpt>
      <trkpt lat="47.46846" lon="6.77429">
        <ele>350</ele>
        <time>2015-11-11T08:49:02.000Z</time>
      </trkpt>
      <trkpt lat="47.46843" lon="6.7743">
        <ele>350</ele>
        <time>2015-11-11T08:49:03.000Z</time>
      </trkpt>
      <trkpt lat="47.4684" lon="6.77431">
        <ele>350</ele>
        <time>2015-11-11T08:49:04.000Z</time>
      </trkpt>
      <trkpt lat="47.46838" lon="6.77434">
        <ele>350</ele>
        <time>2015-11-11T08:49:05.000Z</time>
      </trkpt>
      <trkpt lat="47.46836" lon="6.77437">
        <ele>350</ele>
        <time>2015-11-11T08:49:06.000Z</time>
      </trkpt>
      <trkpt lat="47.46834" lon="6.7744">
        <ele>350</ele>
        <time>2015-11-11T08:49:07.000Z</time>
      </trkpt>
      <trkpt lat="47.46833" lon="6.77444">
        <ele>357</ele>
        <time>2015-11-11T08:49:08.000Z</time>
      </trkpt>
      <trkpt lat="47.46832" lon="6.77448">
        <ele>358</ele>
        <time>2015-11-11T08:49:09.000Z</time>
      </trkpt>
      <trkpt lat="47.46831" lon="6.77452">
        <ele>358</ele>
        <time>2015-11-11T08:49:10.000Z</time>
      </trkpt>
      <trkpt lat="47.4683" lon="6.77456">
        <ele>358</ele>
        <time>2015-11-11T08:49:11.000Z</time>
      </trkpt>
      <trkpt lat="47.4683" lon="6.77459">
        <ele>358</ele>
        <time>2015-11-11T08:49:12.000Z</time>
      </trkpt>
      <trkpt lat="47.46831" lon="6.77463">
        <ele>358</ele>
        <time>2015-11-11T08:49:13.000Z</time>
      </trkpt>
      <trkpt lat="47.46831" lon="6.77469">
        <ele>358</ele>
        <time>2015-11-11T08:49:15.000Z</time>
      </trkpt>
      <trkpt lat="47.46832" lon="6.77471">
        <ele>358</ele>
        <time>2015-11-11T08:49:16.000Z</time>
      </trkpt>
      <trkpt lat="47.46833" lon="6.77477">
        <ele>358</ele>
        <time>2015-11-11T08:49:19.000Z</time>
      </trkpt>
      <trkpt lat="47.46833" lon="6.7748">
        <ele>358</ele>
        <time>2015-11-11T08:49:20.000Z</time>
      </trkpt>
      <trkpt lat="47.46833" lon="6.77486">
        <ele>357</ele>
        <time>2015-11-11T08:49:22.000Z</time>
      </trkpt>
      <trkpt lat="47.46833" lon="6.77489">
        <ele>357</ele>
        <time>2015-11-11T08:49:23.000Z</time>
      </trkpt>
      <trkpt lat="47.46833" lon="6.77494">
        <ele>356</ele>
        <time>2015-11-11T08:49:26.000Z</time>
      </trkpt>
      <trkpt lat="47.46833" lon="6.77496">
        <ele>355</ele>
        <time>2015-11-11T08:49:27.000Z</time>
      </trkpt>
      <trkpt lat="47.46831" lon="6.77502">
        <ele>355</ele>
        <time>2015-11-11T08:49:30.000Z</time>
      </trkpt>
      <trkpt lat="47.4683" lon="6.77504">
        <ele>356</ele>
        <time>2015-11-11T08:49:31.000Z</time>
      </trkpt>
      <trkpt lat="47.4683" lon="6.77509">
        <ele>357</ele>
        <time>2015-11-11T08:49:35.000Z</time>
      </trkpt>
      <trkpt lat="47.4683" lon="6.77511">
        <ele>358</ele>
        <time>2015-11-11T08:49:36.000Z</time>
      </trkpt>
      <trkpt lat="47.46829" lon="6.77516">
        <ele>359</ele>
        <time>2015-11-11T08:49:38.000Z</time>
      </trkpt>
      <trkpt lat="47.46829" lon="6.77519">
        <ele>359</ele>
        <time>2015-11-11T08:49:39.000Z</time>
      </trkpt>
      <trkpt lat="47.46828" lon="6.77522">
        <ele>360</ele>
        <time>2015-11-11T08:49:40.000Z</time>
      </trkpt>
      <trkpt lat="47.46827" lon="6.77526">
        <ele>360</ele>
        <time>2015-11-11T08:49:41.000Z</time>
      </trkpt>
      <trkpt lat="47.46826" lon="6.77529">
        <ele>360</ele>
        <time>2015-11-11T08:49:42.000Z</time>
      </trkpt>
      <trkpt lat="47.46825" lon="6.77532">
        <ele>361</ele>
        <time>2015-11-11T08:49:43.000Z</time>
      </trkpt>
      <trkpt lat="47.46823" lon="6.77538">
        <ele>361</ele>
        <time>2015-11-11T08:49:45.000Z</time>
      </trkpt>
      <trkpt lat="47.46823" lon="6.77541">
        <ele>361</ele>
        <time>2015-11-11T08:49:46.000Z</time>
      </trkpt>
      <trkpt lat="47.46821" lon="6.77547">
        <ele>361</ele>
        <time>2015-11-11T08:49:48.000Z</time>
      </trkpt>
      <trkpt lat="47.4682" lon="6.7755">
        <ele>361</ele>
        <time>2015-11-11T08:49:49.000Z</time>
      </trkpt>
      <trkpt lat="47.46819" lon="6.77553">
        <ele>361</ele>
        <time>2015-11-11T08:49:50.000Z</time>
      </trkpt>
      <trkpt lat="47.46818" lon="6.77556">
        <ele>361</ele>
        <time>2015-11-11T08:49:51.000Z</time>
      </trkpt>
      <trkpt lat="47.46817" lon="6.77562">
        <ele>361</ele>
        <time>2015-11-11T08:49:53.000Z</time>
      </trkpt>
      <trkpt lat="47.46816" lon="6.77564">
        <ele>361</ele>
        <time>2015-11-11T08:49:54.000Z</time>
      </trkpt>
      <trkpt lat="47.46816" lon="6.7757">
        <ele>361</ele>
        <time>2015-11-11T08:49:56.000Z</time>
      </trkpt>
      <trkpt lat="47.46815" lon="6.77573">
        <ele>361</ele>
        <time>2015-11-11T08:49:57.000Z</time>
      </trkpt>
      <trkpt lat="47.46814" lon="6.77578">
        <ele>361</ele>
        <time>2015-11-11T08:49:59.000Z</time>
      </trkpt>
      <trkpt lat="47.46814" lon="6.77581">
        <ele>361</ele>
        <time>2015-11-11T08:50:00.000Z</time>
      </trkpt>
      <trkpt lat="47.46813" lon="6.77585">
        <ele>362</ele>
        <time>2015-11-11T08:50:02.000Z</time>
      </trkpt>
      <trkpt lat="47.46812" lon="6.77588">
        <ele>362</ele>
        <time>2015-11-11T08:50:03.000Z</time>
      </trkpt>
      <trkpt lat="47.46811" lon="6.77594">
        <ele>363</ele>
        <time>2015-11-11T08:50:05.000Z</time>
      </trkpt>
      <trkpt lat="47.46811" lon="6.77596">
        <ele>363</ele>
        <time>2015-11-11T08:50:06.000Z</time>
      </trkpt>
      <trkpt lat="47.4681" lon="6.77602">
        <ele>364</ele>
        <time>2015-11-11T08:50:08.000Z</time>
      </trkpt>
      <trkpt lat="47.46809" lon="6.77605">
        <ele>364</ele>
        <time>2015-11-11T08:50:09.000Z</time>
      </trkpt>
      <trkpt lat="47.46808" lon="6.77611">
        <ele>365</ele>
        <time>2015-11-11T08:50:11.000Z</time>
      </trkpt>
      <trkpt lat="47.46807" lon="6.77614">
        <ele>365</ele>
        <time>2015-11-11T08:50:12.000Z</time>
      </trkpt>
      <trkpt lat="47.46806" lon="6.7762">
        <ele>365</ele>
        <time>2015-11-11T08:50:14.000Z</time>
      </trkpt>
      <trkpt lat="47.46805" lon="6.77624">
        <ele>365</ele>
        <time>2015-11-11T08:50:15.000Z</time>
      </trkpt>
      <trkpt lat="47.46804" lon="6.77629">
        <ele>366</ele>
        <time>2015-11-11T08:50:16.000Z</time>
      </trkpt>
      <trkpt lat="47.46803" lon="6.77633">
        <ele>366</ele>
        <time>2015-11-11T08:50:17.000Z</time>
      </trkpt>
      <trkpt lat="47.46803" lon="6.77638">
        <ele>366</ele>
        <time>2015-11-11T08:50:18.000Z</time>
      </trkpt>
      <trkpt lat="47.46802" lon="6.77643">
        <ele>366</ele>
        <time>2015-11-11T08:50:19.000Z</time>
      </trkpt>
      <trkpt lat="47.46801" lon="6.77648">
        <ele>366</ele>
        <time>2015-11-11T08:50:20.000Z</time>
      </trkpt>
      <trkpt lat="47.468" lon="6.77654">
        <ele>366</ele>
        <time>2015-11-11T08:50:21.000Z</time>
      </trkpt>
      <trkpt lat="47.46799" lon="6.7766">
        <ele>366</ele>
        <time>2015-11-11T08:50:22.000Z</time>
      </trkpt>
      <trkpt lat="47.46798" lon="6.77666">
        <ele>366</ele>
        <time>2015-11-11T08:50:23.000Z</time>
      </trkpt>
      <trkpt lat="47.46796" lon="6.77671">
        <ele>366</ele>
        <time>2015-11-11T08:50:24.000Z</time>
      </trkpt>
      <trkpt lat="47.46794" lon="6.77677">
        <ele>366</ele>
        <time>2015-11-11T08:50:25.000Z</time>
      </trkpt>
      <trkpt lat="47.46793" lon="6.77682">
        <ele>367</ele>
        <time>2015-11-11T08:50:26.000Z</time>
      </trkpt>
      <trkpt lat="47.46792" lon="6.77686">
        <ele>367</ele>
        <time>2015-11-11T08:50:27.000Z</time>
      </trkpt>
      <trkpt lat="47.46792" lon="6.77692">
        <ele>367</ele>
        <time>2015-11-11T08:50:29.000Z</time>
      </trkpt>
      <trkpt lat="47.46792" lon="6.77696">
        <ele>367</ele>
        <time>2015-11-11T08:50:30.000Z</time>
      </trkpt>
      <trkpt lat="47.46791" lon="6.777">
        <ele>366</ele>
        <time>2015-11-11T08:50:31.000Z</time>
      </trkpt>
      <trkpt lat="47.46791" lon="6.77705">
        <ele>366</ele>
        <time>2015-11-11T08:50:32.000Z</time>
      </trkpt>
      <trkpt lat="47.4679" lon="6.7771">
        <ele>367</ele>
        <time>2015-11-11T08:50:33.000Z</time>
      </trkpt>
      <trkpt lat="47.46788" lon="6.77716">
        <ele>367</ele>
        <time>2015-11-11T08:50:34.000Z</time>
      </trkpt>
      <trkpt lat="47.46787" lon="6.77723">
        <ele>367</ele>
        <time>2015-11-11T08:50:35.000Z</time>
      </trkpt>
      <trkpt lat="47.46786" lon="6.77729">
        <ele>367</ele>
        <time>2015-11-11T08:50:36.000Z</time>
      </trkpt>
      <trkpt lat="47.46785" lon="6.77735">
        <ele>367</ele>
        <time>2015-11-11T08:50:37.000Z</time>
      </trkpt>
      <trkpt lat="47.46781" lon="6.7775">
        <ele>368</ele>
        <time>2015-11-11T08:50:38.000Z</time>
      </trkpt>
      <trkpt lat="47.46779" lon="6.77759">
        <ele>365</ele>
        <time>2015-11-11T08:50:39.000Z</time>
      </trkpt>
      <trkpt lat="47.46778" lon="6.77767">
        <ele>365</ele>
        <time>2015-11-11T08:50:40.000Z</time>
      </trkpt>
      <trkpt lat="47.46777" lon="6.77775">
        <ele>364</ele>
        <time>2015-11-11T08:50:41.000Z</time>
      </trkpt>
      <trkpt lat="47.46775" lon="6.77784">
        <ele>364</ele>
        <time>2015-11-11T08:50:42.000Z</time>
      </trkpt>
      <trkpt lat="47.46773" lon="6.77795">
        <ele>363</ele>
        <time>2015-11-11T08:50:43.000Z</time>
      </trkpt>
      <trkpt lat="47.4677" lon="6.778">
        <ele>363</ele>
        <time>2015-11-11T08:50:44.000Z</time>
      </trkpt>
      <trkpt lat="47.4677" lon="6.77804">
        <ele>363</ele>
        <time>2015-11-11T08:50:45.000Z</time>
      </trkpt>
      <trkpt lat="47.46769" lon="6.77811">
        <ele>363</ele>
        <time>2015-11-11T08:50:46.000Z</time>
      </trkpt>
      <trkpt lat="47.46767" lon="6.77825">
        <ele>364</ele>
        <time>2015-11-11T08:50:47.000Z</time>
      </trkpt>
      <trkpt lat="47.46764" lon="6.77834">
        <ele>362</ele>
        <time>2015-11-11T08:50:48.000Z</time>
      </trkpt>
      <trkpt lat="47.46762" lon="6.77843">
        <ele>362</ele>
        <time>2015-11-11T08:50:49.000Z</time>
      </trkpt>
      <trkpt lat="47.46761" lon="6.7785">
        <ele>361</ele>
        <time>2015-11-11T08:50:50.000Z</time>
      </trkpt>
      <trkpt lat="47.46758" lon="6.77857">
        <ele>360</ele>
        <time>2015-11-11T08:50:51.000Z</time>
      </trkpt>
      <trkpt lat="47.46756" lon="6.77863">
        <ele>359</ele>
        <time>2015-11-11T08:50:52.000Z</time>
      </trkpt>
      <trkpt lat="47.46753" lon="6.77868">
        <ele>359</ele>
        <time>2015-11-11T08:50:53.000Z</time>
      </trkpt>
      <trkpt lat="47.46752" lon="6.77873">
        <ele>358</ele>
        <time>2015-11-11T08:50:54.000Z</time>
      </trkpt>
      <trkpt lat="47.46748" lon="6.7788">
        <ele>373</ele>
        <time>2015-11-11T08:50:55.000Z</time>
      </trkpt>
      <trkpt lat="47.46746" lon="6.77885">
        <ele>373</ele>
        <time>2015-11-11T08:50:56.000Z</time>
      </trkpt>
      <trkpt lat="47.46744" lon="6.7789">
        <ele>372</ele>
        <time>2015-11-11T08:50:57.000Z</time>
      </trkpt>
      <trkpt lat="47.46742" lon="6.77894">
        <ele>372</ele>
        <time>2015-11-11T08:50:58.000Z</time>
      </trkpt>
      <trkpt lat="47.4674" lon="6.77898">
        <ele>371</ele>
        <time>2015-11-11T08:50:59.000Z</time>
      </trkpt>
      <trkpt lat="47.46738" lon="6.77902">
        <ele>370</ele>
        <time>2015-11-11T08:51:00.000Z</time>
      </trkpt>
      <trkpt lat="47.46737" lon="6.77905">
        <ele>370</ele>
        <time>2015-11-11T08:51:01.000Z</time>
      </trkpt>
      <trkpt lat="47.46735" lon="6.77908">
        <ele>370</ele>
        <time>2015-11-11T08:51:02.000Z</time>
      </trkpt>
      <trkpt lat="47.46733" lon="6.77912">
        <ele>370</ele>
        <time>2015-11-11T08:51:03.000Z</time>
      </trkpt>
      <trkpt lat="47.46731" lon="6.77916">
        <ele>371</ele>
        <time>2015-11-11T08:51:04.000Z</time>
      </trkpt>
      <trkpt lat="47.46729" lon="6.7792">
        <ele>367</ele>
        <time>2015-11-11T08:51:05.000Z</time>
      </trkpt>
      <trkpt lat="47.46727" lon="6.77923">
        <ele>368</ele>
        <time>2015-11-11T08:51:06.000Z</time>
      </trkpt>
      <trkpt lat="47.46725" lon="6.77927">
        <ele>368</ele>
        <time>2015-11-11T08:51:07.000Z</time>
      </trkpt>
      <trkpt lat="47.46723" lon="6.77931">
        <ele>369</ele>
        <time>2015-11-11T08:51:08.000Z</time>
      </trkpt>
      <trkpt lat="47.46723" lon="6.77938">
        <ele>369</ele>
        <time>2015-11-11T08:51:09.000Z</time>
      </trkpt>
      <trkpt lat="47.46725" lon="6.77967">
        <ele>368</ele>
        <time>2015-11-11T08:51:10.000Z</time>
      </trkpt>
      <trkpt lat="47.46725" lon="6.77975">
        <ele>367</ele>
        <time>2015-11-11T08:51:11.000Z</time>
      </trkpt>
      <trkpt lat="47.46726" lon="6.77982">
        <ele>366</ele>
        <time>2015-11-11T08:51:12.000Z</time>
      </trkpt>
      <trkpt lat="47.46725" lon="6.77993">
        <ele>365</ele>
        <time>2015-11-11T08:51:13.000Z</time>
      </trkpt>
      <trkpt lat="47.46724" lon="6.78005">
        <ele>361</ele>
        <time>2015-11-11T08:51:14.000Z</time>
      </trkpt>
      <trkpt lat="47.46723" lon="6.78012">
        <ele>361</ele>
        <time>2015-11-11T08:51:15.000Z</time>
      </trkpt>
      <trkpt lat="47.46721" lon="6.78019">
        <ele>361</ele>
        <time>2015-11-11T08:51:16.000Z</time>
      </trkpt>
      <trkpt lat="47.4672" lon="6.78025">
        <ele>362</ele>
        <time>2015-11-11T08:51:17.000Z</time>
      </trkpt>
      <trkpt lat="47.46717" lon="6.78032">
        <ele>362</ele>
        <time>2015-11-11T08:51:18.000Z</time>
      </trkpt>
      <trkpt lat="47.46715" lon="6.78036">
        <ele>362</ele>
        <time>2015-11-11T08:51:19.000Z</time>
      </trkpt>
      <trkpt lat="47.46713" lon="6.78041">
        <ele>362</ele>
        <time>2015-11-11T08:51:20.000Z</time>
      </trkpt>
      <trkpt lat="47.4671" lon="6.78047">
        <ele>362</ele>
        <time>2015-11-11T08:51:21.000Z</time>
      </trkpt>
      <trkpt lat="47.46707" lon="6.78056">
        <ele>362</ele>
        <time>2015-11-11T08:51:22.000Z</time>
      </trkpt>
      <trkpt lat="47.46703" lon="6.78059">
        <ele>362</ele>
        <time>2015-11-11T08:51:23.000Z</time>
      </trkpt>
      <trkpt lat="47.46701" lon="6.78066">
        <ele>362</ele>
        <time>2015-11-11T08:51:24.000Z</time>
      </trkpt>
      <trkpt lat="47.46697" lon="6.78073">
        <ele>362</ele>
        <time>2015-11-11T08:51:25.000Z</time>
      </trkpt>
      <trkpt lat="47.46693" lon="6.7808">
        <ele>363</ele>
        <time>2015-11-11T08:51:26.000Z</time>
      </trkpt>
      <trkpt lat="47.46689" lon="6.78088">
        <ele>361</ele>
        <time>2015-11-11T08:51:27.000Z</time>
      </trkpt>
      <trkpt lat="47.46686" lon="6.78094">
        <ele>361</ele>
        <time>2015-11-11T08:51:28.000Z</time>
      </trkpt>
      <trkpt lat="47.46683" lon="6.78098">
        <ele>361</ele>
        <time>2015-11-11T08:51:29.000Z</time>
      </trkpt>
      <trkpt lat="47.4668" lon="6.78104">
        <ele>361</ele>
        <time>2015-11-11T08:51:30.000Z</time>
      </trkpt>
      <trkpt lat="47.46677" lon="6.78109">
        <ele>361</ele>
        <time>2015-11-11T08:51:31.000Z</time>
      </trkpt>
      <trkpt lat="47.46676" lon="6.78111">
        <ele>361</ele>
        <time>2015-11-11T08:51:32.000Z</time>
      </trkpt>
      <trkpt lat="47.46674" lon="6.78113">
        <ele>360</ele>
        <time>2015-11-11T08:51:33.000Z</time>
      </trkpt>
      <trkpt lat="47.46673" lon="6.78116">
        <ele>360</ele>
        <time>2015-11-11T08:51:34.000Z</time>
      </trkpt>
      <trkpt lat="47.46671" lon="6.78119">
        <ele>360</ele>
        <time>2015-11-11T08:51:35.000Z</time>
      </trkpt>
      <trkpt lat="47.46668" lon="6.78121">
        <ele>360</ele>
        <time>2015-11-11T08:51:36.000Z</time>
      </trkpt>
      <trkpt lat="47.46665" lon="6.78124">
        <ele>367</ele>
        <time>2015-11-11T08:51:38.000Z</time>
      </trkpt>
      <trkpt lat="47.46664" lon="6.78126">
        <ele>367</ele>
        <time>2015-11-11T08:51:39.000Z</time>
      </trkpt>
      <trkpt lat="47.46662" lon="6.78129">
        <ele>367</ele>
        <time>2015-11-11T08:51:40.000Z</time>
      </trkpt>
      <trkpt lat="47.4666" lon="6.78132">
        <ele>367</ele>
        <time>2015-11-11T08:51:41.000Z</time>
      </trkpt>
      <trkpt lat="47.46659" lon="6.78135">
        <ele>367</ele>
        <time>2015-11-11T08:51:42.000Z</time>
      </trkpt>
      <trkpt lat="47.46658" lon="6.78138">
        <ele>367</ele>
        <time>2015-11-11T08:51:43.000Z</time>
      </trkpt>
      <trkpt lat="47.46655" lon="6.78143">
        <ele>366</ele>
        <time>2015-11-11T08:51:46.000Z</time>
      </trkpt>
      <trkpt lat="47.46654" lon="6.78145">
        <ele>366</ele>
        <time>2015-11-11T08:51:47.000Z</time>
      </trkpt>
      <trkpt lat="47.46652" lon="6.7815">
        <ele>365</ele>
        <time>2015-11-11T08:51:49.000Z</time>
      </trkpt>
      <trkpt lat="47.46652" lon="6.78153">
        <ele>365</ele>
        <time>2015-11-11T08:51:50.000Z</time>
      </trkpt>
      <trkpt lat="47.4665" lon="6.78158">
        <ele>365</ele>
        <time>2015-11-11T08:51:52.000Z</time>
      </trkpt>
      <trkpt lat="47.46649" lon="6.78161">
        <ele>364</ele>
        <time>2015-11-11T08:51:53.000Z</time>
      </trkpt>
      <trkpt lat="47.46649" lon="6.78165">
        <ele>364</ele>
        <time>2015-11-11T08:51:54.000Z</time>
      </trkpt>
      <trkpt lat="47.46648" lon="6.78169">
        <ele>362</ele>
        <time>2015-11-11T08:51:55.000Z</time>
      </trkpt>
      <trkpt lat="47.46648" lon="6.78175">
        <ele>362</ele>
        <time>2015-11-11T08:51:57.000Z</time>
      </trkpt>
      <trkpt lat="47.46647" lon="6.78178">
        <ele>363</ele>
        <time>2015-11-11T08:51:58.000Z</time>
      </trkpt>
      <trkpt lat="47.46647" lon="6.78183">
        <ele>363</ele>
        <time>2015-11-11T08:51:59.000Z</time>
      </trkpt>
      <trkpt lat="47.46647" lon="6.78186">
        <ele>363</ele>
        <time>2015-11-11T08:52:00.000Z</time>
      </trkpt>
      <trkpt lat="47.46646" lon="6.7819">
        <ele>363</ele>
        <time>2015-11-11T08:52:01.000Z</time>
      </trkpt>
      <trkpt lat="47.46646" lon="6.78193">
        <ele>364</ele>
        <time>2015-11-11T08:52:02.000Z</time>
      </trkpt>
      <trkpt lat="47.46645" lon="6.78199">
        <ele>364</ele>
        <time>2015-11-11T08:52:04.000Z</time>
      </trkpt>
      <trkpt lat="47.46645" lon="6.78202">
        <ele>364</ele>
        <time>2015-11-11T08:52:05.000Z</time>
      </trkpt>
      <trkpt lat="47.46645" lon="6.78205">
        <ele>364</ele>
        <time>2015-11-11T08:52:06.000Z</time>
      </trkpt>
      <trkpt lat="47.46645" lon="6.78209">
        <ele>364</ele>
        <time>2015-11-11T08:52:07.000Z</time>
      </trkpt>
      <trkpt lat="47.46645" lon="6.78211">
        <ele>364</ele>
        <time>2015-11-11T08:52:08.000Z</time>
      </trkpt>
      <trkpt lat="47.46644" lon="6.78217">
        <ele>364</ele>
        <time>2015-11-11T08:52:09.000Z</time>
      </trkpt>
      <trkpt lat="47.46642" lon="6.78221">
        <ele>364</ele>
        <time>2015-11-11T08:52:10.000Z</time>
      </trkpt>
      <trkpt lat="47.46641" lon="6.78226">
        <ele>364</ele>
        <time>2015-11-11T08:52:11.000Z</time>
      </trkpt>
      <trkpt lat="47.4664" lon="6.78229">
        <ele>364</ele>
        <time>2015-11-11T08:52:12.000Z</time>
      </trkpt>
      <trkpt lat="47.46639" lon="6.78232">
        <ele>364</ele>
        <time>2015-11-11T08:52:13.000Z</time>
      </trkpt>
      <trkpt lat="47.46638" lon="6.78235">
        <ele>365</ele>
        <time>2015-11-11T08:52:14.000Z</time>
      </trkpt>
      <trkpt lat="47.46636" lon="6.78238">
        <ele>365</ele>
        <time>2015-11-11T08:52:15.000Z</time>
      </trkpt>
      <trkpt lat="47.46633" lon="6.78242">
        <ele>365</ele>
        <time>2015-11-11T08:52:17.000Z</time>
      </trkpt>
      <trkpt lat="47.46632" lon="6.78244">
        <ele>365</ele>
        <time>2015-11-11T08:52:18.000Z</time>
      </trkpt>
      <trkpt lat="47.46628" lon="6.78246">
        <ele>365</ele>
        <time>2015-11-11T08:52:20.000Z</time>
      </trkpt>
      <trkpt lat="47.46626" lon="6.78246">
        <ele>365</ele>
        <time>2015-11-11T08:52:21.000Z</time>
      </trkpt>
      <trkpt lat="47.46623" lon="6.78247">
        <ele>365</ele>
        <time>2015-11-11T08:52:22.000Z</time>
      </trkpt>
      <trkpt lat="47.46621" lon="6.78247">
        <ele>366</ele>
        <time>2015-11-11T08:52:23.000Z</time>
      </trkpt>
      <trkpt lat="47.46618" lon="6.78247">
        <ele>366</ele>
        <time>2015-11-11T08:52:24.000Z</time>
      </trkpt>
      <trkpt lat="47.46616" lon="6.78247">
        <ele>366</ele>
        <time>2015-11-11T08:52:25.000Z</time>
      </trkpt>
      <trkpt lat="47.46612" lon="6.78249">
        <ele>366</ele>
        <time>2015-11-11T08:52:27.000Z</time>
      </trkpt>
      <trkpt lat="47.4661" lon="6.7825">
        <ele>370</ele>
        <time>2015-11-11T08:52:28.000Z</time>
      </trkpt>
      <trkpt lat="47.46606" lon="6.78252">
        <ele>370</ele>
        <time>2015-11-11T08:52:30.000Z</time>
      </trkpt>
      <trkpt lat="47.46604" lon="6.78252">
        <ele>370</ele>
        <time>2015-11-11T08:52:31.000Z</time>
      </trkpt>
      <trkpt lat="47.466" lon="6.78251">
        <ele>370</ele>
        <time>2015-11-11T08:52:33.000Z</time>
      </trkpt>
      <trkpt lat="47.46598" lon="6.7825">
        <ele>370</ele>
        <time>2015-11-11T08:52:34.000Z</time>
      </trkpt>
      <trkpt lat="47.46594" lon="6.7825">
        <ele>368</ele>
        <time>2015-11-11T08:52:36.000Z</time>
      </trkpt>
      <trkpt lat="47.46592" lon="6.7825">
        <ele>370</ele>
        <time>2015-11-11T08:52:37.000Z</time>
      </trkpt>
      <trkpt lat="47.46588" lon="6.78251">
        <ele>369</ele>
        <time>2015-11-11T08:52:39.000Z</time>
      </trkpt>
      <trkpt lat="47.46586" lon="6.78252">
        <ele>369</ele>
        <time>2015-11-11T08:52:40.000Z</time>
      </trkpt>
      <trkpt lat="47.46582" lon="6.78254">
        <ele>370</ele>
        <time>2015-11-11T08:52:42.000Z</time>
      </trkpt>
      <trkpt lat="47.46579" lon="6.78254">
        <ele>371</ele>
        <time>2015-11-11T08:52:43.000Z</time>
      </trkpt>
      <trkpt lat="47.46576" lon="6.78254">
        <ele>372</ele>
        <time>2015-11-11T08:52:44.000Z</time>
      </trkpt>
      <trkpt lat="47.46574" lon="6.78255">
        <ele>372</ele>
        <time>2015-11-11T08:52:45.000Z</time>
      </trkpt>
      <trkpt lat="47.46571" lon="6.78255">
        <ele>373</ele>
        <time>2015-11-11T08:52:46.000Z</time>
      </trkpt>
      <trkpt lat="47.46569" lon="6.78256">
        <ele>373</ele>
        <time>2015-11-11T08:52:47.000Z</time>
      </trkpt>
      <trkpt lat="47.46566" lon="6.78256">
        <ele>374</ele>
        <time>2015-11-11T08:52:48.000Z</time>
      </trkpt>
      <trkpt lat="47.46563" lon="6.78256">
        <ele>374</ele>
        <time>2015-11-11T08:52:49.000Z</time>
      </trkpt>
      <trkpt lat="47.46561" lon="6.78257">
        <ele>375</ele>
        <time>2015-11-11T08:52:50.000Z</time>
      </trkpt>
      <trkpt lat="47.46558" lon="6.78259">
        <ele>375</ele>
        <time>2015-11-11T08:52:51.000Z</time>
      </trkpt>
      <trkpt lat="47.46555" lon="6.78259">
        <ele>375</ele>
        <time>2015-11-11T08:52:52.000Z</time>
      </trkpt>
      <trkpt lat="47.46552" lon="6.7826">
        <ele>376</ele>
        <time>2015-11-11T08:52:53.000Z</time>
      </trkpt>
      <trkpt lat="47.46549" lon="6.78261">
        <ele>376</ele>
        <time>2015-11-11T08:52:54.000Z</time>
      </trkpt>
      <trkpt lat="47.46546" lon="6.78261">
        <ele>376</ele>
        <time>2015-11-11T08:52:55.000Z</time>
      </trkpt>
      <trkpt lat="47.46542" lon="6.78261">
        <ele>377</ele>
        <time>2015-11-11T08:52:56.000Z</time>
      </trkpt>
      <trkpt lat="47.46539" lon="6.78261">
        <ele>377</ele>
        <time>2015-11-11T08:52:57.000Z</time>
      </trkpt>
      <trkpt lat="47.46536" lon="6.78261">
        <ele>377</ele>
        <time>2015-11-11T08:52:58.000Z</time>
      </trkpt>
      <trkpt lat="47.46532" lon="6.78261">
        <ele>377</ele>
        <time>2015-11-11T08:52:59.000Z</time>
      </trkpt>
      <trkpt lat="47.4653" lon="6.78261">
        <ele>377</ele>
        <time>2015-11-11T08:53:00.000Z</time>
      </trkpt>
      <trkpt lat="47.46527" lon="6.78261">
        <ele>377</ele>
        <time>2015-11-11T08:53:01.000Z</time>
      </trkpt>
      <trkpt lat="47.46524" lon="6.78261">
        <ele>377</ele>
        <time>2015-11-11T08:53:02.000Z</time>
      </trkpt>
      <trkpt lat="47.46521" lon="6.78261">
        <ele>377</ele>
        <time>2015-11-11T08:53:03.000Z</time>
      </trkpt>
      <trkpt lat="47.46518" lon="6.78261">
        <ele>378</ele>
        <time>2015-11-11T08:53:04.000Z</time>
      </trkpt>
      <trkpt lat="47.46516" lon="6.78261">
        <ele>378</ele>
        <time>2015-11-11T08:53:05.000Z</time>
      </trkpt>
      <trkpt lat="47.46513" lon="6.78261">
        <ele>378</ele>
        <time>2015-11-11T08:53:06.000Z</time>
      </trkpt>
      <trkpt lat="47.46511" lon="6.7826">
        <ele>378</ele>
        <time>2015-11-11T08:53:07.000Z</time>
      </trkpt>
      <trkpt lat="47.46508" lon="6.78259">
        <ele>377</ele>
        <time>2015-11-11T08:53:08.000Z</time>
      </trkpt>
      <trkpt lat="47.46505" lon="6.78259">
        <ele>377</ele>
        <time>2015-11-11T08:53:09.000Z</time>
      </trkpt>
      <trkpt lat="47.46502" lon="6.78258">
        <ele>377</ele>
        <time>2015-11-11T08:53:10.000Z</time>
      </trkpt>
      <trkpt lat="47.465" lon="6.78258">
        <ele>379</ele>
        <time>2015-11-11T08:53:10.999Z</time>
      </trkpt>
      <trkpt lat="47.46497" lon="6.7826">
        <ele>379</ele>
        <time>2015-11-11T08:53:12.000Z</time>
      </trkpt>
      <trkpt lat="47.46495" lon="6.78262">
        <ele>379</ele>
        <time>2015-11-11T08:53:13.000Z</time>
      </trkpt>
      <trkpt lat="47.46493" lon="6.78264">
        <ele>380</ele>
        <time>2015-11-11T08:53:14.000Z</time>
      </trkpt>
      <trkpt lat="47.46491" lon="6.78267">
        <ele>380</ele>
        <time>2015-11-11T08:53:15.000Z</time>
      </trkpt>
      <trkpt lat="47.4649" lon="6.7827">
        <ele>381</ele>
        <time>2015-11-11T08:53:16.000Z</time>
      </trkpt>
      <trkpt lat="47.46488" lon="6.78272">
        <ele>381</ele>
        <time>2015-11-11T08:53:17.000Z</time>
      </trkpt>
      <trkpt lat="47.46486" lon="6.78277">
        <ele>382</ele>
        <time>2015-11-11T08:53:19.000Z</time>
      </trkpt>
      <trkpt lat="47.46484" lon="6.78278">
        <ele>382</ele>
        <time>2015-11-11T08:53:20.000Z</time>
      </trkpt>
      <trkpt lat="47.4648" lon="6.78277">
        <ele>382</ele>
        <time>2015-11-11T08:53:22.000Z</time>
      </trkpt>
      <trkpt lat="47.46477" lon="6.78276">
        <ele>382</ele>
        <time>2015-11-11T08:53:23.000Z</time>
      </trkpt>
      <trkpt lat="47.46475" lon="6.78275">
        <ele>382</ele>
        <time>2015-11-11T08:53:24.000Z</time>
      </trkpt>
      <trkpt lat="47.46473" lon="6.78275">
        <ele>382</ele>
        <time>2015-11-11T08:53:25.000Z</time>
      </trkpt>
      <trkpt lat="47.46469" lon="6.78275">
        <ele>382</ele>
        <time>2015-11-11T08:53:27.000Z</time>
      </trkpt>
      <trkpt lat="47.46467" lon="6.78274">
        <ele>382</ele>
        <time>2015-11-11T08:53:28.000Z</time>
      </trkpt>
      <trkpt lat="47.46465" lon="6.78271">
        <ele>382</ele>
        <time>2015-11-11T08:53:29.000Z</time>
      </trkpt>
      <trkpt lat="47.46462" lon="6.78268">
        <ele>382</ele>
        <time>2015-11-11T08:53:30.000Z</time>
      </trkpt>
      <trkpt lat="47.46458" lon="6.78264">
        <ele>382</ele>
        <time>2015-11-11T08:53:31.000Z</time>
      </trkpt>
      <trkpt lat="47.46456" lon="6.78262">
        <ele>382</ele>
        <time>2015-11-11T08:53:32.000Z</time>
      </trkpt>
      <trkpt lat="47.46453" lon="6.78261">
        <ele>382</ele>
        <time>2015-11-11T08:53:33.000Z</time>
      </trkpt>
      <trkpt lat="47.4645" lon="6.7826">
        <ele>382</ele>
        <time>2015-11-11T08:53:34.000Z</time>
      </trkpt>
      <trkpt lat="47.46448" lon="6.7826">
        <ele>382</ele>
        <time>2015-11-11T08:53:35.000Z</time>
      </trkpt>
      <trkpt lat="47.46445" lon="6.78261">
        <ele>382</ele>
        <time>2015-11-11T08:53:36.000Z</time>
      </trkpt>
      <trkpt lat="47.46441" lon="6.78259">
        <ele>382</ele>
        <time>2015-11-11T08:53:38.000Z</time>
      </trkpt>
      <trkpt lat="47.46439" lon="6.78258">
        <ele>382</ele>
        <time>2015-11-11T08:53:39.000Z</time>
      </trkpt>
      <trkpt lat="47.46437" lon="6.78257">
        <ele>381</ele>
        <time>2015-11-11T08:53:40.000Z</time>
      </trkpt>
      <trkpt lat="47.46435" lon="6.78256">
        <ele>381</ele>
        <time>2015-11-11T08:53:41.000Z</time>
      </trkpt>
      <trkpt lat="47.46432" lon="6.78256">
        <ele>381</ele>
        <time>2015-11-11T08:53:42.000Z</time>
      </trkpt>
      <trkpt lat="47.4643" lon="6.78256">
        <ele>381</ele>
        <time>2015-11-11T08:53:43.000Z</time>
      </trkpt>
      <trkpt lat="47.46427" lon="6.78256">
        <ele>381</ele>
        <time>2015-11-11T08:53:44.000Z</time>
      </trkpt>
      <trkpt lat="47.46424" lon="6.78257">
        <ele>381</ele>
        <time>2015-11-11T08:53:45.000Z</time>
      </trkpt>
      <trkpt lat="47.46421" lon="6.78257">
        <ele>381</ele>
        <time>2015-11-11T08:53:46.000Z</time>
      </trkpt>
      <trkpt lat="47.46418" lon="6.78256">
        <ele>381</ele>
        <time>2015-11-11T08:53:47.000Z</time>
      </trkpt>
      <trkpt lat="47.46416" lon="6.78257">
        <ele>382</ele>
        <time>2015-11-11T08:53:48.000Z</time>
      </trkpt>
      <trkpt lat="47.46414" lon="6.78258">
        <ele>382</ele>
        <time>2015-11-11T08:53:49.000Z</time>
      </trkpt>
      <trkpt lat="47.46412" lon="6.78261">
        <ele>383</ele>
        <time>2015-11-11T08:53:50.000Z</time>
      </trkpt>
      <trkpt lat="47.4641" lon="6.78263">
        <ele>383</ele>
        <time>2015-11-11T08:53:51.000Z</time>
      </trkpt>
      <trkpt lat="47.46408" lon="6.78266">
        <ele>384</ele>
        <time>2015-11-11T08:53:52.000Z</time>
      </trkpt>
      <trkpt lat="47.46406" lon="6.78268">
        <ele>384</ele>
        <time>2015-11-11T08:53:53.000Z</time>
      </trkpt>
      <trkpt lat="47.46403" lon="6.78268">
        <ele>384</ele>
        <time>2015-11-11T08:53:54.000Z</time>
      </trkpt>
      <trkpt lat="47.46399" lon="6.78267">
        <ele>385</ele>
        <time>2015-11-11T08:53:55.000Z</time>
      </trkpt>
      <trkpt lat="47.46396" lon="6.78266">
        <ele>385</ele>
        <time>2015-11-11T08:53:56.000Z</time>
      </trkpt>
      <trkpt lat="47.46392" lon="6.78265">
        <ele>385</ele>
        <time>2015-11-11T08:53:57.000Z</time>
      </trkpt>
      <trkpt lat="47.46389" lon="6.78265">
        <ele>385</ele>
        <time>2015-11-11T08:53:58.000Z</time>
      </trkpt>
      <trkpt lat="47.46385" lon="6.78265">
        <ele>386</ele>
        <time>2015-11-11T08:53:59.000Z</time>
      </trkpt>
      <trkpt lat="47.46383" lon="6.78266">
        <ele>386</ele>
        <time>2015-11-11T08:54:00.000Z</time>
      </trkpt>
      <trkpt lat="47.4638" lon="6.78262">
        <ele>386</ele>
        <time>2015-11-11T08:54:01.000Z</time>
      </trkpt>
      <trkpt lat="47.46377" lon="6.78259">
        <ele>386</ele>
        <time>2015-11-11T08:54:02.000Z</time>
      </trkpt>
      <trkpt lat="47.46374" lon="6.78256">
        <ele>386</ele>
        <time>2015-11-11T08:54:03.000Z</time>
      </trkpt>
      <trkpt lat="47.46371" lon="6.78254">
        <ele>386</ele>
        <time>2015-11-11T08:54:04.000Z</time>
      </trkpt>
      <trkpt lat="47.46368" lon="6.78253">
        <ele>386</ele>
        <time>2015-11-11T08:54:05.000Z</time>
      </trkpt>
      <trkpt lat="47.46366" lon="6.78253">
        <ele>387</ele>
        <time>2015-11-11T08:54:06.000Z</time>
      </trkpt>
      <trkpt lat="47.46363" lon="6.78253">
        <ele>387</ele>
        <time>2015-11-11T08:54:07.000Z</time>
      </trkpt>
      <trkpt lat="47.4636" lon="6.78254">
        <ele>387</ele>
        <time>2015-11-11T08:54:08.000Z</time>
      </trkpt>
      <trkpt lat="47.46357" lon="6.7826">
        <ele>387</ele>
        <time>2015-11-11T08:54:09.000Z</time>
      </trkpt>
      <trkpt lat="47.46354" lon="6.78263">
        <ele>387</ele>
        <time>2015-11-11T08:54:10.000Z</time>
      </trkpt>
      <trkpt lat="47.46351" lon="6.78262">
        <ele>387</ele>
        <time>2015-11-11T08:54:11.000Z</time>
      </trkpt>
      <trkpt lat="47.46349" lon="6.78262">
        <ele>387</ele>
        <time>2015-11-11T08:54:12.000Z</time>
      </trkpt>
      <trkpt lat="47.46346" lon="6.78261">
        <ele>388</ele>
        <time>2015-11-11T08:54:13.000Z</time>
      </trkpt>
      <trkpt lat="47.46343" lon="6.78261">
        <ele>388</ele>
        <time>2015-11-11T08:54:14.000Z</time>
      </trkpt>
      <trkpt lat="47.46339" lon="6.78262">
        <ele>388</ele>
        <time>2015-11-11T08:54:15.000Z</time>
      </trkpt>
      <trkpt lat="47.46337" lon="6.78262">
        <ele>388</ele>
        <time>2015-11-11T08:54:15.999Z</time>
      </trkpt>
      <trkpt lat="47.46332" lon="6.78264">
        <ele>391</ele>
        <time>2015-11-11T08:54:17.000Z</time>
      </trkpt>
      <trkpt lat="47.46329" lon="6.78267">
        <ele>392</ele>
        <time>2015-11-11T08:54:18.000Z</time>
      </trkpt>
      <trkpt lat="47.46326" lon="6.7827">
        <ele>393</ele>
        <time>2015-11-11T08:54:19.000Z</time>
      </trkpt>
      <trkpt lat="47.46323" lon="6.78272">
        <ele>393</ele>
        <time>2015-11-11T08:54:20.000Z</time>
      </trkpt>
      <trkpt lat="47.4632" lon="6.78273">
        <ele>393</ele>
        <time>2015-11-11T08:54:21.000Z</time>
      </trkpt>
      <trkpt lat="47.46317" lon="6.78275">
        <ele>394</ele>
        <time>2015-11-11T08:54:22.000Z</time>
      </trkpt>
      <trkpt lat="47.46314" lon="6.78274">
        <ele>394</ele>
        <time>2015-11-11T08:54:23.000Z</time>
      </trkpt>
      <trkpt lat="47.46311" lon="6.78273">
        <ele>394</ele>
        <time>2015-11-11T08:54:24.000Z</time>
      </trkpt>
      <trkpt lat="47.46307" lon="6.78273">
        <ele>394</ele>
        <time>2015-11-11T08:54:25.000Z</time>
      </trkpt>
      <trkpt lat="47.46303" lon="6.78272">
        <ele>395</ele>
        <time>2015-11-11T08:54:26.000Z</time>
      </trkpt>
      <trkpt lat="47.463" lon="6.78272">
        <ele>395</ele>
        <time>2015-11-11T08:54:27.000Z</time>
      </trkpt>
      <trkpt lat="47.46297" lon="6.78272">
        <ele>395</ele>
        <time>2015-11-11T08:54:28.000Z</time>
      </trkpt>
      <trkpt lat="47.46293" lon="6.78271">
        <ele>396</ele>
        <time>2015-11-11T08:54:29.000Z</time>
      </trkpt>
      <trkpt lat="47.46289" lon="6.78271">
        <ele>396</ele>
        <time>2015-11-11T08:54:30.000Z</time>
      </trkpt>
      <trkpt lat="47.46286" lon="6.78271">
        <ele>396</ele>
        <time>2015-11-11T08:54:31.000Z</time>
      </trkpt>
      <trkpt lat="47.46282" lon="6.78272">
        <ele>396</ele>
        <time>2015-11-11T08:54:32.000Z</time>
      </trkpt>
      <trkpt lat="47.46278" lon="6.78274">
        <ele>397</ele>
        <time>2015-11-11T08:54:33.000Z</time>
      </trkpt>
      <trkpt lat="47.46275" lon="6.78276">
        <ele>397</ele>
        <time>2015-11-11T08:54:34.000Z</time>
      </trkpt>
      <trkpt lat="47.46271" lon="6.78278">
        <ele>397</ele>
        <time>2015-11-11T08:54:35.000Z</time>
      </trkpt>
      <trkpt lat="47.46267" lon="6.78281">
        <ele>397</ele>
        <time>2015-11-11T08:54:36.000Z</time>
      </trkpt>
      <trkpt lat="47.46263" lon="6.78284">
        <ele>398</ele>
        <time>2015-11-11T08:54:37.000Z</time>
      </trkpt>
      <trkpt lat="47.4626" lon="6.78287">
        <ele>398</ele>
        <time>2015-11-11T08:54:38.000Z</time>
      </trkpt>
      <trkpt lat="47.46256" lon="6.78289">
        <ele>398</ele>
        <time>2015-11-11T08:54:39.000Z</time>
      </trkpt>
      <trkpt lat="47.46252" lon="6.78291">
        <ele>398</ele>
        <time>2015-11-11T08:54:40.000Z</time>
      </trkpt>
      <trkpt lat="47.46249" lon="6.78292">
        <ele>404</ele>
        <time>2015-11-11T08:54:41.000Z</time>
      </trkpt>
      <trkpt lat="47.46246" lon="6.78293">
        <ele>404</ele>
        <time>2015-11-11T08:54:42.000Z</time>
      </trkpt>
      <trkpt lat="47.46243" lon="6.78294">
        <ele>404</ele>
        <time>2015-11-11T08:54:43.000Z</time>
      </trkpt>
      <trkpt lat="47.4624" lon="6.78294">
        <ele>404</ele>
        <time>2015-11-11T08:54:44.000Z</time>
      </trkpt>
      <trkpt lat="47.46237" lon="6.78295">
        <ele>404</ele>
        <time>2015-11-11T08:54:45.000Z</time>
      </trkpt>
      <trkpt lat="47.46234" lon="6.78295">
        <ele>404</ele>
        <time>2015-11-11T08:54:46.001Z</time>
      </trkpt>
      <trkpt lat="47.46231" lon="6.78293">
        <ele>404</ele>
        <time>2015-11-11T08:54:47.000Z</time>
      </trkpt>
      <trkpt lat="47.46229" lon="6.78293">
        <ele>405</ele>
        <time>2015-11-11T08:54:48.000Z</time>
      </trkpt>
      <trkpt lat="47.46226" lon="6.78291">
        <ele>405</ele>
        <time>2015-11-11T08:54:49.000Z</time>
      </trkpt>
      <trkpt lat="47.46224" lon="6.7829">
        <ele>405</ele>
        <time>2015-11-11T08:54:50.000Z</time>
      </trkpt>
      <trkpt lat="47.46221" lon="6.7829">
        <ele>405</ele>
        <time>2015-11-11T08:54:51.000Z</time>
      </trkpt>
      <trkpt lat="47.46218" lon="6.78289">
        <ele>405</ele>
        <time>2015-11-11T08:54:52.000Z</time>
      </trkpt>
      <trkpt lat="47.46215" lon="6.7829">
        <ele>405</ele>
        <time>2015-11-11T08:54:53.000Z</time>
      </trkpt>
      <trkpt lat="47.46213" lon="6.7829">
        <ele>405</ele>
        <time>2015-11-11T08:54:53.999Z</time>
      </trkpt>
      <trkpt lat="47.46209" lon="6.78291">
        <ele>405</ele>
        <time>2015-11-11T08:54:55.000Z</time>
      </trkpt>
      <trkpt lat="47.46206" lon="6.78292">
        <ele>406</ele>
        <time>2015-11-11T08:54:56.000Z</time>
      </trkpt>
      <trkpt lat="47.46203" lon="6.78293">
        <ele>406</ele>
        <time>2015-11-11T08:54:57.000Z</time>
      </trkpt>
      <trkpt lat="47.462" lon="6.78294">
        <ele>406</ele>
        <time>2015-11-11T08:54:58.000Z</time>
      </trkpt>
      <trkpt lat="47.46197" lon="6.78295">
        <ele>406</ele>
        <time>2015-11-11T08:54:59.000Z</time>
      </trkpt>
      <trkpt lat="47.46195" lon="6.78295">
        <ele>406</ele>
        <time>2015-11-11T08:55:00.000Z</time>
      </trkpt>
      <trkpt lat="47.46192" lon="6.78294">
        <ele>406</ele>
        <time>2015-11-11T08:55:01.000Z</time>
      </trkpt>
      <trkpt lat="47.46189" lon="6.78293">
        <ele>406</ele>
        <time>2015-11-11T08:55:02.000Z</time>
      </trkpt>
      <trkpt lat="47.46187" lon="6.78293">
        <ele>406</ele>
        <time>2015-11-11T08:55:03.000Z</time>
      </trkpt>
      <trkpt lat="47.46184" lon="6.78293">
        <ele>407</ele>
        <time>2015-11-11T08:55:04.000Z</time>
      </trkpt>
      <trkpt lat="47.46182" lon="6.78293">
        <ele>407</ele>
        <time>2015-11-11T08:55:05.000Z</time>
      </trkpt>
      <trkpt lat="47.46179" lon="6.78293">
        <ele>407</ele>
        <time>2015-11-11T08:55:06.000Z</time>
      </trkpt>
      <trkpt lat="47.46177" lon="6.78292">
        <ele>407</ele>
        <time>2015-11-11T08:55:06.999Z</time>
      </trkpt>
      <trkpt lat="47.46173" lon="6.78293">
        <ele>407</ele>
        <time>2015-11-11T08:55:08.000Z</time>
      </trkpt>
      <trkpt lat="47.4617" lon="6.78294">
        <ele>407</ele>
        <time>2015-11-11T08:55:09.000Z</time>
      </trkpt>
      <trkpt lat="47.46167" lon="6.78295">
        <ele>407</ele>
        <time>2015-11-11T08:55:10.000Z</time>
      </trkpt>
      <trkpt lat="47.46164" lon="6.78295">
        <ele>410</ele>
        <time>2015-11-11T08:55:11.000Z</time>
      </trkpt>
      <trkpt lat="47.46161" lon="6.78296">
        <ele>410</ele>
        <time>2015-11-11T08:55:12.000Z</time>
      </trkpt>
      <trkpt lat="47.46158" lon="6.78296">
        <ele>410</ele>
        <time>2015-11-11T08:55:13.000Z</time>
      </trkpt>
      <trkpt lat="47.46153" lon="6.78297">
        <ele>410</ele>
        <time>2015-11-11T08:55:14.000Z</time>
      </trkpt>
      <trkpt lat="47.4615" lon="6.78298">
        <ele>410</ele>
        <time>2015-11-11T08:55:15.000Z</time>
      </trkpt>
      <trkpt lat="47.46146" lon="6.78299">
        <ele>410</ele>
        <time>2015-11-11T08:55:16.000Z</time>
      </trkpt>
      <trkpt lat="47.46143" lon="6.78301">
        <ele>410</ele>
        <time>2015-11-11T08:55:17.000Z</time>
      </trkpt>
      <trkpt lat="47.46141" lon="6.78302">
        <ele>410</ele>
        <time>2015-11-11T08:55:18.000Z</time>
      </trkpt>
      <trkpt lat="47.46138" lon="6.78304">
        <ele>410</ele>
        <time>2015-11-11T08:55:18.999Z</time>
      </trkpt>
      <trkpt lat="47.46134" lon="6.78306">
        <ele>410</ele>
        <time>2015-11-11T08:55:20.000Z</time>
      </trkpt>
      <trkpt lat="47.46131" lon="6.78307">
        <ele>410</ele>
        <time>2015-11-11T08:55:21.000Z</time>
      </trkpt>
      <trkpt lat="47.46127" lon="6.78308">
        <ele>410</ele>
        <time>2015-11-11T08:55:22.000Z</time>
      </trkpt>
      <trkpt lat="47.46124" lon="6.78309">
        <ele>410</ele>
        <time>2015-11-11T08:55:23.000Z</time>
      </trkpt>
      <trkpt lat="47.4612" lon="6.78311">
        <ele>410</ele>
        <time>2015-11-11T08:55:24.000Z</time>
      </trkpt>
      <trkpt lat="47.46116" lon="6.78312">
        <ele>410</ele>
        <time>2015-11-11T08:55:25.000Z</time>
      </trkpt>
      <trkpt lat="47.46111" lon="6.78313">
        <ele>410</ele>
        <time>2015-11-11T08:55:26.000Z</time>
      </trkpt>
      <trkpt lat="47.46107" lon="6.78315">
        <ele>410</ele>
        <time>2015-11-11T08:55:27.000Z</time>
      </trkpt>
      <trkpt lat="47.46103" lon="6.78316">
        <ele>410</ele>
        <time>2015-11-11T08:55:27.999Z</time>
      </trkpt>
      <trkpt lat="47.46091" lon="6.78317">
        <ele>409</ele>
        <time>2015-11-11T08:55:29.000Z</time>
      </trkpt>
      <trkpt lat="47.46087" lon="6.78318">
        <ele>409</ele>
        <time>2015-11-11T08:55:30.000Z</time>
      </trkpt>
      <trkpt lat="47.46079" lon="6.78326">
        <ele>408</ele>
        <time>2015-11-11T08:55:31.000Z</time>
      </trkpt>
      <trkpt lat="47.46074" lon="6.78331">
        <ele>408</ele>
        <time>2015-11-11T08:55:32.000Z</time>
      </trkpt>
      <trkpt lat="47.46068" lon="6.78335">
        <ele>407</ele>
        <time>2015-11-11T08:55:33.000Z</time>
      </trkpt>
      <trkpt lat="47.46063" lon="6.7834">
        <ele>406</ele>
        <time>2015-11-11T08:55:33.999Z</time>
      </trkpt>
      <trkpt lat="47.46059" lon="6.7834">
        <ele>406</ele>
        <time>2015-11-11T08:55:35.000Z</time>
      </trkpt>
      <trkpt lat="47.46056" lon="6.7834">
        <ele>406</ele>
        <time>2015-11-11T08:55:36.000Z</time>
      </trkpt>
      <trkpt lat="47.46053" lon="6.78342">
        <ele>406</ele>
        <time>2015-11-11T08:55:36.999Z</time>
      </trkpt>
      <trkpt lat="47.46045" lon="6.78343">
        <ele>405</ele>
        <time>2015-11-11T08:55:38.000Z</time>
      </trkpt>
      <trkpt lat="47.46038" lon="6.78348">
        <ele>405</ele>
        <time>2015-11-11T08:55:39.000Z</time>
      </trkpt>
      <trkpt lat="47.46033" lon="6.78348">
        <ele>405</ele>
        <time>2015-11-11T08:55:40.000Z</time>
      </trkpt>
      <trkpt lat="47.46029" lon="6.78349">
        <ele>404</ele>
        <time>2015-11-11T08:55:41.001Z</time>
      </trkpt>
      <trkpt lat="47.46021" lon="6.78353">
        <ele>404</ele>
        <time>2015-11-11T08:55:42.000Z</time>
      </trkpt>
      <trkpt lat="47.46013" lon="6.78362">
        <ele>404</ele>
        <time>2015-11-11T08:55:43.000Z</time>
      </trkpt>
      <trkpt lat="47.46007" lon="6.78373">
        <ele>404</ele>
        <time>2015-11-11T08:55:44.000Z</time>
      </trkpt>
      <trkpt lat="47.46001" lon="6.78377">
        <ele>404</ele>
        <time>2015-11-11T08:55:45.000Z</time>
      </trkpt>
      <trkpt lat="47.45995" lon="6.78383">
        <ele>397</ele>
        <time>2015-11-11T08:55:46.000Z</time>
      </trkpt>
      <trkpt lat="47.4599" lon="6.78387">
        <ele>397</ele>
        <time>2015-11-11T08:55:47.000Z</time>
      </trkpt>
      <trkpt lat="47.45983" lon="6.78394">
        <ele>397</ele>
        <time>2015-11-11T08:55:48.000Z</time>
      </trkpt>
      <trkpt lat="47.45972" lon="6.78402">
        <ele>396</ele>
        <time>2015-11-11T08:55:49.000Z</time>
      </trkpt>
      <trkpt lat="47.45965" lon="6.78407">
        <ele>396</ele>
        <time>2015-11-11T08:55:50.000Z</time>
      </trkpt>
      <trkpt lat="47.45959" lon="6.78413">
        <ele>395</ele>
        <time>2015-11-11T08:55:51.000Z</time>
      </trkpt>
      <trkpt lat="47.45952" lon="6.7842">
        <ele>393</ele>
        <time>2015-11-11T08:55:52.000Z</time>
      </trkpt>
      <trkpt lat="47.45948" lon="6.78427">
        <ele>392</ele>
        <time>2015-11-11T08:55:53.000Z</time>
      </trkpt>
      <trkpt lat="47.45944" lon="6.78437">
        <ele>392</ele>
        <time>2015-11-11T08:55:54.000Z</time>
      </trkpt>
      <trkpt lat="47.45942" lon="6.78452">
        <ele>391</ele>
        <time>2015-11-11T08:55:55.000Z</time>
      </trkpt>
      <trkpt lat="47.4594" lon="6.78466">
        <ele>391</ele>
        <time>2015-11-11T08:55:56.000Z</time>
      </trkpt>
      <trkpt lat="47.45943" lon="6.78481">
        <ele>390</ele>
        <time>2015-11-11T08:55:57.000Z</time>
      </trkpt>
      <trkpt lat="47.45944" lon="6.78496">
        <ele>390</ele>
        <time>2015-11-11T08:55:58.000Z</time>
      </trkpt>
      <trkpt lat="47.45944" lon="6.78509">
        <ele>388</ele>
        <time>2015-11-11T08:55:59.000Z</time>
      </trkpt>
      <trkpt lat="47.45941" lon="6.7852">
        <ele>387</ele>
        <time>2015-11-11T08:56:00.000Z</time>
      </trkpt>
      <trkpt lat="47.45935" lon="6.78528">
        <ele>387</ele>
        <time>2015-11-11T08:56:01.000Z</time>
      </trkpt>
      <trkpt lat="47.45929" lon="6.78533">
        <ele>387</ele>
        <time>2015-11-11T08:56:02.000Z</time>
      </trkpt>
      <trkpt lat="47.45922" lon="6.78532">
        <ele>386</ele>
        <time>2015-11-11T08:56:03.000Z</time>
      </trkpt>
      <trkpt lat="47.45914" lon="6.78528">
        <ele>377</ele>
        <time>2015-11-11T08:56:04.000Z</time>
      </trkpt>
      <trkpt lat="47.45907" lon="6.78523">
        <ele>377</ele>
        <time>2015-11-11T08:56:05.000Z</time>
      </trkpt>
      <trkpt lat="47.459" lon="6.78517">
        <ele>377</ele>
        <time>2015-11-11T08:56:06.000Z</time>
      </trkpt>
      <trkpt lat="47.45893" lon="6.78506">
        <ele>377</ele>
        <time>2015-11-11T08:56:07.000Z</time>
      </trkpt>
      <trkpt lat="47.45885" lon="6.78498">
        <ele>378</ele>
        <time>2015-11-11T08:56:08.000Z</time>
      </trkpt>
      <trkpt lat="47.45877" lon="6.78491">
        <ele>377</ele>
        <time>2015-11-11T08:56:09.000Z</time>
      </trkpt>
      <trkpt lat="47.4587" lon="6.7848">
        <ele>376</ele>
        <time>2015-11-11T08:56:10.000Z</time>
      </trkpt>
      <trkpt lat="47.4586" lon="6.78471">
        <ele>375</ele>
        <time>2015-11-11T08:56:11.000Z</time>
      </trkpt>
      <trkpt lat="47.45852" lon="6.78463">
        <ele>375</ele>
        <time>2015-11-11T08:56:12.000Z</time>
      </trkpt>
      <trkpt lat="47.45844" lon="6.78453">
        <ele>375</ele>
        <time>2015-11-11T08:56:13.000Z</time>
      </trkpt>
      <trkpt lat="47.45835" lon="6.78444">
        <ele>374</ele>
        <time>2015-11-11T08:56:13.999Z</time>
      </trkpt>
      <trkpt lat="47.45827" lon="6.78437">
        <ele>367</ele>
        <time>2015-11-11T08:56:15.000Z</time>
      </trkpt>
      <trkpt lat="47.45818" lon="6.78427">
        <ele>367</ele>
        <time>2015-11-11T08:56:16.000Z</time>
      </trkpt>
      <trkpt lat="47.45808" lon="6.78419">
        <ele>366</ele>
        <time>2015-11-11T08:56:17.000Z</time>
      </trkpt>
      <trkpt lat="47.45798" lon="6.78411">
        <ele>367</ele>
        <time>2015-11-11T08:56:18.000Z</time>
      </trkpt>
      <trkpt lat="47.4579" lon="6.78401">
        <ele>367</ele>
        <time>2015-11-11T08:56:19.000Z</time>
      </trkpt>
      <trkpt lat="47.45779" lon="6.78394">
        <ele>366</ele>
        <time>2015-11-11T08:56:20.000Z</time>
      </trkpt>
      <trkpt lat="47.45769" lon="6.78389">
        <ele>365</ele>
        <time>2015-11-11T08:56:21.000Z</time>
      </trkpt>
      <trkpt lat="47.45758" lon="6.78383">
        <ele>365</ele>
        <time>2015-11-11T08:56:22.000Z</time>
      </trkpt>
      <trkpt lat="47.45748" lon="6.7838">
        <ele>360</ele>
        <time>2015-11-11T08:56:23.000Z</time>
      </trkpt>
      <trkpt lat="47.45738" lon="6.78379">
        <ele>360</ele>
        <time>2015-11-11T08:56:24.000Z</time>
      </trkpt>
      <trkpt lat="47.45727" lon="6.78377">
        <ele>359</ele>
        <time>2015-11-11T08:56:25.000Z</time>
      </trkpt>
      <trkpt lat="47.45716" lon="6.78375">
        <ele>359</ele>
        <time>2015-11-11T08:56:26.000Z</time>
      </trkpt>
      <trkpt lat="47.45706" lon="6.78374">
        <ele>359</ele>
        <time>2015-11-11T08:56:27.000Z</time>
      </trkpt>
      <trkpt lat="47.45696" lon="6.78375">
        <ele>359</ele>
        <time>2015-11-11T08:56:28.000Z</time>
      </trkpt>
      <trkpt lat="47.45686" lon="6.78376">
        <ele>358</ele>
        <time>2015-11-11T08:56:29.000Z</time>
      </trkpt>
      <trkpt lat="47.45676" lon="6.78378">
        <ele>358</ele>
        <time>2015-11-11T08:56:30.000Z</time>
      </trkpt>
      <trkpt lat="47.45666" lon="6.78381">
        <ele>356</ele>
        <time>2015-11-11T08:56:31.000Z</time>
      </trkpt>
      <trkpt lat="47.45656" lon="6.78384">
        <ele>356</ele>
        <time>2015-11-11T08:56:32.000Z</time>
      </trkpt>
      <trkpt lat="47.45647" lon="6.78389">
        <ele>356</ele>
        <time>2015-11-11T08:56:33.000Z</time>
      </trkpt>
      <trkpt lat="47.45638" lon="6.78392">
        <ele>355</ele>
        <time>2015-11-11T08:56:34.000Z</time>
      </trkpt>
      <trkpt lat="47.45629" lon="6.78395">
        <ele>355</ele>
        <time>2015-11-11T08:56:35.000Z</time>
      </trkpt>
      <trkpt lat="47.45621" lon="6.78399">
        <ele>355</ele>
        <time>2015-11-11T08:56:36.000Z</time>
      </trkpt>
      <trkpt lat="47.45612" lon="6.78403">
        <ele>355</ele>
        <time>2015-11-11T08:56:37.000Z</time>
      </trkpt>
      <trkpt lat="47.45604" lon="6.78407">
        <ele>355</ele>
        <time>2015-11-11T08:56:38.000Z</time>
      </trkpt>
      <trkpt lat="47.45596" lon="6.78411">
        <ele>355</ele>
        <time>2015-11-11T08:56:39.000Z</time>
      </trkpt>
      <trkpt lat="47.45587" lon="6.78415">
        <ele>354</ele>
        <time>2015-11-11T08:56:40.000Z</time>
      </trkpt>
      <trkpt lat="47.4558" lon="6.7842">
        <ele>353</ele>
        <time>2015-11-11T08:56:41.000Z</time>
      </trkpt>
      <trkpt lat="47.45572" lon="6.78424">
        <ele>353</ele>
        <time>2015-11-11T08:56:42.000Z</time>
      </trkpt>
      <trkpt lat="47.45564" lon="6.78428">
        <ele>352</ele>
        <time>2015-11-11T08:56:43.000Z</time>
      </trkpt>
      <trkpt lat="47.45557" lon="6.78433">
        <ele>352</ele>
        <time>2015-11-11T08:56:44.000Z</time>
      </trkpt>
      <trkpt lat="47.45549" lon="6.78436">
        <ele>352</ele>
        <time>2015-11-11T08:56:45.000Z</time>
      </trkpt>
      <trkpt lat="47.45542" lon="6.78441">
        <ele>351</ele>
        <time>2015-11-11T08:56:46.000Z</time>
      </trkpt>
      <trkpt lat="47.45536" lon="6.78446">
        <ele>351</ele>
        <time>2015-11-11T08:56:47.000Z</time>
      </trkpt>
      <trkpt lat="47.45529" lon="6.78451">
        <ele>351</ele>
        <time>2015-11-11T08:56:48.000Z</time>
      </trkpt>
      <trkpt lat="47.45523" lon="6.78457">
        <ele>351</ele>
        <time>2015-11-11T08:56:49.000Z</time>
      </trkpt>
      <trkpt lat="47.45516" lon="6.78461">
        <ele>351</ele>
        <time>2015-11-11T08:56:50.000Z</time>
      </trkpt>
      <trkpt lat="47.45509" lon="6.78466">
        <ele>350</ele>
        <time>2015-11-11T08:56:51.000Z</time>
      </trkpt>
      <trkpt lat="47.45503" lon="6.7847">
        <ele>350</ele>
        <time>2015-11-11T08:56:52.000Z</time>
      </trkpt>
      <trkpt lat="47.45495" lon="6.78474">
        <ele>348</ele>
        <time>2015-11-11T08:56:53.000Z</time>
      </trkpt>
      <trkpt lat="47.45488" lon="6.78479">
        <ele>348</ele>
        <time>2015-11-11T08:56:54.000Z</time>
      </trkpt>
      <trkpt lat="47.45481" lon="6.78483">
        <ele>348</ele>
        <time>2015-11-11T08:56:55.000Z</time>
      </trkpt>
      <trkpt lat="47.45474" lon="6.78488">
        <ele>348</ele>
        <time>2015-11-11T08:56:56.000Z</time>
      </trkpt>
      <trkpt lat="47.45468" lon="6.78494">
        <ele>347</ele>
        <time>2015-11-11T08:56:57.000Z</time>
      </trkpt>
      <trkpt lat="47.45462" lon="6.78498">
        <ele>347</ele>
        <time>2015-11-11T08:56:58.000Z</time>
      </trkpt>
      <trkpt lat="47.45455" lon="6.78503">
        <ele>344</ele>
        <time>2015-11-11T08:56:59.000Z</time>
      </trkpt>
      <trkpt lat="47.45448" lon="6.78507">
        <ele>344</ele>
        <time>2015-11-11T08:57:00.000Z</time>
      </trkpt>
      <trkpt lat="47.45442" lon="6.78512">
        <ele>344</ele>
        <time>2015-11-11T08:57:01.000Z</time>
      </trkpt>
      <trkpt lat="47.45436" lon="6.78514">
        <ele>344</ele>
        <time>2015-11-11T08:57:02.000Z</time>
      </trkpt>
      <trkpt lat="47.4543" lon="6.78516">
        <ele>344</ele>
        <time>2015-11-11T08:57:03.000Z</time>
      </trkpt>
      <trkpt lat="47.45425" lon="6.78519">
        <ele>344</ele>
        <time>2015-11-11T08:57:04.000Z</time>
      </trkpt>
      <trkpt lat="47.45419" lon="6.78524">
        <ele>343</ele>
        <time>2015-11-11T08:57:05.000Z</time>
      </trkpt>
      <trkpt lat="47.45415" lon="6.7853">
        <ele>340</ele>
        <time>2015-11-11T08:57:06.000Z</time>
      </trkpt>
      <trkpt lat="47.4541" lon="6.78535">
        <ele>340</ele>
        <time>2015-11-11T08:57:07.000Z</time>
      </trkpt>
      <trkpt lat="47.45404" lon="6.78541">
        <ele>339</ele>
        <time>2015-11-11T08:57:08.000Z</time>
      </trkpt>
      <trkpt lat="47.454" lon="6.78549">
        <ele>339</ele>
        <time>2015-11-11T08:57:09.000Z</time>
      </trkpt>
      <trkpt lat="47.45398" lon="6.78558">
        <ele>339</ele>
        <time>2015-11-11T08:57:10.000Z</time>
      </trkpt>
      <trkpt lat="47.45399" lon="6.78578">
        <ele>339</ele>
        <time>2015-11-11T08:57:12.000Z</time>
      </trkpt>
      <trkpt lat="47.45403" lon="6.78586">
        <ele>337</ele>
        <time>2015-11-11T08:57:13.000Z</time>
      </trkpt>
      <trkpt lat="47.45407" lon="6.78594">
        <ele>337</ele>
        <time>2015-11-11T08:57:14.000Z</time>
      </trkpt>
      <trkpt lat="47.4541" lon="6.78601">
        <ele>337</ele>
        <time>2015-11-11T08:57:15.000Z</time>
      </trkpt>
      <trkpt lat="47.45413" lon="6.7861">
        <ele>336</ele>
        <time>2015-11-11T08:57:16.000Z</time>
      </trkpt>
      <trkpt lat="47.45418" lon="6.78617">
        <ele>338</ele>
        <time>2015-11-11T08:57:17.000Z</time>
      </trkpt>
      <trkpt lat="47.45422" lon="6.78625">
        <ele>338</ele>
        <time>2015-11-11T08:57:18.000Z</time>
      </trkpt>
      <trkpt lat="47.45427" lon="6.78634">
        <ele>338</ele>
        <time>2015-11-11T08:57:19.000Z</time>
      </trkpt>
      <trkpt lat="47.45431" lon="6.78642">
        <ele>337</ele>
        <time>2015-11-11T08:57:20.000Z</time>
      </trkpt>
      <trkpt lat="47.45435" lon="6.78651">
        <ele>337</ele>
        <time>2015-11-11T08:57:21.000Z</time>
      </trkpt>
      <trkpt lat="47.4544" lon="6.78659">
        <ele>337</ele>
        <time>2015-11-11T08:57:22.000Z</time>
      </trkpt>
      <trkpt lat="47.45444" lon="6.78668">
        <ele>335</ele>
        <time>2015-11-11T08:57:23.000Z</time>
      </trkpt>
      <trkpt lat="47.45449" lon="6.78677">
        <ele>335</ele>
        <time>2015-11-11T08:57:24.000Z</time>
      </trkpt>
      <trkpt lat="47.45453" lon="6.78685">
        <ele>335</ele>
        <time>2015-11-11T08:57:25.000Z</time>
      </trkpt>
      <trkpt lat="47.45457" lon="6.78694">
        <ele>335</ele>
        <time>2015-11-11T08:57:26.000Z</time>
      </trkpt>
      <trkpt lat="47.45462" lon="6.78702">
        <ele>335</ele>
        <time>2015-11-11T08:57:27.000Z</time>
      </trkpt>
      <trkpt lat="47.45467" lon="6.78709">
        <ele>335</ele>
        <time>2015-11-11T08:57:28.000Z</time>
      </trkpt>
      <trkpt lat="47.45472" lon="6.78716">
        <ele>335</ele>
        <time>2015-11-11T08:57:29.000Z</time>
      </trkpt>
      <trkpt lat="47.45476" lon="6.78722">
        <ele>335</ele>
        <time>2015-11-11T08:57:30.000Z</time>
      </trkpt>
      <trkpt lat="47.45478" lon="6.78728">
        <ele>335</ele>
        <time>2015-11-11T08:57:31.000Z</time>
      </trkpt>
      <trkpt lat="47.4548" lon="6.78733">
        <ele>335</ele>
        <time>2015-11-11T08:57:32.000Z</time>
      </trkpt>
      <trkpt lat="47.45483" lon="6.78738">
        <ele>335</ele>
        <time>2015-11-11T08:57:33.000Z</time>
      </trkpt>
      <trkpt lat="47.45486" lon="6.78742">
        <ele>335</ele>
        <time>2015-11-11T08:57:34.000Z</time>
      </trkpt>
      <trkpt lat="47.45487" lon="6.78747">
        <ele>335</ele>
        <time>2015-11-11T08:57:35.000Z</time>
      </trkpt>
      <trkpt lat="47.45487" lon="6.78753">
        <ele>334</ele>
        <time>2015-11-11T08:57:36.000Z</time>
      </trkpt>
      <trkpt lat="47.45485" lon="6.78758">
        <ele>334</ele>
        <time>2015-11-11T08:57:37.000Z</time>
      </trkpt>
      <trkpt lat="47.45482" lon="6.78762">
        <ele>334</ele>
        <time>2015-11-11T08:57:38.000Z</time>
      </trkpt>
      <trkpt lat="47.45478" lon="6.78767">
        <ele>334</ele>
        <time>2015-11-11T08:57:39.000Z</time>
      </trkpt>
      <trkpt lat="47.45474" lon="6.78773">
        <ele>334</ele>
        <time>2015-11-11T08:57:40.000Z</time>
      </trkpt>
      <trkpt lat="47.45469" lon="6.78779">
        <ele>333</ele>
        <time>2015-11-11T08:57:41.000Z</time>
      </trkpt>
      <trkpt lat="47.45465" lon="6.78784">
        <ele>333</ele>
        <time>2015-11-11T08:57:42.000Z</time>
      </trkpt>
      <trkpt lat="47.45461" lon="6.78788">
        <ele>333</ele>
        <time>2015-11-11T08:57:43.000Z</time>
      </trkpt>
      <trkpt lat="47.45457" lon="6.78794">
        <ele>333</ele>
        <time>2015-11-11T08:57:44.000Z</time>
      </trkpt>
      <trkpt lat="47.45454" lon="6.78799">
        <ele>333</ele>
        <time>2015-11-11T08:57:45.000Z</time>
      </trkpt>
      <trkpt lat="47.45449" lon="6.78803">
        <ele>333</ele>
        <time>2015-11-11T08:57:46.000Z</time>
      </trkpt>
      <trkpt lat="47.45444" lon="6.78809">
        <ele>333</ele>
        <time>2015-11-11T08:57:47.000Z</time>
      </trkpt>
      <trkpt lat="47.4544" lon="6.78816">
        <ele>333</ele>
        <time>2015-11-11T08:57:48.000Z</time>
      </trkpt>
      <trkpt lat="47.45435" lon="6.78821">
        <ele>333</ele>
        <time>2015-11-11T08:57:49.000Z</time>
      </trkpt>
      <trkpt lat="47.45431" lon="6.78827">
        <ele>333</ele>
        <time>2015-11-11T08:57:50.000Z</time>
      </trkpt>
      <trkpt lat="47.45426" lon="6.78832">
        <ele>332</ele>
        <time>2015-11-11T08:57:51.000Z</time>
      </trkpt>
      <trkpt lat="47.45421" lon="6.78837">
        <ele>332</ele>
        <time>2015-11-11T08:57:52.000Z</time>
      </trkpt>
      <trkpt lat="47.45416" lon="6.78842">
        <ele>332</ele>
        <time>2015-11-11T08:57:53.000Z</time>
      </trkpt>
      <trkpt lat="47.45412" lon="6.78848">
        <ele>332</ele>
        <time>2015-11-11T08:57:54.000Z</time>
      </trkpt>
      <trkpt lat="47.45408" lon="6.78854">
        <ele>332</ele>
        <time>2015-11-11T08:57:55.000Z</time>
      </trkpt>
      <trkpt lat="47.45403" lon="6.7886">
        <ele>332</ele>
        <time>2015-11-11T08:57:56.000Z</time>
      </trkpt>
      <trkpt lat="47.45397" lon="6.78866">
        <ele>332</ele>
        <time>2015-11-11T08:57:57.000Z</time>
      </trkpt>
      <trkpt lat="47.45392" lon="6.78871">
        <ele>332</ele>
        <time>2015-11-11T08:57:58.000Z</time>
      </trkpt>
      <trkpt lat="47.45387" lon="6.78878">
        <ele>332</ele>
        <time>2015-11-11T08:57:59.000Z</time>
      </trkpt>
      <trkpt lat="47.45382" lon="6.78884">
        <ele>332</ele>
        <time>2015-11-11T08:57:59.999Z</time>
      </trkpt>
      <trkpt lat="47.45378" lon="6.78888">
        <ele>332</ele>
        <time>2015-11-11T08:58:01.000Z</time>
      </trkpt>
      <trkpt lat="47.45373" lon="6.78894">
        <ele>332</ele>
        <time>2015-11-11T08:58:02.000Z</time>
      </trkpt>
      <trkpt lat="47.45368" lon="6.789">
        <ele>332</ele>
        <time>2015-11-11T08:58:03.000Z</time>
      </trkpt>
      <trkpt lat="47.45363" lon="6.78906">
        <ele>332</ele>
        <time>2015-11-11T08:58:04.000Z</time>
      </trkpt>
      <trkpt lat="47.45359" lon="6.78912">
        <ele>332</ele>
        <time>2015-11-11T08:58:05.000Z</time>
      </trkpt>
      <trkpt lat="47.45355" lon="6.78918">
        <ele>331</ele>
        <time>2015-11-11T08:58:06.000Z</time>
      </trkpt>
      <trkpt lat="47.45351" lon="6.78925">
        <ele>331</ele>
        <time>2015-11-11T08:58:07.000Z</time>
      </trkpt>
      <trkpt lat="47.45347" lon="6.7893">
        <ele>331</ele>
        <time>2015-11-11T08:58:08.000Z</time>
      </trkpt>
      <trkpt lat="47.45343" lon="6.78935">
        <ele>331</ele>
        <time>2015-11-11T08:58:09.000Z</time>
      </trkpt>
      <trkpt lat="47.45339" lon="6.78941">
        <ele>331</ele>
        <time>2015-11-11T08:58:10.000Z</time>
      </trkpt>
      <trkpt lat="47.45335" lon="6.78947">
        <ele>331</ele>
        <time>2015-11-11T08:58:11.000Z</time>
      </trkpt>
      <trkpt lat="47.45331" lon="6.78952">
        <ele>331</ele>
        <time>2015-11-11T08:58:12.000Z</time>
      </trkpt>
      <trkpt lat="47.45327" lon="6.78957">
        <ele>331</ele>
        <time>2015-11-11T08:58:13.000Z</time>
      </trkpt>
      <trkpt lat="47.45323" lon="6.78961">
        <ele>331</ele>
        <time>2015-11-11T08:58:14.000Z</time>
      </trkpt>
      <trkpt lat="47.45318" lon="6.78966">
        <ele>331</ele>
        <time>2015-11-11T08:58:15.000Z</time>
      </trkpt>
      <trkpt lat="47.45315" lon="6.78971">
        <ele>331</ele>
        <time>2015-11-11T08:58:16.000Z</time>
      </trkpt>
      <trkpt lat="47.45311" lon="6.78977">
        <ele>331</ele>
        <time>2015-11-11T08:58:17.000Z</time>
      </trkpt>
      <trkpt lat="47.45307" lon="6.78982">
        <ele>331</ele>
        <time>2015-11-11T08:58:18.000Z</time>
      </trkpt>
      <trkpt lat="47.45304" lon="6.78988">
        <ele>331</ele>
        <time>2015-11-11T08:58:19.000Z</time>
      </trkpt>
      <trkpt lat="47.453" lon="6.78992">
        <ele>331</ele>
        <time>2015-11-11T08:58:20.001Z</time>
      </trkpt>
      <trkpt lat="47.45298" lon="6.78997">
        <ele>331</ele>
        <time>2015-11-11T08:58:21.000Z</time>
      </trkpt>
      <trkpt lat="47.45294" lon="6.79002">
        <ele>331</ele>
        <time>2015-11-11T08:58:22.000Z</time>
      </trkpt>
      <trkpt lat="47.4529" lon="6.79008">
        <ele>331</ele>
        <time>2015-11-11T08:58:23.000Z</time>
      </trkpt>
      <trkpt lat="47.45286" lon="6.79017">
        <ele>331</ele>
        <time>2015-11-11T08:58:24.000Z</time>
      </trkpt>
      <trkpt lat="47.45282" lon="6.79018">
        <ele>331</ele>
        <time>2015-11-11T08:58:25.000Z</time>
      </trkpt>
      <trkpt lat="47.45282" lon="6.79022">
        <ele>331</ele>
        <time>2015-11-11T08:58:26.000Z</time>
      </trkpt>
      <trkpt lat="47.45281" lon="6.79026">
        <ele>331</ele>
        <time>2015-11-11T08:58:27.000Z</time>
      </trkpt>
      <trkpt lat="47.4528" lon="6.79033">
        <ele>331</ele>
        <time>2015-11-11T08:58:28.000Z</time>
      </trkpt>
      <trkpt lat="47.45278" lon="6.7904">
        <ele>331</ele>
        <time>2015-11-11T08:58:29.000Z</time>
      </trkpt>
      <trkpt lat="47.45275" lon="6.79049">
        <ele>331</ele>
        <time>2015-11-11T08:58:30.000Z</time>
      </trkpt>
      <trkpt lat="47.45273" lon="6.79054">
        <ele>331</ele>
        <time>2015-11-11T08:58:31.000Z</time>
      </trkpt>
      <trkpt lat="47.45271" lon="6.79059">
        <ele>331</ele>
        <time>2015-11-11T08:58:32.000Z</time>
      </trkpt>
      <trkpt lat="47.45269" lon="6.79063">
        <ele>332</ele>
        <time>2015-11-11T08:58:33.000Z</time>
      </trkpt>
      <trkpt lat="47.45267" lon="6.79068">
        <ele>332</ele>
        <time>2015-11-11T08:58:34.000Z</time>
      </trkpt>
      <trkpt lat="47.45264" lon="6.79072">
        <ele>332</ele>
        <time>2015-11-11T08:58:35.000Z</time>
      </trkpt>
      <trkpt lat="47.45263" lon="6.79077">
        <ele>332</ele>
        <time>2015-11-11T08:58:36.000Z</time>
      </trkpt>
      <trkpt lat="47.45261" lon="6.79083">
        <ele>332</ele>
        <time>2015-11-11T08:58:37.000Z</time>
      </trkpt>
      <trkpt lat="47.4526" lon="6.79088">
        <ele>332</ele>
        <time>2015-11-11T08:58:38.000Z</time>
      </trkpt>
      <trkpt lat="47.45258" lon="6.79093">
        <ele>332</ele>
        <time>2015-11-11T08:58:39.000Z</time>
      </trkpt>
      <trkpt lat="47.45257" lon="6.79099">
        <ele>332</ele>
        <time>2015-11-11T08:58:40.000Z</time>
      </trkpt>
      <trkpt lat="47.45256" lon="6.79104">
        <ele>332</ele>
        <time>2015-11-11T08:58:41.000Z</time>
      </trkpt>
      <trkpt lat="47.45255" lon="6.79109">
        <ele>332</ele>
        <time>2015-11-11T08:58:42.000Z</time>
      </trkpt>
      <trkpt lat="47.45253" lon="6.79114">
        <ele>332</ele>
        <time>2015-11-11T08:58:43.000Z</time>
      </trkpt>
      <trkpt lat="47.45252" lon="6.79118">
        <ele>332</ele>
        <time>2015-11-11T08:58:44.000Z</time>
      </trkpt>
      <trkpt lat="47.45249" lon="6.79122">
        <ele>333</ele>
        <time>2015-11-11T08:58:45.000Z</time>
      </trkpt>
      <trkpt lat="47.45245" lon="6.79124">
        <ele>333</ele>
        <time>2015-11-11T08:58:46.000Z</time>
      </trkpt>
      <trkpt lat="47.45242" lon="6.79126">
        <ele>333</ele>
        <time>2015-11-11T08:58:47.000Z</time>
      </trkpt>
      <trkpt lat="47.45238" lon="6.79128">
        <ele>333</ele>
        <time>2015-11-11T08:58:48.000Z</time>
      </trkpt>
      <trkpt lat="47.45234" lon="6.79129">
        <ele>333</ele>
        <time>2015-11-11T08:58:49.000Z</time>
      </trkpt>
      <trkpt lat="47.45231" lon="6.79133">
        <ele>333</ele>
        <time>2015-11-11T08:58:50.000Z</time>
      </trkpt>
      <trkpt lat="47.45228" lon="6.79136">
        <ele>333</ele>
        <time>2015-11-11T08:58:51.000Z</time>
      </trkpt>
      <trkpt lat="47.45226" lon="6.7914">
        <ele>333</ele>
        <time>2015-11-11T08:58:52.000Z</time>
      </trkpt>
      <trkpt lat="47.45224" lon="6.79145">
        <ele>333</ele>
        <time>2015-11-11T08:58:53.000Z</time>
      </trkpt>
      <trkpt lat="47.45222" lon="6.79154">
        <ele>333</ele>
        <time>2015-11-11T08:58:54.000Z</time>
      </trkpt>
      <trkpt lat="47.45221" lon="6.7916">
        <ele>333</ele>
        <time>2015-11-11T08:58:55.000Z</time>
      </trkpt>
      <trkpt lat="47.4522" lon="6.79165">
        <ele>333</ele>
        <time>2015-11-11T08:58:56.000Z</time>
      </trkpt>
      <trkpt lat="47.45218" lon="6.7917">
        <ele>333</ele>
        <time>2015-11-11T08:58:57.000Z</time>
      </trkpt>
      <trkpt lat="47.45217" lon="6.79177">
        <ele>333</ele>
        <time>2015-11-11T08:58:58.000Z</time>
      </trkpt>
      <trkpt lat="47.45216" lon="6.79182">
        <ele>333</ele>
        <time>2015-11-11T08:58:59.000Z</time>
      </trkpt>
      <trkpt lat="47.45216" lon="6.79184">
        <ele>333</ele>
        <time>2015-11-11T08:59:00.000Z</time>
      </trkpt>
      <trkpt lat="47.45215" lon="6.79188">
        <ele>333</ele>
        <time>2015-11-11T08:59:02.000Z</time>
      </trkpt>
      <trkpt lat="47.45212" lon="6.79198">
        <ele>334</ele>
        <time>2015-11-11T08:59:03.000Z</time>
      </trkpt>
      <trkpt lat="47.45211" lon="6.79203">
        <ele>334</ele>
        <time>2015-11-11T08:59:04.000Z</time>
      </trkpt>
      <trkpt lat="47.45209" lon="6.7921">
        <ele>334</ele>
        <time>2015-11-11T08:59:05.000Z</time>
      </trkpt>
      <trkpt lat="47.45208" lon="6.79217">
        <ele>334</ele>
        <time>2015-11-11T08:59:06.000Z</time>
      </trkpt>
      <trkpt lat="47.45207" lon="6.79226">
        <ele>334</ele>
        <time>2015-11-11T08:59:07.000Z</time>
      </trkpt>
      <trkpt lat="47.45207" lon="6.79233">
        <ele>334</ele>
        <time>2015-11-11T08:59:08.000Z</time>
      </trkpt>
      <trkpt lat="47.45206" lon="6.7924">
        <ele>334</ele>
        <time>2015-11-11T08:59:09.000Z</time>
      </trkpt>
      <trkpt lat="47.45203" lon="6.79246">
        <ele>334</ele>
        <time>2015-11-11T08:59:10.000Z</time>
      </trkpt>
      <trkpt lat="47.45196" lon="6.79259">
        <ele>334</ele>
        <time>2015-11-11T08:59:12.000Z</time>
      </trkpt>
      <trkpt lat="47.45194" lon="6.79265">
        <ele>335</ele>
        <time>2015-11-11T08:59:13.000Z</time>
      </trkpt>
      <trkpt lat="47.45191" lon="6.79273">
        <ele>334</ele>
        <time>2015-11-11T08:59:14.000Z</time>
      </trkpt>
      <trkpt lat="47.45188" lon="6.79281">
        <ele>334</ele>
        <time>2015-11-11T08:59:15.000Z</time>
      </trkpt>
      <trkpt lat="47.45186" lon="6.7929">
        <ele>334</ele>
        <time>2015-11-11T08:59:16.000Z</time>
      </trkpt>
      <trkpt lat="47.45183" lon="6.79299">
        <ele>334</ele>
        <time>2015-11-11T08:59:17.000Z</time>
      </trkpt>
      <trkpt lat="47.4518" lon="6.79309">
        <ele>334</ele>
        <time>2015-11-11T08:59:18.000Z</time>
      </trkpt>
      <trkpt lat="47.45178" lon="6.79319">
        <ele>334</ele>
        <time>2015-11-11T08:59:19.000Z</time>
      </trkpt>
      <trkpt lat="47.45177" lon="6.79328">
        <ele>335</ele>
        <time>2015-11-11T08:59:20.000Z</time>
      </trkpt>
      <trkpt lat="47.45175" lon="6.79336">
        <ele>334</ele>
        <time>2015-11-11T08:59:21.000Z</time>
      </trkpt>
      <trkpt lat="47.45173" lon="6.79345">
        <ele>334</ele>
        <time>2015-11-11T08:59:22.000Z</time>
      </trkpt>
      <trkpt lat="47.45171" lon="6.79353">
        <ele>334</ele>
        <time>2015-11-11T08:59:23.000Z</time>
      </trkpt>
      <trkpt lat="47.45169" lon="6.79359">
        <ele>334</ele>
        <time>2015-11-11T08:59:24.000Z</time>
      </trkpt>
      <trkpt lat="47.45167" lon="6.79368">
        <ele>334</ele>
        <time>2015-11-11T08:59:25.000Z</time>
      </trkpt>
      <trkpt lat="47.45164" lon="6.79376">
        <ele>334</ele>
        <time>2015-11-11T08:59:26.000Z</time>
      </trkpt>
      <trkpt lat="47.45162" lon="6.79384">
        <ele>334</ele>
        <time>2015-11-11T08:59:27.000Z</time>
      </trkpt>
      <trkpt lat="47.4516" lon="6.79393">
        <ele>334</ele>
        <time>2015-11-11T08:59:28.000Z</time>
      </trkpt>
      <trkpt lat="47.45158" lon="6.79401">
        <ele>333</ele>
        <time>2015-11-11T08:59:29.000Z</time>
      </trkpt>
      <trkpt lat="47.45156" lon="6.79409">
        <ele>333</ele>
        <time>2015-11-11T08:59:30.000Z</time>
      </trkpt>
      <trkpt lat="47.45153" lon="6.79417">
        <ele>333</ele>
        <time>2015-11-11T08:59:31.000Z</time>
      </trkpt>
      <trkpt lat="47.4515" lon="6.79423">
        <ele>333</ele>
        <time>2015-11-11T08:59:32.000Z</time>
      </trkpt>
      <trkpt lat="47.45148" lon="6.79429">
        <ele>333</ele>
        <time>2015-11-11T08:59:33.000Z</time>
      </trkpt>
      <trkpt lat="47.45147" lon="6.79434">
        <ele>333</ele>
        <time>2015-11-11T08:59:34.000Z</time>
      </trkpt>
      <trkpt lat="47.45145" lon="6.79442">
        <ele>333</ele>
        <time>2015-11-11T08:59:35.000Z</time>
      </trkpt>
      <trkpt lat="47.45143" lon="6.79448">
        <ele>333</ele>
        <time>2015-11-11T08:59:36.000Z</time>
      </trkpt>
      <trkpt lat="47.45141" lon="6.79455">
        <ele>333</ele>
        <time>2015-11-11T08:59:37.000Z</time>
      </trkpt>
      <trkpt lat="47.45141" lon="6.79461">
        <ele>333</ele>
        <time>2015-11-11T08:59:38.000Z</time>
      </trkpt>
      <trkpt lat="47.4514" lon="6.79467">
        <ele>333</ele>
        <time>2015-11-11T08:59:39.000Z</time>
      </trkpt>
      <trkpt lat="47.45138" lon="6.79474">
        <ele>333</ele>
        <time>2015-11-11T08:59:40.000Z</time>
      </trkpt>
      <trkpt lat="47.45137" lon="6.79482">
        <ele>333</ele>
        <time>2015-11-11T08:59:41.000Z</time>
      </trkpt>
      <trkpt lat="47.45136" lon="6.79489">
        <ele>333</ele>
        <time>2015-11-11T08:59:42.000Z</time>
      </trkpt>
      <trkpt lat="47.45134" lon="6.79495">
        <ele>333</ele>
        <time>2015-11-11T08:59:42.999Z</time>
      </trkpt>
      <trkpt lat="47.45133" lon="6.79505">
        <ele>333</ele>
        <time>2015-11-11T08:59:44.000Z</time>
      </trkpt>
      <trkpt lat="47.45131" lon="6.79513">
        <ele>333</ele>
        <time>2015-11-11T08:59:45.000Z</time>
      </trkpt>
      <trkpt lat="47.4513" lon="6.79523">
        <ele>333</ele>
        <time>2015-11-11T08:59:46.000Z</time>
      </trkpt>
      <trkpt lat="47.45125" lon="6.79528">
        <ele>333</ele>
        <time>2015-11-11T08:59:47.000Z</time>
      </trkpt>
      <trkpt lat="47.45122" lon="6.79534">
        <ele>333</ele>
        <time>2015-11-11T08:59:48.000Z</time>
      </trkpt>
      <trkpt lat="47.45118" lon="6.79541">
        <ele>333</ele>
        <time>2015-11-11T08:59:49.000Z</time>
      </trkpt>
      <trkpt lat="47.45114" lon="6.79546">
        <ele>333</ele>
        <time>2015-11-11T08:59:50.000Z</time>
      </trkpt>
      <trkpt lat="47.4511" lon="6.79551">
        <ele>333</ele>
        <time>2015-11-11T08:59:51.000Z</time>
      </trkpt>
      <trkpt lat="47.45106" lon="6.79556">
        <ele>333</ele>
        <time>2015-11-11T08:59:52.001Z</time>
      </trkpt>
      <trkpt lat="47.45102" lon="6.7956">
        <ele>333</ele>
        <time>2015-11-11T08:59:53.000Z</time>
      </trkpt>
      <trkpt lat="47.45098" lon="6.79565">
        <ele>333</ele>
        <time>2015-11-11T08:59:54.000Z</time>
      </trkpt>
      <trkpt lat="47.45094" lon="6.7957">
        <ele>333</ele>
        <time>2015-11-11T08:59:55.000Z</time>
      </trkpt>
      <trkpt lat="47.4509" lon="6.79574">
        <ele>333</ele>
        <time>2015-11-11T08:59:56.000Z</time>
      </trkpt>
      <trkpt lat="47.45087" lon="6.79578">
        <ele>333</ele>
        <time>2015-11-11T08:59:57.000Z</time>
      </trkpt>
      <trkpt lat="47.45082" lon="6.79584">
        <ele>333</ele>
        <time>2015-11-11T08:59:58.000Z</time>
      </trkpt>
      <trkpt lat="47.45079" lon="6.79588">
        <ele>333</ele>
        <time>2015-11-11T08:59:59.000Z</time>
      </trkpt>
      <trkpt lat="47.45076" lon="6.79592">
        <ele>334</ele>
        <time>2015-11-11T09:00:00.000Z</time>
      </trkpt>
      <trkpt lat="47.45072" lon="6.79597">
        <ele>334</ele>
        <time>2015-11-11T09:00:01.000Z</time>
      </trkpt>
      <trkpt lat="47.45069" lon="6.79601">
        <ele>334</ele>
        <time>2015-11-11T09:00:02.000Z</time>
      </trkpt>
      <trkpt lat="47.45066" lon="6.79605">
        <ele>334</ele>
        <time>2015-11-11T09:00:03.000Z</time>
      </trkpt>
      <trkpt lat="47.45062" lon="6.79609">
        <ele>334</ele>
        <time>2015-11-11T09:00:04.000Z</time>
      </trkpt>
      <trkpt lat="47.45059" lon="6.79613">
        <ele>334</ele>
        <time>2015-11-11T09:00:05.000Z</time>
      </trkpt>
      <trkpt lat="47.45057" lon="6.79616">
        <ele>334</ele>
        <time>2015-11-11T09:00:06.000Z</time>
      </trkpt>
      <trkpt lat="47.45056" lon="6.7962">
        <ele>334</ele>
        <time>2015-11-11T09:00:07.000Z</time>
      </trkpt>
      <trkpt lat="47.45056" lon="6.79625">
        <ele>334</ele>
        <time>2015-11-11T09:00:08.000Z</time>
      </trkpt>
      <trkpt lat="47.45056" lon="6.79629">
        <ele>334</ele>
        <time>2015-11-11T09:00:09.000Z</time>
      </trkpt>
      <trkpt lat="47.45054" lon="6.79633">
        <ele>335</ele>
        <time>2015-11-11T09:00:10.000Z</time>
      </trkpt>
      <trkpt lat="47.45053" lon="6.79637">
        <ele>335</ele>
        <time>2015-11-11T09:00:11.000Z</time>
      </trkpt>
      <trkpt lat="47.45051" lon="6.7964">
        <ele>335</ele>
        <time>2015-11-11T09:00:12.000Z</time>
      </trkpt>
      <trkpt lat="47.45049" lon="6.79644">
        <ele>335</ele>
        <time>2015-11-11T09:00:13.000Z</time>
      </trkpt>
      <trkpt lat="47.45048" lon="6.79647">
        <ele>335</ele>
        <time>2015-11-11T09:00:14.000Z</time>
      </trkpt>
      <trkpt lat="47.45046" lon="6.79651">
        <ele>335</ele>
        <time>2015-11-11T09:00:15.000Z</time>
      </trkpt>
      <trkpt lat="47.45045" lon="6.79655">
        <ele>335</ele>
        <time>2015-11-11T09:00:16.000Z</time>
      </trkpt>
      <trkpt lat="47.45044" lon="6.79659">
        <ele>335</ele>
        <time>2015-11-11T09:00:17.000Z</time>
      </trkpt>
      <trkpt lat="47.45043" lon="6.79662">
        <ele>335</ele>
        <time>2015-11-11T09:00:18.000Z</time>
      </trkpt>
      <trkpt lat="47.45044" lon="6.79667">
        <ele>338</ele>
        <time>2015-11-11T09:00:20.000Z</time>
      </trkpt>
      <trkpt lat="47.45044" lon="6.79669">
        <ele>338</ele>
        <time>2015-11-11T09:00:21.000Z</time>
      </trkpt>
      <trkpt lat="47.45043" lon="6.79675">
        <ele>338</ele>
        <time>2015-11-11T09:00:23.000Z</time>
      </trkpt>
      <trkpt lat="47.45043" lon="6.79677">
        <ele>338</ele>
        <time>2015-11-11T09:00:24.000Z</time>
      </trkpt>
      <trkpt lat="47.45042" lon="6.79683">
        <ele>338</ele>
        <time>2015-11-11T09:00:28.000Z</time>
      </trkpt>
      <trkpt lat="47.45041" lon="6.79685">
        <ele>338</ele>
        <time>2015-11-11T09:00:29.000Z</time>
      </trkpt>
      <trkpt lat="47.4504" lon="6.79691">
        <ele>338</ele>
        <time>2015-11-11T09:00:31.000Z</time>
      </trkpt>
      <trkpt lat="47.4504" lon="6.79694">
        <ele>339</ele>
        <time>2015-11-11T09:00:32.000Z</time>
      </trkpt>
      <trkpt lat="47.45039" lon="6.79699">
        <ele>339</ele>
        <time>2015-11-11T09:00:34.000Z</time>
      </trkpt>
      <trkpt lat="47.45038" lon="6.79702">
        <ele>339</ele>
        <time>2015-11-11T09:00:35.000Z</time>
      </trkpt>
      <trkpt lat="47.45036" lon="6.79707">
        <ele>339</ele>
        <time>2015-11-11T09:00:37.000Z</time>
      </trkpt>
      <trkpt lat="47.45036" lon="6.7971">
        <ele>339</ele>
        <time>2015-11-11T09:00:38.000Z</time>
      </trkpt>
      <trkpt lat="47.45033" lon="6.79713">
        <ele>339</ele>
        <time>2015-11-11T09:00:41.000Z</time>
      </trkpt>
      <trkpt lat="47.45032" lon="6.79713">
        <ele>339</ele>
        <time>2015-11-11T09:00:42.000Z</time>
      </trkpt>
      <trkpt lat="47.45029" lon="6.79713">
        <ele>340</ele>
        <time>2015-11-11T09:00:45.000Z</time>
      </trkpt>
      <trkpt lat="47.45027" lon="6.79712">
        <ele>340</ele>
        <time>2015-11-11T09:00:46.000Z</time>
      </trkpt>
      <trkpt lat="47.45025" lon="6.79712">
        <ele>340</ele>
        <time>2015-11-11T09:00:47.000Z</time>
      </trkpt>
      <trkpt lat="47.45023" lon="6.79711">
        <ele>340</ele>
        <time>2015-11-11T09:00:48.000Z</time>
      </trkpt>
      <trkpt lat="47.45019" lon="6.79708">
        <ele>339</ele>
        <time>2015-11-11T09:00:50.000Z</time>
      </trkpt>
      <trkpt lat="47.45018" lon="6.79707">
        <ele>339</ele>
        <time>2015-11-11T09:00:51.000Z</time>
      </trkpt>
      <trkpt lat="47.45015" lon="6.79704">
        <ele>339</ele>
        <time>2015-11-11T09:00:54.000Z</time>
      </trkpt>
      <trkpt lat="47.45014" lon="6.79704">
        <ele>339</ele>
        <time>2015-11-11T09:00:55.000Z</time>
      </trkpt>
      <trkpt lat="47.4501" lon="6.79703">
        <ele>339</ele>
        <time>2015-11-11T09:01:00.000Z</time>
      </trkpt>
      <trkpt lat="47.45009" lon="6.79702">
        <ele>339</ele>
        <time>2015-11-11T09:01:01.000Z</time>
      </trkpt>
      <trkpt lat="47.45006" lon="6.79699">
        <ele>339</ele>
        <time>2015-11-11T09:01:05.000Z</time>
      </trkpt>
      <trkpt lat="47.45005" lon="6.79699">
        <ele>339</ele>
        <time>2015-11-11T09:01:06.000Z</time>
      </trkpt>
      <trkpt lat="47.45001" lon="6.79696">
        <ele>339</ele>
        <time>2015-11-11T09:01:10.000Z</time>
      </trkpt>
      <trkpt lat="47.45" lon="6.79695">
        <ele>339</ele>
        <time>2015-11-11T09:01:11.000Z</time>
      </trkpt>
      <trkpt lat="47.44997" lon="6.79691">
        <ele>341</ele>
        <time>2015-11-11T09:01:15.000Z</time>
      </trkpt>
      <trkpt lat="47.44996" lon="6.7969">
        <ele>341</ele>
        <time>2015-11-11T09:01:16.000Z</time>
      </trkpt>
      <trkpt lat="47.44992" lon="6.79688">
        <ele>341</ele>
        <time>2015-11-11T09:01:20.000Z</time>
      </trkpt>
      <trkpt lat="47.44991" lon="6.79688">
        <ele>341</ele>
        <time>2015-11-11T09:01:21.000Z</time>
      </trkpt>
      <trkpt lat="47.44988" lon="6.79686">
        <ele>341</ele>
        <time>2015-11-11T09:01:24.000Z</time>
      </trkpt>
      <trkpt lat="47.44986" lon="6.79685">
        <ele>341</ele>
        <time>2015-11-11T09:01:25.000Z</time>
      </trkpt>
      <trkpt lat="47.44982" lon="6.79685">
        <ele>341</ele>
        <time>2015-11-11T09:01:28.000Z</time>
      </trkpt>
      <trkpt lat="47.44981" lon="6.79684">
        <ele>341</ele>
        <time>2015-11-11T09:01:29.000Z</time>
      </trkpt>
      <trkpt lat="47.44977" lon="6.79686">
        <ele>342</ele>
        <time>2015-11-11T09:01:35.000Z</time>
      </trkpt>
      <trkpt lat="47.44977" lon="6.79687">
        <ele>342</ele>
        <time>2015-11-11T09:01:36.000Z</time>
      </trkpt>
      <trkpt lat="47.44973" lon="6.79691">
        <ele>342</ele>
        <time>2015-11-11T09:03:47.000Z</time>
      </trkpt>
      <trkpt lat="47.44973" lon="6.79692">
        <ele>342</ele>
        <time>2015-11-11T09:03:48.000Z</time>
      </trkpt>
      <trkpt lat="47.44976" lon="6.79695">
        <ele>342</ele>
        <time>2015-11-11T09:05:54.000Z</time>
      </trkpt>
      <trkpt lat="47.44977" lon="6.79695">
        <ele>342</ele>
        <time>2015-11-11T09:05:55.000Z</time>
      </trkpt>
      <trkpt lat="47.44974" lon="6.79691">
        <ele>342</ele>
        <time>2015-11-11T09:06:40.000Z</time>
      </trkpt>
      <trkpt lat="47.44973" lon="6.79691">
        <ele>342</ele>
        <time>2015-11-11T09:06:41.000Z</time>
      </trkpt>
      <trkpt lat="47.4497" lon="6.79694">
        <ele>343</ele>
        <time>2015-11-11T09:06:50.000Z</time>
      </trkpt>
      <trkpt lat="47.44969" lon="6.79695">
        <ele>343</ele>
        <time>2015-11-11T09:06:51.000Z</time>
      </trkpt>
      <trkpt lat="47.44966" lon="6.79699">
        <ele>343</ele>
        <time>2015-11-11T09:06:53.000Z</time>
      </trkpt>
      <trkpt lat="47.44964" lon="6.79701">
        <ele>343</ele>
        <time>2015-11-11T09:06:54.000Z</time>
      </trkpt>
      <trkpt lat="47.44962" lon="6.79704">
        <ele>343</ele>
        <time>2015-11-11T09:06:56.000Z</time>
      </trkpt>
      <trkpt lat="47.44961" lon="6.79706">
        <ele>344</ele>
        <time>2015-11-11T09:06:57.000Z</time>
      </trkpt>
      <trkpt lat="47.44958" lon="6.79711">
        <ele>344</ele>
        <time>2015-11-11T09:06:59.000Z</time>
      </trkpt>
      <trkpt lat="47.44957" lon="6.79713">
        <ele>344</ele>
        <time>2015-11-11T09:07:00.000Z</time>
      </trkpt>
      <trkpt lat="47.44953" lon="6.79717">
        <ele>344</ele>
        <time>2015-11-11T09:07:02.000Z</time>
      </trkpt>
      <trkpt lat="47.44951" lon="6.79719">
        <ele>344</ele>
        <time>2015-11-11T09:07:03.000Z</time>
      </trkpt>
      <trkpt lat="47.44949" lon="6.79721">
        <ele>345</ele>
        <time>2015-11-11T09:07:04.000Z</time>
      </trkpt>
      <trkpt lat="47.44947" lon="6.79723">
        <ele>345</ele>
        <time>2015-11-11T09:07:05.000Z</time>
      </trkpt>
      <trkpt lat="47.44944" lon="6.79724">
        <ele>345</ele>
        <time>2015-11-11T09:07:06.000Z</time>
      </trkpt>
      <trkpt lat="47.44941" lon="6.79725">
        <ele>345</ele>
        <time>2015-11-11T09:07:07.000Z</time>
      </trkpt>
      <trkpt lat="47.44938" lon="6.79726">
        <ele>345</ele>
        <time>2015-11-11T09:07:08.000Z</time>
      </trkpt>
      <trkpt lat="47.44936" lon="6.79726">
        <ele>346</ele>
        <time>2015-11-11T09:07:09.001Z</time>
      </trkpt>
      <trkpt lat="47.44932" lon="6.79727">
        <ele>346</ele>
        <time>2015-11-11T09:07:11.000Z</time>
      </trkpt>
      <trkpt lat="47.4493" lon="6.79728">
        <ele>346</ele>
        <time>2015-11-11T09:07:12.000Z</time>
      </trkpt>
      <trkpt lat="47.44926" lon="6.7973">
        <ele>346</ele>
        <time>2015-11-11T09:07:14.000Z</time>
      </trkpt>
      <trkpt lat="47.44925" lon="6.79731">
        <ele>347</ele>
        <time>2015-11-11T09:07:15.000Z</time>
      </trkpt>
      <trkpt lat="47.44921" lon="6.79734">
        <ele>347</ele>
        <time>2015-11-11T09:07:17.000Z</time>
      </trkpt>
      <trkpt lat="47.44919" lon="6.79735">
        <ele>347</ele>
        <time>2015-11-11T09:07:18.000Z</time>
      </trkpt>
      <trkpt lat="47.44917" lon="6.79737">
        <ele>348</ele>
        <time>2015-11-11T09:07:19.000Z</time>
      </trkpt>
      <trkpt lat="47.44914" lon="6.79739">
        <ele>349</ele>
        <time>2015-11-11T09:07:20.000Z</time>
      </trkpt>
      <trkpt lat="47.44912" lon="6.7974">
        <ele>349</ele>
        <time>2015-11-11T09:07:21.000Z</time>
      </trkpt>
      <trkpt lat="47.44909" lon="6.79741">
        <ele>349</ele>
        <time>2015-11-11T09:07:22.000Z</time>
      </trkpt>
      <trkpt lat="47.44907" lon="6.79742">
        <ele>349</ele>
        <time>2015-11-11T09:07:23.000Z</time>
      </trkpt>
      <trkpt lat="47.44904" lon="6.79742">
        <ele>348</ele>
        <time>2015-11-11T09:07:24.000Z</time>
      </trkpt>
      <trkpt lat="47.44901" lon="6.79742">
        <ele>348</ele>
        <time>2015-11-11T09:07:25.000Z</time>
      </trkpt>
      <trkpt lat="47.44899" lon="6.79742">
        <ele>348</ele>
        <time>2015-11-11T09:07:26.000Z</time>
      </trkpt>
      <trkpt lat="47.44896" lon="6.79741">
        <ele>348</ele>
        <time>2015-11-11T09:07:27.000Z</time>
      </trkpt>
      <trkpt lat="47.44893" lon="6.79741">
        <ele>348</ele>
        <time>2015-11-11T09:07:28.000Z</time>
      </trkpt>
      <trkpt lat="47.44891" lon="6.79739">
        <ele>348</ele>
        <time>2015-11-11T09:07:29.000Z</time>
      </trkpt>
      <trkpt lat="47.44889" lon="6.79737">
        <ele>348</ele>
        <time>2015-11-11T09:07:30.000Z</time>
      </trkpt>
      <trkpt lat="47.44887" lon="6.79735">
        <ele>348</ele>
        <time>2015-11-11T09:07:31.000Z</time>
      </trkpt>
      <trkpt lat="47.44885" lon="6.79732">
        <ele>347</ele>
        <time>2015-11-11T09:07:32.000Z</time>
      </trkpt>
      <trkpt lat="47.44882" lon="6.7973">
        <ele>347</ele>
        <time>2015-11-11T09:07:33.000Z</time>
      </trkpt>
      <trkpt lat="47.4488" lon="6.79728">
        <ele>347</ele>
        <time>2015-11-11T09:07:34.000Z</time>
      </trkpt>
      <trkpt lat="47.44877" lon="6.79727">
        <ele>347</ele>
        <time>2015-11-11T09:07:35.000Z</time>
      </trkpt>
      <trkpt lat="47.44875" lon="6.79726">
        <ele>347</ele>
        <time>2015-11-11T09:07:36.000Z</time>
      </trkpt>
      <trkpt lat="47.44872" lon="6.79724">
        <ele>347</ele>
        <time>2015-11-11T09:07:37.000Z</time>
      </trkpt>
      <trkpt lat="47.44869" lon="6.79723">
        <ele>347</ele>
        <time>2015-11-11T09:07:38.000Z</time>
      </trkpt>
      <trkpt lat="47.44866" lon="6.79722">
        <ele>347</ele>
        <time>2015-11-11T09:07:39.000Z</time>
      </trkpt>
      <trkpt lat="47.44863" lon="6.79722">
        <ele>347</ele>
        <time>2015-11-11T09:07:40.000Z</time>
      </trkpt>
      <trkpt lat="47.4486" lon="6.7972">
        <ele>347</ele>
        <time>2015-11-11T09:07:41.000Z</time>
      </trkpt>
      <trkpt lat="47.44858" lon="6.7972">
        <ele>347</ele>
        <time>2015-11-11T09:07:42.000Z</time>
      </trkpt>
      <trkpt lat="47.44855" lon="6.79719">
        <ele>347</ele>
        <time>2015-11-11T09:07:43.000Z</time>
      </trkpt>
      <trkpt lat="47.44852" lon="6.79718">
        <ele>347</ele>
        <time>2015-11-11T09:07:44.000Z</time>
      </trkpt>
      <trkpt lat="47.44849" lon="6.79717">
        <ele>347</ele>
        <time>2015-11-11T09:07:45.000Z</time>
      </trkpt>
      <trkpt lat="47.44846" lon="6.79717">
        <ele>347</ele>
        <time>2015-11-11T09:07:46.000Z</time>
      </trkpt>
      <trkpt lat="47.44842" lon="6.79718">
        <ele>347</ele>
        <time>2015-11-11T09:07:47.000Z</time>
      </trkpt>
      <trkpt lat="47.44839" lon="6.79718">
        <ele>347</ele>
        <time>2015-11-11T09:07:48.000Z</time>
      </trkpt>
      <trkpt lat="47.44835" lon="6.79719">
        <ele>347</ele>
        <time>2015-11-11T09:07:49.000Z</time>
      </trkpt>
      <trkpt lat="47.44832" lon="6.79721">
        <ele>347</ele>
        <time>2015-11-11T09:07:50.000Z</time>
      </trkpt>
      <trkpt lat="47.44828" lon="6.79722">
        <ele>348</ele>
        <time>2015-11-11T09:07:51.000Z</time>
      </trkpt>
      <trkpt lat="47.44825" lon="6.79724">
        <ele>348</ele>
        <time>2015-11-11T09:07:52.000Z</time>
      </trkpt>
      <trkpt lat="47.44823" lon="6.79727">
        <ele>348</ele>
        <time>2015-11-11T09:07:53.000Z</time>
      </trkpt>
      <trkpt lat="47.44821" lon="6.79731">
        <ele>348</ele>
        <time>2015-11-11T09:07:54.000Z</time>
      </trkpt>
      <trkpt lat="47.44821" lon="6.79736">
        <ele>349</ele>
        <time>2015-11-11T09:07:55.000Z</time>
      </trkpt>
      <trkpt lat="47.44821" lon="6.79742">
        <ele>349</ele>
        <time>2015-11-11T09:07:56.000Z</time>
      </trkpt>
      <trkpt lat="47.4482" lon="6.79749">
        <ele>349</ele>
        <time>2015-11-11T09:07:57.000Z</time>
      </trkpt>
      <trkpt lat="47.4482" lon="6.79756">
        <ele>352</ele>
        <time>2015-11-11T09:07:58.000Z</time>
      </trkpt>
      <trkpt lat="47.4482" lon="6.79763">
        <ele>352</ele>
        <time>2015-11-11T09:07:59.000Z</time>
      </trkpt>
      <trkpt lat="47.44819" lon="6.79769">
        <ele>352</ele>
        <time>2015-11-11T09:08:00.000Z</time>
      </trkpt>
      <trkpt lat="47.44818" lon="6.79776">
        <ele>352</ele>
        <time>2015-11-11T09:08:01.000Z</time>
      </trkpt>
      <trkpt lat="47.44817" lon="6.79782">
        <ele>353</ele>
        <time>2015-11-11T09:08:02.000Z</time>
      </trkpt>
      <trkpt lat="47.44816" lon="6.79789">
        <ele>353</ele>
        <time>2015-11-11T09:08:03.000Z</time>
      </trkpt>
      <trkpt lat="47.44814" lon="6.79795">
        <ele>353</ele>
        <time>2015-11-11T09:08:04.000Z</time>
      </trkpt>
      <trkpt lat="47.44813" lon="6.798">
        <ele>353</ele>
        <time>2015-11-11T09:08:05.000Z</time>
      </trkpt>
      <trkpt lat="47.44813" lon="6.79806">
        <ele>353</ele>
        <time>2015-11-11T09:08:06.000Z</time>
      </trkpt>
      <trkpt lat="47.44812" lon="6.79812">
        <ele>353</ele>
        <time>2015-11-11T09:08:07.000Z</time>
      </trkpt>
      <trkpt lat="47.44811" lon="6.79818">
        <ele>353</ele>
        <time>2015-11-11T09:08:08.000Z</time>
      </trkpt>
      <trkpt lat="47.4481" lon="6.79823">
        <ele>353</ele>
        <time>2015-11-11T09:08:09.000Z</time>
      </trkpt>
      <trkpt lat="47.44809" lon="6.79829">
        <ele>353</ele>
        <time>2015-11-11T09:08:10.000Z</time>
      </trkpt>
      <trkpt lat="47.44808" lon="6.79835">
        <ele>354</ele>
        <time>2015-11-11T09:08:11.000Z</time>
      </trkpt>
      <trkpt lat="47.44808" lon="6.79841">
        <ele>354</ele>
        <time>2015-11-11T09:08:12.000Z</time>
      </trkpt>
      <trkpt lat="47.44807" lon="6.79846">
        <ele>354</ele>
        <time>2015-11-11T09:08:13.000Z</time>
      </trkpt>
      <trkpt lat="47.44806" lon="6.79852">
        <ele>354</ele>
        <time>2015-11-11T09:08:14.000Z</time>
      </trkpt>
      <trkpt lat="47.44805" lon="6.79858">
        <ele>354</ele>
        <time>2015-11-11T09:08:15.000Z</time>
      </trkpt>
      <trkpt lat="47.44804" lon="6.79864">
        <ele>354</ele>
        <time>2015-11-11T09:08:16.000Z</time>
      </trkpt>
      <trkpt lat="47.44803" lon="6.7987">
        <ele>355</ele>
        <time>2015-11-11T09:08:17.000Z</time>
      </trkpt>
      <trkpt lat="47.44802" lon="6.79875">
        <ele>355</ele>
        <time>2015-11-11T09:08:18.000Z</time>
      </trkpt>
      <trkpt lat="47.44801" lon="6.79881">
        <ele>355</ele>
        <time>2015-11-11T09:08:19.000Z</time>
      </trkpt>
      <trkpt lat="47.448" lon="6.79887">
        <ele>355</ele>
        <time>2015-11-11T09:08:20.000Z</time>
      </trkpt>
      <trkpt lat="47.44799" lon="6.79892">
        <ele>355</ele>
        <time>2015-11-11T09:08:21.000Z</time>
      </trkpt>
      <trkpt lat="47.44799" lon="6.79897">
        <ele>355</ele>
        <time>2015-11-11T09:08:22.000Z</time>
      </trkpt>
      <trkpt lat="47.44798" lon="6.79903">
        <ele>355</ele>
        <time>2015-11-11T09:08:23.000Z</time>
      </trkpt>
      <trkpt lat="47.44797" lon="6.79908">
        <ele>355</ele>
        <time>2015-11-11T09:08:24.000Z</time>
      </trkpt>
      <trkpt lat="47.44797" lon="6.79913">
        <ele>355</ele>
        <time>2015-11-11T09:08:25.000Z</time>
      </trkpt>
      <trkpt lat="47.44796" lon="6.79919">
        <ele>356</ele>
        <time>2015-11-11T09:08:26.000Z</time>
      </trkpt>
      <trkpt lat="47.44795" lon="6.79924">
        <ele>356</ele>
        <time>2015-11-11T09:08:27.000Z</time>
      </trkpt>
      <trkpt lat="47.44794" lon="6.79929">
        <ele>356</ele>
        <time>2015-11-11T09:08:28.000Z</time>
      </trkpt>
      <trkpt lat="47.44793" lon="6.79934">
        <ele>356</ele>
        <time>2015-11-11T09:08:29.000Z</time>
      </trkpt>
      <trkpt lat="47.44792" lon="6.79939">
        <ele>356</ele>
        <time>2015-11-11T09:08:30.000Z</time>
      </trkpt>
      <trkpt lat="47.44791" lon="6.79945">
        <ele>356</ele>
        <time>2015-11-11T09:08:31.000Z</time>
      </trkpt>
      <trkpt lat="47.44791" lon="6.7995">
        <ele>356</ele>
        <time>2015-11-11T09:08:32.000Z</time>
      </trkpt>
      <trkpt lat="47.4479" lon="6.79955">
        <ele>356</ele>
        <time>2015-11-11T09:08:33.000Z</time>
      </trkpt>
      <trkpt lat="47.44789" lon="6.7996">
        <ele>356</ele>
        <time>2015-11-11T09:08:34.000Z</time>
      </trkpt>
      <trkpt lat="47.44789" lon="6.79965">
        <ele>356</ele>
        <time>2015-11-11T09:08:35.000Z</time>
      </trkpt>
      <trkpt lat="47.44788" lon="6.7997">
        <ele>356</ele>
        <time>2015-11-11T09:08:36.000Z</time>
      </trkpt>
      <trkpt lat="47.44788" lon="6.79974">
        <ele>356</ele>
        <time>2015-11-11T09:08:37.000Z</time>
      </trkpt>
      <trkpt lat="47.44787" lon="6.79978">
        <ele>356</ele>
        <time>2015-11-11T09:08:38.000Z</time>
      </trkpt>
      <trkpt lat="47.44787" lon="6.79981">
        <ele>356</ele>
        <time>2015-11-11T09:08:39.000Z</time>
      </trkpt>
      <trkpt lat="47.44786" lon="6.79986">
        <ele>356</ele>
        <time>2015-11-11T09:08:41.000Z</time>
      </trkpt>
      <trkpt lat="47.44785" lon="6.79988">
        <ele>356</ele>
        <time>2015-11-11T09:08:42.000Z</time>
      </trkpt>
      <trkpt lat="47.44782" lon="6.79988">
        <ele>356</ele>
        <time>2015-11-11T09:08:44.000Z</time>
      </trkpt>
      <trkpt lat="47.44779" lon="6.79987">
        <ele>356</ele>
        <time>2015-11-11T09:08:45.000Z</time>
      </trkpt>
      <trkpt lat="47.44776" lon="6.79986">
        <ele>356</ele>
        <time>2015-11-11T09:08:46.000Z</time>
      </trkpt>
      <trkpt lat="47.44773" lon="6.79985">
        <ele>356</ele>
        <time>2015-11-11T09:08:47.000Z</time>
      </trkpt>
      <trkpt lat="47.4477" lon="6.79984">
        <ele>356</ele>
        <time>2015-11-11T09:08:48.000Z</time>
      </trkpt>
      <trkpt lat="47.44767" lon="6.79982">
        <ele>357</ele>
        <time>2015-11-11T09:08:49.000Z</time>
      </trkpt>
      <trkpt lat="47.44764" lon="6.79981">
        <ele>357</ele>
        <time>2015-11-11T09:08:50.000Z</time>
      </trkpt>
      <trkpt lat="47.4476" lon="6.7998">
        <ele>357</ele>
        <time>2015-11-11T09:08:51.000Z</time>
      </trkpt>
      <trkpt lat="47.44757" lon="6.79979">
        <ele>357</ele>
        <time>2015-11-11T09:08:52.000Z</time>
      </trkpt>
      <trkpt lat="47.44753" lon="6.79979">
        <ele>357</ele>
        <time>2015-11-11T09:08:53.000Z</time>
      </trkpt>
      <trkpt lat="47.4475" lon="6.79978">
        <ele>358</ele>
        <time>2015-11-11T09:08:54.000Z</time>
      </trkpt>
      <trkpt lat="47.44746" lon="6.79977">
        <ele>358</ele>
        <time>2015-11-11T09:08:55.000Z</time>
      </trkpt>
      <trkpt lat="47.44743" lon="6.79977">
        <ele>358</ele>
        <time>2015-11-11T09:08:56.000Z</time>
      </trkpt>
      <trkpt lat="47.4474" lon="6.79976">
        <ele>359</ele>
        <time>2015-11-11T09:08:57.000Z</time>
      </trkpt>
      <trkpt lat="47.44737" lon="6.79975">
        <ele>359</ele>
        <time>2015-11-11T09:08:58.000Z</time>
      </trkpt>
      <trkpt lat="47.44734" lon="6.79974">
        <ele>359</ele>
        <time>2015-11-11T09:08:59.000Z</time>
      </trkpt>
      <trkpt lat="47.44731" lon="6.79974">
        <ele>359</ele>
        <time>2015-11-11T09:09:00.000Z</time>
      </trkpt>
      <trkpt lat="47.44727" lon="6.79973">
        <ele>359</ele>
        <time>2015-11-11T09:09:01.000Z</time>
      </trkpt>
      <trkpt lat="47.44724" lon="6.79972">
        <ele>359</ele>
        <time>2015-11-11T09:09:02.000Z</time>
      </trkpt>
      <trkpt lat="47.4472" lon="6.79972">
        <ele>359</ele>
        <time>2015-11-11T09:09:03.000Z</time>
      </trkpt>
      <trkpt lat="47.44717" lon="6.79971">
        <ele>359</ele>
        <time>2015-11-11T09:09:04.000Z</time>
      </trkpt>
      <trkpt lat="47.44713" lon="6.79971">
        <ele>359</ele>
        <time>2015-11-11T09:09:05.000Z</time>
      </trkpt>
      <trkpt lat="47.4471" lon="6.79971">
        <ele>359</ele>
        <time>2015-11-11T09:09:06.000Z</time>
      </trkpt>
      <trkpt lat="47.44706" lon="6.79972">
        <ele>359</ele>
        <time>2015-11-11T09:09:07.000Z</time>
      </trkpt>
      <trkpt lat="47.44703" lon="6.79971">
        <ele>359</ele>
        <time>2015-11-11T09:09:08.000Z</time>
      </trkpt>
      <trkpt lat="47.447" lon="6.79971">
        <ele>359</ele>
        <time>2015-11-11T09:09:09.000Z</time>
      </trkpt>
      <trkpt lat="47.44696" lon="6.7997">
        <ele>359</ele>
        <time>2015-11-11T09:09:10.000Z</time>
      </trkpt>
      <trkpt lat="47.44693" lon="6.79969">
        <ele>359</ele>
        <time>2015-11-11T09:09:11.000Z</time>
      </trkpt>
      <trkpt lat="47.4469" lon="6.79968">
        <ele>359</ele>
        <time>2015-11-11T09:09:12.000Z</time>
      </trkpt>
      <trkpt lat="47.44687" lon="6.79968">
        <ele>359</ele>
        <time>2015-11-11T09:09:13.000Z</time>
      </trkpt>
      <trkpt lat="47.44684" lon="6.79967">
        <ele>359</ele>
        <time>2015-11-11T09:09:14.000Z</time>
      </trkpt>
      <trkpt lat="47.44681" lon="6.79967">
        <ele>359</ele>
        <time>2015-11-11T09:09:15.000Z</time>
      </trkpt>
      <trkpt lat="47.44678" lon="6.79966">
        <ele>359</ele>
        <time>2015-11-11T09:09:16.000Z</time>
      </trkpt>
      <trkpt lat="47.44675" lon="6.79966">
        <ele>359</ele>
        <time>2015-11-11T09:09:17.000Z</time>
      </trkpt>
      <trkpt lat="47.44672" lon="6.79965">
        <ele>360</ele>
        <time>2015-11-11T09:09:18.000Z</time>
      </trkpt>
      <trkpt lat="47.44669" lon="6.79965">
        <ele>360</ele>
        <time>2015-11-11T09:09:19.000Z</time>
      </trkpt>
      <trkpt lat="47.44665" lon="6.79964">
        <ele>361</ele>
        <time>2015-11-11T09:09:20.000Z</time>
      </trkpt>
      <trkpt lat="47.44662" lon="6.79963">
        <ele>361</ele>
        <time>2015-11-11T09:09:21.000Z</time>
      </trkpt>
      <trkpt lat="47.44659" lon="6.79962">
        <ele>361</ele>
        <time>2015-11-11T09:09:22.000Z</time>
      </trkpt>
      <trkpt lat="47.44656" lon="6.79961">
        <ele>361</ele>
        <time>2015-11-11T09:09:23.000Z</time>
      </trkpt>
      <trkpt lat="47.44653" lon="6.79961">
        <ele>361</ele>
        <time>2015-11-11T09:09:24.000Z</time>
      </trkpt>
      <trkpt lat="47.4465" lon="6.7996">
        <ele>361</ele>
        <time>2015-11-11T09:09:25.000Z</time>
      </trkpt>
      <trkpt lat="47.44646" lon="6.79959">
        <ele>361</ele>
        <time>2015-11-11T09:09:26.000Z</time>
      </trkpt>
      <trkpt lat="47.44643" lon="6.79958">
        <ele>361</ele>
        <time>2015-11-11T09:09:27.000Z</time>
      </trkpt>
      <trkpt lat="47.4464" lon="6.79958">
        <ele>362</ele>
        <time>2015-11-11T09:09:28.000Z</time>
      </trkpt>
      <trkpt lat="47.44637" lon="6.79957">
        <ele>362</ele>
        <time>2015-11-11T09:09:29.000Z</time>
      </trkpt>
      <trkpt lat="47.44634" lon="6.79957">
        <ele>362</ele>
        <time>2015-11-11T09:09:30.000Z</time>
      </trkpt>
      <trkpt lat="47.4463" lon="6.79956">
        <ele>362</ele>
        <time>2015-11-11T09:09:31.000Z</time>
      </trkpt>
      <trkpt lat="47.44627" lon="6.79955">
        <ele>362</ele>
        <time>2015-11-11T09:09:32.000Z</time>
      </trkpt>
      <trkpt lat="47.44624" lon="6.79953">
        <ele>362</ele>
        <time>2015-11-11T09:09:33.000Z</time>
      </trkpt>
      <trkpt lat="47.4462" lon="6.79952">
        <ele>362</ele>
        <time>2015-11-11T09:09:34.000Z</time>
      </trkpt>
      <trkpt lat="47.44617" lon="6.79951">
        <ele>362</ele>
        <time>2015-11-11T09:09:35.000Z</time>
      </trkpt>
      <trkpt lat="47.44614" lon="6.7995">
        <ele>362</ele>
        <time>2015-11-11T09:09:36.000Z</time>
      </trkpt>
      <trkpt lat="47.4461" lon="6.79949">
        <ele>362</ele>
        <time>2015-11-11T09:09:37.000Z</time>
      </trkpt>
      <trkpt lat="47.44607" lon="6.79948">
        <ele>362</ele>
        <time>2015-11-11T09:09:38.000Z</time>
      </trkpt>
      <trkpt lat="47.44604" lon="6.79946">
        <ele>362</ele>
        <time>2015-11-11T09:09:39.000Z</time>
      </trkpt>
      <trkpt lat="47.446" lon="6.79945">
        <ele>362</ele>
        <time>2015-11-11T09:09:40.000Z</time>
      </trkpt>
      <trkpt lat="47.44597" lon="6.79943">
        <ele>362</ele>
        <time>2015-11-11T09:09:41.000Z</time>
      </trkpt>
      <trkpt lat="47.44594" lon="6.79942">
        <ele>362</ele>
        <time>2015-11-11T09:09:42.000Z</time>
      </trkpt>
      <trkpt lat="47.4459" lon="6.7994">
        <ele>362</ele>
        <time>2015-11-11T09:09:43.000Z</time>
      </trkpt>
      <trkpt lat="47.44587" lon="6.79939">
        <ele>362</ele>
        <time>2015-11-11T09:09:44.000Z</time>
      </trkpt>
      <trkpt lat="47.44583" lon="6.79938">
        <ele>364</ele>
        <time>2015-11-11T09:09:45.000Z</time>
      </trkpt>
      <trkpt lat="47.4458" lon="6.79937">
        <ele>364</ele>
        <time>2015-11-11T09:09:46.000Z</time>
      </trkpt>
      <trkpt lat="47.44576" lon="6.79935">
        <ele>364</ele>
        <time>2015-11-11T09:09:47.000Z</time>
      </trkpt>
      <trkpt lat="47.44573" lon="6.79934">
        <ele>364</ele>
        <time>2015-11-11T09:09:48.000Z</time>
      </trkpt>
      <trkpt lat="47.44569" lon="6.79933">
        <ele>364</ele>
        <time>2015-11-11T09:09:49.000Z</time>
      </trkpt>
      <trkpt lat="47.44566" lon="6.79931">
        <ele>364</ele>
        <time>2015-11-11T09:09:50.000Z</time>
      </trkpt>
      <trkpt lat="47.44562" lon="6.7993">
        <ele>364</ele>
        <time>2015-11-11T09:09:51.000Z</time>
      </trkpt>
      <trkpt lat="47.44558" lon="6.79929">
        <ele>364</ele>
        <time>2015-11-11T09:09:52.000Z</time>
      </trkpt>
      <trkpt lat="47.44555" lon="6.79928">
        <ele>364</ele>
        <time>2015-11-11T09:09:53.000Z</time>
      </trkpt>
      <trkpt lat="47.44552" lon="6.79926">
        <ele>364</ele>
        <time>2015-11-11T09:09:54.000Z</time>
      </trkpt>
      <trkpt lat="47.44549" lon="6.79925">
        <ele>364</ele>
        <time>2015-11-11T09:09:55.000Z</time>
      </trkpt>
      <trkpt lat="47.44546" lon="6.79923">
        <ele>364</ele>
        <time>2015-11-11T09:09:56.000Z</time>
      </trkpt>
      <trkpt lat="47.44543" lon="6.79922">
        <ele>364</ele>
        <time>2015-11-11T09:09:57.000Z</time>
      </trkpt>
      <trkpt lat="47.4454" lon="6.79921">
        <ele>364</ele>
        <time>2015-11-11T09:09:58.000Z</time>
      </trkpt>
      <trkpt lat="47.44537" lon="6.7992">
        <ele>364</ele>
        <time>2015-11-11T09:09:59.000Z</time>
      </trkpt>
      <trkpt lat="47.44534" lon="6.79919">
        <ele>365</ele>
        <time>2015-11-11T09:10:00.000Z</time>
      </trkpt>
      <trkpt lat="47.44531" lon="6.79919">
        <ele>365</ele>
        <time>2015-11-11T09:10:01.000Z</time>
      </trkpt>
      <trkpt lat="47.44528" lon="6.79918">
        <ele>365</ele>
        <time>2015-11-11T09:10:02.000Z</time>
      </trkpt>
      <trkpt lat="47.44524" lon="6.79917">
        <ele>365</ele>
        <time>2015-11-11T09:10:03.000Z</time>
      </trkpt>
      <trkpt lat="47.44521" lon="6.79917">
        <ele>365</ele>
        <time>2015-11-11T09:10:04.000Z</time>
      </trkpt>
      <trkpt lat="47.44518" lon="6.79916">
        <ele>365</ele>
        <time>2015-11-11T09:10:05.000Z</time>
      </trkpt>
      <trkpt lat="47.44515" lon="6.79915">
        <ele>366</ele>
        <time>2015-11-11T09:10:06.000Z</time>
      </trkpt>
      <trkpt lat="47.44512" lon="6.79915">
        <ele>366</ele>
        <time>2015-11-11T09:10:07.000Z</time>
      </trkpt>
      <trkpt lat="47.44509" lon="6.79915">
        <ele>366</ele>
        <time>2015-11-11T09:10:08.000Z</time>
      </trkpt>
      <trkpt lat="47.44506" lon="6.79915">
        <ele>366</ele>
        <time>2015-11-11T09:10:09.000Z</time>
      </trkpt>
      <trkpt lat="47.44503" lon="6.79916">
        <ele>366</ele>
        <time>2015-11-11T09:10:10.000Z</time>
      </trkpt>
      <trkpt lat="47.445" lon="6.79917">
        <ele>366</ele>
        <time>2015-11-11T09:10:11.000Z</time>
      </trkpt>
      <trkpt lat="47.44497" lon="6.79917">
        <ele>366</ele>
        <time>2015-11-11T09:10:12.000Z</time>
      </trkpt>
      <trkpt lat="47.44493" lon="6.79917">
        <ele>367</ele>
        <time>2015-11-11T09:10:13.000Z</time>
      </trkpt>
      <trkpt lat="47.4449" lon="6.79916">
        <ele>368</ele>
        <time>2015-11-11T09:10:14.000Z</time>
      </trkpt>
      <trkpt lat="47.44487" lon="6.79915">
        <ele>368</ele>
        <time>2015-11-11T09:10:15.000Z</time>
      </trkpt>
      <trkpt lat="47.44484" lon="6.79914">
        <ele>369</ele>
        <time>2015-11-11T09:10:16.000Z</time>
      </trkpt>
      <trkpt lat="47.44481" lon="6.79913">
        <ele>369</ele>
        <time>2015-11-11T09:10:17.000Z</time>
      </trkpt>
      <trkpt lat="47.44478" lon="6.79912">
        <ele>369</ele>
        <time>2015-11-11T09:10:18.000Z</time>
      </trkpt>
      <trkpt lat="47.44475" lon="6.79911">
        <ele>370</ele>
        <time>2015-11-11T09:10:19.000Z</time>
      </trkpt>
      <trkpt lat="47.44472" lon="6.7991">
        <ele>370</ele>
        <time>2015-11-11T09:10:20.000Z</time>
      </trkpt>
      <trkpt lat="47.44469" lon="6.79908">
        <ele>370</ele>
        <time>2015-11-11T09:10:21.000Z</time>
      </trkpt>
      <trkpt lat="47.44466" lon="6.79907">
        <ele>371</ele>
        <time>2015-11-11T09:10:22.000Z</time>
      </trkpt>
      <trkpt lat="47.44463" lon="6.79905">
        <ele>371</ele>
        <time>2015-11-11T09:10:23.000Z</time>
      </trkpt>
      <trkpt lat="47.44461" lon="6.79904">
        <ele>371</ele>
        <time>2015-11-11T09:10:24.000Z</time>
      </trkpt>
      <trkpt lat="47.44458" lon="6.79902">
        <ele>371</ele>
        <time>2015-11-11T09:10:25.000Z</time>
      </trkpt>
      <trkpt lat="47.44455" lon="6.79901">
        <ele>371</ele>
        <time>2015-11-11T09:10:26.000Z</time>
      </trkpt>
      <trkpt lat="47.44452" lon="6.79899">
        <ele>372</ele>
        <time>2015-11-11T09:10:27.000Z</time>
      </trkpt>
      <trkpt lat="47.44449" lon="6.79898">
        <ele>372</ele>
        <time>2015-11-11T09:10:28.000Z</time>
      </trkpt>
      <trkpt lat="47.44447" lon="6.79897">
        <ele>372</ele>
        <time>2015-11-11T09:10:29.000Z</time>
      </trkpt>
      <trkpt lat="47.44445" lon="6.79896">
        <ele>372</ele>
        <time>2015-11-11T09:10:30.000Z</time>
      </trkpt>
      <trkpt lat="47.44443" lon="6.79895">
        <ele>372</ele>
        <time>2015-11-11T09:10:31.000Z</time>
      </trkpt>
      <trkpt lat="47.4444" lon="6.79894">
        <ele>372</ele>
        <time>2015-11-11T09:10:32.000Z</time>
      </trkpt>
      <trkpt lat="47.44438" lon="6.79893">
        <ele>372</ele>
        <time>2015-11-11T09:10:33.000Z</time>
      </trkpt>
      <trkpt lat="47.44436" lon="6.79891">
        <ele>373</ele>
        <time>2015-11-11T09:10:34.000Z</time>
      </trkpt>
      <trkpt lat="47.44433" lon="6.7989">
        <ele>373</ele>
        <time>2015-11-11T09:10:35.000Z</time>
      </trkpt>
      <trkpt lat="47.4443" lon="6.79889">
        <ele>373</ele>
        <time>2015-11-11T09:10:36.000Z</time>
      </trkpt>
      <trkpt lat="47.44427" lon="6.79888">
        <ele>373</ele>
        <time>2015-11-11T09:10:37.000Z</time>
      </trkpt>
      <trkpt lat="47.44425" lon="6.79887">
        <ele>373</ele>
        <time>2015-11-11T09:10:38.000Z</time>
      </trkpt>
      <trkpt lat="47.44422" lon="6.79885">
        <ele>373</ele>
        <time>2015-11-11T09:10:39.000Z</time>
      </trkpt>
      <trkpt lat="47.4442" lon="6.79884">
        <ele>373</ele>
        <time>2015-11-11T09:10:40.000Z</time>
      </trkpt>
      <trkpt lat="47.44417" lon="6.79882">
        <ele>373</ele>
        <time>2015-11-11T09:10:41.000Z</time>
      </trkpt>
      <trkpt lat="47.44415" lon="6.79881">
        <ele>381</ele>
        <time>2015-11-11T09:10:42.000Z</time>
      </trkpt>
      <trkpt lat="47.44412" lon="6.7988">
        <ele>381</ele>
        <time>2015-11-11T09:10:43.000Z</time>
      </trkpt>
      <trkpt lat="47.44409" lon="6.79878">
        <ele>381</ele>
        <time>2015-11-11T09:10:44.000Z</time>
      </trkpt>
      <trkpt lat="47.44407" lon="6.79877">
        <ele>381</ele>
        <time>2015-11-11T09:10:45.000Z</time>
      </trkpt>
      <trkpt lat="47.44404" lon="6.79875">
        <ele>381</ele>
        <time>2015-11-11T09:10:46.000Z</time>
      </trkpt>
      <trkpt lat="47.44402" lon="6.79873">
        <ele>381</ele>
        <time>2015-11-11T09:10:47.000Z</time>
      </trkpt>
      <trkpt lat="47.444" lon="6.79871">
        <ele>382</ele>
        <time>2015-11-11T09:10:48.000Z</time>
      </trkpt>
      <trkpt lat="47.44398" lon="6.7987">
        <ele>382</ele>
        <time>2015-11-11T09:10:49.000Z</time>
      </trkpt>
      <trkpt lat="47.44395" lon="6.79869">
        <ele>382</ele>
        <time>2015-11-11T09:10:50.000Z</time>
      </trkpt>
      <trkpt lat="47.44393" lon="6.79868">
        <ele>382</ele>
        <time>2015-11-11T09:10:51.000Z</time>
      </trkpt>
      <trkpt lat="47.44391" lon="6.79867">
        <ele>382</ele>
        <time>2015-11-11T09:10:52.000Z</time>
      </trkpt>
      <trkpt lat="47.44388" lon="6.79866">
        <ele>382</ele>
        <time>2015-11-11T09:10:53.000Z</time>
      </trkpt>
      <trkpt lat="47.44385" lon="6.79862">
        <ele>383</ele>
        <time>2015-11-11T09:10:55.000Z</time>
      </trkpt>
      <trkpt lat="47.44384" lon="6.7986">
        <ele>383</ele>
        <time>2015-11-11T09:10:56.000Z</time>
      </trkpt>
      <trkpt lat="47.44386" lon="6.79854">
        <ele>383</ele>
        <time>2015-11-11T09:10:58.000Z</time>
      </trkpt>
      <trkpt lat="47.44387" lon="6.79851">
        <ele>382</ele>
        <time>2015-11-11T09:10:59.000Z</time>
      </trkpt>
      <trkpt lat="47.44389" lon="6.79847">
        <ele>382</ele>
        <time>2015-11-11T09:11:00.000Z</time>
      </trkpt>
      <trkpt lat="47.44391" lon="6.79844">
        <ele>382</ele>
        <time>2015-11-11T09:11:01.000Z</time>
      </trkpt>
      <trkpt lat="47.44392" lon="6.79841">
        <ele>381</ele>
        <time>2015-11-11T09:11:02.000Z</time>
      </trkpt>
      <trkpt lat="47.44393" lon="6.79838">
        <ele>381</ele>
        <time>2015-11-11T09:11:03.000Z</time>
      </trkpt>
      <trkpt lat="47.44395" lon="6.79835">
        <ele>381</ele>
        <time>2015-11-11T09:11:05.000Z</time>
      </trkpt>
      <trkpt lat="47.44396" lon="6.79833">
        <ele>382</ele>
        <time>2015-11-11T09:11:06.000Z</time>
      </trkpt>
      <trkpt lat="47.44398" lon="6.79828">
        <ele>382</ele>
        <time>2015-11-11T09:11:09.000Z</time>
      </trkpt>
      <trkpt lat="47.44399" lon="6.79827">
        <ele>382</ele>
        <time>2015-11-11T09:11:10.000Z</time>
      </trkpt>
      <trkpt lat="47.44398" lon="6.7982">
        <ele>383</ele>
        <time>2015-11-11T09:11:12.000Z</time>
      </trkpt>
      <trkpt lat="47.44398" lon="6.79817">
        <ele>383</ele>
        <time>2015-11-11T09:11:13.000Z</time>
      </trkpt>
      <trkpt lat="47.44399" lon="6.79811">
        <ele>384</ele>
        <time>2015-11-11T09:11:15.000Z</time>
      </trkpt>
      <trkpt lat="47.44399" lon="6.79808">
        <ele>384</ele>
        <time>2015-11-11T09:11:16.000Z</time>
      </trkpt>
      <trkpt lat="47.444" lon="6.79804">
        <ele>384</ele>
        <time>2015-11-11T09:11:17.000Z</time>
      </trkpt>
      <trkpt lat="47.44401" lon="6.79801">
        <ele>384</ele>
        <time>2015-11-11T09:11:18.000Z</time>
      </trkpt>
      <trkpt lat="47.44401" lon="6.79799">
        <ele>384</ele>
        <time>2015-11-11T09:11:19.001Z</time>
      </trkpt>
      <trkpt lat="47.44403" lon="6.79795">
        <ele>385</ele>
        <time>2015-11-11T09:11:20.000Z</time>
      </trkpt>
      <trkpt lat="47.44404" lon="6.7979">
        <ele>385</ele>
        <time>2015-11-11T09:11:22.000Z</time>
      </trkpt>
      <trkpt lat="47.44404" lon="6.79788">
        <ele>385</ele>
        <time>2015-11-11T09:11:23.000Z</time>
      </trkpt>
      <trkpt lat="47.444" lon="6.79785">
        <ele>385</ele>
        <time>2015-11-11T09:11:26.000Z</time>
      </trkpt>
      <trkpt lat="47.44398" lon="6.79784">
        <ele>385</ele>
        <time>2015-11-11T09:11:27.000Z</time>
      </trkpt>
      <trkpt lat="47.44394" lon="6.79786">
        <ele>386</ele>
        <time>2015-11-11T09:11:30.000Z</time>
      </trkpt>
      <trkpt lat="47.44394" lon="6.79788">
        <ele>386</ele>
        <time>2015-11-11T09:11:31.000Z</time>
      </trkpt>
      <trkpt lat="47.44391" lon="6.79791">
        <ele>386</ele>
        <time>2015-11-11T09:11:36.000Z</time>
      </trkpt>
      <trkpt lat="47.44389" lon="6.79791">
        <ele>386</ele>
        <time>2015-11-11T09:11:37.000Z</time>
      </trkpt>
      <trkpt lat="47.44386" lon="6.79792">
        <ele>386</ele>
        <time>2015-11-11T09:11:38.000Z</time>
      </trkpt>
      <trkpt lat="47.44383" lon="6.79792">
        <ele>387</ele>
        <time>2015-11-11T09:11:39.000Z</time>
      </trkpt>
      <trkpt lat="47.4438" lon="6.79793">
        <ele>387</ele>
        <time>2015-11-11T09:11:40.000Z</time>
      </trkpt>
      <trkpt lat="47.44378" lon="6.79794">
        <ele>387</ele>
        <time>2015-11-11T09:11:41.000Z</time>
      </trkpt>
      <trkpt lat="47.44375" lon="6.79796">
        <ele>388</ele>
        <time>2015-11-11T09:11:43.000Z</time>
      </trkpt>
      <trkpt lat="47.44373" lon="6.79796">
        <ele>388</ele>
        <time>2015-11-11T09:11:44.000Z</time>
      </trkpt>
      <trkpt lat="47.44371" lon="6.79798">
        <ele>388</ele>
        <time>2015-11-11T09:11:46.000Z</time>
      </trkpt>
      <trkpt lat="47.44369" lon="6.79799">
        <ele>388</ele>
        <time>2015-11-11T09:11:47.000Z</time>
      </trkpt>
      <trkpt lat="47.44366" lon="6.79803">
        <ele>389</ele>
        <time>2015-11-11T09:11:49.000Z</time>
      </trkpt>
      <trkpt lat="47.44364" lon="6.79805">
        <ele>389</ele>
        <time>2015-11-11T09:11:50.000Z</time>
      </trkpt>
      <trkpt lat="47.44361" lon="6.79807">
        <ele>389</ele>
        <time>2015-11-11T09:11:52.000Z</time>
      </trkpt>
      <trkpt lat="47.4436" lon="6.79808">
        <ele>389</ele>
        <time>2015-11-11T09:11:52.998Z</time>
      </trkpt>
      <trkpt lat="47.44357" lon="6.79807">
        <ele>390</ele>
        <time>2015-11-11T09:11:56.001Z</time>
      </trkpt>
      <trkpt lat="47.44353" lon="6.79808">
        <ele>390</ele>
        <time>2015-11-11T09:11:57.000Z</time>
      </trkpt>
      <trkpt lat="47.44351" lon="6.7981">
        <ele>390</ele>
        <time>2015-11-11T09:11:58.000Z</time>
      </trkpt>
      <trkpt lat="47.44348" lon="6.79812">
        <ele>391</ele>
        <time>2015-11-11T09:11:59.000Z</time>
      </trkpt>
      <trkpt lat="47.44347" lon="6.79815">
        <ele>391</ele>
        <time>2015-11-11T09:12:00.000Z</time>
      </trkpt>
      <trkpt lat="47.44345" lon="6.79817">
        <ele>391</ele>
        <time>2015-11-11T09:12:01.000Z</time>
      </trkpt>
      <trkpt lat="47.44343" lon="6.79822">
        <ele>392</ele>
        <time>2015-11-11T09:12:03.000Z</time>
      </trkpt>
      <trkpt lat="47.44342" lon="6.79824">
        <ele>392</ele>
        <time>2015-11-11T09:12:04.000Z</time>
      </trkpt>
      <trkpt lat="47.44341" lon="6.79828">
        <ele>393</ele>
        <time>2015-11-11T09:12:06.000Z</time>
      </trkpt>
      <trkpt lat="47.4434" lon="6.7983">
        <ele>393</ele>
        <time>2015-11-11T09:12:07.000Z</time>
      </trkpt>
      <trkpt lat="47.44337" lon="6.79833">
        <ele>394</ele>
        <time>2015-11-11T09:12:09.000Z</time>
      </trkpt>
      <trkpt lat="47.44335" lon="6.79835">
        <ele>394</ele>
        <time>2015-11-11T09:12:10.000Z</time>
      </trkpt>
      <trkpt lat="47.44331" lon="6.79839">
        <ele>397</ele>
        <time>2015-11-11T09:12:12.000Z</time>
      </trkpt>
      <trkpt lat="47.4433" lon="6.7984">
        <ele>397</ele>
        <time>2015-11-11T09:12:13.000Z</time>
      </trkpt>
      <trkpt lat="47.44326" lon="6.79842">
        <ele>398</ele>
        <time>2015-11-11T09:12:15.000Z</time>
      </trkpt>
      <trkpt lat="47.44325" lon="6.79844">
        <ele>399</ele>
        <time>2015-11-11T09:12:16.000Z</time>
      </trkpt>
      <trkpt lat="47.44322" lon="6.79849">
        <ele>400</ele>
        <time>2015-11-11T09:12:19.000Z</time>
      </trkpt>
      <trkpt lat="47.44321" lon="6.7985">
        <ele>400</ele>
        <time>2015-11-11T09:12:20.000Z</time>
      </trkpt>
      <trkpt lat="47.44319" lon="6.79854">
        <ele>401</ele>
        <time>2015-11-11T09:12:22.000Z</time>
      </trkpt>
      <trkpt lat="47.44318" lon="6.79856">
        <ele>401</ele>
        <time>2015-11-11T09:12:23.000Z</time>
      </trkpt>
      <trkpt lat="47.44316" lon="6.79861">
        <ele>401</ele>
        <time>2015-11-11T09:12:26.000Z</time>
      </trkpt>
      <trkpt lat="47.44316" lon="6.79863">
        <ele>401</ele>
        <time>2015-11-11T09:12:27.000Z</time>
      </trkpt>
      <trkpt lat="47.44313" lon="6.79867">
        <ele>402</ele>
        <time>2015-11-11T09:12:30.000Z</time>
      </trkpt>
      <trkpt lat="47.44312" lon="6.79869">
        <ele>402</ele>
        <time>2015-11-11T09:12:31.000Z</time>
      </trkpt>
      <trkpt lat="47.44309" lon="6.79873">
        <ele>402</ele>
        <time>2015-11-11T09:12:34.000Z</time>
      </trkpt>
      <trkpt lat="47.44308" lon="6.79875">
        <ele>402</ele>
        <time>2015-11-11T09:12:35.000Z</time>
      </trkpt>
      <trkpt lat="47.44305" lon="6.79879">
        <ele>402</ele>
        <time>2015-11-11T09:12:38.000Z</time>
      </trkpt>
      <trkpt lat="47.44303" lon="6.79879">
        <ele>402</ele>
        <time>2015-11-11T09:12:39.000Z</time>
      </trkpt>
      <trkpt lat="47.44299" lon="6.79878">
        <ele>403</ele>
        <time>2015-11-11T09:12:41.000Z</time>
      </trkpt>
      <trkpt lat="47.44297" lon="6.79878">
        <ele>403</ele>
        <time>2015-11-11T09:12:42.000Z</time>
      </trkpt>
      <trkpt lat="47.44293" lon="6.79877">
        <ele>404</ele>
        <time>2015-11-11T09:12:44.000Z</time>
      </trkpt>
      <trkpt lat="47.44291" lon="6.79877">
        <ele>404</ele>
        <time>2015-11-11T09:12:45.000Z</time>
      </trkpt>
      <trkpt lat="47.44287" lon="6.79879">
        <ele>405</ele>
        <time>2015-11-11T09:12:48.000Z</time>
      </trkpt>
      <trkpt lat="47.44286" lon="6.7988">
        <ele>405</ele>
        <time>2015-11-11T09:12:49.000Z</time>
      </trkpt>
      <trkpt lat="47.44282" lon="6.7988">
        <ele>405</ele>
        <time>2015-11-11T09:12:52.000Z</time>
      </trkpt>
      <trkpt lat="47.44281" lon="6.7988">
        <ele>406</ele>
        <time>2015-11-11T09:12:53.000Z</time>
      </trkpt>
      <trkpt lat="47.44277" lon="6.7988">
        <ele>406</ele>
        <time>2015-11-11T09:12:57.000Z</time>
      </trkpt>
      <trkpt lat="47.44275" lon="6.7988">
        <ele>406</ele>
        <time>2015-11-11T09:12:58.000Z</time>
      </trkpt>
      <trkpt lat="47.44272" lon="6.79881">
        <ele>407</ele>
        <time>2015-11-11T09:13:01.000Z</time>
      </trkpt>
      <trkpt lat="47.4427" lon="6.79882">
        <ele>407</ele>
        <time>2015-11-11T09:13:02.000Z</time>
      </trkpt>
      <trkpt lat="47.44267" lon="6.79883">
        <ele>407</ele>
        <time>2015-11-11T09:13:05.000Z</time>
      </trkpt>
      <trkpt lat="47.44265" lon="6.79883">
        <ele>407</ele>
        <time>2015-11-11T09:13:06.000Z</time>
      </trkpt>
      <trkpt lat="47.44261" lon="6.79882">
        <ele>408</ele>
        <time>2015-11-11T09:13:10.000Z</time>
      </trkpt>
      <trkpt lat="47.4426" lon="6.79883">
        <ele>408</ele>
        <time>2015-11-11T09:13:11.000Z</time>
      </trkpt>
      <trkpt lat="47.44256" lon="6.79885">
        <ele>408</ele>
        <time>2015-11-11T09:13:14.000Z</time>
      </trkpt>
      <trkpt lat="47.44255" lon="6.79885">
        <ele>408</ele>
        <time>2015-11-11T09:13:15.000Z</time>
      </trkpt>
      <trkpt lat="47.4425" lon="6.79886">
        <ele>408</ele>
        <time>2015-11-11T09:13:18.000Z</time>
      </trkpt>
      <trkpt lat="47.44249" lon="6.79887">
        <ele>420</ele>
        <time>2015-11-11T09:13:19.000Z</time>
      </trkpt>
      <trkpt lat="47.44246" lon="6.7989">
        <ele>420</ele>
        <time>2015-11-11T09:13:22.000Z</time>
      </trkpt>
      <trkpt lat="47.44244" lon="6.79891">
        <ele>420</ele>
        <time>2015-11-11T09:13:23.000Z</time>
      </trkpt>
      <trkpt lat="47.4424" lon="6.79894">
        <ele>420</ele>
        <time>2015-11-11T09:13:26.000Z</time>
      </trkpt>
      <trkpt lat="47.44239" lon="6.79894">
        <ele>420</ele>
        <time>2015-11-11T09:13:27.000Z</time>
      </trkpt>
      <trkpt lat="47.44235" lon="6.79895">
        <ele>420</ele>
        <time>2015-11-11T09:13:30.000Z</time>
      </trkpt>
      <trkpt lat="47.44233" lon="6.79896">
        <ele>420</ele>
        <time>2015-11-11T09:13:31.000Z</time>
      </trkpt>
      <trkpt lat="47.44229" lon="6.79898">
        <ele>420</ele>
        <time>2015-11-11T09:13:34.000Z</time>
      </trkpt>
      <trkpt lat="47.44228" lon="6.79899">
        <ele>420</ele>
        <time>2015-11-11T09:13:35.000Z</time>
      </trkpt>
      <trkpt lat="47.44224" lon="6.79901">
        <ele>421</ele>
        <time>2015-11-11T09:13:38.000Z</time>
      </trkpt>
      <trkpt lat="47.44223" lon="6.79902">
        <ele>421</ele>
        <time>2015-11-11T09:13:39.000Z</time>
      </trkpt>
      <trkpt lat="47.44219" lon="6.79903">
        <ele>421</ele>
        <time>2015-11-11T09:13:43.000Z</time>
      </trkpt>
      <trkpt lat="47.44218" lon="6.79904">
        <ele>421</ele>
        <time>2015-11-11T09:13:44.000Z</time>
      </trkpt>
      <trkpt lat="47.44215" lon="6.79907">
        <ele>422</ele>
        <time>2015-11-11T09:13:47.000Z</time>
      </trkpt>
      <trkpt lat="47.44214" lon="6.79907">
        <ele>422</ele>
        <time>2015-11-11T09:13:48.000Z</time>
      </trkpt>
      <trkpt lat="47.44211" lon="6.79911">
        <ele>422</ele>
        <time>2015-11-11T09:13:51.000Z</time>
      </trkpt>
      <trkpt lat="47.4421" lon="6.79911">
        <ele>422</ele>
        <time>2015-11-11T09:13:52.000Z</time>
      </trkpt>
      <trkpt lat="47.44206" lon="6.79914">
        <ele>423</ele>
        <time>2015-11-11T09:13:55.000Z</time>
      </trkpt>
      <trkpt lat="47.44205" lon="6.79916">
        <ele>423</ele>
        <time>2015-11-11T09:13:56.000Z</time>
      </trkpt>
      <trkpt lat="47.44202" lon="6.79912">
        <ele>423</ele>
        <time>2015-11-11T09:14:09.000Z</time>
      </trkpt>
      <trkpt lat="47.44202" lon="6.79911">
        <ele>423</ele>
        <time>2015-11-11T09:14:10.000Z</time>
      </trkpt>
      <trkpt lat="47.44203" lon="6.79905">
        <ele>423</ele>
        <time>2015-11-11T09:14:15.000Z</time>
      </trkpt>
      <trkpt lat="47.44202" lon="6.79901">
        <ele>424</ele>
        <time>2015-11-11T09:14:17.000Z</time>
      </trkpt>
      <trkpt lat="47.44203" lon="6.79895">
        <ele>424</ele>
        <time>2015-11-11T09:14:20.000Z</time>
      </trkpt>
      <trkpt lat="47.44203" lon="6.79894">
        <ele>424</ele>
        <time>2015-11-11T09:14:21.000Z</time>
      </trkpt>
      <trkpt lat="47.44206" lon="6.79889">
        <ele>424</ele>
        <time>2015-11-11T09:14:24.000Z</time>
      </trkpt>
      <trkpt lat="47.44207" lon="6.79887">
        <ele>424</ele>
        <time>2015-11-11T09:14:25.000Z</time>
      </trkpt>
      <trkpt lat="47.44207" lon="6.79883">
        <ele>424</ele>
        <time>2015-11-11T09:14:27.000Z</time>
      </trkpt>
      <trkpt lat="47.44206" lon="6.7988">
        <ele>424</ele>
        <time>2015-11-11T09:14:28.000Z</time>
      </trkpt>
      <trkpt lat="47.44205" lon="6.79875">
        <ele>424</ele>
        <time>2015-11-11T09:14:30.000Z</time>
      </trkpt>
      <trkpt lat="47.44205" lon="6.79873">
        <ele>424</ele>
        <time>2015-11-11T09:14:31.000Z</time>
      </trkpt>
      <trkpt lat="47.44204" lon="6.79866">
        <ele>425</ele>
        <time>2015-11-11T09:14:34.000Z</time>
      </trkpt>
      <trkpt lat="47.44204" lon="6.79864">
        <ele>425</ele>
        <time>2015-11-11T09:14:35.000Z</time>
      </trkpt>
      <trkpt lat="47.44202" lon="6.7986">
        <ele>425</ele>
        <time>2015-11-11T09:14:37.000Z</time>
      </trkpt>
      <trkpt lat="47.44202" lon="6.79858">
        <ele>425</ele>
        <time>2015-11-11T09:14:38.000Z</time>
      </trkpt>
      <trkpt lat="47.44201" lon="6.79853">
        <ele>426</ele>
        <time>2015-11-11T09:14:40.000Z</time>
      </trkpt>
      <trkpt lat="47.44201" lon="6.79851">
        <ele>426</ele>
        <time>2015-11-11T09:14:41.000Z</time>
      </trkpt>
      <trkpt lat="47.44201" lon="6.79846">
        <ele>426</ele>
        <time>2015-11-11T09:14:43.000Z</time>
      </trkpt>
      <trkpt lat="47.44201" lon="6.79843">
        <ele>426</ele>
        <time>2015-11-11T09:14:44.000Z</time>
      </trkpt>
      <trkpt lat="47.44201" lon="6.79837">
        <ele>426</ele>
        <time>2015-11-11T09:14:46.000Z</time>
      </trkpt>
      <trkpt lat="47.44202" lon="6.79834">
        <ele>426</ele>
        <time>2015-11-11T09:14:47.000Z</time>
      </trkpt>
      <trkpt lat="47.44202" lon="6.79829">
        <ele>430</ele>
        <time>2015-11-11T09:14:49.000Z</time>
      </trkpt>
      <trkpt lat="47.44202" lon="6.79826">
        <ele>430</ele>
        <time>2015-11-11T09:14:50.000Z</time>
      </trkpt>
      <trkpt lat="47.44202" lon="6.7982">
        <ele>430</ele>
        <time>2015-11-11T09:14:52.000Z</time>
      </trkpt>
      <trkpt lat="47.44202" lon="6.79817">
        <ele>430</ele>
        <time>2015-11-11T09:14:53.000Z</time>
      </trkpt>
      <trkpt lat="47.44201" lon="6.79812">
        <ele>430</ele>
        <time>2015-11-11T09:14:55.000Z</time>
      </trkpt>
      <trkpt lat="47.44201" lon="6.79809">
        <ele>430</ele>
        <time>2015-11-11T09:14:56.000Z</time>
      </trkpt>
      <trkpt lat="47.44201" lon="6.79804">
        <ele>430</ele>
        <time>2015-11-11T09:14:58.000Z</time>
      </trkpt>
      <trkpt lat="47.442" lon="6.79801">
        <ele>430</ele>
        <time>2015-11-11T09:14:59.000Z</time>
      </trkpt>
      <trkpt lat="47.442" lon="6.79796">
        <ele>431</ele>
        <time>2015-11-11T09:15:01.000Z</time>
      </trkpt>
      <trkpt lat="47.44201" lon="6.79793">
        <ele>431</ele>
        <time>2015-11-11T09:15:02.000Z</time>
      </trkpt>
      <trkpt lat="47.44202" lon="6.79788">
        <ele>431</ele>
        <time>2015-11-11T09:15:04.000Z</time>
      </trkpt>
      <trkpt lat="47.44202" lon="6.79786">
        <ele>431</ele>
        <time>2015-11-11T09:15:05.000Z</time>
      </trkpt>
      <trkpt lat="47.44203" lon="6.79781">
        <ele>431</ele>
        <time>2015-11-11T09:15:07.000Z</time>
      </trkpt>
      <trkpt lat="47.44204" lon="6.79778">
        <ele>431</ele>
        <time>2015-11-11T09:15:08.000Z</time>
      </trkpt>
      <trkpt lat="47.44204" lon="6.79773">
        <ele>431</ele>
        <time>2015-11-11T09:15:10.000Z</time>
      </trkpt>
      <trkpt lat="47.44204" lon="6.79769">
        <ele>431</ele>
        <time>2015-11-11T09:15:11.000Z</time>
      </trkpt>
      <trkpt lat="47.44205" lon="6.79766">
        <ele>431</ele>
        <time>2015-11-11T09:15:12.000Z</time>
      </trkpt>
      <trkpt lat="47.44205" lon="6.79763">
        <ele>431</ele>
        <time>2015-11-11T09:15:13.000Z</time>
      </trkpt>
      <trkpt lat="47.44206" lon="6.79759">
        <ele>431</ele>
        <time>2015-11-11T09:15:14.000Z</time>
      </trkpt>
      <trkpt lat="47.44206" lon="6.79756">
        <ele>431</ele>
        <time>2015-11-11T09:15:15.000Z</time>
      </trkpt>
      <trkpt lat="47.44206" lon="6.7975">
        <ele>431</ele>
        <time>2015-11-11T09:15:17.000Z</time>
      </trkpt>
      <trkpt lat="47.44206" lon="6.79747">
        <ele>433</ele>
        <time>2015-11-11T09:15:18.000Z</time>
      </trkpt>
      <trkpt lat="47.44206" lon="6.79742">
        <ele>433</ele>
        <time>2015-11-11T09:15:20.000Z</time>
      </trkpt>
      <trkpt lat="47.44206" lon="6.7974">
        <ele>433</ele>
        <time>2015-11-11T09:15:21.000Z</time>
      </trkpt>
      <trkpt lat="47.44206" lon="6.79735">
        <ele>433</ele>
        <time>2015-11-11T09:15:23.000Z</time>
      </trkpt>
      <trkpt lat="47.44207" lon="6.79732">
        <ele>433</ele>
        <time>2015-11-11T09:15:24.000Z</time>
      </trkpt>
      <trkpt lat="47.44207" lon="6.79727">
        <ele>434</ele>
        <time>2015-11-11T09:15:26.000Z</time>
      </trkpt>
      <trkpt lat="47.44208" lon="6.79724">
        <ele>434</ele>
        <time>2015-11-11T09:15:27.000Z</time>
      </trkpt>
      <trkpt lat="47.44209" lon="6.79719">
        <ele>433</ele>
        <time>2015-11-11T09:15:29.000Z</time>
      </trkpt>
      <trkpt lat="47.44209" lon="6.79716">
        <ele>433</ele>
        <time>2015-11-11T09:15:30.000Z</time>
      </trkpt>
      <trkpt lat="47.4421" lon="6.79711">
        <ele>434</ele>
        <time>2015-11-11T09:15:32.000Z</time>
      </trkpt>
      <trkpt lat="47.4421" lon="6.79708">
        <ele>434</ele>
        <time>2015-11-11T09:15:33.000Z</time>
      </trkpt>
      <trkpt lat="47.4421" lon="6.79703">
        <ele>434</ele>
        <time>2015-11-11T09:15:35.000Z</time>
      </trkpt>
      <trkpt lat="47.4421" lon="6.797">
        <ele>434</ele>
        <time>2015-11-11T09:15:36.000Z</time>
      </trkpt>
      <trkpt lat="47.44209" lon="6.79696">
        <ele>434</ele>
        <time>2015-11-11T09:15:38.000Z</time>
      </trkpt>
      <trkpt lat="47.44208" lon="6.79694">
        <ele>434</ele>
        <time>2015-11-11T09:15:39.000Z</time>
      </trkpt>
      <trkpt lat="47.44205" lon="6.79689">
        <ele>435</ele>
        <time>2015-11-11T09:15:42.000Z</time>
      </trkpt>
      <trkpt lat="47.44203" lon="6.79688">
        <ele>435</ele>
        <time>2015-11-11T09:15:43.000Z</time>
      </trkpt>
      <trkpt lat="47.442" lon="6.79685">
        <ele>435</ele>
        <time>2015-11-11T09:15:46.000Z</time>
      </trkpt>
      <trkpt lat="47.44198" lon="6.79683">
        <ele>435</ele>
        <time>2015-11-11T09:15:47.000Z</time>
      </trkpt>
      <trkpt lat="47.44195" lon="6.79681">
        <ele>436</ele>
        <time>2015-11-11T09:15:49.000Z</time>
      </trkpt>
      <trkpt lat="47.44193" lon="6.7968">
        <ele>436</ele>
        <time>2015-11-11T09:15:50.000Z</time>
      </trkpt>
      <trkpt lat="47.44189" lon="6.79679">
        <ele>437</ele>
        <time>2015-11-11T09:15:52.001Z</time>
      </trkpt>
      <trkpt lat="47.44187" lon="6.79679">
        <ele>437</ele>
        <time>2015-11-11T09:15:53.000Z</time>
      </trkpt>
      <trkpt lat="47.44182" lon="6.7968">
        <ele>438</ele>
        <time>2015-11-11T09:15:56.000Z</time>
      </trkpt>
      <trkpt lat="47.44181" lon="6.7968">
        <ele>438</ele>
        <time>2015-11-11T09:15:57.000Z</time>
      </trkpt>
      <trkpt lat="47.44177" lon="6.79677">
        <ele>439</ele>
        <time>2015-11-11T09:16:01.000Z</time>
      </trkpt>
      <trkpt lat="47.44177" lon="6.79676">
        <ele>439</ele>
        <time>2015-11-11T09:16:02.000Z</time>
      </trkpt>
      <trkpt lat="47.44175" lon="6.79671">
        <ele>440</ele>
        <time>2015-11-11T09:16:08.000Z</time>
      </trkpt>
      <trkpt lat="47.44175" lon="6.7967">
        <ele>440</ele>
        <time>2015-11-11T09:16:09.000Z</time>
      </trkpt>
      <trkpt lat="47.44172" lon="6.79668">
        <ele>441</ele>
        <time>2015-11-11T09:16:13.000Z</time>
      </trkpt>
      <trkpt lat="47.44169" lon="6.79666">
        <ele>442</ele>
        <time>2015-11-11T09:16:14.000Z</time>
      </trkpt>
      <trkpt lat="47.44167" lon="6.79666">
        <ele>443</ele>
        <time>2015-11-11T09:16:16.000Z</time>
      </trkpt>
      <trkpt lat="47.44164" lon="6.79666">
        <ele>443</ele>
        <time>2015-11-11T09:16:17.000Z</time>
      </trkpt>
      <trkpt lat="47.4416" lon="6.79667">
        <ele>444</ele>
        <time>2015-11-11T09:16:19.000Z</time>
      </trkpt>
      <trkpt lat="47.44159" lon="6.79668">
        <ele>444</ele>
        <time>2015-11-11T09:16:20.000Z</time>
      </trkpt>
      <trkpt lat="47.44156" lon="6.79669">
        <ele>445</ele>
        <time>2015-11-11T09:16:22.000Z</time>
      </trkpt>
      <trkpt lat="47.44154" lon="6.7967">
        <ele>445</ele>
        <time>2015-11-11T09:16:23.000Z</time>
      </trkpt>
      <trkpt lat="47.44151" lon="6.7967">
        <ele>445</ele>
        <time>2015-11-11T09:16:24.000Z</time>
      </trkpt>
      <trkpt lat="47.44148" lon="6.7967">
        <ele>446</ele>
        <time>2015-11-11T09:16:25.000Z</time>
      </trkpt>
      <trkpt lat="47.44145" lon="6.79669">
        <ele>446</ele>
        <time>2015-11-11T09:16:26.000Z</time>
      </trkpt>
      <trkpt lat="47.44143" lon="6.79668">
        <ele>446</ele>
        <time>2015-11-11T09:16:27.000Z</time>
      </trkpt>
      <trkpt lat="47.4414" lon="6.79665">
        <ele>446</ele>
        <time>2015-11-11T09:16:29.000Z</time>
      </trkpt>
      <trkpt lat="47.44139" lon="6.79664">
        <ele>446</ele>
        <time>2015-11-11T09:16:30.000Z</time>
      </trkpt>
      <trkpt lat="47.44134" lon="6.79663">
        <ele>447</ele>
        <time>2015-11-11T09:16:33.000Z</time>
      </trkpt>
      <trkpt lat="47.44133" lon="6.79662">
        <ele>447</ele>
        <time>2015-11-11T09:16:34.000Z</time>
      </trkpt>
      <trkpt lat="47.44129" lon="6.7966">
        <ele>447</ele>
        <time>2015-11-11T09:16:36.000Z</time>
      </trkpt>
      <trkpt lat="47.44128" lon="6.79658">
        <ele>447</ele>
        <time>2015-11-11T09:16:37.000Z</time>
      </trkpt>
      <trkpt lat="47.44126" lon="6.79656">
        <ele>448</ele>
        <time>2015-11-11T09:16:38.000Z</time>
      </trkpt>
      <trkpt lat="47.44124" lon="6.79654">
        <ele>448</ele>
        <time>2015-11-11T09:16:39.000Z</time>
      </trkpt>
      <trkpt lat="47.4412" lon="6.79651">
        <ele>448</ele>
        <time>2015-11-11T09:16:41.000Z</time>
      </trkpt>
      <trkpt lat="47.44118" lon="6.7965">
        <ele>448</ele>
        <time>2015-11-11T09:16:42.000Z</time>
      </trkpt>
      <trkpt lat="47.44115" lon="6.79648">
        <ele>448</ele>
        <time>2015-11-11T09:16:43.000Z</time>
      </trkpt>
      <trkpt lat="47.44113" lon="6.79647">
        <ele>449</ele>
        <time>2015-11-11T09:16:44.000Z</time>
      </trkpt>
      <trkpt lat="47.44109" lon="6.79645">
        <ele>449</ele>
        <time>2015-11-11T09:16:46.000Z</time>
      </trkpt>
      <trkpt lat="47.44107" lon="6.79644">
        <ele>449</ele>
        <time>2015-11-11T09:16:47.000Z</time>
      </trkpt>
      <trkpt lat="47.44104" lon="6.79643">
        <ele>449</ele>
        <time>2015-11-11T09:16:48.000Z</time>
      </trkpt>
      <trkpt lat="47.44102" lon="6.79642">
        <ele>449</ele>
        <time>2015-11-11T09:16:49.000Z</time>
      </trkpt>
      <trkpt lat="47.44098" lon="6.7964">
        <ele>449</ele>
        <time>2015-11-11T09:16:51.000Z</time>
      </trkpt>
      <trkpt lat="47.44096" lon="6.79639">
        <ele>449</ele>
        <time>2015-11-11T09:16:52.000Z</time>
      </trkpt>
      <trkpt lat="47.44094" lon="6.79638">
        <ele>449</ele>
        <time>2015-11-11T09:16:53.000Z</time>
      </trkpt>
      <trkpt lat="47.44091" lon="6.79637">
        <ele>449</ele>
        <time>2015-11-11T09:16:54.000Z</time>
      </trkpt>
      <trkpt lat="47.44089" lon="6.79635">
        <ele>449</ele>
        <time>2015-11-11T09:16:55.000Z</time>
      </trkpt>
      <trkpt lat="47.44086" lon="6.79633">
        <ele>449</ele>
        <time>2015-11-11T09:16:56.000Z</time>
      </trkpt>
      <trkpt lat="47.44084" lon="6.79631">
        <ele>449</ele>
        <time>2015-11-11T09:16:57.000Z</time>
      </trkpt>
      <trkpt lat="47.44082" lon="6.79629">
        <ele>454</ele>
        <time>2015-11-11T09:16:58.000Z</time>
      </trkpt>
      <trkpt lat="47.4408" lon="6.79628">
        <ele>454</ele>
        <time>2015-11-11T09:16:59.000Z</time>
      </trkpt>
      <trkpt lat="47.44077" lon="6.79626">
        <ele>454</ele>
        <time>2015-11-11T09:17:00.000Z</time>
      </trkpt>
      <trkpt lat="47.44075" lon="6.79625">
        <ele>454</ele>
        <time>2015-11-11T09:17:01.000Z</time>
      </trkpt>
      <trkpt lat="47.44072" lon="6.79623">
        <ele>454</ele>
        <time>2015-11-11T09:17:02.000Z</time>
      </trkpt>
      <trkpt lat="47.4407" lon="6.79621">
        <ele>454</ele>
        <time>2015-11-11T09:17:03.000Z</time>
      </trkpt>
      <trkpt lat="47.44067" lon="6.79619">
        <ele>454</ele>
        <time>2015-11-11T09:17:04.000Z</time>
      </trkpt>
      <trkpt lat="47.44063" lon="6.79617">
        <ele>454</ele>
        <time>2015-11-11T09:17:06.000Z</time>
      </trkpt>
      <trkpt lat="47.44061" lon="6.79616">
        <ele>454</ele>
        <time>2015-11-11T09:17:07.000Z</time>
      </trkpt>
      <trkpt lat="47.44059" lon="6.79615">
        <ele>454</ele>
        <time>2015-11-11T09:17:08.000Z</time>
      </trkpt>
      <trkpt lat="47.44057" lon="6.79613">
        <ele>454</ele>
        <time>2015-11-11T09:17:09.000Z</time>
      </trkpt>
      <trkpt lat="47.44054" lon="6.79612">
        <ele>454</ele>
        <time>2015-11-11T09:17:10.000Z</time>
      </trkpt>
      <trkpt lat="47.44051" lon="6.79611">
        <ele>454</ele>
        <time>2015-11-11T09:17:11.000Z</time>
      </trkpt>
      <trkpt lat="47.44048" lon="6.7961">
        <ele>454</ele>
        <time>2015-11-11T09:17:12.000Z</time>
      </trkpt>
      <trkpt lat="47.44046" lon="6.79609">
        <ele>454</ele>
        <time>2015-11-11T09:17:13.000Z</time>
      </trkpt>
      <trkpt lat="47.44043" lon="6.79608">
        <ele>454</ele>
        <time>2015-11-11T09:17:14.000Z</time>
      </trkpt>
      <trkpt lat="47.44041" lon="6.79607">
        <ele>454</ele>
        <time>2015-11-11T09:17:15.000Z</time>
      </trkpt>
      <trkpt lat="47.44037" lon="6.79606">
        <ele>455</ele>
        <time>2015-11-11T09:17:17.000Z</time>
      </trkpt>
      <trkpt lat="47.44035" lon="6.79605">
        <ele>455</ele>
        <time>2015-11-11T09:17:18.000Z</time>
      </trkpt>
      <trkpt lat="47.44032" lon="6.79604">
        <ele>455</ele>
        <time>2015-11-11T09:17:20.000Z</time>
      </trkpt>
      <trkpt lat="47.4403" lon="6.79602">
        <ele>455</ele>
        <time>2015-11-11T09:17:21.000Z</time>
      </trkpt>
      <trkpt lat="47.44027" lon="6.796">
        <ele>455</ele>
        <time>2015-11-11T09:17:23.000Z</time>
      </trkpt>
      <trkpt lat="47.44025" lon="6.79599">
        <ele>455</ele>
        <time>2015-11-11T09:17:24.000Z</time>
      </trkpt>
      <trkpt lat="47.44021" lon="6.79596">
        <ele>455</ele>
        <time>2015-11-11T09:17:26.000Z</time>
      </trkpt>
      <trkpt lat="47.4402" lon="6.79595">
        <ele>455</ele>
        <time>2015-11-11T09:17:27.000Z</time>
      </trkpt>
      <trkpt lat="47.44017" lon="6.79593">
        <ele>455</ele>
        <time>2015-11-11T09:17:29.000Z</time>
      </trkpt>
      <trkpt lat="47.44015" lon="6.79593">
        <ele>455</ele>
        <time>2015-11-11T09:17:30.000Z</time>
      </trkpt>
      <trkpt lat="47.44012" lon="6.79594">
        <ele>455</ele>
        <time>2015-11-11T09:17:32.000Z</time>
      </trkpt>
      <trkpt lat="47.4401" lon="6.79594">
        <ele>455</ele>
        <time>2015-11-11T09:17:33.000Z</time>
      </trkpt>
      <trkpt lat="47.44006" lon="6.79595">
        <ele>455</ele>
        <time>2015-11-11T09:17:35.000Z</time>
      </trkpt>
      <trkpt lat="47.44004" lon="6.79595">
        <ele>455</ele>
        <time>2015-11-11T09:17:36.000Z</time>
      </trkpt>
      <trkpt lat="47.44001" lon="6.79591">
        <ele>456</ele>
        <time>2015-11-11T09:17:41.000Z</time>
      </trkpt>
      <trkpt lat="47.43999" lon="6.7959">
        <ele>457</ele>
        <time>2015-11-11T09:17:42.000Z</time>
      </trkpt>
      <trkpt lat="47.43995" lon="6.7959">
        <ele>457</ele>
        <time>2015-11-11T09:17:44.000Z</time>
      </trkpt>
      <trkpt lat="47.43993" lon="6.79591">
        <ele>457</ele>
        <time>2015-11-11T09:17:45.000Z</time>
      </trkpt>
      <trkpt lat="47.4399" lon="6.79591">
        <ele>457</ele>
        <time>2015-11-11T09:17:47.000Z</time>
      </trkpt>
      <trkpt lat="47.43989" lon="6.79592">
        <ele>457</ele>
        <time>2015-11-11T09:17:48.000Z</time>
      </trkpt>
      <trkpt lat="47.43985" lon="6.79592">
        <ele>458</ele>
        <time>2015-11-11T09:17:50.000Z</time>
      </trkpt>
      <trkpt lat="47.43983" lon="6.79593">
        <ele>458</ele>
        <time>2015-11-11T09:17:51.000Z</time>
      </trkpt>
      <trkpt lat="47.4398" lon="6.79593">
        <ele>458</ele>
        <time>2015-11-11T09:17:52.000Z</time>
      </trkpt>
      <trkpt lat="47.43977" lon="6.79594">
        <ele>458</ele>
        <time>2015-11-11T09:17:53.000Z</time>
      </trkpt>
      <trkpt lat="47.43974" lon="6.79594">
        <ele>458</ele>
        <time>2015-11-11T09:17:54.000Z</time>
      </trkpt>
      <trkpt lat="47.43971" lon="6.79594">
        <ele>458</ele>
        <time>2015-11-11T09:17:55.000Z</time>
      </trkpt>
      <trkpt lat="47.43968" lon="6.79595">
        <ele>459</ele>
        <time>2015-11-11T09:17:56.000Z</time>
      </trkpt>
      <trkpt lat="47.43965" lon="6.79595">
        <ele>459</ele>
        <time>2015-11-11T09:17:57.000Z</time>
      </trkpt>
      <trkpt lat="47.43962" lon="6.79596">
        <ele>459</ele>
        <time>2015-11-11T09:17:58.000Z</time>
      </trkpt>
      <trkpt lat="47.4396" lon="6.79596">
        <ele>459</ele>
        <time>2015-11-11T09:17:59.000Z</time>
      </trkpt>
      <trkpt lat="47.43956" lon="6.79596">
        <ele>459</ele>
        <time>2015-11-11T09:18:01.000Z</time>
      </trkpt>
      <trkpt lat="47.43953" lon="6.79596">
        <ele>459</ele>
        <time>2015-11-11T09:18:02.000Z</time>
      </trkpt>
      <trkpt lat="47.4395" lon="6.79596">
        <ele>459</ele>
        <time>2015-11-11T09:18:03.000Z</time>
      </trkpt>
      <trkpt lat="47.43947" lon="6.79596">
        <ele>460</ele>
        <time>2015-11-11T09:18:04.000Z</time>
      </trkpt>
      <trkpt lat="47.43945" lon="6.79596">
        <ele>460</ele>
        <time>2015-11-11T09:18:05.000Z</time>
      </trkpt>
      <trkpt lat="47.43941" lon="6.79596">
        <ele>460</ele>
        <time>2015-11-11T09:18:06.000Z</time>
      </trkpt>
      <trkpt lat="47.43938" lon="6.79596">
        <ele>460</ele>
        <time>2015-11-11T09:18:07.000Z</time>
      </trkpt>
      <trkpt lat="47.43936" lon="6.79595">
        <ele>460</ele>
        <time>2015-11-11T09:18:08.000Z</time>
      </trkpt>
      <trkpt lat="47.43934" lon="6.79594">
        <ele>460</ele>
        <time>2015-11-11T09:18:09.000Z</time>
      </trkpt>
      <trkpt lat="47.43931" lon="6.79593">
        <ele>460</ele>
        <time>2015-11-11T09:18:10.000Z</time>
      </trkpt>
      <trkpt lat="47.43927" lon="6.79592">
        <ele>461</ele>
        <time>2015-11-11T09:18:12.000Z</time>
      </trkpt>
      <trkpt lat="47.43926" lon="6.79592">
        <ele>461</ele>
        <time>2015-11-11T09:18:13.000Z</time>
      </trkpt>
      <trkpt lat="47.43923" lon="6.79591">
        <ele>461</ele>
        <time>2015-11-11T09:18:16.000Z</time>
      </trkpt>
      <trkpt lat="47.43921" lon="6.79589">
        <ele>461</ele>
        <time>2015-11-11T09:18:17.000Z</time>
      </trkpt>
      <trkpt lat="47.43918" lon="6.79586">
        <ele>462</ele>
        <time>2015-11-11T09:18:18.999Z</time>
      </trkpt>
      <trkpt lat="47.43915" lon="6.79586">
        <ele>462</ele>
        <time>2015-11-11T09:18:20.000Z</time>
      </trkpt>
      <trkpt lat="47.43911" lon="6.79587">
        <ele>463</ele>
        <time>2015-11-11T09:18:23.000Z</time>
      </trkpt>
      <trkpt lat="47.4391" lon="6.79587">
        <ele>463</ele>
        <time>2015-11-11T09:18:24.000Z</time>
      </trkpt>
      <trkpt lat="47.43907" lon="6.79586">
        <ele>463</ele>
        <time>2015-11-11T09:18:27.000Z</time>
      </trkpt>
      <trkpt lat="47.43904" lon="6.79585">
        <ele>463</ele>
        <time>2015-11-11T09:18:28.000Z</time>
      </trkpt>
      <trkpt lat="47.439" lon="6.79582">
        <ele>464</ele>
        <time>2015-11-11T09:18:31.000Z</time>
      </trkpt>
      <trkpt lat="47.43899" lon="6.79581">
        <ele>464</ele>
        <time>2015-11-11T09:18:32.000Z</time>
      </trkpt>
      <trkpt lat="47.43896" lon="6.79579">
        <ele>464</ele>
        <time>2015-11-11T09:18:35.999Z</time>
      </trkpt>
      <trkpt lat="47.43895" lon="6.79578">
        <ele>464</ele>
        <time>2015-11-11T09:18:37.000Z</time>
      </trkpt>
      <trkpt lat="47.43892" lon="6.79572">
        <ele>464</ele>
        <time>2015-11-11T09:18:57.000Z</time>
      </trkpt>
      <trkpt lat="47.43892" lon="6.79572">
        <ele>464</ele>
        <time>2015-11-11T09:18:58.000Z</time>
      </trkpt>
      <trkpt lat="47.43891" lon="6.79566">
        <ele>465</ele>
        <time>2015-11-11T09:19:31.000Z</time>
      </trkpt>
      <trkpt lat="47.43891" lon="6.79565">
        <ele>465</ele>
        <time>2015-11-11T09:19:32.000Z</time>
      </trkpt>
      <trkpt lat="47.43888" lon="6.7956">
        <ele>465</ele>
        <time>2015-11-11T09:20:10.000Z</time>
      </trkpt>
      <trkpt lat="47.43888" lon="6.79558">
        <ele>465</ele>
        <time>2015-11-11T09:20:12.000Z</time>
      </trkpt>
      <trkpt lat="47.43884" lon="6.79556">
        <ele>465</ele>
        <time>2015-11-11T09:20:20.000Z</time>
      </trkpt>
      <trkpt lat="47.43883" lon="6.79555">
        <ele>465</ele>
        <time>2015-11-11T09:20:21.000Z</time>
      </trkpt>
      <trkpt lat="47.43879" lon="6.79552">
        <ele>465</ele>
        <time>2015-11-11T09:20:23.000Z</time>
      </trkpt>
      <trkpt lat="47.43877" lon="6.79551">
        <ele>465</ele>
        <time>2015-11-11T09:20:24.000Z</time>
      </trkpt>
      <trkpt lat="47.43874" lon="6.79549">
        <ele>465</ele>
        <time>2015-11-11T09:20:25.000Z</time>
      </trkpt>
      <trkpt lat="47.43872" lon="6.79547">
        <ele>466</ele>
        <time>2015-11-11T09:20:26.000Z</time>
      </trkpt>
      <trkpt lat="47.4387" lon="6.79546">
        <ele>466</ele>
        <time>2015-11-11T09:20:27.000Z</time>
      </trkpt>
      <trkpt lat="47.43867" lon="6.79545">
        <ele>466</ele>
        <time>2015-11-11T09:20:28.000Z</time>
      </trkpt>
      <trkpt lat="47.43865" lon="6.79544">
        <ele>466</ele>
        <time>2015-11-11T09:20:29.000Z</time>
      </trkpt>
      <trkpt lat="47.43862" lon="6.79544">
        <ele>466</ele>
        <time>2015-11-11T09:20:30.000Z</time>
      </trkpt>
      <trkpt lat="47.4386" lon="6.79544">
        <ele>466</ele>
        <time>2015-11-11T09:20:31.000Z</time>
      </trkpt>
      <trkpt lat="47.43858" lon="6.79544">
        <ele>466</ele>
        <time>2015-11-11T09:20:32.000Z</time>
      </trkpt>
      <trkpt lat="47.43853" lon="6.79543">
        <ele>466</ele>
        <time>2015-11-11T09:20:34.000Z</time>
      </trkpt>
      <trkpt lat="47.43851" lon="6.79543">
        <ele>466</ele>
        <time>2015-11-11T09:20:35.000Z</time>
      </trkpt>
      <trkpt lat="47.43847" lon="6.79543">
        <ele>466</ele>
        <time>2015-11-11T09:20:37.000Z</time>
      </trkpt>
      <trkpt lat="47.43845" lon="6.79543">
        <ele>466</ele>
        <time>2015-11-11T09:20:38.000Z</time>
      </trkpt>
      <trkpt lat="47.43842" lon="6.79544">
        <ele>466</ele>
        <time>2015-11-11T09:20:39.000Z</time>
      </trkpt>
      <trkpt lat="47.4384" lon="6.79544">
        <ele>466</ele>
        <time>2015-11-11T09:20:40.000Z</time>
      </trkpt>
      <trkpt lat="47.43837" lon="6.79545">
        <ele>466</ele>
        <time>2015-11-11T09:20:41.000Z</time>
      </trkpt>
      <trkpt lat="47.43835" lon="6.79544">
        <ele>466</ele>
        <time>2015-11-11T09:20:42.000Z</time>
      </trkpt>
      <trkpt lat="47.43832" lon="6.79544">
        <ele>470</ele>
        <time>2015-11-11T09:20:43.000Z</time>
      </trkpt>
      <trkpt lat="47.4383" lon="6.79544">
        <ele>470</ele>
        <time>2015-11-11T09:20:44.000Z</time>
      </trkpt>
      <trkpt lat="47.43826" lon="6.79544">
        <ele>470</ele>
        <time>2015-11-11T09:20:46.000Z</time>
      </trkpt>
      <trkpt lat="47.43824" lon="6.79545">
        <ele>470</ele>
        <time>2015-11-11T09:20:47.000Z</time>
      </trkpt>
      <trkpt lat="47.43821" lon="6.79547">
        <ele>470</ele>
        <time>2015-11-11T09:20:49.000Z</time>
      </trkpt>
      <trkpt lat="47.4382" lon="6.79548">
        <ele>470</ele>
        <time>2015-11-11T09:20:50.000Z</time>
      </trkpt>
      <trkpt lat="47.43815" lon="6.79548">
        <ele>470</ele>
        <time>2015-11-11T09:20:53.000Z</time>
      </trkpt>
      <trkpt lat="47.43814" lon="6.79546">
        <ele>470</ele>
        <time>2015-11-11T09:20:54.000Z</time>
      </trkpt>
      <trkpt lat="47.43812" lon="6.79542">
        <ele>470</ele>
        <time>2015-11-11T09:20:56.000Z</time>
      </trkpt>
      <trkpt lat="47.43811" lon="6.79539">
        <ele>470</ele>
        <time>2015-11-11T09:20:57.000Z</time>
      </trkpt>
      <trkpt lat="47.4381" lon="6.79536">
        <ele>470</ele>
        <time>2015-11-11T09:20:58.000Z</time>
      </trkpt>
      <trkpt lat="47.43808" lon="6.79532">
        <ele>470</ele>
        <time>2015-11-11T09:20:59.000Z</time>
      </trkpt>
      <trkpt lat="47.43806" lon="6.79527">
        <ele>470</ele>
        <time>2015-11-11T09:21:01.000Z</time>
      </trkpt>
      <trkpt lat="47.43806" lon="6.79524">
        <ele>470</ele>
        <time>2015-11-11T09:21:02.000Z</time>
      </trkpt>
      <trkpt lat="47.43805" lon="6.79521">
        <ele>470</ele>
        <time>2015-11-11T09:21:03.000Z</time>
      </trkpt>
      <trkpt lat="47.43804" lon="6.79517">
        <ele>470</ele>
        <time>2015-11-11T09:21:04.000Z</time>
      </trkpt>
      <trkpt lat="47.43804" lon="6.79512">
        <ele>470</ele>
        <time>2015-11-11T09:21:05.000Z</time>
      </trkpt>
      <trkpt lat="47.43804" lon="6.79507">
        <ele>470</ele>
        <time>2015-11-11T09:21:06.000Z</time>
      </trkpt>
      <trkpt lat="47.43803" lon="6.79503">
        <ele>470</ele>
        <time>2015-11-11T09:21:07.000Z</time>
      </trkpt>
      <trkpt lat="47.43802" lon="6.79499">
        <ele>469</ele>
        <time>2015-11-11T09:21:08.000Z</time>
      </trkpt>
      <trkpt lat="47.43801" lon="6.79496">
        <ele>469</ele>
        <time>2015-11-11T09:21:09.000Z</time>
      </trkpt>
      <trkpt lat="47.438" lon="6.79492">
        <ele>469</ele>
        <time>2015-11-11T09:21:10.000Z</time>
      </trkpt>
      <trkpt lat="47.43801" lon="6.79486">
        <ele>469</ele>
        <time>2015-11-11T09:21:12.000Z</time>
      </trkpt>
      <trkpt lat="47.43801" lon="6.79484">
        <ele>469</ele>
        <time>2015-11-11T09:21:13.000Z</time>
      </trkpt>
      <trkpt lat="47.43802" lon="6.79478">
        <ele>469</ele>
        <time>2015-11-11T09:21:15.000Z</time>
      </trkpt>
      <trkpt lat="47.43801" lon="6.79475">
        <ele>469</ele>
        <time>2015-11-11T09:21:16.000Z</time>
      </trkpt>
      <trkpt lat="47.438" lon="6.79471">
        <ele>469</ele>
        <time>2015-11-11T09:21:17.000Z</time>
      </trkpt>
      <trkpt lat="47.43798" lon="6.79468">
        <ele>469</ele>
        <time>2015-11-11T09:21:18.000Z</time>
      </trkpt>
      <trkpt lat="47.43797" lon="6.79465">
        <ele>469</ele>
        <time>2015-11-11T09:21:19.000Z</time>
      </trkpt>
      <trkpt lat="47.43794" lon="6.79462">
        <ele>469</ele>
        <time>2015-11-11T09:21:20.000Z</time>
      </trkpt>
      <trkpt lat="47.43792" lon="6.79461">
        <ele>469</ele>
        <time>2015-11-11T09:21:21.000Z</time>
      </trkpt>
      <trkpt lat="47.43789" lon="6.79459">
        <ele>469</ele>
        <time>2015-11-11T09:21:22.000Z</time>
      </trkpt>
      <trkpt lat="47.43787" lon="6.79459">
        <ele>469</ele>
        <time>2015-11-11T09:21:23.000Z</time>
      </trkpt>
      <trkpt lat="47.43784" lon="6.79459">
        <ele>469</ele>
        <time>2015-11-11T09:21:24.000Z</time>
      </trkpt>
      <trkpt lat="47.4378" lon="6.79458">
        <ele>469</ele>
        <time>2015-11-11T09:21:26.000Z</time>
      </trkpt>
      <trkpt lat="47.43778" lon="6.79459">
        <ele>469</ele>
        <time>2015-11-11T09:21:27.000Z</time>
      </trkpt>
      <trkpt lat="47.43775" lon="6.79459">
        <ele>469</ele>
        <time>2015-11-11T09:21:28.000Z</time>
      </trkpt>
      <trkpt lat="47.43772" lon="6.79459">
        <ele>470</ele>
        <time>2015-11-11T09:21:29.000Z</time>
      </trkpt>
      <trkpt lat="47.43769" lon="6.79459">
        <ele>470</ele>
        <time>2015-11-11T09:21:30.000Z</time>
      </trkpt>
      <trkpt lat="47.43766" lon="6.79459">
        <ele>470</ele>
        <time>2015-11-11T09:21:31.000Z</time>
      </trkpt>
      <trkpt lat="47.43763" lon="6.79458">
        <ele>470</ele>
        <time>2015-11-11T09:21:32.000Z</time>
      </trkpt>
      <trkpt lat="47.43761" lon="6.79459">
        <ele>470</ele>
        <time>2015-11-11T09:21:33.001Z</time>
      </trkpt>
      <trkpt lat="47.43758" lon="6.79457">
        <ele>470</ele>
        <time>2015-11-11T09:21:34.000Z</time>
      </trkpt>
      <trkpt lat="47.43754" lon="6.79457">
        <ele>470</ele>
        <time>2015-11-11T09:21:35.000Z</time>
      </trkpt>
      <trkpt lat="47.43751" lon="6.79458">
        <ele>470</ele>
        <time>2015-11-11T09:21:36.000Z</time>
      </trkpt>
      <trkpt lat="47.43748" lon="6.79457">
        <ele>472</ele>
        <time>2015-11-11T09:21:37.000Z</time>
      </trkpt>
      <trkpt lat="47.43744" lon="6.79457">
        <ele>472</ele>
        <time>2015-11-11T09:21:38.000Z</time>
      </trkpt>
      <trkpt lat="47.43741" lon="6.79456">
        <ele>472</ele>
        <time>2015-11-11T09:21:39.000Z</time>
      </trkpt>
      <trkpt lat="47.43737" lon="6.79455">
        <ele>472</ele>
        <time>2015-11-11T09:21:40.000Z</time>
      </trkpt>
      <trkpt lat="47.43734" lon="6.79453">
        <ele>472</ele>
        <time>2015-11-11T09:21:41.000Z</time>
      </trkpt>
      <trkpt lat="47.4373" lon="6.79453">
        <ele>472</ele>
        <time>2015-11-11T09:21:42.000Z</time>
      </trkpt>
      <trkpt lat="47.43727" lon="6.79453">
        <ele>472</ele>
        <time>2015-11-11T09:21:43.000Z</time>
      </trkpt>
      <trkpt lat="47.43724" lon="6.79453">
        <ele>472</ele>
        <time>2015-11-11T09:21:44.000Z</time>
      </trkpt>
      <trkpt lat="47.4372" lon="6.79453">
        <ele>472</ele>
        <time>2015-11-11T09:21:45.000Z</time>
      </trkpt>
      <trkpt lat="47.43717" lon="6.79454">
        <ele>472</ele>
        <time>2015-11-11T09:21:46.000Z</time>
      </trkpt>
      <trkpt lat="47.43714" lon="6.79455">
        <ele>472</ele>
        <time>2015-11-11T09:21:47.000Z</time>
      </trkpt>
      <trkpt lat="47.43711" lon="6.79456">
        <ele>472</ele>
        <time>2015-11-11T09:21:48.000Z</time>
      </trkpt>
      <trkpt lat="47.43709" lon="6.79457">
        <ele>472</ele>
        <time>2015-11-11T09:21:49.000Z</time>
      </trkpt>
      <trkpt lat="47.43707" lon="6.79457">
        <ele>472</ele>
        <time>2015-11-11T09:21:50.000Z</time>
      </trkpt>
      <trkpt lat="47.43704" lon="6.79458">
        <ele>472</ele>
        <time>2015-11-11T09:21:51.000Z</time>
      </trkpt>
      <trkpt lat="47.43701" lon="6.79458">
        <ele>472</ele>
        <time>2015-11-11T09:21:52.000Z</time>
      </trkpt>
      <trkpt lat="47.43698" lon="6.79457">
        <ele>472</ele>
        <time>2015-11-11T09:21:53.000Z</time>
      </trkpt>
      <trkpt lat="47.43694" lon="6.79457">
        <ele>472</ele>
        <time>2015-11-11T09:21:54.000Z</time>
      </trkpt>
      <trkpt lat="47.4369" lon="6.79457">
        <ele>472</ele>
        <time>2015-11-11T09:21:55.000Z</time>
      </trkpt>
      <trkpt lat="47.43686" lon="6.79457">
        <ele>472</ele>
        <time>2015-11-11T09:21:55.999Z</time>
      </trkpt>
      <trkpt lat="47.43681" lon="6.79458">
        <ele>472</ele>
        <time>2015-11-11T09:21:57.000Z</time>
      </trkpt>
      <trkpt lat="47.43676" lon="6.79459">
        <ele>473</ele>
        <time>2015-11-11T09:21:58.000Z</time>
      </trkpt>
      <trkpt lat="47.43672" lon="6.7946">
        <ele>473</ele>
        <time>2015-11-11T09:21:59.000Z</time>
      </trkpt>
      <trkpt lat="47.43668" lon="6.79461">
        <ele>473</ele>
        <time>2015-11-11T09:22:00.000Z</time>
      </trkpt>
      <trkpt lat="47.43664" lon="6.79463">
        <ele>474</ele>
        <time>2015-11-11T09:22:01.000Z</time>
      </trkpt>
      <trkpt lat="47.43661" lon="6.79464">
        <ele>474</ele>
        <time>2015-11-11T09:22:02.000Z</time>
      </trkpt>
      <trkpt lat="47.43658" lon="6.79465">
        <ele>474</ele>
        <time>2015-11-11T09:22:03.000Z</time>
      </trkpt>
      <trkpt lat="47.43654" lon="6.79465">
        <ele>474</ele>
        <time>2015-11-11T09:22:04.000Z</time>
      </trkpt>
      <trkpt lat="47.4365" lon="6.79465">
        <ele>474</ele>
        <time>2015-11-11T09:22:05.000Z</time>
      </trkpt>
      <trkpt lat="47.43647" lon="6.79463">
        <ele>474</ele>
        <time>2015-11-11T09:22:06.000Z</time>
      </trkpt>
      <trkpt lat="47.43643" lon="6.79461">
        <ele>473</ele>
        <time>2015-11-11T09:22:07.000Z</time>
      </trkpt>
      <trkpt lat="47.43639" lon="6.79459">
        <ele>473</ele>
        <time>2015-11-11T09:22:08.000Z</time>
      </trkpt>
      <trkpt lat="47.43635" lon="6.79456">
        <ele>473</ele>
        <time>2015-11-11T09:22:09.000Z</time>
      </trkpt>
      <trkpt lat="47.43632" lon="6.79455">
        <ele>473</ele>
        <time>2015-11-11T09:22:10.000Z</time>
      </trkpt>
      <trkpt lat="47.43628" lon="6.79453">
        <ele>473</ele>
        <time>2015-11-11T09:22:11.000Z</time>
      </trkpt>
      <trkpt lat="47.43624" lon="6.79452">
        <ele>473</ele>
        <time>2015-11-11T09:22:12.000Z</time>
      </trkpt>
      <trkpt lat="47.43621" lon="6.79452">
        <ele>473</ele>
        <time>2015-11-11T09:22:13.000Z</time>
      </trkpt>
      <trkpt lat="47.43618" lon="6.79453">
        <ele>473</ele>
        <time>2015-11-11T09:22:14.000Z</time>
      </trkpt>
      <trkpt lat="47.43615" lon="6.79454">
        <ele>473</ele>
        <time>2015-11-11T09:22:15.000Z</time>
      </trkpt>
      <trkpt lat="47.43611" lon="6.79457">
        <ele>473</ele>
        <time>2015-11-11T09:22:16.000Z</time>
      </trkpt>
      <trkpt lat="47.43608" lon="6.79459">
        <ele>473</ele>
        <time>2015-11-11T09:22:17.000Z</time>
      </trkpt>
      <trkpt lat="47.43604" lon="6.79461">
        <ele>474</ele>
        <time>2015-11-11T09:22:18.000Z</time>
      </trkpt>
      <trkpt lat="47.436" lon="6.79463">
        <ele>474</ele>
        <time>2015-11-11T09:22:19.000Z</time>
      </trkpt>
      <trkpt lat="47.43596" lon="6.79464">
        <ele>474</ele>
        <time>2015-11-11T09:22:20.000Z</time>
      </trkpt>
      <trkpt lat="47.43591" lon="6.79465">
        <ele>474</ele>
        <time>2015-11-11T09:22:21.000Z</time>
      </trkpt>
      <trkpt lat="47.43587" lon="6.79465">
        <ele>474</ele>
        <time>2015-11-11T09:22:22.000Z</time>
      </trkpt>
      <trkpt lat="47.43583" lon="6.79465">
        <ele>471</ele>
        <time>2015-11-11T09:22:23.000Z</time>
      </trkpt>
      <trkpt lat="47.43579" lon="6.79465">
        <ele>471</ele>
        <time>2015-11-11T09:22:24.000Z</time>
      </trkpt>
      <trkpt lat="47.43574" lon="6.79465">
        <ele>471</ele>
        <time>2015-11-11T09:22:25.000Z</time>
      </trkpt>
      <trkpt lat="47.43569" lon="6.79465">
        <ele>470</ele>
        <time>2015-11-11T09:22:26.000Z</time>
      </trkpt>
      <trkpt lat="47.43566" lon="6.79465">
        <ele>470</ele>
        <time>2015-11-11T09:22:27.000Z</time>
      </trkpt>
      <trkpt lat="47.43562" lon="6.79466">
        <ele>470</ele>
        <time>2015-11-11T09:22:28.000Z</time>
      </trkpt>
      <trkpt lat="47.4356" lon="6.79467">
        <ele>470</ele>
        <time>2015-11-11T09:22:29.000Z</time>
      </trkpt>
      <trkpt lat="47.43557" lon="6.79468">
        <ele>470</ele>
        <time>2015-11-11T09:22:30.000Z</time>
      </trkpt>
      <trkpt lat="47.43554" lon="6.79469">
        <ele>470</ele>
        <time>2015-11-11T09:22:31.000Z</time>
      </trkpt>
      <trkpt lat="47.43551" lon="6.79471">
        <ele>470</ele>
        <time>2015-11-11T09:22:32.000Z</time>
      </trkpt>
      <trkpt lat="47.43547" lon="6.79473">
        <ele>470</ele>
        <time>2015-11-11T09:22:33.000Z</time>
      </trkpt>
      <trkpt lat="47.43543" lon="6.79474">
        <ele>470</ele>
        <time>2015-11-11T09:22:34.000Z</time>
      </trkpt>
      <trkpt lat="47.43539" lon="6.79474">
        <ele>470</ele>
        <time>2015-11-11T09:22:35.000Z</time>
      </trkpt>
      <trkpt lat="47.43535" lon="6.79474">
        <ele>470</ele>
        <time>2015-11-11T09:22:36.000Z</time>
      </trkpt>
      <trkpt lat="47.4353" lon="6.79475">
        <ele>470</ele>
        <time>2015-11-11T09:22:37.000Z</time>
      </trkpt>
      <trkpt lat="47.43526" lon="6.79475">
        <ele>470</ele>
        <time>2015-11-11T09:22:38.000Z</time>
      </trkpt>
      <trkpt lat="47.43522" lon="6.79476">
        <ele>470</ele>
        <time>2015-11-11T09:22:39.000Z</time>
      </trkpt>
      <trkpt lat="47.43517" lon="6.79477">
        <ele>470</ele>
        <time>2015-11-11T09:22:40.000Z</time>
      </trkpt>
      <trkpt lat="47.43512" lon="6.79478">
        <ele>471</ele>
        <time>2015-11-11T09:22:41.000Z</time>
      </trkpt>
      <trkpt lat="47.43507" lon="6.79479">
        <ele>471</ele>
        <time>2015-11-11T09:22:42.000Z</time>
      </trkpt>
      <trkpt lat="47.43502" lon="6.79481">
        <ele>472</ele>
        <time>2015-11-11T09:22:43.000Z</time>
      </trkpt>
      <trkpt lat="47.43497" lon="6.79483">
        <ele>466</ele>
        <time>2015-11-11T09:22:44.000Z</time>
      </trkpt>
      <trkpt lat="47.43493" lon="6.79485">
        <ele>466</ele>
        <time>2015-11-11T09:22:45.000Z</time>
      </trkpt>
      <trkpt lat="47.43489" lon="6.79487">
        <ele>466</ele>
        <time>2015-11-11T09:22:46.000Z</time>
      </trkpt>
      <trkpt lat="47.43485" lon="6.79489">
        <ele>465</ele>
        <time>2015-11-11T09:22:47.000Z</time>
      </trkpt>
      <trkpt lat="47.43482" lon="6.79491">
        <ele>464</ele>
        <time>2015-11-11T09:22:48.000Z</time>
      </trkpt>
      <trkpt lat="47.43476" lon="6.79493">
        <ele>463</ele>
        <time>2015-11-11T09:22:49.000Z</time>
      </trkpt>
      <trkpt lat="47.43472" lon="6.79496">
        <ele>462</ele>
        <time>2015-11-11T09:22:50.000Z</time>
      </trkpt>
      <trkpt lat="47.43469" lon="6.795">
        <ele>461</ele>
        <time>2015-11-11T09:22:51.000Z</time>
      </trkpt>
      <trkpt lat="47.43464" lon="6.79504">
        <ele>477</ele>
        <time>2015-11-11T09:22:52.000Z</time>
      </trkpt>
      <trkpt lat="47.43455" lon="6.79515">
        <ele>477</ele>
        <time>2015-11-11T09:22:53.000Z</time>
      </trkpt>
      <trkpt lat="47.4345" lon="6.79521">
        <ele>477</ele>
        <time>2015-11-11T09:22:54.000Z</time>
      </trkpt>
      <trkpt lat="47.43446" lon="6.79527">
        <ele>477</ele>
        <time>2015-11-11T09:22:55.000Z</time>
      </trkpt>
      <trkpt lat="47.4344" lon="6.79533">
        <ele>477</ele>
        <time>2015-11-11T09:22:56.000Z</time>
      </trkpt>
      <trkpt lat="47.43436" lon="6.79536">
        <ele>477</ele>
        <time>2015-11-11T09:22:57.000Z</time>
      </trkpt>
      <trkpt lat="47.43433" lon="6.7953">
        <ele>476</ele>
        <time>2015-11-11T09:22:58.000Z</time>
      </trkpt>
      <trkpt lat="47.43428" lon="6.79529">
        <ele>476</ele>
        <time>2015-11-11T09:22:59.000Z</time>
      </trkpt>
      <trkpt lat="47.43423" lon="6.79528">
        <ele>475</ele>
        <time>2015-11-11T09:23:00.000Z</time>
      </trkpt>
      <trkpt lat="47.43418" lon="6.79527">
        <ele>475</ele>
        <time>2015-11-11T09:23:01.000Z</time>
      </trkpt>
      <trkpt lat="47.43414" lon="6.79526">
        <ele>470</ele>
        <time>2015-11-11T09:23:02.000Z</time>
      </trkpt>
      <trkpt lat="47.43408" lon="6.79528">
        <ele>470</ele>
        <time>2015-11-11T09:23:03.000Z</time>
      </trkpt>
      <trkpt lat="47.43404" lon="6.79528">
        <ele>470</ele>
        <time>2015-11-11T09:23:04.000Z</time>
      </trkpt>
      <trkpt lat="47.43398" lon="6.79527">
        <ele>470</ele>
        <time>2015-11-11T09:23:05.000Z</time>
      </trkpt>
      <trkpt lat="47.43393" lon="6.79527">
        <ele>470</ele>
        <time>2015-11-11T09:23:06.000Z</time>
      </trkpt>
      <trkpt lat="47.43388" lon="6.79529">
        <ele>470</ele>
        <time>2015-11-11T09:23:07.000Z</time>
      </trkpt>
      <trkpt lat="47.43384" lon="6.79531">
        <ele>470</ele>
        <time>2015-11-11T09:23:08.000Z</time>
      </trkpt>
      <trkpt lat="47.4338" lon="6.79533">
        <ele>470</ele>
        <time>2015-11-11T09:23:09.000Z</time>
      </trkpt>
      <trkpt lat="47.43377" lon="6.79535">
        <ele>470</ele>
        <time>2015-11-11T09:23:10.000Z</time>
      </trkpt>
      <trkpt lat="47.43374" lon="6.79536">
        <ele>471</ele>
        <time>2015-11-11T09:23:11.000Z</time>
      </trkpt>
      <trkpt lat="47.43371" lon="6.79538">
        <ele>471</ele>
        <time>2015-11-11T09:23:12.000Z</time>
      </trkpt>
      <trkpt lat="47.43368" lon="6.7954">
        <ele>471</ele>
        <time>2015-11-11T09:23:13.000Z</time>
      </trkpt>
      <trkpt lat="47.43366" lon="6.79543">
        <ele>471</ele>
        <time>2015-11-11T09:23:14.000Z</time>
      </trkpt>
      <trkpt lat="47.43363" lon="6.79544">
        <ele>472</ele>
        <time>2015-11-11T09:23:15.000Z</time>
      </trkpt>
      <trkpt lat="47.43361" lon="6.79545">
        <ele>472</ele>
        <time>2015-11-11T09:23:16.000Z</time>
      </trkpt>
      <trkpt lat="47.43359" lon="6.79546">
        <ele>472</ele>
        <time>2015-11-11T09:23:17.000Z</time>
      </trkpt>
      <trkpt lat="47.43356" lon="6.79547">
        <ele>472</ele>
        <time>2015-11-11T09:23:18.000Z</time>
      </trkpt>
      <trkpt lat="47.43354" lon="6.79549">
        <ele>472</ele>
        <time>2015-11-11T09:23:19.000Z</time>
      </trkpt>
      <trkpt lat="47.43352" lon="6.79551">
        <ele>473</ele>
        <time>2015-11-11T09:23:20.001Z</time>
      </trkpt>
      <trkpt lat="47.43349" lon="6.79553">
        <ele>474</ele>
        <time>2015-11-11T09:23:21.001Z</time>
      </trkpt>
      <trkpt lat="47.43347" lon="6.79554">
        <ele>474</ele>
        <time>2015-11-11T09:23:22.000Z</time>
      </trkpt>
      <trkpt lat="47.43344" lon="6.79554">
        <ele>474</ele>
        <time>2015-11-11T09:23:23.000Z</time>
      </trkpt>
      <trkpt lat="47.43342" lon="6.79554">
        <ele>474</ele>
        <time>2015-11-11T09:23:24.000Z</time>
      </trkpt>
      <trkpt lat="47.43339" lon="6.79554">
        <ele>474</ele>
        <time>2015-11-11T09:23:25.000Z</time>
      </trkpt>
      <trkpt lat="47.43336" lon="6.79554">
        <ele>474</ele>
        <time>2015-11-11T09:23:26.000Z</time>
      </trkpt>
      <trkpt lat="47.43334" lon="6.79555">
        <ele>474</ele>
        <time>2015-11-11T09:23:27.000Z</time>
      </trkpt>
      <trkpt lat="47.43331" lon="6.79556">
        <ele>472</ele>
        <time>2015-11-11T09:23:28.000Z</time>
      </trkpt>
      <trkpt lat="47.43328" lon="6.79557">
        <ele>472</ele>
        <time>2015-11-11T09:23:29.000Z</time>
      </trkpt>
      <trkpt lat="47.43324" lon="6.79558">
        <ele>473</ele>
        <time>2015-11-11T09:23:30.000Z</time>
      </trkpt>
      <trkpt lat="47.43321" lon="6.7956">
        <ele>473</ele>
        <time>2015-11-11T09:23:31.000Z</time>
      </trkpt>
      <trkpt lat="47.43318" lon="6.79562">
        <ele>473</ele>
        <time>2015-11-11T09:23:32.000Z</time>
      </trkpt>
      <trkpt lat="47.43315" lon="6.79564">
        <ele>473</ele>
        <time>2015-11-11T09:23:33.000Z</time>
      </trkpt>
      <trkpt lat="47.43312" lon="6.79565">
        <ele>473</ele>
        <time>2015-11-11T09:23:34.000Z</time>
      </trkpt>
      <trkpt lat="47.43309" lon="6.79566">
        <ele>473</ele>
        <time>2015-11-11T09:23:35.000Z</time>
      </trkpt>
      <trkpt lat="47.43306" lon="6.79567">
        <ele>473</ele>
        <time>2015-11-11T09:23:36.000Z</time>
      </trkpt>
      <trkpt lat="47.43303" lon="6.79567">
        <ele>473</ele>
        <time>2015-11-11T09:23:37.000Z</time>
      </trkpt>
      <trkpt lat="47.43299" lon="6.79568">
        <ele>473</ele>
        <time>2015-11-11T09:23:38.000Z</time>
      </trkpt>
      <trkpt lat="47.43296" lon="6.79569">
        <ele>473</ele>
        <time>2015-11-11T09:23:39.000Z</time>
      </trkpt>
      <trkpt lat="47.43292" lon="6.7957">
        <ele>473</ele>
        <time>2015-11-11T09:23:40.000Z</time>
      </trkpt>
      <trkpt lat="47.43289" lon="6.79571">
        <ele>473</ele>
        <time>2015-11-11T09:23:41.000Z</time>
      </trkpt>
      <trkpt lat="47.43285" lon="6.79572">
        <ele>473</ele>
        <time>2015-11-11T09:23:42.000Z</time>
      </trkpt>
      <trkpt lat="47.43282" lon="6.79573">
        <ele>474</ele>
        <time>2015-11-11T09:23:43.000Z</time>
      </trkpt>
      <trkpt lat="47.43279" lon="6.79574">
        <ele>474</ele>
        <time>2015-11-11T09:23:44.000Z</time>
      </trkpt>
      <trkpt lat="47.43275" lon="6.79574">
        <ele>475</ele>
        <time>2015-11-11T09:23:45.000Z</time>
      </trkpt>
      <trkpt lat="47.43271" lon="6.79574">
        <ele>476</ele>
        <time>2015-11-11T09:23:46.000Z</time>
      </trkpt>
      <trkpt lat="47.43267" lon="6.79574">
        <ele>476</ele>
        <time>2015-11-11T09:23:47.000Z</time>
      </trkpt>
      <trkpt lat="47.43263" lon="6.79575">
        <ele>478</ele>
        <time>2015-11-11T09:23:48.000Z</time>
      </trkpt>
      <trkpt lat="47.43259" lon="6.79575">
        <ele>479</ele>
        <time>2015-11-11T09:23:49.000Z</time>
      </trkpt>
      <trkpt lat="47.43255" lon="6.79576">
        <ele>480</ele>
        <time>2015-11-11T09:23:50.000Z</time>
      </trkpt>
      <trkpt lat="47.43252" lon="6.79576">
        <ele>482</ele>
        <time>2015-11-11T09:23:51.000Z</time>
      </trkpt>
      <trkpt lat="47.43248" lon="6.79577">
        <ele>481</ele>
        <time>2015-11-11T09:23:52.000Z</time>
      </trkpt>
      <trkpt lat="47.43244" lon="6.79577">
        <ele>480</ele>
        <time>2015-11-11T09:23:53.000Z</time>
      </trkpt>
      <trkpt lat="47.4324" lon="6.79578">
        <ele>479</ele>
        <time>2015-11-11T09:23:54.000Z</time>
      </trkpt>
      <trkpt lat="47.43237" lon="6.79579">
        <ele>478</ele>
        <time>2015-11-11T09:23:55.000Z</time>
      </trkpt>
      <trkpt lat="47.43234" lon="6.7958">
        <ele>477</ele>
        <time>2015-11-11T09:23:56.000Z</time>
      </trkpt>
      <trkpt lat="47.4323" lon="6.79581">
        <ele>476</ele>
        <time>2015-11-11T09:23:57.000Z</time>
      </trkpt>
      <trkpt lat="47.43227" lon="6.79581">
        <ele>475</ele>
        <time>2015-11-11T09:23:58.000Z</time>
      </trkpt>
      <trkpt lat="47.43224" lon="6.79581">
        <ele>474</ele>
        <time>2015-11-11T09:23:59.000Z</time>
      </trkpt>
      <trkpt lat="47.4322" lon="6.79582">
        <ele>474</ele>
        <time>2015-11-11T09:24:00.000Z</time>
      </trkpt>
      <trkpt lat="47.43216" lon="6.79582">
        <ele>473</ele>
        <time>2015-11-11T09:24:01.000Z</time>
      </trkpt>
      <trkpt lat="47.43213" lon="6.79582">
        <ele>473</ele>
        <time>2015-11-11T09:24:02.000Z</time>
      </trkpt>
      <trkpt lat="47.4321" lon="6.79584">
        <ele>487</ele>
        <time>2015-11-11T09:24:03.000Z</time>
      </trkpt>
      <trkpt lat="47.43207" lon="6.79586">
        <ele>487</ele>
        <time>2015-11-11T09:24:04.000Z</time>
      </trkpt>
      <trkpt lat="47.43205" lon="6.79588">
        <ele>487</ele>
        <time>2015-11-11T09:24:05.000Z</time>
      </trkpt>
      <trkpt lat="47.43202" lon="6.7959">
        <ele>487</ele>
        <time>2015-11-11T09:24:06.000Z</time>
      </trkpt>
      <trkpt lat="47.43199" lon="6.7959">
        <ele>487</ele>
        <time>2015-11-11T09:24:07.000Z</time>
      </trkpt>
      <trkpt lat="47.43196" lon="6.7959">
        <ele>487</ele>
        <time>2015-11-11T09:24:08.000Z</time>
      </trkpt>
      <trkpt lat="47.43193" lon="6.7959">
        <ele>487</ele>
        <time>2015-11-11T09:24:09.000Z</time>
      </trkpt>
      <trkpt lat="47.43191" lon="6.7959">
        <ele>487</ele>
        <time>2015-11-11T09:24:10.000Z</time>
      </trkpt>
      <trkpt lat="47.43188" lon="6.79591">
        <ele>487</ele>
        <time>2015-11-11T09:24:11.000Z</time>
      </trkpt>
      <trkpt lat="47.43185" lon="6.79591">
        <ele>487</ele>
        <time>2015-11-11T09:24:12.000Z</time>
      </trkpt>
      <trkpt lat="47.43181" lon="6.79591">
        <ele>487</ele>
        <time>2015-11-11T09:24:13.000Z</time>
      </trkpt>
      <trkpt lat="47.43178" lon="6.79591">
        <ele>486</ele>
        <time>2015-11-11T09:24:14.000Z</time>
      </trkpt>
      <trkpt lat="47.43175" lon="6.79591">
        <ele>486</ele>
        <time>2015-11-11T09:24:15.000Z</time>
      </trkpt>
      <trkpt lat="47.43172" lon="6.79591">
        <ele>486</ele>
        <time>2015-11-11T09:24:16.000Z</time>
      </trkpt>
      <trkpt lat="47.4317" lon="6.79592">
        <ele>486</ele>
        <time>2015-11-11T09:24:17.000Z</time>
      </trkpt>
      <trkpt lat="47.43168" lon="6.79593">
        <ele>486</ele>
        <time>2015-11-11T09:24:18.000Z</time>
      </trkpt>
      <trkpt lat="47.43164" lon="6.79595">
        <ele>487</ele>
        <time>2015-11-11T09:24:20.000Z</time>
      </trkpt>
      <trkpt lat="47.43163" lon="6.79597">
        <ele>487</ele>
        <time>2015-11-11T09:24:21.000Z</time>
      </trkpt>
      <trkpt lat="47.43161" lon="6.79601">
        <ele>487</ele>
        <time>2015-11-11T09:24:22.000Z</time>
      </trkpt>
      <trkpt lat="47.43158" lon="6.79605">
        <ele>487</ele>
        <time>2015-11-11T09:24:23.000Z</time>
      </trkpt>
      <trkpt lat="47.43155" lon="6.79609">
        <ele>488</ele>
        <time>2015-11-11T09:24:24.000Z</time>
      </trkpt>
      <trkpt lat="47.43153" lon="6.79613">
        <ele>488</ele>
        <time>2015-11-11T09:24:25.000Z</time>
      </trkpt>
      <trkpt lat="47.43151" lon="6.79616">
        <ele>488</ele>
        <time>2015-11-11T09:24:26.000Z</time>
      </trkpt>
      <trkpt lat="47.43148" lon="6.79619">
        <ele>488</ele>
        <time>2015-11-11T09:24:27.000Z</time>
      </trkpt>
      <trkpt lat="47.43145" lon="6.7962">
        <ele>489</ele>
        <time>2015-11-11T09:24:29.000Z</time>
      </trkpt>
      <trkpt lat="47.43143" lon="6.7962">
        <ele>489</ele>
        <time>2015-11-11T09:24:30.000Z</time>
      </trkpt>
      <trkpt lat="47.4314" lon="6.79617">
        <ele>488</ele>
        <time>2015-11-11T09:24:32.000Z</time>
      </trkpt>
      <trkpt lat="47.43138" lon="6.79615">
        <ele>488</ele>
        <time>2015-11-11T09:24:33.000Z</time>
      </trkpt>
      <trkpt lat="47.43136" lon="6.79613">
        <ele>488</ele>
        <time>2015-11-11T09:24:34.000Z</time>
      </trkpt>
      <trkpt lat="47.43134" lon="6.79611">
        <ele>488</ele>
        <time>2015-11-11T09:24:35.000Z</time>
      </trkpt>
      <trkpt lat="47.43133" lon="6.79609">
        <ele>488</ele>
        <time>2015-11-11T09:24:36.000Z</time>
      </trkpt>
      <trkpt lat="47.4313" lon="6.79607">
        <ele>488</ele>
        <time>2015-11-11T09:24:37.000Z</time>
      </trkpt>
      <trkpt lat="47.43127" lon="6.79606">
        <ele>488</ele>
        <time>2015-11-11T09:24:38.000Z</time>
      </trkpt>
      <trkpt lat="47.43124" lon="6.79604">
        <ele>488</ele>
        <time>2015-11-11T09:24:39.000Z</time>
      </trkpt>
      <trkpt lat="47.43122" lon="6.79603">
        <ele>488</ele>
        <time>2015-11-11T09:24:40.000Z</time>
      </trkpt>
      <trkpt lat="47.4312" lon="6.79601">
        <ele>488</ele>
        <time>2015-11-11T09:24:41.000Z</time>
      </trkpt>
      <trkpt lat="47.43118" lon="6.79596">
        <ele>488</ele>
        <time>2015-11-11T09:24:44.000Z</time>
      </trkpt>
      <trkpt lat="47.43116" lon="6.79595">
        <ele>488</ele>
        <time>2015-11-11T09:24:45.000Z</time>
      </trkpt>
      <trkpt lat="47.43114" lon="6.79593">
        <ele>487</ele>
        <time>2015-11-11T09:24:47.000Z</time>
      </trkpt>
      <trkpt lat="47.43112" lon="6.79592">
        <ele>487</ele>
        <time>2015-11-11T09:24:48.000Z</time>
      </trkpt>
      <trkpt lat="47.43109" lon="6.79592">
        <ele>487</ele>
        <time>2015-11-11T09:24:50.000Z</time>
      </trkpt>
      <trkpt lat="47.43108" lon="6.79593">
        <ele>487</ele>
        <time>2015-11-11T09:24:51.000Z</time>
      </trkpt>
      <trkpt lat="47.43104" lon="6.79596">
        <ele>487</ele>
        <time>2015-11-11T09:24:53.000Z</time>
      </trkpt>
      <trkpt lat="47.43102" lon="6.79596">
        <ele>487</ele>
        <time>2015-11-11T09:24:54.000Z</time>
      </trkpt>
      <trkpt lat="47.43098" lon="6.79595">
        <ele>487</ele>
        <time>2015-11-11T09:24:56.000Z</time>
      </trkpt>
      <trkpt lat="47.43096" lon="6.79594">
        <ele>487</ele>
        <time>2015-11-11T09:24:57.000Z</time>
      </trkpt>
      <trkpt lat="47.43092" lon="6.79594">
        <ele>487</ele>
        <time>2015-11-11T09:24:59.000Z</time>
      </trkpt>
      <trkpt lat="47.43091" lon="6.79593">
        <ele>486</ele>
        <time>2015-11-11T09:25:00.000Z</time>
      </trkpt>
      <trkpt lat="47.4309" lon="6.79587">
        <ele>486</ele>
        <time>2015-11-11T09:25:07.000Z</time>
      </trkpt>
      <trkpt lat="47.43091" lon="6.79586">
        <ele>486</ele>
        <time>2015-11-11T09:25:08.000Z</time>
      </trkpt>
      <trkpt lat="47.4309" lon="6.7958">
        <ele>480</ele>
        <time>2015-11-11T09:25:14.000Z</time>
      </trkpt>
      <trkpt lat="47.43089" lon="6.79579">
        <ele>480</ele>
        <time>2015-11-11T09:25:15.000Z</time>
      </trkpt>
      <trkpt lat="47.43086" lon="6.79574">
        <ele>478</ele>
        <time>2015-11-11T09:25:26.000Z</time>
      </trkpt>
      <trkpt lat="47.43086" lon="6.79573">
        <ele>478</ele>
        <time>2015-11-11T09:25:27.000Z</time>
      </trkpt>
      <trkpt lat="47.43083" lon="6.79568">
        <ele>477</ele>
        <time>2015-11-11T09:26:12.000Z</time>
      </trkpt>
      <trkpt lat="47.43083" lon="6.79567">
        <ele>476</ele>
        <time>2015-11-11T09:26:13.000Z</time>
      </trkpt>
      <trkpt lat="47.4308" lon="6.79563">
        <ele>474</ele>
        <time>2015-11-11T09:26:18.000Z</time>
      </trkpt>
      <trkpt lat="47.43079" lon="6.79562">
        <ele>474</ele>
        <time>2015-11-11T09:26:19.000Z</time>
      </trkpt>
      <trkpt lat="47.43083" lon="6.79565">
        <ele>475</ele>
        <time>2015-11-11T09:27:57.000Z</time>
      </trkpt>
      <trkpt lat="47.43083" lon="6.79565">
        <ele>475</ele>
        <time>2015-11-11T09:27:58.000Z</time>
      </trkpt>
      <trkpt lat="47.43083" lon="6.7957">
        <ele>478</ele>
        <time>2015-11-11T09:28:27.000Z</time>
      </trkpt>
      <trkpt lat="47.43083" lon="6.79572">
        <ele>479</ele>
        <time>2015-11-11T09:28:28.000Z</time>
      </trkpt>
      <trkpt lat="47.43083" lon="6.79577">
        <ele>481</ele>
        <time>2015-11-11T09:28:30.000Z</time>
      </trkpt>
      <trkpt lat="47.43082" lon="6.79579">
        <ele>482</ele>
        <time>2015-11-11T09:28:31.000Z</time>
      </trkpt>
      <trkpt lat="47.43079" lon="6.79581">
        <ele>482</ele>
        <time>2015-11-11T09:28:33.000Z</time>
      </trkpt>
      <trkpt lat="47.43077" lon="6.79581">
        <ele>481</ele>
        <time>2015-11-11T09:28:34.000Z</time>
      </trkpt>
      <trkpt lat="47.43073" lon="6.79584">
        <ele>486</ele>
        <time>2015-11-11T09:28:36.000Z</time>
      </trkpt>
      <trkpt lat="47.4307" lon="6.79584">
        <ele>487</ele>
        <time>2015-11-11T09:28:37.000Z</time>
      </trkpt>
      <trkpt lat="47.43067" lon="6.79586">
        <ele>487</ele>
        <time>2015-11-11T09:28:39.000Z</time>
      </trkpt>
      <trkpt lat="47.43065" lon="6.79586">
        <ele>487</ele>
        <time>2015-11-11T09:28:40.000Z</time>
      </trkpt>
      <trkpt lat="47.43062" lon="6.79588">
        <ele>487</ele>
        <time>2015-11-11T09:28:42.000Z</time>
      </trkpt>
      <trkpt lat="47.43059" lon="6.79589">
        <ele>488</ele>
        <time>2015-11-11T09:28:43.000Z</time>
      </trkpt>
      <trkpt lat="47.43056" lon="6.7959">
        <ele>488</ele>
        <time>2015-11-11T09:28:44.000Z</time>
      </trkpt>
      <trkpt lat="47.43052" lon="6.79591">
        <ele>488</ele>
        <time>2015-11-11T09:28:45.000Z</time>
      </trkpt>
      <trkpt lat="47.43048" lon="6.7959">
        <ele>488</ele>
        <time>2015-11-11T09:28:46.000Z</time>
      </trkpt>
      <trkpt lat="47.43045" lon="6.79588">
        <ele>488</ele>
        <time>2015-11-11T09:28:47.000Z</time>
      </trkpt>
      <trkpt lat="47.4304" lon="6.79585">
        <ele>488</ele>
        <time>2015-11-11T09:28:48.000Z</time>
      </trkpt>
      <trkpt lat="47.43036" lon="6.79584">
        <ele>488</ele>
        <time>2015-11-11T09:28:49.000Z</time>
      </trkpt>
      <trkpt lat="47.43032" lon="6.79584">
        <ele>488</ele>
        <time>2015-11-11T09:28:50.000Z</time>
      </trkpt>
      <trkpt lat="47.43028" lon="6.79585">
        <ele>488</ele>
        <time>2015-11-11T09:28:51.000Z</time>
      </trkpt>
      <trkpt lat="47.43024" lon="6.79587">
        <ele>488</ele>
        <time>2015-11-11T09:28:52.000Z</time>
      </trkpt>
      <trkpt lat="47.4302" lon="6.79588">
        <ele>488</ele>
        <time>2015-11-11T09:28:53.000Z</time>
      </trkpt>
      <trkpt lat="47.43016" lon="6.79588">
        <ele>488</ele>
        <time>2015-11-11T09:28:54.000Z</time>
      </trkpt>
      <trkpt lat="47.43012" lon="6.79589">
        <ele>488</ele>
        <time>2015-11-11T09:28:55.000Z</time>
      </trkpt>
      <trkpt lat="47.43009" lon="6.79589">
        <ele>488</ele>
        <time>2015-11-11T09:28:56.000Z</time>
      </trkpt>
      <trkpt lat="47.43005" lon="6.7959">
        <ele>488</ele>
        <time>2015-11-11T09:28:57.000Z</time>
      </trkpt>
      <trkpt lat="47.43002" lon="6.7959">
        <ele>488</ele>
        <time>2015-11-11T09:28:58.000Z</time>
      </trkpt>
      <trkpt lat="47.42997" lon="6.79591">
        <ele>488</ele>
        <time>2015-11-11T09:28:59.000Z</time>
      </trkpt>
      <trkpt lat="47.42986" lon="6.79593">
        <ele>489</ele>
        <time>2015-11-11T09:29:00.000Z</time>
      </trkpt>
      <trkpt lat="47.42981" lon="6.7959">
        <ele>489</ele>
        <time>2015-11-11T09:29:01.000Z</time>
      </trkpt>
      <trkpt lat="47.42975" lon="6.79589">
        <ele>489</ele>
        <time>2015-11-11T09:29:02.000Z</time>
      </trkpt>
      <trkpt lat="47.42971" lon="6.79585">
        <ele>489</ele>
        <time>2015-11-11T09:29:03.000Z</time>
      </trkpt>
      <trkpt lat="47.42966" lon="6.79584">
        <ele>489</ele>
        <time>2015-11-11T09:29:04.000Z</time>
      </trkpt>
      <trkpt lat="47.42961" lon="6.79587">
        <ele>489</ele>
        <time>2015-11-11T09:29:05.000Z</time>
      </trkpt>
      <trkpt lat="47.42957" lon="6.79592">
        <ele>489</ele>
        <time>2015-11-11T09:29:06.000Z</time>
      </trkpt>
      <trkpt lat="47.42952" lon="6.79597">
        <ele>489</ele>
        <time>2015-11-11T09:29:07.000Z</time>
      </trkpt>
      <trkpt lat="47.42949" lon="6.79597">
        <ele>489</ele>
        <time>2015-11-11T09:29:08.000Z</time>
      </trkpt>
      <trkpt lat="47.42945" lon="6.79598">
        <ele>489</ele>
        <time>2015-11-11T09:29:09.001Z</time>
      </trkpt>
      <trkpt lat="47.42941" lon="6.79596">
        <ele>489</ele>
        <time>2015-11-11T09:29:10.000Z</time>
      </trkpt>
      <trkpt lat="47.42937" lon="6.79594">
        <ele>489</ele>
        <time>2015-11-11T09:29:11.000Z</time>
      </trkpt>
      <trkpt lat="47.42932" lon="6.79594">
        <ele>489</ele>
        <time>2015-11-11T09:29:12.000Z</time>
      </trkpt>
      <trkpt lat="47.42926" lon="6.79594">
        <ele>489</ele>
        <time>2015-11-11T09:29:13.000Z</time>
      </trkpt>
      <trkpt lat="47.4292" lon="6.79597">
        <ele>489</ele>
        <time>2015-11-11T09:29:14.000Z</time>
      </trkpt>
      <trkpt lat="47.42915" lon="6.796">
        <ele>489</ele>
        <time>2015-11-11T09:29:15.000Z</time>
      </trkpt>
      <trkpt lat="47.42909" lon="6.79599">
        <ele>489</ele>
        <time>2015-11-11T09:29:16.000Z</time>
      </trkpt>
      <trkpt lat="47.42901" lon="6.79602">
        <ele>489</ele>
        <time>2015-11-11T09:29:17.000Z</time>
      </trkpt>
      <trkpt lat="47.42894" lon="6.79602">
        <ele>489</ele>
        <time>2015-11-11T09:29:18.000Z</time>
      </trkpt>
      <trkpt lat="47.42888" lon="6.79603">
        <ele>490</ele>
        <time>2015-11-11T09:29:19.001Z</time>
      </trkpt>
      <trkpt lat="47.42884" lon="6.79601">
        <ele>490</ele>
        <time>2015-11-11T09:29:20.000Z</time>
      </trkpt>
      <trkpt lat="47.42879" lon="6.79599">
        <ele>490</ele>
        <time>2015-11-11T09:29:21.000Z</time>
      </trkpt>
      <trkpt lat="47.42876" lon="6.79596">
        <ele>490</ele>
        <time>2015-11-11T09:29:22.000Z</time>
      </trkpt>
      <trkpt lat="47.42872" lon="6.79595">
        <ele>490</ele>
        <time>2015-11-11T09:29:23.000Z</time>
      </trkpt>
      <trkpt lat="47.42869" lon="6.79593">
        <ele>490</ele>
        <time>2015-11-11T09:29:24.000Z</time>
      </trkpt>
      <trkpt lat="47.42866" lon="6.79592">
        <ele>490</ele>
        <time>2015-11-11T09:29:25.000Z</time>
      </trkpt>
      <trkpt lat="47.42862" lon="6.7959">
        <ele>490</ele>
        <time>2015-11-11T09:29:26.000Z</time>
      </trkpt>
      <trkpt lat="47.42858" lon="6.79588">
        <ele>489</ele>
        <time>2015-11-11T09:29:27.000Z</time>
      </trkpt>
      <trkpt lat="47.42854" lon="6.79582">
        <ele>482</ele>
        <time>2015-11-11T09:29:28.000Z</time>
      </trkpt>
      <trkpt lat="47.42848" lon="6.7958">
        <ele>483</ele>
        <time>2015-11-11T09:29:29.000Z</time>
      </trkpt>
      <trkpt lat="47.42844" lon="6.7958">
        <ele>484</ele>
        <time>2015-11-11T09:29:30.000Z</time>
      </trkpt>
      <trkpt lat="47.42841" lon="6.79579">
        <ele>485</ele>
        <time>2015-11-11T09:29:31.000Z</time>
      </trkpt>
      <trkpt lat="47.42837" lon="6.79579">
        <ele>486</ele>
        <time>2015-11-11T09:29:32.000Z</time>
      </trkpt>
      <trkpt lat="47.42833" lon="6.7958">
        <ele>488</ele>
        <time>2015-11-11T09:29:33.000Z</time>
      </trkpt>
      <trkpt lat="47.4283" lon="6.79582">
        <ele>487</ele>
        <time>2015-11-11T09:29:34.000Z</time>
      </trkpt>
      <trkpt lat="47.42826" lon="6.79583">
        <ele>490</ele>
        <time>2015-11-11T09:29:35.000Z</time>
      </trkpt>
      <trkpt lat="47.42823" lon="6.79585">
        <ele>490</ele>
        <time>2015-11-11T09:29:36.000Z</time>
      </trkpt>
      <trkpt lat="47.42821" lon="6.79585">
        <ele>490</ele>
        <time>2015-11-11T09:29:37.000Z</time>
      </trkpt>
      <trkpt lat="47.42818" lon="6.79585">
        <ele>490</ele>
        <time>2015-11-11T09:29:38.000Z</time>
      </trkpt>
      <trkpt lat="47.42815" lon="6.79584">
        <ele>490</ele>
        <time>2015-11-11T09:29:39.000Z</time>
      </trkpt>
      <trkpt lat="47.42812" lon="6.79583">
        <ele>483</ele>
        <time>2015-11-11T09:29:40.000Z</time>
      </trkpt>
      <trkpt lat="47.42809" lon="6.79582">
        <ele>483</ele>
        <time>2015-11-11T09:29:41.000Z</time>
      </trkpt>
      <trkpt lat="47.42806" lon="6.79581">
        <ele>483</ele>
        <time>2015-11-11T09:29:42.000Z</time>
      </trkpt>
      <trkpt lat="47.42802" lon="6.79579">
        <ele>482</ele>
        <time>2015-11-11T09:29:43.000Z</time>
      </trkpt>
      <trkpt lat="47.42797" lon="6.79579">
        <ele>482</ele>
        <time>2015-11-11T09:29:44.000Z</time>
      </trkpt>
      <trkpt lat="47.42792" lon="6.79579">
        <ele>482</ele>
        <time>2015-11-11T09:29:45.000Z</time>
      </trkpt>
      <trkpt lat="47.42787" lon="6.79579">
        <ele>482</ele>
        <time>2015-11-11T09:29:46.000Z</time>
      </trkpt>
      <trkpt lat="47.42782" lon="6.79578">
        <ele>483</ele>
        <time>2015-11-11T09:29:47.000Z</time>
      </trkpt>
      <trkpt lat="47.42777" lon="6.79577">
        <ele>483</ele>
        <time>2015-11-11T09:29:48.000Z</time>
      </trkpt>
      <trkpt lat="47.42773" lon="6.79575">
        <ele>484</ele>
        <time>2015-11-11T09:29:49.000Z</time>
      </trkpt>
      <trkpt lat="47.42769" lon="6.79573">
        <ele>484</ele>
        <time>2015-11-11T09:29:50.000Z</time>
      </trkpt>
      <trkpt lat="47.42764" lon="6.79571">
        <ele>484</ele>
        <time>2015-11-11T09:29:51.000Z</time>
      </trkpt>
      <trkpt lat="47.4276" lon="6.79569">
        <ele>485</ele>
        <time>2015-11-11T09:29:52.000Z</time>
      </trkpt>
      <trkpt lat="47.42756" lon="6.79568">
        <ele>485</ele>
        <time>2015-11-11T09:29:53.000Z</time>
      </trkpt>
      <trkpt lat="47.42752" lon="6.79566">
        <ele>485</ele>
        <time>2015-11-11T09:29:54.000Z</time>
      </trkpt>
      <trkpt lat="47.42748" lon="6.79565">
        <ele>485</ele>
        <time>2015-11-11T09:29:55.000Z</time>
      </trkpt>
      <trkpt lat="47.42745" lon="6.79563">
        <ele>485</ele>
        <time>2015-11-11T09:29:56.000Z</time>
      </trkpt>
      <trkpt lat="47.42741" lon="6.7956">
        <ele>484</ele>
        <time>2015-11-11T09:29:57.000Z</time>
      </trkpt>
      <trkpt lat="47.42737" lon="6.79558">
        <ele>483</ele>
        <time>2015-11-11T09:29:58.000Z</time>
      </trkpt>
      <trkpt lat="47.42733" lon="6.79557">
        <ele>483</ele>
        <time>2015-11-11T09:29:59.000Z</time>
      </trkpt>
      <trkpt lat="47.42729" lon="6.79556">
        <ele>483</ele>
        <time>2015-11-11T09:30:00.000Z</time>
      </trkpt>
      <trkpt lat="47.42725" lon="6.79556">
        <ele>482</ele>
        <time>2015-11-11T09:30:01.000Z</time>
      </trkpt>
      <trkpt lat="47.42721" lon="6.79557">
        <ele>482</ele>
        <time>2015-11-11T09:30:02.000Z</time>
      </trkpt>
      <trkpt lat="47.42718" lon="6.79559">
        <ele>483</ele>
        <time>2015-11-11T09:30:03.000Z</time>
      </trkpt>
      <trkpt lat="47.42714" lon="6.7956">
        <ele>483</ele>
        <time>2015-11-11T09:30:04.000Z</time>
      </trkpt>
      <trkpt lat="47.42711" lon="6.79561">
        <ele>483</ele>
        <time>2015-11-11T09:30:05.000Z</time>
      </trkpt>
      <trkpt lat="47.42707" lon="6.79561">
        <ele>483</ele>
        <time>2015-11-11T09:30:06.000Z</time>
      </trkpt>
      <trkpt lat="47.42704" lon="6.79561">
        <ele>483</ele>
        <time>2015-11-11T09:30:07.000Z</time>
      </trkpt>
      <trkpt lat="47.427" lon="6.7956">
        <ele>483</ele>
        <time>2015-11-11T09:30:08.000Z</time>
      </trkpt>
      <trkpt lat="47.42696" lon="6.79559">
        <ele>483</ele>
        <time>2015-11-11T09:30:09.000Z</time>
      </trkpt>
      <trkpt lat="47.4269" lon="6.79559">
        <ele>483</ele>
        <time>2015-11-11T09:30:10.000Z</time>
      </trkpt>
      <trkpt lat="47.42685" lon="6.79559">
        <ele>483</ele>
        <time>2015-11-11T09:30:11.000Z</time>
      </trkpt>
      <trkpt lat="47.42679" lon="6.79559">
        <ele>484</ele>
        <time>2015-11-11T09:30:12.000Z</time>
      </trkpt>
      <trkpt lat="47.42675" lon="6.79558">
        <ele>484</ele>
        <time>2015-11-11T09:30:13.000Z</time>
      </trkpt>
      <trkpt lat="47.42671" lon="6.79558">
        <ele>484</ele>
        <time>2015-11-11T09:30:14.000Z</time>
      </trkpt>
      <trkpt lat="47.42667" lon="6.79557">
        <ele>484</ele>
        <time>2015-11-11T09:30:15.000Z</time>
      </trkpt>
      <trkpt lat="47.42664" lon="6.79557">
        <ele>487</ele>
        <time>2015-11-11T09:30:16.000Z</time>
      </trkpt>
      <trkpt lat="47.42661" lon="6.79557">
        <ele>487</ele>
        <time>2015-11-11T09:30:17.000Z</time>
      </trkpt>
      <trkpt lat="47.42658" lon="6.79557">
        <ele>487</ele>
        <time>2015-11-11T09:30:18.000Z</time>
      </trkpt>
      <trkpt lat="47.42655" lon="6.79557">
        <ele>487</ele>
        <time>2015-11-11T09:30:19.000Z</time>
      </trkpt>
      <trkpt lat="47.42652" lon="6.79556">
        <ele>487</ele>
        <time>2015-11-11T09:30:20.000Z</time>
      </trkpt>
      <trkpt lat="47.4265" lon="6.79556">
        <ele>487</ele>
        <time>2015-11-11T09:30:21.000Z</time>
      </trkpt>
      <trkpt lat="47.42647" lon="6.79555">
        <ele>486</ele>
        <time>2015-11-11T09:30:22.000Z</time>
      </trkpt>
      <trkpt lat="47.42644" lon="6.79554">
        <ele>486</ele>
        <time>2015-11-11T09:30:23.000Z</time>
      </trkpt>
      <trkpt lat="47.42641" lon="6.79553">
        <ele>486</ele>
        <time>2015-11-11T09:30:24.000Z</time>
      </trkpt>
      <trkpt lat="47.42637" lon="6.79553">
        <ele>486</ele>
        <time>2015-11-11T09:30:25.000Z</time>
      </trkpt>
      <trkpt lat="47.42633" lon="6.79553">
        <ele>487</ele>
        <time>2015-11-11T09:30:26.000Z</time>
      </trkpt>
      <trkpt lat="47.42629" lon="6.79553">
        <ele>487</ele>
        <time>2015-11-11T09:30:27.000Z</time>
      </trkpt>
      <trkpt lat="47.42626" lon="6.79553">
        <ele>487</ele>
        <time>2015-11-11T09:30:28.000Z</time>
      </trkpt>
      <trkpt lat="47.42623" lon="6.79553">
        <ele>487</ele>
        <time>2015-11-11T09:30:29.000Z</time>
      </trkpt>
      <trkpt lat="47.42621" lon="6.79552">
        <ele>487</ele>
        <time>2015-11-11T09:30:30.000Z</time>
      </trkpt>
      <trkpt lat="47.42618" lon="6.79553">
        <ele>487</ele>
        <time>2015-11-11T09:30:31.000Z</time>
      </trkpt>
      <trkpt lat="47.42614" lon="6.79553">
        <ele>488</ele>
        <time>2015-11-11T09:30:32.000Z</time>
      </trkpt>
      <trkpt lat="47.4261" lon="6.79554">
        <ele>488</ele>
        <time>2015-11-11T09:30:33.000Z</time>
      </trkpt>
      <trkpt lat="47.42607" lon="6.79555">
        <ele>489</ele>
        <time>2015-11-11T09:30:34.000Z</time>
      </trkpt>
      <trkpt lat="47.42603" lon="6.79555">
        <ele>489</ele>
        <time>2015-11-11T09:30:35.000Z</time>
      </trkpt>
      <trkpt lat="47.426" lon="6.79555">
        <ele>489</ele>
        <time>2015-11-11T09:30:36.000Z</time>
      </trkpt>
      <trkpt lat="47.42595" lon="6.79554">
        <ele>489</ele>
        <time>2015-11-11T09:30:37.000Z</time>
      </trkpt>
      <trkpt lat="47.42591" lon="6.79554">
        <ele>489</ele>
        <time>2015-11-11T09:30:38.000Z</time>
      </trkpt>
      <trkpt lat="47.4258" lon="6.79554">
        <ele>493</ele>
        <time>2015-11-11T09:30:39.000Z</time>
      </trkpt>
      <trkpt lat="47.42575" lon="6.79555">
        <ele>493</ele>
        <time>2015-11-11T09:30:40.000Z</time>
      </trkpt>
      <trkpt lat="47.42571" lon="6.79556">
        <ele>494</ele>
        <time>2015-11-11T09:30:41.000Z</time>
      </trkpt>
      <trkpt lat="47.42568" lon="6.79555">
        <ele>493</ele>
        <time>2015-11-11T09:30:41.999Z</time>
      </trkpt>
      <trkpt lat="47.42565" lon="6.79556">
        <ele>494</ele>
        <time>2015-11-11T09:30:45.000Z</time>
      </trkpt>
      <trkpt lat="47.42562" lon="6.79557">
        <ele>494</ele>
        <time>2015-11-11T09:30:46.000Z</time>
      </trkpt>
      <trkpt lat="47.4256" lon="6.79559">
        <ele>494</ele>
        <time>2015-11-11T09:30:47.000Z</time>
      </trkpt>
      <trkpt lat="47.42555" lon="6.79561">
        <ele>494</ele>
        <time>2015-11-11T09:30:48.000Z</time>
      </trkpt>
      <trkpt lat="47.42552" lon="6.79564">
        <ele>494</ele>
        <time>2015-11-11T09:30:50.000Z</time>
      </trkpt>
      <trkpt lat="47.4255" lon="6.79565">
        <ele>494</ele>
        <time>2015-11-11T09:30:51.000Z</time>
      </trkpt>
      <trkpt lat="47.42546" lon="6.79567">
        <ele>495</ele>
        <time>2015-11-11T09:30:53.000Z</time>
      </trkpt>
      <trkpt lat="47.42543" lon="6.79568">
        <ele>495</ele>
        <time>2015-11-11T09:30:54.000Z</time>
      </trkpt>
      <trkpt lat="47.42541" lon="6.79569">
        <ele>495</ele>
        <time>2015-11-11T09:30:55.001Z</time>
      </trkpt>
      <trkpt lat="47.42535" lon="6.79568">
        <ele>495</ele>
        <time>2015-11-11T09:30:56.000Z</time>
      </trkpt>
      <trkpt lat="47.42531" lon="6.79568">
        <ele>495</ele>
        <time>2015-11-11T09:30:57.000Z</time>
      </trkpt>
      <trkpt lat="47.42526" lon="6.79568">
        <ele>496</ele>
        <time>2015-11-11T09:30:58.000Z</time>
      </trkpt>
      <trkpt lat="47.42522" lon="6.79568">
        <ele>496</ele>
        <time>2015-11-11T09:30:59.000Z</time>
      </trkpt>
      <trkpt lat="47.42517" lon="6.79567">
        <ele>497</ele>
        <time>2015-11-11T09:31:00.000Z</time>
      </trkpt>
      <trkpt lat="47.42512" lon="6.79567">
        <ele>497</ele>
        <time>2015-11-11T09:31:01.000Z</time>
      </trkpt>
      <trkpt lat="47.42507" lon="6.79566">
        <ele>497</ele>
        <time>2015-11-11T09:31:02.000Z</time>
      </trkpt>
      <trkpt lat="47.42501" lon="6.79566">
        <ele>498</ele>
        <time>2015-11-11T09:31:03.000Z</time>
      </trkpt>
      <trkpt lat="47.42495" lon="6.79565">
        <ele>499</ele>
        <time>2015-11-11T09:31:04.000Z</time>
      </trkpt>
      <trkpt lat="47.42489" lon="6.79564">
        <ele>498</ele>
        <time>2015-11-11T09:31:05.000Z</time>
      </trkpt>
      <trkpt lat="47.42482" lon="6.79562">
        <ele>497</ele>
        <time>2015-11-11T09:31:06.000Z</time>
      </trkpt>
      <trkpt lat="47.42476" lon="6.79562">
        <ele>497</ele>
        <time>2015-11-11T09:31:07.000Z</time>
      </trkpt>
      <trkpt lat="47.4247" lon="6.79561">
        <ele>497</ele>
        <time>2015-11-11T09:31:08.000Z</time>
      </trkpt>
      <trkpt lat="47.42454" lon="6.79559">
        <ele>497</ele>
        <time>2015-11-11T09:31:09.000Z</time>
      </trkpt>
      <trkpt lat="47.42449" lon="6.79557">
        <ele>496</ele>
        <time>2015-11-11T09:31:10.000Z</time>
      </trkpt>
      <trkpt lat="47.42443" lon="6.79554">
        <ele>496</ele>
        <time>2015-11-11T09:31:11.000Z</time>
      </trkpt>
      <trkpt lat="47.42437" lon="6.79554">
        <ele>496</ele>
        <time>2015-11-11T09:31:12.000Z</time>
      </trkpt>
      <trkpt lat="47.42431" lon="6.79552">
        <ele>496</ele>
        <time>2015-11-11T09:31:13.000Z</time>
      </trkpt>
      <trkpt lat="47.42426" lon="6.7955">
        <ele>496</ele>
        <time>2015-11-11T09:31:14.000Z</time>
      </trkpt>
      <trkpt lat="47.42419" lon="6.79545">
        <ele>495</ele>
        <time>2015-11-11T09:31:15.000Z</time>
      </trkpt>
      <trkpt lat="47.42411" lon="6.79543">
        <ele>496</ele>
        <time>2015-11-11T09:31:16.000Z</time>
      </trkpt>
      <trkpt lat="47.42404" lon="6.79539">
        <ele>496</ele>
        <time>2015-11-11T09:31:17.000Z</time>
      </trkpt>
      <trkpt lat="47.42398" lon="6.79537">
        <ele>495</ele>
        <time>2015-11-11T09:31:18.000Z</time>
      </trkpt>
      <trkpt lat="47.42392" lon="6.79535">
        <ele>495</ele>
        <time>2015-11-11T09:31:19.000Z</time>
      </trkpt>
      <trkpt lat="47.42387" lon="6.79536">
        <ele>496</ele>
        <time>2015-11-11T09:31:20.000Z</time>
      </trkpt>
      <trkpt lat="47.42381" lon="6.79535">
        <ele>496</ele>
        <time>2015-11-11T09:31:21.000Z</time>
      </trkpt>
      <trkpt lat="47.42376" lon="6.79534">
        <ele>496</ele>
        <time>2015-11-11T09:31:22.000Z</time>
      </trkpt>
      <trkpt lat="47.4237" lon="6.79531">
        <ele>495</ele>
        <time>2015-11-11T09:31:23.000Z</time>
      </trkpt>
      <trkpt lat="47.42365" lon="6.7953">
        <ele>495</ele>
        <time>2015-11-11T09:31:24.000Z</time>
      </trkpt>
      <trkpt lat="47.42357" lon="6.79527">
        <ele>495</ele>
        <time>2015-11-11T09:31:25.000Z</time>
      </trkpt>
      <trkpt lat="47.42349" lon="6.79525">
        <ele>495</ele>
        <time>2015-11-11T09:31:26.000Z</time>
      </trkpt>
      <trkpt lat="47.42343" lon="6.79523">
        <ele>494</ele>
        <time>2015-11-11T09:31:27.000Z</time>
      </trkpt>
      <trkpt lat="47.42337" lon="6.79521">
        <ele>494</ele>
        <time>2015-11-11T09:31:28.000Z</time>
      </trkpt>
      <trkpt lat="47.4233" lon="6.7952">
        <ele>495</ele>
        <time>2015-11-11T09:31:29.000Z</time>
      </trkpt>
      <trkpt lat="47.42324" lon="6.79518">
        <ele>495</ele>
        <time>2015-11-11T09:31:30.000Z</time>
      </trkpt>
      <trkpt lat="47.42318" lon="6.79515">
        <ele>495</ele>
        <time>2015-11-11T09:31:31.000Z</time>
      </trkpt>
      <trkpt lat="47.42313" lon="6.79515">
        <ele>495</ele>
        <time>2015-11-11T09:31:32.000Z</time>
      </trkpt>
      <trkpt lat="47.42307" lon="6.79513">
        <ele>495</ele>
        <time>2015-11-11T09:31:33.000Z</time>
      </trkpt>
      <trkpt lat="47.423" lon="6.79511">
        <ele>496</ele>
        <time>2015-11-11T09:31:34.000Z</time>
      </trkpt>
      <trkpt lat="47.42292" lon="6.79508">
        <ele>496</ele>
        <time>2015-11-11T09:31:35.000Z</time>
      </trkpt>
      <trkpt lat="47.42287" lon="6.79507">
        <ele>496</ele>
        <time>2015-11-11T09:31:36.000Z</time>
      </trkpt>
      <trkpt lat="47.42282" lon="6.79503">
        <ele>495</ele>
        <time>2015-11-11T09:31:37.000Z</time>
      </trkpt>
      <trkpt lat="47.42276" lon="6.79503">
        <ele>495</ele>
        <time>2015-11-11T09:31:38.000Z</time>
      </trkpt>
      <trkpt lat="47.42269" lon="6.79501">
        <ele>494</ele>
        <time>2015-11-11T09:31:39.000Z</time>
      </trkpt>
      <trkpt lat="47.42261" lon="6.79499">
        <ele>486</ele>
        <time>2015-11-11T09:31:40.000Z</time>
      </trkpt>
      <trkpt lat="47.42255" lon="6.79499">
        <ele>488</ele>
        <time>2015-11-11T09:31:41.000Z</time>
      </trkpt>
      <trkpt lat="47.42249" lon="6.79497">
        <ele>489</ele>
        <time>2015-11-11T09:31:42.000Z</time>
      </trkpt>
      <trkpt lat="47.42243" lon="6.79493">
        <ele>487</ele>
        <time>2015-11-11T09:31:43.000Z</time>
      </trkpt>
      <trkpt lat="47.42237" lon="6.79492">
        <ele>486</ele>
        <time>2015-11-11T09:31:44.000Z</time>
      </trkpt>
      <trkpt lat="47.42231" lon="6.7949">
        <ele>485</ele>
        <time>2015-11-11T09:31:45.000Z</time>
      </trkpt>
      <trkpt lat="47.42227" lon="6.79489">
        <ele>485</ele>
        <time>2015-11-11T09:31:46.000Z</time>
      </trkpt>
      <trkpt lat="47.42223" lon="6.79489">
        <ele>484</ele>
        <time>2015-11-11T09:31:47.000Z</time>
      </trkpt>
      <trkpt lat="47.42219" lon="6.79489">
        <ele>484</ele>
        <time>2015-11-11T09:31:48.000Z</time>
      </trkpt>
      <trkpt lat="47.42214" lon="6.79486">
        <ele>484</ele>
        <time>2015-11-11T09:31:49.000Z</time>
      </trkpt>
      <trkpt lat="47.4221" lon="6.79486">
        <ele>484</ele>
        <time>2015-11-11T09:31:50.000Z</time>
      </trkpt>
      <trkpt lat="47.42207" lon="6.79485">
        <ele>484</ele>
        <time>2015-11-11T09:31:51.000Z</time>
      </trkpt>
      <trkpt lat="47.42202" lon="6.79485">
        <ele>484</ele>
        <time>2015-11-11T09:31:52.000Z</time>
      </trkpt>
      <trkpt lat="47.42197" lon="6.79483">
        <ele>484</ele>
        <time>2015-11-11T09:31:53.000Z</time>
      </trkpt>
      <trkpt lat="47.42193" lon="6.79482">
        <ele>484</ele>
        <time>2015-11-11T09:31:54.000Z</time>
      </trkpt>
      <trkpt lat="47.42189" lon="6.79481">
        <ele>485</ele>
        <time>2015-11-11T09:31:55.000Z</time>
      </trkpt>
      <trkpt lat="47.42186" lon="6.79481">
        <ele>485</ele>
        <time>2015-11-11T09:31:56.001Z</time>
      </trkpt>
      <trkpt lat="47.42182" lon="6.79481">
        <ele>485</ele>
        <time>2015-11-11T09:31:57.000Z</time>
      </trkpt>
      <trkpt lat="47.42179" lon="6.79481">
        <ele>486</ele>
        <time>2015-11-11T09:31:58.000Z</time>
      </trkpt>
      <trkpt lat="47.42176" lon="6.79482">
        <ele>486</ele>
        <time>2015-11-11T09:31:59.000Z</time>
      </trkpt>
      <trkpt lat="47.42173" lon="6.79483">
        <ele>487</ele>
        <time>2015-11-11T09:32:00.000Z</time>
      </trkpt>
      <trkpt lat="47.4217" lon="6.79485">
        <ele>488</ele>
        <time>2015-11-11T09:32:01.000Z</time>
      </trkpt>
      <trkpt lat="47.42167" lon="6.79486">
        <ele>488</ele>
        <time>2015-11-11T09:32:02.000Z</time>
      </trkpt>
      <trkpt lat="47.42164" lon="6.79487">
        <ele>489</ele>
        <time>2015-11-11T09:32:03.000Z</time>
      </trkpt>
      <trkpt lat="47.42161" lon="6.79486">
        <ele>489</ele>
        <time>2015-11-11T09:32:04.000Z</time>
      </trkpt>
      <trkpt lat="47.42157" lon="6.79486">
        <ele>489</ele>
        <time>2015-11-11T09:32:05.000Z</time>
      </trkpt>
      <trkpt lat="47.42154" lon="6.79486">
        <ele>489</ele>
        <time>2015-11-11T09:32:06.000Z</time>
      </trkpt>
      <trkpt lat="47.42152" lon="6.79488">
        <ele>489</ele>
        <time>2015-11-11T09:32:07.000Z</time>
      </trkpt>
      <trkpt lat="47.4215" lon="6.7949">
        <ele>489</ele>
        <time>2015-11-11T09:32:08.000Z</time>
      </trkpt>
      <trkpt lat="47.42147" lon="6.79491">
        <ele>488</ele>
        <time>2015-11-11T09:32:09.000Z</time>
      </trkpt>
      <trkpt lat="47.42144" lon="6.79493">
        <ele>488</ele>
        <time>2015-11-11T09:32:10.000Z</time>
      </trkpt>
      <trkpt lat="47.42141" lon="6.79494">
        <ele>488</ele>
        <time>2015-11-11T09:32:11.000Z</time>
      </trkpt>
      <trkpt lat="47.42139" lon="6.79496">
        <ele>488</ele>
        <time>2015-11-11T09:32:12.000Z</time>
      </trkpt>
      <trkpt lat="47.42136" lon="6.79499">
        <ele>488</ele>
        <time>2015-11-11T09:32:13.000Z</time>
      </trkpt>
      <trkpt lat="47.42134" lon="6.79501">
        <ele>500</ele>
        <time>2015-11-11T09:32:14.000Z</time>
      </trkpt>
      <trkpt lat="47.42131" lon="6.79503">
        <ele>501</ele>
        <time>2015-11-11T09:32:15.000Z</time>
      </trkpt>
      <trkpt lat="47.42128" lon="6.79505">
        <ele>501</ele>
        <time>2015-11-11T09:32:16.000Z</time>
      </trkpt>
      <trkpt lat="47.42125" lon="6.79506">
        <ele>501</ele>
        <time>2015-11-11T09:32:17.000Z</time>
      </trkpt>
      <trkpt lat="47.42122" lon="6.79506">
        <ele>501</ele>
        <time>2015-11-11T09:32:18.000Z</time>
      </trkpt>
      <trkpt lat="47.42121" lon="6.79508">
        <ele>501</ele>
        <time>2015-11-11T09:32:19.000Z</time>
      </trkpt>
      <trkpt lat="47.42117" lon="6.79507">
        <ele>501</ele>
        <time>2015-11-11T09:32:20.000Z</time>
      </trkpt>
      <trkpt lat="47.42114" lon="6.79507">
        <ele>501</ele>
        <time>2015-11-11T09:32:21.000Z</time>
      </trkpt>
      <trkpt lat="47.42111" lon="6.79506">
        <ele>501</ele>
        <time>2015-11-11T09:32:22.000Z</time>
      </trkpt>
      <trkpt lat="47.42108" lon="6.79506">
        <ele>501</ele>
        <time>2015-11-11T09:32:23.000Z</time>
      </trkpt>
      <trkpt lat="47.42105" lon="6.79506">
        <ele>500</ele>
        <time>2015-11-11T09:32:24.000Z</time>
      </trkpt>
      <trkpt lat="47.42103" lon="6.79507">
        <ele>500</ele>
        <time>2015-11-11T09:32:25.000Z</time>
      </trkpt>
      <trkpt lat="47.42099" lon="6.79511">
        <ele>500</ele>
        <time>2015-11-11T09:32:27.000Z</time>
      </trkpt>
      <trkpt lat="47.42098" lon="6.79514">
        <ele>500</ele>
        <time>2015-11-11T09:32:28.000Z</time>
      </trkpt>
      <trkpt lat="47.42096" lon="6.79516">
        <ele>501</ele>
        <time>2015-11-11T09:32:29.000Z</time>
      </trkpt>
      <trkpt lat="47.42093" lon="6.79519">
        <ele>501</ele>
        <time>2015-11-11T09:32:30.000Z</time>
      </trkpt>
      <trkpt lat="47.42091" lon="6.79521">
        <ele>501</ele>
        <time>2015-11-11T09:32:31.000Z</time>
      </trkpt>
      <trkpt lat="47.42088" lon="6.79523">
        <ele>501</ele>
        <time>2015-11-11T09:32:32.000Z</time>
      </trkpt>
      <trkpt lat="47.42085" lon="6.79524">
        <ele>501</ele>
        <time>2015-11-11T09:32:33.000Z</time>
      </trkpt>
      <trkpt lat="47.42082" lon="6.79525">
        <ele>501</ele>
        <time>2015-11-11T09:32:34.000Z</time>
      </trkpt>
      <trkpt lat="47.42078" lon="6.79525">
        <ele>501</ele>
        <time>2015-11-11T09:32:35.000Z</time>
      </trkpt>
      <trkpt lat="47.42074" lon="6.79525">
        <ele>501</ele>
        <time>2015-11-11T09:32:36.000Z</time>
      </trkpt>
      <trkpt lat="47.42071" lon="6.79524">
        <ele>501</ele>
        <time>2015-11-11T09:32:37.000Z</time>
      </trkpt>
      <trkpt lat="47.42067" lon="6.79524">
        <ele>501</ele>
        <time>2015-11-11T09:32:38.000Z</time>
      </trkpt>
      <trkpt lat="47.42064" lon="6.79523">
        <ele>501</ele>
        <time>2015-11-11T09:32:39.000Z</time>
      </trkpt>
      <trkpt lat="47.42061" lon="6.79521">
        <ele>501</ele>
        <time>2015-11-11T09:32:40.000Z</time>
      </trkpt>
      <trkpt lat="47.42058" lon="6.7952">
        <ele>501</ele>
        <time>2015-11-11T09:32:41.000Z</time>
      </trkpt>
      <trkpt lat="47.42054" lon="6.79518">
        <ele>501</ele>
        <time>2015-11-11T09:32:42.000Z</time>
      </trkpt>
      <trkpt lat="47.42051" lon="6.79517">
        <ele>501</ele>
        <time>2015-11-11T09:32:43.000Z</time>
      </trkpt>
      <trkpt lat="47.42047" lon="6.79515">
        <ele>501</ele>
        <time>2015-11-11T09:32:44.000Z</time>
      </trkpt>
      <trkpt lat="47.42043" lon="6.79514">
        <ele>501</ele>
        <time>2015-11-11T09:32:45.000Z</time>
      </trkpt>
      <trkpt lat="47.4204" lon="6.79513">
        <ele>501</ele>
        <time>2015-11-11T09:32:46.000Z</time>
      </trkpt>
      <trkpt lat="47.42037" lon="6.79512">
        <ele>501</ele>
        <time>2015-11-11T09:32:47.000Z</time>
      </trkpt>
      <trkpt lat="47.42033" lon="6.79512">
        <ele>501</ele>
        <time>2015-11-11T09:32:48.000Z</time>
      </trkpt>
      <trkpt lat="47.4203" lon="6.79512">
        <ele>500</ele>
        <time>2015-11-11T09:32:49.000Z</time>
      </trkpt>
      <trkpt lat="47.42026" lon="6.79512">
        <ele>500</ele>
        <time>2015-11-11T09:32:50.001Z</time>
      </trkpt>
      <trkpt lat="47.42024" lon="6.79512">
        <ele>500</ele>
        <time>2015-11-11T09:32:50.999Z</time>
      </trkpt>
      <trkpt lat="47.4202" lon="6.79514">
        <ele>500</ele>
        <time>2015-11-11T09:32:52.000Z</time>
      </trkpt>
      <trkpt lat="47.42018" lon="6.79527">
        <ele>501</ele>
        <time>2015-11-11T09:32:53.000Z</time>
      </trkpt>
      <trkpt lat="47.42016" lon="6.79532">
        <ele>501</ele>
        <time>2015-11-11T09:32:54.000Z</time>
      </trkpt>
      <trkpt lat="47.42015" lon="6.79536">
        <ele>502</ele>
        <time>2015-11-11T09:32:55.000Z</time>
      </trkpt>
      <trkpt lat="47.42008" lon="6.79536">
        <ele>502</ele>
        <time>2015-11-11T09:32:56.000Z</time>
      </trkpt>
      <trkpt lat="47.42005" lon="6.79539">
        <ele>502</ele>
        <time>2015-11-11T09:32:57.000Z</time>
      </trkpt>
      <trkpt lat="47.42003" lon="6.79542">
        <ele>502</ele>
        <time>2015-11-11T09:32:58.000Z</time>
      </trkpt>
      <trkpt lat="47.41999" lon="6.79543">
        <ele>496</ele>
        <time>2015-11-11T09:32:59.000Z</time>
      </trkpt>
      <trkpt lat="47.41998" lon="6.79546">
        <ele>496</ele>
        <time>2015-11-11T09:33:00.000Z</time>
      </trkpt>
      <trkpt lat="47.41994" lon="6.79549">
        <ele>496</ele>
        <time>2015-11-11T09:33:01.000Z</time>
      </trkpt>
      <trkpt lat="47.41992" lon="6.79553">
        <ele>496</ele>
        <time>2015-11-11T09:33:02.000Z</time>
      </trkpt>
      <trkpt lat="47.4199" lon="6.79558">
        <ele>497</ele>
        <time>2015-11-11T09:33:05.000Z</time>
      </trkpt>
      <trkpt lat="47.41988" lon="6.7956">
        <ele>497</ele>
        <time>2015-11-11T09:33:06.000Z</time>
      </trkpt>
      <trkpt lat="47.41987" lon="6.79564">
        <ele>497</ele>
        <time>2015-11-11T09:33:07.000Z</time>
      </trkpt>
      <trkpt lat="47.41984" lon="6.79568">
        <ele>498</ele>
        <time>2015-11-11T09:33:08.000Z</time>
      </trkpt>
      <trkpt lat="47.41982" lon="6.79572">
        <ele>498</ele>
        <time>2015-11-11T09:33:09.000Z</time>
      </trkpt>
      <trkpt lat="47.4198" lon="6.79576">
        <ele>498</ele>
        <time>2015-11-11T09:33:10.000Z</time>
      </trkpt>
      <trkpt lat="47.41977" lon="6.79581">
        <ele>498</ele>
        <time>2015-11-11T09:33:11.000Z</time>
      </trkpt>
      <trkpt lat="47.41975" lon="6.79585">
        <ele>502</ele>
        <time>2015-11-11T09:33:12.000Z</time>
      </trkpt>
      <trkpt lat="47.41972" lon="6.7959">
        <ele>502</ele>
        <time>2015-11-11T09:33:13.000Z</time>
      </trkpt>
      <trkpt lat="47.41971" lon="6.79595">
        <ele>501</ele>
        <time>2015-11-11T09:33:14.000Z</time>
      </trkpt>
      <trkpt lat="47.41963" lon="6.79602">
        <ele>501</ele>
        <time>2015-11-11T09:33:15.000Z</time>
      </trkpt>
      <trkpt lat="47.41962" lon="6.79606">
        <ele>501</ele>
        <time>2015-11-11T09:33:16.000Z</time>
      </trkpt>
      <trkpt lat="47.41962" lon="6.7961">
        <ele>501</ele>
        <time>2015-11-11T09:33:17.000Z</time>
      </trkpt>
      <trkpt lat="47.41962" lon="6.79615">
        <ele>501</ele>
        <time>2015-11-11T09:33:18.000Z</time>
      </trkpt>
      <trkpt lat="47.41962" lon="6.79619">
        <ele>501</ele>
        <time>2015-11-11T09:33:18.999Z</time>
      </trkpt>
      <trkpt lat="47.4196" lon="6.79624">
        <ele>501</ele>
        <time>2015-11-11T09:33:20.000Z</time>
      </trkpt>
      <trkpt lat="47.4196" lon="6.79628">
        <ele>501</ele>
        <time>2015-11-11T09:33:21.000Z</time>
      </trkpt>
      <trkpt lat="47.41964" lon="6.79626">
        <ele>502</ele>
        <time>2015-11-11T09:33:22.000Z</time>
      </trkpt>
      <trkpt lat="47.41965" lon="6.79627">
        <ele>502</ele>
        <time>2015-11-11T09:33:23.000Z</time>
      </trkpt>
      <trkpt lat="47.41967" lon="6.79626">
        <ele>502</ele>
        <time>2015-11-11T09:33:24.000Z</time>
      </trkpt>
      <trkpt lat="47.41969" lon="6.79627">
        <ele>502</ele>
        <time>2015-11-11T09:33:25.000Z</time>
      </trkpt>
      <trkpt lat="47.41971" lon="6.79632">
        <ele>503</ele>
        <time>2015-11-11T09:33:28.001Z</time>
      </trkpt>
      <trkpt lat="47.4197" lon="6.79637">
        <ele>503</ele>
        <time>2015-11-11T09:33:29.000Z</time>
      </trkpt>
      <trkpt lat="47.41968" lon="6.79645">
        <ele>503</ele>
        <time>2015-11-11T09:33:30.000Z</time>
      </trkpt>
      <trkpt lat="47.41963" lon="6.7965">
        <ele>503</ele>
        <time>2015-11-11T09:33:31.000Z</time>
      </trkpt>
      <trkpt lat="47.41962" lon="6.79656">
        <ele>503</ele>
        <time>2015-11-11T09:33:32.000Z</time>
      </trkpt>
      <trkpt lat="47.41961" lon="6.79662">
        <ele>503</ele>
        <time>2015-11-11T09:33:33.000Z</time>
      </trkpt>
      <trkpt lat="47.4196" lon="6.79667">
        <ele>503</ele>
        <time>2015-11-11T09:33:34.000Z</time>
      </trkpt>
      <trkpt lat="47.4196" lon="6.79672">
        <ele>506</ele>
        <time>2015-11-11T09:33:35.000Z</time>
      </trkpt>
      <trkpt lat="47.41958" lon="6.79677">
        <ele>506</ele>
        <time>2015-11-11T09:33:36.000Z</time>
      </trkpt>
      <trkpt lat="47.41957" lon="6.79681">
        <ele>506</ele>
        <time>2015-11-11T09:33:37.000Z</time>
      </trkpt>
      <trkpt lat="47.41955" lon="6.79684">
        <ele>505</ele>
        <time>2015-11-11T09:33:38.000Z</time>
      </trkpt>
      <trkpt lat="47.41953" lon="6.79687">
        <ele>505</ele>
        <time>2015-11-11T09:33:39.000Z</time>
      </trkpt>
      <trkpt lat="47.41952" lon="6.79691">
        <ele>505</ele>
        <time>2015-11-11T09:33:40.000Z</time>
      </trkpt>
      <trkpt lat="47.4195" lon="6.79696">
        <ele>505</ele>
        <time>2015-11-11T09:33:41.000Z</time>
      </trkpt>
      <trkpt lat="47.41948" lon="6.797">
        <ele>505</ele>
        <time>2015-11-11T09:33:42.000Z</time>
      </trkpt>
      <trkpt lat="47.41947" lon="6.79705">
        <ele>505</ele>
        <time>2015-11-11T09:33:43.000Z</time>
      </trkpt>
      <trkpt lat="47.41942" lon="6.79717">
        <ele>504</ele>
        <time>2015-11-11T09:33:44.000Z</time>
      </trkpt>
      <trkpt lat="47.4194" lon="6.79726">
        <ele>504</ele>
        <time>2015-11-11T09:33:45.000Z</time>
      </trkpt>
      <trkpt lat="47.41939" lon="6.79733">
        <ele>504</ele>
        <time>2015-11-11T09:33:46.000Z</time>
      </trkpt>
      <trkpt lat="47.41939" lon="6.79743">
        <ele>503</ele>
        <time>2015-11-11T09:33:47.000Z</time>
      </trkpt>
      <trkpt lat="47.41939" lon="6.7975">
        <ele>504</ele>
        <time>2015-11-11T09:33:48.000Z</time>
      </trkpt>
      <trkpt lat="47.41938" lon="6.79759">
        <ele>504</ele>
        <time>2015-11-11T09:33:49.000Z</time>
      </trkpt>
      <trkpt lat="47.41936" lon="6.79764">
        <ele>504</ele>
        <time>2015-11-11T09:33:50.000Z</time>
      </trkpt>
      <trkpt lat="47.41936" lon="6.7977">
        <ele>505</ele>
        <time>2015-11-11T09:33:51.000Z</time>
      </trkpt>
      <trkpt lat="47.41937" lon="6.79774">
        <ele>505</ele>
        <time>2015-11-11T09:33:52.000Z</time>
      </trkpt>
      <trkpt lat="47.41937" lon="6.7978">
        <ele>505</ele>
        <time>2015-11-11T09:33:53.000Z</time>
      </trkpt>
      <trkpt lat="47.41938" lon="6.79784">
        <ele>506</ele>
        <time>2015-11-11T09:33:54.000Z</time>
      </trkpt>
      <trkpt lat="47.41936" lon="6.79791">
        <ele>506</ele>
        <time>2015-11-11T09:33:55.000Z</time>
      </trkpt>
      <trkpt lat="47.41935" lon="6.79797">
        <ele>505</ele>
        <time>2015-11-11T09:33:56.000Z</time>
      </trkpt>
      <trkpt lat="47.41934" lon="6.79803">
        <ele>505</ele>
        <time>2015-11-11T09:33:57.000Z</time>
      </trkpt>
      <trkpt lat="47.41933" lon="6.79808">
        <ele>505</ele>
        <time>2015-11-11T09:33:58.000Z</time>
      </trkpt>
      <trkpt lat="47.41932" lon="6.79814">
        <ele>504</ele>
        <time>2015-11-11T09:33:59.000Z</time>
      </trkpt>
      <trkpt lat="47.41931" lon="6.79819">
        <ele>504</ele>
        <time>2015-11-11T09:34:00.000Z</time>
      </trkpt>
      <trkpt lat="47.4193" lon="6.79825">
        <ele>503</ele>
        <time>2015-11-11T09:34:01.000Z</time>
      </trkpt>
      <trkpt lat="47.41929" lon="6.79832">
        <ele>502</ele>
        <time>2015-11-11T09:34:02.000Z</time>
      </trkpt>
      <trkpt lat="47.41928" lon="6.79838">
        <ele>502</ele>
        <time>2015-11-11T09:34:03.000Z</time>
      </trkpt>
      <trkpt lat="47.41927" lon="6.79845">
        <ele>502</ele>
        <time>2015-11-11T09:34:04.000Z</time>
      </trkpt>
      <trkpt lat="47.41926" lon="6.79851">
        <ele>503</ele>
        <time>2015-11-11T09:34:05.000Z</time>
      </trkpt>
      <trkpt lat="47.41925" lon="6.79857">
        <ele>504</ele>
        <time>2015-11-11T09:34:06.000Z</time>
      </trkpt>
      <trkpt lat="47.41924" lon="6.79863">
        <ele>504</ele>
        <time>2015-11-11T09:34:07.000Z</time>
      </trkpt>
      <trkpt lat="47.41922" lon="6.79869">
        <ele>504</ele>
        <time>2015-11-11T09:34:08.000Z</time>
      </trkpt>
      <trkpt lat="47.41921" lon="6.79876">
        <ele>504</ele>
        <time>2015-11-11T09:34:09.000Z</time>
      </trkpt>
      <trkpt lat="47.41919" lon="6.79883">
        <ele>504</ele>
        <time>2015-11-11T09:34:10.000Z</time>
      </trkpt>
      <trkpt lat="47.41917" lon="6.7989">
        <ele>503</ele>
        <time>2015-11-11T09:34:11.000Z</time>
      </trkpt>
      <trkpt lat="47.41916" lon="6.79896">
        <ele>492</ele>
        <time>2015-11-11T09:34:12.000Z</time>
      </trkpt>
      <trkpt lat="47.41913" lon="6.79903">
        <ele>493</ele>
        <time>2015-11-11T09:34:13.000Z</time>
      </trkpt>
      <trkpt lat="47.41911" lon="6.7991">
        <ele>494</ele>
        <time>2015-11-11T09:34:14.000Z</time>
      </trkpt>
      <trkpt lat="47.41908" lon="6.79916">
        <ele>494</ele>
        <time>2015-11-11T09:34:15.000Z</time>
      </trkpt>
      <trkpt lat="47.41905" lon="6.79922">
        <ele>494</ele>
        <time>2015-11-11T09:34:16.000Z</time>
      </trkpt>
      <trkpt lat="47.41903" lon="6.79927">
        <ele>494</ele>
        <time>2015-11-11T09:34:17.000Z</time>
      </trkpt>
      <trkpt lat="47.419" lon="6.79933">
        <ele>493</ele>
        <time>2015-11-11T09:34:18.000Z</time>
      </trkpt>
      <trkpt lat="47.41898" lon="6.79938">
        <ele>493</ele>
        <time>2015-11-11T09:34:19.000Z</time>
      </trkpt>
      <trkpt lat="47.41891" lon="6.79956">
        <ele>492</ele>
        <time>2015-11-11T09:34:20.000Z</time>
      </trkpt>
      <trkpt lat="47.41887" lon="6.79963">
        <ele>492</ele>
        <time>2015-11-11T09:34:21.000Z</time>
      </trkpt>
      <trkpt lat="47.41882" lon="6.79971">
        <ele>491</ele>
        <time>2015-11-11T09:34:22.000Z</time>
      </trkpt>
      <trkpt lat="47.41875" lon="6.7998">
        <ele>491</ele>
        <time>2015-11-11T09:34:23.000Z</time>
      </trkpt>
      <trkpt lat="47.4187" lon="6.79987">
        <ele>491</ele>
        <time>2015-11-11T09:34:24.000Z</time>
      </trkpt>
      <trkpt lat="47.41865" lon="6.79993">
        <ele>491</ele>
        <time>2015-11-11T09:34:25.000Z</time>
      </trkpt>
      <trkpt lat="47.41863" lon="6.79997">
        <ele>491</ele>
        <time>2015-11-11T09:34:26.000Z</time>
      </trkpt>
      <trkpt lat="47.41858" lon="6.79997">
        <ele>490</ele>
        <time>2015-11-11T09:34:27.000Z</time>
      </trkpt>
      <trkpt lat="47.41857" lon="6.80002">
        <ele>493</ele>
        <time>2015-11-11T09:34:28.000Z</time>
      </trkpt>
      <trkpt lat="47.41853" lon="6.80005">
        <ele>493</ele>
        <time>2015-11-11T09:34:29.000Z</time>
      </trkpt>
      <trkpt lat="47.41851" lon="6.80011">
        <ele>493</ele>
        <time>2015-11-11T09:34:30.000Z</time>
      </trkpt>
      <trkpt lat="47.41846" lon="6.80017">
        <ele>493</ele>
        <time>2015-11-11T09:34:31.000Z</time>
      </trkpt>
      <trkpt lat="47.41843" lon="6.80019">
        <ele>493</ele>
        <time>2015-11-11T09:34:32.000Z</time>
      </trkpt>
      <trkpt lat="47.4184" lon="6.80022">
        <ele>493</ele>
        <time>2015-11-11T09:34:33.000Z</time>
      </trkpt>
      <trkpt lat="47.41836" lon="6.8002">
        <ele>493</ele>
        <time>2015-11-11T09:34:34.000Z</time>
      </trkpt>
      <trkpt lat="47.41834" lon="6.80021">
        <ele>493</ele>
        <time>2015-11-11T09:34:35.000Z</time>
      </trkpt>
      <trkpt lat="47.41831" lon="6.80022">
        <ele>492</ele>
        <time>2015-11-11T09:34:36.000Z</time>
      </trkpt>
      <trkpt lat="47.41829" lon="6.80023">
        <ele>492</ele>
        <time>2015-11-11T09:34:37.000Z</time>
      </trkpt>
      <trkpt lat="47.41826" lon="6.80024">
        <ele>492</ele>
        <time>2015-11-11T09:34:39.000Z</time>
      </trkpt>
      <trkpt lat="47.41825" lon="6.80025">
        <ele>492</ele>
        <time>2015-11-11T09:34:40.000Z</time>
      </trkpt>
      <trkpt lat="47.41821" lon="6.80028">
        <ele>493</ele>
        <time>2015-11-11T09:34:42.000Z</time>
      </trkpt>
      <trkpt lat="47.41819" lon="6.80028">
        <ele>493</ele>
        <time>2015-11-11T09:34:43.000Z</time>
      </trkpt>
      <trkpt lat="47.41816" lon="6.80029">
        <ele>493</ele>
        <time>2015-11-11T09:34:44.000Z</time>
      </trkpt>
      <trkpt lat="47.41813" lon="6.8003">
        <ele>493</ele>
        <time>2015-11-11T09:34:45.000Z</time>
      </trkpt>
      <trkpt lat="47.41811" lon="6.8003">
        <ele>493</ele>
        <time>2015-11-11T09:34:46.000Z</time>
      </trkpt>
      <trkpt lat="47.41808" lon="6.80031">
        <ele>493</ele>
        <time>2015-11-11T09:34:47.000Z</time>
      </trkpt>
      <trkpt lat="47.41806" lon="6.80032">
        <ele>493</ele>
        <time>2015-11-11T09:34:48.000Z</time>
      </trkpt>
      <trkpt lat="47.41803" lon="6.80033">
        <ele>494</ele>
        <time>2015-11-11T09:34:49.000Z</time>
      </trkpt>
      <trkpt lat="47.41799" lon="6.80035">
        <ele>494</ele>
        <time>2015-11-11T09:34:51.000Z</time>
      </trkpt>
      <trkpt lat="47.41797" lon="6.80036">
        <ele>494</ele>
        <time>2015-11-11T09:34:52.000Z</time>
      </trkpt>
      <trkpt lat="47.41793" lon="6.80037">
        <ele>494</ele>
        <time>2015-11-11T09:34:54.000Z</time>
      </trkpt>
      <trkpt lat="47.41791" lon="6.80038">
        <ele>494</ele>
        <time>2015-11-11T09:34:55.000Z</time>
      </trkpt>
      <trkpt lat="47.41787" lon="6.80039">
        <ele>494</ele>
        <time>2015-11-11T09:34:57.000Z</time>
      </trkpt>
      <trkpt lat="47.41785" lon="6.80039">
        <ele>494</ele>
        <time>2015-11-11T09:34:58.000Z</time>
      </trkpt>
      <trkpt lat="47.41781" lon="6.80041">
        <ele>495</ele>
        <time>2015-11-11T09:35:00.001Z</time>
      </trkpt>
      <trkpt lat="47.4178" lon="6.80042">
        <ele>495</ele>
        <time>2015-11-11T09:35:01.000Z</time>
      </trkpt>
      <trkpt lat="47.41777" lon="6.80046">
        <ele>495</ele>
        <time>2015-11-11T09:35:03.000Z</time>
      </trkpt>
      <trkpt lat="47.41776" lon="6.80048">
        <ele>495</ele>
        <time>2015-11-11T09:35:04.000Z</time>
      </trkpt>
      <trkpt lat="47.41774" lon="6.80053">
        <ele>495</ele>
        <time>2015-11-11T09:35:07.000Z</time>
      </trkpt>
      <trkpt lat="47.41774" lon="6.80054">
        <ele>495</ele>
        <time>2015-11-11T09:35:08.000Z</time>
      </trkpt>
      <trkpt lat="47.41772" lon="6.80057">
        <ele>496</ele>
        <time>2015-11-11T09:35:10.000Z</time>
      </trkpt>
      <trkpt lat="47.4177" lon="6.80059">
        <ele>496</ele>
        <time>2015-11-11T09:35:11.000Z</time>
      </trkpt>
      <trkpt lat="47.41769" lon="6.80064">
        <ele>496</ele>
        <time>2015-11-11T09:35:13.000Z</time>
      </trkpt>
      <trkpt lat="47.41768" lon="6.80066">
        <ele>496</ele>
        <time>2015-11-11T09:35:14.000Z</time>
      </trkpt>
      <trkpt lat="47.41766" lon="6.8007">
        <ele>497</ele>
        <time>2015-11-11T09:35:17.000Z</time>
      </trkpt>
      <trkpt lat="47.41765" lon="6.80072">
        <ele>497</ele>
        <time>2015-11-11T09:35:18.000Z</time>
      </trkpt>
      <trkpt lat="47.41762" lon="6.80077">
        <ele>498</ele>
        <time>2015-11-11T09:35:21.000Z</time>
      </trkpt>
      <trkpt lat="47.41761" lon="6.80079">
        <ele>498</ele>
        <time>2015-11-11T09:35:22.000Z</time>
      </trkpt>
      <trkpt lat="47.41759" lon="6.80083">
        <ele>498</ele>
        <time>2015-11-11T09:35:25.000Z</time>
      </trkpt>
      <trkpt lat="47.41758" lon="6.80085">
        <ele>502</ele>
        <time>2015-11-11T09:35:26.000Z</time>
      </trkpt>
      <trkpt lat="47.41756" lon="6.8009">
        <ele>502</ele>
        <time>2015-11-11T09:35:30.000Z</time>
      </trkpt>
      <trkpt lat="47.41755" lon="6.80091">
        <ele>502</ele>
        <time>2015-11-11T09:35:31.000Z</time>
      </trkpt>
      <trkpt lat="47.41753" lon="6.80094">
        <ele>503</ele>
        <time>2015-11-11T09:35:34.000Z</time>
      </trkpt>
      <trkpt lat="47.41752" lon="6.80096">
        <ele>503</ele>
        <time>2015-11-11T09:35:35.000Z</time>
      </trkpt>
      <trkpt lat="47.4175" lon="6.80101">
        <ele>509</ele>
        <time>2015-11-11T09:35:38.000Z</time>
      </trkpt>
      <trkpt lat="47.41749" lon="6.80102">
        <ele>510</ele>
        <time>2015-11-11T09:35:39.000Z</time>
      </trkpt>
      <trkpt lat="47.41745" lon="6.80104">
        <ele>511</ele>
        <time>2015-11-11T09:35:48.000Z</time>
      </trkpt>
      <trkpt lat="47.41744" lon="6.80103">
        <ele>511</ele>
        <time>2015-11-11T09:35:49.000Z</time>
      </trkpt>
      <trkpt lat="47.41742" lon="6.801">
        <ele>510</ele>
        <time>2015-11-11T09:35:50.000Z</time>
      </trkpt>
      <trkpt lat="47.41741" lon="6.80098">
        <ele>509</ele>
        <time>2015-11-11T09:35:51.000Z</time>
      </trkpt>
      <trkpt lat="47.41739" lon="6.80095">
        <ele>509</ele>
        <time>2015-11-11T09:35:52.000Z</time>
      </trkpt>
      <trkpt lat="47.41737" lon="6.80093">
        <ele>509</ele>
        <time>2015-11-11T09:35:53.000Z</time>
      </trkpt>
      <trkpt lat="47.41736" lon="6.8009">
        <ele>509</ele>
        <time>2015-11-11T09:35:54.000Z</time>
      </trkpt>
      <trkpt lat="47.41734" lon="6.80088">
        <ele>509</ele>
        <time>2015-11-11T09:35:55.000Z</time>
      </trkpt>
      <trkpt lat="47.41731" lon="6.80084">
        <ele>510</ele>
        <time>2015-11-11T09:35:57.000Z</time>
      </trkpt>
      <trkpt lat="47.41729" lon="6.80083">
        <ele>503</ele>
        <time>2015-11-11T09:35:58.000Z</time>
      </trkpt>
      <trkpt lat="47.41727" lon="6.80081">
        <ele>503</ele>
        <time>2015-11-11T09:35:59.000Z</time>
      </trkpt>
      <trkpt lat="47.41725" lon="6.80079">
        <ele>503</ele>
        <time>2015-11-11T09:36:00.000Z</time>
      </trkpt>
      <trkpt lat="47.41723" lon="6.80077">
        <ele>503</ele>
        <time>2015-11-11T09:36:01.000Z</time>
      </trkpt>
      <trkpt lat="47.4172" lon="6.80074">
        <ele>504</ele>
        <time>2015-11-11T09:36:02.000Z</time>
      </trkpt>
      <trkpt lat="47.41718" lon="6.80071">
        <ele>504</ele>
        <time>2015-11-11T09:36:03.000Z</time>
      </trkpt>
      <trkpt lat="47.41716" lon="6.80069">
        <ele>504</ele>
        <time>2015-11-11T09:36:04.000Z</time>
      </trkpt>
      <trkpt lat="47.41714" lon="6.80067">
        <ele>504</ele>
        <time>2015-11-11T09:36:05.000Z</time>
      </trkpt>
      <trkpt lat="47.41712" lon="6.80065">
        <ele>504</ele>
        <time>2015-11-11T09:36:06.000Z</time>
      </trkpt>
      <trkpt lat="47.4171" lon="6.80062">
        <ele>504</ele>
        <time>2015-11-11T09:36:07.000Z</time>
      </trkpt>
      <trkpt lat="47.41707" lon="6.80059">
        <ele>505</ele>
        <time>2015-11-11T09:36:08.000Z</time>
      </trkpt>
      <trkpt lat="47.41704" lon="6.80055">
        <ele>505</ele>
        <time>2015-11-11T09:36:09.000Z</time>
      </trkpt>
      <trkpt lat="47.41702" lon="6.80053">
        <ele>505</ele>
        <time>2015-11-11T09:36:10.000Z</time>
      </trkpt>
      <trkpt lat="47.417" lon="6.8005">
        <ele>505</ele>
        <time>2015-11-11T09:36:11.000Z</time>
      </trkpt>
      <trkpt lat="47.41698" lon="6.80048">
        <ele>505</ele>
        <time>2015-11-11T09:36:12.000Z</time>
      </trkpt>
      <trkpt lat="47.41696" lon="6.80045">
        <ele>505</ele>
        <time>2015-11-11T09:36:13.000Z</time>
      </trkpt>
      <trkpt lat="47.41694" lon="6.80042">
        <ele>505</ele>
        <time>2015-11-11T09:36:14.000Z</time>
      </trkpt>
      <trkpt lat="47.41692" lon="6.80039">
        <ele>505</ele>
        <time>2015-11-11T09:36:15.000Z</time>
      </trkpt>
      <trkpt lat="47.4169" lon="6.80036">
        <ele>504</ele>
        <time>2015-11-11T09:36:16.000Z</time>
      </trkpt>
      <trkpt lat="47.41688" lon="6.80033">
        <ele>504</ele>
        <time>2015-11-11T09:36:17.000Z</time>
      </trkpt>
      <trkpt lat="47.41686" lon="6.8003">
        <ele>504</ele>
        <time>2015-11-11T09:36:18.000Z</time>
      </trkpt>
      <trkpt lat="47.41684" lon="6.80027">
        <ele>504</ele>
        <time>2015-11-11T09:36:19.000Z</time>
      </trkpt>
      <trkpt lat="47.41681" lon="6.80024">
        <ele>504</ele>
        <time>2015-11-11T09:36:20.000Z</time>
      </trkpt>
      <trkpt lat="47.41679" lon="6.80021">
        <ele>504</ele>
        <time>2015-11-11T09:36:21.000Z</time>
      </trkpt>
      <trkpt lat="47.41677" lon="6.80017">
        <ele>504</ele>
        <time>2015-11-11T09:36:22.000Z</time>
      </trkpt>
      <trkpt lat="47.41674" lon="6.80014">
        <ele>504</ele>
        <time>2015-11-11T09:36:23.000Z</time>
      </trkpt>
      <trkpt lat="47.41671" lon="6.8001">
        <ele>503</ele>
        <time>2015-11-11T09:36:24.000Z</time>
      </trkpt>
      <trkpt lat="47.41669" lon="6.80007">
        <ele>503</ele>
        <time>2015-11-11T09:36:25.000Z</time>
      </trkpt>
      <trkpt lat="47.41666" lon="6.80004">
        <ele>505</ele>
        <time>2015-11-11T09:36:26.000Z</time>
      </trkpt>
      <trkpt lat="47.41663" lon="6.80001">
        <ele>505</ele>
        <time>2015-11-11T09:36:27.000Z</time>
      </trkpt>
      <trkpt lat="47.41661" lon="6.79998">
        <ele>504</ele>
        <time>2015-11-11T09:36:28.000Z</time>
      </trkpt>
      <trkpt lat="47.41658" lon="6.79994">
        <ele>504</ele>
        <time>2015-11-11T09:36:29.000Z</time>
      </trkpt>
      <trkpt lat="47.41655" lon="6.79991">
        <ele>504</ele>
        <time>2015-11-11T09:36:30.000Z</time>
      </trkpt>
      <trkpt lat="47.41653" lon="6.79988">
        <ele>505</ele>
        <time>2015-11-11T09:36:31.000Z</time>
      </trkpt>
      <trkpt lat="47.4165" lon="6.79986">
        <ele>505</ele>
        <time>2015-11-11T09:36:32.000Z</time>
      </trkpt>
      <trkpt lat="47.41647" lon="6.79985">
        <ele>505</ele>
        <time>2015-11-11T09:36:33.000Z</time>
      </trkpt>
      <trkpt lat="47.41644" lon="6.79983">
        <ele>505</ele>
        <time>2015-11-11T09:36:33.999Z</time>
      </trkpt>
      <trkpt lat="47.41641" lon="6.79981">
        <ele>506</ele>
        <time>2015-11-11T09:36:35.000Z</time>
      </trkpt>
      <trkpt lat="47.41639" lon="6.79979">
        <ele>506</ele>
        <time>2015-11-11T09:36:36.000Z</time>
      </trkpt>
      <trkpt lat="47.41637" lon="6.79977">
        <ele>506</ele>
        <time>2015-11-11T09:36:37.000Z</time>
      </trkpt>
      <trkpt lat="47.41635" lon="6.79974">
        <ele>506</ele>
        <time>2015-11-11T09:36:38.000Z</time>
      </trkpt>
      <trkpt lat="47.41632" lon="6.7997">
        <ele>506</ele>
        <time>2015-11-11T09:36:40.000Z</time>
      </trkpt>
      <trkpt lat="47.4163" lon="6.79967">
        <ele>506</ele>
        <time>2015-11-11T09:36:41.000Z</time>
      </trkpt>
      <trkpt lat="47.41628" lon="6.79963">
        <ele>506</ele>
        <time>2015-11-11T09:36:42.000Z</time>
      </trkpt>
      <trkpt lat="47.41625" lon="6.79958">
        <ele>506</ele>
        <time>2015-11-11T09:36:43.000Z</time>
      </trkpt>
      <trkpt lat="47.41622" lon="6.79952">
        <ele>506</ele>
        <time>2015-11-11T09:36:44.000Z</time>
      </trkpt>
      <trkpt lat="47.41618" lon="6.7994">
        <ele>505</ele>
        <time>2015-11-11T09:36:45.000Z</time>
      </trkpt>
      <trkpt lat="47.41614" lon="6.79933">
        <ele>505</ele>
        <time>2015-11-11T09:36:46.000Z</time>
      </trkpt>
      <trkpt lat="47.41611" lon="6.79928">
        <ele>505</ele>
        <time>2015-11-11T09:36:47.000Z</time>
      </trkpt>
      <trkpt lat="47.41608" lon="6.79922">
        <ele>505</ele>
        <time>2015-11-11T09:36:48.002Z</time>
      </trkpt>
      <trkpt lat="47.41605" lon="6.79918">
        <ele>505</ele>
        <time>2015-11-11T09:36:49.000Z</time>
      </trkpt>
      <trkpt lat="47.41602" lon="6.79912">
        <ele>501</ele>
        <time>2015-11-11T09:36:50.000Z</time>
      </trkpt>
      <trkpt lat="47.41606" lon="6.7991">
        <ele>500</ele>
        <time>2015-11-11T09:36:51.000Z</time>
      </trkpt>
      <trkpt lat="47.41605" lon="6.79906">
        <ele>500</ele>
        <time>2015-11-11T09:36:52.000Z</time>
      </trkpt>
      <trkpt lat="47.41604" lon="6.79903">
        <ele>500</ele>
        <time>2015-11-11T09:36:53.000Z</time>
      </trkpt>
      <trkpt lat="47.41596" lon="6.79896">
        <ele>500</ele>
        <time>2015-11-11T09:36:54.000Z</time>
      </trkpt>
      <trkpt lat="47.41592" lon="6.79891">
        <ele>500</ele>
        <time>2015-11-11T09:36:55.000Z</time>
      </trkpt>
      <trkpt lat="47.41588" lon="6.79886">
        <ele>499</ele>
        <time>2015-11-11T09:36:56.000Z</time>
      </trkpt>
      <trkpt lat="47.41584" lon="6.79883">
        <ele>499</ele>
        <time>2015-11-11T09:36:57.000Z</time>
      </trkpt>
      <trkpt lat="47.41582" lon="6.79881">
        <ele>503</ele>
        <time>2015-11-11T09:36:58.000Z</time>
      </trkpt>
      <trkpt lat="47.41579" lon="6.79882">
        <ele>503</ele>
        <time>2015-11-11T09:36:59.000Z</time>
      </trkpt>
      <trkpt lat="47.41577" lon="6.79884">
        <ele>503</ele>
        <time>2015-11-11T09:37:00.000Z</time>
      </trkpt>
      <trkpt lat="47.41574" lon="6.79886">
        <ele>504</ele>
        <time>2015-11-11T09:37:02.000Z</time>
      </trkpt>
      <trkpt lat="47.41573" lon="6.79885">
        <ele>504</ele>
        <time>2015-11-11T09:37:03.000Z</time>
      </trkpt>
      <trkpt lat="47.4157" lon="6.79884">
        <ele>504</ele>
        <time>2015-11-11T09:37:05.000Z</time>
      </trkpt>
      <trkpt lat="47.41568" lon="6.79883">
        <ele>504</ele>
        <time>2015-11-11T09:37:06.000Z</time>
      </trkpt>
      <trkpt lat="47.41566" lon="6.79882">
        <ele>504</ele>
        <time>2015-11-11T09:37:07.000Z</time>
      </trkpt>
      <trkpt lat="47.41563" lon="6.79881">
        <ele>504</ele>
        <time>2015-11-11T09:37:08.000Z</time>
      </trkpt>
      <trkpt lat="47.4156" lon="6.79879">
        <ele>504</ele>
        <time>2015-11-11T09:37:09.000Z</time>
      </trkpt>
      <trkpt lat="47.41557" lon="6.79879">
        <ele>504</ele>
        <time>2015-11-11T09:37:10.000Z</time>
      </trkpt>
      <trkpt lat="47.41554" lon="6.79878">
        <ele>504</ele>
        <time>2015-11-11T09:37:11.000Z</time>
      </trkpt>
      <trkpt lat="47.41552" lon="6.79877">
        <ele>504</ele>
        <time>2015-11-11T09:37:12.000Z</time>
      </trkpt>
      <trkpt lat="47.41549" lon="6.79876">
        <ele>504</ele>
        <time>2015-11-11T09:37:13.000Z</time>
      </trkpt>
      <trkpt lat="47.41542" lon="6.79867">
        <ele>504</ele>
        <time>2015-11-11T09:37:14.000Z</time>
      </trkpt>
      <trkpt lat="47.41538" lon="6.79863">
        <ele>504</ele>
        <time>2015-11-11T09:37:15.000Z</time>
      </trkpt>
      <trkpt lat="47.41535" lon="6.79861">
        <ele>504</ele>
        <time>2015-11-11T09:37:16.000Z</time>
      </trkpt>
      <trkpt lat="47.41533" lon="6.79862">
        <ele>504</ele>
        <time>2015-11-11T09:37:17.000Z</time>
      </trkpt>
      <trkpt lat="47.4153" lon="6.79861">
        <ele>504</ele>
        <time>2015-11-11T09:37:18.000Z</time>
      </trkpt>
      <trkpt lat="47.41527" lon="6.79861">
        <ele>504</ele>
        <time>2015-11-11T09:37:19.000Z</time>
      </trkpt>
      <trkpt lat="47.41524" lon="6.79859">
        <ele>504</ele>
        <time>2015-11-11T09:37:21.000Z</time>
      </trkpt>
      <trkpt lat="47.41522" lon="6.79858">
        <ele>504</ele>
        <time>2015-11-11T09:37:22.000Z</time>
      </trkpt>
      <trkpt lat="47.41518" lon="6.79858">
        <ele>504</ele>
        <time>2015-11-11T09:37:24.000Z</time>
      </trkpt>
      <trkpt lat="47.41515" lon="6.79857">
        <ele>504</ele>
        <time>2015-11-11T09:37:25.000Z</time>
      </trkpt>
      <trkpt lat="47.41513" lon="6.79857">
        <ele>504</ele>
        <time>2015-11-11T09:37:25.999Z</time>
      </trkpt>
      <trkpt lat="47.4151" lon="6.79854">
        <ele>503</ele>
        <time>2015-11-11T09:37:27.000Z</time>
      </trkpt>
      <trkpt lat="47.41507" lon="6.79851">
        <ele>503</ele>
        <time>2015-11-11T09:37:28.000Z</time>
      </trkpt>
      <trkpt lat="47.41505" lon="6.79849">
        <ele>503</ele>
        <time>2015-11-11T09:37:29.000Z</time>
      </trkpt>
      <trkpt lat="47.41502" lon="6.79847">
        <ele>503</ele>
        <time>2015-11-11T09:37:30.000Z</time>
      </trkpt>
      <trkpt lat="47.41499" lon="6.79845">
        <ele>506</ele>
        <time>2015-11-11T09:37:31.000Z</time>
      </trkpt>
      <trkpt lat="47.41496" lon="6.79843">
        <ele>506</ele>
        <time>2015-11-11T09:37:32.000Z</time>
      </trkpt>
      <trkpt lat="47.41492" lon="6.79842">
        <ele>506</ele>
        <time>2015-11-11T09:37:33.000Z</time>
      </trkpt>
      <trkpt lat="47.41489" lon="6.79841">
        <ele>507</ele>
        <time>2015-11-11T09:37:34.000Z</time>
      </trkpt>
      <trkpt lat="47.41486" lon="6.79839">
        <ele>507</ele>
        <time>2015-11-11T09:37:35.000Z</time>
      </trkpt>
      <trkpt lat="47.41483" lon="6.79837">
        <ele>508</ele>
        <time>2015-11-11T09:37:36.000Z</time>
      </trkpt>
      <trkpt lat="47.4148" lon="6.79836">
        <ele>509</ele>
        <time>2015-11-11T09:37:37.000Z</time>
      </trkpt>
      <trkpt lat="47.41478" lon="6.79834">
        <ele>509</ele>
        <time>2015-11-11T09:37:38.000Z</time>
      </trkpt>
      <trkpt lat="47.41475" lon="6.79831">
        <ele>503</ele>
        <time>2015-11-11T09:37:39.000Z</time>
      </trkpt>
      <trkpt lat="47.41472" lon="6.7983">
        <ele>503</ele>
        <time>2015-11-11T09:37:40.000Z</time>
      </trkpt>
      <trkpt lat="47.4147" lon="6.79828">
        <ele>503</ele>
        <time>2015-11-11T09:37:41.000Z</time>
      </trkpt>
      <trkpt lat="47.41467" lon="6.79826">
        <ele>504</ele>
        <time>2015-11-11T09:37:42.000Z</time>
      </trkpt>
      <trkpt lat="47.41464" lon="6.79825">
        <ele>504</ele>
        <time>2015-11-11T09:37:43.000Z</time>
      </trkpt>
      <trkpt lat="47.41462" lon="6.79824">
        <ele>504</ele>
        <time>2015-11-11T09:37:44.000Z</time>
      </trkpt>
      <trkpt lat="47.41459" lon="6.79823">
        <ele>504</ele>
        <time>2015-11-11T09:37:45.000Z</time>
      </trkpt>
      <trkpt lat="47.41457" lon="6.79822">
        <ele>505</ele>
        <time>2015-11-11T09:37:46.000Z</time>
      </trkpt>
      <trkpt lat="47.41454" lon="6.79821">
        <ele>505</ele>
        <time>2015-11-11T09:37:47.000Z</time>
      </trkpt>
      <trkpt lat="47.41452" lon="6.79821">
        <ele>505</ele>
        <time>2015-11-11T09:37:48.000Z</time>
      </trkpt>
      <trkpt lat="47.41449" lon="6.7982">
        <ele>505</ele>
        <time>2015-11-11T09:37:49.000Z</time>
      </trkpt>
      <trkpt lat="47.41447" lon="6.79819">
        <ele>506</ele>
        <time>2015-11-11T09:37:50.000Z</time>
      </trkpt>
      <trkpt lat="47.41445" lon="6.79818">
        <ele>506</ele>
        <time>2015-11-11T09:37:51.000Z</time>
      </trkpt>
      <trkpt lat="47.4144" lon="6.79818">
        <ele>506</ele>
        <time>2015-11-11T09:37:53.000Z</time>
      </trkpt>
      <trkpt lat="47.41438" lon="6.79818">
        <ele>507</ele>
        <time>2015-11-11T09:37:54.000Z</time>
      </trkpt>
      <trkpt lat="47.41434" lon="6.79816">
        <ele>507</ele>
        <time>2015-11-11T09:37:56.000Z</time>
      </trkpt>
      <trkpt lat="47.41431" lon="6.79816">
        <ele>507</ele>
        <time>2015-11-11T09:37:57.000Z</time>
      </trkpt>
      <trkpt lat="47.41429" lon="6.79815">
        <ele>507</ele>
        <time>2015-11-11T09:37:58.000Z</time>
      </trkpt>
      <trkpt lat="47.41427" lon="6.79814">
        <ele>508</ele>
        <time>2015-11-11T09:37:59.000Z</time>
      </trkpt>
      <trkpt lat="47.41424" lon="6.79813">
        <ele>508</ele>
        <time>2015-11-11T09:38:00.000Z</time>
      </trkpt>
      <trkpt lat="47.41422" lon="6.79812">
        <ele>508</ele>
        <time>2015-11-11T09:38:01.000Z</time>
      </trkpt>
      <trkpt lat="47.41418" lon="6.7981">
        <ele>507</ele>
        <time>2015-11-11T09:38:03.000Z</time>
      </trkpt>
      <trkpt lat="47.41416" lon="6.7981">
        <ele>516</ele>
        <time>2015-11-11T09:38:04.000Z</time>
      </trkpt>
      <trkpt lat="47.41412" lon="6.79808">
        <ele>516</ele>
        <time>2015-11-11T09:38:06.000Z</time>
      </trkpt>
      <trkpt lat="47.41411" lon="6.79807">
        <ele>516</ele>
        <time>2015-11-11T09:38:07.000Z</time>
      </trkpt>
      <trkpt lat="47.41407" lon="6.79806">
        <ele>516</ele>
        <time>2015-11-11T09:38:09.000Z</time>
      </trkpt>
      <trkpt lat="47.41406" lon="6.79805">
        <ele>516</ele>
        <time>2015-11-11T09:38:10.000Z</time>
      </trkpt>
      <trkpt lat="47.41403" lon="6.79801">
        <ele>516</ele>
        <time>2015-11-11T09:38:13.000Z</time>
      </trkpt>
      <trkpt lat="47.41402" lon="6.798">
        <ele>516</ele>
        <time>2015-11-11T09:38:14.000Z</time>
      </trkpt>
      <trkpt lat="47.41399" lon="6.79796">
        <ele>516</ele>
        <time>2015-11-11T09:38:16.000Z</time>
      </trkpt>
      <trkpt lat="47.41398" lon="6.79794">
        <ele>516</ele>
        <time>2015-11-11T09:38:17.000Z</time>
      </trkpt>
      <trkpt lat="47.41394" lon="6.79792">
        <ele>516</ele>
        <time>2015-11-11T09:38:19.000Z</time>
      </trkpt>
      <trkpt lat="47.41393" lon="6.79791">
        <ele>516</ele>
        <time>2015-11-11T09:38:20.000Z</time>
      </trkpt>
      <trkpt lat="47.41389" lon="6.79788">
        <ele>516</ele>
        <time>2015-11-11T09:38:23.000Z</time>
      </trkpt>
      <trkpt lat="47.41389" lon="6.79788">
        <ele>516</ele>
        <time>2015-11-11T09:38:24.000Z</time>
      </trkpt>
      <trkpt lat="47.41386" lon="6.79783">
        <ele>516</ele>
        <time>2015-11-11T09:38:28.000Z</time>
      </trkpt>
      <trkpt lat="47.41384" lon="6.79781">
        <ele>516</ele>
        <time>2015-11-11T09:38:29.000Z</time>
      </trkpt>
      <trkpt lat="47.4138" lon="6.79779">
        <ele>516</ele>
        <time>2015-11-11T09:38:31.000Z</time>
      </trkpt>
      <trkpt lat="47.41378" lon="6.79778">
        <ele>516</ele>
        <time>2015-11-11T09:38:32.000Z</time>
      </trkpt>
      <trkpt lat="47.41375" lon="6.79774">
        <ele>517</ele>
        <time>2015-11-11T09:38:34.000Z</time>
      </trkpt>
      <trkpt lat="47.41373" lon="6.79773">
        <ele>517</ele>
        <time>2015-11-11T09:38:35.000Z</time>
      </trkpt>
      <trkpt lat="47.4137" lon="6.79771">
        <ele>517</ele>
        <time>2015-11-11T09:38:37.000Z</time>
      </trkpt>
      <trkpt lat="47.41369" lon="6.7977">
        <ele>517</ele>
        <time>2015-11-11T09:38:38.000Z</time>
      </trkpt>
      <trkpt lat="47.41365" lon="6.79767">
        <ele>517</ele>
        <time>2015-11-11T09:38:40.000Z</time>
      </trkpt>
      <trkpt lat="47.41364" lon="6.79765">
        <ele>517</ele>
        <time>2015-11-11T09:38:41.000Z</time>
      </trkpt>
      <trkpt lat="47.41361" lon="6.79761">
        <ele>517</ele>
        <time>2015-11-11T09:38:43.000Z</time>
      </trkpt>
      <trkpt lat="47.41359" lon="6.79757">
        <ele>517</ele>
        <time>2015-11-11T09:38:44.000Z</time>
      </trkpt>
      <trkpt lat="47.41358" lon="6.79754">
        <ele>517</ele>
        <time>2015-11-11T09:38:45.000Z</time>
      </trkpt>
      <trkpt lat="47.41357" lon="6.79751">
        <ele>517</ele>
        <time>2015-11-11T09:38:46.000Z</time>
      </trkpt>
      <trkpt lat="47.41353" lon="6.7975">
        <ele>510</ele>
        <time>2015-11-11T09:38:48.000Z</time>
      </trkpt>
      <trkpt lat="47.41352" lon="6.7975">
        <ele>510</ele>
        <time>2015-11-11T09:38:49.000Z</time>
      </trkpt>
      <trkpt lat="47.41348" lon="6.7975">
        <ele>512</ele>
        <time>2015-11-11T09:38:51.000Z</time>
      </trkpt>
      <trkpt lat="47.41346" lon="6.7975">
        <ele>517</ele>
        <time>2015-11-11T09:38:52.000Z</time>
      </trkpt>
      <trkpt lat="47.41342" lon="6.7975">
        <ele>517</ele>
        <time>2015-11-11T09:38:54.000Z</time>
      </trkpt>
      <trkpt lat="47.4134" lon="6.7975">
        <ele>514</ele>
        <time>2015-11-11T09:38:55.000Z</time>
      </trkpt>
      <trkpt lat="47.41336" lon="6.79747">
        <ele>515</ele>
        <time>2015-11-11T09:38:57.000Z</time>
      </trkpt>
      <trkpt lat="47.41334" lon="6.79745">
        <ele>515</ele>
        <time>2015-11-11T09:38:58.000Z</time>
      </trkpt>
      <trkpt lat="47.41331" lon="6.79745">
        <ele>516</ele>
        <time>2015-11-11T09:38:59.000Z</time>
      </trkpt>
      <trkpt lat="47.41328" lon="6.79745">
        <ele>515</ele>
        <time>2015-11-11T09:39:00.000Z</time>
      </trkpt>
      <trkpt lat="47.41326" lon="6.79745">
        <ele>515</ele>
        <time>2015-11-11T09:39:01.000Z</time>
      </trkpt>
      <trkpt lat="47.41323" lon="6.79745">
        <ele>515</ele>
        <time>2015-11-11T09:39:02.000Z</time>
      </trkpt>
      <trkpt lat="47.4132" lon="6.79743">
        <ele>514</ele>
        <time>2015-11-11T09:39:03.000Z</time>
      </trkpt>
      <trkpt lat="47.41318" lon="6.79741">
        <ele>514</ele>
        <time>2015-11-11T09:39:04.000Z</time>
      </trkpt>
      <trkpt lat="47.41316" lon="6.79739">
        <ele>514</ele>
        <time>2015-11-11T09:39:04.999Z</time>
      </trkpt>
      <trkpt lat="47.41314" lon="6.79734">
        <ele>513</ele>
        <time>2015-11-11T09:39:06.000Z</time>
      </trkpt>
      <trkpt lat="47.41312" lon="6.79731">
        <ele>513</ele>
        <time>2015-11-11T09:39:07.000Z</time>
      </trkpt>
      <trkpt lat="47.4131" lon="6.79729">
        <ele>513</ele>
        <time>2015-11-11T09:39:08.000Z</time>
      </trkpt>
      <trkpt lat="47.41308" lon="6.79727">
        <ele>512</ele>
        <time>2015-11-11T09:39:09.000Z</time>
      </trkpt>
      <trkpt lat="47.41306" lon="6.79726">
        <ele>512</ele>
        <time>2015-11-11T09:39:10.000Z</time>
      </trkpt>
      <trkpt lat="47.41302" lon="6.79724">
        <ele>512</ele>
        <time>2015-11-11T09:39:12.000Z</time>
      </trkpt>
      <trkpt lat="47.413" lon="6.79724">
        <ele>512</ele>
        <time>2015-11-11T09:39:13.000Z</time>
      </trkpt>
      <trkpt lat="47.41296" lon="6.79727">
        <ele>512</ele>
        <time>2015-11-11T09:39:16.000Z</time>
      </trkpt>
      <trkpt lat="47.41295" lon="6.79728">
        <ele>512</ele>
        <time>2015-11-11T09:39:17.000Z</time>
      </trkpt>
      <trkpt lat="47.41291" lon="6.79729">
        <ele>513</ele>
        <time>2015-11-11T09:39:23.000Z</time>
      </trkpt>
      <trkpt lat="47.41291" lon="6.79728">
        <ele>512</ele>
        <time>2015-11-11T09:39:24.000Z</time>
      </trkpt>
      <trkpt lat="47.41288" lon="6.79725">
        <ele>512</ele>
        <time>2015-11-11T09:39:26.000Z</time>
      </trkpt>
      <trkpt lat="47.41285" lon="6.79725">
        <ele>512</ele>
        <time>2015-11-11T09:39:27.000Z</time>
      </trkpt>
      <trkpt lat="47.41283" lon="6.79725">
        <ele>513</ele>
        <time>2015-11-11T09:39:28.000Z</time>
      </trkpt>
      <trkpt lat="47.4128" lon="6.79726">
        <ele>513</ele>
        <time>2015-11-11T09:39:29.000Z</time>
      </trkpt>
      <trkpt lat="47.41276" lon="6.79729">
        <ele>513</ele>
        <time>2015-11-11T09:39:31.000Z</time>
      </trkpt>
      <trkpt lat="47.41275" lon="6.7973">
        <ele>514</ele>
        <time>2015-11-11T09:39:32.000Z</time>
      </trkpt>
      <trkpt lat="47.41271" lon="6.79732">
        <ele>514</ele>
        <time>2015-11-11T09:39:34.000Z</time>
      </trkpt>
      <trkpt lat="47.4127" lon="6.79732">
        <ele>514</ele>
        <time>2015-11-11T09:39:35.000Z</time>
      </trkpt>
      <trkpt lat="47.41265" lon="6.79735">
        <ele>515</ele>
        <time>2015-11-11T09:41:03.000Z</time>
      </trkpt>
      <trkpt lat="47.41264" lon="6.79735">
        <ele>515</ele>
        <time>2015-11-11T09:41:04.000Z</time>
      </trkpt>
      <trkpt lat="47.41261" lon="6.79735">
        <ele>516</ele>
        <time>2015-11-11T09:41:05.000Z</time>
      </trkpt>
      <trkpt lat="47.41259" lon="6.79736">
        <ele>516</ele>
        <time>2015-11-11T09:41:06.000Z</time>
      </trkpt>
      <trkpt lat="47.41255" lon="6.79738">
        <ele>517</ele>
        <time>2015-11-11T09:41:08.000Z</time>
      </trkpt>
      <trkpt lat="47.41254" lon="6.79739">
        <ele>518</ele>
        <time>2015-11-11T09:41:09.000Z</time>
      </trkpt>
      <trkpt lat="47.41257" lon="6.79743">
        <ele>518</ele>
        <time>2015-11-11T09:41:13.000Z</time>
      </trkpt>
      <trkpt lat="47.41258" lon="6.79743">
        <ele>518</ele>
        <time>2015-11-11T09:41:14.000Z</time>
      </trkpt>
      <trkpt lat="47.41261" lon="6.79741">
        <ele>517</ele>
        <time>2015-11-11T09:41:16.000Z</time>
      </trkpt>
      <trkpt lat="47.41263" lon="6.79739">
        <ele>516</ele>
        <time>2015-11-11T09:41:17.000Z</time>
      </trkpt>
      <trkpt lat="47.41266" lon="6.79735">
        <ele>515</ele>
        <time>2015-11-11T09:41:19.000Z</time>
      </trkpt>
      <trkpt lat="47.41267" lon="6.79734">
        <ele>515</ele>
        <time>2015-11-11T09:41:20.000Z</time>
      </trkpt>
      <trkpt lat="47.4127" lon="6.79729">
        <ele>514</ele>
        <time>2015-11-11T09:41:24.000Z</time>
      </trkpt>
      <trkpt lat="47.4127" lon="6.79727">
        <ele>514</ele>
        <time>2015-11-11T09:41:25.000Z</time>
      </trkpt>
      <trkpt lat="47.41268" lon="6.79723">
        <ele>513</ele>
        <time>2015-11-11T09:41:29.000Z</time>
      </trkpt>
      <trkpt lat="47.41267" lon="6.79723">
        <ele>513</ele>
        <time>2015-11-11T09:41:30.000Z</time>
      </trkpt>
      <trkpt lat="47.41264" lon="6.79724">
        <ele>513</ele>
        <time>2015-11-11T09:41:31.000Z</time>
      </trkpt>
      <trkpt lat="47.41261" lon="6.79724">
        <ele>514</ele>
        <time>2015-11-11T09:41:32.000Z</time>
      </trkpt>
      <trkpt lat="47.41251" lon="6.7973">
        <ele>515</ele>
        <time>2015-11-11T09:41:33.000Z</time>
      </trkpt>
      <trkpt lat="47.41249" lon="6.79732">
        <ele>514</ele>
        <time>2015-11-11T09:41:34.000Z</time>
      </trkpt>
      <trkpt lat="47.41247" lon="6.79733">
        <ele>515</ele>
        <time>2015-11-11T09:41:35.000Z</time>
      </trkpt>
      <trkpt lat="47.41244" lon="6.79735">
        <ele>515</ele>
        <time>2015-11-11T09:41:37.000Z</time>
      </trkpt>
      <trkpt lat="47.4124" lon="6.79737">
        <ele>515</ele>
        <time>2015-11-11T09:41:38.000Z</time>
      </trkpt>
      <trkpt lat="47.41236" lon="6.79739">
        <ele>515</ele>
        <time>2015-11-11T09:41:39.000Z</time>
      </trkpt>
      <trkpt lat="47.41233" lon="6.7974">
        <ele>514</ele>
        <time>2015-11-11T09:41:40.000Z</time>
      </trkpt>
      <trkpt lat="47.4123" lon="6.79741">
        <ele>514</ele>
        <time>2015-11-11T09:41:41.000Z</time>
      </trkpt>
      <trkpt lat="47.41227" lon="6.79744">
        <ele>513</ele>
        <time>2015-11-11T09:41:42.000Z</time>
      </trkpt>
      <trkpt lat="47.41224" lon="6.79745">
        <ele>513</ele>
        <time>2015-11-11T09:41:43.000Z</time>
      </trkpt>
      <trkpt lat="47.41221" lon="6.79746">
        <ele>512</ele>
        <time>2015-11-11T09:41:43.999Z</time>
      </trkpt>
      <trkpt lat="47.41218" lon="6.79748">
        <ele>512</ele>
        <time>2015-11-11T09:41:45.000Z</time>
      </trkpt>
      <trkpt lat="47.41215" lon="6.79749">
        <ele>512</ele>
        <time>2015-11-11T09:41:46.000Z</time>
      </trkpt>
      <trkpt lat="47.41213" lon="6.79751">
        <ele>526</ele>
        <time>2015-11-11T09:41:46.999Z</time>
      </trkpt>
      <trkpt lat="47.41209" lon="6.79752">
        <ele>526</ele>
        <time>2015-11-11T09:41:48.000Z</time>
      </trkpt>
      <trkpt lat="47.41205" lon="6.79752">
        <ele>525</ele>
        <time>2015-11-11T09:41:50.000Z</time>
      </trkpt>
      <trkpt lat="47.41203" lon="6.79752">
        <ele>525</ele>
        <time>2015-11-11T09:41:51.000Z</time>
      </trkpt>
      <trkpt lat="47.41199" lon="6.79754">
        <ele>525</ele>
        <time>2015-11-11T09:41:54.000Z</time>
      </trkpt>
      <trkpt lat="47.41197" lon="6.79757">
        <ele>524</ele>
        <time>2015-11-11T09:41:55.000Z</time>
      </trkpt>
      <trkpt lat="47.41193" lon="6.7976">
        <ele>524</ele>
        <time>2015-11-11T09:41:57.000Z</time>
      </trkpt>
      <trkpt lat="47.41191" lon="6.79761">
        <ele>524</ele>
        <time>2015-11-11T09:41:58.000Z</time>
      </trkpt>
      <trkpt lat="47.41187" lon="6.79765">
        <ele>524</ele>
        <time>2015-11-11T09:42:00.000Z</time>
      </trkpt>
      <trkpt lat="47.41186" lon="6.79767">
        <ele>524</ele>
        <time>2015-11-11T09:42:01.000Z</time>
      </trkpt>
      <trkpt lat="47.41183" lon="6.79771">
        <ele>524</ele>
        <time>2015-11-11T09:42:09.000Z</time>
      </trkpt>
      <trkpt lat="47.41182" lon="6.79771">
        <ele>524</ele>
        <time>2015-11-11T09:42:10.000Z</time>
      </trkpt>
      <trkpt lat="47.41178" lon="6.79769">
        <ele>523</ele>
        <time>2015-11-11T09:42:38.000Z</time>
      </trkpt>
      <trkpt lat="47.41178" lon="6.79769">
        <ele>523</ele>
        <time>2015-11-11T09:42:39.000Z</time>
      </trkpt>
      <trkpt lat="47.41174" lon="6.79767">
        <ele>522</ele>
        <time>2015-11-11T09:42:42.000Z</time>
      </trkpt>
      <trkpt lat="47.41173" lon="6.79766">
        <ele>522</ele>
        <time>2015-11-11T09:42:43.000Z</time>
      </trkpt>
      <trkpt lat="47.41169" lon="6.79764">
        <ele>520</ele>
        <time>2015-11-11T09:42:46.000Z</time>
      </trkpt>
      <trkpt lat="47.41168" lon="6.79763">
        <ele>520</ele>
        <time>2015-11-11T09:42:47.000Z</time>
      </trkpt>
      <trkpt lat="47.41165" lon="6.79761">
        <ele>520</ele>
        <time>2015-11-11T09:42:49.000Z</time>
      </trkpt>
      <trkpt lat="47.41163" lon="6.79759">
        <ele>519</ele>
        <time>2015-11-11T09:42:50.000Z</time>
      </trkpt>
      <trkpt lat="47.41162" lon="6.79756">
        <ele>518</ele>
        <time>2015-11-11T09:42:51.000Z</time>
      </trkpt>
      <trkpt lat="47.4116" lon="6.79754">
        <ele>518</ele>
        <time>2015-11-11T09:42:52.000Z</time>
      </trkpt>
      <trkpt lat="47.41159" lon="6.79749">
        <ele>514</ele>
        <time>2015-11-11T09:42:54.000Z</time>
      </trkpt>
      <trkpt lat="47.41159" lon="6.79746">
        <ele>514</ele>
        <time>2015-11-11T09:42:55.000Z</time>
      </trkpt>
      <trkpt lat="47.41159" lon="6.79743">
        <ele>514</ele>
        <time>2015-11-11T09:42:56.000Z</time>
      </trkpt>
      <trkpt lat="47.41159" lon="6.79738">
        <ele>514</ele>
        <time>2015-11-11T09:42:57.000Z</time>
      </trkpt>
      <trkpt lat="47.4116" lon="6.79734">
        <ele>514</ele>
        <time>2015-11-11T09:42:58.000Z</time>
      </trkpt>
      <trkpt lat="47.4116" lon="6.79731">
        <ele>514</ele>
        <time>2015-11-11T09:42:59.000Z</time>
      </trkpt>
      <trkpt lat="47.41161" lon="6.79727">
        <ele>513</ele>
        <time>2015-11-11T09:43:00.000Z</time>
      </trkpt>
      <trkpt lat="47.4116" lon="6.79724">
        <ele>513</ele>
        <time>2015-11-11T09:43:01.000Z</time>
      </trkpt>
      <trkpt lat="47.41159" lon="6.7972">
        <ele>513</ele>
        <time>2015-11-11T09:43:02.000Z</time>
      </trkpt>
      <trkpt lat="47.41158" lon="6.79716">
        <ele>513</ele>
        <time>2015-11-11T09:43:03.000Z</time>
      </trkpt>
      <trkpt lat="47.41157" lon="6.79713">
        <ele>512</ele>
        <time>2015-11-11T09:43:04.000Z</time>
      </trkpt>
      <trkpt lat="47.41156" lon="6.7971">
        <ele>512</ele>
        <time>2015-11-11T09:43:05.000Z</time>
      </trkpt>
      <trkpt lat="47.41156" lon="6.79706">
        <ele>511</ele>
        <time>2015-11-11T09:43:06.000Z</time>
      </trkpt>
      <trkpt lat="47.41156" lon="6.79703">
        <ele>511</ele>
        <time>2015-11-11T09:43:07.000Z</time>
      </trkpt>
      <trkpt lat="47.41158" lon="6.79697">
        <ele>509</ele>
        <time>2015-11-11T09:43:09.000Z</time>
      </trkpt>
      <trkpt lat="47.41158" lon="6.79694">
        <ele>509</ele>
        <time>2015-11-11T09:43:10.000Z</time>
      </trkpt>
      <trkpt lat="47.41159" lon="6.79691">
        <ele>507</ele>
        <time>2015-11-11T09:43:11.000Z</time>
      </trkpt>
      <trkpt lat="47.41159" lon="6.79687">
        <ele>506</ele>
        <time>2015-11-11T09:43:12.000Z</time>
      </trkpt>
      <trkpt lat="47.4116" lon="6.79682">
        <ele>504</ele>
        <time>2015-11-11T09:43:13.000Z</time>
      </trkpt>
      <trkpt lat="47.4116" lon="6.79676">
        <ele>502</ele>
        <time>2015-11-11T09:43:14.000Z</time>
      </trkpt>
      <trkpt lat="47.4116" lon="6.79671">
        <ele>499</ele>
        <time>2015-11-11T09:43:15.000Z</time>
      </trkpt>
      <trkpt lat="47.4116" lon="6.79666">
        <ele>495</ele>
        <time>2015-11-11T09:43:16.000Z</time>
      </trkpt>
      <trkpt lat="47.4116" lon="6.79662">
        <ele>496</ele>
        <time>2015-11-11T09:43:17.000Z</time>
      </trkpt>
      <trkpt lat="47.4116" lon="6.79658">
        <ele>496</ele>
        <time>2015-11-11T09:43:18.000Z</time>
      </trkpt>
      <trkpt lat="47.41161" lon="6.79653">
        <ele>497</ele>
        <time>2015-11-11T09:43:19.000Z</time>
      </trkpt>
      <trkpt lat="47.41162" lon="6.79649">
        <ele>497</ele>
        <time>2015-11-11T09:43:20.000Z</time>
      </trkpt>
      <trkpt lat="47.41164" lon="6.79644">
        <ele>497</ele>
        <time>2015-11-11T09:43:21.000Z</time>
      </trkpt>
      <trkpt lat="47.41163" lon="6.7964">
        <ele>497</ele>
        <time>2015-11-11T09:43:22.000Z</time>
      </trkpt>
      <trkpt lat="47.41163" lon="6.79637">
        <ele>497</ele>
        <time>2015-11-11T09:43:23.000Z</time>
      </trkpt>
      <trkpt lat="47.41162" lon="6.79634">
        <ele>497</ele>
        <time>2015-11-11T09:43:24.000Z</time>
      </trkpt>
      <trkpt lat="47.41161" lon="6.7963">
        <ele>497</ele>
        <time>2015-11-11T09:43:25.000Z</time>
      </trkpt>
      <trkpt lat="47.4116" lon="6.79627">
        <ele>497</ele>
        <time>2015-11-11T09:43:26.000Z</time>
      </trkpt>
      <trkpt lat="47.41161" lon="6.79621">
        <ele>496</ele>
        <time>2015-11-11T09:43:28.000Z</time>
      </trkpt>
      <trkpt lat="47.41162" lon="6.79618">
        <ele>495</ele>
        <time>2015-11-11T09:43:29.000Z</time>
      </trkpt>
      <trkpt lat="47.41164" lon="6.79614">
        <ele>494</ele>
        <time>2015-11-11T09:43:30.000Z</time>
      </trkpt>
      <trkpt lat="47.41166" lon="6.7961">
        <ele>493</ele>
        <time>2015-11-11T09:43:31.000Z</time>
      </trkpt>
      <trkpt lat="47.41167" lon="6.79605">
        <ele>484</ele>
        <time>2015-11-11T09:43:32.000Z</time>
      </trkpt>
      <trkpt lat="47.41168" lon="6.796">
        <ele>483</ele>
        <time>2015-11-11T09:43:33.000Z</time>
      </trkpt>
      <trkpt lat="47.41168" lon="6.79596">
        <ele>482</ele>
        <time>2015-11-11T09:43:34.000Z</time>
      </trkpt>
      <trkpt lat="47.41168" lon="6.79591">
        <ele>480</ele>
        <time>2015-11-11T09:43:35.000Z</time>
      </trkpt>
      <trkpt lat="47.41169" lon="6.79586">
        <ele>479</ele>
        <time>2015-11-11T09:43:36.000Z</time>
      </trkpt>
      <trkpt lat="47.41169" lon="6.79581">
        <ele>477</ele>
        <time>2015-11-11T09:43:37.000Z</time>
      </trkpt>
      <trkpt lat="47.41169" lon="6.79575">
        <ele>477</ele>
        <time>2015-11-11T09:43:38.000Z</time>
      </trkpt>
      <trkpt lat="47.4117" lon="6.79569">
        <ele>476</ele>
        <time>2015-11-11T09:43:39.000Z</time>
      </trkpt>
      <trkpt lat="47.4117" lon="6.79563">
        <ele>476</ele>
        <time>2015-11-11T09:43:40.000Z</time>
      </trkpt>
      <trkpt lat="47.41172" lon="6.79558">
        <ele>476</ele>
        <time>2015-11-11T09:43:41.000Z</time>
      </trkpt>
      <trkpt lat="47.41173" lon="6.79554">
        <ele>475</ele>
        <time>2015-11-11T09:43:42.000Z</time>
      </trkpt>
      <trkpt lat="47.41174" lon="6.7955">
        <ele>475</ele>
        <time>2015-11-11T09:43:43.000Z</time>
      </trkpt>
      <trkpt lat="47.41176" lon="6.79546">
        <ele>475</ele>
        <time>2015-11-11T09:43:44.000Z</time>
      </trkpt>
      <trkpt lat="47.41176" lon="6.79542">
        <ele>474</ele>
        <time>2015-11-11T09:43:45.000Z</time>
      </trkpt>
      <trkpt lat="47.41177" lon="6.79536">
        <ele>474</ele>
        <time>2015-11-11T09:43:46.000Z</time>
      </trkpt>
      <trkpt lat="47.41178" lon="6.7953">
        <ele>473</ele>
        <time>2015-11-11T09:43:47.000Z</time>
      </trkpt>
      <trkpt lat="47.41178" lon="6.79524">
        <ele>473</ele>
        <time>2015-11-11T09:43:48.000Z</time>
      </trkpt>
      <trkpt lat="47.41179" lon="6.79516">
        <ele>472</ele>
        <time>2015-11-11T09:43:49.000Z</time>
      </trkpt>
      <trkpt lat="47.41179" lon="6.79508">
        <ele>471</ele>
        <time>2015-11-11T09:43:50.000Z</time>
      </trkpt>
      <trkpt lat="47.41179" lon="6.795">
        <ele>470</ele>
        <time>2015-11-11T09:43:51.000Z</time>
      </trkpt>
      <trkpt lat="47.41179" lon="6.79493">
        <ele>466</ele>
        <time>2015-11-11T09:43:52.000Z</time>
      </trkpt>
      <trkpt lat="47.4118" lon="6.79486">
        <ele>465</ele>
        <time>2015-11-11T09:43:53.000Z</time>
      </trkpt>
      <trkpt lat="47.4118" lon="6.79481">
        <ele>465</ele>
        <time>2015-11-11T09:43:54.000Z</time>
      </trkpt>
      <trkpt lat="47.4118" lon="6.79475">
        <ele>464</ele>
        <time>2015-11-11T09:43:55.000Z</time>
      </trkpt>
      <trkpt lat="47.4118" lon="6.79469">
        <ele>464</ele>
        <time>2015-11-11T09:43:56.000Z</time>
      </trkpt>
      <trkpt lat="47.4118" lon="6.79463">
        <ele>464</ele>
        <time>2015-11-11T09:43:57.000Z</time>
      </trkpt>
      <trkpt lat="47.4118" lon="6.79457">
        <ele>463</ele>
        <time>2015-11-11T09:43:58.000Z</time>
      </trkpt>
      <trkpt lat="47.41182" lon="6.79452">
        <ele>463</ele>
        <time>2015-11-11T09:43:59.000Z</time>
      </trkpt>
      <trkpt lat="47.41184" lon="6.79446">
        <ele>462</ele>
        <time>2015-11-11T09:44:00.000Z</time>
      </trkpt>
      <trkpt lat="47.41186" lon="6.79439">
        <ele>462</ele>
        <time>2015-11-11T09:44:01.000Z</time>
      </trkpt>
      <trkpt lat="47.41188" lon="6.79432">
        <ele>461</ele>
        <time>2015-11-11T09:44:02.000Z</time>
      </trkpt>
      <trkpt lat="47.41189" lon="6.79425">
        <ele>461</ele>
        <time>2015-11-11T09:44:03.000Z</time>
      </trkpt>
      <trkpt lat="47.4119" lon="6.79419">
        <ele>461</ele>
        <time>2015-11-11T09:44:04.000Z</time>
      </trkpt>
      <trkpt lat="47.4119" lon="6.79412">
        <ele>454</ele>
        <time>2015-11-11T09:44:05.000Z</time>
      </trkpt>
      <trkpt lat="47.4119" lon="6.79406">
        <ele>454</ele>
        <time>2015-11-11T09:44:06.000Z</time>
      </trkpt>
      <trkpt lat="47.4119" lon="6.794">
        <ele>453</ele>
        <time>2015-11-11T09:44:07.000Z</time>
      </trkpt>
      <trkpt lat="47.4119" lon="6.79394">
        <ele>453</ele>
        <time>2015-11-11T09:44:08.000Z</time>
      </trkpt>
      <trkpt lat="47.41189" lon="6.79389">
        <ele>453</ele>
        <time>2015-11-11T09:44:09.000Z</time>
      </trkpt>
      <trkpt lat="47.41188" lon="6.79384">
        <ele>452</ele>
        <time>2015-11-11T09:44:10.000Z</time>
      </trkpt>
      <trkpt lat="47.41187" lon="6.79378">
        <ele>452</ele>
        <time>2015-11-11T09:44:11.000Z</time>
      </trkpt>
      <trkpt lat="47.41185" lon="6.79373">
        <ele>451</ele>
        <time>2015-11-11T09:44:12.000Z</time>
      </trkpt>
      <trkpt lat="47.41184" lon="6.79368">
        <ele>451</ele>
        <time>2015-11-11T09:44:13.000Z</time>
      </trkpt>
      <trkpt lat="47.41182" lon="6.79364">
        <ele>450</ele>
        <time>2015-11-11T09:44:14.000Z</time>
      </trkpt>
      <trkpt lat="47.41181" lon="6.79361">
        <ele>450</ele>
        <time>2015-11-11T09:44:15.000Z</time>
      </trkpt>
      <trkpt lat="47.41181" lon="6.79359">
        <ele>450</ele>
        <time>2015-11-11T09:44:16.000Z</time>
      </trkpt>
      <trkpt lat="47.41182" lon="6.79354">
        <ele>450</ele>
        <time>2015-11-11T09:44:18.000Z</time>
      </trkpt>
      <trkpt lat="47.41182" lon="6.79351">
        <ele>449</ele>
        <time>2015-11-11T09:44:19.000Z</time>
      </trkpt>
      <trkpt lat="47.41183" lon="6.79347">
        <ele>449</ele>
        <time>2015-11-11T09:44:20.000Z</time>
      </trkpt>
      <trkpt lat="47.41184" lon="6.79343">
        <ele>449</ele>
        <time>2015-11-11T09:44:21.000Z</time>
      </trkpt>
      <trkpt lat="47.41185" lon="6.79339">
        <ele>449</ele>
        <time>2015-11-11T09:44:22.000Z</time>
      </trkpt>
      <trkpt lat="47.41186" lon="6.79334">
        <ele>449</ele>
        <time>2015-11-11T09:44:23.000Z</time>
      </trkpt>
      <trkpt lat="47.41187" lon="6.7933">
        <ele>442</ele>
        <time>2015-11-11T09:44:24.000Z</time>
      </trkpt>
      <trkpt lat="47.41188" lon="6.79325">
        <ele>442</ele>
        <time>2015-11-11T09:44:25.000Z</time>
      </trkpt>
      <trkpt lat="47.41188" lon="6.7932">
        <ele>441</ele>
        <time>2015-11-11T09:44:26.000Z</time>
      </trkpt>
      <trkpt lat="47.41189" lon="6.79315">
        <ele>441</ele>
        <time>2015-11-11T09:44:27.000Z</time>
      </trkpt>
      <trkpt lat="47.4119" lon="6.79311">
        <ele>440</ele>
        <time>2015-11-11T09:44:28.000Z</time>
      </trkpt>
      <trkpt lat="47.41192" lon="6.79307">
        <ele>440</ele>
        <time>2015-11-11T09:44:29.000Z</time>
      </trkpt>
      <trkpt lat="47.41194" lon="6.79303">
        <ele>439</ele>
        <time>2015-11-11T09:44:30.000Z</time>
      </trkpt>
      <trkpt lat="47.41197" lon="6.79299">
        <ele>439</ele>
        <time>2015-11-11T09:44:31.000Z</time>
      </trkpt>
      <trkpt lat="47.41199" lon="6.79295">
        <ele>439</ele>
        <time>2015-11-11T09:44:32.000Z</time>
      </trkpt>
      <trkpt lat="47.41201" lon="6.79291">
        <ele>438</ele>
        <time>2015-11-11T09:44:33.000Z</time>
      </trkpt>
      <trkpt lat="47.41202" lon="6.79287">
        <ele>438</ele>
        <time>2015-11-11T09:44:34.000Z</time>
      </trkpt>
      <trkpt lat="47.41204" lon="6.79283">
        <ele>437</ele>
        <time>2015-11-11T09:44:35.000Z</time>
      </trkpt>
      <trkpt lat="47.41205" lon="6.79279">
        <ele>437</ele>
        <time>2015-11-11T09:44:36.000Z</time>
      </trkpt>
      <trkpt lat="47.41206" lon="6.79275">
        <ele>437</ele>
        <time>2015-11-11T09:44:37.000Z</time>
      </trkpt>
      <trkpt lat="47.41207" lon="6.79272">
        <ele>436</ele>
        <time>2015-11-11T09:44:38.000Z</time>
      </trkpt>
      <trkpt lat="47.41207" lon="6.79268">
        <ele>436</ele>
        <time>2015-11-11T09:44:39.000Z</time>
      </trkpt>
      <trkpt lat="47.41207" lon="6.79264">
        <ele>436</ele>
        <time>2015-11-11T09:44:40.000Z</time>
      </trkpt>
      <trkpt lat="47.41207" lon="6.7926">
        <ele>436</ele>
        <time>2015-11-11T09:44:41.000Z</time>
      </trkpt>
      <trkpt lat="47.41206" lon="6.79256">
        <ele>436</ele>
        <time>2015-11-11T09:44:42.000Z</time>
      </trkpt>
      <trkpt lat="47.41206" lon="6.7925">
        <ele>427</ele>
        <time>2015-11-11T09:44:43.000Z</time>
      </trkpt>
      <trkpt lat="47.41206" lon="6.79244">
        <ele>427</ele>
        <time>2015-11-11T09:44:44.000Z</time>
      </trkpt>
      <trkpt lat="47.41208" lon="6.79238">
        <ele>427</ele>
        <time>2015-11-11T09:44:45.000Z</time>
      </trkpt>
      <trkpt lat="47.41208" lon="6.79234">
        <ele>427</ele>
        <time>2015-11-11T09:44:46.000Z</time>
      </trkpt>
      <trkpt lat="47.41206" lon="6.79229">
        <ele>426</ele>
        <time>2015-11-11T09:44:50.000Z</time>
      </trkpt>
      <trkpt lat="47.41205" lon="6.79227">
        <ele>426</ele>
        <time>2015-11-11T09:44:51.000Z</time>
      </trkpt>
      <trkpt lat="47.41207" lon="6.79223">
        <ele>426</ele>
        <time>2015-11-11T09:44:53.000Z</time>
      </trkpt>
      <trkpt lat="47.41207" lon="6.79221">
        <ele>426</ele>
        <time>2015-11-11T09:44:54.000Z</time>
      </trkpt>
      <trkpt lat="47.41208" lon="6.79214">
        <ele>425</ele>
        <time>2015-11-11T09:45:06.000Z</time>
      </trkpt>
      <trkpt lat="47.41209" lon="6.79213">
        <ele>425</ele>
        <time>2015-11-11T09:45:07.000Z</time>
      </trkpt>
      <trkpt lat="47.41211" lon="6.79208">
        <ele>424</ele>
        <time>2015-11-11T09:45:10.000Z</time>
      </trkpt>
      <trkpt lat="47.41212" lon="6.79206">
        <ele>424</ele>
        <time>2015-11-11T09:45:11.000Z</time>
      </trkpt>
      <trkpt lat="47.41215" lon="6.79202">
        <ele>424</ele>
        <time>2015-11-11T09:45:13.000Z</time>
      </trkpt>
      <trkpt lat="47.41216" lon="6.792">
        <ele>423</ele>
        <time>2015-11-11T09:45:14.000Z</time>
      </trkpt>
      <trkpt lat="47.41217" lon="6.79196">
        <ele>423</ele>
        <time>2015-11-11T09:45:16.000Z</time>
      </trkpt>
      <trkpt lat="47.41218" lon="6.79193">
        <ele>423</ele>
        <time>2015-11-11T09:45:17.000Z</time>
      </trkpt>
      <trkpt lat="47.41219" lon="6.79188">
        <ele>422</ele>
        <time>2015-11-11T09:45:19.000Z</time>
      </trkpt>
      <trkpt lat="47.41218" lon="6.79185">
        <ele>422</ele>
        <time>2015-11-11T09:45:20.000Z</time>
      </trkpt>
      <trkpt lat="47.41219" lon="6.79181">
        <ele>422</ele>
        <time>2015-11-11T09:45:21.000Z</time>
      </trkpt>
      <trkpt lat="47.4122" lon="6.79178">
        <ele>421</ele>
        <time>2015-11-11T09:45:22.000Z</time>
      </trkpt>
      <trkpt lat="47.41223" lon="6.79175">
        <ele>420</ele>
        <time>2015-11-11T09:46:03.000Z</time>
      </trkpt>
      <trkpt lat="47.41223" lon="6.79174">
        <ele>420</ele>
        <time>2015-11-11T09:46:04.000Z</time>
      </trkpt>
      <trkpt lat="47.41223" lon="6.79169">
        <ele>420</ele>
        <time>2015-11-11T09:46:15.000Z</time>
      </trkpt>
      <trkpt lat="47.41222" lon="6.79168">
        <ele>420</ele>
        <time>2015-11-11T09:46:16.000Z</time>
      </trkpt>
      <trkpt lat="47.41219" lon="6.79165">
        <ele>413</ele>
        <time>2015-11-11T09:46:18.000Z</time>
      </trkpt>
      <trkpt lat="47.41218" lon="6.79164">
        <ele>413</ele>
        <time>2015-11-11T09:46:19.000Z</time>
      </trkpt>
      <trkpt lat="47.41218" lon="6.79157">
        <ele>413</ele>
        <time>2015-11-11T09:46:22.000Z</time>
      </trkpt>
      <trkpt lat="47.41218" lon="6.79153">
        <ele>413</ele>
        <time>2015-11-11T09:46:23.000Z</time>
      </trkpt>
      <trkpt lat="47.41217" lon="6.79148">
        <ele>413</ele>
        <time>2015-11-11T09:46:24.000Z</time>
      </trkpt>
      <trkpt lat="47.41217" lon="6.79143">
        <ele>412</ele>
        <time>2015-11-11T09:46:25.000Z</time>
      </trkpt>
      <trkpt lat="47.41216" lon="6.79137">
        <ele>412</ele>
        <time>2015-11-11T09:46:26.000Z</time>
      </trkpt>
      <trkpt lat="47.41215" lon="6.79132">
        <ele>412</ele>
        <time>2015-11-11T09:46:27.000Z</time>
      </trkpt>
      <trkpt lat="47.41215" lon="6.79116">
        <ele>410</ele>
        <time>2015-11-11T09:46:28.000Z</time>
      </trkpt>
      <trkpt lat="47.41215" lon="6.79111">
        <ele>410</ele>
        <time>2015-11-11T09:46:29.000Z</time>
      </trkpt>
      <trkpt lat="47.41216" lon="6.79105">
        <ele>409</ele>
        <time>2015-11-11T09:46:30.000Z</time>
      </trkpt>
      <trkpt lat="47.41216" lon="6.79096">
        <ele>408</ele>
        <time>2015-11-11T09:46:31.000Z</time>
      </trkpt>
      <trkpt lat="47.41219" lon="6.79087">
        <ele>407</ele>
        <time>2015-11-11T09:46:32.000Z</time>
      </trkpt>
      <trkpt lat="47.41221" lon="6.79078">
        <ele>399</ele>
        <time>2015-11-11T09:46:33.000Z</time>
      </trkpt>
      <trkpt lat="47.41223" lon="6.7907">
        <ele>399</ele>
        <time>2015-11-11T09:46:34.000Z</time>
      </trkpt>
      <trkpt lat="47.41223" lon="6.79064">
        <ele>399</ele>
        <time>2015-11-11T09:46:35.000Z</time>
      </trkpt>
      <trkpt lat="47.41223" lon="6.79059">
        <ele>398</ele>
        <time>2015-11-11T09:46:36.000Z</time>
      </trkpt>
      <trkpt lat="47.41224" lon="6.79054">
        <ele>398</ele>
        <time>2015-11-11T09:46:37.000Z</time>
      </trkpt>
      <trkpt lat="47.41221" lon="6.79048">
        <ele>398</ele>
        <time>2015-11-11T09:46:38.000Z</time>
      </trkpt>
      <trkpt lat="47.4122" lon="6.79042">
        <ele>398</ele>
        <time>2015-11-11T09:46:39.000Z</time>
      </trkpt>
      <trkpt lat="47.41217" lon="6.79035">
        <ele>397</ele>
        <time>2015-11-11T09:46:40.000Z</time>
      </trkpt>
      <trkpt lat="47.41216" lon="6.79028">
        <ele>397</ele>
        <time>2015-11-11T09:46:41.000Z</time>
      </trkpt>
      <trkpt lat="47.41215" lon="6.7902">
        <ele>397</ele>
        <time>2015-11-11T09:46:42.000Z</time>
      </trkpt>
      <trkpt lat="47.41213" lon="6.79015">
        <ele>396</ele>
        <time>2015-11-11T09:46:43.000Z</time>
      </trkpt>
      <trkpt lat="47.41212" lon="6.79011">
        <ele>396</ele>
        <time>2015-11-11T09:46:44.000Z</time>
      </trkpt>
      <trkpt lat="47.4121" lon="6.79007">
        <ele>397</ele>
        <time>2015-11-11T09:46:45.000Z</time>
      </trkpt>
      <trkpt lat="47.41209" lon="6.79002">
        <ele>397</ele>
        <time>2015-11-11T09:46:46.000Z</time>
      </trkpt>
      <trkpt lat="47.41207" lon="6.78998">
        <ele>387</ele>
        <time>2015-11-11T09:46:47.000Z</time>
      </trkpt>
      <trkpt lat="47.41205" lon="6.78994">
        <ele>387</ele>
        <time>2015-11-11T09:46:48.000Z</time>
      </trkpt>
      <trkpt lat="47.41204" lon="6.7899">
        <ele>387</ele>
        <time>2015-11-11T09:46:49.000Z</time>
      </trkpt>
      <trkpt lat="47.41202" lon="6.78986">
        <ele>387</ele>
        <time>2015-11-11T09:46:50.000Z</time>
      </trkpt>
      <trkpt lat="47.412" lon="6.78981">
        <ele>387</ele>
        <time>2015-11-11T09:46:51.000Z</time>
      </trkpt>
      <trkpt lat="47.41198" lon="6.78977">
        <ele>387</ele>
        <time>2015-11-11T09:46:52.000Z</time>
      </trkpt>
      <trkpt lat="47.41195" lon="6.78971">
        <ele>387</ele>
        <time>2015-11-11T09:46:53.000Z</time>
      </trkpt>
      <trkpt lat="47.41193" lon="6.78966">
        <ele>386</ele>
        <time>2015-11-11T09:46:54.000Z</time>
      </trkpt>
      <trkpt lat="47.4119" lon="6.78962">
        <ele>386</ele>
        <time>2015-11-11T09:46:55.000Z</time>
      </trkpt>
      <trkpt lat="47.41182" lon="6.7894">
        <ele>384</ele>
        <time>2015-11-11T09:46:56.000Z</time>
      </trkpt>
      <trkpt lat="47.41177" lon="6.78931">
        <ele>385</ele>
        <time>2015-11-11T09:46:57.000Z</time>
      </trkpt>
      <trkpt lat="47.41174" lon="6.78928">
        <ele>385</ele>
        <time>2015-11-11T09:46:58.000Z</time>
      </trkpt>
      <trkpt lat="47.41171" lon="6.7892">
        <ele>385</ele>
        <time>2015-11-11T09:46:59.000Z</time>
      </trkpt>
      <trkpt lat="47.41169" lon="6.78916">
        <ele>384</ele>
        <time>2015-11-11T09:47:00.000Z</time>
      </trkpt>
      <trkpt lat="47.41167" lon="6.78911">
        <ele>387</ele>
        <time>2015-11-11T09:47:01.000Z</time>
      </trkpt>
      <trkpt lat="47.41167" lon="6.78906">
        <ele>378</ele>
        <time>2015-11-11T09:47:03.000Z</time>
      </trkpt>
      <trkpt lat="47.41166" lon="6.78903">
        <ele>388</ele>
        <time>2015-11-11T09:47:04.000Z</time>
      </trkpt>
      <trkpt lat="47.41164" lon="6.78898">
        <ele>388</ele>
        <time>2015-11-11T09:47:08.000Z</time>
      </trkpt>
      <trkpt lat="47.41164" lon="6.78896">
        <ele>388</ele>
        <time>2015-11-11T09:47:09.000Z</time>
      </trkpt>
      <trkpt lat="47.41163" lon="6.78891">
        <ele>387</ele>
        <time>2015-11-11T09:47:12.000Z</time>
      </trkpt>
      <trkpt lat="47.41163" lon="6.7889">
        <ele>387</ele>
        <time>2015-11-11T09:47:13.000Z</time>
      </trkpt>
      <trkpt lat="47.41162" lon="6.78884">
        <ele>387</ele>
        <time>2015-11-11T09:47:19.000Z</time>
      </trkpt>
      <trkpt lat="47.41162" lon="6.78883">
        <ele>387</ele>
        <time>2015-11-11T09:47:20.000Z</time>
      </trkpt>
      <trkpt lat="47.41161" lon="6.78876">
        <ele>386</ele>
        <time>2015-11-11T09:47:26.000Z</time>
      </trkpt>
      <trkpt lat="47.41161" lon="6.78875">
        <ele>386</ele>
        <time>2015-11-11T09:47:27.000Z</time>
      </trkpt>
      <trkpt lat="47.4116" lon="6.78869">
        <ele>384</ele>
        <time>2015-11-11T09:47:47.000Z</time>
      </trkpt>
      <trkpt lat="47.4116" lon="6.78868">
        <ele>384</ele>
        <time>2015-11-11T09:47:48.000Z</time>
      </trkpt>
      <trkpt lat="47.41158" lon="6.78862">
        <ele>383</ele>
        <time>2015-11-11T09:47:54.000Z</time>
      </trkpt>
      <trkpt lat="47.41158" lon="6.78862">
        <ele>382</ele>
        <time>2015-11-11T09:47:55.000Z</time>
      </trkpt>
      <trkpt lat="47.41157" lon="6.78856">
        <ele>381</ele>
        <time>2015-11-11T09:48:46.000Z</time>
      </trkpt>
      <trkpt lat="47.41156" lon="6.78855">
        <ele>381</ele>
        <time>2015-11-11T09:48:47.000Z</time>
      </trkpt>
      <trkpt lat="47.41155" lon="6.78852">
        <ele>380</ele>
        <time>2015-11-11T09:48:50.000Z</time>
      </trkpt>
      <trkpt lat="47.41155" lon="6.78849">
        <ele>379</ele>
        <time>2015-11-11T09:48:51.000Z</time>
      </trkpt>
      <trkpt lat="47.41156" lon="6.78844">
        <ele>377</ele>
        <time>2015-11-11T09:48:52.000Z</time>
      </trkpt>
      <trkpt lat="47.41157" lon="6.78838">
        <ele>374</ele>
        <time>2015-11-11T09:48:53.000Z</time>
      </trkpt>
      <trkpt lat="47.41159" lon="6.78836">
        <ele>372</ele>
        <time>2015-11-11T09:48:54.000Z</time>
      </trkpt>
      <trkpt lat="47.41161" lon="6.78833">
        <ele>366</ele>
        <time>2015-11-11T09:48:55.000Z</time>
      </trkpt>
      <trkpt lat="47.41166" lon="6.78828">
        <ele>365</ele>
        <time>2015-11-11T09:48:56.000Z</time>
      </trkpt>
      <trkpt lat="47.41169" lon="6.78822">
        <ele>359</ele>
        <time>2015-11-11T09:48:57.000Z</time>
      </trkpt>
      <trkpt lat="47.41171" lon="6.78816">
        <ele>357</ele>
        <time>2015-11-11T09:48:58.000Z</time>
      </trkpt>
      <trkpt lat="47.41173" lon="6.78809">
        <ele>356</ele>
        <time>2015-11-11T09:48:59.000Z</time>
      </trkpt>
      <trkpt lat="47.41174" lon="6.78797">
        <ele>354</ele>
        <time>2015-11-11T09:49:00.000Z</time>
      </trkpt>
      <trkpt lat="47.41174" lon="6.78791">
        <ele>353</ele>
        <time>2015-11-11T09:49:01.000Z</time>
      </trkpt>
      <trkpt lat="47.41175" lon="6.78779">
        <ele>351</ele>
        <time>2015-11-11T09:49:02.000Z</time>
      </trkpt>
      <trkpt lat="47.41176" lon="6.78768">
        <ele>351</ele>
        <time>2015-11-11T09:49:03.000Z</time>
      </trkpt>
      <trkpt lat="47.41179" lon="6.78763">
        <ele>350</ele>
        <time>2015-11-11T09:49:05.000Z</time>
      </trkpt>
      <trkpt lat="47.4118" lon="6.7876">
        <ele>350</ele>
        <time>2015-11-11T09:49:05.999Z</time>
      </trkpt>
      <trkpt lat="47.41183" lon="6.78752">
        <ele>350</ele>
        <time>2015-11-11T09:49:07.000Z</time>
      </trkpt>
      <trkpt lat="47.41182" lon="6.78745">
        <ele>347</ele>
        <time>2015-11-11T09:49:08.000Z</time>
      </trkpt>
      <trkpt lat="47.41183" lon="6.78736">
        <ele>347</ele>
        <time>2015-11-11T09:49:09.000Z</time>
      </trkpt>
      <trkpt lat="47.41184" lon="6.78733">
        <ele>346</ele>
        <time>2015-11-11T09:49:10.000Z</time>
      </trkpt>
      <trkpt lat="47.41183" lon="6.78727">
        <ele>346</ele>
        <time>2015-11-11T09:49:11.000Z</time>
      </trkpt>
      <trkpt lat="47.41183" lon="6.78724">
        <ele>346</ele>
        <time>2015-11-11T09:49:12.000Z</time>
      </trkpt>
      <trkpt lat="47.41182" lon="6.78719">
        <ele>346</ele>
        <time>2015-11-11T09:49:13.000Z</time>
      </trkpt>
      <trkpt lat="47.4118" lon="6.78716">
        <ele>346</ele>
        <time>2015-11-11T09:49:14.000Z</time>
      </trkpt>
      <trkpt lat="47.41179" lon="6.78713">
        <ele>345</ele>
        <time>2015-11-11T09:49:15.000Z</time>
      </trkpt>
      <trkpt lat="47.41177" lon="6.78708">
        <ele>345</ele>
        <time>2015-11-11T09:49:17.000Z</time>
      </trkpt>
      <trkpt lat="47.41176" lon="6.78706">
        <ele>345</ele>
        <time>2015-11-11T09:49:18.000Z</time>
      </trkpt>
      <trkpt lat="47.41174" lon="6.787">
        <ele>345</ele>
        <time>2015-11-11T09:49:20.000Z</time>
      </trkpt>
      <trkpt lat="47.41173" lon="6.78697">
        <ele>345</ele>
        <time>2015-11-11T09:49:21.000Z</time>
      </trkpt>
      <trkpt lat="47.41171" lon="6.78692">
        <ele>345</ele>
        <time>2015-11-11T09:49:23.000Z</time>
      </trkpt>
      <trkpt lat="47.4117" lon="6.7869">
        <ele>345</ele>
        <time>2015-11-11T09:49:24.000Z</time>
      </trkpt>
      <trkpt lat="47.41168" lon="6.78687">
        <ele>345</ele>
        <time>2015-11-11T09:49:26.000Z</time>
      </trkpt>
      <trkpt lat="47.41166" lon="6.78685">
        <ele>348</ele>
        <time>2015-11-11T09:49:27.000Z</time>
      </trkpt>
      <trkpt lat="47.41164" lon="6.7868">
        <ele>347</ele>
        <time>2015-11-11T09:49:29.000Z</time>
      </trkpt>
      <trkpt lat="47.41163" lon="6.78676">
        <ele>347</ele>
        <time>2015-11-11T09:49:30.000Z</time>
      </trkpt>
      <trkpt lat="47.41163" lon="6.78671">
        <ele>346</ele>
        <time>2015-11-11T09:49:31.000Z</time>
      </trkpt>
      <trkpt lat="47.41162" lon="6.78664">
        <ele>345</ele>
        <time>2015-11-11T09:49:32.000Z</time>
      </trkpt>
      <trkpt lat="47.41162" lon="6.78658">
        <ele>345</ele>
        <time>2015-11-11T09:49:33.000Z</time>
      </trkpt>
      <trkpt lat="47.41162" lon="6.7865">
        <ele>345</ele>
        <time>2015-11-11T09:49:34.000Z</time>
      </trkpt>
      <trkpt lat="47.41162" lon="6.78644">
        <ele>344</ele>
        <time>2015-11-11T09:49:35.000Z</time>
      </trkpt>
      <trkpt lat="47.41162" lon="6.78637">
        <ele>344</ele>
        <time>2015-11-11T09:49:36.000Z</time>
      </trkpt>
      <trkpt lat="47.41162" lon="6.78631">
        <ele>344</ele>
        <time>2015-11-11T09:49:37.000Z</time>
      </trkpt>
      <trkpt lat="47.41162" lon="6.78626">
        <ele>344</ele>
        <time>2015-11-11T09:49:38.000Z</time>
      </trkpt>
      <trkpt lat="47.41161" lon="6.78621">
        <ele>344</ele>
        <time>2015-11-11T09:49:39.000Z</time>
      </trkpt>
      <trkpt lat="47.41161" lon="6.78617">
        <ele>344</ele>
        <time>2015-11-11T09:49:40.000Z</time>
      </trkpt>
      <trkpt lat="47.41161" lon="6.78612">
        <ele>344</ele>
        <time>2015-11-11T09:49:41.000Z</time>
      </trkpt>
      <trkpt lat="47.4116" lon="6.78608">
        <ele>343</ele>
        <time>2015-11-11T09:49:42.000Z</time>
      </trkpt>
      <trkpt lat="47.41159" lon="6.78604">
        <ele>343</ele>
        <time>2015-11-11T09:49:43.000Z</time>
      </trkpt>
      <trkpt lat="47.41159" lon="6.78599">
        <ele>343</ele>
        <time>2015-11-11T09:49:44.000Z</time>
      </trkpt>
      <trkpt lat="47.41158" lon="6.78595">
        <ele>343</ele>
        <time>2015-11-11T09:49:45.000Z</time>
      </trkpt>
      <trkpt lat="47.41157" lon="6.7859">
        <ele>343</ele>
        <time>2015-11-11T09:49:46.000Z</time>
      </trkpt>
      <trkpt lat="47.41156" lon="6.78585">
        <ele>343</ele>
        <time>2015-11-11T09:49:47.000Z</time>
      </trkpt>
      <trkpt lat="47.41155" lon="6.7858">
        <ele>342</ele>
        <time>2015-11-11T09:49:48.000Z</time>
      </trkpt>
      <trkpt lat="47.41154" lon="6.78576">
        <ele>342</ele>
        <time>2015-11-11T09:49:49.000Z</time>
      </trkpt>
      <trkpt lat="47.41153" lon="6.78572">
        <ele>342</ele>
        <time>2015-11-11T09:49:50.000Z</time>
      </trkpt>
      <trkpt lat="47.41153" lon="6.78569">
        <ele>342</ele>
        <time>2015-11-11T09:49:51.000Z</time>
      </trkpt>
      <trkpt lat="47.41152" lon="6.78565">
        <ele>341</ele>
        <time>2015-11-11T09:49:52.000Z</time>
      </trkpt>
      <trkpt lat="47.41151" lon="6.78561">
        <ele>341</ele>
        <time>2015-11-11T09:49:53.000Z</time>
      </trkpt>
      <trkpt lat="47.41149" lon="6.78557">
        <ele>341</ele>
        <time>2015-11-11T09:49:54.000Z</time>
      </trkpt>
      <trkpt lat="47.41148" lon="6.78553">
        <ele>341</ele>
        <time>2015-11-11T09:49:55.000Z</time>
      </trkpt>
      <trkpt lat="47.41148" lon="6.78549">
        <ele>341</ele>
        <time>2015-11-11T09:49:56.000Z</time>
      </trkpt>
      <trkpt lat="47.41147" lon="6.78546">
        <ele>341</ele>
        <time>2015-11-11T09:49:57.000Z</time>
      </trkpt>
      <trkpt lat="47.41146" lon="6.78541">
        <ele>341</ele>
        <time>2015-11-11T09:49:58.000Z</time>
      </trkpt>
      <trkpt lat="47.41146" lon="6.78535">
        <ele>341</ele>
        <time>2015-11-11T09:49:59.000Z</time>
      </trkpt>
      <trkpt lat="47.41145" lon="6.7853">
        <ele>341</ele>
        <time>2015-11-11T09:50:00.000Z</time>
      </trkpt>
      <trkpt lat="47.41144" lon="6.78524">
        <ele>341</ele>
        <time>2015-11-11T09:50:01.000Z</time>
      </trkpt>
      <trkpt lat="47.41143" lon="6.78518">
        <ele>341</ele>
        <time>2015-11-11T09:50:02.000Z</time>
      </trkpt>
      <trkpt lat="47.41143" lon="6.78513">
        <ele>341</ele>
        <time>2015-11-11T09:50:03.000Z</time>
      </trkpt>
      <trkpt lat="47.41142" lon="6.78508">
        <ele>340</ele>
        <time>2015-11-11T09:50:03.999Z</time>
      </trkpt>
      <trkpt lat="47.41142" lon="6.78502">
        <ele>340</ele>
        <time>2015-11-11T09:50:05.000Z</time>
      </trkpt>
      <trkpt lat="47.41142" lon="6.78497">
        <ele>340</ele>
        <time>2015-11-11T09:50:06.000Z</time>
      </trkpt>
      <trkpt lat="47.41141" lon="6.78492">
        <ele>340</ele>
        <time>2015-11-11T09:50:07.000Z</time>
      </trkpt>
      <trkpt lat="47.41141" lon="6.78487">
        <ele>340</ele>
        <time>2015-11-11T09:50:08.000Z</time>
      </trkpt>
      <trkpt lat="47.41141" lon="6.78482">
        <ele>340</ele>
        <time>2015-11-11T09:50:09.000Z</time>
      </trkpt>
      <trkpt lat="47.41141" lon="6.78477">
        <ele>340</ele>
        <time>2015-11-11T09:50:10.000Z</time>
      </trkpt>
      <trkpt lat="47.4114" lon="6.78472">
        <ele>340</ele>
        <time>2015-11-11T09:50:11.000Z</time>
      </trkpt>
      <trkpt lat="47.4114" lon="6.78467">
        <ele>340</ele>
        <time>2015-11-11T09:50:12.000Z</time>
      </trkpt>
      <trkpt lat="47.4114" lon="6.78464">
        <ele>340</ele>
        <time>2015-11-11T09:50:13.000Z</time>
      </trkpt>
      <trkpt lat="47.4114" lon="6.78459">
        <ele>340</ele>
        <time>2015-11-11T09:50:14.000Z</time>
      </trkpt>
      <trkpt lat="47.4114" lon="6.78453">
        <ele>340</ele>
        <time>2015-11-11T09:50:15.000Z</time>
      </trkpt>
      <trkpt lat="47.41139" lon="6.78447">
        <ele>340</ele>
        <time>2015-11-11T09:50:16.000Z</time>
      </trkpt>
      <trkpt lat="47.41139" lon="6.78441">
        <ele>340</ele>
        <time>2015-11-11T09:50:17.000Z</time>
      </trkpt>
      <trkpt lat="47.41138" lon="6.78435">
        <ele>340</ele>
        <time>2015-11-11T09:50:18.000Z</time>
      </trkpt>
      <trkpt lat="47.41137" lon="6.78429">
        <ele>340</ele>
        <time>2015-11-11T09:50:19.000Z</time>
      </trkpt>
      <trkpt lat="47.41137" lon="6.78424">
        <ele>340</ele>
        <time>2015-11-11T09:50:20.000Z</time>
      </trkpt>
      <trkpt lat="47.41137" lon="6.78419">
        <ele>340</ele>
        <time>2015-11-11T09:50:21.000Z</time>
      </trkpt>
      <trkpt lat="47.41137" lon="6.78414">
        <ele>339</ele>
        <time>2015-11-11T09:50:22.000Z</time>
      </trkpt>
      <trkpt lat="47.41137" lon="6.78408">
        <ele>339</ele>
        <time>2015-11-11T09:50:23.000Z</time>
      </trkpt>
      <trkpt lat="47.41137" lon="6.78403">
        <ele>339</ele>
        <time>2015-11-11T09:50:24.000Z</time>
      </trkpt>
      <trkpt lat="47.41137" lon="6.78396">
        <ele>339</ele>
        <time>2015-11-11T09:50:25.000Z</time>
      </trkpt>
      <trkpt lat="47.41137" lon="6.78389">
        <ele>339</ele>
        <time>2015-11-11T09:50:26.000Z</time>
      </trkpt>
      <trkpt lat="47.41137" lon="6.78383">
        <ele>339</ele>
        <time>2015-11-11T09:50:27.000Z</time>
      </trkpt>
      <trkpt lat="47.41134" lon="6.78372">
        <ele>339</ele>
        <time>2015-11-11T09:50:28.000Z</time>
      </trkpt>
      <trkpt lat="47.41134" lon="6.78364">
        <ele>339</ele>
        <time>2015-11-11T09:50:29.000Z</time>
      </trkpt>
      <trkpt lat="47.41134" lon="6.78359">
        <ele>339</ele>
        <time>2015-11-11T09:50:30.000Z</time>
      </trkpt>
      <trkpt lat="47.41133" lon="6.78354">
        <ele>339</ele>
        <time>2015-11-11T09:50:31.000Z</time>
      </trkpt>
      <trkpt lat="47.41133" lon="6.78349">
        <ele>339</ele>
        <time>2015-11-11T09:50:32.000Z</time>
      </trkpt>
      <trkpt lat="47.41133" lon="6.78343">
        <ele>339</ele>
        <time>2015-11-11T09:50:33.000Z</time>
      </trkpt>
      <trkpt lat="47.41133" lon="6.78338">
        <ele>339</ele>
        <time>2015-11-11T09:50:34.000Z</time>
      </trkpt>
      <trkpt lat="47.41132" lon="6.78332">
        <ele>339</ele>
        <time>2015-11-11T09:50:35.000Z</time>
      </trkpt>
      <trkpt lat="47.41132" lon="6.78326">
        <ele>339</ele>
        <time>2015-11-11T09:50:36.000Z</time>
      </trkpt>
      <trkpt lat="47.41133" lon="6.78319">
        <ele>339</ele>
        <time>2015-11-11T09:50:37.000Z</time>
      </trkpt>
      <trkpt lat="47.41134" lon="6.78314">
        <ele>339</ele>
        <time>2015-11-11T09:50:38.000Z</time>
      </trkpt>
      <trkpt lat="47.41134" lon="6.78309">
        <ele>339</ele>
        <time>2015-11-11T09:50:39.000Z</time>
      </trkpt>
      <trkpt lat="47.41132" lon="6.78301">
        <ele>339</ele>
        <time>2015-11-11T09:50:40.000Z</time>
      </trkpt>
      <trkpt lat="47.41133" lon="6.78294">
        <ele>339</ele>
        <time>2015-11-11T09:50:41.000Z</time>
      </trkpt>
      <trkpt lat="47.41134" lon="6.78287">
        <ele>339</ele>
        <time>2015-11-11T09:50:42.000Z</time>
      </trkpt>
      <trkpt lat="47.41134" lon="6.78279">
        <ele>339</ele>
        <time>2015-11-11T09:50:43.000Z</time>
      </trkpt>
      <trkpt lat="47.41134" lon="6.78273">
        <ele>339</ele>
        <time>2015-11-11T09:50:44.000Z</time>
      </trkpt>
      <trkpt lat="47.41135" lon="6.78268">
        <ele>339</ele>
        <time>2015-11-11T09:50:45.000Z</time>
      </trkpt>
      <trkpt lat="47.41136" lon="6.78261">
        <ele>339</ele>
        <time>2015-11-11T09:50:46.000Z</time>
      </trkpt>
      <trkpt lat="47.41136" lon="6.78255">
        <ele>339</ele>
        <time>2015-11-11T09:50:47.000Z</time>
      </trkpt>
      <trkpt lat="47.41136" lon="6.78248">
        <ele>340</ele>
        <time>2015-11-11T09:50:48.000Z</time>
      </trkpt>
      <trkpt lat="47.41136" lon="6.78241">
        <ele>340</ele>
        <time>2015-11-11T09:50:49.000Z</time>
      </trkpt>
      <trkpt lat="47.41135" lon="6.78235">
        <ele>340</ele>
        <time>2015-11-11T09:50:50.000Z</time>
      </trkpt>
      <trkpt lat="47.41134" lon="6.78228">
        <ele>340</ele>
        <time>2015-11-11T09:50:51.000Z</time>
      </trkpt>
      <trkpt lat="47.41134" lon="6.78221">
        <ele>340</ele>
        <time>2015-11-11T09:50:52.000Z</time>
      </trkpt>
      <trkpt lat="47.41133" lon="6.78215">
        <ele>340</ele>
        <time>2015-11-11T09:50:53.000Z</time>
      </trkpt>
      <trkpt lat="47.41132" lon="6.78208">
        <ele>340</ele>
        <time>2015-11-11T09:50:54.000Z</time>
      </trkpt>
      <trkpt lat="47.41131" lon="6.78202">
        <ele>340</ele>
        <time>2015-11-11T09:50:55.000Z</time>
      </trkpt>
      <trkpt lat="47.41129" lon="6.78196">
        <ele>341</ele>
        <time>2015-11-11T09:50:56.000Z</time>
      </trkpt>
      <trkpt lat="47.41128" lon="6.78189">
        <ele>341</ele>
        <time>2015-11-11T09:50:57.000Z</time>
      </trkpt>
      <trkpt lat="47.41126" lon="6.78183">
        <ele>341</ele>
        <time>2015-11-11T09:50:58.000Z</time>
      </trkpt>
      <trkpt lat="47.41125" lon="6.78177">
        <ele>341</ele>
        <time>2015-11-11T09:50:59.001Z</time>
      </trkpt>
      <trkpt lat="47.41125" lon="6.78169">
        <ele>341</ele>
        <time>2015-11-11T09:51:00.000Z</time>
      </trkpt>
      <trkpt lat="47.41124" lon="6.78164">
        <ele>341</ele>
        <time>2015-11-11T09:51:01.000Z</time>
      </trkpt>
      <trkpt lat="47.41123" lon="6.78157">
        <ele>341</ele>
        <time>2015-11-11T09:51:02.000Z</time>
      </trkpt>
      <trkpt lat="47.41124" lon="6.78151">
        <ele>341</ele>
        <time>2015-11-11T09:51:03.000Z</time>
      </trkpt>
      <trkpt lat="47.41123" lon="6.78145">
        <ele>341</ele>
        <time>2015-11-11T09:51:04.000Z</time>
      </trkpt>
      <trkpt lat="47.41123" lon="6.7814">
        <ele>341</ele>
        <time>2015-11-11T09:51:05.000Z</time>
      </trkpt>
      <trkpt lat="47.41122" lon="6.78133">
        <ele>341</ele>
        <time>2015-11-11T09:51:06.000Z</time>
      </trkpt>
      <trkpt lat="47.41121" lon="6.78126">
        <ele>342</ele>
        <time>2015-11-11T09:51:07.000Z</time>
      </trkpt>
      <trkpt lat="47.41121" lon="6.7812">
        <ele>342</ele>
        <time>2015-11-11T09:51:08.000Z</time>
      </trkpt>
      <trkpt lat="47.41118" lon="6.78113">
        <ele>342</ele>
        <time>2015-11-11T09:51:09.000Z</time>
      </trkpt>
      <trkpt lat="47.41116" lon="6.78108">
        <ele>342</ele>
        <time>2015-11-11T09:51:10.000Z</time>
      </trkpt>
      <trkpt lat="47.41113" lon="6.781">
        <ele>342</ele>
        <time>2015-11-11T09:51:11.000Z</time>
      </trkpt>
      <trkpt lat="47.41112" lon="6.78094">
        <ele>342</ele>
        <time>2015-11-11T09:51:12.000Z</time>
      </trkpt>
      <trkpt lat="47.4111" lon="6.78087">
        <ele>342</ele>
        <time>2015-11-11T09:51:13.000Z</time>
      </trkpt>
      <trkpt lat="47.41109" lon="6.78081">
        <ele>342</ele>
        <time>2015-11-11T09:51:14.000Z</time>
      </trkpt>
      <trkpt lat="47.41109" lon="6.78075">
        <ele>342</ele>
        <time>2015-11-11T09:51:15.000Z</time>
      </trkpt>
      <trkpt lat="47.41109" lon="6.78068">
        <ele>342</ele>
        <time>2015-11-11T09:51:16.000Z</time>
      </trkpt>
      <trkpt lat="47.41106" lon="6.78061">
        <ele>342</ele>
        <time>2015-11-11T09:51:17.000Z</time>
      </trkpt>
      <trkpt lat="47.41102" lon="6.78053">
        <ele>342</ele>
        <time>2015-11-11T09:51:18.000Z</time>
      </trkpt>
      <trkpt lat="47.411" lon="6.78045">
        <ele>342</ele>
        <time>2015-11-11T09:51:19.000Z</time>
      </trkpt>
      <trkpt lat="47.41098" lon="6.78038">
        <ele>342</ele>
        <time>2015-11-11T09:51:20.000Z</time>
      </trkpt>
      <trkpt lat="47.41096" lon="6.78031">
        <ele>342</ele>
        <time>2015-11-11T09:51:21.000Z</time>
      </trkpt>
      <trkpt lat="47.41096" lon="6.78025">
        <ele>342</ele>
        <time>2015-11-11T09:51:22.000Z</time>
      </trkpt>
      <trkpt lat="47.41095" lon="6.78018">
        <ele>342</ele>
        <time>2015-11-11T09:51:23.000Z</time>
      </trkpt>
      <trkpt lat="47.41093" lon="6.78012">
        <ele>342</ele>
        <time>2015-11-11T09:51:24.000Z</time>
      </trkpt>
      <trkpt lat="47.41091" lon="6.78005">
        <ele>342</ele>
        <time>2015-11-11T09:51:25.000Z</time>
      </trkpt>
      <trkpt lat="47.41091" lon="6.77999">
        <ele>342</ele>
        <time>2015-11-11T09:51:26.000Z</time>
      </trkpt>
      <trkpt lat="47.4109" lon="6.77993">
        <ele>342</ele>
        <time>2015-11-11T09:51:27.000Z</time>
      </trkpt>
      <trkpt lat="47.4109" lon="6.77987">
        <ele>342</ele>
        <time>2015-11-11T09:51:28.000Z</time>
      </trkpt>
      <trkpt lat="47.4109" lon="6.77982">
        <ele>342</ele>
        <time>2015-11-11T09:51:29.000Z</time>
      </trkpt>
      <trkpt lat="47.41087" lon="6.77973">
        <ele>342</ele>
        <time>2015-11-11T09:51:30.000Z</time>
      </trkpt>
      <trkpt lat="47.41086" lon="6.77966">
        <ele>342</ele>
        <time>2015-11-11T09:51:31.000Z</time>
      </trkpt>
      <trkpt lat="47.41084" lon="6.77962">
        <ele>342</ele>
        <time>2015-11-11T09:51:32.000Z</time>
      </trkpt>
      <trkpt lat="47.41081" lon="6.77955">
        <ele>342</ele>
        <time>2015-11-11T09:51:33.000Z</time>
      </trkpt>
      <trkpt lat="47.4108" lon="6.77948">
        <ele>342</ele>
        <time>2015-11-11T09:51:34.000Z</time>
      </trkpt>
      <trkpt lat="47.41078" lon="6.77941">
        <ele>341</ele>
        <time>2015-11-11T09:51:35.000Z</time>
      </trkpt>
      <trkpt lat="47.41076" lon="6.77934">
        <ele>341</ele>
        <time>2015-11-11T09:51:36.000Z</time>
      </trkpt>
      <trkpt lat="47.41073" lon="6.77928">
        <ele>341</ele>
        <time>2015-11-11T09:51:37.000Z</time>
      </trkpt>
      <trkpt lat="47.41072" lon="6.77924">
        <ele>341</ele>
        <time>2015-11-11T09:51:38.000Z</time>
      </trkpt>
      <trkpt lat="47.41071" lon="6.77918">
        <ele>341</ele>
        <time>2015-11-11T09:51:39.000Z</time>
      </trkpt>
      <trkpt lat="47.41069" lon="6.77913">
        <ele>341</ele>
        <time>2015-11-11T09:51:40.000Z</time>
      </trkpt>
      <trkpt lat="47.41067" lon="6.77906">
        <ele>341</ele>
        <time>2015-11-11T09:51:41.000Z</time>
      </trkpt>
      <trkpt lat="47.41065" lon="6.779">
        <ele>341</ele>
        <time>2015-11-11T09:51:42.000Z</time>
      </trkpt>
      <trkpt lat="47.41063" lon="6.77893">
        <ele>341</ele>
        <time>2015-11-11T09:51:43.000Z</time>
      </trkpt>
      <trkpt lat="47.41061" lon="6.77887">
        <ele>341</ele>
        <time>2015-11-11T09:51:44.000Z</time>
      </trkpt>
      <trkpt lat="47.41059" lon="6.77881">
        <ele>341</ele>
        <time>2015-11-11T09:51:45.000Z</time>
      </trkpt>
      <trkpt lat="47.41057" lon="6.77876">
        <ele>341</ele>
        <time>2015-11-11T09:51:46.000Z</time>
      </trkpt>
      <trkpt lat="47.41054" lon="6.7787">
        <ele>341</ele>
        <time>2015-11-11T09:51:47.000Z</time>
      </trkpt>
      <trkpt lat="47.41052" lon="6.77865">
        <ele>341</ele>
        <time>2015-11-11T09:51:48.000Z</time>
      </trkpt>
      <trkpt lat="47.41048" lon="6.7786">
        <ele>341</ele>
        <time>2015-11-11T09:51:49.000Z</time>
      </trkpt>
      <trkpt lat="47.41046" lon="6.77855">
        <ele>341</ele>
        <time>2015-11-11T09:51:50.000Z</time>
      </trkpt>
      <trkpt lat="47.41044" lon="6.7785">
        <ele>341</ele>
        <time>2015-11-11T09:51:51.000Z</time>
      </trkpt>
      <trkpt lat="47.41041" lon="6.77846">
        <ele>341</ele>
        <time>2015-11-11T09:51:52.000Z</time>
      </trkpt>
      <trkpt lat="47.41039" lon="6.7784">
        <ele>341</ele>
        <time>2015-11-11T09:51:53.000Z</time>
      </trkpt>
      <trkpt lat="47.41037" lon="6.77837">
        <ele>341</ele>
        <time>2015-11-11T09:51:54.000Z</time>
      </trkpt>
      <trkpt lat="47.41035" lon="6.77832">
        <ele>341</ele>
        <time>2015-11-11T09:51:55.000Z</time>
      </trkpt>
      <trkpt lat="47.41032" lon="6.77826">
        <ele>341</ele>
        <time>2015-11-11T09:51:56.000Z</time>
      </trkpt>
      <trkpt lat="47.4103" lon="6.77821">
        <ele>341</ele>
        <time>2015-11-11T09:51:57.000Z</time>
      </trkpt>
      <trkpt lat="47.41027" lon="6.77817">
        <ele>341</ele>
        <time>2015-11-11T09:51:58.000Z</time>
      </trkpt>
      <trkpt lat="47.41025" lon="6.77814">
        <ele>341</ele>
        <time>2015-11-11T09:51:59.000Z</time>
      </trkpt>
      <trkpt lat="47.41023" lon="6.7781">
        <ele>341</ele>
        <time>2015-11-11T09:52:00.002Z</time>
      </trkpt>
      <trkpt lat="47.41017" lon="6.77805">
        <ele>341</ele>
        <time>2015-11-11T09:52:01.000Z</time>
      </trkpt>
      <trkpt lat="47.41015" lon="6.778">
        <ele>341</ele>
        <time>2015-11-11T09:52:02.000Z</time>
      </trkpt>
      <trkpt lat="47.41012" lon="6.77796">
        <ele>341</ele>
        <time>2015-11-11T09:52:03.000Z</time>
      </trkpt>
      <trkpt lat="47.41009" lon="6.77791">
        <ele>341</ele>
        <time>2015-11-11T09:52:04.000Z</time>
      </trkpt>
      <trkpt lat="47.41007" lon="6.77786">
        <ele>341</ele>
        <time>2015-11-11T09:52:05.000Z</time>
      </trkpt>
      <trkpt lat="47.41005" lon="6.77782">
        <ele>341</ele>
        <time>2015-11-11T09:52:06.000Z</time>
      </trkpt>
      <trkpt lat="47.41003" lon="6.77776">
        <ele>341</ele>
        <time>2015-11-11T09:52:07.000Z</time>
      </trkpt>
      <trkpt lat="47.41002" lon="6.7777">
        <ele>341</ele>
        <time>2015-11-11T09:52:08.000Z</time>
      </trkpt>
      <trkpt lat="47.41003" lon="6.77763">
        <ele>341</ele>
        <time>2015-11-11T09:52:09.000Z</time>
      </trkpt>
      <trkpt lat="47.41013" lon="6.77757">
        <ele>341</ele>
        <time>2015-11-11T09:52:10.000Z</time>
      </trkpt>
      <trkpt lat="47.41016" lon="6.77752">
        <ele>340</ele>
        <time>2015-11-11T09:52:11.000Z</time>
      </trkpt>
      <trkpt lat="47.41019" lon="6.77747">
        <ele>340</ele>
        <time>2015-11-11T09:52:12.000Z</time>
      </trkpt>
      <trkpt lat="47.41021" lon="6.77741">
        <ele>340</ele>
        <time>2015-11-11T09:52:13.000Z</time>
      </trkpt>
      <trkpt lat="47.41025" lon="6.77737">
        <ele>340</ele>
        <time>2015-11-11T09:52:14.000Z</time>
      </trkpt>
      <trkpt lat="47.41028" lon="6.77732">
        <ele>340</ele>
        <time>2015-11-11T09:52:15.000Z</time>
      </trkpt>
      <trkpt lat="47.41032" lon="6.77728">
        <ele>340</ele>
        <time>2015-11-11T09:52:16.000Z</time>
      </trkpt>
      <trkpt lat="47.41035" lon="6.77722">
        <ele>340</ele>
        <time>2015-11-11T09:52:17.000Z</time>
      </trkpt>
      <trkpt lat="47.41038" lon="6.77717">
        <ele>340</ele>
        <time>2015-11-11T09:52:18.000Z</time>
      </trkpt>
      <trkpt lat="47.41042" lon="6.77712">
        <ele>339</ele>
        <time>2015-11-11T09:52:19.000Z</time>
      </trkpt>
      <trkpt lat="47.41046" lon="6.77707">
        <ele>339</ele>
        <time>2015-11-11T09:52:20.000Z</time>
      </trkpt>
      <trkpt lat="47.41051" lon="6.77702">
        <ele>339</ele>
        <time>2015-11-11T09:52:21.000Z</time>
      </trkpt>
      <trkpt lat="47.41054" lon="6.77696">
        <ele>339</ele>
        <time>2015-11-11T09:52:22.000Z</time>
      </trkpt>
      <trkpt lat="47.41058" lon="6.77692">
        <ele>339</ele>
        <time>2015-11-11T09:52:23.000Z</time>
      </trkpt>
      <trkpt lat="47.41061" lon="6.77688">
        <ele>339</ele>
        <time>2015-11-11T09:52:24.001Z</time>
      </trkpt>
      <trkpt lat="47.41064" lon="6.77683">
        <ele>339</ele>
        <time>2015-11-11T09:52:25.000Z</time>
      </trkpt>
      <trkpt lat="47.41067" lon="6.77679">
        <ele>339</ele>
        <time>2015-11-11T09:52:26.000Z</time>
      </trkpt>
      <trkpt lat="47.41071" lon="6.77675">
        <ele>339</ele>
        <time>2015-11-11T09:52:27.000Z</time>
      </trkpt>
      <trkpt lat="47.41074" lon="6.7767">
        <ele>339</ele>
        <time>2015-11-11T09:52:28.000Z</time>
      </trkpt>
      <trkpt lat="47.41077" lon="6.77666">
        <ele>339</ele>
        <time>2015-11-11T09:52:29.000Z</time>
      </trkpt>
      <trkpt lat="47.4108" lon="6.7766">
        <ele>339</ele>
        <time>2015-11-11T09:52:30.000Z</time>
      </trkpt>
      <trkpt lat="47.41084" lon="6.77656">
        <ele>340</ele>
        <time>2015-11-11T09:52:31.000Z</time>
      </trkpt>
      <trkpt lat="47.41088" lon="6.77652">
        <ele>340</ele>
        <time>2015-11-11T09:52:32.000Z</time>
      </trkpt>
      <trkpt lat="47.41091" lon="6.77647">
        <ele>340</ele>
        <time>2015-11-11T09:52:33.000Z</time>
      </trkpt>
      <trkpt lat="47.41095" lon="6.77645">
        <ele>340</ele>
        <time>2015-11-11T09:52:34.000Z</time>
      </trkpt>
      <trkpt lat="47.41099" lon="6.77642">
        <ele>340</ele>
        <time>2015-11-11T09:52:35.000Z</time>
      </trkpt>
      <trkpt lat="47.41102" lon="6.77637">
        <ele>341</ele>
        <time>2015-11-11T09:52:36.000Z</time>
      </trkpt>
      <trkpt lat="47.41106" lon="6.77634">
        <ele>341</ele>
        <time>2015-11-11T09:52:37.000Z</time>
      </trkpt>
      <trkpt lat="47.41109" lon="6.77629">
        <ele>341</ele>
        <time>2015-11-11T09:52:38.000Z</time>
      </trkpt>
      <trkpt lat="47.41113" lon="6.77624">
        <ele>341</ele>
        <time>2015-11-11T09:52:39.000Z</time>
      </trkpt>
      <trkpt lat="47.41115" lon="6.77619">
        <ele>341</ele>
        <time>2015-11-11T09:52:40.000Z</time>
      </trkpt>
      <trkpt lat="47.41119" lon="6.77615">
        <ele>341</ele>
        <time>2015-11-11T09:52:41.000Z</time>
      </trkpt>
      <trkpt lat="47.41122" lon="6.7761">
        <ele>341</ele>
        <time>2015-11-11T09:52:42.000Z</time>
      </trkpt>
      <trkpt lat="47.41125" lon="6.77606">
        <ele>341</ele>
        <time>2015-11-11T09:52:43.000Z</time>
      </trkpt>
      <trkpt lat="47.41128" lon="6.77602">
        <ele>341</ele>
        <time>2015-11-11T09:52:44.000Z</time>
      </trkpt>
      <trkpt lat="47.4113" lon="6.77598">
        <ele>341</ele>
        <time>2015-11-11T09:52:45.000Z</time>
      </trkpt>
      <trkpt lat="47.41133" lon="6.77595">
        <ele>341</ele>
        <time>2015-11-11T09:52:46.000Z</time>
      </trkpt>
      <trkpt lat="47.41137" lon="6.77592">
        <ele>341</ele>
        <time>2015-11-11T09:52:47.000Z</time>
      </trkpt>
      <trkpt lat="47.4114" lon="6.7759">
        <ele>341</ele>
        <time>2015-11-11T09:52:48.000Z</time>
      </trkpt>
      <trkpt lat="47.41143" lon="6.7759">
        <ele>341</ele>
        <time>2015-11-11T09:52:49.000Z</time>
      </trkpt>
      <trkpt lat="47.41146" lon="6.77591">
        <ele>341</ele>
        <time>2015-11-11T09:52:50.000Z</time>
      </trkpt>
      <trkpt lat="47.4115" lon="6.77594">
        <ele>341</ele>
        <time>2015-11-11T09:52:51.000Z</time>
      </trkpt>
      <trkpt lat="47.41152" lon="6.77598">
        <ele>341</ele>
        <time>2015-11-11T09:52:52.000Z</time>
      </trkpt>
      <trkpt lat="47.41155" lon="6.77602">
        <ele>341</ele>
        <time>2015-11-11T09:52:53.000Z</time>
      </trkpt>
      <trkpt lat="47.41158" lon="6.77607">
        <ele>341</ele>
        <time>2015-11-11T09:52:54.000Z</time>
      </trkpt>
      <trkpt lat="47.41161" lon="6.77612">
        <ele>341</ele>
        <time>2015-11-11T09:52:55.000Z</time>
      </trkpt>
      <trkpt lat="47.41165" lon="6.77616">
        <ele>341</ele>
        <time>2015-11-11T09:52:56.000Z</time>
      </trkpt>
      <trkpt lat="47.41168" lon="6.77621">
        <ele>343</ele>
        <time>2015-11-11T09:52:57.000Z</time>
      </trkpt>
      <trkpt lat="47.41172" lon="6.77624">
        <ele>343</ele>
        <time>2015-11-11T09:52:58.000Z</time>
      </trkpt>
      <trkpt lat="47.41176" lon="6.77629">
        <ele>343</ele>
        <time>2015-11-11T09:52:59.000Z</time>
      </trkpt>
      <trkpt lat="47.4118" lon="6.77633">
        <ele>343</ele>
        <time>2015-11-11T09:53:00.000Z</time>
      </trkpt>
      <trkpt lat="47.41183" lon="6.77637">
        <ele>343</ele>
        <time>2015-11-11T09:53:01.000Z</time>
      </trkpt>
      <trkpt lat="47.41186" lon="6.77642">
        <ele>343</ele>
        <time>2015-11-11T09:53:02.000Z</time>
      </trkpt>
      <trkpt lat="47.4119" lon="6.77646">
        <ele>343</ele>
        <time>2015-11-11T09:53:03.000Z</time>
      </trkpt>
      <trkpt lat="47.41194" lon="6.7765">
        <ele>343</ele>
        <time>2015-11-11T09:53:04.000Z</time>
      </trkpt>
      <trkpt lat="47.41198" lon="6.77654">
        <ele>343</ele>
        <time>2015-11-11T09:53:05.000Z</time>
      </trkpt>
      <trkpt lat="47.41202" lon="6.77659">
        <ele>343</ele>
        <time>2015-11-11T09:53:06.000Z</time>
      </trkpt>
      <trkpt lat="47.41206" lon="6.77663">
        <ele>343</ele>
        <time>2015-11-11T09:53:07.000Z</time>
      </trkpt>
      <trkpt lat="47.4121" lon="6.77668">
        <ele>342</ele>
        <time>2015-11-11T09:53:08.000Z</time>
      </trkpt>
      <trkpt lat="47.41213" lon="6.77673">
        <ele>342</ele>
        <time>2015-11-11T09:53:09.000Z</time>
      </trkpt>
      <trkpt lat="47.41217" lon="6.77678">
        <ele>342</ele>
        <time>2015-11-11T09:53:10.000Z</time>
      </trkpt>
      <trkpt lat="47.4122" lon="6.77682">
        <ele>342</ele>
        <time>2015-11-11T09:53:11.000Z</time>
      </trkpt>
      <trkpt lat="47.41224" lon="6.77685">
        <ele>342</ele>
        <time>2015-11-11T09:53:12.000Z</time>
      </trkpt>
      <trkpt lat="47.41228" lon="6.77691">
        <ele>342</ele>
        <time>2015-11-11T09:53:13.000Z</time>
      </trkpt>
      <trkpt lat="47.41231" lon="6.77696">
        <ele>342</ele>
        <time>2015-11-11T09:53:14.000Z</time>
      </trkpt>
      <trkpt lat="47.41235" lon="6.777">
        <ele>342</ele>
        <time>2015-11-11T09:53:15.000Z</time>
      </trkpt>
      <trkpt lat="47.41239" lon="6.77705">
        <ele>342</ele>
        <time>2015-11-11T09:53:16.000Z</time>
      </trkpt>
      <trkpt lat="47.41243" lon="6.77709">
        <ele>342</ele>
        <time>2015-11-11T09:53:17.000Z</time>
      </trkpt>
      <trkpt lat="47.41246" lon="6.77715">
        <ele>342</ele>
        <time>2015-11-11T09:53:18.000Z</time>
      </trkpt>
      <trkpt lat="47.4125" lon="6.7772">
        <ele>342</ele>
        <time>2015-11-11T09:53:19.000Z</time>
      </trkpt>
      <trkpt lat="47.41254" lon="6.77725">
        <ele>342</ele>
        <time>2015-11-11T09:53:20.000Z</time>
      </trkpt>
      <trkpt lat="47.41259" lon="6.7773">
        <ele>342</ele>
        <time>2015-11-11T09:53:21.000Z</time>
      </trkpt>
      <trkpt lat="47.41262" lon="6.77735">
        <ele>342</ele>
        <time>2015-11-11T09:53:22.000Z</time>
      </trkpt>
      <trkpt lat="47.41266" lon="6.77742">
        <ele>342</ele>
        <time>2015-11-11T09:53:23.000Z</time>
      </trkpt>
      <trkpt lat="47.41269" lon="6.77748">
        <ele>342</ele>
        <time>2015-11-11T09:53:24.000Z</time>
      </trkpt>
      <trkpt lat="47.41273" lon="6.77754">
        <ele>342</ele>
        <time>2015-11-11T09:53:25.000Z</time>
      </trkpt>
      <trkpt lat="47.41276" lon="6.77758">
        <ele>342</ele>
        <time>2015-11-11T09:53:26.000Z</time>
      </trkpt>
      <trkpt lat="47.4128" lon="6.77763">
        <ele>342</ele>
        <time>2015-11-11T09:53:27.000Z</time>
      </trkpt>
      <trkpt lat="47.41283" lon="6.77767">
        <ele>342</ele>
        <time>2015-11-11T09:53:28.000Z</time>
      </trkpt>
      <trkpt lat="47.41286" lon="6.77772">
        <ele>342</ele>
        <time>2015-11-11T09:53:29.000Z</time>
      </trkpt>
      <trkpt lat="47.41289" lon="6.77777">
        <ele>342</ele>
        <time>2015-11-11T09:53:30.000Z</time>
      </trkpt>
      <trkpt lat="47.41291" lon="6.77782">
        <ele>342</ele>
        <time>2015-11-11T09:53:31.000Z</time>
      </trkpt>
      <trkpt lat="47.41295" lon="6.77788">
        <ele>343</ele>
        <time>2015-11-11T09:53:32.000Z</time>
      </trkpt>
      <trkpt lat="47.41296" lon="6.77796">
        <ele>343</ele>
        <time>2015-11-11T09:53:33.000Z</time>
      </trkpt>
      <trkpt lat="47.413" lon="6.77803">
        <ele>343</ele>
        <time>2015-11-11T09:53:34.000Z</time>
      </trkpt>
      <trkpt lat="47.41303" lon="6.77809">
        <ele>343</ele>
        <time>2015-11-11T09:53:35.000Z</time>
      </trkpt>
      <trkpt lat="47.41306" lon="6.77817">
        <ele>343</ele>
        <time>2015-11-11T09:53:36.000Z</time>
      </trkpt>
      <trkpt lat="47.41309" lon="6.77824">
        <ele>343</ele>
        <time>2015-11-11T09:53:37.000Z</time>
      </trkpt>
      <trkpt lat="47.41312" lon="6.7783">
        <ele>343</ele>
        <time>2015-11-11T09:53:38.000Z</time>
      </trkpt>
      <trkpt lat="47.41314" lon="6.77837">
        <ele>343</ele>
        <time>2015-11-11T09:53:39.000Z</time>
      </trkpt>
      <trkpt lat="47.41317" lon="6.77843">
        <ele>343</ele>
        <time>2015-11-11T09:53:40.000Z</time>
      </trkpt>
      <trkpt lat="47.41318" lon="6.7785">
        <ele>343</ele>
        <time>2015-11-11T09:53:41.000Z</time>
      </trkpt>
      <trkpt lat="47.41321" lon="6.77857">
        <ele>343</ele>
        <time>2015-11-11T09:53:42.000Z</time>
      </trkpt>
      <trkpt lat="47.41324" lon="6.77863">
        <ele>343</ele>
        <time>2015-11-11T09:53:43.000Z</time>
      </trkpt>
      <trkpt lat="47.41327" lon="6.77871">
        <ele>343</ele>
        <time>2015-11-11T09:53:44.000Z</time>
      </trkpt>
      <trkpt lat="47.4133" lon="6.77875">
        <ele>343</ele>
        <time>2015-11-11T09:53:45.000Z</time>
      </trkpt>
      <trkpt lat="47.41332" lon="6.7788">
        <ele>342</ele>
        <time>2015-11-11T09:53:46.000Z</time>
      </trkpt>
      <trkpt lat="47.41335" lon="6.77885">
        <ele>342</ele>
        <time>2015-11-11T09:53:47.000Z</time>
      </trkpt>
      <trkpt lat="47.41338" lon="6.7789">
        <ele>342</ele>
        <time>2015-11-11T09:53:48.000Z</time>
      </trkpt>
      <trkpt lat="47.4134" lon="6.77896">
        <ele>342</ele>
        <time>2015-11-11T09:53:49.000Z</time>
      </trkpt>
      <trkpt lat="47.41342" lon="6.77901">
        <ele>342</ele>
        <time>2015-11-11T09:53:50.000Z</time>
      </trkpt>
      <trkpt lat="47.41345" lon="6.77906">
        <ele>342</ele>
        <time>2015-11-11T09:53:51.000Z</time>
      </trkpt>
      <trkpt lat="47.41346" lon="6.7791">
        <ele>342</ele>
        <time>2015-11-11T09:53:52.000Z</time>
      </trkpt>
      <trkpt lat="47.41351" lon="6.77911">
        <ele>342</ele>
        <time>2015-11-11T09:53:53.000Z</time>
      </trkpt>
      <trkpt lat="47.41356" lon="6.77911">
        <ele>342</ele>
        <time>2015-11-11T09:53:54.000Z</time>
      </trkpt>
      <trkpt lat="47.4136" lon="6.77907">
        <ele>342</ele>
        <time>2015-11-11T09:53:55.000Z</time>
      </trkpt>
      <trkpt lat="47.41365" lon="6.77904">
        <ele>342</ele>
        <time>2015-11-11T09:53:56.000Z</time>
      </trkpt>
      <trkpt lat="47.41369" lon="6.77898">
        <ele>342</ele>
        <time>2015-11-11T09:53:57.000Z</time>
      </trkpt>
      <trkpt lat="47.41372" lon="6.77892">
        <ele>342</ele>
        <time>2015-11-11T09:53:58.000Z</time>
      </trkpt>
      <trkpt lat="47.41377" lon="6.77886">
        <ele>342</ele>
        <time>2015-11-11T09:53:59.000Z</time>
      </trkpt>
      <trkpt lat="47.41378" lon="6.77882">
        <ele>342</ele>
        <time>2015-11-11T09:54:00.000Z</time>
      </trkpt>
      <trkpt lat="47.4138" lon="6.77875">
        <ele>342</ele>
        <time>2015-11-11T09:54:01.000Z</time>
      </trkpt>
      <trkpt lat="47.41382" lon="6.77868">
        <ele>343</ele>
        <time>2015-11-11T09:54:02.000Z</time>
      </trkpt>
      <trkpt lat="47.41384" lon="6.7786">
        <ele>343</ele>
        <time>2015-11-11T09:54:03.000Z</time>
      </trkpt>
      <trkpt lat="47.41386" lon="6.77851">
        <ele>343</ele>
        <time>2015-11-11T09:54:04.000Z</time>
      </trkpt>
      <trkpt lat="47.41389" lon="6.77846">
        <ele>343</ele>
        <time>2015-11-11T09:54:05.000Z</time>
      </trkpt>
      <trkpt lat="47.41392" lon="6.77838">
        <ele>343</ele>
        <time>2015-11-11T09:54:06.000Z</time>
      </trkpt>
      <trkpt lat="47.41394" lon="6.77832">
        <ele>343</ele>
        <time>2015-11-11T09:54:07.000Z</time>
      </trkpt>
      <trkpt lat="47.41397" lon="6.77826">
        <ele>343</ele>
        <time>2015-11-11T09:54:08.000Z</time>
      </trkpt>
      <trkpt lat="47.414" lon="6.77821">
        <ele>343</ele>
        <time>2015-11-11T09:54:09.000Z</time>
      </trkpt>
      <trkpt lat="47.41403" lon="6.77817">
        <ele>343</ele>
        <time>2015-11-11T09:54:10.000Z</time>
      </trkpt>
      <trkpt lat="47.41406" lon="6.7781">
        <ele>343</ele>
        <time>2015-11-11T09:54:11.000Z</time>
      </trkpt>
      <trkpt lat="47.41408" lon="6.77803">
        <ele>343</ele>
        <time>2015-11-11T09:54:12.000Z</time>
      </trkpt>
      <trkpt lat="47.41411" lon="6.77795">
        <ele>343</ele>
        <time>2015-11-11T09:54:13.000Z</time>
      </trkpt>
      <trkpt lat="47.41414" lon="6.77789">
        <ele>343</ele>
        <time>2015-11-11T09:54:14.000Z</time>
      </trkpt>
      <trkpt lat="47.41416" lon="6.77781">
        <ele>343</ele>
        <time>2015-11-11T09:54:15.000Z</time>
      </trkpt>
      <trkpt lat="47.41419" lon="6.77777">
        <ele>343</ele>
        <time>2015-11-11T09:54:16.000Z</time>
      </trkpt>
      <trkpt lat="47.41422" lon="6.77772">
        <ele>343</ele>
        <time>2015-11-11T09:54:17.000Z</time>
      </trkpt>
      <trkpt lat="47.41423" lon="6.77766">
        <ele>343</ele>
        <time>2015-11-11T09:54:18.000Z</time>
      </trkpt>
      <trkpt lat="47.41426" lon="6.77758">
        <ele>343</ele>
        <time>2015-11-11T09:54:19.000Z</time>
      </trkpt>
      <trkpt lat="47.41428" lon="6.77754">
        <ele>343</ele>
        <time>2015-11-11T09:54:20.000Z</time>
      </trkpt>
      <trkpt lat="47.41429" lon="6.77748">
        <ele>343</ele>
        <time>2015-11-11T09:54:21.000Z</time>
      </trkpt>
      <trkpt lat="47.4143" lon="6.77741">
        <ele>343</ele>
        <time>2015-11-11T09:54:22.000Z</time>
      </trkpt>
      <trkpt lat="47.41432" lon="6.77735">
        <ele>343</ele>
        <time>2015-11-11T09:54:23.000Z</time>
      </trkpt>
      <trkpt lat="47.41435" lon="6.7773">
        <ele>343</ele>
        <time>2015-11-11T09:54:24.000Z</time>
      </trkpt>
      <trkpt lat="47.41435" lon="6.77725">
        <ele>343</ele>
        <time>2015-11-11T09:54:25.000Z</time>
      </trkpt>
      <trkpt lat="47.41436" lon="6.77722">
        <ele>343</ele>
        <time>2015-11-11T09:54:26.000Z</time>
      </trkpt>
      <trkpt lat="47.41438" lon="6.77717">
        <ele>343</ele>
        <time>2015-11-11T09:54:28.000Z</time>
      </trkpt>
      <trkpt lat="47.41439" lon="6.77713">
        <ele>343</ele>
        <time>2015-11-11T09:54:29.000Z</time>
      </trkpt>
      <trkpt lat="47.41441" lon="6.77708">
        <ele>343</ele>
        <time>2015-11-11T09:54:30.000Z</time>
      </trkpt>
      <trkpt lat="47.41442" lon="6.77704">
        <ele>343</ele>
        <time>2015-11-11T09:54:31.000Z</time>
      </trkpt>
      <trkpt lat="47.41442" lon="6.77699">
        <ele>343</ele>
        <time>2015-11-11T09:54:32.000Z</time>
      </trkpt>
      <trkpt lat="47.41443" lon="6.77694">
        <ele>343</ele>
        <time>2015-11-11T09:54:33.000Z</time>
      </trkpt>
      <trkpt lat="47.41444" lon="6.77688">
        <ele>343</ele>
        <time>2015-11-11T09:54:34.000Z</time>
      </trkpt>
      <trkpt lat="47.41446" lon="6.77682">
        <ele>343</ele>
        <time>2015-11-11T09:54:35.000Z</time>
      </trkpt>
      <trkpt lat="47.41448" lon="6.77677">
        <ele>343</ele>
        <time>2015-11-11T09:54:36.000Z</time>
      </trkpt>
      <trkpt lat="47.4145" lon="6.77672">
        <ele>343</ele>
        <time>2015-11-11T09:54:37.000Z</time>
      </trkpt>
      <trkpt lat="47.41453" lon="6.77667">
        <ele>343</ele>
        <time>2015-11-11T09:54:38.000Z</time>
      </trkpt>
      <trkpt lat="47.41455" lon="6.77662">
        <ele>346</ele>
        <time>2015-11-11T09:54:39.000Z</time>
      </trkpt>
      <trkpt lat="47.41457" lon="6.77658">
        <ele>346</ele>
        <time>2015-11-11T09:54:40.000Z</time>
      </trkpt>
      <trkpt lat="47.41459" lon="6.77653">
        <ele>347</ele>
        <time>2015-11-11T09:54:41.000Z</time>
      </trkpt>
      <trkpt lat="47.4146" lon="6.77647">
        <ele>347</ele>
        <time>2015-11-11T09:54:42.000Z</time>
      </trkpt>
      <trkpt lat="47.41462" lon="6.77643">
        <ele>347</ele>
        <time>2015-11-11T09:54:43.000Z</time>
      </trkpt>
      <trkpt lat="47.41463" lon="6.77638">
        <ele>347</ele>
        <time>2015-11-11T09:54:44.000Z</time>
      </trkpt>
      <trkpt lat="47.41463" lon="6.77634">
        <ele>348</ele>
        <time>2015-11-11T09:54:45.000Z</time>
      </trkpt>
      <trkpt lat="47.41465" lon="6.77631">
        <ele>348</ele>
        <time>2015-11-11T09:54:46.000Z</time>
      </trkpt>
      <trkpt lat="47.41465" lon="6.77627">
        <ele>348</ele>
        <time>2015-11-11T09:54:47.000Z</time>
      </trkpt>
      <trkpt lat="47.41466" lon="6.77624">
        <ele>348</ele>
        <time>2015-11-11T09:54:48.000Z</time>
      </trkpt>
      <trkpt lat="47.41468" lon="6.77621">
        <ele>348</ele>
        <time>2015-11-11T09:54:49.000Z</time>
      </trkpt>
      <trkpt lat="47.41469" lon="6.77619">
        <ele>349</ele>
        <time>2015-11-11T09:54:50.000Z</time>
      </trkpt>
      <trkpt lat="47.41471" lon="6.77616">
        <ele>349</ele>
        <time>2015-11-11T09:54:51.000Z</time>
      </trkpt>
      <trkpt lat="47.41473" lon="6.77613">
        <ele>349</ele>
        <time>2015-11-11T09:54:52.000Z</time>
      </trkpt>
      <trkpt lat="47.41475" lon="6.77611">
        <ele>349</ele>
        <time>2015-11-11T09:54:53.000Z</time>
      </trkpt>
      <trkpt lat="47.41477" lon="6.77608">
        <ele>349</ele>
        <time>2015-11-11T09:54:54.000Z</time>
      </trkpt>
      <trkpt lat="47.4148" lon="6.77606">
        <ele>350</ele>
        <time>2015-11-11T09:54:55.000Z</time>
      </trkpt>
      <trkpt lat="47.41483" lon="6.77604">
        <ele>350</ele>
        <time>2015-11-11T09:54:56.000Z</time>
      </trkpt>
      <trkpt lat="47.41486" lon="6.77602">
        <ele>350</ele>
        <time>2015-11-11T09:54:57.000Z</time>
      </trkpt>
      <trkpt lat="47.41489" lon="6.776">
        <ele>351</ele>
        <time>2015-11-11T09:54:57.999Z</time>
      </trkpt>
      <trkpt lat="47.41492" lon="6.77605">
        <ele>350</ele>
        <time>2015-11-11T09:54:59.000Z</time>
      </trkpt>
      <trkpt lat="47.41495" lon="6.77607">
        <ele>350</ele>
        <time>2015-11-11T09:55:00.000Z</time>
      </trkpt>
      <trkpt lat="47.41498" lon="6.77609">
        <ele>350</ele>
        <time>2015-11-11T09:55:01.000Z</time>
      </trkpt>
      <trkpt lat="47.41502" lon="6.77612">
        <ele>351</ele>
        <time>2015-11-11T09:55:02.000Z</time>
      </trkpt>
      <trkpt lat="47.41505" lon="6.77613">
        <ele>351</ele>
        <time>2015-11-11T09:55:02.999Z</time>
      </trkpt>
      <trkpt lat="47.41513" lon="6.77608">
        <ele>351</ele>
        <time>2015-11-11T09:55:04.000Z</time>
      </trkpt>
      <trkpt lat="47.41516" lon="6.7761">
        <ele>351</ele>
        <time>2015-11-11T09:55:05.000Z</time>
      </trkpt>
      <trkpt lat="47.41519" lon="6.77611">
        <ele>351</ele>
        <time>2015-11-11T09:55:06.000Z</time>
      </trkpt>
      <trkpt lat="47.41522" lon="6.7761">
        <ele>351</ele>
        <time>2015-11-11T09:55:07.000Z</time>
      </trkpt>
      <trkpt lat="47.41526" lon="6.77607">
        <ele>351</ele>
        <time>2015-11-11T09:55:08.000Z</time>
      </trkpt>
      <trkpt lat="47.41529" lon="6.77607">
        <ele>352</ele>
        <time>2015-11-11T09:55:09.000Z</time>
      </trkpt>
      <trkpt lat="47.41538" lon="6.77606">
        <ele>352</ele>
        <time>2015-11-11T09:55:10.000Z</time>
      </trkpt>
      <trkpt lat="47.41543" lon="6.77605">
        <ele>352</ele>
        <time>2015-11-11T09:55:11.000Z</time>
      </trkpt>
      <trkpt lat="47.41548" lon="6.77606">
        <ele>352</ele>
        <time>2015-11-11T09:55:12.000Z</time>
      </trkpt>
      <trkpt lat="47.41556" lon="6.77606">
        <ele>352</ele>
        <time>2015-11-11T09:55:13.000Z</time>
      </trkpt>
      <trkpt lat="47.41561" lon="6.77609">
        <ele>352</ele>
        <time>2015-11-11T09:55:14.000Z</time>
      </trkpt>
      <trkpt lat="47.41567" lon="6.77609">
        <ele>353</ele>
        <time>2015-11-11T09:55:15.000Z</time>
      </trkpt>
      <trkpt lat="47.41571" lon="6.77612">
        <ele>352</ele>
        <time>2015-11-11T09:55:16.000Z</time>
      </trkpt>
      <trkpt lat="47.41576" lon="6.77616">
        <ele>352</ele>
        <time>2015-11-11T09:55:17.000Z</time>
      </trkpt>
      <trkpt lat="47.41581" lon="6.77617">
        <ele>352</ele>
        <time>2015-11-11T09:55:18.000Z</time>
      </trkpt>
      <trkpt lat="47.41586" lon="6.77618">
        <ele>355</ele>
        <time>2015-11-11T09:55:19.000Z</time>
      </trkpt>
      <trkpt lat="47.41591" lon="6.77621">
        <ele>355</ele>
        <time>2015-11-11T09:55:20.000Z</time>
      </trkpt>
      <trkpt lat="47.41595" lon="6.77623">
        <ele>355</ele>
        <time>2015-11-11T09:55:21.000Z</time>
      </trkpt>
      <trkpt lat="47.416" lon="6.77625">
        <ele>355</ele>
        <time>2015-11-11T09:55:22.000Z</time>
      </trkpt>
      <trkpt lat="47.41605" lon="6.77628">
        <ele>354</ele>
        <time>2015-11-11T09:55:23.000Z</time>
      </trkpt>
      <trkpt lat="47.41611" lon="6.7763">
        <ele>354</ele>
        <time>2015-11-11T09:55:24.000Z</time>
      </trkpt>
      <trkpt lat="47.41615" lon="6.77633">
        <ele>354</ele>
        <time>2015-11-11T09:55:25.000Z</time>
      </trkpt>
      <trkpt lat="47.4162" lon="6.77635">
        <ele>354</ele>
        <time>2015-11-11T09:55:26.000Z</time>
      </trkpt>
      <trkpt lat="47.41624" lon="6.77639">
        <ele>354</ele>
        <time>2015-11-11T09:55:26.999Z</time>
      </trkpt>
      <trkpt lat="47.41628" lon="6.77641">
        <ele>354</ele>
        <time>2015-11-11T09:55:28.000Z</time>
      </trkpt>
      <trkpt lat="47.41632" lon="6.77645">
        <ele>354</ele>
        <time>2015-11-11T09:55:29.000Z</time>
      </trkpt>
      <trkpt lat="47.41636" lon="6.77649">
        <ele>354</ele>
        <time>2015-11-11T09:55:30.000Z</time>
      </trkpt>
      <trkpt lat="47.41639" lon="6.77653">
        <ele>354</ele>
        <time>2015-11-11T09:55:31.000Z</time>
      </trkpt>
      <trkpt lat="47.41643" lon="6.77656">
        <ele>354</ele>
        <time>2015-11-11T09:55:32.000Z</time>
      </trkpt>
      <trkpt lat="47.41647" lon="6.77658">
        <ele>353</ele>
        <time>2015-11-11T09:55:33.000Z</time>
      </trkpt>
      <trkpt lat="47.41652" lon="6.77663">
        <ele>353</ele>
        <time>2015-11-11T09:55:34.000Z</time>
      </trkpt>
      <trkpt lat="47.41656" lon="6.77666">
        <ele>352</ele>
        <time>2015-11-11T09:55:35.000Z</time>
      </trkpt>
      <trkpt lat="47.4166" lon="6.7767">
        <ele>350</ele>
        <time>2015-11-11T09:55:36.000Z</time>
      </trkpt>
      <trkpt lat="47.41664" lon="6.77673">
        <ele>350</ele>
        <time>2015-11-11T09:55:37.000Z</time>
      </trkpt>
      <trkpt lat="47.41667" lon="6.77677">
        <ele>350</ele>
        <time>2015-11-11T09:55:38.000Z</time>
      </trkpt>
      <trkpt lat="47.41671" lon="6.7768">
        <ele>350</ele>
        <time>2015-11-11T09:55:39.000Z</time>
      </trkpt>
      <trkpt lat="47.41675" lon="6.77682">
        <ele>350</ele>
        <time>2015-11-11T09:55:40.000Z</time>
      </trkpt>
      <trkpt lat="47.41679" lon="6.77684">
        <ele>349</ele>
        <time>2015-11-11T09:55:41.000Z</time>
      </trkpt>
      <trkpt lat="47.41682" lon="6.77687">
        <ele>349</ele>
        <time>2015-11-11T09:55:41.999Z</time>
      </trkpt>
      <trkpt lat="47.41687" lon="6.77685">
        <ele>349</ele>
        <time>2015-11-11T09:55:43.000Z</time>
      </trkpt>
      <trkpt lat="47.41691" lon="6.77685">
        <ele>349</ele>
        <time>2015-11-11T09:55:44.000Z</time>
      </trkpt>
      <trkpt lat="47.41694" lon="6.77686">
        <ele>349</ele>
        <time>2015-11-11T09:55:44.999Z</time>
      </trkpt>
      <trkpt lat="47.41699" lon="6.77684">
        <ele>349</ele>
        <time>2015-11-11T09:55:46.000Z</time>
      </trkpt>
      <trkpt lat="47.41702" lon="6.77684">
        <ele>349</ele>
        <time>2015-11-11T09:55:47.000Z</time>
      </trkpt>
      <trkpt lat="47.41706" lon="6.77684">
        <ele>349</ele>
        <time>2015-11-11T09:55:48.000Z</time>
      </trkpt>
      <trkpt lat="47.41709" lon="6.77684">
        <ele>349</ele>
        <time>2015-11-11T09:55:49.000Z</time>
      </trkpt>
      <trkpt lat="47.41713" lon="6.77683">
        <ele>350</ele>
        <time>2015-11-11T09:55:50.000Z</time>
      </trkpt>
      <trkpt lat="47.41717" lon="6.77681">
        <ele>350</ele>
        <time>2015-11-11T09:55:51.000Z</time>
      </trkpt>
      <trkpt lat="47.4172" lon="6.7768">
        <ele>350</ele>
        <time>2015-11-11T09:55:52.000Z</time>
      </trkpt>
      <trkpt lat="47.41728" lon="6.77667">
        <ele>351</ele>
        <time>2015-11-11T09:55:53.000Z</time>
      </trkpt>
      <trkpt lat="47.41729" lon="6.77665">
        <ele>356</ele>
        <time>2015-11-11T09:55:54.000Z</time>
      </trkpt>
      <trkpt lat="47.41731" lon="6.77662">
        <ele>356</ele>
        <time>2015-11-11T09:55:55.000Z</time>
      </trkpt>
      <trkpt lat="47.41733" lon="6.77659">
        <ele>356</ele>
        <time>2015-11-11T09:55:56.000Z</time>
      </trkpt>
      <trkpt lat="47.41738" lon="6.77657">
        <ele>356</ele>
        <time>2015-11-11T09:55:57.000Z</time>
      </trkpt>
      <trkpt lat="47.41741" lon="6.77656">
        <ele>356</ele>
        <time>2015-11-11T09:55:58.000Z</time>
      </trkpt>
      <trkpt lat="47.41743" lon="6.77654">
        <ele>356</ele>
        <time>2015-11-11T09:55:59.000Z</time>
      </trkpt>
      <trkpt lat="47.41746" lon="6.77651">
        <ele>356</ele>
        <time>2015-11-11T09:56:00.000Z</time>
      </trkpt>
      <trkpt lat="47.41746" lon="6.77648">
        <ele>357</ele>
        <time>2015-11-11T09:56:01.000Z</time>
      </trkpt>
      <trkpt lat="47.41749" lon="6.77646">
        <ele>357</ele>
        <time>2015-11-11T09:56:02.000Z</time>
      </trkpt>
      <trkpt lat="47.41751" lon="6.77643">
        <ele>357</ele>
        <time>2015-11-11T09:56:03.000Z</time>
      </trkpt>
      <trkpt lat="47.41754" lon="6.77642">
        <ele>358</ele>
        <time>2015-11-11T09:56:04.000Z</time>
      </trkpt>
      <trkpt lat="47.41758" lon="6.7764">
        <ele>358</ele>
        <time>2015-11-11T09:56:05.000Z</time>
      </trkpt>
      <trkpt lat="47.41766" lon="6.77639">
        <ele>358</ele>
        <time>2015-11-11T09:56:06.000Z</time>
      </trkpt>
      <trkpt lat="47.4177" lon="6.77636">
        <ele>358</ele>
        <time>2015-11-11T09:56:07.000Z</time>
      </trkpt>
      <trkpt lat="47.41773" lon="6.77634">
        <ele>358</ele>
        <time>2015-11-11T09:56:08.000Z</time>
      </trkpt>
      <trkpt lat="47.41778" lon="6.77632">
        <ele>359</ele>
        <time>2015-11-11T09:56:09.000Z</time>
      </trkpt>
      <trkpt lat="47.41782" lon="6.7763">
        <ele>359</ele>
        <time>2015-11-11T09:56:10.000Z</time>
      </trkpt>
      <trkpt lat="47.41784" lon="6.7763">
        <ele>359</ele>
        <time>2015-11-11T09:56:11.000Z</time>
      </trkpt>
      <trkpt lat="47.41788" lon="6.77627">
        <ele>359</ele>
        <time>2015-11-11T09:56:14.000Z</time>
      </trkpt>
      <trkpt lat="47.41789" lon="6.77626">
        <ele>359</ele>
        <time>2015-11-11T09:56:15.000Z</time>
      </trkpt>
      <trkpt lat="47.41791" lon="6.77623">
        <ele>359</ele>
        <time>2015-11-11T09:56:18.000Z</time>
      </trkpt>
      <trkpt lat="47.41793" lon="6.77621">
        <ele>359</ele>
        <time>2015-11-11T09:56:19.000Z</time>
      </trkpt>
      <trkpt lat="47.41795" lon="6.77619">
        <ele>359</ele>
        <time>2015-11-11T09:56:20.000Z</time>
      </trkpt>
      <trkpt lat="47.41798" lon="6.77617">
        <ele>359</ele>
        <time>2015-11-11T09:56:21.000Z</time>
      </trkpt>
      <trkpt lat="47.41801" lon="6.77615">
        <ele>359</ele>
        <time>2015-11-11T09:56:22.000Z</time>
      </trkpt>
      <trkpt lat="47.4181" lon="6.7761">
        <ele>359</ele>
        <time>2015-11-11T09:56:23.000Z</time>
      </trkpt>
      <trkpt lat="47.41813" lon="6.77606">
        <ele>359</ele>
        <time>2015-11-11T09:56:24.000Z</time>
      </trkpt>
      <trkpt lat="47.41816" lon="6.77603">
        <ele>360</ele>
        <time>2015-11-11T09:56:25.000Z</time>
      </trkpt>
      <trkpt lat="47.41819" lon="6.776">
        <ele>360</ele>
        <time>2015-11-11T09:56:26.000Z</time>
      </trkpt>
      <trkpt lat="47.41822" lon="6.77596">
        <ele>360</ele>
        <time>2015-11-11T09:56:27.000Z</time>
      </trkpt>
      <trkpt lat="47.41825" lon="6.77592">
        <ele>360</ele>
        <time>2015-11-11T09:56:28.000Z</time>
      </trkpt>
      <trkpt lat="47.41827" lon="6.77589">
        <ele>360</ele>
        <time>2015-11-11T09:56:29.000Z</time>
      </trkpt>
      <trkpt lat="47.41829" lon="6.77586">
        <ele>360</ele>
        <time>2015-11-11T09:56:30.000Z</time>
      </trkpt>
      <trkpt lat="47.41831" lon="6.77582">
        <ele>361</ele>
        <time>2015-11-11T09:56:31.000Z</time>
      </trkpt>
      <trkpt lat="47.41833" lon="6.77578">
        <ele>361</ele>
        <time>2015-11-11T09:56:32.000Z</time>
      </trkpt>
      <trkpt lat="47.41835" lon="6.77575">
        <ele>362</ele>
        <time>2015-11-11T09:56:33.000Z</time>
      </trkpt>
      <trkpt lat="47.41837" lon="6.77571">
        <ele>363</ele>
        <time>2015-11-11T09:56:34.000Z</time>
      </trkpt>
      <trkpt lat="47.41839" lon="6.77567">
        <ele>364</ele>
        <time>2015-11-11T09:56:35.000Z</time>
      </trkpt>
      <trkpt lat="47.41841" lon="6.77563">
        <ele>364</ele>
        <time>2015-11-11T09:56:36.000Z</time>
      </trkpt>
      <trkpt lat="47.41842" lon="6.77559">
        <ele>365</ele>
        <time>2015-11-11T09:56:37.000Z</time>
      </trkpt>
      <trkpt lat="47.41844" lon="6.77555">
        <ele>365</ele>
        <time>2015-11-11T09:56:38.000Z</time>
      </trkpt>
      <trkpt lat="47.41846" lon="6.77551">
        <ele>365</ele>
        <time>2015-11-11T09:56:39.000Z</time>
      </trkpt>
      <trkpt lat="47.41847" lon="6.77548">
        <ele>366</ele>
        <time>2015-11-11T09:56:40.000Z</time>
      </trkpt>
      <trkpt lat="47.41848" lon="6.77545">
        <ele>366</ele>
        <time>2015-11-11T09:56:41.000Z</time>
      </trkpt>
      <trkpt lat="47.41849" lon="6.77541">
        <ele>366</ele>
        <time>2015-11-11T09:56:42.000Z</time>
      </trkpt>
      <trkpt lat="47.4185" lon="6.77537">
        <ele>366</ele>
        <time>2015-11-11T09:56:43.000Z</time>
      </trkpt>
      <trkpt lat="47.41851" lon="6.77533">
        <ele>366</ele>
        <time>2015-11-11T09:56:44.000Z</time>
      </trkpt>
      <trkpt lat="47.41851" lon="6.77528">
        <ele>366</ele>
        <time>2015-11-11T09:56:45.000Z</time>
      </trkpt>
      <trkpt lat="47.41852" lon="6.77524">
        <ele>366</ele>
        <time>2015-11-11T09:56:46.000Z</time>
      </trkpt>
      <trkpt lat="47.41853" lon="6.77519">
        <ele>366</ele>
        <time>2015-11-11T09:56:47.000Z</time>
      </trkpt>
      <trkpt lat="47.41855" lon="6.77515">
        <ele>366</ele>
        <time>2015-11-11T09:56:48.000Z</time>
      </trkpt>
      <trkpt lat="47.41856" lon="6.77511">
        <ele>366</ele>
        <time>2015-11-11T09:56:49.000Z</time>
      </trkpt>
      <trkpt lat="47.41857" lon="6.77507">
        <ele>366</ele>
        <time>2015-11-11T09:56:50.000Z</time>
      </trkpt>
      <trkpt lat="47.41858" lon="6.77504">
        <ele>366</ele>
        <time>2015-11-11T09:56:51.000Z</time>
      </trkpt>
      <trkpt lat="47.4186" lon="6.775">
        <ele>366</ele>
        <time>2015-11-11T09:56:52.000Z</time>
      </trkpt>
      <trkpt lat="47.41861" lon="6.77497">
        <ele>369</ele>
        <time>2015-11-11T09:56:53.000Z</time>
      </trkpt>
      <trkpt lat="47.41862" lon="6.77492">
        <ele>369</ele>
        <time>2015-11-11T09:56:54.000Z</time>
      </trkpt>
      <trkpt lat="47.41863" lon="6.77487">
        <ele>369</ele>
        <time>2015-11-11T09:56:55.000Z</time>
      </trkpt>
      <trkpt lat="47.41863" lon="6.77483">
        <ele>369</ele>
        <time>2015-11-11T09:56:56.000Z</time>
      </trkpt>
      <trkpt lat="47.41864" lon="6.77478">
        <ele>370</ele>
        <time>2015-11-11T09:56:57.000Z</time>
      </trkpt>
      <trkpt lat="47.41864" lon="6.77473">
        <ele>370</ele>
        <time>2015-11-11T09:56:58.000Z</time>
      </trkpt>
      <trkpt lat="47.41865" lon="6.77467">
        <ele>370</ele>
        <time>2015-11-11T09:56:59.000Z</time>
      </trkpt>
      <trkpt lat="47.41866" lon="6.77461">
        <ele>370</ele>
        <time>2015-11-11T09:57:00.000Z</time>
      </trkpt>
      <trkpt lat="47.41866" lon="6.77455">
        <ele>371</ele>
        <time>2015-11-11T09:57:01.000Z</time>
      </trkpt>
      <trkpt lat="47.41866" lon="6.77448">
        <ele>371</ele>
        <time>2015-11-11T09:57:02.000Z</time>
      </trkpt>
      <trkpt lat="47.41867" lon="6.77442">
        <ele>371</ele>
        <time>2015-11-11T09:57:02.998Z</time>
      </trkpt>
      <trkpt lat="47.41866" lon="6.77434">
        <ele>371</ele>
        <time>2015-11-11T09:57:04.000Z</time>
      </trkpt>
      <trkpt lat="47.41866" lon="6.77427">
        <ele>371</ele>
        <time>2015-11-11T09:57:05.000Z</time>
      </trkpt>
      <trkpt lat="47.41865" lon="6.77421">
        <ele>371</ele>
        <time>2015-11-11T09:57:06.000Z</time>
      </trkpt>
      <trkpt lat="47.41864" lon="6.77415">
        <ele>375</ele>
        <time>2015-11-11T09:57:07.000Z</time>
      </trkpt>
      <trkpt lat="47.41864" lon="6.77409">
        <ele>375</ele>
        <time>2015-11-11T09:57:08.000Z</time>
      </trkpt>
      <trkpt lat="47.41862" lon="6.77406">
        <ele>375</ele>
        <time>2015-11-11T09:57:09.000Z</time>
      </trkpt>
      <trkpt lat="47.4186" lon="6.77402">
        <ele>375</ele>
        <time>2015-11-11T09:57:10.000Z</time>
      </trkpt>
      <trkpt lat="47.41858" lon="6.77399">
        <ele>375</ele>
        <time>2015-11-11T09:57:11.000Z</time>
      </trkpt>
      <trkpt lat="47.41856" lon="6.77397">
        <ele>375</ele>
        <time>2015-11-11T09:57:12.000Z</time>
      </trkpt>
      <trkpt lat="47.41856" lon="6.77393">
        <ele>375</ele>
        <time>2015-11-11T09:57:13.000Z</time>
      </trkpt>
      <trkpt lat="47.41856" lon="6.77388">
        <ele>376</ele>
        <time>2015-11-11T09:57:14.000Z</time>
      </trkpt>
      <trkpt lat="47.41856" lon="6.77383">
        <ele>376</ele>
        <time>2015-11-11T09:57:15.000Z</time>
      </trkpt>
      <trkpt lat="47.41856" lon="6.77377">
        <ele>376</ele>
        <time>2015-11-11T09:57:16.000Z</time>
      </trkpt>
      <trkpt lat="47.41856" lon="6.77371">
        <ele>377</ele>
        <time>2015-11-11T09:57:17.000Z</time>
      </trkpt>
      <trkpt lat="47.41856" lon="6.77364">
        <ele>377</ele>
        <time>2015-11-11T09:57:18.000Z</time>
      </trkpt>
      <trkpt lat="47.41856" lon="6.77359">
        <ele>377</ele>
        <time>2015-11-11T09:57:19.000Z</time>
      </trkpt>
      <trkpt lat="47.41855" lon="6.77351">
        <ele>377</ele>
        <time>2015-11-11T09:57:20.001Z</time>
      </trkpt>
      <trkpt lat="47.41855" lon="6.77342">
        <ele>378</ele>
        <time>2015-11-11T09:57:21.000Z</time>
      </trkpt>
      <trkpt lat="47.41855" lon="6.77324">
        <ele>380</ele>
        <time>2015-11-11T09:57:22.000Z</time>
      </trkpt>
      <trkpt lat="47.41856" lon="6.77318">
        <ele>380</ele>
        <time>2015-11-11T09:57:23.000Z</time>
      </trkpt>
      <trkpt lat="47.41856" lon="6.77313">
        <ele>380</ele>
        <time>2015-11-11T09:57:24.000Z</time>
      </trkpt>
      <trkpt lat="47.41858" lon="6.77308">
        <ele>381</ele>
        <time>2015-11-11T09:57:25.000Z</time>
      </trkpt>
      <trkpt lat="47.41861" lon="6.77304">
        <ele>381</ele>
        <time>2015-11-11T09:57:26.000Z</time>
      </trkpt>
      <trkpt lat="47.41862" lon="6.77299">
        <ele>381</ele>
        <time>2015-11-11T09:57:27.000Z</time>
      </trkpt>
      <trkpt lat="47.41863" lon="6.77296">
        <ele>381</ele>
        <time>2015-11-11T09:57:28.000Z</time>
      </trkpt>
      <trkpt lat="47.41865" lon="6.77291">
        <ele>381</ele>
        <time>2015-11-11T09:57:29.000Z</time>
      </trkpt>
      <trkpt lat="47.41869" lon="6.77285">
        <ele>381</ele>
        <time>2015-11-11T09:57:30.000Z</time>
      </trkpt>
      <trkpt lat="47.41869" lon="6.77278">
        <ele>381</ele>
        <time>2015-11-11T09:57:31.000Z</time>
      </trkpt>
      <trkpt lat="47.41869" lon="6.77273">
        <ele>381</ele>
        <time>2015-11-11T09:57:32.000Z</time>
      </trkpt>
      <trkpt lat="47.41869" lon="6.77267">
        <ele>381</ele>
        <time>2015-11-11T09:57:33.000Z</time>
      </trkpt>
      <trkpt lat="47.41866" lon="6.77259">
        <ele>381</ele>
        <time>2015-11-11T09:57:34.000Z</time>
      </trkpt>
      <trkpt lat="47.41865" lon="6.77253">
        <ele>381</ele>
        <time>2015-11-11T09:57:35.000Z</time>
      </trkpt>
      <trkpt lat="47.41865" lon="6.77247">
        <ele>383</ele>
        <time>2015-11-11T09:57:36.000Z</time>
      </trkpt>
      <trkpt lat="47.41866" lon="6.77242">
        <ele>384</ele>
        <time>2015-11-11T09:57:37.000Z</time>
      </trkpt>
      <trkpt lat="47.41866" lon="6.77235">
        <ele>384</ele>
        <time>2015-11-11T09:57:38.000Z</time>
      </trkpt>
      <trkpt lat="47.41868" lon="6.7723">
        <ele>384</ele>
        <time>2015-11-11T09:57:39.000Z</time>
      </trkpt>
      <trkpt lat="47.41869" lon="6.77225">
        <ele>384</ele>
        <time>2015-11-11T09:57:40.000Z</time>
      </trkpt>
      <trkpt lat="47.41869" lon="6.77221">
        <ele>384</ele>
        <time>2015-11-11T09:57:41.000Z</time>
      </trkpt>
      <trkpt lat="47.4187" lon="6.77217">
        <ele>384</ele>
        <time>2015-11-11T09:57:42.000Z</time>
      </trkpt>
      <trkpt lat="47.41871" lon="6.77213">
        <ele>385</ele>
        <time>2015-11-11T09:57:43.000Z</time>
      </trkpt>
      <trkpt lat="47.41871" lon="6.77209">
        <ele>385</ele>
        <time>2015-11-11T09:57:44.000Z</time>
      </trkpt>
      <trkpt lat="47.41872" lon="6.77205">
        <ele>385</ele>
        <time>2015-11-11T09:57:45.000Z</time>
      </trkpt>
      <trkpt lat="47.41872" lon="6.77202">
        <ele>385</ele>
        <time>2015-11-11T09:57:46.000Z</time>
      </trkpt>
      <trkpt lat="47.41873" lon="6.77197">
        <ele>385</ele>
        <time>2015-11-11T09:57:48.000Z</time>
      </trkpt>
      <trkpt lat="47.41874" lon="6.77195">
        <ele>385</ele>
        <time>2015-11-11T09:57:49.000Z</time>
      </trkpt>
      <trkpt lat="47.41875" lon="6.77193">
        <ele>385</ele>
        <time>2015-11-11T09:57:50.001Z</time>
      </trkpt>
      <trkpt lat="47.41877" lon="6.77189">
        <ele>385</ele>
        <time>2015-11-11T09:57:51.000Z</time>
      </trkpt>
      <trkpt lat="47.41877" lon="6.77186">
        <ele>385</ele>
        <time>2015-11-11T09:57:52.000Z</time>
      </trkpt>
      <trkpt lat="47.41879" lon="6.77182">
        <ele>386</ele>
        <time>2015-11-11T09:57:53.000Z</time>
      </trkpt>
      <trkpt lat="47.41881" lon="6.77177">
        <ele>386</ele>
        <time>2015-11-11T09:57:54.000Z</time>
      </trkpt>
      <trkpt lat="47.41884" lon="6.77172">
        <ele>386</ele>
        <time>2015-11-11T09:57:55.000Z</time>
      </trkpt>
      <trkpt lat="47.41887" lon="6.77169">
        <ele>386</ele>
        <time>2015-11-11T09:57:56.000Z</time>
      </trkpt>
      <trkpt lat="47.4189" lon="6.77166">
        <ele>388</ele>
        <time>2015-11-11T09:57:57.000Z</time>
      </trkpt>
      <trkpt lat="47.41893" lon="6.77163">
        <ele>388</ele>
        <time>2015-11-11T09:57:58.000Z</time>
      </trkpt>
      <trkpt lat="47.41894" lon="6.7716">
        <ele>388</ele>
        <time>2015-11-11T09:57:59.000Z</time>
      </trkpt>
      <trkpt lat="47.41896" lon="6.77158">
        <ele>388</ele>
        <time>2015-11-11T09:58:00.000Z</time>
      </trkpt>
      <trkpt lat="47.41897" lon="6.77153">
        <ele>388</ele>
        <time>2015-11-11T09:58:01.000Z</time>
      </trkpt>
      <trkpt lat="47.41899" lon="6.77147">
        <ele>388</ele>
        <time>2015-11-11T09:58:02.999Z</time>
      </trkpt>
      <trkpt lat="47.419" lon="6.77144">
        <ele>388</ele>
        <time>2015-11-11T09:58:04.000Z</time>
      </trkpt>
      <trkpt lat="47.41902" lon="6.77139">
        <ele>388</ele>
        <time>2015-11-11T09:58:06.000Z</time>
      </trkpt>
      <trkpt lat="47.41903" lon="6.77134">
        <ele>387</ele>
        <time>2015-11-11T09:58:07.000Z</time>
      </trkpt>
      <trkpt lat="47.41904" lon="6.77131">
        <ele>387</ele>
        <time>2015-11-11T09:58:08.000Z</time>
      </trkpt>
      <trkpt lat="47.41905" lon="6.77125">
        <ele>387</ele>
        <time>2015-11-11T09:58:09.000Z</time>
      </trkpt>
      <trkpt lat="47.41906" lon="6.77121">
        <ele>387</ele>
        <time>2015-11-11T09:58:10.000Z</time>
      </trkpt>
      <trkpt lat="47.41907" lon="6.77116">
        <ele>387</ele>
        <time>2015-11-11T09:58:11.000Z</time>
      </trkpt>
      <trkpt lat="47.41908" lon="6.77112">
        <ele>387</ele>
        <time>2015-11-11T09:58:12.000Z</time>
      </trkpt>
      <trkpt lat="47.41909" lon="6.77108">
        <ele>387</ele>
        <time>2015-11-11T09:58:13.000Z</time>
      </trkpt>
      <trkpt lat="47.41909" lon="6.77104">
        <ele>387</ele>
        <time>2015-11-11T09:58:14.000Z</time>
      </trkpt>
      <trkpt lat="47.4191" lon="6.77101">
        <ele>387</ele>
        <time>2015-11-11T09:58:15.000Z</time>
      </trkpt>
      <trkpt lat="47.4191" lon="6.77097">
        <ele>387</ele>
        <time>2015-11-11T09:58:16.000Z</time>
      </trkpt>
      <trkpt lat="47.41911" lon="6.77093">
        <ele>387</ele>
        <time>2015-11-11T09:58:17.000Z</time>
      </trkpt>
      <trkpt lat="47.41911" lon="6.7709">
        <ele>386</ele>
        <time>2015-11-11T09:58:18.000Z</time>
      </trkpt>
      <trkpt lat="47.41912" lon="6.77086">
        <ele>386</ele>
        <time>2015-11-11T09:58:19.000Z</time>
      </trkpt>
      <trkpt lat="47.41913" lon="6.77083">
        <ele>387</ele>
        <time>2015-11-11T09:58:20.000Z</time>
      </trkpt>
      <trkpt lat="47.41914" lon="6.7708">
        <ele>387</ele>
        <time>2015-11-11T09:58:21.000Z</time>
      </trkpt>
      <trkpt lat="47.41915" lon="6.77077">
        <ele>387</ele>
        <time>2015-11-11T09:58:22.000Z</time>
      </trkpt>
      <trkpt lat="47.41916" lon="6.77073">
        <ele>387</ele>
        <time>2015-11-11T09:58:23.000Z</time>
      </trkpt>
      <trkpt lat="47.41917" lon="6.77069">
        <ele>392</ele>
        <time>2015-11-11T09:58:24.000Z</time>
      </trkpt>
      <trkpt lat="47.41918" lon="6.77065">
        <ele>394</ele>
        <time>2015-11-11T09:58:25.000Z</time>
      </trkpt>
      <trkpt lat="47.41919" lon="6.7706">
        <ele>395</ele>
        <time>2015-11-11T09:58:26.000Z</time>
      </trkpt>
      <trkpt lat="47.41921" lon="6.77056">
        <ele>395</ele>
        <time>2015-11-11T09:58:27.000Z</time>
      </trkpt>
      <trkpt lat="47.41923" lon="6.77052">
        <ele>396</ele>
        <time>2015-11-11T09:58:28.000Z</time>
      </trkpt>
      <trkpt lat="47.41926" lon="6.77048">
        <ele>397</ele>
        <time>2015-11-11T09:58:29.000Z</time>
      </trkpt>
      <trkpt lat="47.41928" lon="6.77044">
        <ele>397</ele>
        <time>2015-11-11T09:58:30.000Z</time>
      </trkpt>
      <trkpt lat="47.4193" lon="6.7704">
        <ele>398</ele>
        <time>2015-11-11T09:58:31.000Z</time>
      </trkpt>
      <trkpt lat="47.41932" lon="6.77036">
        <ele>398</ele>
        <time>2015-11-11T09:58:32.000Z</time>
      </trkpt>
      <trkpt lat="47.41933" lon="6.77031">
        <ele>398</ele>
        <time>2015-11-11T09:58:33.000Z</time>
      </trkpt>
      <trkpt lat="47.41934" lon="6.77027">
        <ele>398</ele>
        <time>2015-11-11T09:58:34.000Z</time>
      </trkpt>
      <trkpt lat="47.41935" lon="6.77023">
        <ele>398</ele>
        <time>2015-11-11T09:58:35.000Z</time>
      </trkpt>
      <trkpt lat="47.41935" lon="6.77019">
        <ele>398</ele>
        <time>2015-11-11T09:58:36.000Z</time>
      </trkpt>
      <trkpt lat="47.41936" lon="6.77015">
        <ele>398</ele>
        <time>2015-11-11T09:58:37.000Z</time>
      </trkpt>
      <trkpt lat="47.41936" lon="6.7701">
        <ele>397</ele>
        <time>2015-11-11T09:58:38.000Z</time>
      </trkpt>
      <trkpt lat="47.41936" lon="6.77005">
        <ele>397</ele>
        <time>2015-11-11T09:58:39.000Z</time>
      </trkpt>
      <trkpt lat="47.41937" lon="6.77">
        <ele>399</ele>
        <time>2015-11-11T09:58:40.000Z</time>
      </trkpt>
      <trkpt lat="47.41937" lon="6.76994">
        <ele>399</ele>
        <time>2015-11-11T09:58:41.000Z</time>
      </trkpt>
      <trkpt lat="47.41938" lon="6.76987">
        <ele>400</ele>
        <time>2015-11-11T09:58:42.000Z</time>
      </trkpt>
      <trkpt lat="47.41939" lon="6.76981">
        <ele>401</ele>
        <time>2015-11-11T09:58:43.000Z</time>
      </trkpt>
      <trkpt lat="47.41939" lon="6.76974">
        <ele>401</ele>
        <time>2015-11-11T09:58:44.000Z</time>
      </trkpt>
      <trkpt lat="47.41938" lon="6.76968">
        <ele>401</ele>
        <time>2015-11-11T09:58:45.000Z</time>
      </trkpt>
      <trkpt lat="47.41938" lon="6.76962">
        <ele>401</ele>
        <time>2015-11-11T09:58:46.000Z</time>
      </trkpt>
      <trkpt lat="47.41937" lon="6.76956">
        <ele>401</ele>
        <time>2015-11-11T09:58:47.000Z</time>
      </trkpt>
      <trkpt lat="47.41936" lon="6.7695">
        <ele>401</ele>
        <time>2015-11-11T09:58:48.000Z</time>
      </trkpt>
      <trkpt lat="47.41936" lon="6.76944">
        <ele>400</ele>
        <time>2015-11-11T09:58:49.000Z</time>
      </trkpt>
      <trkpt lat="47.41937" lon="6.7694">
        <ele>400</ele>
        <time>2015-11-11T09:58:50.000Z</time>
      </trkpt>
      <trkpt lat="47.41937" lon="6.76935">
        <ele>400</ele>
        <time>2015-11-11T09:58:51.000Z</time>
      </trkpt>
      <trkpt lat="47.41938" lon="6.76931">
        <ele>399</ele>
        <time>2015-11-11T09:58:52.000Z</time>
      </trkpt>
      <trkpt lat="47.41939" lon="6.76927">
        <ele>399</ele>
        <time>2015-11-11T09:58:53.000Z</time>
      </trkpt>
      <trkpt lat="47.4194" lon="6.76923">
        <ele>399</ele>
        <time>2015-11-11T09:58:54.000Z</time>
      </trkpt>
      <trkpt lat="47.41941" lon="6.7692">
        <ele>400</ele>
        <time>2015-11-11T09:58:55.000Z</time>
      </trkpt>
      <trkpt lat="47.41943" lon="6.76915">
        <ele>397</ele>
        <time>2015-11-11T09:58:57.002Z</time>
      </trkpt>
      <trkpt lat="47.41944" lon="6.76912">
        <ele>397</ele>
        <time>2015-11-11T09:58:58.000Z</time>
      </trkpt>
      <trkpt lat="47.41945" lon="6.76908">
        <ele>398</ele>
        <time>2015-11-11T09:58:59.000Z</time>
      </trkpt>
      <trkpt lat="47.41947" lon="6.76905">
        <ele>398</ele>
        <time>2015-11-11T09:59:00.000Z</time>
      </trkpt>
      <trkpt lat="47.41948" lon="6.76901">
        <ele>398</ele>
        <time>2015-11-11T09:59:01.000Z</time>
      </trkpt>
      <trkpt lat="47.41949" lon="6.76896">
        <ele>398</ele>
        <time>2015-11-11T09:59:02.000Z</time>
      </trkpt>
      <trkpt lat="47.41949" lon="6.76891">
        <ele>398</ele>
        <time>2015-11-11T09:59:03.000Z</time>
      </trkpt>
      <trkpt lat="47.41949" lon="6.76886">
        <ele>398</ele>
        <time>2015-11-11T09:59:04.000Z</time>
      </trkpt>
      <trkpt lat="47.4195" lon="6.7688">
        <ele>398</ele>
        <time>2015-11-11T09:59:05.000Z</time>
      </trkpt>
      <trkpt lat="47.4195" lon="6.76876">
        <ele>398</ele>
        <time>2015-11-11T09:59:06.000Z</time>
      </trkpt>
      <trkpt lat="47.41951" lon="6.7687">
        <ele>398</ele>
        <time>2015-11-11T09:59:07.000Z</time>
      </trkpt>
      <trkpt lat="47.41953" lon="6.76866">
        <ele>398</ele>
        <time>2015-11-11T09:59:08.000Z</time>
      </trkpt>
      <trkpt lat="47.41954" lon="6.76862">
        <ele>398</ele>
        <time>2015-11-11T09:59:09.000Z</time>
      </trkpt>
      <trkpt lat="47.41955" lon="6.76857">
        <ele>398</ele>
        <time>2015-11-11T09:59:10.000Z</time>
      </trkpt>
      <trkpt lat="47.41956" lon="6.76852">
        <ele>398</ele>
        <time>2015-11-11T09:59:11.000Z</time>
      </trkpt>
      <trkpt lat="47.41957" lon="6.76847">
        <ele>398</ele>
        <time>2015-11-11T09:59:12.000Z</time>
      </trkpt>
      <trkpt lat="47.41957" lon="6.76842">
        <ele>397</ele>
        <time>2015-11-11T09:59:13.000Z</time>
      </trkpt>
      <trkpt lat="47.41957" lon="6.76838">
        <ele>397</ele>
        <time>2015-11-11T09:59:14.000Z</time>
      </trkpt>
      <trkpt lat="47.41958" lon="6.76834">
        <ele>397</ele>
        <time>2015-11-11T09:59:15.000Z</time>
      </trkpt>
      <trkpt lat="47.41959" lon="6.7683">
        <ele>394</ele>
        <time>2015-11-11T09:59:16.000Z</time>
      </trkpt>
      <trkpt lat="47.4196" lon="6.76827">
        <ele>394</ele>
        <time>2015-11-11T09:59:17.001Z</time>
      </trkpt>
      <trkpt lat="47.4196" lon="6.76822">
        <ele>394</ele>
        <time>2015-11-11T09:59:18.000Z</time>
      </trkpt>
      <trkpt lat="47.4196" lon="6.76819">
        <ele>394</ele>
        <time>2015-11-11T09:59:19.000Z</time>
      </trkpt>
      <trkpt lat="47.4196" lon="6.76815">
        <ele>394</ele>
        <time>2015-11-11T09:59:20.000Z</time>
      </trkpt>
      <trkpt lat="47.41959" lon="6.76811">
        <ele>394</ele>
        <time>2015-11-11T09:59:21.000Z</time>
      </trkpt>
      <trkpt lat="47.41959" lon="6.76806">
        <ele>394</ele>
        <time>2015-11-11T09:59:22.000Z</time>
      </trkpt>
      <trkpt lat="47.41959" lon="6.76802">
        <ele>393</ele>
        <time>2015-11-11T09:59:23.000Z</time>
      </trkpt>
      <trkpt lat="47.41958" lon="6.76797">
        <ele>393</ele>
        <time>2015-11-11T09:59:24.000Z</time>
      </trkpt>
      <trkpt lat="47.41957" lon="6.76792">
        <ele>393</ele>
        <time>2015-11-11T09:59:25.000Z</time>
      </trkpt>
      <trkpt lat="47.41956" lon="6.76786">
        <ele>393</ele>
        <time>2015-11-11T09:59:26.000Z</time>
      </trkpt>
      <trkpt lat="47.41956" lon="6.7678">
        <ele>393</ele>
        <time>2015-11-11T09:59:27.000Z</time>
      </trkpt>
      <trkpt lat="47.41955" lon="6.76775">
        <ele>393</ele>
        <time>2015-11-11T09:59:28.000Z</time>
      </trkpt>
      <trkpt lat="47.41955" lon="6.7677">
        <ele>393</ele>
        <time>2015-11-11T09:59:29.000Z</time>
      </trkpt>
      <trkpt lat="47.41955" lon="6.76765">
        <ele>392</ele>
        <time>2015-11-11T09:59:30.000Z</time>
      </trkpt>
      <trkpt lat="47.41955" lon="6.76761">
        <ele>392</ele>
        <time>2015-11-11T09:59:31.000Z</time>
      </trkpt>
      <trkpt lat="47.41954" lon="6.76757">
        <ele>392</ele>
        <time>2015-11-11T09:59:32.000Z</time>
      </trkpt>
      <trkpt lat="47.41954" lon="6.76753">
        <ele>392</ele>
        <time>2015-11-11T09:59:33.000Z</time>
      </trkpt>
      <trkpt lat="47.41955" lon="6.76749">
        <ele>392</ele>
        <time>2015-11-11T09:59:34.000Z</time>
      </trkpt>
      <trkpt lat="47.41955" lon="6.76744">
        <ele>392</ele>
        <time>2015-11-11T09:59:35.000Z</time>
      </trkpt>
      <trkpt lat="47.41955" lon="6.76741">
        <ele>392</ele>
        <time>2015-11-11T09:59:35.999Z</time>
      </trkpt>
      <trkpt lat="47.41954" lon="6.76735">
        <ele>392</ele>
        <time>2015-11-11T09:59:37.000Z</time>
      </trkpt>
      <trkpt lat="47.41954" lon="6.76731">
        <ele>392</ele>
        <time>2015-11-11T09:59:37.999Z</time>
      </trkpt>
      <trkpt lat="47.41952" lon="6.76726">
        <ele>392</ele>
        <time>2015-11-11T09:59:39.000Z</time>
      </trkpt>
      <trkpt lat="47.4195" lon="6.76722">
        <ele>392</ele>
        <time>2015-11-11T09:59:40.000Z</time>
      </trkpt>
      <trkpt lat="47.41949" lon="6.76718">
        <ele>392</ele>
        <time>2015-11-11T09:59:41.000Z</time>
      </trkpt>
      <trkpt lat="47.41948" lon="6.76713">
        <ele>392</ele>
        <time>2015-11-11T09:59:42.000Z</time>
      </trkpt>
      <trkpt lat="47.41947" lon="6.76708">
        <ele>392</ele>
        <time>2015-11-11T09:59:43.000Z</time>
      </trkpt>
      <trkpt lat="47.41947" lon="6.76704">
        <ele>392</ele>
        <time>2015-11-11T09:59:44.000Z</time>
      </trkpt>
      <trkpt lat="47.41946" lon="6.76699">
        <ele>392</ele>
        <time>2015-11-11T09:59:45.000Z</time>
      </trkpt>
      <trkpt lat="47.41947" lon="6.76695">
        <ele>392</ele>
        <time>2015-11-11T09:59:46.000Z</time>
      </trkpt>
      <trkpt lat="47.41947" lon="6.7669">
        <ele>392</ele>
        <time>2015-11-11T09:59:47.000Z</time>
      </trkpt>
      <trkpt lat="47.41947" lon="6.76686">
        <ele>392</ele>
        <time>2015-11-11T09:59:48.000Z</time>
      </trkpt>
      <trkpt lat="47.41947" lon="6.76681">
        <ele>392</ele>
        <time>2015-11-11T09:59:49.000Z</time>
      </trkpt>
      <trkpt lat="47.41947" lon="6.76676">
        <ele>392</ele>
        <time>2015-11-11T09:59:50.000Z</time>
      </trkpt>
      <trkpt lat="47.41948" lon="6.76672">
        <ele>392</ele>
        <time>2015-11-11T09:59:51.000Z</time>
      </trkpt>
      <trkpt lat="47.41948" lon="6.76668">
        <ele>392</ele>
        <time>2015-11-11T09:59:52.000Z</time>
      </trkpt>
      <trkpt lat="47.41949" lon="6.76662">
        <ele>395</ele>
        <time>2015-11-11T09:59:53.999Z</time>
      </trkpt>
      <trkpt lat="47.41949" lon="6.76657">
        <ele>396</ele>
        <time>2015-11-11T09:59:55.000Z</time>
      </trkpt>
      <trkpt lat="47.4195" lon="6.76653">
        <ele>396</ele>
        <time>2015-11-11T09:59:56.000Z</time>
      </trkpt>
      <trkpt lat="47.41951" lon="6.76648">
        <ele>396</ele>
        <time>2015-11-11T09:59:57.000Z</time>
      </trkpt>
      <trkpt lat="47.41951" lon="6.76644">
        <ele>396</ele>
        <time>2015-11-11T09:59:58.000Z</time>
      </trkpt>
      <trkpt lat="47.41952" lon="6.76639">
        <ele>397</ele>
        <time>2015-11-11T09:59:59.000Z</time>
      </trkpt>
      <trkpt lat="47.41952" lon="6.76635">
        <ele>397</ele>
        <time>2015-11-11T10:00:00.000Z</time>
      </trkpt>
      <trkpt lat="47.41951" lon="6.76631">
        <ele>397</ele>
        <time>2015-11-11T10:00:00.999Z</time>
      </trkpt>
      <trkpt lat="47.41952" lon="6.76626">
        <ele>397</ele>
        <time>2015-11-11T10:00:03.000Z</time>
      </trkpt>
      <trkpt lat="47.41953" lon="6.76622">
        <ele>397</ele>
        <time>2015-11-11T10:00:04.000Z</time>
      </trkpt>
      <trkpt lat="47.41953" lon="6.76619">
        <ele>398</ele>
        <time>2015-11-11T10:00:05.001Z</time>
      </trkpt>
      <trkpt lat="47.41954" lon="6.76614">
        <ele>398</ele>
        <time>2015-11-11T10:00:06.000Z</time>
      </trkpt>
      <trkpt lat="47.41955" lon="6.76609">
        <ele>398</ele>
        <time>2015-11-11T10:00:07.000Z</time>
      </trkpt>
      <trkpt lat="47.41955" lon="6.76605">
        <ele>398</ele>
        <time>2015-11-11T10:00:08.001Z</time>
      </trkpt>
      <trkpt lat="47.41956" lon="6.76601">
        <ele>398</ele>
        <time>2015-11-11T10:00:09.000Z</time>
      </trkpt>
      <trkpt lat="47.41955" lon="6.76598">
        <ele>399</ele>
        <time>2015-11-11T10:00:10.000Z</time>
      </trkpt>
      <trkpt lat="47.41954" lon="6.76594">
        <ele>399</ele>
        <time>2015-11-11T10:00:11.000Z</time>
      </trkpt>
      <trkpt lat="47.41954" lon="6.7659">
        <ele>399</ele>
        <time>2015-11-11T10:00:12.000Z</time>
      </trkpt>
      <trkpt lat="47.41953" lon="6.76586">
        <ele>398</ele>
        <time>2015-11-11T10:00:13.000Z</time>
      </trkpt>
      <trkpt lat="47.41952" lon="6.76581">
        <ele>403</ele>
        <time>2015-11-11T10:00:14.000Z</time>
      </trkpt>
      <trkpt lat="47.41951" lon="6.76576">
        <ele>403</ele>
        <time>2015-11-11T10:00:15.000Z</time>
      </trkpt>
      <trkpt lat="47.4195" lon="6.7657">
        <ele>403</ele>
        <time>2015-11-11T10:00:16.000Z</time>
      </trkpt>
      <trkpt lat="47.41949" lon="6.76564">
        <ele>403</ele>
        <time>2015-11-11T10:00:17.000Z</time>
      </trkpt>
      <trkpt lat="47.41948" lon="6.76558">
        <ele>403</ele>
        <time>2015-11-11T10:00:18.000Z</time>
      </trkpt>
      <trkpt lat="47.41947" lon="6.76552">
        <ele>403</ele>
        <time>2015-11-11T10:00:19.000Z</time>
      </trkpt>
      <trkpt lat="47.41946" lon="6.76545">
        <ele>403</ele>
        <time>2015-11-11T10:00:20.000Z</time>
      </trkpt>
      <trkpt lat="47.41945" lon="6.7654">
        <ele>403</ele>
        <time>2015-11-11T10:00:21.000Z</time>
      </trkpt>
      <trkpt lat="47.41945" lon="6.76536">
        <ele>403</ele>
        <time>2015-11-11T10:00:22.000Z</time>
      </trkpt>
      <trkpt lat="47.41945" lon="6.76532">
        <ele>404</ele>
        <time>2015-11-11T10:00:23.000Z</time>
      </trkpt>
      <trkpt lat="47.41945" lon="6.76529">
        <ele>404</ele>
        <time>2015-11-11T10:00:24.000Z</time>
      </trkpt>
      <trkpt lat="47.41946" lon="6.76525">
        <ele>404</ele>
        <time>2015-11-11T10:00:25.000Z</time>
      </trkpt>
      <trkpt lat="47.41946" lon="6.76522">
        <ele>404</ele>
        <time>2015-11-11T10:00:26.000Z</time>
      </trkpt>
      <trkpt lat="47.41946" lon="6.76517">
        <ele>404</ele>
        <time>2015-11-11T10:00:28.000Z</time>
      </trkpt>
      <trkpt lat="47.41946" lon="6.76514">
        <ele>404</ele>
        <time>2015-11-11T10:00:29.000Z</time>
      </trkpt>
      <trkpt lat="47.41946" lon="6.76512">
        <ele>404</ele>
        <time>2015-11-11T10:00:29.999Z</time>
      </trkpt>
      <trkpt lat="47.41948" lon="6.76506">
        <ele>404</ele>
        <time>2015-11-11T10:00:31.000Z</time>
      </trkpt>
      <trkpt lat="47.41947" lon="6.765">
        <ele>408</ele>
        <time>2015-11-11T10:00:33.000Z</time>
      </trkpt>
      <trkpt lat="47.41946" lon="6.76498">
        <ele>407</ele>
        <time>2015-11-11T10:00:34.000Z</time>
      </trkpt>
      <trkpt lat="47.41941" lon="6.76495">
        <ele>407</ele>
        <time>2015-11-11T10:00:35.000Z</time>
      </trkpt>
      <trkpt lat="47.41939" lon="6.76491">
        <ele>406</ele>
        <time>2015-11-11T10:00:36.000Z</time>
      </trkpt>
      <trkpt lat="47.41938" lon="6.76488">
        <ele>407</ele>
        <time>2015-11-11T10:00:37.000Z</time>
      </trkpt>
      <trkpt lat="47.41939" lon="6.76482">
        <ele>407</ele>
        <time>2015-11-11T10:00:39.000Z</time>
      </trkpt>
      <trkpt lat="47.41939" lon="6.7648">
        <ele>407</ele>
        <time>2015-11-11T10:00:40.000Z</time>
      </trkpt>
      <trkpt lat="47.41938" lon="6.76475">
        <ele>408</ele>
        <time>2015-11-11T10:00:42.000Z</time>
      </trkpt>
      <trkpt lat="47.41938" lon="6.76473">
        <ele>408</ele>
        <time>2015-11-11T10:00:42.999Z</time>
      </trkpt>
      <trkpt lat="47.41938" lon="6.76467">
        <ele>408</ele>
        <time>2015-11-11T10:00:44.000Z</time>
      </trkpt>
      <trkpt lat="47.41938" lon="6.76465">
        <ele>408</ele>
        <time>2015-11-11T10:00:44.999Z</time>
      </trkpt>
      <trkpt lat="47.41939" lon="6.76458">
        <ele>409</ele>
        <time>2015-11-11T10:00:46.000Z</time>
      </trkpt>
      <trkpt lat="47.41938" lon="6.76454">
        <ele>409</ele>
        <time>2015-11-11T10:00:47.000Z</time>
      </trkpt>
      <trkpt lat="47.41937" lon="6.76448">
        <ele>409</ele>
        <time>2015-11-11T10:00:48.000Z</time>
      </trkpt>
      <trkpt lat="47.41937" lon="6.76444">
        <ele>409</ele>
        <time>2015-11-11T10:00:49.001Z</time>
      </trkpt>
      <trkpt lat="47.41935" lon="6.76432">
        <ele>408</ele>
        <time>2015-11-11T10:00:50.000Z</time>
      </trkpt>
      <trkpt lat="47.41933" lon="6.76423">
        <ele>407</ele>
        <time>2015-11-11T10:00:51.000Z</time>
      </trkpt>
      <trkpt lat="47.41932" lon="6.76415">
        <ele>410</ele>
        <time>2015-11-11T10:00:52.000Z</time>
      </trkpt>
      <trkpt lat="47.4193" lon="6.76408">
        <ele>410</ele>
        <time>2015-11-11T10:00:53.000Z</time>
      </trkpt>
      <trkpt lat="47.41929" lon="6.76401">
        <ele>411</ele>
        <time>2015-11-11T10:00:54.000Z</time>
      </trkpt>
      <trkpt lat="47.41929" lon="6.76394">
        <ele>412</ele>
        <time>2015-11-11T10:00:55.000Z</time>
      </trkpt>
      <trkpt lat="47.41929" lon="6.76388">
        <ele>413</ele>
        <time>2015-11-11T10:00:56.000Z</time>
      </trkpt>
      <trkpt lat="47.41928" lon="6.76383">
        <ele>414</ele>
        <time>2015-11-11T10:00:57.000Z</time>
      </trkpt>
      <trkpt lat="47.41928" lon="6.76378">
        <ele>414</ele>
        <time>2015-11-11T10:00:58.000Z</time>
      </trkpt>
      <trkpt lat="47.41928" lon="6.76374">
        <ele>415</ele>
        <time>2015-11-11T10:00:59.000Z</time>
      </trkpt>
      <trkpt lat="47.41928" lon="6.7637">
        <ele>415</ele>
        <time>2015-11-11T10:01:00.000Z</time>
      </trkpt>
      <trkpt lat="47.41929" lon="6.76367">
        <ele>415</ele>
        <time>2015-11-11T10:01:01.000Z</time>
      </trkpt>
      <trkpt lat="47.41929" lon="6.76362">
        <ele>415</ele>
        <time>2015-11-11T10:01:03.000Z</time>
      </trkpt>
      <trkpt lat="47.41929" lon="6.7636">
        <ele>415</ele>
        <time>2015-11-11T10:01:04.000Z</time>
      </trkpt>
      <trkpt lat="47.41929" lon="6.76355">
        <ele>415</ele>
        <time>2015-11-11T10:01:06.000Z</time>
      </trkpt>
      <trkpt lat="47.41929" lon="6.76351">
        <ele>414</ele>
        <time>2015-11-11T10:01:07.000Z</time>
      </trkpt>
      <trkpt lat="47.41929" lon="6.76347">
        <ele>414</ele>
        <time>2015-11-11T10:01:08.000Z</time>
      </trkpt>
      <trkpt lat="47.4193" lon="6.76342">
        <ele>413</ele>
        <time>2015-11-11T10:01:09.000Z</time>
      </trkpt>
      <trkpt lat="47.4193" lon="6.7634">
        <ele>413</ele>
        <time>2015-11-11T10:01:10.000Z</time>
      </trkpt>
      <trkpt lat="47.4193" lon="6.76333">
        <ele>416</ele>
        <time>2015-11-11T10:01:11.000Z</time>
      </trkpt>
      <trkpt lat="47.4193" lon="6.76328">
        <ele>417</ele>
        <time>2015-11-11T10:01:12.000Z</time>
      </trkpt>
      <trkpt lat="47.4193" lon="6.76322">
        <ele>418</ele>
        <time>2015-11-11T10:01:13.000Z</time>
      </trkpt>
      <trkpt lat="47.4193" lon="6.76317">
        <ele>419</ele>
        <time>2015-11-11T10:01:14.000Z</time>
      </trkpt>
      <trkpt lat="47.4193" lon="6.76312">
        <ele>420</ele>
        <time>2015-11-11T10:01:15.000Z</time>
      </trkpt>
      <trkpt lat="47.41929" lon="6.76307">
        <ele>421</ele>
        <time>2015-11-11T10:01:16.000Z</time>
      </trkpt>
      <trkpt lat="47.41929" lon="6.76302">
        <ele>421</ele>
        <time>2015-11-11T10:01:17.000Z</time>
      </trkpt>
      <trkpt lat="47.41929" lon="6.76297">
        <ele>422</ele>
        <time>2015-11-11T10:01:18.000Z</time>
      </trkpt>
      <trkpt lat="47.41929" lon="6.76292">
        <ele>422</ele>
        <time>2015-11-11T10:01:19.000Z</time>
      </trkpt>
      <trkpt lat="47.41929" lon="6.76287">
        <ele>422</ele>
        <time>2015-11-11T10:01:20.000Z</time>
      </trkpt>
      <trkpt lat="47.41928" lon="6.76282">
        <ele>422</ele>
        <time>2015-11-11T10:01:21.000Z</time>
      </trkpt>
      <trkpt lat="47.41928" lon="6.76276">
        <ele>422</ele>
        <time>2015-11-11T10:01:22.000Z</time>
      </trkpt>
      <trkpt lat="47.41928" lon="6.7627">
        <ele>421</ele>
        <time>2015-11-11T10:01:23.000Z</time>
      </trkpt>
      <trkpt lat="47.41927" lon="6.76264">
        <ele>420</ele>
        <time>2015-11-11T10:01:24.000Z</time>
      </trkpt>
      <trkpt lat="47.41927" lon="6.76258">
        <ele>419</ele>
        <time>2015-11-11T10:01:25.000Z</time>
      </trkpt>
      <trkpt lat="47.41926" lon="6.76252">
        <ele>418</ele>
        <time>2015-11-11T10:01:26.000Z</time>
      </trkpt>
      <trkpt lat="47.41925" lon="6.76246">
        <ele>420</ele>
        <time>2015-11-11T10:01:27.000Z</time>
      </trkpt>
      <trkpt lat="47.41924" lon="6.7624">
        <ele>422</ele>
        <time>2015-11-11T10:01:28.000Z</time>
      </trkpt>
      <trkpt lat="47.41923" lon="6.76236">
        <ele>423</ele>
        <time>2015-11-11T10:01:29.000Z</time>
      </trkpt>
      <trkpt lat="47.41922" lon="6.76232">
        <ele>425</ele>
        <time>2015-11-11T10:01:30.000Z</time>
      </trkpt>
      <trkpt lat="47.41922" lon="6.76228">
        <ele>426</ele>
        <time>2015-11-11T10:01:31.000Z</time>
      </trkpt>
      <trkpt lat="47.41921" lon="6.76224">
        <ele>427</ele>
        <time>2015-11-11T10:01:32.000Z</time>
      </trkpt>
      <trkpt lat="47.41921" lon="6.7622">
        <ele>428</ele>
        <time>2015-11-11T10:01:33.000Z</time>
      </trkpt>
      <trkpt lat="47.41921" lon="6.76216">
        <ele>428</ele>
        <time>2015-11-11T10:01:34.000Z</time>
      </trkpt>
      <trkpt lat="47.41921" lon="6.76211">
        <ele>429</ele>
        <time>2015-11-11T10:01:35.000Z</time>
      </trkpt>
      <trkpt lat="47.41921" lon="6.76206">
        <ele>429</ele>
        <time>2015-11-11T10:01:36.000Z</time>
      </trkpt>
      <trkpt lat="47.41921" lon="6.76201">
        <ele>430</ele>
        <time>2015-11-11T10:01:37.000Z</time>
      </trkpt>
      <trkpt lat="47.41921" lon="6.76197">
        <ele>430</ele>
        <time>2015-11-11T10:01:38.000Z</time>
      </trkpt>
      <trkpt lat="47.41921" lon="6.76193">
        <ele>429</ele>
        <time>2015-11-11T10:01:39.000Z</time>
      </trkpt>
      <trkpt lat="47.41921" lon="6.76189">
        <ele>429</ele>
        <time>2015-11-11T10:01:40.000Z</time>
      </trkpt>
      <trkpt lat="47.41921" lon="6.76185">
        <ele>428</ele>
        <time>2015-11-11T10:01:41.000Z</time>
      </trkpt>
      <trkpt lat="47.4192" lon="6.7618">
        <ele>427</ele>
        <time>2015-11-11T10:01:42.000Z</time>
      </trkpt>
      <trkpt lat="47.4192" lon="6.76175">
        <ele>425</ele>
        <time>2015-11-11T10:01:43.000Z</time>
      </trkpt>
      <trkpt lat="47.41919" lon="6.7617">
        <ele>423</ele>
        <time>2015-11-11T10:01:44.000Z</time>
      </trkpt>
      <trkpt lat="47.41918" lon="6.76165">
        <ele>423</ele>
        <time>2015-11-11T10:01:45.000Z</time>
      </trkpt>
      <trkpt lat="47.41918" lon="6.7616">
        <ele>427</ele>
        <time>2015-11-11T10:01:46.000Z</time>
      </trkpt>
      <trkpt lat="47.41917" lon="6.76154">
        <ele>431</ele>
        <time>2015-11-11T10:01:47.000Z</time>
      </trkpt>
      <trkpt lat="47.41917" lon="6.76149">
        <ele>425</ele>
        <time>2015-11-11T10:01:48.000Z</time>
      </trkpt>
      <trkpt lat="47.41916" lon="6.76144">
        <ele>426</ele>
        <time>2015-11-11T10:01:49.000Z</time>
      </trkpt>
      <trkpt lat="47.41915" lon="6.7614">
        <ele>427</ele>
        <time>2015-11-11T10:01:50.000Z</time>
      </trkpt>
      <trkpt lat="47.41915" lon="6.76135">
        <ele>427</ele>
        <time>2015-11-11T10:01:51.001Z</time>
      </trkpt>
      <trkpt lat="47.41913" lon="6.76131">
        <ele>428</ele>
        <time>2015-11-11T10:01:52.000Z</time>
      </trkpt>
      <trkpt lat="47.41912" lon="6.76127">
        <ele>428</ele>
        <time>2015-11-11T10:01:53.000Z</time>
      </trkpt>
      <trkpt lat="47.41911" lon="6.76122">
        <ele>429</ele>
        <time>2015-11-11T10:01:54.000Z</time>
      </trkpt>
      <trkpt lat="47.41911" lon="6.76118">
        <ele>429</ele>
        <time>2015-11-11T10:01:55.000Z</time>
      </trkpt>
      <trkpt lat="47.4191" lon="6.76115">
        <ele>430</ele>
        <time>2015-11-11T10:01:56.000Z</time>
      </trkpt>
      <trkpt lat="47.4191" lon="6.76111">
        <ele>430</ele>
        <time>2015-11-11T10:01:57.000Z</time>
      </trkpt>
      <trkpt lat="47.41909" lon="6.76107">
        <ele>430</ele>
        <time>2015-11-11T10:01:58.000Z</time>
      </trkpt>
      <trkpt lat="47.41908" lon="6.76103">
        <ele>431</ele>
        <time>2015-11-11T10:01:59.000Z</time>
      </trkpt>
      <trkpt lat="47.41908" lon="6.76098">
        <ele>431</ele>
        <time>2015-11-11T10:02:00.000Z</time>
      </trkpt>
      <trkpt lat="47.41907" lon="6.76093">
        <ele>431</ele>
        <time>2015-11-11T10:02:01.000Z</time>
      </trkpt>
      <trkpt lat="47.41907" lon="6.76088">
        <ele>432</ele>
        <time>2015-11-11T10:02:02.000Z</time>
      </trkpt>
      <trkpt lat="47.41908" lon="6.76084">
        <ele>432</ele>
        <time>2015-11-11T10:02:03.000Z</time>
      </trkpt>
      <trkpt lat="47.41911" lon="6.7608">
        <ele>434</ele>
        <time>2015-11-11T10:02:05.000Z</time>
      </trkpt>
      <trkpt lat="47.41912" lon="6.76079">
        <ele>434</ele>
        <time>2015-11-11T10:02:06.000Z</time>
      </trkpt>
      <trkpt lat="47.41911" lon="6.76074">
        <ele>434</ele>
        <time>2015-11-11T10:02:08.000Z</time>
      </trkpt>
      <trkpt lat="47.4191" lon="6.7607">
        <ele>435</ele>
        <time>2015-11-11T10:02:09.000Z</time>
      </trkpt>
      <trkpt lat="47.4191" lon="6.76068">
        <ele>435</ele>
        <time>2015-11-11T10:02:10.001Z</time>
      </trkpt>
      <trkpt lat="47.4191" lon="6.76061">
        <ele>435</ele>
        <time>2015-11-11T10:02:11.000Z</time>
      </trkpt>
      <trkpt lat="47.4191" lon="6.76058">
        <ele>436</ele>
        <time>2015-11-11T10:02:12.000Z</time>
      </trkpt>
      <trkpt lat="47.4191" lon="6.76054">
        <ele>436</ele>
        <time>2015-11-11T10:02:13.000Z</time>
      </trkpt>
      <trkpt lat="47.41911" lon="6.76047">
        <ele>436</ele>
        <time>2015-11-11T10:02:15.000Z</time>
      </trkpt>
      <trkpt lat="47.41909" lon="6.76044">
        <ele>436</ele>
        <time>2015-11-11T10:02:16.000Z</time>
      </trkpt>
      <trkpt lat="47.41909" lon="6.76042">
        <ele>436</ele>
        <time>2015-11-11T10:02:17.000Z</time>
      </trkpt>
      <trkpt lat="47.41905" lon="6.76036">
        <ele>437</ele>
        <time>2015-11-11T10:02:18.000Z</time>
      </trkpt>
      <trkpt lat="47.41903" lon="6.76032">
        <ele>437</ele>
        <time>2015-11-11T10:02:19.000Z</time>
      </trkpt>
      <trkpt lat="47.41901" lon="6.76027">
        <ele>437</ele>
        <time>2015-11-11T10:02:20.000Z</time>
      </trkpt>
      <trkpt lat="47.41899" lon="6.76022">
        <ele>437</ele>
        <time>2015-11-11T10:02:21.000Z</time>
      </trkpt>
      <trkpt lat="47.41896" lon="6.76018">
        <ele>438</ele>
        <time>2015-11-11T10:02:22.000Z</time>
      </trkpt>
      <trkpt lat="47.41893" lon="6.76015">
        <ele>438</ele>
        <time>2015-11-11T10:02:23.000Z</time>
      </trkpt>
      <trkpt lat="47.41891" lon="6.76012">
        <ele>438</ele>
        <time>2015-11-11T10:02:24.000Z</time>
      </trkpt>
      <trkpt lat="47.41888" lon="6.76011">
        <ele>437</ele>
        <time>2015-11-11T10:02:25.000Z</time>
      </trkpt>
      <trkpt lat="47.41885" lon="6.7601">
        <ele>437</ele>
        <time>2015-11-11T10:02:26.000Z</time>
      </trkpt>
      <trkpt lat="47.41881" lon="6.7601">
        <ele>437</ele>
        <time>2015-11-11T10:02:27.000Z</time>
      </trkpt>
      <trkpt lat="47.41878" lon="6.76012">
        <ele>437</ele>
        <time>2015-11-11T10:02:28.000Z</time>
      </trkpt>
      <trkpt lat="47.41875" lon="6.76014">
        <ele>437</ele>
        <time>2015-11-11T10:02:29.000Z</time>
      </trkpt>
      <trkpt lat="47.41873" lon="6.76018">
        <ele>437</ele>
        <time>2015-11-11T10:02:30.000Z</time>
      </trkpt>
      <trkpt lat="47.41871" lon="6.76022">
        <ele>437</ele>
        <time>2015-11-11T10:02:31.000Z</time>
      </trkpt>
      <trkpt lat="47.4187" lon="6.76027">
        <ele>437</ele>
        <time>2015-11-11T10:02:32.000Z</time>
      </trkpt>
      <trkpt lat="47.41869" lon="6.76032">
        <ele>437</ele>
        <time>2015-11-11T10:02:33.000Z</time>
      </trkpt>
      <trkpt lat="47.41868" lon="6.76037">
        <ele>437</ele>
        <time>2015-11-11T10:02:34.000Z</time>
      </trkpt>
      <trkpt lat="47.41866" lon="6.76044">
        <ele>436</ele>
        <time>2015-11-11T10:02:35.000Z</time>
      </trkpt>
      <trkpt lat="47.41865" lon="6.76049">
        <ele>436</ele>
        <time>2015-11-11T10:02:36.000Z</time>
      </trkpt>
      <trkpt lat="47.41863" lon="6.76056">
        <ele>436</ele>
        <time>2015-11-11T10:02:37.000Z</time>
      </trkpt>
      <trkpt lat="47.41861" lon="6.76062">
        <ele>436</ele>
        <time>2015-11-11T10:02:38.000Z</time>
      </trkpt>
      <trkpt lat="47.41859" lon="6.76068">
        <ele>436</ele>
        <time>2015-11-11T10:02:39.000Z</time>
      </trkpt>
      <trkpt lat="47.41857" lon="6.76074">
        <ele>436</ele>
        <time>2015-11-11T10:02:40.000Z</time>
      </trkpt>
      <trkpt lat="47.41855" lon="6.76079">
        <ele>436</ele>
        <time>2015-11-11T10:02:41.000Z</time>
      </trkpt>
      <trkpt lat="47.41853" lon="6.76084">
        <ele>433</ele>
        <time>2015-11-11T10:02:42.000Z</time>
      </trkpt>
      <trkpt lat="47.41851" lon="6.76089">
        <ele>433</ele>
        <time>2015-11-11T10:02:43.000Z</time>
      </trkpt>
      <trkpt lat="47.41847" lon="6.76096">
        <ele>433</ele>
        <time>2015-11-11T10:02:44.000Z</time>
      </trkpt>
      <trkpt lat="47.41843" lon="6.761">
        <ele>433</ele>
        <time>2015-11-11T10:02:45.000Z</time>
      </trkpt>
      <trkpt lat="47.41841" lon="6.76104">
        <ele>432</ele>
        <time>2015-11-11T10:02:46.000Z</time>
      </trkpt>
      <trkpt lat="47.41845" lon="6.76113">
        <ele>431</ele>
        <time>2015-11-11T10:02:47.000Z</time>
      </trkpt>
      <trkpt lat="47.41845" lon="6.76117">
        <ele>431</ele>
        <time>2015-11-11T10:02:48.000Z</time>
      </trkpt>
      <trkpt lat="47.41846" lon="6.76121">
        <ele>431</ele>
        <time>2015-11-11T10:02:49.000Z</time>
      </trkpt>
      <trkpt lat="47.4184" lon="6.76131">
        <ele>430</ele>
        <time>2015-11-11T10:02:50.000Z</time>
      </trkpt>
      <trkpt lat="47.41839" lon="6.76134">
        <ele>430</ele>
        <time>2015-11-11T10:02:51.000Z</time>
      </trkpt>
      <trkpt lat="47.41837" lon="6.76138">
        <ele>430</ele>
        <time>2015-11-11T10:02:52.000Z</time>
      </trkpt>
      <trkpt lat="47.41834" lon="6.7614">
        <ele>429</ele>
        <time>2015-11-11T10:02:53.000Z</time>
      </trkpt>
      <trkpt lat="47.41833" lon="6.76142">
        <ele>438</ele>
        <time>2015-11-11T10:02:54.000Z</time>
      </trkpt>
      <trkpt lat="47.41831" lon="6.76147">
        <ele>437</ele>
        <time>2015-11-11T10:02:56.000Z</time>
      </trkpt>
      <trkpt lat="47.4183" lon="6.76152">
        <ele>436</ele>
        <time>2015-11-11T10:02:57.000Z</time>
      </trkpt>
      <trkpt lat="47.41828" lon="6.76156">
        <ele>435</ele>
        <time>2015-11-11T10:02:58.000Z</time>
      </trkpt>
      <trkpt lat="47.41827" lon="6.76161">
        <ele>433</ele>
        <time>2015-11-11T10:02:59.000Z</time>
      </trkpt>
      <trkpt lat="47.41825" lon="6.76164">
        <ele>433</ele>
        <time>2015-11-11T10:03:00.000Z</time>
      </trkpt>
      <trkpt lat="47.41823" lon="6.76167">
        <ele>432</ele>
        <time>2015-11-11T10:03:01.000Z</time>
      </trkpt>
      <trkpt lat="47.41822" lon="6.7617">
        <ele>433</ele>
        <time>2015-11-11T10:03:02.000Z</time>
      </trkpt>
      <trkpt lat="47.4182" lon="6.76172">
        <ele>434</ele>
        <time>2015-11-11T10:03:03.000Z</time>
      </trkpt>
      <trkpt lat="47.41819" lon="6.76176">
        <ele>435</ele>
        <time>2015-11-11T10:03:04.000Z</time>
      </trkpt>
      <trkpt lat="47.41817" lon="6.76179">
        <ele>435</ele>
        <time>2015-11-11T10:03:05.000Z</time>
      </trkpt>
      <trkpt lat="47.41814" lon="6.76182">
        <ele>436</ele>
        <time>2015-11-11T10:03:07.000Z</time>
      </trkpt>
      <trkpt lat="47.41812" lon="6.76183">
        <ele>437</ele>
        <time>2015-11-11T10:03:08.000Z</time>
      </trkpt>
      <trkpt lat="47.4181" lon="6.76188">
        <ele>437</ele>
        <time>2015-11-11T10:03:10.000Z</time>
      </trkpt>
      <trkpt lat="47.41809" lon="6.76192">
        <ele>438</ele>
        <time>2015-11-11T10:03:11.000Z</time>
      </trkpt>
      <trkpt lat="47.41808" lon="6.76195">
        <ele>438</ele>
        <time>2015-11-11T10:03:12.000Z</time>
      </trkpt>
      <trkpt lat="47.41806" lon="6.76199">
        <ele>438</ele>
        <time>2015-11-11T10:03:13.000Z</time>
      </trkpt>
      <trkpt lat="47.41805" lon="6.76202">
        <ele>438</ele>
        <time>2015-11-11T10:03:14.000Z</time>
      </trkpt>
      <trkpt lat="47.41803" lon="6.76206">
        <ele>439</ele>
        <time>2015-11-11T10:03:15.000Z</time>
      </trkpt>
      <trkpt lat="47.41801" lon="6.7621">
        <ele>439</ele>
        <time>2015-11-11T10:03:16.000Z</time>
      </trkpt>
      <trkpt lat="47.418" lon="6.76214">
        <ele>439</ele>
        <time>2015-11-11T10:03:17.000Z</time>
      </trkpt>
      <trkpt lat="47.41799" lon="6.76219">
        <ele>439</ele>
        <time>2015-11-11T10:03:18.000Z</time>
      </trkpt>
      <trkpt lat="47.41798" lon="6.76223">
        <ele>439</ele>
        <time>2015-11-11T10:03:19.000Z</time>
      </trkpt>
      <trkpt lat="47.41797" lon="6.76228">
        <ele>439</ele>
        <time>2015-11-11T10:03:20.000Z</time>
      </trkpt>
      <trkpt lat="47.41795" lon="6.76232">
        <ele>439</ele>
        <time>2015-11-11T10:03:21.000Z</time>
      </trkpt>
      <trkpt lat="47.41794" lon="6.76235">
        <ele>439</ele>
        <time>2015-11-11T10:03:22.000Z</time>
      </trkpt>
      <trkpt lat="47.41794" lon="6.76239">
        <ele>439</ele>
        <time>2015-11-11T10:03:23.000Z</time>
      </trkpt>
      <trkpt lat="47.41793" lon="6.76243">
        <ele>440</ele>
        <time>2015-11-11T10:03:24.000Z</time>
      </trkpt>
      <trkpt lat="47.41792" lon="6.76247">
        <ele>440</ele>
        <time>2015-11-11T10:03:25.000Z</time>
      </trkpt>
      <trkpt lat="47.41791" lon="6.76251">
        <ele>437</ele>
        <time>2015-11-11T10:03:26.000Z</time>
      </trkpt>
      <trkpt lat="47.4179" lon="6.76255">
        <ele>438</ele>
        <time>2015-11-11T10:03:27.000Z</time>
      </trkpt>
      <trkpt lat="47.41788" lon="6.76258">
        <ele>438</ele>
        <time>2015-11-11T10:03:28.000Z</time>
      </trkpt>
      <trkpt lat="47.41788" lon="6.76261">
        <ele>438</ele>
        <time>2015-11-11T10:03:29.000Z</time>
      </trkpt>
      <trkpt lat="47.41786" lon="6.76266">
        <ele>438</ele>
        <time>2015-11-11T10:03:31.000Z</time>
      </trkpt>
      <trkpt lat="47.41786" lon="6.76269">
        <ele>438</ele>
        <time>2015-11-11T10:03:32.000Z</time>
      </trkpt>
      <trkpt lat="47.41784" lon="6.76275">
        <ele>438</ele>
        <time>2015-11-11T10:03:34.000Z</time>
      </trkpt>
      <trkpt lat="47.41784" lon="6.76278">
        <ele>438</ele>
        <time>2015-11-11T10:03:35.000Z</time>
      </trkpt>
      <trkpt lat="47.41783" lon="6.76281">
        <ele>438</ele>
        <time>2015-11-11T10:03:36.000Z</time>
      </trkpt>
      <trkpt lat="47.41782" lon="6.76286">
        <ele>438</ele>
        <time>2015-11-11T10:03:37.000Z</time>
      </trkpt>
      <trkpt lat="47.41782" lon="6.7629">
        <ele>438</ele>
        <time>2015-11-11T10:03:38.000Z</time>
      </trkpt>
      <trkpt lat="47.41781" lon="6.76294">
        <ele>438</ele>
        <time>2015-11-11T10:03:39.000Z</time>
      </trkpt>
      <trkpt lat="47.41781" lon="6.76299">
        <ele>438</ele>
        <time>2015-11-11T10:03:40.000Z</time>
      </trkpt>
      <trkpt lat="47.41781" lon="6.76303">
        <ele>438</ele>
        <time>2015-11-11T10:03:41.000Z</time>
      </trkpt>
      <trkpt lat="47.4178" lon="6.76308">
        <ele>438</ele>
        <time>2015-11-11T10:03:42.000Z</time>
      </trkpt>
      <trkpt lat="47.4178" lon="6.76313">
        <ele>439</ele>
        <time>2015-11-11T10:03:43.000Z</time>
      </trkpt>
      <trkpt lat="47.41779" lon="6.76319">
        <ele>439</ele>
        <time>2015-11-11T10:03:44.000Z</time>
      </trkpt>
      <trkpt lat="47.41778" lon="6.76324">
        <ele>439</ele>
        <time>2015-11-11T10:03:45.000Z</time>
      </trkpt>
      <trkpt lat="47.41777" lon="6.7633">
        <ele>440</ele>
        <time>2015-11-11T10:03:46.000Z</time>
      </trkpt>
      <trkpt lat="47.41776" lon="6.76335">
        <ele>438</ele>
        <time>2015-11-11T10:03:47.000Z</time>
      </trkpt>
      <trkpt lat="47.41775" lon="6.7634">
        <ele>438</ele>
        <time>2015-11-11T10:03:48.000Z</time>
      </trkpt>
      <trkpt lat="47.41774" lon="6.76345">
        <ele>438</ele>
        <time>2015-11-11T10:03:49.000Z</time>
      </trkpt>
      <trkpt lat="47.41774" lon="6.7635">
        <ele>437</ele>
        <time>2015-11-11T10:03:50.000Z</time>
      </trkpt>
      <trkpt lat="47.41773" lon="6.76355">
        <ele>437</ele>
        <time>2015-11-11T10:03:51.000Z</time>
      </trkpt>
      <trkpt lat="47.41772" lon="6.76359">
        <ele>437</ele>
        <time>2015-11-11T10:03:52.000Z</time>
      </trkpt>
      <trkpt lat="47.41772" lon="6.76363">
        <ele>437</ele>
        <time>2015-11-11T10:03:53.000Z</time>
      </trkpt>
      <trkpt lat="47.41771" lon="6.76367">
        <ele>436</ele>
        <time>2015-11-11T10:03:54.000Z</time>
      </trkpt>
      <trkpt lat="47.41769" lon="6.76371">
        <ele>436</ele>
        <time>2015-11-11T10:03:55.000Z</time>
      </trkpt>
      <trkpt lat="47.41768" lon="6.76374">
        <ele>436</ele>
        <time>2015-11-11T10:03:56.000Z</time>
      </trkpt>
      <trkpt lat="47.41767" lon="6.76378">
        <ele>437</ele>
        <time>2015-11-11T10:03:57.000Z</time>
      </trkpt>
      <trkpt lat="47.41766" lon="6.76381">
        <ele>437</ele>
        <time>2015-11-11T10:03:58.000Z</time>
      </trkpt>
      <trkpt lat="47.41765" lon="6.76385">
        <ele>437</ele>
        <time>2015-11-11T10:03:59.000Z</time>
      </trkpt>
      <trkpt lat="47.41765" lon="6.76389">
        <ele>437</ele>
        <time>2015-11-11T10:04:00.000Z</time>
      </trkpt>
      <trkpt lat="47.41764" lon="6.76395">
        <ele>438</ele>
        <time>2015-11-11T10:04:01.000Z</time>
      </trkpt>
      <trkpt lat="47.41764" lon="6.76401">
        <ele>439</ele>
        <time>2015-11-11T10:04:02.000Z</time>
      </trkpt>
      <trkpt lat="47.41763" lon="6.76407">
        <ele>440</ele>
        <time>2015-11-11T10:04:03.000Z</time>
      </trkpt>
      <trkpt lat="47.41762" lon="6.76412">
        <ele>441</ele>
        <time>2015-11-11T10:04:04.000Z</time>
      </trkpt>
      <trkpt lat="47.41761" lon="6.76418">
        <ele>440</ele>
        <time>2015-11-11T10:04:05.000Z</time>
      </trkpt>
      <trkpt lat="47.41759" lon="6.76423">
        <ele>440</ele>
        <time>2015-11-11T10:04:06.000Z</time>
      </trkpt>
      <trkpt lat="47.41757" lon="6.76429">
        <ele>439</ele>
        <time>2015-11-11T10:04:07.000Z</time>
      </trkpt>
      <trkpt lat="47.41756" lon="6.76434">
        <ele>438</ele>
        <time>2015-11-11T10:04:08.000Z</time>
      </trkpt>
      <trkpt lat="47.41754" lon="6.76438">
        <ele>437</ele>
        <time>2015-11-11T10:04:09.000Z</time>
      </trkpt>
      <trkpt lat="47.41753" lon="6.76442">
        <ele>436</ele>
        <time>2015-11-11T10:04:10.000Z</time>
      </trkpt>
      <trkpt lat="47.41752" lon="6.76447">
        <ele>435</ele>
        <time>2015-11-11T10:04:11.000Z</time>
      </trkpt>
      <trkpt lat="47.41751" lon="6.76451">
        <ele>435</ele>
        <time>2015-11-11T10:04:12.000Z</time>
      </trkpt>
      <trkpt lat="47.4175" lon="6.76454">
        <ele>455</ele>
        <time>2015-11-11T10:04:13.000Z</time>
      </trkpt>
      <trkpt lat="47.41749" lon="6.76458">
        <ele>455</ele>
        <time>2015-11-11T10:04:14.000Z</time>
      </trkpt>
      <trkpt lat="47.41748" lon="6.76462">
        <ele>455</ele>
        <time>2015-11-11T10:04:15.000Z</time>
      </trkpt>
      <trkpt lat="47.41748" lon="6.76466">
        <ele>454</ele>
        <time>2015-11-11T10:04:16.000Z</time>
      </trkpt>
      <trkpt lat="47.41747" lon="6.76471">
        <ele>454</ele>
        <time>2015-11-11T10:04:17.000Z</time>
      </trkpt>
      <trkpt lat="47.41745" lon="6.76475">
        <ele>453</ele>
        <time>2015-11-11T10:04:18.000Z</time>
      </trkpt>
      <trkpt lat="47.41744" lon="6.76479">
        <ele>452</ele>
        <time>2015-11-11T10:04:19.000Z</time>
      </trkpt>
      <trkpt lat="47.41742" lon="6.76482">
        <ele>452</ele>
        <time>2015-11-11T10:04:20.000Z</time>
      </trkpt>
      <trkpt lat="47.41741" lon="6.76485">
        <ele>451</ele>
        <time>2015-11-11T10:04:21.000Z</time>
      </trkpt>
      <trkpt lat="47.4174" lon="6.76488">
        <ele>450</ele>
        <time>2015-11-11T10:04:22.000Z</time>
      </trkpt>
      <trkpt lat="47.41739" lon="6.76492">
        <ele>450</ele>
        <time>2015-11-11T10:04:23.000Z</time>
      </trkpt>
      <trkpt lat="47.41738" lon="6.76496">
        <ele>449</ele>
        <time>2015-11-11T10:04:24.000Z</time>
      </trkpt>
      <trkpt lat="47.41738" lon="6.765">
        <ele>449</ele>
        <time>2015-11-11T10:04:25.000Z</time>
      </trkpt>
      <trkpt lat="47.41737" lon="6.76504">
        <ele>447</ele>
        <time>2015-11-11T10:04:26.000Z</time>
      </trkpt>
      <trkpt lat="47.41736" lon="6.76508">
        <ele>448</ele>
        <time>2015-11-11T10:04:27.000Z</time>
      </trkpt>
      <trkpt lat="47.41734" lon="6.76512">
        <ele>449</ele>
        <time>2015-11-11T10:04:28.000Z</time>
      </trkpt>
      <trkpt lat="47.41733" lon="6.76515">
        <ele>450</ele>
        <time>2015-11-11T10:04:29.000Z</time>
      </trkpt>
      <trkpt lat="47.41732" lon="6.76519">
        <ele>450</ele>
        <time>2015-11-11T10:04:30.000Z</time>
      </trkpt>
      <trkpt lat="47.41732" lon="6.76522">
        <ele>451</ele>
        <time>2015-11-11T10:04:31.000Z</time>
      </trkpt>
      <trkpt lat="47.4173" lon="6.76528">
        <ele>451</ele>
        <time>2015-11-11T10:04:33.000Z</time>
      </trkpt>
      <trkpt lat="47.4173" lon="6.76532">
        <ele>452</ele>
        <time>2015-11-11T10:04:34.000Z</time>
      </trkpt>
      <trkpt lat="47.41729" lon="6.76535">
        <ele>452</ele>
        <time>2015-11-11T10:04:35.000Z</time>
      </trkpt>
      <trkpt lat="47.41729" lon="6.7654">
        <ele>452</ele>
        <time>2015-11-11T10:04:36.000Z</time>
      </trkpt>
      <trkpt lat="47.41728" lon="6.76544">
        <ele>451</ele>
        <time>2015-11-11T10:04:37.000Z</time>
      </trkpt>
      <trkpt lat="47.41728" lon="6.76549">
        <ele>451</ele>
        <time>2015-11-11T10:04:38.000Z</time>
      </trkpt>
      <trkpt lat="47.41727" lon="6.76555">
        <ele>451</ele>
        <time>2015-11-11T10:04:39.000Z</time>
      </trkpt>
      <trkpt lat="47.41726" lon="6.7656">
        <ele>450</ele>
        <time>2015-11-11T10:04:40.000Z</time>
      </trkpt>
      <trkpt lat="47.41725" lon="6.76565">
        <ele>450</ele>
        <time>2015-11-11T10:04:41.000Z</time>
      </trkpt>
      <trkpt lat="47.41724" lon="6.7657">
        <ele>450</ele>
        <time>2015-11-11T10:04:42.000Z</time>
      </trkpt>
      <trkpt lat="47.41723" lon="6.76574">
        <ele>450</ele>
        <time>2015-11-11T10:04:43.000Z</time>
      </trkpt>
      <trkpt lat="47.41722" lon="6.76579">
        <ele>450</ele>
        <time>2015-11-11T10:04:44.000Z</time>
      </trkpt>
      <trkpt lat="47.41721" lon="6.76583">
        <ele>450</ele>
        <time>2015-11-11T10:04:45.000Z</time>
      </trkpt>
      <trkpt lat="47.41721" lon="6.76588">
        <ele>447</ele>
        <time>2015-11-11T10:04:46.000Z</time>
      </trkpt>
      <trkpt lat="47.4172" lon="6.76592">
        <ele>447</ele>
        <time>2015-11-11T10:04:47.000Z</time>
      </trkpt>
      <trkpt lat="47.4172" lon="6.76597">
        <ele>447</ele>
        <time>2015-11-11T10:04:48.000Z</time>
      </trkpt>
      <trkpt lat="47.41719" lon="6.76602">
        <ele>448</ele>
        <time>2015-11-11T10:04:49.000Z</time>
      </trkpt>
      <trkpt lat="47.41718" lon="6.76607">
        <ele>448</ele>
        <time>2015-11-11T10:04:50.000Z</time>
      </trkpt>
      <trkpt lat="47.41717" lon="6.76612">
        <ele>448</ele>
        <time>2015-11-11T10:04:51.000Z</time>
      </trkpt>
      <trkpt lat="47.41716" lon="6.76617">
        <ele>448</ele>
        <time>2015-11-11T10:04:52.000Z</time>
      </trkpt>
      <trkpt lat="47.41716" lon="6.76622">
        <ele>448</ele>
        <time>2015-11-11T10:04:53.000Z</time>
      </trkpt>
      <trkpt lat="47.41715" lon="6.76627">
        <ele>449</ele>
        <time>2015-11-11T10:04:54.000Z</time>
      </trkpt>
      <trkpt lat="47.41714" lon="6.76633">
        <ele>449</ele>
        <time>2015-11-11T10:04:55.000Z</time>
      </trkpt>
      <trkpt lat="47.41713" lon="6.76638">
        <ele>449</ele>
        <time>2015-11-11T10:04:56.000Z</time>
      </trkpt>
      <trkpt lat="47.41712" lon="6.76645">
        <ele>449</ele>
        <time>2015-11-11T10:04:57.000Z</time>
      </trkpt>
      <trkpt lat="47.41711" lon="6.76651">
        <ele>449</ele>
        <time>2015-11-11T10:04:58.000Z</time>
      </trkpt>
      <trkpt lat="47.4171" lon="6.76657">
        <ele>449</ele>
        <time>2015-11-11T10:04:59.000Z</time>
      </trkpt>
      <trkpt lat="47.41709" lon="6.76664">
        <ele>449</ele>
        <time>2015-11-11T10:05:00.000Z</time>
      </trkpt>
      <trkpt lat="47.41709" lon="6.7667">
        <ele>447</ele>
        <time>2015-11-11T10:05:01.000Z</time>
      </trkpt>
      <trkpt lat="47.41708" lon="6.76676">
        <ele>447</ele>
        <time>2015-11-11T10:05:02.000Z</time>
      </trkpt>
      <trkpt lat="47.41708" lon="6.76683">
        <ele>447</ele>
        <time>2015-11-11T10:05:03.000Z</time>
      </trkpt>
      <trkpt lat="47.41708" lon="6.76689">
        <ele>447</ele>
        <time>2015-11-11T10:05:04.000Z</time>
      </trkpt>
      <trkpt lat="47.41708" lon="6.76696">
        <ele>447</ele>
        <time>2015-11-11T10:05:05.000Z</time>
      </trkpt>
      <trkpt lat="47.41708" lon="6.76702">
        <ele>447</ele>
        <time>2015-11-11T10:05:06.000Z</time>
      </trkpt>
      <trkpt lat="47.41707" lon="6.76708">
        <ele>448</ele>
        <time>2015-11-11T10:05:07.000Z</time>
      </trkpt>
      <trkpt lat="47.41706" lon="6.76713">
        <ele>448</ele>
        <time>2015-11-11T10:05:08.000Z</time>
      </trkpt>
      <trkpt lat="47.41706" lon="6.76719">
        <ele>448</ele>
        <time>2015-11-11T10:05:09.000Z</time>
      </trkpt>
      <trkpt lat="47.41706" lon="6.76724">
        <ele>448</ele>
        <time>2015-11-11T10:05:10.000Z</time>
      </trkpt>
      <trkpt lat="47.41706" lon="6.7673">
        <ele>448</ele>
        <time>2015-11-11T10:05:11.000Z</time>
      </trkpt>
      <trkpt lat="47.41705" lon="6.76736">
        <ele>448</ele>
        <time>2015-11-11T10:05:12.000Z</time>
      </trkpt>
      <trkpt lat="47.41704" lon="6.76743">
        <ele>449</ele>
        <time>2015-11-11T10:05:13.000Z</time>
      </trkpt>
      <trkpt lat="47.41703" lon="6.76749">
        <ele>449</ele>
        <time>2015-11-11T10:05:14.000Z</time>
      </trkpt>
      <trkpt lat="47.41703" lon="6.76756">
        <ele>449</ele>
        <time>2015-11-11T10:05:15.000Z</time>
      </trkpt>
      <trkpt lat="47.41703" lon="6.76762">
        <ele>449</ele>
        <time>2015-11-11T10:05:16.000Z</time>
      </trkpt>
      <trkpt lat="47.41704" lon="6.76768">
        <ele>448</ele>
        <time>2015-11-11T10:05:17.000Z</time>
      </trkpt>
      <trkpt lat="47.41704" lon="6.76774">
        <ele>448</ele>
        <time>2015-11-11T10:05:18.000Z</time>
      </trkpt>
      <trkpt lat="47.41703" lon="6.7678">
        <ele>448</ele>
        <time>2015-11-11T10:05:19.000Z</time>
      </trkpt>
      <trkpt lat="47.41703" lon="6.76786">
        <ele>448</ele>
        <time>2015-11-11T10:05:20.000Z</time>
      </trkpt>
      <trkpt lat="47.41704" lon="6.7679">
        <ele>448</ele>
        <time>2015-11-11T10:05:21.000Z</time>
      </trkpt>
      <trkpt lat="47.41706" lon="6.76795">
        <ele>448</ele>
        <time>2015-11-11T10:05:22.000Z</time>
      </trkpt>
      <trkpt lat="47.41707" lon="6.768">
        <ele>447</ele>
        <time>2015-11-11T10:05:23.000Z</time>
      </trkpt>
      <trkpt lat="47.41709" lon="6.76805">
        <ele>447</ele>
        <time>2015-11-11T10:05:24.000Z</time>
      </trkpt>
      <trkpt lat="47.41709" lon="6.76809">
        <ele>447</ele>
        <time>2015-11-11T10:05:25.000Z</time>
      </trkpt>
      <trkpt lat="47.4171" lon="6.76813">
        <ele>447</ele>
        <time>2015-11-11T10:05:26.000Z</time>
      </trkpt>
      <trkpt lat="47.4171" lon="6.76818">
        <ele>447</ele>
        <time>2015-11-11T10:05:27.000Z</time>
      </trkpt>
      <trkpt lat="47.41711" lon="6.76822">
        <ele>446</ele>
        <time>2015-11-11T10:05:28.000Z</time>
      </trkpt>
      <trkpt lat="47.41712" lon="6.76827">
        <ele>446</ele>
        <time>2015-11-11T10:05:29.000Z</time>
      </trkpt>
      <trkpt lat="47.41714" lon="6.76832">
        <ele>445</ele>
        <time>2015-11-11T10:05:30.000Z</time>
      </trkpt>
      <trkpt lat="47.41716" lon="6.76836">
        <ele>445</ele>
        <time>2015-11-11T10:05:31.000Z</time>
      </trkpt>
      <trkpt lat="47.41718" lon="6.76841">
        <ele>445</ele>
        <time>2015-11-11T10:05:32.000Z</time>
      </trkpt>
      <trkpt lat="47.4172" lon="6.76845">
        <ele>445</ele>
        <time>2015-11-11T10:05:33.000Z</time>
      </trkpt>
      <trkpt lat="47.41722" lon="6.7685">
        <ele>444</ele>
        <time>2015-11-11T10:05:34.000Z</time>
      </trkpt>
      <trkpt lat="47.41723" lon="6.76854">
        <ele>445</ele>
        <time>2015-11-11T10:05:35.000Z</time>
      </trkpt>
      <trkpt lat="47.41724" lon="6.76858">
        <ele>445</ele>
        <time>2015-11-11T10:05:36.000Z</time>
      </trkpt>
      <trkpt lat="47.41724" lon="6.76862">
        <ele>445</ele>
        <time>2015-11-11T10:05:37.000Z</time>
      </trkpt>
      <trkpt lat="47.41725" lon="6.76867">
        <ele>445</ele>
        <time>2015-11-11T10:05:38.000Z</time>
      </trkpt>
      <trkpt lat="47.41725" lon="6.76872">
        <ele>445</ele>
        <time>2015-11-11T10:05:39.000Z</time>
      </trkpt>
      <trkpt lat="47.41726" lon="6.76877">
        <ele>445</ele>
        <time>2015-11-11T10:05:40.000Z</time>
      </trkpt>
      <trkpt lat="47.41726" lon="6.76882">
        <ele>445</ele>
        <time>2015-11-11T10:05:41.000Z</time>
      </trkpt>
      <trkpt lat="47.41726" lon="6.76888">
        <ele>445</ele>
        <time>2015-11-11T10:05:42.000Z</time>
      </trkpt>
      <trkpt lat="47.41726" lon="6.76894">
        <ele>445</ele>
        <time>2015-11-11T10:05:43.000Z</time>
      </trkpt>
      <trkpt lat="47.41727" lon="6.76899">
        <ele>444</ele>
        <time>2015-11-11T10:05:44.000Z</time>
      </trkpt>
      <trkpt lat="47.41727" lon="6.76905">
        <ele>444</ele>
        <time>2015-11-11T10:05:45.000Z</time>
      </trkpt>
      <trkpt lat="47.41728" lon="6.76911">
        <ele>443</ele>
        <time>2015-11-11T10:05:46.000Z</time>
      </trkpt>
      <trkpt lat="47.41727" lon="6.76917">
        <ele>444</ele>
        <time>2015-11-11T10:05:47.000Z</time>
      </trkpt>
      <trkpt lat="47.41727" lon="6.76924">
        <ele>444</ele>
        <time>2015-11-11T10:05:48.000Z</time>
      </trkpt>
      <trkpt lat="47.41726" lon="6.7693">
        <ele>445</ele>
        <time>2015-11-11T10:05:49.000Z</time>
      </trkpt>
      <trkpt lat="47.41726" lon="6.76935">
        <ele>445</ele>
        <time>2015-11-11T10:05:50.000Z</time>
      </trkpt>
      <trkpt lat="47.41725" lon="6.76941">
        <ele>446</ele>
        <time>2015-11-11T10:05:51.000Z</time>
      </trkpt>
      <trkpt lat="47.41724" lon="6.76946">
        <ele>446</ele>
        <time>2015-11-11T10:05:52.001Z</time>
      </trkpt>
      <trkpt lat="47.41722" lon="6.76952">
        <ele>447</ele>
        <time>2015-11-11T10:05:53.000Z</time>
      </trkpt>
      <trkpt lat="47.41721" lon="6.76958">
        <ele>447</ele>
        <time>2015-11-11T10:05:54.000Z</time>
      </trkpt>
      <trkpt lat="47.4172" lon="6.76963">
        <ele>447</ele>
        <time>2015-11-11T10:05:55.000Z</time>
      </trkpt>
      <trkpt lat="47.41719" lon="6.76968">
        <ele>447</ele>
        <time>2015-11-11T10:05:56.000Z</time>
      </trkpt>
      <trkpt lat="47.41718" lon="6.76973">
        <ele>447</ele>
        <time>2015-11-11T10:05:57.000Z</time>
      </trkpt>
      <trkpt lat="47.41717" lon="6.76978">
        <ele>447</ele>
        <time>2015-11-11T10:05:58.000Z</time>
      </trkpt>
      <trkpt lat="47.41716" lon="6.76983">
        <ele>448</ele>
        <time>2015-11-11T10:05:59.000Z</time>
      </trkpt>
      <trkpt lat="47.41715" lon="6.76987">
        <ele>448</ele>
        <time>2015-11-11T10:05:59.999Z</time>
      </trkpt>
      <trkpt lat="47.41713" lon="6.76992">
        <ele>448</ele>
        <time>2015-11-11T10:06:01.000Z</time>
      </trkpt>
      <trkpt lat="47.41711" lon="6.76996">
        <ele>449</ele>
        <time>2015-11-11T10:06:02.000Z</time>
      </trkpt>
      <trkpt lat="47.4171" lon="6.77">
        <ele>446</ele>
        <time>2015-11-11T10:06:03.000Z</time>
      </trkpt>
      <trkpt lat="47.41709" lon="6.77004">
        <ele>447</ele>
        <time>2015-11-11T10:06:04.000Z</time>
      </trkpt>
      <trkpt lat="47.41708" lon="6.77008">
        <ele>447</ele>
        <time>2015-11-11T10:06:05.000Z</time>
      </trkpt>
      <trkpt lat="47.41707" lon="6.77011">
        <ele>447</ele>
        <time>2015-11-11T10:06:06.000Z</time>
      </trkpt>
      <trkpt lat="47.41706" lon="6.77016">
        <ele>447</ele>
        <time>2015-11-11T10:06:07.000Z</time>
      </trkpt>
      <trkpt lat="47.41705" lon="6.77019">
        <ele>447</ele>
        <time>2015-11-11T10:06:08.000Z</time>
      </trkpt>
      <trkpt lat="47.41704" lon="6.77023">
        <ele>447</ele>
        <time>2015-11-11T10:06:09.000Z</time>
      </trkpt>
      <trkpt lat="47.41702" lon="6.77026">
        <ele>448</ele>
        <time>2015-11-11T10:06:10.000Z</time>
      </trkpt>
      <trkpt lat="47.41701" lon="6.77028">
        <ele>448</ele>
        <time>2015-11-11T10:06:10.999Z</time>
      </trkpt>
      <trkpt lat="47.41698" lon="6.77031">
        <ele>448</ele>
        <time>2015-11-11T10:06:12.000Z</time>
      </trkpt>
      <trkpt lat="47.41697" lon="6.77034">
        <ele>448</ele>
        <time>2015-11-11T10:06:13.000Z</time>
      </trkpt>
      <trkpt lat="47.41694" lon="6.77038">
        <ele>449</ele>
        <time>2015-11-11T10:06:15.999Z</time>
      </trkpt>
      <trkpt lat="47.41693" lon="6.7704">
        <ele>449</ele>
        <time>2015-11-11T10:06:17.000Z</time>
      </trkpt>
      <trkpt lat="47.41691" lon="6.77046">
        <ele>449</ele>
        <time>2015-11-11T10:06:19.000Z</time>
      </trkpt>
      <trkpt lat="47.4169" lon="6.77049">
        <ele>449</ele>
        <time>2015-11-11T10:06:20.000Z</time>
      </trkpt>
      <trkpt lat="47.41689" lon="6.77053">
        <ele>449</ele>
        <time>2015-11-11T10:06:21.000Z</time>
      </trkpt>
      <trkpt lat="47.41688" lon="6.77058">
        <ele>450</ele>
        <time>2015-11-11T10:06:22.000Z</time>
      </trkpt>
      <trkpt lat="47.41687" lon="6.77063">
        <ele>450</ele>
        <time>2015-11-11T10:06:23.000Z</time>
      </trkpt>
      <trkpt lat="47.41686" lon="6.77066">
        <ele>451</ele>
        <time>2015-11-11T10:06:24.000Z</time>
      </trkpt>
      <trkpt lat="47.41684" lon="6.77072">
        <ele>452</ele>
        <time>2015-11-11T10:06:26.000Z</time>
      </trkpt>
      <trkpt lat="47.41683" lon="6.77075">
        <ele>452</ele>
        <time>2015-11-11T10:06:27.000Z</time>
      </trkpt>
      <trkpt lat="47.4168" lon="6.77079">
        <ele>454</ele>
        <time>2015-11-11T10:06:29.000Z</time>
      </trkpt>
      <trkpt lat="47.41679" lon="6.77082">
        <ele>455</ele>
        <time>2015-11-11T10:06:30.000Z</time>
      </trkpt>
      <trkpt lat="47.41678" lon="6.77088">
        <ele>452</ele>
        <time>2015-11-11T10:06:31.000Z</time>
      </trkpt>
      <trkpt lat="47.41677" lon="6.77094">
        <ele>451</ele>
        <time>2015-11-11T10:06:32.000Z</time>
      </trkpt>
      <trkpt lat="47.41676" lon="6.771">
        <ele>449</ele>
        <time>2015-11-11T10:06:33.000Z</time>
      </trkpt>
      <trkpt lat="47.41675" lon="6.77106">
        <ele>447</ele>
        <time>2015-11-11T10:06:34.000Z</time>
      </trkpt>
      <trkpt lat="47.41674" lon="6.77112">
        <ele>446</ele>
        <time>2015-11-11T10:06:35.000Z</time>
      </trkpt>
      <trkpt lat="47.41672" lon="6.77117">
        <ele>446</ele>
        <time>2015-11-11T10:06:36.000Z</time>
      </trkpt>
      <trkpt lat="47.4167" lon="6.77122">
        <ele>445</ele>
        <time>2015-11-11T10:06:37.000Z</time>
      </trkpt>
      <trkpt lat="47.41668" lon="6.77127">
        <ele>445</ele>
        <time>2015-11-11T10:06:38.000Z</time>
      </trkpt>
      <trkpt lat="47.41666" lon="6.77132">
        <ele>462</ele>
        <time>2015-11-11T10:06:39.000Z</time>
      </trkpt>
      <trkpt lat="47.41664" lon="6.77137">
        <ele>462</ele>
        <time>2015-11-11T10:06:40.000Z</time>
      </trkpt>
      <trkpt lat="47.41661" lon="6.77142">
        <ele>461</ele>
        <time>2015-11-11T10:06:41.000Z</time>
      </trkpt>
      <trkpt lat="47.4166" lon="6.77147">
        <ele>461</ele>
        <time>2015-11-11T10:06:42.000Z</time>
      </trkpt>
      <trkpt lat="47.41659" lon="6.77153">
        <ele>460</ele>
        <time>2015-11-11T10:06:43.000Z</time>
      </trkpt>
      <trkpt lat="47.41659" lon="6.77158">
        <ele>459</ele>
        <time>2015-11-11T10:06:44.000Z</time>
      </trkpt>
      <trkpt lat="47.41659" lon="6.77163">
        <ele>459</ele>
        <time>2015-11-11T10:06:45.000Z</time>
      </trkpt>
      <trkpt lat="47.41658" lon="6.77167">
        <ele>456</ele>
        <time>2015-11-11T10:06:46.000Z</time>
      </trkpt>
      <trkpt lat="47.41657" lon="6.77172">
        <ele>456</ele>
        <time>2015-11-11T10:06:48.000Z</time>
      </trkpt>
      <trkpt lat="47.41656" lon="6.77173">
        <ele>456</ele>
        <time>2015-11-11T10:06:49.000Z</time>
      </trkpt>
      <trkpt lat="47.41653" lon="6.77172">
        <ele>456</ele>
        <time>2015-11-11T10:06:51.000Z</time>
      </trkpt>
      <trkpt lat="47.41651" lon="6.77171">
        <ele>456</ele>
        <time>2015-11-11T10:06:52.000Z</time>
      </trkpt>
      <trkpt lat="47.41648" lon="6.7717">
        <ele>456</ele>
        <time>2015-11-11T10:06:53.000Z</time>
      </trkpt>
      <trkpt lat="47.41646" lon="6.7717">
        <ele>456</ele>
        <time>2015-11-11T10:06:54.000Z</time>
      </trkpt>
      <trkpt lat="47.41643" lon="6.77169">
        <ele>456</ele>
        <time>2015-11-11T10:06:55.000Z</time>
      </trkpt>
      <trkpt lat="47.4164" lon="6.77168">
        <ele>456</ele>
        <time>2015-11-11T10:06:56.000Z</time>
      </trkpt>
      <trkpt lat="47.41636" lon="6.77168">
        <ele>456</ele>
        <time>2015-11-11T10:06:57.000Z</time>
      </trkpt>
      <trkpt lat="47.41632" lon="6.77167">
        <ele>456</ele>
        <time>2015-11-11T10:06:58.000Z</time>
      </trkpt>
      <trkpt lat="47.41629" lon="6.77166">
        <ele>463</ele>
        <time>2015-11-11T10:06:59.000Z</time>
      </trkpt>
      <trkpt lat="47.41625" lon="6.77166">
        <ele>463</ele>
        <time>2015-11-11T10:07:00.000Z</time>
      </trkpt>
      <trkpt lat="47.41622" lon="6.77166">
        <ele>464</ele>
        <time>2015-11-11T10:07:01.000Z</time>
      </trkpt>
      <trkpt lat="47.41619" lon="6.77165">
        <ele>464</ele>
        <time>2015-11-11T10:07:02.000Z</time>
      </trkpt>
      <trkpt lat="47.41616" lon="6.77163">
        <ele>464</ele>
        <time>2015-11-11T10:07:03.000Z</time>
      </trkpt>
      <trkpt lat="47.41613" lon="6.77161">
        <ele>465</ele>
        <time>2015-11-11T10:07:04.000Z</time>
      </trkpt>
      <trkpt lat="47.4161" lon="6.77158">
        <ele>465</ele>
        <time>2015-11-11T10:07:05.000Z</time>
      </trkpt>
      <trkpt lat="47.41607" lon="6.77156">
        <ele>465</ele>
        <time>2015-11-11T10:07:06.000Z</time>
      </trkpt>
      <trkpt lat="47.41605" lon="6.77154">
        <ele>465</ele>
        <time>2015-11-11T10:07:07.000Z</time>
      </trkpt>
      <trkpt lat="47.41603" lon="6.77152">
        <ele>466</ele>
        <time>2015-11-11T10:07:08.001Z</time>
      </trkpt>
      <trkpt lat="47.41601" lon="6.7715">
        <ele>466</ele>
        <time>2015-11-11T10:07:09.000Z</time>
      </trkpt>
      <trkpt lat="47.41599" lon="6.77148">
        <ele>466</ele>
        <time>2015-11-11T10:07:10.000Z</time>
      </trkpt>
      <trkpt lat="47.41596" lon="6.77143">
        <ele>466</ele>
        <time>2015-11-11T10:07:12.000Z</time>
      </trkpt>
      <trkpt lat="47.41595" lon="6.77141">
        <ele>466</ele>
        <time>2015-11-11T10:07:13.000Z</time>
      </trkpt>
      <trkpt lat="47.41594" lon="6.77135">
        <ele>466</ele>
        <time>2015-11-11T10:07:15.000Z</time>
      </trkpt>
      <trkpt lat="47.41593" lon="6.77133">
        <ele>466</ele>
        <time>2015-11-11T10:07:16.000Z</time>
      </trkpt>
      <trkpt lat="47.41592" lon="6.77128">
        <ele>467</ele>
        <time>2015-11-11T10:07:18.000Z</time>
      </trkpt>
      <trkpt lat="47.4159" lon="6.77125">
        <ele>467</ele>
        <time>2015-11-11T10:07:19.000Z</time>
      </trkpt>
      <trkpt lat="47.41588" lon="6.77121">
        <ele>467</ele>
        <time>2015-11-11T10:07:20.000Z</time>
      </trkpt>
      <trkpt lat="47.41585" lon="6.77118">
        <ele>468</ele>
        <time>2015-11-11T10:07:21.000Z</time>
      </trkpt>
      <trkpt lat="47.41582" lon="6.77115">
        <ele>474</ele>
        <time>2015-11-11T10:07:22.000Z</time>
      </trkpt>
      <trkpt lat="47.4158" lon="6.77112">
        <ele>474</ele>
        <time>2015-11-11T10:07:23.000Z</time>
      </trkpt>
      <trkpt lat="47.41577" lon="6.77109">
        <ele>475</ele>
        <time>2015-11-11T10:07:24.000Z</time>
      </trkpt>
      <trkpt lat="47.41572" lon="6.77107">
        <ele>475</ele>
        <time>2015-11-11T10:07:25.000Z</time>
      </trkpt>
      <trkpt lat="47.41569" lon="6.77107">
        <ele>475</ele>
        <time>2015-11-11T10:07:26.000Z</time>
      </trkpt>
      <trkpt lat="47.41565" lon="6.77107">
        <ele>475</ele>
        <time>2015-11-11T10:07:27.000Z</time>
      </trkpt>
      <trkpt lat="47.41562" lon="6.77109">
        <ele>475</ele>
        <time>2015-11-11T10:07:28.000Z</time>
      </trkpt>
      <trkpt lat="47.4156" lon="6.7711">
        <ele>475</ele>
        <time>2015-11-11T10:07:28.999Z</time>
      </trkpt>
      <trkpt lat="47.41556" lon="6.77114">
        <ele>475</ele>
        <time>2015-11-11T10:07:30.000Z</time>
      </trkpt>
      <trkpt lat="47.41553" lon="6.77116">
        <ele>475</ele>
        <time>2015-11-11T10:07:31.000Z</time>
      </trkpt>
      <trkpt lat="47.41551" lon="6.77116">
        <ele>475</ele>
        <time>2015-11-11T10:07:32.000Z</time>
      </trkpt>
      <trkpt lat="47.41549" lon="6.77116">
        <ele>475</ele>
        <time>2015-11-11T10:07:33.000Z</time>
      </trkpt>
      <trkpt lat="47.41546" lon="6.77116">
        <ele>475</ele>
        <time>2015-11-11T10:07:34.000Z</time>
      </trkpt>
      <trkpt lat="47.41543" lon="6.77118">
        <ele>476</ele>
        <time>2015-11-11T10:07:35.000Z</time>
      </trkpt>
      <trkpt lat="47.4154" lon="6.7712">
        <ele>476</ele>
        <time>2015-11-11T10:07:36.000Z</time>
      </trkpt>
      <trkpt lat="47.41537" lon="6.77122">
        <ele>476</ele>
        <time>2015-11-11T10:07:37.000Z</time>
      </trkpt>
      <trkpt lat="47.41534" lon="6.77125">
        <ele>476</ele>
        <time>2015-11-11T10:07:38.000Z</time>
      </trkpt>
      <trkpt lat="47.41532" lon="6.77127">
        <ele>476</ele>
        <time>2015-11-11T10:07:39.000Z</time>
      </trkpt>
      <trkpt lat="47.41529" lon="6.77129">
        <ele>476</ele>
        <time>2015-11-11T10:07:40.000Z</time>
      </trkpt>
      <trkpt lat="47.41527" lon="6.7713">
        <ele>476</ele>
        <time>2015-11-11T10:07:41.000Z</time>
      </trkpt>
      <trkpt lat="47.41524" lon="6.7713">
        <ele>476</ele>
        <time>2015-11-11T10:07:42.000Z</time>
      </trkpt>
      <trkpt lat="47.41522" lon="6.77131">
        <ele>476</ele>
        <time>2015-11-11T10:07:43.000Z</time>
      </trkpt>
      <trkpt lat="47.41518" lon="6.77133">
        <ele>476</ele>
        <time>2015-11-11T10:07:45.000Z</time>
      </trkpt>
      <trkpt lat="47.41515" lon="6.77134">
        <ele>476</ele>
        <time>2015-11-11T10:07:46.000Z</time>
      </trkpt>
      <trkpt lat="47.41513" lon="6.77135">
        <ele>476</ele>
        <time>2015-11-11T10:07:47.000Z</time>
      </trkpt>
      <trkpt lat="47.4151" lon="6.77137">
        <ele>476</ele>
        <time>2015-11-11T10:07:48.000Z</time>
      </trkpt>
      <trkpt lat="47.41507" lon="6.77138">
        <ele>476</ele>
        <time>2015-11-11T10:07:49.000Z</time>
      </trkpt>
      <trkpt lat="47.41504" lon="6.77139">
        <ele>476</ele>
        <time>2015-11-11T10:07:50.000Z</time>
      </trkpt>
      <trkpt lat="47.41501" lon="6.7714">
        <ele>476</ele>
        <time>2015-11-11T10:07:51.000Z</time>
      </trkpt>
      <trkpt lat="47.41498" lon="6.77142">
        <ele>479</ele>
        <time>2015-11-11T10:07:52.000Z</time>
      </trkpt>
      <trkpt lat="47.41495" lon="6.77143">
        <ele>479</ele>
        <time>2015-11-11T10:07:53.000Z</time>
      </trkpt>
      <trkpt lat="47.41491" lon="6.77144">
        <ele>479</ele>
        <time>2015-11-11T10:07:54.000Z</time>
      </trkpt>
      <trkpt lat="47.41488" lon="6.77145">
        <ele>479</ele>
        <time>2015-11-11T10:07:55.000Z</time>
      </trkpt>
      <trkpt lat="47.41486" lon="6.77145">
        <ele>480</ele>
        <time>2015-11-11T10:07:56.000Z</time>
      </trkpt>
      <trkpt lat="47.41481" lon="6.77145">
        <ele>480</ele>
        <time>2015-11-11T10:07:59.000Z</time>
      </trkpt>
      <trkpt lat="47.4148" lon="6.77144">
        <ele>480</ele>
        <time>2015-11-11T10:08:00.000Z</time>
      </trkpt>
      <trkpt lat="47.41476" lon="6.77144">
        <ele>480</ele>
        <time>2015-11-11T10:08:02.000Z</time>
      </trkpt>
      <trkpt lat="47.41474" lon="6.77145">
        <ele>480</ele>
        <time>2015-11-11T10:08:03.000Z</time>
      </trkpt>
      <trkpt lat="47.41472" lon="6.77145">
        <ele>480</ele>
        <time>2015-11-11T10:08:04.000Z</time>
      </trkpt>
      <trkpt lat="47.4147" lon="6.77145">
        <ele>481</ele>
        <time>2015-11-11T10:08:05.000Z</time>
      </trkpt>
      <trkpt lat="47.41467" lon="6.77144">
        <ele>481</ele>
        <time>2015-11-11T10:08:06.000Z</time>
      </trkpt>
      <trkpt lat="47.41464" lon="6.77143">
        <ele>481</ele>
        <time>2015-11-11T10:08:07.000Z</time>
      </trkpt>
      <trkpt lat="47.41461" lon="6.77143">
        <ele>481</ele>
        <time>2015-11-11T10:08:08.000Z</time>
      </trkpt>
      <trkpt lat="47.41457" lon="6.77142">
        <ele>481</ele>
        <time>2015-11-11T10:08:09.000Z</time>
      </trkpt>
      <trkpt lat="47.41453" lon="6.7714">
        <ele>481</ele>
        <time>2015-11-11T10:08:10.000Z</time>
      </trkpt>
      <trkpt lat="47.41449" lon="6.77138">
        <ele>482</ele>
        <time>2015-11-11T10:08:11.000Z</time>
      </trkpt>
      <trkpt lat="47.41446" lon="6.77136">
        <ele>482</ele>
        <time>2015-11-11T10:08:12.000Z</time>
      </trkpt>
      <trkpt lat="47.41443" lon="6.77134">
        <ele>482</ele>
        <time>2015-11-11T10:08:13.000Z</time>
      </trkpt>
      <trkpt lat="47.4144" lon="6.77132">
        <ele>482</ele>
        <time>2015-11-11T10:08:14.000Z</time>
      </trkpt>
      <trkpt lat="47.41437" lon="6.7713">
        <ele>482</ele>
        <time>2015-11-11T10:08:15.000Z</time>
      </trkpt>
      <trkpt lat="47.41434" lon="6.77128">
        <ele>482</ele>
        <time>2015-11-11T10:08:16.000Z</time>
      </trkpt>
      <trkpt lat="47.41428" lon="6.77122">
        <ele>483</ele>
        <time>2015-11-11T10:08:17.000Z</time>
      </trkpt>
      <trkpt lat="47.41425" lon="6.7712">
        <ele>483</ele>
        <time>2015-11-11T10:08:18.000Z</time>
      </trkpt>
      <trkpt lat="47.41424" lon="6.77118">
        <ele>483</ele>
        <time>2015-11-11T10:08:19.000Z</time>
      </trkpt>
      <trkpt lat="47.41422" lon="6.77116">
        <ele>484</ele>
        <time>2015-11-11T10:08:20.000Z</time>
      </trkpt>
      <trkpt lat="47.41419" lon="6.77114">
        <ele>484</ele>
        <time>2015-11-11T10:08:21.000Z</time>
      </trkpt>
      <trkpt lat="47.41416" lon="6.77112">
        <ele>484</ele>
        <time>2015-11-11T10:08:22.000Z</time>
      </trkpt>
      <trkpt lat="47.41414" lon="6.7711">
        <ele>485</ele>
        <time>2015-11-11T10:08:23.000Z</time>
      </trkpt>
      <trkpt lat="47.41412" lon="6.77109">
        <ele>485</ele>
        <time>2015-11-11T10:08:24.000Z</time>
      </trkpt>
      <trkpt lat="47.4141" lon="6.77106">
        <ele>485</ele>
        <time>2015-11-11T10:08:25.000Z</time>
      </trkpt>
      <trkpt lat="47.41407" lon="6.77103">
        <ele>485</ele>
        <time>2015-11-11T10:08:27.000Z</time>
      </trkpt>
      <trkpt lat="47.41405" lon="6.77102">
        <ele>485</ele>
        <time>2015-11-11T10:08:28.000Z</time>
      </trkpt>
      <trkpt lat="47.41402" lon="6.77098">
        <ele>485</ele>
        <time>2015-11-11T10:08:30.000Z</time>
      </trkpt>
      <trkpt lat="47.414" lon="6.77096">
        <ele>485</ele>
        <time>2015-11-11T10:08:31.000Z</time>
      </trkpt>
      <trkpt lat="47.41398" lon="6.77094">
        <ele>485</ele>
        <time>2015-11-11T10:08:32.000Z</time>
      </trkpt>
      <trkpt lat="47.41395" lon="6.77092">
        <ele>485</ele>
        <time>2015-11-11T10:08:33.000Z</time>
      </trkpt>
      <trkpt lat="47.41385" lon="6.77082">
        <ele>490</ele>
        <time>2015-11-11T10:08:34.000Z</time>
      </trkpt>
      <trkpt lat="47.41382" lon="6.77076">
        <ele>490</ele>
        <time>2015-11-11T10:08:35.000Z</time>
      </trkpt>
      <trkpt lat="47.41379" lon="6.77073">
        <ele>490</ele>
        <time>2015-11-11T10:08:36.000Z</time>
      </trkpt>
      <trkpt lat="47.41377" lon="6.77072">
        <ele>490</ele>
        <time>2015-11-11T10:08:37.000Z</time>
      </trkpt>
      <trkpt lat="47.41374" lon="6.77069">
        <ele>490</ele>
        <time>2015-11-11T10:08:38.000Z</time>
      </trkpt>
      <trkpt lat="47.41372" lon="6.77065">
        <ele>490</ele>
        <time>2015-11-11T10:08:39.000Z</time>
      </trkpt>
      <trkpt lat="47.4137" lon="6.77063">
        <ele>490</ele>
        <time>2015-11-11T10:08:40.000Z</time>
      </trkpt>
      <trkpt lat="47.41368" lon="6.7706">
        <ele>490</ele>
        <time>2015-11-11T10:08:41.000Z</time>
      </trkpt>
      <trkpt lat="47.41365" lon="6.77058">
        <ele>490</ele>
        <time>2015-11-11T10:08:42.000Z</time>
      </trkpt>
      <trkpt lat="47.41364" lon="6.77055">
        <ele>491</ele>
        <time>2015-11-11T10:08:43.000Z</time>
      </trkpt>
      <trkpt lat="47.41361" lon="6.77052">
        <ele>491</ele>
        <time>2015-11-11T10:08:45.000Z</time>
      </trkpt>
      <trkpt lat="47.41359" lon="6.77051">
        <ele>491</ele>
        <time>2015-11-11T10:08:46.000Z</time>
      </trkpt>
      <trkpt lat="47.41357" lon="6.77049">
        <ele>491</ele>
        <time>2015-11-11T10:08:47.000Z</time>
      </trkpt>
      <trkpt lat="47.41355" lon="6.77047">
        <ele>491</ele>
        <time>2015-11-11T10:08:48.000Z</time>
      </trkpt>
      <trkpt lat="47.41352" lon="6.77045">
        <ele>491</ele>
        <time>2015-11-11T10:08:49.000Z</time>
      </trkpt>
      <trkpt lat="47.4135" lon="6.77041">
        <ele>491</ele>
        <time>2015-11-11T10:08:50.000Z</time>
      </trkpt>
      <trkpt lat="47.41347" lon="6.77037">
        <ele>491</ele>
        <time>2015-11-11T10:08:51.000Z</time>
      </trkpt>
      <trkpt lat="47.41344" lon="6.77032">
        <ele>491</ele>
        <time>2015-11-11T10:08:52.000Z</time>
      </trkpt>
      <trkpt lat="47.41341" lon="6.77028">
        <ele>492</ele>
        <time>2015-11-11T10:08:53.000Z</time>
      </trkpt>
      <trkpt lat="47.41339" lon="6.77024">
        <ele>492</ele>
        <time>2015-11-11T10:08:54.000Z</time>
      </trkpt>
      <trkpt lat="47.41335" lon="6.7702">
        <ele>492</ele>
        <time>2015-11-11T10:08:55.000Z</time>
      </trkpt>
      <trkpt lat="47.41331" lon="6.77017">
        <ele>490</ele>
        <time>2015-11-11T10:08:56.000Z</time>
      </trkpt>
      <trkpt lat="47.41328" lon="6.77014">
        <ele>490</ele>
        <time>2015-11-11T10:08:57.000Z</time>
      </trkpt>
      <trkpt lat="47.41325" lon="6.77012">
        <ele>490</ele>
        <time>2015-11-11T10:08:58.000Z</time>
      </trkpt>
      <trkpt lat="47.41322" lon="6.77012">
        <ele>490</ele>
        <time>2015-11-11T10:08:59.000Z</time>
      </trkpt>
      <trkpt lat="47.41319" lon="6.77012">
        <ele>490</ele>
        <time>2015-11-11T10:09:00.000Z</time>
      </trkpt>
      <trkpt lat="47.41316" lon="6.77013">
        <ele>490</ele>
        <time>2015-11-11T10:09:01.000Z</time>
      </trkpt>
      <trkpt lat="47.41313" lon="6.77014">
        <ele>489</ele>
        <time>2015-11-11T10:09:02.000Z</time>
      </trkpt>
      <trkpt lat="47.4131" lon="6.77015">
        <ele>489</ele>
        <time>2015-11-11T10:09:03.000Z</time>
      </trkpt>
      <trkpt lat="47.41306" lon="6.77015">
        <ele>489</ele>
        <time>2015-11-11T10:09:04.000Z</time>
      </trkpt>
      <trkpt lat="47.41303" lon="6.77015">
        <ele>489</ele>
        <time>2015-11-11T10:09:05.000Z</time>
      </trkpt>
      <trkpt lat="47.413" lon="6.77015">
        <ele>488</ele>
        <time>2015-11-11T10:09:06.000Z</time>
      </trkpt>
      <trkpt lat="47.41297" lon="6.77015">
        <ele>488</ele>
        <time>2015-11-11T10:09:07.000Z</time>
      </trkpt>
      <trkpt lat="47.41293" lon="6.77014">
        <ele>488</ele>
        <time>2015-11-11T10:09:08.000Z</time>
      </trkpt>
      <trkpt lat="47.4129" lon="6.77014">
        <ele>488</ele>
        <time>2015-11-11T10:09:09.000Z</time>
      </trkpt>
      <trkpt lat="47.41287" lon="6.77012">
        <ele>488</ele>
        <time>2015-11-11T10:09:10.000Z</time>
      </trkpt>
      <trkpt lat="47.41284" lon="6.7701">
        <ele>488</ele>
        <time>2015-11-11T10:09:11.000Z</time>
      </trkpt>
      <trkpt lat="47.41282" lon="6.77008">
        <ele>488</ele>
        <time>2015-11-11T10:09:12.000Z</time>
      </trkpt>
      <trkpt lat="47.41278" lon="6.77004">
        <ele>488</ele>
        <time>2015-11-11T10:09:14.000Z</time>
      </trkpt>
      <trkpt lat="47.41276" lon="6.77002">
        <ele>488</ele>
        <time>2015-11-11T10:09:15.000Z</time>
      </trkpt>
      <trkpt lat="47.41274" lon="6.77001">
        <ele>488</ele>
        <time>2015-11-11T10:09:16.000Z</time>
      </trkpt>
      <trkpt lat="47.41271" lon="6.77">
        <ele>493</ele>
        <time>2015-11-11T10:09:17.000Z</time>
      </trkpt>
      <trkpt lat="47.41269" lon="6.76998">
        <ele>493</ele>
        <time>2015-11-11T10:09:18.000Z</time>
      </trkpt>
      <trkpt lat="47.41267" lon="6.76996">
        <ele>493</ele>
        <time>2015-11-11T10:09:19.000Z</time>
      </trkpt>
      <trkpt lat="47.41264" lon="6.76994">
        <ele>492</ele>
        <time>2015-11-11T10:09:20.000Z</time>
      </trkpt>
      <trkpt lat="47.41262" lon="6.76991">
        <ele>492</ele>
        <time>2015-11-11T10:09:21.000Z</time>
      </trkpt>
      <trkpt lat="47.41259" lon="6.76989">
        <ele>492</ele>
        <time>2015-11-11T10:09:22.000Z</time>
      </trkpt>
      <trkpt lat="47.41256" lon="6.76986">
        <ele>492</ele>
        <time>2015-11-11T10:09:23.000Z</time>
      </trkpt>
      <trkpt lat="47.41254" lon="6.76984">
        <ele>493</ele>
        <time>2015-11-11T10:09:24.000Z</time>
      </trkpt>
      <trkpt lat="47.41251" lon="6.76981">
        <ele>493</ele>
        <time>2015-11-11T10:09:25.000Z</time>
      </trkpt>
      <trkpt lat="47.41249" lon="6.76978">
        <ele>491</ele>
        <time>2015-11-11T10:09:26.000Z</time>
      </trkpt>
      <trkpt lat="47.41246" lon="6.76975">
        <ele>491</ele>
        <time>2015-11-11T10:09:27.000Z</time>
      </trkpt>
      <trkpt lat="47.41244" lon="6.76973">
        <ele>491</ele>
        <time>2015-11-11T10:09:28.000Z</time>
      </trkpt>
      <trkpt lat="47.41242" lon="6.7697">
        <ele>491</ele>
        <time>2015-11-11T10:09:29.000Z</time>
      </trkpt>
      <trkpt lat="47.41239" lon="6.76968">
        <ele>491</ele>
        <time>2015-11-11T10:09:30.000Z</time>
      </trkpt>
      <trkpt lat="47.41237" lon="6.76964">
        <ele>492</ele>
        <time>2015-11-11T10:09:31.000Z</time>
      </trkpt>
      <trkpt lat="47.41234" lon="6.76961">
        <ele>492</ele>
        <time>2015-11-11T10:09:32.000Z</time>
      </trkpt>
      <trkpt lat="47.41231" lon="6.76957">
        <ele>492</ele>
        <time>2015-11-11T10:09:33.000Z</time>
      </trkpt>
      <trkpt lat="47.41228" lon="6.76954">
        <ele>492</ele>
        <time>2015-11-11T10:09:34.000Z</time>
      </trkpt>
      <trkpt lat="47.41225" lon="6.7695">
        <ele>492</ele>
        <time>2015-11-11T10:09:35.000Z</time>
      </trkpt>
      <trkpt lat="47.41222" lon="6.76947">
        <ele>492</ele>
        <time>2015-11-11T10:09:36.000Z</time>
      </trkpt>
      <trkpt lat="47.41219" lon="6.76941">
        <ele>493</ele>
        <time>2015-11-11T10:09:37.000Z</time>
      </trkpt>
      <trkpt lat="47.41216" lon="6.76938">
        <ele>493</ele>
        <time>2015-11-11T10:09:38.000Z</time>
      </trkpt>
      <trkpt lat="47.41213" lon="6.76935">
        <ele>493</ele>
        <time>2015-11-11T10:09:39.000Z</time>
      </trkpt>
      <trkpt lat="47.4121" lon="6.76932">
        <ele>493</ele>
        <time>2015-11-11T10:09:40.000Z</time>
      </trkpt>
      <trkpt lat="47.41207" lon="6.76929">
        <ele>493</ele>
        <time>2015-11-11T10:09:41.000Z</time>
      </trkpt>
      <trkpt lat="47.41204" lon="6.76925">
        <ele>493</ele>
        <time>2015-11-11T10:09:42.000Z</time>
      </trkpt>
      <trkpt lat="47.41201" lon="6.76921">
        <ele>493</ele>
        <time>2015-11-11T10:09:43.000Z</time>
      </trkpt>
      <trkpt lat="47.41198" lon="6.76917">
        <ele>493</ele>
        <time>2015-11-11T10:09:44.000Z</time>
      </trkpt>
      <trkpt lat="47.41195" lon="6.76912">
        <ele>499</ele>
        <time>2015-11-11T10:09:45.000Z</time>
      </trkpt>
      <trkpt lat="47.41191" lon="6.76908">
        <ele>499</ele>
        <time>2015-11-11T10:09:46.000Z</time>
      </trkpt>
      <trkpt lat="47.41188" lon="6.76904">
        <ele>499</ele>
        <time>2015-11-11T10:09:47.000Z</time>
      </trkpt>
      <trkpt lat="47.41184" lon="6.769">
        <ele>499</ele>
        <time>2015-11-11T10:09:48.000Z</time>
      </trkpt>
      <trkpt lat="47.41181" lon="6.76895">
        <ele>499</ele>
        <time>2015-11-11T10:09:49.000Z</time>
      </trkpt>
      <trkpt lat="47.41177" lon="6.76891">
        <ele>499</ele>
        <time>2015-11-11T10:09:50.000Z</time>
      </trkpt>
      <trkpt lat="47.41174" lon="6.76887">
        <ele>500</ele>
        <time>2015-11-11T10:09:51.000Z</time>
      </trkpt>
      <trkpt lat="47.4117" lon="6.76883">
        <ele>500</ele>
        <time>2015-11-11T10:09:52.000Z</time>
      </trkpt>
      <trkpt lat="47.41167" lon="6.76879">
        <ele>501</ele>
        <time>2015-11-11T10:09:53.000Z</time>
      </trkpt>
      <trkpt lat="47.41164" lon="6.76876">
        <ele>496</ele>
        <time>2015-11-11T10:09:54.000Z</time>
      </trkpt>
      <trkpt lat="47.41161" lon="6.76873">
        <ele>497</ele>
        <time>2015-11-11T10:09:55.000Z</time>
      </trkpt>
      <trkpt lat="47.41158" lon="6.76871">
        <ele>497</ele>
        <time>2015-11-11T10:09:56.000Z</time>
      </trkpt>
      <trkpt lat="47.41155" lon="6.76868">
        <ele>497</ele>
        <time>2015-11-11T10:09:57.000Z</time>
      </trkpt>
      <trkpt lat="47.41152" lon="6.76867">
        <ele>497</ele>
        <time>2015-11-11T10:09:58.000Z</time>
      </trkpt>
      <trkpt lat="47.4115" lon="6.76865">
        <ele>497</ele>
        <time>2015-11-11T10:09:59.000Z</time>
      </trkpt>
      <trkpt lat="47.41146" lon="6.76862">
        <ele>497</ele>
        <time>2015-11-11T10:10:01.000Z</time>
      </trkpt>
      <trkpt lat="47.41144" lon="6.7686">
        <ele>497</ele>
        <time>2015-11-11T10:10:02.000Z</time>
      </trkpt>
      <trkpt lat="47.41142" lon="6.76858">
        <ele>497</ele>
        <time>2015-11-11T10:10:03.000Z</time>
      </trkpt>
      <trkpt lat="47.4114" lon="6.76856">
        <ele>497</ele>
        <time>2015-11-11T10:10:04.000Z</time>
      </trkpt>
      <trkpt lat="47.41138" lon="6.76853">
        <ele>497</ele>
        <time>2015-11-11T10:10:05.000Z</time>
      </trkpt>
      <trkpt lat="47.41135" lon="6.76849">
        <ele>497</ele>
        <time>2015-11-11T10:10:06.000Z</time>
      </trkpt>
      <trkpt lat="47.41133" lon="6.76846">
        <ele>497</ele>
        <time>2015-11-11T10:10:07.000Z</time>
      </trkpt>
      <trkpt lat="47.4113" lon="6.76841">
        <ele>497</ele>
        <time>2015-11-11T10:10:08.000Z</time>
      </trkpt>
      <trkpt lat="47.41128" lon="6.76837">
        <ele>497</ele>
        <time>2015-11-11T10:10:09.000Z</time>
      </trkpt>
      <trkpt lat="47.41126" lon="6.76832">
        <ele>503</ele>
        <time>2015-11-11T10:10:10.000Z</time>
      </trkpt>
      <trkpt lat="47.41124" lon="6.76829">
        <ele>503</ele>
        <time>2015-11-11T10:10:11.001Z</time>
      </trkpt>
      <trkpt lat="47.41121" lon="6.76822">
        <ele>503</ele>
        <time>2015-11-11T10:10:12.000Z</time>
      </trkpt>
      <trkpt lat="47.4112" lon="6.76817">
        <ele>503</ele>
        <time>2015-11-11T10:10:13.000Z</time>
      </trkpt>
      <trkpt lat="47.41119" lon="6.76811">
        <ele>503</ele>
        <time>2015-11-11T10:10:14.000Z</time>
      </trkpt>
      <trkpt lat="47.41119" lon="6.76805">
        <ele>503</ele>
        <time>2015-11-11T10:10:15.000Z</time>
      </trkpt>
      <trkpt lat="47.41119" lon="6.768">
        <ele>504</ele>
        <time>2015-11-11T10:10:16.000Z</time>
      </trkpt>
      <trkpt lat="47.4112" lon="6.76795">
        <ele>504</ele>
        <time>2015-11-11T10:10:17.000Z</time>
      </trkpt>
      <trkpt lat="47.41121" lon="6.7679">
        <ele>504</ele>
        <time>2015-11-11T10:10:18.000Z</time>
      </trkpt>
      <trkpt lat="47.41122" lon="6.76785">
        <ele>504</ele>
        <time>2015-11-11T10:10:19.000Z</time>
      </trkpt>
      <trkpt lat="47.41123" lon="6.76781">
        <ele>505</ele>
        <time>2015-11-11T10:10:20.000Z</time>
      </trkpt>
      <trkpt lat="47.41124" lon="6.76777">
        <ele>505</ele>
        <time>2015-11-11T10:10:21.000Z</time>
      </trkpt>
      <trkpt lat="47.41124" lon="6.76773">
        <ele>505</ele>
        <time>2015-11-11T10:10:22.000Z</time>
      </trkpt>
      <trkpt lat="47.41125" lon="6.76768">
        <ele>505</ele>
        <time>2015-11-11T10:10:23.000Z</time>
      </trkpt>
      <trkpt lat="47.41126" lon="6.76763">
        <ele>505</ele>
        <time>2015-11-11T10:10:24.000Z</time>
      </trkpt>
      <trkpt lat="47.41128" lon="6.76757">
        <ele>506</ele>
        <time>2015-11-11T10:10:25.000Z</time>
      </trkpt>
      <trkpt lat="47.41129" lon="6.76751">
        <ele>506</ele>
        <time>2015-11-11T10:10:26.000Z</time>
      </trkpt>
      <trkpt lat="47.41131" lon="6.76745">
        <ele>510</ele>
        <time>2015-11-11T10:10:27.000Z</time>
      </trkpt>
      <trkpt lat="47.41133" lon="6.76739">
        <ele>510</ele>
        <time>2015-11-11T10:10:28.000Z</time>
      </trkpt>
      <trkpt lat="47.41135" lon="6.76733">
        <ele>510</ele>
        <time>2015-11-11T10:10:29.000Z</time>
      </trkpt>
      <trkpt lat="47.41137" lon="6.76727">
        <ele>510</ele>
        <time>2015-11-11T10:10:30.000Z</time>
      </trkpt>
      <trkpt lat="47.41138" lon="6.76721">
        <ele>510</ele>
        <time>2015-11-11T10:10:31.000Z</time>
      </trkpt>
      <trkpt lat="47.41139" lon="6.76716">
        <ele>510</ele>
        <time>2015-11-11T10:10:32.000Z</time>
      </trkpt>
      <trkpt lat="47.4114" lon="6.76711">
        <ele>510</ele>
        <time>2015-11-11T10:10:33.000Z</time>
      </trkpt>
      <trkpt lat="47.4114" lon="6.76706">
        <ele>511</ele>
        <time>2015-11-11T10:10:34.000Z</time>
      </trkpt>
      <trkpt lat="47.41139" lon="6.76701">
        <ele>511</ele>
        <time>2015-11-11T10:10:35.000Z</time>
      </trkpt>
      <trkpt lat="47.41138" lon="6.76697">
        <ele>511</ele>
        <time>2015-11-11T10:10:36.000Z</time>
      </trkpt>
      <trkpt lat="47.41137" lon="6.76694">
        <ele>511</ele>
        <time>2015-11-11T10:10:37.000Z</time>
      </trkpt>
      <trkpt lat="47.41135" lon="6.76691">
        <ele>511</ele>
        <time>2015-11-11T10:10:38.000Z</time>
      </trkpt>
      <trkpt lat="47.41133" lon="6.76688">
        <ele>511</ele>
        <time>2015-11-11T10:10:39.000Z</time>
      </trkpt>
      <trkpt lat="47.41132" lon="6.76684">
        <ele>511</ele>
        <time>2015-11-11T10:10:40.000Z</time>
      </trkpt>
      <trkpt lat="47.4113" lon="6.76681">
        <ele>511</ele>
        <time>2015-11-11T10:10:41.000Z</time>
      </trkpt>
      <trkpt lat="47.41129" lon="6.76677">
        <ele>511</ele>
        <time>2015-11-11T10:10:42.000Z</time>
      </trkpt>
      <trkpt lat="47.41128" lon="6.76673">
        <ele>511</ele>
        <time>2015-11-11T10:10:43.000Z</time>
      </trkpt>
      <trkpt lat="47.41126" lon="6.76669">
        <ele>511</ele>
        <time>2015-11-11T10:10:44.000Z</time>
      </trkpt>
      <trkpt lat="47.41125" lon="6.76666">
        <ele>515</ele>
        <time>2015-11-11T10:10:45.000Z</time>
      </trkpt>
      <trkpt lat="47.41124" lon="6.76661">
        <ele>515</ele>
        <time>2015-11-11T10:10:47.000Z</time>
      </trkpt>
      <trkpt lat="47.41124" lon="6.76659">
        <ele>515</ele>
        <time>2015-11-11T10:10:48.000Z</time>
      </trkpt>
      <trkpt lat="47.41123" lon="6.76656">
        <ele>515</ele>
        <time>2015-11-11T10:10:49.000Z</time>
      </trkpt>
      <trkpt lat="47.41122" lon="6.76652">
        <ele>515</ele>
        <time>2015-11-11T10:10:50.000Z</time>
      </trkpt>
      <trkpt lat="47.41119" lon="6.76647">
        <ele>515</ele>
        <time>2015-11-11T10:10:52.000Z</time>
      </trkpt>
      <trkpt lat="47.41118" lon="6.76645">
        <ele>515</ele>
        <time>2015-11-11T10:10:53.000Z</time>
      </trkpt>
      <trkpt lat="47.41116" lon="6.76641">
        <ele>515</ele>
        <time>2015-11-11T10:10:55.000Z</time>
      </trkpt>
      <trkpt lat="47.41114" lon="6.76639">
        <ele>515</ele>
        <time>2015-11-11T10:10:56.000Z</time>
      </trkpt>
      <trkpt lat="47.41112" lon="6.76636">
        <ele>515</ele>
        <time>2015-11-11T10:10:57.000Z</time>
      </trkpt>
      <trkpt lat="47.4111" lon="6.76633">
        <ele>515</ele>
        <time>2015-11-11T10:10:58.000Z</time>
      </trkpt>
      <trkpt lat="47.41109" lon="6.7663">
        <ele>515</ele>
        <time>2015-11-11T10:10:59.000Z</time>
      </trkpt>
      <trkpt lat="47.41108" lon="6.76627">
        <ele>515</ele>
        <time>2015-11-11T10:11:00.000Z</time>
      </trkpt>
      <trkpt lat="47.41106" lon="6.76624">
        <ele>515</ele>
        <time>2015-11-11T10:11:01.000Z</time>
      </trkpt>
      <trkpt lat="47.41105" lon="6.76621">
        <ele>515</ele>
        <time>2015-11-11T10:11:02.000Z</time>
      </trkpt>
      <trkpt lat="47.41103" lon="6.76617">
        <ele>516</ele>
        <time>2015-11-11T10:11:03.000Z</time>
      </trkpt>
      <trkpt lat="47.41102" lon="6.76613">
        <ele>516</ele>
        <time>2015-11-11T10:11:04.000Z</time>
      </trkpt>
      <trkpt lat="47.41099" lon="6.76608">
        <ele>516</ele>
        <time>2015-11-11T10:11:06.000Z</time>
      </trkpt>
      <trkpt lat="47.41098" lon="6.76606">
        <ele>516</ele>
        <time>2015-11-11T10:11:07.000Z</time>
      </trkpt>
      <trkpt lat="47.41097" lon="6.76604">
        <ele>516</ele>
        <time>2015-11-11T10:11:08.000Z</time>
      </trkpt>
      <trkpt lat="47.41095" lon="6.76601">
        <ele>516</ele>
        <time>2015-11-11T10:11:09.000Z</time>
      </trkpt>
      <trkpt lat="47.41094" lon="6.76597">
        <ele>516</ele>
        <time>2015-11-11T10:11:10.000Z</time>
      </trkpt>
      <trkpt lat="47.41092" lon="6.76593">
        <ele>516</ele>
        <time>2015-11-11T10:11:11.000Z</time>
      </trkpt>
      <trkpt lat="47.41092" lon="6.76587">
        <ele>516</ele>
        <time>2015-11-11T10:11:14.000Z</time>
      </trkpt>
      <trkpt lat="47.41091" lon="6.76585">
        <ele>516</ele>
        <time>2015-11-11T10:11:15.000Z</time>
      </trkpt>
      <trkpt lat="47.41092" lon="6.76583">
        <ele>518</ele>
        <time>2015-11-11T10:11:16.000Z</time>
      </trkpt>
      <trkpt lat="47.41089" lon="6.76577">
        <ele>518</ele>
        <time>2015-11-11T10:11:17.000Z</time>
      </trkpt>
      <trkpt lat="47.41087" lon="6.76571">
        <ele>518</ele>
        <time>2015-11-11T10:11:19.000Z</time>
      </trkpt>
      <trkpt lat="47.41086" lon="6.7657">
        <ele>519</ele>
        <time>2015-11-11T10:11:20.000Z</time>
      </trkpt>
      <trkpt lat="47.41084" lon="6.76565">
        <ele>519</ele>
        <time>2015-11-11T10:11:25.002Z</time>
      </trkpt>
      <trkpt lat="47.41083" lon="6.76559">
        <ele>517</ele>
        <time>2015-11-11T10:11:26.000Z</time>
      </trkpt>
      <trkpt lat="47.41083" lon="6.76555">
        <ele>517</ele>
        <time>2015-11-11T10:11:27.000Z</time>
      </trkpt>
      <trkpt lat="47.41081" lon="6.76551">
        <ele>517</ele>
        <time>2015-11-11T10:11:28.000Z</time>
      </trkpt>
      <trkpt lat="47.4108" lon="6.76547">
        <ele>517</ele>
        <time>2015-11-11T10:11:29.000Z</time>
      </trkpt>
      <trkpt lat="47.41078" lon="6.76543">
        <ele>517</ele>
        <time>2015-11-11T10:11:30.000Z</time>
      </trkpt>
      <trkpt lat="47.41077" lon="6.7654">
        <ele>518</ele>
        <time>2015-11-11T10:11:31.000Z</time>
      </trkpt>
      <trkpt lat="47.41075" lon="6.76536">
        <ele>518</ele>
        <time>2015-11-11T10:11:32.000Z</time>
      </trkpt>
      <trkpt lat="47.41074" lon="6.76533">
        <ele>518</ele>
        <time>2015-11-11T10:11:33.000Z</time>
      </trkpt>
      <trkpt lat="47.41072" lon="6.76529">
        <ele>518</ele>
        <time>2015-11-11T10:11:34.000Z</time>
      </trkpt>
      <trkpt lat="47.4107" lon="6.76526">
        <ele>519</ele>
        <time>2015-11-11T10:11:35.000Z</time>
      </trkpt>
      <trkpt lat="47.41068" lon="6.76522">
        <ele>519</ele>
        <time>2015-11-11T10:11:36.000Z</time>
      </trkpt>
      <trkpt lat="47.41067" lon="6.76519">
        <ele>519</ele>
        <time>2015-11-11T10:11:37.000Z</time>
      </trkpt>
      <trkpt lat="47.41066" lon="6.76516">
        <ele>519</ele>
        <time>2015-11-11T10:11:38.000Z</time>
      </trkpt>
      <trkpt lat="47.41064" lon="6.76513">
        <ele>519</ele>
        <time>2015-11-11T10:11:39.000Z</time>
      </trkpt>
      <trkpt lat="47.41063" lon="6.7651">
        <ele>519</ele>
        <time>2015-11-11T10:11:40.000Z</time>
      </trkpt>
      <trkpt lat="47.41062" lon="6.76506">
        <ele>520</ele>
        <time>2015-11-11T10:11:41.000Z</time>
      </trkpt>
      <trkpt lat="47.4106" lon="6.76502">
        <ele>519</ele>
        <time>2015-11-11T10:11:42.000Z</time>
      </trkpt>
      <trkpt lat="47.41058" lon="6.76498">
        <ele>524</ele>
        <time>2015-11-11T10:11:43.000Z</time>
      </trkpt>
      <trkpt lat="47.41055" lon="6.76494">
        <ele>524</ele>
        <time>2015-11-11T10:11:44.000Z</time>
      </trkpt>
      <trkpt lat="47.41052" lon="6.76489">
        <ele>524</ele>
        <time>2015-11-11T10:11:45.000Z</time>
      </trkpt>
      <trkpt lat="47.41049" lon="6.76485">
        <ele>524</ele>
        <time>2015-11-11T10:11:46.000Z</time>
      </trkpt>
      <trkpt lat="47.41046" lon="6.7648">
        <ele>524</ele>
        <time>2015-11-11T10:11:47.000Z</time>
      </trkpt>
      <trkpt lat="47.41044" lon="6.76475">
        <ele>524</ele>
        <time>2015-11-11T10:11:48.000Z</time>
      </trkpt>
      <trkpt lat="47.41041" lon="6.76471">
        <ele>524</ele>
        <time>2015-11-11T10:11:49.000Z</time>
      </trkpt>
      <trkpt lat="47.41039" lon="6.76466">
        <ele>524</ele>
        <time>2015-11-11T10:11:50.000Z</time>
      </trkpt>
      <trkpt lat="47.41038" lon="6.76462">
        <ele>524</ele>
        <time>2015-11-11T10:11:51.000Z</time>
      </trkpt>
      <trkpt lat="47.41037" lon="6.76459">
        <ele>524</ele>
        <time>2015-11-11T10:11:52.000Z</time>
      </trkpt>
      <trkpt lat="47.41036" lon="6.76455">
        <ele>524</ele>
        <time>2015-11-11T10:11:53.000Z</time>
      </trkpt>
      <trkpt lat="47.41035" lon="6.76451">
        <ele>524</ele>
        <time>2015-11-11T10:11:54.000Z</time>
      </trkpt>
      <trkpt lat="47.41034" lon="6.76447">
        <ele>524</ele>
        <time>2015-11-11T10:11:55.000Z</time>
      </trkpt>
      <trkpt lat="47.41033" lon="6.76444">
        <ele>525</ele>
        <time>2015-11-11T10:11:56.000Z</time>
      </trkpt>
      <trkpt lat="47.41033" lon="6.7644">
        <ele>525</ele>
        <time>2015-11-11T10:11:57.000Z</time>
      </trkpt>
      <trkpt lat="47.41032" lon="6.76436">
        <ele>525</ele>
        <time>2015-11-11T10:11:58.000Z</time>
      </trkpt>
      <trkpt lat="47.41032" lon="6.76432">
        <ele>525</ele>
        <time>2015-11-11T10:11:59.000Z</time>
      </trkpt>
      <trkpt lat="47.41032" lon="6.76428">
        <ele>525</ele>
        <time>2015-11-11T10:12:00.000Z</time>
      </trkpt>
      <trkpt lat="47.41033" lon="6.76424">
        <ele>525</ele>
        <time>2015-11-11T10:12:01.000Z</time>
      </trkpt>
      <trkpt lat="47.41033" lon="6.76419">
        <ele>525</ele>
        <time>2015-11-11T10:12:02.000Z</time>
      </trkpt>
      <trkpt lat="47.41033" lon="6.76416">
        <ele>530</ele>
        <time>2015-11-11T10:12:03.000Z</time>
      </trkpt>
      <trkpt lat="47.41032" lon="6.76413">
        <ele>530</ele>
        <time>2015-11-11T10:12:04.000Z</time>
      </trkpt>
      <trkpt lat="47.41032" lon="6.76407">
        <ele>530</ele>
        <time>2015-11-11T10:12:06.000Z</time>
      </trkpt>
      <trkpt lat="47.41032" lon="6.76403">
        <ele>530</ele>
        <time>2015-11-11T10:12:07.000Z</time>
      </trkpt>
      <trkpt lat="47.41033" lon="6.76399">
        <ele>530</ele>
        <time>2015-11-11T10:12:08.000Z</time>
      </trkpt>
      <trkpt lat="47.41033" lon="6.76394">
        <ele>530</ele>
        <time>2015-11-11T10:12:09.000Z</time>
      </trkpt>
      <trkpt lat="47.41034" lon="6.76389">
        <ele>531</ele>
        <time>2015-11-11T10:12:10.000Z</time>
      </trkpt>
      <trkpt lat="47.41035" lon="6.76384">
        <ele>531</ele>
        <time>2015-11-11T10:12:11.000Z</time>
      </trkpt>
      <trkpt lat="47.41036" lon="6.76379">
        <ele>531</ele>
        <time>2015-11-11T10:12:12.000Z</time>
      </trkpt>
      <trkpt lat="47.41037" lon="6.76374">
        <ele>531</ele>
        <time>2015-11-11T10:12:13.000Z</time>
      </trkpt>
      <trkpt lat="47.41039" lon="6.7637">
        <ele>532</ele>
        <time>2015-11-11T10:12:14.000Z</time>
      </trkpt>
      <trkpt lat="47.41041" lon="6.76366">
        <ele>532</ele>
        <time>2015-11-11T10:12:15.000Z</time>
      </trkpt>
      <trkpt lat="47.41043" lon="6.76364">
        <ele>532</ele>
        <time>2015-11-11T10:12:16.000Z</time>
      </trkpt>
      <trkpt lat="47.41044" lon="6.76361">
        <ele>532</ele>
        <time>2015-11-11T10:12:17.000Z</time>
      </trkpt>
      <trkpt lat="47.41043" lon="6.76357">
        <ele>532</ele>
        <time>2015-11-11T10:12:18.000Z</time>
      </trkpt>
      <trkpt lat="47.41042" lon="6.76353">
        <ele>532</ele>
        <time>2015-11-11T10:12:19.000Z</time>
      </trkpt>
      <trkpt lat="47.4104" lon="6.7635">
        <ele>532</ele>
        <time>2015-11-11T10:12:20.000Z</time>
      </trkpt>
      <trkpt lat="47.41038" lon="6.76347">
        <ele>532</ele>
        <time>2015-11-11T10:12:21.000Z</time>
      </trkpt>
      <trkpt lat="47.41035" lon="6.76342">
        <ele>532</ele>
        <time>2015-11-11T10:12:23.000Z</time>
      </trkpt>
      <trkpt lat="47.41035" lon="6.7634">
        <ele>532</ele>
        <time>2015-11-11T10:12:24.000Z</time>
      </trkpt>
      <trkpt lat="47.41036" lon="6.76334">
        <ele>533</ele>
        <time>2015-11-11T10:12:29.000Z</time>
      </trkpt>
      <trkpt lat="47.41036" lon="6.76332">
        <ele>536</ele>
        <time>2015-11-11T10:12:30.000Z</time>
      </trkpt>
      <trkpt lat="47.41037" lon="6.76326">
        <ele>536</ele>
        <time>2015-11-11T10:12:32.000Z</time>
      </trkpt>
      <trkpt lat="47.41038" lon="6.76324">
        <ele>536</ele>
        <time>2015-11-11T10:12:33.001Z</time>
      </trkpt>
      <trkpt lat="47.41037" lon="6.76319">
        <ele>536</ele>
        <time>2015-11-11T10:12:34.000Z</time>
      </trkpt>
      <trkpt lat="47.41036" lon="6.76314">
        <ele>536</ele>
        <time>2015-11-11T10:12:35.000Z</time>
      </trkpt>
      <trkpt lat="47.41034" lon="6.7631">
        <ele>536</ele>
        <time>2015-11-11T10:12:36.000Z</time>
      </trkpt>
      <trkpt lat="47.41032" lon="6.76306">
        <ele>536</ele>
        <time>2015-11-11T10:12:37.000Z</time>
      </trkpt>
      <trkpt lat="47.4103" lon="6.76302">
        <ele>536</ele>
        <time>2015-11-11T10:12:38.000Z</time>
      </trkpt>
      <trkpt lat="47.41029" lon="6.76298">
        <ele>536</ele>
        <time>2015-11-11T10:12:39.000Z</time>
      </trkpt>
      <trkpt lat="47.41028" lon="6.76294">
        <ele>536</ele>
        <time>2015-11-11T10:12:40.000Z</time>
      </trkpt>
      <trkpt lat="47.41027" lon="6.7629">
        <ele>536</ele>
        <time>2015-11-11T10:12:41.000Z</time>
      </trkpt>
      <trkpt lat="47.41026" lon="6.76287">
        <ele>536</ele>
        <time>2015-11-11T10:12:42.000Z</time>
      </trkpt>
      <trkpt lat="47.41024" lon="6.76283">
        <ele>536</ele>
        <time>2015-11-11T10:12:43.000Z</time>
      </trkpt>
      <trkpt lat="47.41023" lon="6.76279">
        <ele>536</ele>
        <time>2015-11-11T10:12:44.000Z</time>
      </trkpt>
      <trkpt lat="47.41022" lon="6.76275">
        <ele>536</ele>
        <time>2015-11-11T10:12:45.000Z</time>
      </trkpt>
      <trkpt lat="47.41021" lon="6.76271">
        <ele>536</ele>
        <time>2015-11-11T10:12:46.000Z</time>
      </trkpt>
      <trkpt lat="47.41021" lon="6.76268">
        <ele>536</ele>
        <time>2015-11-11T10:12:46.999Z</time>
      </trkpt>
      <trkpt lat="47.4102" lon="6.76265">
        <ele>536</ele>
        <time>2015-11-11T10:12:48.000Z</time>
      </trkpt>
      <trkpt lat="47.41019" lon="6.76261">
        <ele>536</ele>
        <time>2015-11-11T10:12:49.000Z</time>
      </trkpt>
      <trkpt lat="47.41018" lon="6.76258">
        <ele>536</ele>
        <time>2015-11-11T10:12:50.000Z</time>
      </trkpt>
      <trkpt lat="47.41018" lon="6.76254">
        <ele>536</ele>
        <time>2015-11-11T10:12:51.000Z</time>
      </trkpt>
      <trkpt lat="47.41017" lon="6.7625">
        <ele>537</ele>
        <time>2015-11-11T10:12:52.000Z</time>
      </trkpt>
      <trkpt lat="47.41016" lon="6.76245">
        <ele>537</ele>
        <time>2015-11-11T10:12:53.000Z</time>
      </trkpt>
      <trkpt lat="47.41015" lon="6.7624">
        <ele>537</ele>
        <time>2015-11-11T10:12:54.000Z</time>
      </trkpt>
      <trkpt lat="47.41014" lon="6.76235">
        <ele>537</ele>
        <time>2015-11-11T10:12:55.000Z</time>
      </trkpt>
      <trkpt lat="47.41013" lon="6.7623">
        <ele>537</ele>
        <time>2015-11-11T10:12:56.000Z</time>
      </trkpt>
      <trkpt lat="47.41012" lon="6.76227">
        <ele>537</ele>
        <time>2015-11-11T10:12:57.000Z</time>
      </trkpt>
      <trkpt lat="47.41011" lon="6.76221">
        <ele>537</ele>
        <time>2015-11-11T10:12:59.000Z</time>
      </trkpt>
      <trkpt lat="47.4101" lon="6.76218">
        <ele>537</ele>
        <time>2015-11-11T10:13:00.000Z</time>
      </trkpt>
      <trkpt lat="47.4101" lon="6.76214">
        <ele>537</ele>
        <time>2015-11-11T10:13:01.000Z</time>
      </trkpt>
      <trkpt lat="47.4101" lon="6.76211">
        <ele>537</ele>
        <time>2015-11-11T10:13:02.000Z</time>
      </trkpt>
      <trkpt lat="47.41011" lon="6.76204">
        <ele>537</ele>
        <time>2015-11-11T10:13:04.000Z</time>
      </trkpt>
      <trkpt lat="47.41011" lon="6.76202">
        <ele>537</ele>
        <time>2015-11-11T10:13:05.000Z</time>
      </trkpt>
      <trkpt lat="47.41011" lon="6.76197">
        <ele>537</ele>
        <time>2015-11-11T10:13:07.000Z</time>
      </trkpt>
      <trkpt lat="47.41011" lon="6.76194">
        <ele>537</ele>
        <time>2015-11-11T10:13:08.000Z</time>
      </trkpt>
      <trkpt lat="47.4101" lon="6.7619">
        <ele>537</ele>
        <time>2015-11-11T10:13:10.000Z</time>
      </trkpt>
      <trkpt lat="47.4101" lon="6.76187">
        <ele>537</ele>
        <time>2015-11-11T10:13:11.000Z</time>
      </trkpt>
      <trkpt lat="47.4101" lon="6.76183">
        <ele>537</ele>
        <time>2015-11-11T10:13:13.000Z</time>
      </trkpt>
      <trkpt lat="47.41009" lon="6.7618">
        <ele>537</ele>
        <time>2015-11-11T10:13:14.000Z</time>
      </trkpt>
      <trkpt lat="47.41009" lon="6.76176">
        <ele>536</ele>
        <time>2015-11-11T10:13:16.000Z</time>
      </trkpt>
      <trkpt lat="47.41009" lon="6.76173">
        <ele>536</ele>
        <time>2015-11-11T10:13:17.000Z</time>
      </trkpt>
      <trkpt lat="47.41009" lon="6.7617">
        <ele>536</ele>
        <time>2015-11-11T10:13:18.000Z</time>
      </trkpt>
      <trkpt lat="47.41009" lon="6.76166">
        <ele>537</ele>
        <time>2015-11-11T10:13:19.000Z</time>
      </trkpt>
      <trkpt lat="47.4101" lon="6.76161">
        <ele>537</ele>
        <time>2015-11-11T10:13:21.000Z</time>
      </trkpt>
      <trkpt lat="47.41011" lon="6.76159">
        <ele>537</ele>
        <time>2015-11-11T10:13:22.000Z</time>
      </trkpt>
      <trkpt lat="47.41013" lon="6.76156">
        <ele>538</ele>
        <time>2015-11-11T10:13:24.000Z</time>
      </trkpt>
      <trkpt lat="47.41015" lon="6.76154">
        <ele>538</ele>
        <time>2015-11-11T10:13:25.000Z</time>
      </trkpt>
      <trkpt lat="47.41017" lon="6.76149">
        <ele>538</ele>
        <time>2015-11-11T10:13:27.000Z</time>
      </trkpt>
      <trkpt lat="47.41017" lon="6.76144">
        <ele>539</ele>
        <time>2015-11-11T10:13:28.000Z</time>
      </trkpt>
      <trkpt lat="47.41017" lon="6.76141">
        <ele>539</ele>
        <time>2015-11-11T10:13:29.000Z</time>
      </trkpt>
      <trkpt lat="47.41017" lon="6.76137">
        <ele>539</ele>
        <time>2015-11-11T10:13:30.000Z</time>
      </trkpt>
      <trkpt lat="47.41017" lon="6.76133">
        <ele>539</ele>
        <time>2015-11-11T10:13:31.000Z</time>
      </trkpt>
      <trkpt lat="47.41017" lon="6.76129">
        <ele>539</ele>
        <time>2015-11-11T10:13:32.000Z</time>
      </trkpt>
      <trkpt lat="47.41017" lon="6.76124">
        <ele>539</ele>
        <time>2015-11-11T10:13:33.000Z</time>
      </trkpt>
      <trkpt lat="47.41017" lon="6.76121">
        <ele>539</ele>
        <time>2015-11-11T10:13:34.000Z</time>
      </trkpt>
      <trkpt lat="47.41017" lon="6.76117">
        <ele>539</ele>
        <time>2015-11-11T10:13:35.000Z</time>
      </trkpt>
      <trkpt lat="47.41018" lon="6.76114">
        <ele>539</ele>
        <time>2015-11-11T10:13:36.000Z</time>
      </trkpt>
      <trkpt lat="47.41018" lon="6.7611">
        <ele>539</ele>
        <time>2015-11-11T10:13:37.000Z</time>
      </trkpt>
      <trkpt lat="47.41017" lon="6.76106">
        <ele>539</ele>
        <time>2015-11-11T10:13:38.000Z</time>
      </trkpt>
      <trkpt lat="47.41016" lon="6.76102">
        <ele>539</ele>
        <time>2015-11-11T10:13:39.000Z</time>
      </trkpt>
      <trkpt lat="47.41015" lon="6.76098">
        <ele>539</ele>
        <time>2015-11-11T10:13:40.000Z</time>
      </trkpt>
      <trkpt lat="47.41015" lon="6.76092">
        <ele>539</ele>
        <time>2015-11-11T10:13:42.000Z</time>
      </trkpt>
      <trkpt lat="47.41015" lon="6.76088">
        <ele>539</ele>
        <time>2015-11-11T10:13:43.000Z</time>
      </trkpt>
      <trkpt lat="47.41016" lon="6.76084">
        <ele>539</ele>
        <time>2015-11-11T10:13:44.000Z</time>
      </trkpt>
      <trkpt lat="47.41016" lon="6.76079">
        <ele>541</ele>
        <time>2015-11-11T10:13:45.000Z</time>
      </trkpt>
      <trkpt lat="47.41016" lon="6.76074">
        <ele>542</ele>
        <time>2015-11-11T10:13:46.000Z</time>
      </trkpt>
      <trkpt lat="47.41016" lon="6.76069">
        <ele>542</ele>
        <time>2015-11-11T10:13:47.000Z</time>
      </trkpt>
      <trkpt lat="47.41015" lon="6.76064">
        <ele>543</ele>
        <time>2015-11-11T10:13:48.000Z</time>
      </trkpt>
      <trkpt lat="47.41014" lon="6.76058">
        <ele>543</ele>
        <time>2015-11-11T10:13:49.000Z</time>
      </trkpt>
      <trkpt lat="47.41014" lon="6.76053">
        <ele>543</ele>
        <time>2015-11-11T10:13:50.000Z</time>
      </trkpt>
      <trkpt lat="47.41013" lon="6.76047">
        <ele>544</ele>
        <time>2015-11-11T10:13:51.000Z</time>
      </trkpt>
      <trkpt lat="47.41012" lon="6.76043">
        <ele>544</ele>
        <time>2015-11-11T10:13:52.000Z</time>
      </trkpt>
      <trkpt lat="47.41012" lon="6.76039">
        <ele>544</ele>
        <time>2015-11-11T10:13:53.000Z</time>
      </trkpt>
      <trkpt lat="47.41012" lon="6.76034">
        <ele>544</ele>
        <time>2015-11-11T10:13:54.000Z</time>
      </trkpt>
      <trkpt lat="47.41012" lon="6.7603">
        <ele>544</ele>
        <time>2015-11-11T10:13:55.000Z</time>
      </trkpt>
      <trkpt lat="47.41012" lon="6.76026">
        <ele>544</ele>
        <time>2015-11-11T10:13:56.000Z</time>
      </trkpt>
      <trkpt lat="47.41011" lon="6.76022">
        <ele>544</ele>
        <time>2015-11-11T10:13:57.000Z</time>
      </trkpt>
      <trkpt lat="47.41011" lon="6.76017">
        <ele>544</ele>
        <time>2015-11-11T10:13:58.001Z</time>
      </trkpt>
      <trkpt lat="47.4101" lon="6.76013">
        <ele>544</ele>
        <time>2015-11-11T10:13:59.000Z</time>
      </trkpt>
      <trkpt lat="47.4101" lon="6.76008">
        <ele>544</ele>
        <time>2015-11-11T10:14:00.000Z</time>
      </trkpt>
      <trkpt lat="47.4101" lon="6.76004">
        <ele>544</ele>
        <time>2015-11-11T10:14:01.000Z</time>
      </trkpt>
      <trkpt lat="47.4101" lon="6.75999">
        <ele>545</ele>
        <time>2015-11-11T10:14:02.000Z</time>
      </trkpt>
      <trkpt lat="47.41009" lon="6.75994">
        <ele>546</ele>
        <time>2015-11-11T10:14:03.000Z</time>
      </trkpt>
      <trkpt lat="47.41008" lon="6.75989">
        <ele>546</ele>
        <time>2015-11-11T10:14:04.000Z</time>
      </trkpt>
      <trkpt lat="47.41007" lon="6.75985">
        <ele>547</ele>
        <time>2015-11-11T10:14:05.000Z</time>
      </trkpt>
      <trkpt lat="47.41007" lon="6.75981">
        <ele>547</ele>
        <time>2015-11-11T10:14:06.000Z</time>
      </trkpt>
      <trkpt lat="47.41007" lon="6.75977">
        <ele>548</ele>
        <time>2015-11-11T10:14:07.000Z</time>
      </trkpt>
      <trkpt lat="47.41007" lon="6.75973">
        <ele>548</ele>
        <time>2015-11-11T10:14:08.000Z</time>
      </trkpt>
      <trkpt lat="47.41007" lon="6.7597">
        <ele>548</ele>
        <time>2015-11-11T10:14:09.000Z</time>
      </trkpt>
      <trkpt lat="47.41007" lon="6.75966">
        <ele>548</ele>
        <time>2015-11-11T10:14:10.000Z</time>
      </trkpt>
      <trkpt lat="47.41007" lon="6.75962">
        <ele>549</ele>
        <time>2015-11-11T10:14:11.000Z</time>
      </trkpt>
      <trkpt lat="47.41007" lon="6.75958">
        <ele>549</ele>
        <time>2015-11-11T10:14:12.000Z</time>
      </trkpt>
      <trkpt lat="47.41006" lon="6.75955">
        <ele>549</ele>
        <time>2015-11-11T10:14:13.000Z</time>
      </trkpt>
      <trkpt lat="47.41006" lon="6.75951">
        <ele>549</ele>
        <time>2015-11-11T10:14:14.000Z</time>
      </trkpt>
      <trkpt lat="47.41006" lon="6.75948">
        <ele>549</ele>
        <time>2015-11-11T10:14:15.000Z</time>
      </trkpt>
      <trkpt lat="47.41007" lon="6.75944">
        <ele>549</ele>
        <time>2015-11-11T10:14:16.000Z</time>
      </trkpt>
      <trkpt lat="47.41007" lon="6.7594">
        <ele>549</ele>
        <time>2015-11-11T10:14:17.000Z</time>
      </trkpt>
      <trkpt lat="47.41007" lon="6.75934">
        <ele>549</ele>
        <time>2015-11-11T10:14:19.000Z</time>
      </trkpt>
      <trkpt lat="47.41008" lon="6.75932">
        <ele>549</ele>
        <time>2015-11-11T10:14:20.000Z</time>
      </trkpt>
      <trkpt lat="47.41008" lon="6.75927">
        <ele>549</ele>
        <time>2015-11-11T10:14:22.000Z</time>
      </trkpt>
      <trkpt lat="47.41008" lon="6.75924">
        <ele>549</ele>
        <time>2015-11-11T10:14:23.000Z</time>
      </trkpt>
      <trkpt lat="47.41009" lon="6.75921">
        <ele>549</ele>
        <time>2015-11-11T10:14:24.000Z</time>
      </trkpt>
      <trkpt lat="47.41009" lon="6.75917">
        <ele>549</ele>
        <time>2015-11-11T10:14:25.000Z</time>
      </trkpt>
      <trkpt lat="47.41009" lon="6.75914">
        <ele>549</ele>
        <time>2015-11-11T10:14:26.000Z</time>
      </trkpt>
      <trkpt lat="47.4101" lon="6.7591">
        <ele>550</ele>
        <time>2015-11-11T10:14:27.000Z</time>
      </trkpt>
      <trkpt lat="47.4101" lon="6.75906">
        <ele>550</ele>
        <time>2015-11-11T10:14:28.000Z</time>
      </trkpt>
      <trkpt lat="47.41011" lon="6.75902">
        <ele>550</ele>
        <time>2015-11-11T10:14:29.000Z</time>
      </trkpt>
      <trkpt lat="47.41012" lon="6.75898">
        <ele>551</ele>
        <time>2015-11-11T10:14:30.000Z</time>
      </trkpt>
      <trkpt lat="47.41013" lon="6.75894">
        <ele>551</ele>
        <time>2015-11-11T10:14:31.000Z</time>
      </trkpt>
      <trkpt lat="47.41014" lon="6.7589">
        <ele>551</ele>
        <time>2015-11-11T10:14:32.000Z</time>
      </trkpt>
      <trkpt lat="47.41014" lon="6.75887">
        <ele>551</ele>
        <time>2015-11-11T10:14:33.000Z</time>
      </trkpt>
      <trkpt lat="47.41014" lon="6.75883">
        <ele>551</ele>
        <time>2015-11-11T10:14:34.000Z</time>
      </trkpt>
      <trkpt lat="47.41015" lon="6.75879">
        <ele>551</ele>
        <time>2015-11-11T10:14:35.000Z</time>
      </trkpt>
      <trkpt lat="47.41014" lon="6.75873">
        <ele>551</ele>
        <time>2015-11-11T10:14:37.000Z</time>
      </trkpt>
      <trkpt lat="47.41014" lon="6.7587">
        <ele>551</ele>
        <time>2015-11-11T10:14:38.000Z</time>
      </trkpt>
      <trkpt lat="47.41013" lon="6.75866">
        <ele>551</ele>
        <time>2015-11-11T10:14:39.000Z</time>
      </trkpt>
      <trkpt lat="47.41013" lon="6.75863">
        <ele>551</ele>
        <time>2015-11-11T10:14:40.000Z</time>
      </trkpt>
      <trkpt lat="47.41013" lon="6.75859">
        <ele>551</ele>
        <time>2015-11-11T10:14:41.000Z</time>
      </trkpt>
      <trkpt lat="47.41013" lon="6.75856">
        <ele>551</ele>
        <time>2015-11-11T10:14:42.000Z</time>
      </trkpt>
      <trkpt lat="47.41014" lon="6.75849">
        <ele>551</ele>
        <time>2015-11-11T10:14:44.000Z</time>
      </trkpt>
      <trkpt lat="47.41016" lon="6.75846">
        <ele>551</ele>
        <time>2015-11-11T10:14:45.000Z</time>
      </trkpt>
      <trkpt lat="47.41017" lon="6.75843">
        <ele>551</ele>
        <time>2015-11-11T10:14:46.000Z</time>
      </trkpt>
      <trkpt lat="47.41018" lon="6.7584">
        <ele>551</ele>
        <time>2015-11-11T10:14:47.000Z</time>
      </trkpt>
      <trkpt lat="47.41019" lon="6.75836">
        <ele>551</ele>
        <time>2015-11-11T10:14:48.000Z</time>
      </trkpt>
      <trkpt lat="47.4102" lon="6.75832">
        <ele>551</ele>
        <time>2015-11-11T10:14:49.000Z</time>
      </trkpt>
      <trkpt lat="47.4102" lon="6.75828">
        <ele>551</ele>
        <time>2015-11-11T10:14:50.000Z</time>
      </trkpt>
      <trkpt lat="47.4102" lon="6.75824">
        <ele>551</ele>
        <time>2015-11-11T10:14:51.000Z</time>
      </trkpt>
      <trkpt lat="47.41021" lon="6.7582">
        <ele>552</ele>
        <time>2015-11-11T10:14:52.000Z</time>
      </trkpt>
      <trkpt lat="47.41021" lon="6.75815">
        <ele>552</ele>
        <time>2015-11-11T10:14:53.000Z</time>
      </trkpt>
      <trkpt lat="47.41022" lon="6.7581">
        <ele>552</ele>
        <time>2015-11-11T10:14:54.000Z</time>
      </trkpt>
      <trkpt lat="47.41023" lon="6.75804">
        <ele>552</ele>
        <time>2015-11-11T10:14:55.000Z</time>
      </trkpt>
      <trkpt lat="47.41024" lon="6.75799">
        <ele>553</ele>
        <time>2015-11-11T10:14:56.000Z</time>
      </trkpt>
      <trkpt lat="47.41025" lon="6.75794">
        <ele>553</ele>
        <time>2015-11-11T10:14:57.000Z</time>
      </trkpt>
      <trkpt lat="47.41026" lon="6.75789">
        <ele>553</ele>
        <time>2015-11-11T10:14:58.000Z</time>
      </trkpt>
      <trkpt lat="47.41027" lon="6.75784">
        <ele>553</ele>
        <time>2015-11-11T10:14:59.000Z</time>
      </trkpt>
      <trkpt lat="47.41027" lon="6.75779">
        <ele>553</ele>
        <time>2015-11-11T10:15:00.000Z</time>
      </trkpt>
      <trkpt lat="47.41027" lon="6.75775">
        <ele>553</ele>
        <time>2015-11-11T10:15:01.000Z</time>
      </trkpt>
      <trkpt lat="47.41028" lon="6.75771">
        <ele>553</ele>
        <time>2015-11-11T10:15:02.000Z</time>
      </trkpt>
      <trkpt lat="47.41027" lon="6.75766">
        <ele>553</ele>
        <time>2015-11-11T10:15:03.000Z</time>
      </trkpt>
      <trkpt lat="47.41027" lon="6.75762">
        <ele>553</ele>
        <time>2015-11-11T10:15:04.000Z</time>
      </trkpt>
      <trkpt lat="47.41026" lon="6.75758">
        <ele>553</ele>
        <time>2015-11-11T10:15:05.000Z</time>
      </trkpt>
      <trkpt lat="47.41026" lon="6.75754">
        <ele>553</ele>
        <time>2015-11-11T10:15:06.000Z</time>
      </trkpt>
      <trkpt lat="47.41025" lon="6.7575">
        <ele>554</ele>
        <time>2015-11-11T10:15:07.000Z</time>
      </trkpt>
      <trkpt lat="47.41025" lon="6.75746">
        <ele>554</ele>
        <time>2015-11-11T10:15:08.000Z</time>
      </trkpt>
      <trkpt lat="47.41025" lon="6.75741">
        <ele>554</ele>
        <time>2015-11-11T10:15:09.000Z</time>
      </trkpt>
      <trkpt lat="47.41025" lon="6.75737">
        <ele>554</ele>
        <time>2015-11-11T10:15:10.000Z</time>
      </trkpt>
      <trkpt lat="47.41025" lon="6.75733">
        <ele>555</ele>
        <time>2015-11-11T10:15:11.000Z</time>
      </trkpt>
      <trkpt lat="47.41025" lon="6.75728">
        <ele>555</ele>
        <time>2015-11-11T10:15:12.000Z</time>
      </trkpt>
      <trkpt lat="47.41025" lon="6.75723">
        <ele>555</ele>
        <time>2015-11-11T10:15:13.000Z</time>
      </trkpt>
      <trkpt lat="47.41025" lon="6.75719">
        <ele>555</ele>
        <time>2015-11-11T10:15:14.000Z</time>
      </trkpt>
      <trkpt lat="47.41024" lon="6.75714">
        <ele>555</ele>
        <time>2015-11-11T10:15:15.000Z</time>
      </trkpt>
      <trkpt lat="47.41024" lon="6.7571">
        <ele>555</ele>
        <time>2015-11-11T10:15:16.000Z</time>
      </trkpt>
      <trkpt lat="47.41025" lon="6.75707">
        <ele>555</ele>
        <time>2015-11-11T10:15:17.000Z</time>
      </trkpt>
      <trkpt lat="47.41025" lon="6.75701">
        <ele>555</ele>
        <time>2015-11-11T10:15:19.000Z</time>
      </trkpt>
      <trkpt lat="47.41025" lon="6.75699">
        <ele>555</ele>
        <time>2015-11-11T10:15:20.000Z</time>
      </trkpt>
      <trkpt lat="47.41024" lon="6.75693">
        <ele>555</ele>
        <time>2015-11-11T10:15:22.000Z</time>
      </trkpt>
      <trkpt lat="47.41024" lon="6.75691">
        <ele>555</ele>
        <time>2015-11-11T10:15:23.000Z</time>
      </trkpt>
      <trkpt lat="47.41027" lon="6.75686">
        <ele>556</ele>
        <time>2015-11-11T10:16:47.000Z</time>
      </trkpt>
      <trkpt lat="47.41027" lon="6.75686">
        <ele>556</ele>
        <time>2015-11-11T10:16:48.000Z</time>
      </trkpt>
      <trkpt lat="47.41028" lon="6.7568">
        <ele>556</ele>
        <time>2015-11-11T10:21:16.000Z</time>
      </trkpt>
      <trkpt lat="47.41028" lon="6.7568">
        <ele>556</ele>
        <time>2015-11-11T10:21:17.000Z</time>
      </trkpt>
      <trkpt lat="47.41032" lon="6.75679">
        <ele>556</ele>
        <time>2015-11-11T10:21:24.000Z</time>
      </trkpt>
      <trkpt lat="47.41033" lon="6.75679">
        <ele>556</ele>
        <time>2015-11-11T10:21:25.000Z</time>
      </trkpt>
      <trkpt lat="47.41036" lon="6.75681">
        <ele>556</ele>
        <time>2015-11-11T10:21:28.000Z</time>
      </trkpt>
      <trkpt lat="47.41037" lon="6.75681">
        <ele>556</ele>
        <time>2015-11-11T10:21:29.000Z</time>
      </trkpt>
      <trkpt lat="47.41041" lon="6.75682">
        <ele>556</ele>
        <time>2015-11-11T10:21:31.000Z</time>
      </trkpt>
      <trkpt lat="47.41042" lon="6.75683">
        <ele>556</ele>
        <time>2015-11-11T10:21:32.000Z</time>
      </trkpt>
      <trkpt lat="47.41044" lon="6.75684">
        <ele>556</ele>
        <time>2015-11-11T10:21:33.000Z</time>
      </trkpt>
      <trkpt lat="47.41046" lon="6.75686">
        <ele>556</ele>
        <time>2015-11-11T10:21:34.000Z</time>
      </trkpt>
      <trkpt lat="47.41049" lon="6.75688">
        <ele>556</ele>
        <time>2015-11-11T10:21:35.000Z</time>
      </trkpt>
      <trkpt lat="47.41051" lon="6.75691">
        <ele>556</ele>
        <time>2015-11-11T10:21:36.000Z</time>
      </trkpt>
      <trkpt lat="47.41054" lon="6.75693">
        <ele>556</ele>
        <time>2015-11-11T10:21:37.000Z</time>
      </trkpt>
      <trkpt lat="47.41057" lon="6.75696">
        <ele>556</ele>
        <time>2015-11-11T10:21:38.000Z</time>
      </trkpt>
      <trkpt lat="47.41061" lon="6.75699">
        <ele>556</ele>
        <time>2015-11-11T10:21:39.000Z</time>
      </trkpt>
      <trkpt lat="47.41064" lon="6.75702">
        <ele>557</ele>
        <time>2015-11-11T10:21:40.000Z</time>
      </trkpt>
      <trkpt lat="47.41067" lon="6.75704">
        <ele>557</ele>
        <time>2015-11-11T10:21:41.000Z</time>
      </trkpt>
      <trkpt lat="47.4107" lon="6.75706">
        <ele>557</ele>
        <time>2015-11-11T10:21:42.000Z</time>
      </trkpt>
      <trkpt lat="47.41073" lon="6.75707">
        <ele>557</ele>
        <time>2015-11-11T10:21:43.000Z</time>
      </trkpt>
      <trkpt lat="47.41076" lon="6.75708">
        <ele>557</ele>
        <time>2015-11-11T10:21:44.000Z</time>
      </trkpt>
      <trkpt lat="47.41079" lon="6.75708">
        <ele>557</ele>
        <time>2015-11-11T10:21:45.000Z</time>
      </trkpt>
      <trkpt lat="47.41082" lon="6.75709">
        <ele>557</ele>
        <time>2015-11-11T10:21:46.000Z</time>
      </trkpt>
      <trkpt lat="47.41085" lon="6.75709">
        <ele>560</ele>
        <time>2015-11-11T10:21:47.000Z</time>
      </trkpt>
      <trkpt lat="47.41088" lon="6.75709">
        <ele>560</ele>
        <time>2015-11-11T10:21:48.000Z</time>
      </trkpt>
      <trkpt lat="47.41091" lon="6.75708">
        <ele>560</ele>
        <time>2015-11-11T10:21:49.000Z</time>
      </trkpt>
      <trkpt lat="47.41093" lon="6.75708">
        <ele>560</ele>
        <time>2015-11-11T10:21:50.000Z</time>
      </trkpt>
      <trkpt lat="47.41097" lon="6.75708">
        <ele>560</ele>
        <time>2015-11-11T10:21:52.000Z</time>
      </trkpt>
      <trkpt lat="47.41099" lon="6.75708">
        <ele>560</ele>
        <time>2015-11-11T10:21:53.000Z</time>
      </trkpt>
      <trkpt lat="47.41103" lon="6.75709">
        <ele>560</ele>
        <time>2015-11-11T10:21:55.000Z</time>
      </trkpt>
      <trkpt lat="47.41105" lon="6.7571">
        <ele>560</ele>
        <time>2015-11-11T10:21:56.000Z</time>
      </trkpt>
      <trkpt lat="47.41108" lon="6.7571">
        <ele>560</ele>
        <time>2015-11-11T10:21:57.000Z</time>
      </trkpt>
      <trkpt lat="47.4111" lon="6.7571">
        <ele>560</ele>
        <time>2015-11-11T10:21:58.000Z</time>
      </trkpt>
      <trkpt lat="47.41113" lon="6.75711">
        <ele>560</ele>
        <time>2015-11-11T10:21:59.000Z</time>
      </trkpt>
      <trkpt lat="47.41115" lon="6.75712">
        <ele>560</ele>
        <time>2015-11-11T10:22:00.000Z</time>
      </trkpt>
      <trkpt lat="47.41119" lon="6.75715">
        <ele>560</ele>
        <time>2015-11-11T10:22:02.000Z</time>
      </trkpt>
      <trkpt lat="47.4112" lon="6.75717">
        <ele>560</ele>
        <time>2015-11-11T10:22:03.000Z</time>
      </trkpt>
      <trkpt lat="47.41123" lon="6.7572">
        <ele>560</ele>
        <time>2015-11-11T10:22:05.000Z</time>
      </trkpt>
      <trkpt lat="47.41126" lon="6.75722">
        <ele>560</ele>
        <time>2015-11-11T10:22:06.000Z</time>
      </trkpt>
      <trkpt lat="47.41128" lon="6.75723">
        <ele>561</ele>
        <time>2015-11-11T10:22:07.000Z</time>
      </trkpt>
      <trkpt lat="47.41131" lon="6.75725">
        <ele>561</ele>
        <time>2015-11-11T10:22:08.000Z</time>
      </trkpt>
      <trkpt lat="47.41134" lon="6.75726">
        <ele>561</ele>
        <time>2015-11-11T10:22:09.000Z</time>
      </trkpt>
      <trkpt lat="47.41137" lon="6.75727">
        <ele>561</ele>
        <time>2015-11-11T10:22:10.000Z</time>
      </trkpt>
      <trkpt lat="47.4114" lon="6.75729">
        <ele>561</ele>
        <time>2015-11-11T10:22:11.000Z</time>
      </trkpt>
      <trkpt lat="47.41143" lon="6.75731">
        <ele>561</ele>
        <time>2015-11-11T10:22:12.000Z</time>
      </trkpt>
      <trkpt lat="47.41146" lon="6.75733">
        <ele>561</ele>
        <time>2015-11-11T10:22:14.000Z</time>
      </trkpt>
      <trkpt lat="47.41147" lon="6.75734">
        <ele>561</ele>
        <time>2015-11-11T10:22:15.000Z</time>
      </trkpt>
      <trkpt lat="47.41149" lon="6.75735">
        <ele>561</ele>
        <time>2015-11-11T10:22:17.000Z</time>
      </trkpt>
      <trkpt lat="47.41152" lon="6.75736">
        <ele>561</ele>
        <time>2015-11-11T10:22:18.000Z</time>
      </trkpt>
      <trkpt lat="47.41155" lon="6.75736">
        <ele>561</ele>
        <time>2015-11-11T10:22:19.000Z</time>
      </trkpt>
      <trkpt lat="47.41158" lon="6.75738">
        <ele>561</ele>
        <time>2015-11-11T10:22:20.000Z</time>
      </trkpt>
      <trkpt lat="47.41162" lon="6.75739">
        <ele>561</ele>
        <time>2015-11-11T10:22:21.000Z</time>
      </trkpt>
      <trkpt lat="47.41166" lon="6.7574">
        <ele>562</ele>
        <time>2015-11-11T10:22:22.000Z</time>
      </trkpt>
      <trkpt lat="47.41168" lon="6.75742">
        <ele>563</ele>
        <time>2015-11-11T10:22:23.000Z</time>
      </trkpt>
      <trkpt lat="47.4117" lon="6.75743">
        <ele>563</ele>
        <time>2015-11-11T10:22:24.000Z</time>
      </trkpt>
      <trkpt lat="47.41172" lon="6.75745">
        <ele>563</ele>
        <time>2015-11-11T10:22:26.000Z</time>
      </trkpt>
      <trkpt lat="47.41174" lon="6.75747">
        <ele>563</ele>
        <time>2015-11-11T10:22:27.000Z</time>
      </trkpt>
      <trkpt lat="47.41174" lon="6.75748">
        <ele>563</ele>
        <time>2015-11-11T10:22:28.001Z</time>
      </trkpt>
      <trkpt lat="47.41179" lon="6.75748">
        <ele>563</ele>
        <time>2015-11-11T10:22:29.000Z</time>
      </trkpt>
      <trkpt lat="47.41183" lon="6.7575">
        <ele>564</ele>
        <time>2015-11-11T10:22:30.000Z</time>
      </trkpt>
      <trkpt lat="47.41187" lon="6.75751">
        <ele>563</ele>
        <time>2015-11-11T10:22:31.000Z</time>
      </trkpt>
      <trkpt lat="47.41191" lon="6.75752">
        <ele>564</ele>
        <time>2015-11-11T10:22:32.000Z</time>
      </trkpt>
      <trkpt lat="47.41195" lon="6.75754">
        <ele>564</ele>
        <time>2015-11-11T10:22:33.000Z</time>
      </trkpt>
      <trkpt lat="47.41199" lon="6.75754">
        <ele>564</ele>
        <time>2015-11-11T10:22:34.000Z</time>
      </trkpt>
      <trkpt lat="47.41203" lon="6.75755">
        <ele>564</ele>
        <time>2015-11-11T10:22:35.000Z</time>
      </trkpt>
      <trkpt lat="47.41206" lon="6.75756">
        <ele>564</ele>
        <time>2015-11-11T10:22:36.000Z</time>
      </trkpt>
      <trkpt lat="47.4121" lon="6.75756">
        <ele>564</ele>
        <time>2015-11-11T10:22:37.000Z</time>
      </trkpt>
      <trkpt lat="47.41214" lon="6.75757">
        <ele>565</ele>
        <time>2015-11-11T10:22:38.000Z</time>
      </trkpt>
      <trkpt lat="47.41218" lon="6.75758">
        <ele>565</ele>
        <time>2015-11-11T10:22:39.000Z</time>
      </trkpt>
      <trkpt lat="47.41222" lon="6.75759">
        <ele>565</ele>
        <time>2015-11-11T10:22:40.000Z</time>
      </trkpt>
      <trkpt lat="47.41225" lon="6.7576">
        <ele>565</ele>
        <time>2015-11-11T10:22:41.000Z</time>
      </trkpt>
      <trkpt lat="47.41228" lon="6.75761">
        <ele>565</ele>
        <time>2015-11-11T10:22:42.000Z</time>
      </trkpt>
      <trkpt lat="47.41231" lon="6.75762">
        <ele>565</ele>
        <time>2015-11-11T10:22:43.000Z</time>
      </trkpt>
      <trkpt lat="47.41234" lon="6.75763">
        <ele>565</ele>
        <time>2015-11-11T10:22:44.000Z</time>
      </trkpt>
      <trkpt lat="47.41237" lon="6.75764">
        <ele>565</ele>
        <time>2015-11-11T10:22:45.000Z</time>
      </trkpt>
      <trkpt lat="47.41241" lon="6.75766">
        <ele>566</ele>
        <time>2015-11-11T10:22:47.000Z</time>
      </trkpt>
      <trkpt lat="47.41242" lon="6.75767">
        <ele>566</ele>
        <time>2015-11-11T10:22:48.000Z</time>
      </trkpt>
      <trkpt lat="47.41246" lon="6.75769">
        <ele>566</ele>
        <time>2015-11-11T10:22:50.000Z</time>
      </trkpt>
      <trkpt lat="47.41247" lon="6.7577">
        <ele>566</ele>
        <time>2015-11-11T10:22:51.000Z</time>
      </trkpt>
      <trkpt lat="47.41251" lon="6.7577">
        <ele>567</ele>
        <time>2015-11-11T10:22:54.000Z</time>
      </trkpt>
      <trkpt lat="47.41254" lon="6.7577">
        <ele>567</ele>
        <time>2015-11-11T10:22:55.000Z</time>
      </trkpt>
      <trkpt lat="47.41257" lon="6.75771">
        <ele>567</ele>
        <time>2015-11-11T10:22:56.000Z</time>
      </trkpt>
      <trkpt lat="47.41261" lon="6.75772">
        <ele>567</ele>
        <time>2015-11-11T10:22:57.000Z</time>
      </trkpt>
      <trkpt lat="47.41265" lon="6.75772">
        <ele>567</ele>
        <time>2015-11-11T10:22:58.000Z</time>
      </trkpt>
      <trkpt lat="47.41268" lon="6.75773">
        <ele>567</ele>
        <time>2015-11-11T10:22:59.000Z</time>
      </trkpt>
      <trkpt lat="47.41274" lon="6.75773">
        <ele>567</ele>
        <time>2015-11-11T10:23:00.000Z</time>
      </trkpt>
      <trkpt lat="47.41278" lon="6.75775">
        <ele>567</ele>
        <time>2015-11-11T10:23:01.000Z</time>
      </trkpt>
      <trkpt lat="47.41282" lon="6.75777">
        <ele>567</ele>
        <time>2015-11-11T10:23:02.000Z</time>
      </trkpt>
      <trkpt lat="47.41287" lon="6.75779">
        <ele>567</ele>
        <time>2015-11-11T10:23:03.000Z</time>
      </trkpt>
      <trkpt lat="47.4129" lon="6.75781">
        <ele>567</ele>
        <time>2015-11-11T10:23:04.000Z</time>
      </trkpt>
      <trkpt lat="47.41294" lon="6.75783">
        <ele>567</ele>
        <time>2015-11-11T10:23:05.000Z</time>
      </trkpt>
      <trkpt lat="47.41297" lon="6.75784">
        <ele>567</ele>
        <time>2015-11-11T10:23:06.000Z</time>
      </trkpt>
      <trkpt lat="47.413" lon="6.75785">
        <ele>567</ele>
        <time>2015-11-11T10:23:07.000Z</time>
      </trkpt>
      <trkpt lat="47.41303" lon="6.75785">
        <ele>567</ele>
        <time>2015-11-11T10:23:08.000Z</time>
      </trkpt>
      <trkpt lat="47.41306" lon="6.75786">
        <ele>567</ele>
        <time>2015-11-11T10:23:09.000Z</time>
      </trkpt>
      <trkpt lat="47.41309" lon="6.75786">
        <ele>567</ele>
        <time>2015-11-11T10:23:10.000Z</time>
      </trkpt>
      <trkpt lat="47.41311" lon="6.75787">
        <ele>567</ele>
        <time>2015-11-11T10:23:11.000Z</time>
      </trkpt>
      <trkpt lat="47.41315" lon="6.75786">
        <ele>567</ele>
        <time>2015-11-11T10:23:13.000Z</time>
      </trkpt>
      <trkpt lat="47.41317" lon="6.75785">
        <ele>567</ele>
        <time>2015-11-11T10:23:14.000Z</time>
      </trkpt>
      <trkpt lat="47.41319" lon="6.75782">
        <ele>567</ele>
        <time>2015-11-11T10:23:15.000Z</time>
      </trkpt>
      <trkpt lat="47.4132" lon="6.7578">
        <ele>567</ele>
        <time>2015-11-11T10:23:16.000Z</time>
      </trkpt>
      <trkpt lat="47.41322" lon="6.75776">
        <ele>567</ele>
        <time>2015-11-11T10:23:17.000Z</time>
      </trkpt>
      <trkpt lat="47.41324" lon="6.75773">
        <ele>567</ele>
        <time>2015-11-11T10:23:18.000Z</time>
      </trkpt>
      <trkpt lat="47.41326" lon="6.75768">
        <ele>567</ele>
        <time>2015-11-11T10:23:19.000Z</time>
      </trkpt>
      <trkpt lat="47.41328" lon="6.75763">
        <ele>567</ele>
        <time>2015-11-11T10:23:20.000Z</time>
      </trkpt>
      <trkpt lat="47.4133" lon="6.75758">
        <ele>567</ele>
        <time>2015-11-11T10:23:21.000Z</time>
      </trkpt>
      <trkpt lat="47.41332" lon="6.75753">
        <ele>567</ele>
        <time>2015-11-11T10:23:22.000Z</time>
      </trkpt>
      <trkpt lat="47.41333" lon="6.75748">
        <ele>567</ele>
        <time>2015-11-11T10:23:23.000Z</time>
      </trkpt>
      <trkpt lat="47.41335" lon="6.75743">
        <ele>567</ele>
        <time>2015-11-11T10:23:24.000Z</time>
      </trkpt>
      <trkpt lat="47.41334" lon="6.7573">
        <ele>567</ele>
        <time>2015-11-11T10:23:25.000Z</time>
      </trkpt>
      <trkpt lat="47.41334" lon="6.75725">
        <ele>567</ele>
        <time>2015-11-11T10:23:26.000Z</time>
      </trkpt>
      <trkpt lat="47.41334" lon="6.75717">
        <ele>567</ele>
        <time>2015-11-11T10:23:27.000Z</time>
      </trkpt>
      <trkpt lat="47.41333" lon="6.75713">
        <ele>568</ele>
        <time>2015-11-11T10:23:28.000Z</time>
      </trkpt>
      <trkpt lat="47.41333" lon="6.75708">
        <ele>568</ele>
        <time>2015-11-11T10:23:29.000Z</time>
      </trkpt>
      <trkpt lat="47.41332" lon="6.75705">
        <ele>568</ele>
        <time>2015-11-11T10:23:30.000Z</time>
      </trkpt>
      <trkpt lat="47.41332" lon="6.75701">
        <ele>569</ele>
        <time>2015-11-11T10:23:31.000Z</time>
      </trkpt>
      <trkpt lat="47.41332" lon="6.75698">
        <ele>569</ele>
        <time>2015-11-11T10:23:32.000Z</time>
      </trkpt>
      <trkpt lat="47.41332" lon="6.75694">
        <ele>569</ele>
        <time>2015-11-11T10:23:33.000Z</time>
      </trkpt>
      <trkpt lat="47.41333" lon="6.75686">
        <ele>569</ele>
        <time>2015-11-11T10:23:34.000Z</time>
      </trkpt>
      <trkpt lat="47.41333" lon="6.75682">
        <ele>569</ele>
        <time>2015-11-11T10:23:35.000Z</time>
      </trkpt>
      <trkpt lat="47.41332" lon="6.75678">
        <ele>569</ele>
        <time>2015-11-11T10:23:36.000Z</time>
      </trkpt>
      <trkpt lat="47.41331" lon="6.75674">
        <ele>570</ele>
        <time>2015-11-11T10:23:37.000Z</time>
      </trkpt>
      <trkpt lat="47.4133" lon="6.75671">
        <ele>570</ele>
        <time>2015-11-11T10:23:38.000Z</time>
      </trkpt>
      <trkpt lat="47.41326" lon="6.7566">
        <ele>570</ele>
        <time>2015-11-11T10:23:39.000Z</time>
      </trkpt>
      <trkpt lat="47.41324" lon="6.75654">
        <ele>570</ele>
        <time>2015-11-11T10:23:40.000Z</time>
      </trkpt>
      <trkpt lat="47.41323" lon="6.75648">
        <ele>570</ele>
        <time>2015-11-11T10:23:41.000Z</time>
      </trkpt>
      <trkpt lat="47.4132" lon="6.75641">
        <ele>570</ele>
        <time>2015-11-11T10:23:42.000Z</time>
      </trkpt>
      <trkpt lat="47.4132" lon="6.75637">
        <ele>570</ele>
        <time>2015-11-11T10:23:43.000Z</time>
      </trkpt>
      <trkpt lat="47.41322" lon="6.75632">
        <ele>570</ele>
        <time>2015-11-11T10:23:44.000Z</time>
      </trkpt>
      <trkpt lat="47.41323" lon="6.75629">
        <ele>570</ele>
        <time>2015-11-11T10:23:45.000Z</time>
      </trkpt>
      <trkpt lat="47.41323" lon="6.75625">
        <ele>570</ele>
        <time>2015-11-11T10:23:46.000Z</time>
      </trkpt>
      <trkpt lat="47.41323" lon="6.75621">
        <ele>570</ele>
        <time>2015-11-11T10:23:47.000Z</time>
      </trkpt>
      <trkpt lat="47.41323" lon="6.75615">
        <ele>570</ele>
        <time>2015-11-11T10:23:48.000Z</time>
      </trkpt>
      <trkpt lat="47.41323" lon="6.75611">
        <ele>570</ele>
        <time>2015-11-11T10:23:49.000Z</time>
      </trkpt>
      <trkpt lat="47.41322" lon="6.75608">
        <ele>570</ele>
        <time>2015-11-11T10:23:50.000Z</time>
      </trkpt>
      <trkpt lat="47.41318" lon="6.75606">
        <ele>570</ele>
        <time>2015-11-11T10:23:55.000Z</time>
      </trkpt>
      <trkpt lat="47.41318" lon="6.75605">
        <ele>570</ele>
        <time>2015-11-11T10:23:56.000Z</time>
      </trkpt>
      <trkpt lat="47.41318" lon="6.75599">
        <ele>570</ele>
        <time>2015-11-11T10:23:58.000Z</time>
      </trkpt>
      <trkpt lat="47.41318" lon="6.75596">
        <ele>570</ele>
        <time>2015-11-11T10:23:59.000Z</time>
      </trkpt>
      <trkpt lat="47.41318" lon="6.75592">
        <ele>570</ele>
        <time>2015-11-11T10:24:00.000Z</time>
      </trkpt>
      <trkpt lat="47.41318" lon="6.75588">
        <ele>570</ele>
        <time>2015-11-11T10:24:01.000Z</time>
      </trkpt>
      <trkpt lat="47.41318" lon="6.75584">
        <ele>570</ele>
        <time>2015-11-11T10:24:02.000Z</time>
      </trkpt>
      <trkpt lat="47.41318" lon="6.75581">
        <ele>570</ele>
        <time>2015-11-11T10:24:03.000Z</time>
      </trkpt>
      <trkpt lat="47.41318" lon="6.75576">
        <ele>570</ele>
        <time>2015-11-11T10:24:04.000Z</time>
      </trkpt>
      <trkpt lat="47.41318" lon="6.75572">
        <ele>570</ele>
        <time>2015-11-11T10:24:05.000Z</time>
      </trkpt>
      <trkpt lat="47.41317" lon="6.75567">
        <ele>570</ele>
        <time>2015-11-11T10:24:06.000Z</time>
      </trkpt>
      <trkpt lat="47.41316" lon="6.75561">
        <ele>570</ele>
        <time>2015-11-11T10:24:07.000Z</time>
      </trkpt>
      <trkpt lat="47.41315" lon="6.75556">
        <ele>570</ele>
        <time>2015-11-11T10:24:08.000Z</time>
      </trkpt>
      <trkpt lat="47.41315" lon="6.75551">
        <ele>570</ele>
        <time>2015-11-11T10:24:09.000Z</time>
      </trkpt>
      <trkpt lat="47.41314" lon="6.75546">
        <ele>570</ele>
        <time>2015-11-11T10:24:10.000Z</time>
      </trkpt>
      <trkpt lat="47.41314" lon="6.75542">
        <ele>570</ele>
        <time>2015-11-11T10:24:11.000Z</time>
      </trkpt>
      <trkpt lat="47.41315" lon="6.75538">
        <ele>570</ele>
        <time>2015-11-11T10:24:12.000Z</time>
      </trkpt>
      <trkpt lat="47.41315" lon="6.75535">
        <ele>570</ele>
        <time>2015-11-11T10:24:13.000Z</time>
      </trkpt>
      <trkpt lat="47.41314" lon="6.75531">
        <ele>570</ele>
        <time>2015-11-11T10:24:14.000Z</time>
      </trkpt>
      <trkpt lat="47.41311" lon="6.75527">
        <ele>570</ele>
        <time>2015-11-11T10:24:15.000Z</time>
      </trkpt>
      <trkpt lat="47.4131" lon="6.75523">
        <ele>570</ele>
        <time>2015-11-11T10:24:16.001Z</time>
      </trkpt>
      <trkpt lat="47.41306" lon="6.75516">
        <ele>570</ele>
        <time>2015-11-11T10:24:17.000Z</time>
      </trkpt>
      <trkpt lat="47.41303" lon="6.7551">
        <ele>570</ele>
        <time>2015-11-11T10:24:18.000Z</time>
      </trkpt>
      <trkpt lat="47.41301" lon="6.75504">
        <ele>570</ele>
        <time>2015-11-11T10:24:19.000Z</time>
      </trkpt>
      <trkpt lat="47.41299" lon="6.75499">
        <ele>569</ele>
        <time>2015-11-11T10:24:20.000Z</time>
      </trkpt>
      <trkpt lat="47.41298" lon="6.75494">
        <ele>569</ele>
        <time>2015-11-11T10:24:21.000Z</time>
      </trkpt>
      <trkpt lat="47.41298" lon="6.75489">
        <ele>569</ele>
        <time>2015-11-11T10:24:22.000Z</time>
      </trkpt>
      <trkpt lat="47.41297" lon="6.75485">
        <ele>569</ele>
        <time>2015-11-11T10:24:23.000Z</time>
      </trkpt>
      <trkpt lat="47.41297" lon="6.75481">
        <ele>569</ele>
        <time>2015-11-11T10:24:24.000Z</time>
      </trkpt>
      <trkpt lat="47.41297" lon="6.75476">
        <ele>569</ele>
        <time>2015-11-11T10:24:25.000Z</time>
      </trkpt>
      <trkpt lat="47.41297" lon="6.7547">
        <ele>569</ele>
        <time>2015-11-11T10:24:26.000Z</time>
      </trkpt>
      <trkpt lat="47.41297" lon="6.75464">
        <ele>569</ele>
        <time>2015-11-11T10:24:27.000Z</time>
      </trkpt>
      <trkpt lat="47.41296" lon="6.7546">
        <ele>569</ele>
        <time>2015-11-11T10:24:28.001Z</time>
      </trkpt>
      <trkpt lat="47.41296" lon="6.7545">
        <ele>569</ele>
        <time>2015-11-11T10:24:29.000Z</time>
      </trkpt>
      <trkpt lat="47.41296" lon="6.75443">
        <ele>569</ele>
        <time>2015-11-11T10:24:30.000Z</time>
      </trkpt>
      <trkpt lat="47.41295" lon="6.75436">
        <ele>569</ele>
        <time>2015-11-11T10:24:31.000Z</time>
      </trkpt>
      <trkpt lat="47.41293" lon="6.75428">
        <ele>569</ele>
        <time>2015-11-11T10:24:32.000Z</time>
      </trkpt>
      <trkpt lat="47.41292" lon="6.75422">
        <ele>569</ele>
        <time>2015-11-11T10:24:33.000Z</time>
      </trkpt>
      <trkpt lat="47.4129" lon="6.75415">
        <ele>568</ele>
        <time>2015-11-11T10:24:34.000Z</time>
      </trkpt>
      <trkpt lat="47.41288" lon="6.75409">
        <ele>567</ele>
        <time>2015-11-11T10:24:35.000Z</time>
      </trkpt>
      <trkpt lat="47.41287" lon="6.75403">
        <ele>567</ele>
        <time>2015-11-11T10:24:36.000Z</time>
      </trkpt>
      <trkpt lat="47.41286" lon="6.75398">
        <ele>567</ele>
        <time>2015-11-11T10:24:37.000Z</time>
      </trkpt>
      <trkpt lat="47.41285" lon="6.75392">
        <ele>567</ele>
        <time>2015-11-11T10:24:38.000Z</time>
      </trkpt>
      <trkpt lat="47.41278" lon="6.75374">
        <ele>567</ele>
        <time>2015-11-11T10:24:39.000Z</time>
      </trkpt>
      <trkpt lat="47.41278" lon="6.75368">
        <ele>567</ele>
        <time>2015-11-11T10:24:41.000Z</time>
      </trkpt>
      <trkpt lat="47.41278" lon="6.75363">
        <ele>567</ele>
        <time>2015-11-11T10:24:42.000Z</time>
      </trkpt>
      <trkpt lat="47.41278" lon="6.75357">
        <ele>566</ele>
        <time>2015-11-11T10:24:43.000Z</time>
      </trkpt>
      <trkpt lat="47.41278" lon="6.75352">
        <ele>566</ele>
        <time>2015-11-11T10:24:44.000Z</time>
      </trkpt>
      <trkpt lat="47.41279" lon="6.75348">
        <ele>566</ele>
        <time>2015-11-11T10:24:45.000Z</time>
      </trkpt>
      <trkpt lat="47.41278" lon="6.75341">
        <ele>566</ele>
        <time>2015-11-11T10:24:46.000Z</time>
      </trkpt>
      <trkpt lat="47.41278" lon="6.75335">
        <ele>566</ele>
        <time>2015-11-11T10:24:47.000Z</time>
      </trkpt>
      <trkpt lat="47.41278" lon="6.7533">
        <ele>564</ele>
        <time>2015-11-11T10:24:48.000Z</time>
      </trkpt>
      <trkpt lat="47.41278" lon="6.75324">
        <ele>564</ele>
        <time>2015-11-11T10:24:49.000Z</time>
      </trkpt>
      <trkpt lat="47.41277" lon="6.75317">
        <ele>564</ele>
        <time>2015-11-11T10:24:50.000Z</time>
      </trkpt>
      <trkpt lat="47.41277" lon="6.75311">
        <ele>564</ele>
        <time>2015-11-11T10:24:51.000Z</time>
      </trkpt>
      <trkpt lat="47.41277" lon="6.75305">
        <ele>563</ele>
        <time>2015-11-11T10:24:52.000Z</time>
      </trkpt>
      <trkpt lat="47.41277" lon="6.75297">
        <ele>563</ele>
        <time>2015-11-11T10:24:53.000Z</time>
      </trkpt>
      <trkpt lat="47.41276" lon="6.7529">
        <ele>563</ele>
        <time>2015-11-11T10:24:54.000Z</time>
      </trkpt>
      <trkpt lat="47.41276" lon="6.75283">
        <ele>563</ele>
        <time>2015-11-11T10:24:55.000Z</time>
      </trkpt>
      <trkpt lat="47.41274" lon="6.75277">
        <ele>563</ele>
        <time>2015-11-11T10:24:56.000Z</time>
      </trkpt>
      <trkpt lat="47.41273" lon="6.75271">
        <ele>563</ele>
        <time>2015-11-11T10:24:57.000Z</time>
      </trkpt>
      <trkpt lat="47.41271" lon="6.75265">
        <ele>563</ele>
        <time>2015-11-11T10:24:58.000Z</time>
      </trkpt>
      <trkpt lat="47.41269" lon="6.75259">
        <ele>563</ele>
        <time>2015-11-11T10:24:59.000Z</time>
      </trkpt>
      <trkpt lat="47.41268" lon="6.75254">
        <ele>563</ele>
        <time>2015-11-11T10:25:00.000Z</time>
      </trkpt>
      <trkpt lat="47.41268" lon="6.7525">
        <ele>562</ele>
        <time>2015-11-11T10:25:01.000Z</time>
      </trkpt>
      <trkpt lat="47.41266" lon="6.75244">
        <ele>562</ele>
        <time>2015-11-11T10:25:02.000Z</time>
      </trkpt>
      <trkpt lat="47.41263" lon="6.75239">
        <ele>562</ele>
        <time>2015-11-11T10:25:03.000Z</time>
      </trkpt>
      <trkpt lat="47.41261" lon="6.75234">
        <ele>561</ele>
        <time>2015-11-11T10:25:04.000Z</time>
      </trkpt>
      <trkpt lat="47.41259" lon="6.75229">
        <ele>561</ele>
        <time>2015-11-11T10:25:05.000Z</time>
      </trkpt>
      <trkpt lat="47.41258" lon="6.75224">
        <ele>561</ele>
        <time>2015-11-11T10:25:06.000Z</time>
      </trkpt>
      <trkpt lat="47.41257" lon="6.7522">
        <ele>561</ele>
        <time>2015-11-11T10:25:07.000Z</time>
      </trkpt>
      <trkpt lat="47.41257" lon="6.75214">
        <ele>561</ele>
        <time>2015-11-11T10:25:09.000Z</time>
      </trkpt>
      <trkpt lat="47.41258" lon="6.7521">
        <ele>561</ele>
        <time>2015-11-11T10:25:10.000Z</time>
      </trkpt>
      <trkpt lat="47.41258" lon="6.75204">
        <ele>560</ele>
        <time>2015-11-11T10:25:12.000Z</time>
      </trkpt>
      <trkpt lat="47.41259" lon="6.75202">
        <ele>560</ele>
        <time>2015-11-11T10:25:13.000Z</time>
      </trkpt>
      <trkpt lat="47.4126" lon="6.75196">
        <ele>560</ele>
        <time>2015-11-11T10:25:15.000Z</time>
      </trkpt>
      <trkpt lat="47.41261" lon="6.75193">
        <ele>560</ele>
        <time>2015-11-11T10:25:16.000Z</time>
      </trkpt>
      <trkpt lat="47.41262" lon="6.7519">
        <ele>560</ele>
        <time>2015-11-11T10:25:17.000Z</time>
      </trkpt>
      <trkpt lat="47.41264" lon="6.75187">
        <ele>561</ele>
        <time>2015-11-11T10:25:18.000Z</time>
      </trkpt>
      <trkpt lat="47.41265" lon="6.75184">
        <ele>561</ele>
        <time>2015-11-11T10:25:19.000Z</time>
      </trkpt>
      <trkpt lat="47.41266" lon="6.7518">
        <ele>561</ele>
        <time>2015-11-11T10:25:20.000Z</time>
      </trkpt>
      <trkpt lat="47.41268" lon="6.75175">
        <ele>561</ele>
        <time>2015-11-11T10:25:21.000Z</time>
      </trkpt>
      <trkpt lat="47.41269" lon="6.7517">
        <ele>561</ele>
        <time>2015-11-11T10:25:22.000Z</time>
      </trkpt>
      <trkpt lat="47.41269" lon="6.75153">
        <ele>558</ele>
        <time>2015-11-11T10:25:23.000Z</time>
      </trkpt>
      <trkpt lat="47.41268" lon="6.75145">
        <ele>558</ele>
        <time>2015-11-11T10:25:24.000Z</time>
      </trkpt>
      <trkpt lat="47.41269" lon="6.75135">
        <ele>557</ele>
        <time>2015-11-11T10:25:25.000Z</time>
      </trkpt>
      <trkpt lat="47.41268" lon="6.75125">
        <ele>557</ele>
        <time>2015-11-11T10:25:26.000Z</time>
      </trkpt>
      <trkpt lat="47.41268" lon="6.75115">
        <ele>557</ele>
        <time>2015-11-11T10:25:27.000Z</time>
      </trkpt>
      <trkpt lat="47.41266" lon="6.75107">
        <ele>557</ele>
        <time>2015-11-11T10:25:28.000Z</time>
      </trkpt>
      <trkpt lat="47.41266" lon="6.75098">
        <ele>557</ele>
        <time>2015-11-11T10:25:29.000Z</time>
      </trkpt>
      <trkpt lat="47.41265" lon="6.75088">
        <ele>558</ele>
        <time>2015-11-11T10:25:30.000Z</time>
      </trkpt>
      <trkpt lat="47.41265" lon="6.75078">
        <ele>556</ele>
        <time>2015-11-11T10:25:31.000Z</time>
      </trkpt>
      <trkpt lat="47.41263" lon="6.75068">
        <ele>555</ele>
        <time>2015-11-11T10:25:32.000Z</time>
      </trkpt>
      <trkpt lat="47.41261" lon="6.75058">
        <ele>554</ele>
        <time>2015-11-11T10:25:33.000Z</time>
      </trkpt>
      <trkpt lat="47.41259" lon="6.75048">
        <ele>553</ele>
        <time>2015-11-11T10:25:33.999Z</time>
      </trkpt>
      <trkpt lat="47.41258" lon="6.75037">
        <ele>553</ele>
        <time>2015-11-11T10:25:35.000Z</time>
      </trkpt>
      <trkpt lat="47.41255" lon="6.75028">
        <ele>553</ele>
        <time>2015-11-11T10:25:35.999Z</time>
      </trkpt>
      <trkpt lat="47.41255" lon="6.7502">
        <ele>553</ele>
        <time>2015-11-11T10:25:37.000Z</time>
      </trkpt>
      <trkpt lat="47.41252" lon="6.7501">
        <ele>553</ele>
        <time>2015-11-11T10:25:38.000Z</time>
      </trkpt>
      <trkpt lat="47.4125" lon="6.75002">
        <ele>556</ele>
        <time>2015-11-11T10:25:39.000Z</time>
      </trkpt>
      <trkpt lat="47.4125" lon="6.74996">
        <ele>556</ele>
        <time>2015-11-11T10:25:40.000Z</time>
      </trkpt>
      <trkpt lat="47.4125" lon="6.74991">
        <ele>556</ele>
        <time>2015-11-11T10:25:41.000Z</time>
      </trkpt>
      <trkpt lat="47.41248" lon="6.74982">
        <ele>557</ele>
        <time>2015-11-11T10:25:42.000Z</time>
      </trkpt>
      <trkpt lat="47.41246" lon="6.74973">
        <ele>557</ele>
        <time>2015-11-11T10:25:43.000Z</time>
      </trkpt>
      <trkpt lat="47.41243" lon="6.74965">
        <ele>557</ele>
        <time>2015-11-11T10:25:44.000Z</time>
      </trkpt>
      <trkpt lat="47.41241" lon="6.74958">
        <ele>557</ele>
        <time>2015-11-11T10:25:45.000Z</time>
      </trkpt>
      <trkpt lat="47.41238" lon="6.7495">
        <ele>556</ele>
        <time>2015-11-11T10:25:45.999Z</time>
      </trkpt>
      <trkpt lat="47.41235" lon="6.74941">
        <ele>556</ele>
        <time>2015-11-11T10:25:47.000Z</time>
      </trkpt>
      <trkpt lat="47.41233" lon="6.74931">
        <ele>555</ele>
        <time>2015-11-11T10:25:48.000Z</time>
      </trkpt>
      <trkpt lat="47.41231" lon="6.74923">
        <ele>554</ele>
        <time>2015-11-11T10:25:49.000Z</time>
      </trkpt>
      <trkpt lat="47.41228" lon="6.74916">
        <ele>552</ele>
        <time>2015-11-11T10:25:50.000Z</time>
      </trkpt>
      <trkpt lat="47.41225" lon="6.74907">
        <ele>552</ele>
        <time>2015-11-11T10:25:51.000Z</time>
      </trkpt>
      <trkpt lat="47.41222" lon="6.74898">
        <ele>553</ele>
        <time>2015-11-11T10:25:52.000Z</time>
      </trkpt>
      <trkpt lat="47.4122" lon="6.74889">
        <ele>553</ele>
        <time>2015-11-11T10:25:53.000Z</time>
      </trkpt>
      <trkpt lat="47.41218" lon="6.74881">
        <ele>553</ele>
        <time>2015-11-11T10:25:54.000Z</time>
      </trkpt>
      <trkpt lat="47.41215" lon="6.74873">
        <ele>553</ele>
        <time>2015-11-11T10:25:55.000Z</time>
      </trkpt>
      <trkpt lat="47.41211" lon="6.74865">
        <ele>553</ele>
        <time>2015-11-11T10:25:56.000Z</time>
      </trkpt>
      <trkpt lat="47.41208" lon="6.74856">
        <ele>553</ele>
        <time>2015-11-11T10:25:57.000Z</time>
      </trkpt>
      <trkpt lat="47.41207" lon="6.74849">
        <ele>553</ele>
        <time>2015-11-11T10:25:58.000Z</time>
      </trkpt>
      <trkpt lat="47.41203" lon="6.74842">
        <ele>554</ele>
        <time>2015-11-11T10:25:59.000Z</time>
      </trkpt>
      <trkpt lat="47.41201" lon="6.74836">
        <ele>554</ele>
        <time>2015-11-11T10:26:00.000Z</time>
      </trkpt>
      <trkpt lat="47.41199" lon="6.7483">
        <ele>550</ele>
        <time>2015-11-11T10:26:01.000Z</time>
      </trkpt>
      <trkpt lat="47.41195" lon="6.74824">
        <ele>551</ele>
        <time>2015-11-11T10:26:02.000Z</time>
      </trkpt>
      <trkpt lat="47.4119" lon="6.74816">
        <ele>551</ele>
        <time>2015-11-11T10:26:03.000Z</time>
      </trkpt>
      <trkpt lat="47.41188" lon="6.7481">
        <ele>551</ele>
        <time>2015-11-11T10:26:04.000Z</time>
      </trkpt>
      <trkpt lat="47.41183" lon="6.74804">
        <ele>550</ele>
        <time>2015-11-11T10:26:05.000Z</time>
      </trkpt>
      <trkpt lat="47.4118" lon="6.74799">
        <ele>550</ele>
        <time>2015-11-11T10:26:06.000Z</time>
      </trkpt>
      <trkpt lat="47.41176" lon="6.74791">
        <ele>550</ele>
        <time>2015-11-11T10:26:07.000Z</time>
      </trkpt>
      <trkpt lat="47.41173" lon="6.74784">
        <ele>549</ele>
        <time>2015-11-11T10:26:08.000Z</time>
      </trkpt>
      <trkpt lat="47.41169" lon="6.74777">
        <ele>549</ele>
        <time>2015-11-11T10:26:09.000Z</time>
      </trkpt>
      <trkpt lat="47.41165" lon="6.7477">
        <ele>556</ele>
        <time>2015-11-11T10:26:10.000Z</time>
      </trkpt>
      <trkpt lat="47.41161" lon="6.7476">
        <ele>554</ele>
        <time>2015-11-11T10:26:11.000Z</time>
      </trkpt>
      <trkpt lat="47.41157" lon="6.74749">
        <ele>553</ele>
        <time>2015-11-11T10:26:12.000Z</time>
      </trkpt>
      <trkpt lat="47.41152" lon="6.74739">
        <ele>555</ele>
        <time>2015-11-11T10:26:13.000Z</time>
      </trkpt>
      <trkpt lat="47.4115" lon="6.74727">
        <ele>556</ele>
        <time>2015-11-11T10:26:14.000Z</time>
      </trkpt>
      <trkpt lat="47.41147" lon="6.74713">
        <ele>557</ele>
        <time>2015-11-11T10:26:15.000Z</time>
      </trkpt>
      <trkpt lat="47.41147" lon="6.74702">
        <ele>557</ele>
        <time>2015-11-11T10:26:16.000Z</time>
      </trkpt>
      <trkpt lat="47.41148" lon="6.74694">
        <ele>557</ele>
        <time>2015-11-11T10:26:17.000Z</time>
      </trkpt>
      <trkpt lat="47.41149" lon="6.74691">
        <ele>557</ele>
        <time>2015-11-11T10:26:18.000Z</time>
      </trkpt>
      <trkpt lat="47.41152" lon="6.7469">
        <ele>557</ele>
        <time>2015-11-11T10:26:19.000Z</time>
      </trkpt>
      <trkpt lat="47.41155" lon="6.74696">
        <ele>557</ele>
        <time>2015-11-11T10:26:21.000Z</time>
      </trkpt>
      <trkpt lat="47.41155" lon="6.74698">
        <ele>557</ele>
        <time>2015-11-11T10:26:22.000Z</time>
      </trkpt>
      <trkpt lat="47.41157" lon="6.74702">
        <ele>557</ele>
        <time>2015-11-11T10:26:25.000Z</time>
      </trkpt>
      <trkpt lat="47.41158" lon="6.74704">
        <ele>557</ele>
        <time>2015-11-11T10:26:26.000Z</time>
      </trkpt>
      <trkpt lat="47.41162" lon="6.74704">
        <ele>556</ele>
        <time>2015-11-11T10:26:29.000Z</time>
      </trkpt>
      <trkpt lat="47.41163" lon="6.74703">
        <ele>556</ele>
        <time>2015-11-11T10:26:30.000Z</time>
      </trkpt>
      <trkpt lat="47.41167" lon="6.74702">
        <ele>546</ele>
        <time>2015-11-11T10:26:32.000Z</time>
      </trkpt>
      <trkpt lat="47.41169" lon="6.74701">
        <ele>546</ele>
        <time>2015-11-11T10:26:33.000Z</time>
      </trkpt>
      <trkpt lat="47.41171" lon="6.74701">
        <ele>546</ele>
        <time>2015-11-11T10:26:34.001Z</time>
      </trkpt>
      <trkpt lat="47.41177" lon="6.74701">
        <ele>545</ele>
        <time>2015-11-11T10:26:35.000Z</time>
      </trkpt>
      <trkpt lat="47.41185" lon="6.74702">
        <ele>545</ele>
        <time>2015-11-11T10:26:36.000Z</time>
      </trkpt>
      <trkpt lat="47.41201" lon="6.747">
        <ele>543</ele>
        <time>2015-11-11T10:26:37.000Z</time>
      </trkpt>
      <trkpt lat="47.41206" lon="6.74699">
        <ele>543</ele>
        <time>2015-11-11T10:26:38.001Z</time>
      </trkpt>
      <trkpt lat="47.41215" lon="6.74696">
        <ele>542</ele>
        <time>2015-11-11T10:26:39.000Z</time>
      </trkpt>
      <trkpt lat="47.4122" lon="6.74694">
        <ele>541</ele>
        <time>2015-11-11T10:26:40.000Z</time>
      </trkpt>
      <trkpt lat="47.41224" lon="6.74691">
        <ele>540</ele>
        <time>2015-11-11T10:26:41.000Z</time>
      </trkpt>
      <trkpt lat="47.4123" lon="6.74689">
        <ele>539</ele>
        <time>2015-11-11T10:26:42.000Z</time>
      </trkpt>
      <trkpt lat="47.41236" lon="6.74685">
        <ele>538</ele>
        <time>2015-11-11T10:26:43.000Z</time>
      </trkpt>
      <trkpt lat="47.41241" lon="6.74682">
        <ele>537</ele>
        <time>2015-11-11T10:26:44.000Z</time>
      </trkpt>
      <trkpt lat="47.41248" lon="6.74681">
        <ele>536</ele>
        <time>2015-11-11T10:26:45.000Z</time>
      </trkpt>
      <trkpt lat="47.41253" lon="6.7468">
        <ele>531</ele>
        <time>2015-11-11T10:26:46.000Z</time>
      </trkpt>
      <trkpt lat="47.41258" lon="6.74678">
        <ele>530</ele>
        <time>2015-11-11T10:26:47.000Z</time>
      </trkpt>
      <trkpt lat="47.41264" lon="6.74675">
        <ele>530</ele>
        <time>2015-11-11T10:26:48.000Z</time>
      </trkpt>
      <trkpt lat="47.41272" lon="6.74673">
        <ele>530</ele>
        <time>2015-11-11T10:26:49.000Z</time>
      </trkpt>
      <trkpt lat="47.41279" lon="6.74671">
        <ele>529</ele>
        <time>2015-11-11T10:26:50.000Z</time>
      </trkpt>
      <trkpt lat="47.41286" lon="6.74669">
        <ele>529</ele>
        <time>2015-11-11T10:26:51.000Z</time>
      </trkpt>
      <trkpt lat="47.41293" lon="6.74668">
        <ele>528</ele>
        <time>2015-11-11T10:26:52.000Z</time>
      </trkpt>
      <trkpt lat="47.41303" lon="6.74664">
        <ele>527</ele>
        <time>2015-11-11T10:26:53.000Z</time>
      </trkpt>
      <trkpt lat="47.41313" lon="6.74664">
        <ele>526</ele>
        <time>2015-11-11T10:26:54.000Z</time>
      </trkpt>
      <trkpt lat="47.41323" lon="6.74659">
        <ele>525</ele>
        <time>2015-11-11T10:26:55.000Z</time>
      </trkpt>
      <trkpt lat="47.41335" lon="6.74656">
        <ele>522</ele>
        <time>2015-11-11T10:26:56.000Z</time>
      </trkpt>
      <trkpt lat="47.41346" lon="6.74652">
        <ele>521</ele>
        <time>2015-11-11T10:26:57.000Z</time>
      </trkpt>
      <trkpt lat="47.41353" lon="6.74648">
        <ele>521</ele>
        <time>2015-11-11T10:26:58.000Z</time>
      </trkpt>
      <trkpt lat="47.4136" lon="6.74646">
        <ele>521</ele>
        <time>2015-11-11T10:26:59.000Z</time>
      </trkpt>
      <trkpt lat="47.41366" lon="6.74643">
        <ele>520</ele>
        <time>2015-11-11T10:27:00.000Z</time>
      </trkpt>
      <trkpt lat="47.41372" lon="6.74642">
        <ele>520</ele>
        <time>2015-11-11T10:27:01.000Z</time>
      </trkpt>
      <trkpt lat="47.41381" lon="6.74641">
        <ele>520</ele>
        <time>2015-11-11T10:27:02.000Z</time>
      </trkpt>
      <trkpt lat="47.41392" lon="6.74639">
        <ele>519</ele>
        <time>2015-11-11T10:27:03.000Z</time>
      </trkpt>
      <trkpt lat="47.41398" lon="6.74637">
        <ele>519</ele>
        <time>2015-11-11T10:27:04.000Z</time>
      </trkpt>
      <trkpt lat="47.41405" lon="6.74636">
        <ele>518</ele>
        <time>2015-11-11T10:27:05.000Z</time>
      </trkpt>
      <trkpt lat="47.41413" lon="6.74637">
        <ele>518</ele>
        <time>2015-11-11T10:27:06.000Z</time>
      </trkpt>
      <trkpt lat="47.41423" lon="6.74636">
        <ele>511</ele>
        <time>2015-11-11T10:27:07.000Z</time>
      </trkpt>
      <trkpt lat="47.41431" lon="6.74634">
        <ele>511</ele>
        <time>2015-11-11T10:27:08.000Z</time>
      </trkpt>
      <trkpt lat="47.41437" lon="6.74631">
        <ele>511</ele>
        <time>2015-11-11T10:27:09.000Z</time>
      </trkpt>
      <trkpt lat="47.41443" lon="6.74629">
        <ele>510</ele>
        <time>2015-11-11T10:27:10.000Z</time>
      </trkpt>
      <trkpt lat="47.41451" lon="6.74627">
        <ele>510</ele>
        <time>2015-11-11T10:27:11.000Z</time>
      </trkpt>
      <trkpt lat="47.41459" lon="6.74628">
        <ele>509</ele>
        <time>2015-11-11T10:27:12.000Z</time>
      </trkpt>
      <trkpt lat="47.41467" lon="6.74626">
        <ele>508</ele>
        <time>2015-11-11T10:27:13.000Z</time>
      </trkpt>
      <trkpt lat="47.41472" lon="6.74626">
        <ele>508</ele>
        <time>2015-11-11T10:27:14.000Z</time>
      </trkpt>
      <trkpt lat="47.41479" lon="6.74626">
        <ele>507</ele>
        <time>2015-11-11T10:27:15.000Z</time>
      </trkpt>
      <trkpt lat="47.41489" lon="6.74625">
        <ele>507</ele>
        <time>2015-11-11T10:27:16.000Z</time>
      </trkpt>
      <trkpt lat="47.41497" lon="6.74624">
        <ele>507</ele>
        <time>2015-11-11T10:27:17.000Z</time>
      </trkpt>
      <trkpt lat="47.41505" lon="6.74621">
        <ele>502</ele>
        <time>2015-11-11T10:27:18.000Z</time>
      </trkpt>
      <trkpt lat="47.41509" lon="6.74619">
        <ele>501</ele>
        <time>2015-11-11T10:27:19.000Z</time>
      </trkpt>
      <trkpt lat="47.41512" lon="6.74615">
        <ele>501</ele>
        <time>2015-11-11T10:27:20.000Z</time>
      </trkpt>
      <trkpt lat="47.41516" lon="6.74613">
        <ele>501</ele>
        <time>2015-11-11T10:27:21.000Z</time>
      </trkpt>
      <trkpt lat="47.41522" lon="6.74612">
        <ele>501</ele>
        <time>2015-11-11T10:27:22.000Z</time>
      </trkpt>
      <trkpt lat="47.41528" lon="6.74608">
        <ele>501</ele>
        <time>2015-11-11T10:27:23.000Z</time>
      </trkpt>
      <trkpt lat="47.41533" lon="6.74606">
        <ele>501</ele>
        <time>2015-11-11T10:27:24.000Z</time>
      </trkpt>
      <trkpt lat="47.41535" lon="6.746">
        <ele>501</ele>
        <time>2015-11-11T10:27:25.000Z</time>
      </trkpt>
      <trkpt lat="47.4154" lon="6.74595">
        <ele>501</ele>
        <time>2015-11-11T10:27:26.000Z</time>
      </trkpt>
      <trkpt lat="47.41546" lon="6.74591">
        <ele>500</ele>
        <time>2015-11-11T10:27:27.000Z</time>
      </trkpt>
      <trkpt lat="47.4155" lon="6.74587">
        <ele>500</ele>
        <time>2015-11-11T10:27:28.000Z</time>
      </trkpt>
      <trkpt lat="47.41555" lon="6.74583">
        <ele>498</ele>
        <time>2015-11-11T10:27:29.000Z</time>
      </trkpt>
      <trkpt lat="47.41558" lon="6.74579">
        <ele>498</ele>
        <time>2015-11-11T10:27:30.000Z</time>
      </trkpt>
      <trkpt lat="47.41557" lon="6.74564">
        <ele>498</ele>
        <time>2015-11-11T10:27:31.000Z</time>
      </trkpt>
      <trkpt lat="47.41557" lon="6.74557">
        <ele>498</ele>
        <time>2015-11-11T10:27:32.000Z</time>
      </trkpt>
      <trkpt lat="47.41557" lon="6.74551">
        <ele>498</ele>
        <time>2015-11-11T10:27:33.000Z</time>
      </trkpt>
      <trkpt lat="47.41557" lon="6.74546">
        <ele>498</ele>
        <time>2015-11-11T10:27:34.000Z</time>
      </trkpt>
      <trkpt lat="47.41557" lon="6.74539">
        <ele>498</ele>
        <time>2015-11-11T10:27:35.000Z</time>
      </trkpt>
      <trkpt lat="47.41561" lon="6.74527">
        <ele>497</ele>
        <time>2015-11-11T10:27:36.000Z</time>
      </trkpt>
      <trkpt lat="47.41561" lon="6.74519">
        <ele>497</ele>
        <time>2015-11-11T10:27:37.000Z</time>
      </trkpt>
      <trkpt lat="47.4156" lon="6.74512">
        <ele>497</ele>
        <time>2015-11-11T10:27:38.000Z</time>
      </trkpt>
      <trkpt lat="47.41561" lon="6.74501">
        <ele>497</ele>
        <time>2015-11-11T10:27:39.000Z</time>
      </trkpt>
      <trkpt lat="47.4156" lon="6.74496">
        <ele>495</ele>
        <time>2015-11-11T10:27:40.000Z</time>
      </trkpt>
      <trkpt lat="47.41558" lon="6.74489">
        <ele>496</ele>
        <time>2015-11-11T10:27:41.000Z</time>
      </trkpt>
      <trkpt lat="47.41558" lon="6.74482">
        <ele>496</ele>
        <time>2015-11-11T10:27:42.000Z</time>
      </trkpt>
      <trkpt lat="47.41558" lon="6.74477">
        <ele>496</ele>
        <time>2015-11-11T10:27:43.000Z</time>
      </trkpt>
      <trkpt lat="47.41558" lon="6.74472">
        <ele>495</ele>
        <time>2015-11-11T10:27:44.000Z</time>
      </trkpt>
      <trkpt lat="47.41558" lon="6.74468">
        <ele>495</ele>
        <time>2015-11-11T10:27:45.000Z</time>
      </trkpt>
      <trkpt lat="47.41559" lon="6.74464">
        <ele>495</ele>
        <time>2015-11-11T10:27:46.000Z</time>
      </trkpt>
      <trkpt lat="47.41559" lon="6.74459">
        <ele>495</ele>
        <time>2015-11-11T10:27:47.000Z</time>
      </trkpt>
      <trkpt lat="47.4156" lon="6.74454">
        <ele>495</ele>
        <time>2015-11-11T10:27:48.000Z</time>
      </trkpt>
      <trkpt lat="47.4156" lon="6.74448">
        <ele>495</ele>
        <time>2015-11-11T10:27:49.000Z</time>
      </trkpt>
      <trkpt lat="47.4156" lon="6.74443">
        <ele>495</ele>
        <time>2015-11-11T10:27:50.000Z</time>
      </trkpt>
      <trkpt lat="47.4156" lon="6.74438">
        <ele>494</ele>
        <time>2015-11-11T10:27:51.000Z</time>
      </trkpt>
      <trkpt lat="47.4156" lon="6.74433">
        <ele>494</ele>
        <time>2015-11-11T10:27:52.000Z</time>
      </trkpt>
      <trkpt lat="47.4156" lon="6.74428">
        <ele>494</ele>
        <time>2015-11-11T10:27:53.000Z</time>
      </trkpt>
      <trkpt lat="47.41559" lon="6.74424">
        <ele>494</ele>
        <time>2015-11-11T10:27:54.000Z</time>
      </trkpt>
      <trkpt lat="47.41559" lon="6.74421">
        <ele>494</ele>
        <time>2015-11-11T10:27:55.000Z</time>
      </trkpt>
      <trkpt lat="47.41558" lon="6.74414">
        <ele>491</ele>
        <time>2015-11-11T10:27:56.000Z</time>
      </trkpt>
      <trkpt lat="47.41557" lon="6.74409">
        <ele>491</ele>
        <time>2015-11-11T10:27:57.000Z</time>
      </trkpt>
      <trkpt lat="47.41556" lon="6.74406">
        <ele>491</ele>
        <time>2015-11-11T10:27:58.000Z</time>
      </trkpt>
      <trkpt lat="47.41554" lon="6.74402">
        <ele>491</ele>
        <time>2015-11-11T10:28:01.000Z</time>
      </trkpt>
      <trkpt lat="47.41553" lon="6.744">
        <ele>491</ele>
        <time>2015-11-11T10:28:02.000Z</time>
      </trkpt>
      <trkpt lat="47.41551" lon="6.74395">
        <ele>491</ele>
        <time>2015-11-11T10:28:04.000Z</time>
      </trkpt>
      <trkpt lat="47.4155" lon="6.74391">
        <ele>491</ele>
        <time>2015-11-11T10:28:05.000Z</time>
      </trkpt>
      <trkpt lat="47.41549" lon="6.74385">
        <ele>491</ele>
        <time>2015-11-11T10:28:07.002Z</time>
      </trkpt>
      <trkpt lat="47.41549" lon="6.74383">
        <ele>491</ele>
        <time>2015-11-11T10:28:08.000Z</time>
      </trkpt>
      <trkpt lat="47.41549" lon="6.74377">
        <ele>491</ele>
        <time>2015-11-11T10:28:14.000Z</time>
      </trkpt>
      <trkpt lat="47.41549" lon="6.74376">
        <ele>491</ele>
        <time>2015-11-11T10:28:15.000Z</time>
      </trkpt>
      <trkpt lat="47.41549" lon="6.74369">
        <ele>491</ele>
        <time>2015-11-11T10:28:18.000Z</time>
      </trkpt>
      <trkpt lat="47.4155" lon="6.74366">
        <ele>490</ele>
        <time>2015-11-11T10:28:19.000Z</time>
      </trkpt>
      <trkpt lat="47.41551" lon="6.74362">
        <ele>490</ele>
        <time>2015-11-11T10:28:21.001Z</time>
      </trkpt>
      <trkpt lat="47.41551" lon="6.74356">
        <ele>490</ele>
        <time>2015-11-11T10:28:22.000Z</time>
      </trkpt>
      <trkpt lat="47.41552" lon="6.74352">
        <ele>490</ele>
        <time>2015-11-11T10:28:23.000Z</time>
      </trkpt>
      <trkpt lat="47.41552" lon="6.74347">
        <ele>489</ele>
        <time>2015-11-11T10:28:24.000Z</time>
      </trkpt>
      <trkpt lat="47.41553" lon="6.74341">
        <ele>489</ele>
        <time>2015-11-11T10:28:25.000Z</time>
      </trkpt>
      <trkpt lat="47.41554" lon="6.74335">
        <ele>489</ele>
        <time>2015-11-11T10:28:26.000Z</time>
      </trkpt>
      <trkpt lat="47.41554" lon="6.74327">
        <ele>486</ele>
        <time>2015-11-11T10:28:27.000Z</time>
      </trkpt>
      <trkpt lat="47.41553" lon="6.74318">
        <ele>486</ele>
        <time>2015-11-11T10:28:28.000Z</time>
      </trkpt>
      <trkpt lat="47.41552" lon="6.7431">
        <ele>486</ele>
        <time>2015-11-11T10:28:29.000Z</time>
      </trkpt>
      <trkpt lat="47.41551" lon="6.74303">
        <ele>486</ele>
        <time>2015-11-11T10:28:30.000Z</time>
      </trkpt>
      <trkpt lat="47.4155" lon="6.74295">
        <ele>485</ele>
        <time>2015-11-11T10:28:31.000Z</time>
      </trkpt>
      <trkpt lat="47.4155" lon="6.74286">
        <ele>485</ele>
        <time>2015-11-11T10:28:32.000Z</time>
      </trkpt>
      <trkpt lat="47.4155" lon="6.74279">
        <ele>485</ele>
        <time>2015-11-11T10:28:33.000Z</time>
      </trkpt>
      <trkpt lat="47.41551" lon="6.74271">
        <ele>485</ele>
        <time>2015-11-11T10:28:34.000Z</time>
      </trkpt>
      <trkpt lat="47.41551" lon="6.74262">
        <ele>484</ele>
        <time>2015-11-11T10:28:35.000Z</time>
      </trkpt>
      <trkpt lat="47.41552" lon="6.74253">
        <ele>484</ele>
        <time>2015-11-11T10:28:36.000Z</time>
      </trkpt>
      <trkpt lat="47.41552" lon="6.74245">
        <ele>483</ele>
        <time>2015-11-11T10:28:37.000Z</time>
      </trkpt>
      <trkpt lat="47.41551" lon="6.74219">
        <ele>483</ele>
        <time>2015-11-11T10:28:38.000Z</time>
      </trkpt>
      <trkpt lat="47.41552" lon="6.7421">
        <ele>483</ele>
        <time>2015-11-11T10:28:39.000Z</time>
      </trkpt>
      <trkpt lat="47.41553" lon="6.74201">
        <ele>483</ele>
        <time>2015-11-11T10:28:40.000Z</time>
      </trkpt>
      <trkpt lat="47.41554" lon="6.7419">
        <ele>482</ele>
        <time>2015-11-11T10:28:41.000Z</time>
      </trkpt>
      <trkpt lat="47.41555" lon="6.74186">
        <ele>482</ele>
        <time>2015-11-11T10:28:42.000Z</time>
      </trkpt>
      <trkpt lat="47.41557" lon="6.74179">
        <ele>482</ele>
        <time>2015-11-11T10:28:43.000Z</time>
      </trkpt>
      <trkpt lat="47.41557" lon="6.74173">
        <ele>482</ele>
        <time>2015-11-11T10:28:45.000Z</time>
      </trkpt>
      <trkpt lat="47.41557" lon="6.74169">
        <ele>482</ele>
        <time>2015-11-11T10:28:46.000Z</time>
      </trkpt>
      <trkpt lat="47.41558" lon="6.74164">
        <ele>482</ele>
        <time>2015-11-11T10:28:47.000Z</time>
      </trkpt>
      <trkpt lat="47.41557" lon="6.7416">
        <ele>483</ele>
        <time>2015-11-11T10:28:48.000Z</time>
      </trkpt>
      <trkpt lat="47.41558" lon="6.74155">
        <ele>483</ele>
        <time>2015-11-11T10:28:50.000Z</time>
      </trkpt>
      <trkpt lat="47.41558" lon="6.74151">
        <ele>483</ele>
        <time>2015-11-11T10:28:51.000Z</time>
      </trkpt>
      <trkpt lat="47.41559" lon="6.74146">
        <ele>483</ele>
        <time>2015-11-11T10:29:03.000Z</time>
      </trkpt>
      <trkpt lat="47.41559" lon="6.74144">
        <ele>483</ele>
        <time>2015-11-11T10:29:04.000Z</time>
      </trkpt>
      <trkpt lat="47.41563" lon="6.74142">
        <ele>483</ele>
        <time>2015-11-11T10:29:10.000Z</time>
      </trkpt>
      <trkpt lat="47.41565" lon="6.74143">
        <ele>483</ele>
        <time>2015-11-11T10:29:11.000Z</time>
      </trkpt>
      <trkpt lat="47.41567" lon="6.74142">
        <ele>482</ele>
        <time>2015-11-11T10:29:12.000Z</time>
      </trkpt>
      <trkpt lat="47.41573" lon="6.74137">
        <ele>482</ele>
        <time>2015-11-11T10:29:13.000Z</time>
      </trkpt>
      <trkpt lat="47.41576" lon="6.74133">
        <ele>482</ele>
        <time>2015-11-11T10:29:14.000Z</time>
      </trkpt>
      <trkpt lat="47.41579" lon="6.7413">
        <ele>482</ele>
        <time>2015-11-11T10:29:15.000Z</time>
      </trkpt>
      <trkpt lat="47.41582" lon="6.74125">
        <ele>482</ele>
        <time>2015-11-11T10:29:16.000Z</time>
      </trkpt>
      <trkpt lat="47.41586" lon="6.7412">
        <ele>479</ele>
        <time>2015-11-11T10:29:17.000Z</time>
      </trkpt>
      <trkpt lat="47.41589" lon="6.74114">
        <ele>479</ele>
        <time>2015-11-11T10:29:18.000Z</time>
      </trkpt>
      <trkpt lat="47.41592" lon="6.74107">
        <ele>479</ele>
        <time>2015-11-11T10:29:19.000Z</time>
      </trkpt>
      <trkpt lat="47.41601" lon="6.74095">
        <ele>479</ele>
        <time>2015-11-11T10:29:20.000Z</time>
      </trkpt>
      <trkpt lat="47.41604" lon="6.74093">
        <ele>479</ele>
        <time>2015-11-11T10:29:21.000Z</time>
      </trkpt>
      <trkpt lat="47.41606" lon="6.74091">
        <ele>479</ele>
        <time>2015-11-11T10:29:22.000Z</time>
      </trkpt>
      <trkpt lat="47.41608" lon="6.74086">
        <ele>479</ele>
        <time>2015-11-11T10:29:23.000Z</time>
      </trkpt>
      <trkpt lat="47.41611" lon="6.74077">
        <ele>477</ele>
        <time>2015-11-11T10:29:24.000Z</time>
      </trkpt>
      <trkpt lat="47.41614" lon="6.74071">
        <ele>477</ele>
        <time>2015-11-11T10:29:25.000Z</time>
      </trkpt>
      <trkpt lat="47.41618" lon="6.74066">
        <ele>477</ele>
        <time>2015-11-11T10:29:26.000Z</time>
      </trkpt>
      <trkpt lat="47.41622" lon="6.74059">
        <ele>477</ele>
        <time>2015-11-11T10:29:27.000Z</time>
      </trkpt>
      <trkpt lat="47.41625" lon="6.74053">
        <ele>477</ele>
        <time>2015-11-11T10:29:28.000Z</time>
      </trkpt>
      <trkpt lat="47.41628" lon="6.7405">
        <ele>477</ele>
        <time>2015-11-11T10:29:29.000Z</time>
      </trkpt>
      <trkpt lat="47.41631" lon="6.74047">
        <ele>477</ele>
        <time>2015-11-11T10:29:29.999Z</time>
      </trkpt>
      <trkpt lat="47.41633" lon="6.74042">
        <ele>477</ele>
        <time>2015-11-11T10:29:32.000Z</time>
      </trkpt>
      <trkpt lat="47.41635" lon="6.74036">
        <ele>477</ele>
        <time>2015-11-11T10:29:33.000Z</time>
      </trkpt>
      <trkpt lat="47.41638" lon="6.74032">
        <ele>477</ele>
        <time>2015-11-11T10:29:34.000Z</time>
      </trkpt>
      <trkpt lat="47.41641" lon="6.74026">
        <ele>476</ele>
        <time>2015-11-11T10:29:35.000Z</time>
      </trkpt>
      <trkpt lat="47.41643" lon="6.74021">
        <ele>476</ele>
        <time>2015-11-11T10:29:36.000Z</time>
      </trkpt>
      <trkpt lat="47.41645" lon="6.74019">
        <ele>476</ele>
        <time>2015-11-11T10:29:37.001Z</time>
      </trkpt>
      <trkpt lat="47.41646" lon="6.74014">
        <ele>475</ele>
        <time>2015-11-11T10:29:38.000Z</time>
      </trkpt>
      <trkpt lat="47.41647" lon="6.7401">
        <ele>475</ele>
        <time>2015-11-11T10:29:39.000Z</time>
      </trkpt>
      <trkpt lat="47.41648" lon="6.74007">
        <ele>475</ele>
        <time>2015-11-11T10:29:40.000Z</time>
      </trkpt>
      <trkpt lat="47.41649" lon="6.74004">
        <ele>475</ele>
        <time>2015-11-11T10:29:41.000Z</time>
      </trkpt>
      <trkpt lat="47.41649" lon="6.74001">
        <ele>475</ele>
        <time>2015-11-11T10:29:42.000Z</time>
      </trkpt>
      <trkpt lat="47.4165" lon="6.73997">
        <ele>473</ele>
        <time>2015-11-11T10:29:43.000Z</time>
      </trkpt>
      <trkpt lat="47.41651" lon="6.73993">
        <ele>473</ele>
        <time>2015-11-11T10:29:44.000Z</time>
      </trkpt>
      <trkpt lat="47.41652" lon="6.73987">
        <ele>473</ele>
        <time>2015-11-11T10:29:45.000Z</time>
      </trkpt>
      <trkpt lat="47.41654" lon="6.73982">
        <ele>473</ele>
        <time>2015-11-11T10:29:46.000Z</time>
      </trkpt>
      <trkpt lat="47.41654" lon="6.73974">
        <ele>473</ele>
        <time>2015-11-11T10:29:47.000Z</time>
      </trkpt>
      <trkpt lat="47.41656" lon="6.73945">
        <ele>472</ele>
        <time>2015-11-11T10:29:48.000Z</time>
      </trkpt>
      <trkpt lat="47.41657" lon="6.73936">
        <ele>471</ele>
        <time>2015-11-11T10:29:49.000Z</time>
      </trkpt>
      <trkpt lat="47.41656" lon="6.73924">
        <ele>470</ele>
        <time>2015-11-11T10:29:50.000Z</time>
      </trkpt>
      <trkpt lat="47.41657" lon="6.73916">
        <ele>469</ele>
        <time>2015-11-11T10:29:51.000Z</time>
      </trkpt>
      <trkpt lat="47.41657" lon="6.73908">
        <ele>469</ele>
        <time>2015-11-11T10:29:52.000Z</time>
      </trkpt>
      <trkpt lat="47.41659" lon="6.73891">
        <ele>470</ele>
        <time>2015-11-11T10:29:53.000Z</time>
      </trkpt>
      <trkpt lat="47.41661" lon="6.73887">
        <ele>470</ele>
        <time>2015-11-11T10:29:54.000Z</time>
      </trkpt>
      <trkpt lat="47.41663" lon="6.73882">
        <ele>470</ele>
        <time>2015-11-11T10:29:55.000Z</time>
      </trkpt>
      <trkpt lat="47.41664" lon="6.73875">
        <ele>470</ele>
        <time>2015-11-11T10:29:56.000Z</time>
      </trkpt>
      <trkpt lat="47.41663" lon="6.73861">
        <ele>470</ele>
        <time>2015-11-11T10:29:57.000Z</time>
      </trkpt>
      <trkpt lat="47.41663" lon="6.73853">
        <ele>469</ele>
        <time>2015-11-11T10:29:58.000Z</time>
      </trkpt>
      <trkpt lat="47.41668" lon="6.73839">
        <ele>467</ele>
        <time>2015-11-11T10:29:59.000Z</time>
      </trkpt>
      <trkpt lat="47.4167" lon="6.73828">
        <ele>466</ele>
        <time>2015-11-11T10:30:00.000Z</time>
      </trkpt>
      <trkpt lat="47.41672" lon="6.73822">
        <ele>466</ele>
        <time>2015-11-11T10:30:01.000Z</time>
      </trkpt>
      <trkpt lat="47.41676" lon="6.7382">
        <ele>466</ele>
        <time>2015-11-11T10:30:03.000Z</time>
      </trkpt>
      <trkpt lat="47.41677" lon="6.73817">
        <ele>466</ele>
        <time>2015-11-11T10:30:04.000Z</time>
      </trkpt>
      <trkpt lat="47.4168" lon="6.73814">
        <ele>466</ele>
        <time>2015-11-11T10:30:07.000Z</time>
      </trkpt>
      <trkpt lat="47.41682" lon="6.73813">
        <ele>466</ele>
        <time>2015-11-11T10:30:08.000Z</time>
      </trkpt>
      <trkpt lat="47.41684" lon="6.73809">
        <ele>466</ele>
        <time>2015-11-11T10:30:09.000Z</time>
      </trkpt>
      <trkpt lat="47.41685" lon="6.73808">
        <ele>466</ele>
        <time>2015-11-11T10:30:10.000Z</time>
      </trkpt>
      <trkpt lat="47.41687" lon="6.73804">
        <ele>466</ele>
        <time>2015-11-11T10:30:11.000Z</time>
      </trkpt>
      <trkpt lat="47.41688" lon="6.73801">
        <ele>466</ele>
        <time>2015-11-11T10:30:12.000Z</time>
      </trkpt>
      <trkpt lat="47.41688" lon="6.73797">
        <ele>465</ele>
        <time>2015-11-11T10:30:13.000Z</time>
      </trkpt>
      <trkpt lat="47.41689" lon="6.73793">
        <ele>465</ele>
        <time>2015-11-11T10:30:14.000Z</time>
      </trkpt>
      <trkpt lat="47.41691" lon="6.73788">
        <ele>465</ele>
        <time>2015-11-11T10:30:15.000Z</time>
      </trkpt>
      <trkpt lat="47.41693" lon="6.73783">
        <ele>465</ele>
        <time>2015-11-11T10:30:16.000Z</time>
      </trkpt>
      <trkpt lat="47.41695" lon="6.73778">
        <ele>465</ele>
        <time>2015-11-11T10:30:17.000Z</time>
      </trkpt>
      <trkpt lat="47.41697" lon="6.73773">
        <ele>465</ele>
        <time>2015-11-11T10:30:18.000Z</time>
      </trkpt>
      <trkpt lat="47.41699" lon="6.73767">
        <ele>465</ele>
        <time>2015-11-11T10:30:19.000Z</time>
      </trkpt>
      <trkpt lat="47.41701" lon="6.73761">
        <ele>465</ele>
        <time>2015-11-11T10:30:20.000Z</time>
      </trkpt>
      <trkpt lat="47.41704" lon="6.73756">
        <ele>465</ele>
        <time>2015-11-11T10:30:21.000Z</time>
      </trkpt>
      <trkpt lat="47.41709" lon="6.73745">
        <ele>465</ele>
        <time>2015-11-11T10:30:22.000Z</time>
      </trkpt>
      <trkpt lat="47.41712" lon="6.73737">
        <ele>465</ele>
        <time>2015-11-11T10:30:23.000Z</time>
      </trkpt>
      <trkpt lat="47.41715" lon="6.7373">
        <ele>465</ele>
        <time>2015-11-11T10:30:24.000Z</time>
      </trkpt>
      <trkpt lat="47.41718" lon="6.73726">
        <ele>465</ele>
        <time>2015-11-11T10:30:25.000Z</time>
      </trkpt>
      <trkpt lat="47.41719" lon="6.73734">
        <ele>465</ele>
        <time>2015-11-11T10:30:26.000Z</time>
      </trkpt>
      <trkpt lat="47.41721" lon="6.73732">
        <ele>465</ele>
        <time>2015-11-11T10:30:27.000Z</time>
      </trkpt>
      <trkpt lat="47.41725" lon="6.73729">
        <ele>465</ele>
        <time>2015-11-11T10:30:28.000Z</time>
      </trkpt>
      <trkpt lat="47.41726" lon="6.73727">
        <ele>465</ele>
        <time>2015-11-11T10:30:29.000Z</time>
      </trkpt>
      <trkpt lat="47.41727" lon="6.73723">
        <ele>465</ele>
        <time>2015-11-11T10:30:30.000Z</time>
      </trkpt>
      <trkpt lat="47.4173" lon="6.7372">
        <ele>465</ele>
        <time>2015-11-11T10:30:32.000Z</time>
      </trkpt>
      <trkpt lat="47.41731" lon="6.73718">
        <ele>465</ele>
        <time>2015-11-11T10:30:33.000Z</time>
      </trkpt>
      <trkpt lat="47.41733" lon="6.73716">
        <ele>465</ele>
        <time>2015-11-11T10:30:34.000Z</time>
      </trkpt>
      <trkpt lat="47.41735" lon="6.73714">
        <ele>465</ele>
        <time>2015-11-11T10:30:35.000Z</time>
      </trkpt>
      <trkpt lat="47.41738" lon="6.73711">
        <ele>465</ele>
        <time>2015-11-11T10:30:36.000Z</time>
      </trkpt>
      <trkpt lat="47.4174" lon="6.73708">
        <ele>465</ele>
        <time>2015-11-11T10:30:37.000Z</time>
      </trkpt>
      <trkpt lat="47.41742" lon="6.73706">
        <ele>465</ele>
        <time>2015-11-11T10:30:38.000Z</time>
      </trkpt>
      <trkpt lat="47.41744" lon="6.73703">
        <ele>465</ele>
        <time>2015-11-11T10:30:39.000Z</time>
      </trkpt>
      <trkpt lat="47.41746" lon="6.737">
        <ele>464</ele>
        <time>2015-11-11T10:30:40.000Z</time>
      </trkpt>
      <trkpt lat="47.41749" lon="6.73698">
        <ele>464</ele>
        <time>2015-11-11T10:30:41.000Z</time>
      </trkpt>
      <trkpt lat="47.41751" lon="6.73695">
        <ele>462</ele>
        <time>2015-11-11T10:30:42.000Z</time>
      </trkpt>
      <trkpt lat="47.41754" lon="6.73692">
        <ele>462</ele>
        <time>2015-11-11T10:30:43.000Z</time>
      </trkpt>
      <trkpt lat="47.41756" lon="6.73689">
        <ele>462</ele>
        <time>2015-11-11T10:30:44.000Z</time>
      </trkpt>
      <trkpt lat="47.4176" lon="6.73686">
        <ele>462</ele>
        <time>2015-11-11T10:30:45.000Z</time>
      </trkpt>
      <trkpt lat="47.41764" lon="6.73684">
        <ele>462</ele>
        <time>2015-11-11T10:30:46.000Z</time>
      </trkpt>
      <trkpt lat="47.41768" lon="6.73681">
        <ele>462</ele>
        <time>2015-11-11T10:30:47.000Z</time>
      </trkpt>
      <trkpt lat="47.41773" lon="6.73678">
        <ele>462</ele>
        <time>2015-11-11T10:30:48.000Z</time>
      </trkpt>
      <trkpt lat="47.41777" lon="6.73675">
        <ele>461</ele>
        <time>2015-11-11T10:30:49.000Z</time>
      </trkpt>
      <trkpt lat="47.41782" lon="6.73671">
        <ele>461</ele>
        <time>2015-11-11T10:30:50.000Z</time>
      </trkpt>
      <trkpt lat="47.41786" lon="6.73668">
        <ele>461</ele>
        <time>2015-11-11T10:30:51.000Z</time>
      </trkpt>
      <trkpt lat="47.41791" lon="6.73664">
        <ele>462</ele>
        <time>2015-11-11T10:30:52.000Z</time>
      </trkpt>
      <trkpt lat="47.41796" lon="6.7366">
        <ele>462</ele>
        <time>2015-11-11T10:30:53.000Z</time>
      </trkpt>
      <trkpt lat="47.41801" lon="6.73656">
        <ele>462</ele>
        <time>2015-11-11T10:30:54.000Z</time>
      </trkpt>
      <trkpt lat="47.41806" lon="6.73651">
        <ele>462</ele>
        <time>2015-11-11T10:30:55.000Z</time>
      </trkpt>
      <trkpt lat="47.41811" lon="6.73645">
        <ele>462</ele>
        <time>2015-11-11T10:30:56.000Z</time>
      </trkpt>
      <trkpt lat="47.41816" lon="6.73639">
        <ele>462</ele>
        <time>2015-11-11T10:30:57.000Z</time>
      </trkpt>
      <trkpt lat="47.41822" lon="6.73635">
        <ele>462</ele>
        <time>2015-11-11T10:30:58.000Z</time>
      </trkpt>
      <trkpt lat="47.41827" lon="6.73631">
        <ele>462</ele>
        <time>2015-11-11T10:30:59.000Z</time>
      </trkpt>
      <trkpt lat="47.41833" lon="6.73629">
        <ele>462</ele>
        <time>2015-11-11T10:31:00.000Z</time>
      </trkpt>
      <trkpt lat="47.41838" lon="6.73627">
        <ele>457</ele>
        <time>2015-11-11T10:31:01.000Z</time>
      </trkpt>
      <trkpt lat="47.41842" lon="6.73626">
        <ele>457</ele>
        <time>2015-11-11T10:31:02.000Z</time>
      </trkpt>
      <trkpt lat="47.41847" lon="6.73624">
        <ele>457</ele>
        <time>2015-11-11T10:31:03.000Z</time>
      </trkpt>
      <trkpt lat="47.41851" lon="6.73621">
        <ele>457</ele>
        <time>2015-11-11T10:31:04.000Z</time>
      </trkpt>
      <trkpt lat="47.41855" lon="6.73619">
        <ele>457</ele>
        <time>2015-11-11T10:31:05.000Z</time>
      </trkpt>
      <trkpt lat="47.4186" lon="6.73617">
        <ele>457</ele>
        <time>2015-11-11T10:31:06.000Z</time>
      </trkpt>
      <trkpt lat="47.41864" lon="6.73615">
        <ele>457</ele>
        <time>2015-11-11T10:31:07.000Z</time>
      </trkpt>
      <trkpt lat="47.41869" lon="6.73611">
        <ele>457</ele>
        <time>2015-11-11T10:31:08.000Z</time>
      </trkpt>
      <trkpt lat="47.41874" lon="6.73608">
        <ele>457</ele>
        <time>2015-11-11T10:31:09.000Z</time>
      </trkpt>
      <trkpt lat="47.41878" lon="6.73606">
        <ele>457</ele>
        <time>2015-11-11T10:31:10.000Z</time>
      </trkpt>
      <trkpt lat="47.41883" lon="6.73605">
        <ele>456</ele>
        <time>2015-11-11T10:31:11.000Z</time>
      </trkpt>
      <trkpt lat="47.41887" lon="6.73604">
        <ele>456</ele>
        <time>2015-11-11T10:31:12.000Z</time>
      </trkpt>
      <trkpt lat="47.41891" lon="6.73603">
        <ele>456</ele>
        <time>2015-11-11T10:31:13.000Z</time>
      </trkpt>
      <trkpt lat="47.41895" lon="6.73601">
        <ele>456</ele>
        <time>2015-11-11T10:31:14.000Z</time>
      </trkpt>
      <trkpt lat="47.41899" lon="6.736">
        <ele>456</ele>
        <time>2015-11-11T10:31:15.000Z</time>
      </trkpt>
      <trkpt lat="47.41902" lon="6.73598">
        <ele>456</ele>
        <time>2015-11-11T10:31:16.000Z</time>
      </trkpt>
      <trkpt lat="47.41905" lon="6.73596">
        <ele>455</ele>
        <time>2015-11-11T10:31:17.000Z</time>
      </trkpt>
      <trkpt lat="47.41909" lon="6.73594">
        <ele>455</ele>
        <time>2015-11-11T10:31:18.000Z</time>
      </trkpt>
      <trkpt lat="47.41912" lon="6.73592">
        <ele>455</ele>
        <time>2015-11-11T10:31:19.000Z</time>
      </trkpt>
      <trkpt lat="47.41927" lon="6.73594">
        <ele>453</ele>
        <time>2015-11-11T10:31:20.000Z</time>
      </trkpt>
      <trkpt lat="47.41933" lon="6.73596">
        <ele>453</ele>
        <time>2015-11-11T10:31:21.000Z</time>
      </trkpt>
      <trkpt lat="47.4194" lon="6.73596">
        <ele>452</ele>
        <time>2015-11-11T10:31:22.000Z</time>
      </trkpt>
      <trkpt lat="47.41947" lon="6.73598">
        <ele>452</ele>
        <time>2015-11-11T10:31:23.000Z</time>
      </trkpt>
      <trkpt lat="47.41953" lon="6.73598">
        <ele>452</ele>
        <time>2015-11-11T10:31:24.000Z</time>
      </trkpt>
      <trkpt lat="47.41959" lon="6.73596">
        <ele>452</ele>
        <time>2015-11-11T10:31:25.000Z</time>
      </trkpt>
      <trkpt lat="47.41967" lon="6.73596">
        <ele>452</ele>
        <time>2015-11-11T10:31:26.000Z</time>
      </trkpt>
      <trkpt lat="47.41972" lon="6.736">
        <ele>452</ele>
        <time>2015-11-11T10:31:27.000Z</time>
      </trkpt>
      <trkpt lat="47.41977" lon="6.736">
        <ele>452</ele>
        <time>2015-11-11T10:31:28.000Z</time>
      </trkpt>
      <trkpt lat="47.41982" lon="6.73601">
        <ele>452</ele>
        <time>2015-11-11T10:31:29.000Z</time>
      </trkpt>
      <trkpt lat="47.41988" lon="6.73602">
        <ele>451</ele>
        <time>2015-11-11T10:31:30.000Z</time>
      </trkpt>
      <trkpt lat="47.41995" lon="6.73605">
        <ele>451</ele>
        <time>2015-11-11T10:31:31.000Z</time>
      </trkpt>
      <trkpt lat="47.42" lon="6.73605">
        <ele>450</ele>
        <time>2015-11-11T10:31:32.000Z</time>
      </trkpt>
      <trkpt lat="47.42005" lon="6.73604">
        <ele>450</ele>
        <time>2015-11-11T10:31:33.000Z</time>
      </trkpt>
      <trkpt lat="47.42013" lon="6.73605">
        <ele>450</ele>
        <time>2015-11-11T10:31:34.000Z</time>
      </trkpt>
      <trkpt lat="47.42021" lon="6.73604">
        <ele>450</ele>
        <time>2015-11-11T10:31:35.000Z</time>
      </trkpt>
      <trkpt lat="47.42029" lon="6.73605">
        <ele>450</ele>
        <time>2015-11-11T10:31:36.000Z</time>
      </trkpt>
      <trkpt lat="47.42034" lon="6.73607">
        <ele>450</ele>
        <time>2015-11-11T10:31:37.000Z</time>
      </trkpt>
      <trkpt lat="47.4204" lon="6.7361">
        <ele>450</ele>
        <time>2015-11-11T10:31:38.000Z</time>
      </trkpt>
      <trkpt lat="47.42046" lon="6.73613">
        <ele>450</ele>
        <time>2015-11-11T10:31:39.000Z</time>
      </trkpt>
      <trkpt lat="47.4205" lon="6.73611">
        <ele>450</ele>
        <time>2015-11-11T10:31:40.000Z</time>
      </trkpt>
      <trkpt lat="47.42055" lon="6.73618">
        <ele>449</ele>
        <time>2015-11-11T10:31:41.000Z</time>
      </trkpt>
      <trkpt lat="47.42058" lon="6.73629">
        <ele>448</ele>
        <time>2015-11-11T10:31:42.000Z</time>
      </trkpt>
      <trkpt lat="47.42063" lon="6.73633">
        <ele>448</ele>
        <time>2015-11-11T10:31:43.000Z</time>
      </trkpt>
      <trkpt lat="47.42068" lon="6.73636">
        <ele>447</ele>
        <time>2015-11-11T10:31:44.000Z</time>
      </trkpt>
      <trkpt lat="47.42075" lon="6.73639">
        <ele>447</ele>
        <time>2015-11-11T10:31:45.000Z</time>
      </trkpt>
      <trkpt lat="47.4208" lon="6.73642">
        <ele>446</ele>
        <time>2015-11-11T10:31:46.000Z</time>
      </trkpt>
      <trkpt lat="47.42085" lon="6.73646">
        <ele>445</ele>
        <time>2015-11-11T10:31:47.000Z</time>
      </trkpt>
      <trkpt lat="47.42089" lon="6.73655">
        <ele>443</ele>
        <time>2015-11-11T10:31:48.000Z</time>
      </trkpt>
      <trkpt lat="47.42094" lon="6.7366">
        <ele>443</ele>
        <time>2015-11-11T10:31:49.000Z</time>
      </trkpt>
      <trkpt lat="47.42096" lon="6.73662">
        <ele>443</ele>
        <time>2015-11-11T10:31:50.000Z</time>
      </trkpt>
      <trkpt lat="47.42102" lon="6.73663">
        <ele>444</ele>
        <time>2015-11-11T10:31:51.000Z</time>
      </trkpt>
      <trkpt lat="47.42106" lon="6.73667">
        <ele>439</ele>
        <time>2015-11-11T10:31:52.000Z</time>
      </trkpt>
      <trkpt lat="47.42108" lon="6.73671">
        <ele>439</ele>
        <time>2015-11-11T10:31:53.000Z</time>
      </trkpt>
      <trkpt lat="47.42112" lon="6.73673">
        <ele>439</ele>
        <time>2015-11-11T10:31:54.000Z</time>
      </trkpt>
      <trkpt lat="47.42117" lon="6.73673">
        <ele>439</ele>
        <time>2015-11-11T10:31:55.000Z</time>
      </trkpt>
      <trkpt lat="47.42121" lon="6.73674">
        <ele>439</ele>
        <time>2015-11-11T10:31:56.000Z</time>
      </trkpt>
      <trkpt lat="47.42124" lon="6.73675">
        <ele>439</ele>
        <time>2015-11-11T10:31:57.000Z</time>
      </trkpt>
      <trkpt lat="47.42126" lon="6.73674">
        <ele>439</ele>
        <time>2015-11-11T10:31:58.000Z</time>
      </trkpt>
      <trkpt lat="47.42128" lon="6.73675">
        <ele>439</ele>
        <time>2015-11-11T10:31:59.000Z</time>
      </trkpt>
      <trkpt lat="47.42131" lon="6.73674">
        <ele>439</ele>
        <time>2015-11-11T10:32:00.000Z</time>
      </trkpt>
      <trkpt lat="47.42133" lon="6.73672">
        <ele>439</ele>
        <time>2015-11-11T10:32:01.000Z</time>
      </trkpt>
      <trkpt lat="47.42136" lon="6.73669">
        <ele>439</ele>
        <time>2015-11-11T10:32:02.000Z</time>
      </trkpt>
      <trkpt lat="47.42139" lon="6.73666">
        <ele>444</ele>
        <time>2015-11-11T10:32:03.000Z</time>
      </trkpt>
      <trkpt lat="47.42143" lon="6.73662">
        <ele>444</ele>
        <time>2015-11-11T10:32:04.000Z</time>
      </trkpt>
      <trkpt lat="47.42147" lon="6.73658">
        <ele>444</ele>
        <time>2015-11-11T10:32:05.000Z</time>
      </trkpt>
      <trkpt lat="47.4215" lon="6.73654">
        <ele>444</ele>
        <time>2015-11-11T10:32:06.000Z</time>
      </trkpt>
      <trkpt lat="47.42153" lon="6.7365">
        <ele>444</ele>
        <time>2015-11-11T10:32:07.000Z</time>
      </trkpt>
      <trkpt lat="47.42156" lon="6.73646">
        <ele>445</ele>
        <time>2015-11-11T10:32:08.000Z</time>
      </trkpt>
      <trkpt lat="47.42159" lon="6.73641">
        <ele>445</ele>
        <time>2015-11-11T10:32:09.000Z</time>
      </trkpt>
      <trkpt lat="47.42161" lon="6.73636">
        <ele>445</ele>
        <time>2015-11-11T10:32:10.000Z</time>
      </trkpt>
      <trkpt lat="47.42164" lon="6.73632">
        <ele>446</ele>
        <time>2015-11-11T10:32:11.000Z</time>
      </trkpt>
      <trkpt lat="47.42168" lon="6.73629">
        <ele>448</ele>
        <time>2015-11-11T10:32:12.000Z</time>
      </trkpt>
      <trkpt lat="47.42171" lon="6.73628">
        <ele>449</ele>
        <time>2015-11-11T10:32:13.000Z</time>
      </trkpt>
      <trkpt lat="47.42176" lon="6.73628">
        <ele>449</ele>
        <time>2015-11-11T10:32:14.000Z</time>
      </trkpt>
      <trkpt lat="47.4218" lon="6.7363">
        <ele>449</ele>
        <time>2015-11-11T10:32:15.000Z</time>
      </trkpt>
      <trkpt lat="47.42185" lon="6.73634">
        <ele>449</ele>
        <time>2015-11-11T10:32:16.000Z</time>
      </trkpt>
      <trkpt lat="47.42188" lon="6.73639">
        <ele>448</ele>
        <time>2015-11-11T10:32:17.000Z</time>
      </trkpt>
      <trkpt lat="47.4219" lon="6.73646">
        <ele>448</ele>
        <time>2015-11-11T10:32:18.000Z</time>
      </trkpt>
      <trkpt lat="47.4219" lon="6.73654">
        <ele>447</ele>
        <time>2015-11-11T10:32:19.000Z</time>
      </trkpt>
      <trkpt lat="47.42191" lon="6.73663">
        <ele>447</ele>
        <time>2015-11-11T10:32:20.000Z</time>
      </trkpt>
      <trkpt lat="47.42197" lon="6.73674">
        <ele>444</ele>
        <time>2015-11-11T10:32:21.000Z</time>
      </trkpt>
      <trkpt lat="47.42199" lon="6.7368">
        <ele>444</ele>
        <time>2015-11-11T10:32:22.000Z</time>
      </trkpt>
      <trkpt lat="47.42198" lon="6.73687">
        <ele>444</ele>
        <time>2015-11-11T10:32:22.999Z</time>
      </trkpt>
      <trkpt lat="47.42196" lon="6.73695">
        <ele>443</ele>
        <time>2015-11-11T10:32:24.000Z</time>
      </trkpt>
      <trkpt lat="47.42194" lon="6.73701">
        <ele>443</ele>
        <time>2015-11-11T10:32:24.999Z</time>
      </trkpt>
      <trkpt lat="47.42193" lon="6.73712">
        <ele>442</ele>
        <time>2015-11-11T10:32:26.000Z</time>
      </trkpt>
      <trkpt lat="47.42193" lon="6.73715">
        <ele>442</ele>
        <time>2015-11-11T10:32:27.000Z</time>
      </trkpt>
      <trkpt lat="47.42195" lon="6.7372">
        <ele>442</ele>
        <time>2015-11-11T10:32:28.000Z</time>
      </trkpt>
      <trkpt lat="47.42195" lon="6.73724">
        <ele>442</ele>
        <time>2015-11-11T10:32:29.000Z</time>
      </trkpt>
      <trkpt lat="47.42195" lon="6.73727">
        <ele>442</ele>
        <time>2015-11-11T10:32:30.000Z</time>
      </trkpt>
      <trkpt lat="47.42195" lon="6.73731">
        <ele>442</ele>
        <time>2015-11-11T10:32:31.000Z</time>
      </trkpt>
      <trkpt lat="47.42196" lon="6.73734">
        <ele>441</ele>
        <time>2015-11-11T10:32:32.000Z</time>
      </trkpt>
      <trkpt lat="47.42197" lon="6.73739">
        <ele>441</ele>
        <time>2015-11-11T10:32:36.001Z</time>
      </trkpt>
      <trkpt lat="47.42198" lon="6.7374">
        <ele>442</ele>
        <time>2015-11-11T10:32:37.000Z</time>
      </trkpt>
      <trkpt lat="47.422" lon="6.73745">
        <ele>442</ele>
        <time>2015-11-11T10:32:42.000Z</time>
      </trkpt>
      <trkpt lat="47.42202" lon="6.73747">
        <ele>442</ele>
        <time>2015-11-11T10:32:43.000Z</time>
      </trkpt>
      <trkpt lat="47.42205" lon="6.7375">
        <ele>442</ele>
        <time>2015-11-11T10:32:46.000Z</time>
      </trkpt>
      <trkpt lat="47.42205" lon="6.73751">
        <ele>439</ele>
        <time>2015-11-11T10:32:47.000Z</time>
      </trkpt>
      <trkpt lat="47.42207" lon="6.73757">
        <ele>439</ele>
        <time>2015-11-11T10:32:51.000Z</time>
      </trkpt>
      <trkpt lat="47.42207" lon="6.73757">
        <ele>439</ele>
        <time>2015-11-11T10:32:52.000Z</time>
      </trkpt>
      <trkpt lat="47.42207" lon="6.73762">
        <ele>439</ele>
        <time>2015-11-11T10:32:55.000Z</time>
      </trkpt>
      <trkpt lat="47.42207" lon="6.73765">
        <ele>439</ele>
        <time>2015-11-11T10:32:56.000Z</time>
      </trkpt>
      <trkpt lat="47.42208" lon="6.7377">
        <ele>439</ele>
        <time>2015-11-11T10:32:59.000Z</time>
      </trkpt>
      <trkpt lat="47.42209" lon="6.73771">
        <ele>439</ele>
        <time>2015-11-11T10:33:00.000Z</time>
      </trkpt>
      <trkpt lat="47.42212" lon="6.73776">
        <ele>439</ele>
        <time>2015-11-11T10:33:04.999Z</time>
      </trkpt>
      <trkpt lat="47.42213" lon="6.73778">
        <ele>439</ele>
        <time>2015-11-11T10:33:06.000Z</time>
      </trkpt>
      <trkpt lat="47.42215" lon="6.73782">
        <ele>439</ele>
        <time>2015-11-11T10:33:10.000Z</time>
      </trkpt>
      <trkpt lat="47.42216" lon="6.73783">
        <ele>439</ele>
        <time>2015-11-11T10:33:11.000Z</time>
      </trkpt>
      <trkpt lat="47.42219" lon="6.73787">
        <ele>439</ele>
        <time>2015-11-11T10:33:14.000Z</time>
      </trkpt>
      <trkpt lat="47.42219" lon="6.73788">
        <ele>439</ele>
        <time>2015-11-11T10:33:15.000Z</time>
      </trkpt>
      <trkpt lat="47.42223" lon="6.73791">
        <ele>439</ele>
        <time>2015-11-11T10:33:18.000Z</time>
      </trkpt>
      <trkpt lat="47.42224" lon="6.73793">
        <ele>439</ele>
        <time>2015-11-11T10:33:19.000Z</time>
      </trkpt>
      <trkpt lat="47.42227" lon="6.73798">
        <ele>439</ele>
        <time>2015-11-11T10:33:27.000Z</time>
      </trkpt>
      <trkpt lat="47.42228" lon="6.73798">
        <ele>439</ele>
        <time>2015-11-11T10:33:28.000Z</time>
      </trkpt>
      <trkpt lat="47.42232" lon="6.738">
        <ele>440</ele>
        <time>2015-11-11T10:33:35.000Z</time>
      </trkpt>
      <trkpt lat="47.42232" lon="6.73801">
        <ele>440</ele>
        <time>2015-11-11T10:33:36.000Z</time>
      </trkpt>
      <trkpt lat="47.42236" lon="6.73804">
        <ele>440</ele>
        <time>2015-11-11T10:33:42.000Z</time>
      </trkpt>
      <trkpt lat="47.42236" lon="6.73805">
        <ele>440</ele>
        <time>2015-11-11T10:33:43.000Z</time>
      </trkpt>
      <trkpt lat="47.42238" lon="6.7381">
        <ele>440</ele>
        <time>2015-11-11T10:33:51.000Z</time>
      </trkpt>
      <trkpt lat="47.42239" lon="6.73811">
        <ele>440</ele>
        <time>2015-11-11T10:33:52.000Z</time>
      </trkpt>
      <trkpt lat="47.42242" lon="6.73815">
        <ele>440</ele>
        <time>2015-11-11T10:33:53.999Z</time>
      </trkpt>
      <trkpt lat="47.42243" lon="6.73817">
        <ele>440</ele>
        <time>2015-11-11T10:33:55.000Z</time>
      </trkpt>
      <trkpt lat="47.42247" lon="6.73818">
        <ele>440</ele>
        <time>2015-11-11T10:33:59.000Z</time>
      </trkpt>
      <trkpt lat="47.42248" lon="6.73819">
        <ele>440</ele>
        <time>2015-11-11T10:34:00.000Z</time>
      </trkpt>
      <trkpt lat="47.42249" lon="6.73824">
        <ele>440</ele>
        <time>2015-11-11T10:34:04.000Z</time>
      </trkpt>
      <trkpt lat="47.42249" lon="6.73826">
        <ele>440</ele>
        <time>2015-11-11T10:34:05.000Z</time>
      </trkpt>
      <trkpt lat="47.42248" lon="6.7383">
        <ele>441</ele>
        <time>2015-11-11T10:35:16.000Z</time>
      </trkpt>
      <trkpt lat="47.42247" lon="6.73834">
        <ele>440</ele>
        <time>2015-11-11T10:35:17.000Z</time>
      </trkpt>
      <trkpt lat="47.42247" lon="6.73836">
        <ele>440</ele>
        <time>2015-11-11T10:35:18.000Z</time>
      </trkpt>
      <trkpt lat="47.42247" lon="6.73841">
        <ele>439</ele>
        <time>2015-11-11T10:35:19.000Z</time>
      </trkpt>
      <trkpt lat="47.42247" lon="6.73847">
        <ele>438</ele>
        <time>2015-11-11T10:35:20.001Z</time>
      </trkpt>
      <trkpt lat="47.42249" lon="6.73853">
        <ele>437</ele>
        <time>2015-11-11T10:35:21.000Z</time>
      </trkpt>
      <trkpt lat="47.42254" lon="6.73865">
        <ele>442</ele>
        <time>2015-11-11T10:35:22.000Z</time>
      </trkpt>
      <trkpt lat="47.42257" lon="6.73872">
        <ele>442</ele>
        <time>2015-11-11T10:35:23.000Z</time>
      </trkpt>
      <trkpt lat="47.42258" lon="6.73881">
        <ele>441</ele>
        <time>2015-11-11T10:35:24.000Z</time>
      </trkpt>
      <trkpt lat="47.4226" lon="6.73891">
        <ele>440</ele>
        <time>2015-11-11T10:35:25.000Z</time>
      </trkpt>
      <trkpt lat="47.42263" lon="6.73901">
        <ele>439</ele>
        <time>2015-11-11T10:35:26.000Z</time>
      </trkpt>
      <trkpt lat="47.42266" lon="6.73912">
        <ele>438</ele>
        <time>2015-11-11T10:35:26.999Z</time>
      </trkpt>
      <trkpt lat="47.4227" lon="6.73923">
        <ele>434</ele>
        <time>2015-11-11T10:35:28.000Z</time>
      </trkpt>
      <trkpt lat="47.42274" lon="6.73934">
        <ele>434</ele>
        <time>2015-11-11T10:35:29.000Z</time>
      </trkpt>
      <trkpt lat="47.42277" lon="6.73946">
        <ele>433</ele>
        <time>2015-11-11T10:35:30.000Z</time>
      </trkpt>
      <trkpt lat="47.42281" lon="6.73957">
        <ele>433</ele>
        <time>2015-11-11T10:35:31.000Z</time>
      </trkpt>
      <trkpt lat="47.42286" lon="6.73966">
        <ele>433</ele>
        <time>2015-11-11T10:35:32.000Z</time>
      </trkpt>
      <trkpt lat="47.4229" lon="6.73974">
        <ele>432</ele>
        <time>2015-11-11T10:35:33.000Z</time>
      </trkpt>
      <trkpt lat="47.42296" lon="6.7398">
        <ele>432</ele>
        <time>2015-11-11T10:35:34.000Z</time>
      </trkpt>
      <trkpt lat="47.42303" lon="6.73986">
        <ele>433</ele>
        <time>2015-11-11T10:35:35.000Z</time>
      </trkpt>
      <trkpt lat="47.4231" lon="6.7399">
        <ele>433</ele>
        <time>2015-11-11T10:35:36.001Z</time>
      </trkpt>
      <trkpt lat="47.42311" lon="6.73996">
        <ele>432</ele>
        <time>2015-11-11T10:35:37.001Z</time>
      </trkpt>
      <trkpt lat="47.42314" lon="6.73999">
        <ele>432</ele>
        <time>2015-11-11T10:35:38.000Z</time>
      </trkpt>
      <trkpt lat="47.42316" lon="6.74008">
        <ele>429</ele>
        <time>2015-11-11T10:35:39.000Z</time>
      </trkpt>
      <trkpt lat="47.42315" lon="6.74021">
        <ele>428</ele>
        <time>2015-11-11T10:35:40.000Z</time>
      </trkpt>
      <trkpt lat="47.42316" lon="6.74029">
        <ele>427</ele>
        <time>2015-11-11T10:35:41.001Z</time>
      </trkpt>
      <trkpt lat="47.4231" lon="6.74047">
        <ele>426</ele>
        <time>2015-11-11T10:35:42.000Z</time>
      </trkpt>
      <trkpt lat="47.42308" lon="6.74059">
        <ele>426</ele>
        <time>2015-11-11T10:35:43.000Z</time>
      </trkpt>
      <trkpt lat="47.42308" lon="6.74068">
        <ele>426</ele>
        <time>2015-11-11T10:35:44.000Z</time>
      </trkpt>
      <trkpt lat="47.42308" lon="6.74079">
        <ele>425</ele>
        <time>2015-11-11T10:35:45.000Z</time>
      </trkpt>
      <trkpt lat="47.42307" lon="6.74088">
        <ele>427</ele>
        <time>2015-11-11T10:35:46.000Z</time>
      </trkpt>
      <trkpt lat="47.42306" lon="6.74097">
        <ele>427</ele>
        <time>2015-11-11T10:35:47.000Z</time>
      </trkpt>
      <trkpt lat="47.42309" lon="6.74102">
        <ele>427</ele>
        <time>2015-11-11T10:35:48.000Z</time>
      </trkpt>
      <trkpt lat="47.42311" lon="6.74107">
        <ele>427</ele>
        <time>2015-11-11T10:35:49.000Z</time>
      </trkpt>
      <trkpt lat="47.42313" lon="6.74111">
        <ele>428</ele>
        <time>2015-11-11T10:35:50.000Z</time>
      </trkpt>
      <trkpt lat="47.42315" lon="6.74114">
        <ele>428</ele>
        <time>2015-11-11T10:35:51.000Z</time>
      </trkpt>
      <trkpt lat="47.42318" lon="6.74115">
        <ele>428</ele>
        <time>2015-11-11T10:35:52.000Z</time>
      </trkpt>
      <trkpt lat="47.42322" lon="6.74118">
        <ele>428</ele>
        <time>2015-11-11T10:35:53.000Z</time>
      </trkpt>
      <trkpt lat="47.42325" lon="6.74119">
        <ele>428</ele>
        <time>2015-11-11T10:35:54.000Z</time>
      </trkpt>
      <trkpt lat="47.42328" lon="6.74124">
        <ele>428</ele>
        <time>2015-11-11T10:35:55.000Z</time>
      </trkpt>
      <trkpt lat="47.42331" lon="6.74127">
        <ele>428</ele>
        <time>2015-11-11T10:35:56.000Z</time>
      </trkpt>
      <trkpt lat="47.42335" lon="6.7413">
        <ele>426</ele>
        <time>2015-11-11T10:35:57.000Z</time>
      </trkpt>
      <trkpt lat="47.42337" lon="6.74134">
        <ele>426</ele>
        <time>2015-11-11T10:35:58.000Z</time>
      </trkpt>
      <trkpt lat="47.42337" lon="6.74147">
        <ele>426</ele>
        <time>2015-11-11T10:35:59.000Z</time>
      </trkpt>
      <trkpt lat="47.42338" lon="6.74153">
        <ele>426</ele>
        <time>2015-11-11T10:36:00.000Z</time>
      </trkpt>
      <trkpt lat="47.42338" lon="6.74159">
        <ele>426</ele>
        <time>2015-11-11T10:36:01.000Z</time>
      </trkpt>
      <trkpt lat="47.42339" lon="6.74163">
        <ele>426</ele>
        <time>2015-11-11T10:36:02.001Z</time>
      </trkpt>
      <trkpt lat="47.42338" lon="6.74175">
        <ele>427</ele>
        <time>2015-11-11T10:36:03.000Z</time>
      </trkpt>
      <trkpt lat="47.42339" lon="6.7418">
        <ele>427</ele>
        <time>2015-11-11T10:36:04.000Z</time>
      </trkpt>
      <trkpt lat="47.4234" lon="6.74185">
        <ele>428</ele>
        <time>2015-11-11T10:36:05.000Z</time>
      </trkpt>
      <trkpt lat="47.42341" lon="6.7419">
        <ele>428</ele>
        <time>2015-11-11T10:36:06.000Z</time>
      </trkpt>
      <trkpt lat="47.42342" lon="6.74195">
        <ele>428</ele>
        <time>2015-11-11T10:36:07.000Z</time>
      </trkpt>
      <trkpt lat="47.42343" lon="6.742">
        <ele>429</ele>
        <time>2015-11-11T10:36:08.000Z</time>
      </trkpt>
      <trkpt lat="47.42345" lon="6.74204">
        <ele>429</ele>
        <time>2015-11-11T10:36:09.000Z</time>
      </trkpt>
      <trkpt lat="47.42346" lon="6.74208">
        <ele>429</ele>
        <time>2015-11-11T10:36:10.000Z</time>
      </trkpt>
      <trkpt lat="47.42348" lon="6.74211">
        <ele>429</ele>
        <time>2015-11-11T10:36:11.000Z</time>
      </trkpt>
      <trkpt lat="47.4235" lon="6.74215">
        <ele>430</ele>
        <time>2015-11-11T10:36:12.000Z</time>
      </trkpt>
      <trkpt lat="47.42352" lon="6.7422">
        <ele>430</ele>
        <time>2015-11-11T10:36:13.000Z</time>
      </trkpt>
      <trkpt lat="47.42355" lon="6.74225">
        <ele>430</ele>
        <time>2015-11-11T10:36:14.000Z</time>
      </trkpt>
      <trkpt lat="47.42359" lon="6.74229">
        <ele>430</ele>
        <time>2015-11-11T10:36:15.000Z</time>
      </trkpt>
      <trkpt lat="47.42361" lon="6.74234">
        <ele>430</ele>
        <time>2015-11-11T10:36:16.000Z</time>
      </trkpt>
      <trkpt lat="47.42362" lon="6.74237">
        <ele>430</ele>
        <time>2015-11-11T10:36:17.000Z</time>
      </trkpt>
      <trkpt lat="47.42363" lon="6.74241">
        <ele>430</ele>
        <time>2015-11-11T10:36:18.000Z</time>
      </trkpt>
      <trkpt lat="47.42363" lon="6.74244">
        <ele>430</ele>
        <time>2015-11-11T10:36:19.000Z</time>
      </trkpt>
      <trkpt lat="47.42365" lon="6.74249">
        <ele>430</ele>
        <time>2015-11-11T10:36:21.000Z</time>
      </trkpt>
      <trkpt lat="47.42366" lon="6.74251">
        <ele>435</ele>
        <time>2015-11-11T10:36:22.000Z</time>
      </trkpt>
      <trkpt lat="47.42369" lon="6.74256">
        <ele>435</ele>
        <time>2015-11-11T10:36:24.000Z</time>
      </trkpt>
      <trkpt lat="47.4237" lon="6.74258">
        <ele>435</ele>
        <time>2015-11-11T10:36:25.000Z</time>
      </trkpt>
      <trkpt lat="47.42372" lon="6.74262">
        <ele>435</ele>
        <time>2015-11-11T10:36:27.000Z</time>
      </trkpt>
      <trkpt lat="47.42374" lon="6.74262">
        <ele>435</ele>
        <time>2015-11-11T10:36:28.000Z</time>
      </trkpt>
      <trkpt lat="47.42378" lon="6.74262">
        <ele>435</ele>
        <time>2015-11-11T10:36:30.000Z</time>
      </trkpt>
      <trkpt lat="47.42381" lon="6.74262">
        <ele>435</ele>
        <time>2015-11-11T10:36:31.000Z</time>
      </trkpt>
      <trkpt lat="47.42383" lon="6.74262">
        <ele>435</ele>
        <time>2015-11-11T10:36:32.000Z</time>
      </trkpt>
      <trkpt lat="47.42386" lon="6.74261">
        <ele>435</ele>
        <time>2015-11-11T10:36:33.000Z</time>
      </trkpt>
      <trkpt lat="47.42389" lon="6.74261">
        <ele>434</ele>
        <time>2015-11-11T10:36:34.000Z</time>
      </trkpt>
      <trkpt lat="47.42393" lon="6.74261">
        <ele>434</ele>
        <time>2015-11-11T10:36:35.000Z</time>
      </trkpt>
      <trkpt lat="47.42396" lon="6.74262">
        <ele>434</ele>
        <time>2015-11-11T10:36:36.000Z</time>
      </trkpt>
      <trkpt lat="47.42399" lon="6.74262">
        <ele>433</ele>
        <time>2015-11-11T10:36:37.000Z</time>
      </trkpt>
      <trkpt lat="47.42402" lon="6.74264">
        <ele>433</ele>
        <time>2015-11-11T10:36:38.000Z</time>
      </trkpt>
      <trkpt lat="47.42406" lon="6.74265">
        <ele>433</ele>
        <time>2015-11-11T10:36:39.000Z</time>
      </trkpt>
      <trkpt lat="47.4241" lon="6.74267">
        <ele>433</ele>
        <time>2015-11-11T10:36:40.000Z</time>
      </trkpt>
      <trkpt lat="47.42414" lon="6.74268">
        <ele>433</ele>
        <time>2015-11-11T10:36:41.000Z</time>
      </trkpt>
      <trkpt lat="47.42418" lon="6.74268">
        <ele>432</ele>
        <time>2015-11-11T10:36:42.000Z</time>
      </trkpt>
      <trkpt lat="47.42422" lon="6.74269">
        <ele>432</ele>
        <time>2015-11-11T10:36:43.000Z</time>
      </trkpt>
      <trkpt lat="47.42426" lon="6.7427">
        <ele>432</ele>
        <time>2015-11-11T10:36:44.000Z</time>
      </trkpt>
      <trkpt lat="47.4243" lon="6.74271">
        <ele>432</ele>
        <time>2015-11-11T10:36:45.000Z</time>
      </trkpt>
      <trkpt lat="47.42434" lon="6.74272">
        <ele>433</ele>
        <time>2015-11-11T10:36:46.000Z</time>
      </trkpt>
      <trkpt lat="47.4244" lon="6.74273">
        <ele>433</ele>
        <time>2015-11-11T10:36:47.000Z</time>
      </trkpt>
      <trkpt lat="47.42445" lon="6.74274">
        <ele>433</ele>
        <time>2015-11-11T10:36:48.000Z</time>
      </trkpt>
      <trkpt lat="47.4246" lon="6.74274">
        <ele>433</ele>
        <time>2015-11-11T10:36:49.000Z</time>
      </trkpt>
      <trkpt lat="47.42466" lon="6.74276">
        <ele>433</ele>
        <time>2015-11-11T10:36:50.000Z</time>
      </trkpt>
      <trkpt lat="47.42473" lon="6.74278">
        <ele>433</ele>
        <time>2015-11-11T10:36:51.000Z</time>
      </trkpt>
      <trkpt lat="47.4248" lon="6.7428">
        <ele>433</ele>
        <time>2015-11-11T10:36:52.000Z</time>
      </trkpt>
      <trkpt lat="47.42488" lon="6.74281">
        <ele>433</ele>
        <time>2015-11-11T10:36:53.000Z</time>
      </trkpt>
      <trkpt lat="47.42496" lon="6.74283">
        <ele>433</ele>
        <time>2015-11-11T10:36:54.000Z</time>
      </trkpt>
      <trkpt lat="47.42505" lon="6.74283">
        <ele>431</ele>
        <time>2015-11-11T10:36:55.000Z</time>
      </trkpt>
      <trkpt lat="47.4251" lon="6.74283">
        <ele>431</ele>
        <time>2015-11-11T10:36:56.000Z</time>
      </trkpt>
      <trkpt lat="47.42516" lon="6.74282">
        <ele>431</ele>
        <time>2015-11-11T10:36:57.000Z</time>
      </trkpt>
      <trkpt lat="47.42522" lon="6.74283">
        <ele>431</ele>
        <time>2015-11-11T10:36:58.000Z</time>
      </trkpt>
      <trkpt lat="47.42529" lon="6.74284">
        <ele>432</ele>
        <time>2015-11-11T10:36:59.000Z</time>
      </trkpt>
      <trkpt lat="47.42535" lon="6.74281">
        <ele>431</ele>
        <time>2015-11-11T10:37:00.000Z</time>
      </trkpt>
      <trkpt lat="47.42542" lon="6.74282">
        <ele>431</ele>
        <time>2015-11-11T10:37:01.000Z</time>
      </trkpt>
      <trkpt lat="47.42548" lon="6.74279">
        <ele>431</ele>
        <time>2015-11-11T10:37:02.001Z</time>
      </trkpt>
      <trkpt lat="47.42553" lon="6.74277">
        <ele>430</ele>
        <time>2015-11-11T10:37:03.000Z</time>
      </trkpt>
      <trkpt lat="47.42559" lon="6.74282">
        <ele>431</ele>
        <time>2015-11-11T10:37:04.000Z</time>
      </trkpt>
      <trkpt lat="47.42565" lon="6.74285">
        <ele>431</ele>
        <time>2015-11-11T10:37:05.000Z</time>
      </trkpt>
      <trkpt lat="47.4257" lon="6.74286">
        <ele>431</ele>
        <time>2015-11-11T10:37:06.000Z</time>
      </trkpt>
      <trkpt lat="47.42574" lon="6.74288">
        <ele>431</ele>
        <time>2015-11-11T10:37:07.001Z</time>
      </trkpt>
      <trkpt lat="47.4258" lon="6.74284">
        <ele>431</ele>
        <time>2015-11-11T10:37:08.000Z</time>
      </trkpt>
      <trkpt lat="47.42584" lon="6.74284">
        <ele>428</ele>
        <time>2015-11-11T10:37:09.000Z</time>
      </trkpt>
      <trkpt lat="47.42589" lon="6.74285">
        <ele>428</ele>
        <time>2015-11-11T10:37:10.000Z</time>
      </trkpt>
      <trkpt lat="47.42593" lon="6.74283">
        <ele>428</ele>
        <time>2015-11-11T10:37:11.000Z</time>
      </trkpt>
      <trkpt lat="47.42597" lon="6.74283">
        <ele>428</ele>
        <time>2015-11-11T10:37:12.000Z</time>
      </trkpt>
      <trkpt lat="47.42605" lon="6.7428">
        <ele>427</ele>
        <time>2015-11-11T10:37:13.000Z</time>
      </trkpt>
      <trkpt lat="47.4261" lon="6.7428">
        <ele>427</ele>
        <time>2015-11-11T10:37:14.000Z</time>
      </trkpt>
      <trkpt lat="47.42617" lon="6.74278">
        <ele>427</ele>
        <time>2015-11-11T10:37:15.000Z</time>
      </trkpt>
      <trkpt lat="47.42624" lon="6.74276">
        <ele>426</ele>
        <time>2015-11-11T10:37:16.000Z</time>
      </trkpt>
      <trkpt lat="47.4263" lon="6.74275">
        <ele>426</ele>
        <time>2015-11-11T10:37:17.000Z</time>
      </trkpt>
      <trkpt lat="47.42633" lon="6.74273">
        <ele>425</ele>
        <time>2015-11-11T10:37:18.000Z</time>
      </trkpt>
      <trkpt lat="47.42639" lon="6.74273">
        <ele>425</ele>
        <time>2015-11-11T10:37:19.000Z</time>
      </trkpt>
      <trkpt lat="47.42645" lon="6.74272">
        <ele>424</ele>
        <time>2015-11-11T10:37:20.000Z</time>
      </trkpt>
      <trkpt lat="47.4265" lon="6.7427">
        <ele>423</ele>
        <time>2015-11-11T10:37:21.000Z</time>
      </trkpt>
      <trkpt lat="47.42654" lon="6.74268">
        <ele>422</ele>
        <time>2015-11-11T10:37:22.000Z</time>
      </trkpt>
      <trkpt lat="47.4266" lon="6.74266">
        <ele>421</ele>
        <time>2015-11-11T10:37:23.000Z</time>
      </trkpt>
      <trkpt lat="47.42666" lon="6.74266">
        <ele>421</ele>
        <time>2015-11-11T10:37:24.000Z</time>
      </trkpt>
      <trkpt lat="47.42672" lon="6.74265">
        <ele>419</ele>
        <time>2015-11-11T10:37:25.000Z</time>
      </trkpt>
      <trkpt lat="47.42677" lon="6.74265">
        <ele>419</ele>
        <time>2015-11-11T10:37:26.000Z</time>
      </trkpt>
      <trkpt lat="47.42686" lon="6.74265">
        <ele>420</ele>
        <time>2015-11-11T10:37:27.000Z</time>
      </trkpt>
      <trkpt lat="47.42693" lon="6.74263">
        <ele>421</ele>
        <time>2015-11-11T10:37:28.000Z</time>
      </trkpt>
      <trkpt lat="47.427" lon="6.74261">
        <ele>421</ele>
        <time>2015-11-11T10:37:29.000Z</time>
      </trkpt>
      <trkpt lat="47.42706" lon="6.74261">
        <ele>421</ele>
        <time>2015-11-11T10:37:30.000Z</time>
      </trkpt>
      <trkpt lat="47.42715" lon="6.74261">
        <ele>421</ele>
        <time>2015-11-11T10:37:31.000Z</time>
      </trkpt>
      <trkpt lat="47.42723" lon="6.74263">
        <ele>421</ele>
        <time>2015-11-11T10:37:32.000Z</time>
      </trkpt>
      <trkpt lat="47.42731" lon="6.74262">
        <ele>420</ele>
        <time>2015-11-11T10:37:33.000Z</time>
      </trkpt>
      <trkpt lat="47.42739" lon="6.74262">
        <ele>419</ele>
        <time>2015-11-11T10:37:34.000Z</time>
      </trkpt>
      <trkpt lat="47.42747" lon="6.74263">
        <ele>419</ele>
        <time>2015-11-11T10:37:35.000Z</time>
      </trkpt>
      <trkpt lat="47.42751" lon="6.74264">
        <ele>417</ele>
        <time>2015-11-11T10:37:36.000Z</time>
      </trkpt>
      <trkpt lat="47.42758" lon="6.74266">
        <ele>418</ele>
        <time>2015-11-11T10:37:37.000Z</time>
      </trkpt>
      <trkpt lat="47.42765" lon="6.74267">
        <ele>418</ele>
        <time>2015-11-11T10:37:38.000Z</time>
      </trkpt>
      <trkpt lat="47.4277" lon="6.7427">
        <ele>418</ele>
        <time>2015-11-11T10:37:39.000Z</time>
      </trkpt>
      <trkpt lat="47.42776" lon="6.74273">
        <ele>419</ele>
        <time>2015-11-11T10:37:40.000Z</time>
      </trkpt>
      <trkpt lat="47.42782" lon="6.74274">
        <ele>419</ele>
        <time>2015-11-11T10:37:41.000Z</time>
      </trkpt>
      <trkpt lat="47.42786" lon="6.74278">
        <ele>419</ele>
        <time>2015-11-11T10:37:42.000Z</time>
      </trkpt>
      <trkpt lat="47.42791" lon="6.74282">
        <ele>419</ele>
        <time>2015-11-11T10:37:43.000Z</time>
      </trkpt>
      <trkpt lat="47.4279" lon="6.74289">
        <ele>419</ele>
        <time>2015-11-11T10:37:44.000Z</time>
      </trkpt>
      <trkpt lat="47.42793" lon="6.74292">
        <ele>419</ele>
        <time>2015-11-11T10:37:45.000Z</time>
      </trkpt>
      <trkpt lat="47.42796" lon="6.74295">
        <ele>420</ele>
        <time>2015-11-11T10:37:46.000Z</time>
      </trkpt>
      <trkpt lat="47.42801" lon="6.74296">
        <ele>419</ele>
        <time>2015-11-11T10:37:47.001Z</time>
      </trkpt>
      <trkpt lat="47.42803" lon="6.74299">
        <ele>419</ele>
        <time>2015-11-11T10:37:48.001Z</time>
      </trkpt>
      <trkpt lat="47.4281" lon="6.74302">
        <ele>419</ele>
        <time>2015-11-11T10:37:49.000Z</time>
      </trkpt>
      <trkpt lat="47.42814" lon="6.74307">
        <ele>419</ele>
        <time>2015-11-11T10:37:50.000Z</time>
      </trkpt>
      <trkpt lat="47.42829" lon="6.74307">
        <ele>419</ele>
        <time>2015-11-11T10:37:51.000Z</time>
      </trkpt>
      <trkpt lat="47.42838" lon="6.74309">
        <ele>415</ele>
        <time>2015-11-11T10:37:52.000Z</time>
      </trkpt>
      <trkpt lat="47.42845" lon="6.74311">
        <ele>415</ele>
        <time>2015-11-11T10:37:53.000Z</time>
      </trkpt>
      <trkpt lat="47.42848" lon="6.74318">
        <ele>415</ele>
        <time>2015-11-11T10:37:54.000Z</time>
      </trkpt>
      <trkpt lat="47.42851" lon="6.74321">
        <ele>415</ele>
        <time>2015-11-11T10:37:55.000Z</time>
      </trkpt>
      <trkpt lat="47.42855" lon="6.74326">
        <ele>415</ele>
        <time>2015-11-11T10:37:56.000Z</time>
      </trkpt>
      <trkpt lat="47.42859" lon="6.74326">
        <ele>414</ele>
        <time>2015-11-11T10:37:57.000Z</time>
      </trkpt>
      <trkpt lat="47.42863" lon="6.74332">
        <ele>414</ele>
        <time>2015-11-11T10:37:58.000Z</time>
      </trkpt>
      <trkpt lat="47.42866" lon="6.74335">
        <ele>416</ele>
        <time>2015-11-11T10:37:59.002Z</time>
      </trkpt>
      <trkpt lat="47.4287" lon="6.7434">
        <ele>416</ele>
        <time>2015-11-11T10:38:00.000Z</time>
      </trkpt>
      <trkpt lat="47.42873" lon="6.74347">
        <ele>416</ele>
        <time>2015-11-11T10:38:01.000Z</time>
      </trkpt>
      <trkpt lat="47.42876" lon="6.74351">
        <ele>416</ele>
        <time>2015-11-11T10:38:02.000Z</time>
      </trkpt>
      <trkpt lat="47.42878" lon="6.74355">
        <ele>416</ele>
        <time>2015-11-11T10:38:02.999Z</time>
      </trkpt>
      <trkpt lat="47.42883" lon="6.74362">
        <ele>416</ele>
        <time>2015-11-11T10:38:04.000Z</time>
      </trkpt>
      <trkpt lat="47.42887" lon="6.74367">
        <ele>416</ele>
        <time>2015-11-11T10:38:05.000Z</time>
      </trkpt>
      <trkpt lat="47.4289" lon="6.74371">
        <ele>416</ele>
        <time>2015-11-11T10:38:06.000Z</time>
      </trkpt>
      <trkpt lat="47.42894" lon="6.74375">
        <ele>416</ele>
        <time>2015-11-11T10:38:07.000Z</time>
      </trkpt>
      <trkpt lat="47.42898" lon="6.74379">
        <ele>416</ele>
        <time>2015-11-11T10:38:08.000Z</time>
      </trkpt>
      <trkpt lat="47.42912" lon="6.74384">
        <ele>415</ele>
        <time>2015-11-11T10:38:09.000Z</time>
      </trkpt>
      <trkpt lat="47.42918" lon="6.74389">
        <ele>410</ele>
        <time>2015-11-11T10:38:10.000Z</time>
      </trkpt>
      <trkpt lat="47.42923" lon="6.74394">
        <ele>411</ele>
        <time>2015-11-11T10:38:11.000Z</time>
      </trkpt>
      <trkpt lat="47.42927" lon="6.74399">
        <ele>411</ele>
        <time>2015-11-11T10:38:12.000Z</time>
      </trkpt>
      <trkpt lat="47.42931" lon="6.74404">
        <ele>411</ele>
        <time>2015-11-11T10:38:13.000Z</time>
      </trkpt>
      <trkpt lat="47.42935" lon="6.74408">
        <ele>411</ele>
        <time>2015-11-11T10:38:14.000Z</time>
      </trkpt>
      <trkpt lat="47.42941" lon="6.74413">
        <ele>411</ele>
        <time>2015-11-11T10:38:15.000Z</time>
      </trkpt>
      <trkpt lat="47.42944" lon="6.74415">
        <ele>410</ele>
        <time>2015-11-11T10:38:16.000Z</time>
      </trkpt>
      <trkpt lat="47.42949" lon="6.74418">
        <ele>415</ele>
        <time>2015-11-11T10:38:17.000Z</time>
      </trkpt>
      <trkpt lat="47.42959" lon="6.74418">
        <ele>415</ele>
        <time>2015-11-11T10:38:18.000Z</time>
      </trkpt>
      <trkpt lat="47.42961" lon="6.74417">
        <ele>415</ele>
        <time>2015-11-11T10:38:19.000Z</time>
      </trkpt>
      <trkpt lat="47.42967" lon="6.74414">
        <ele>409</ele>
        <time>2015-11-11T10:38:20.000Z</time>
      </trkpt>
      <trkpt lat="47.42974" lon="6.74411">
        <ele>409</ele>
        <time>2015-11-11T10:38:21.000Z</time>
      </trkpt>
      <trkpt lat="47.42978" lon="6.74407">
        <ele>409</ele>
        <time>2015-11-11T10:38:22.000Z</time>
      </trkpt>
      <trkpt lat="47.42983" lon="6.74403">
        <ele>409</ele>
        <time>2015-11-11T10:38:23.000Z</time>
      </trkpt>
      <trkpt lat="47.42991" lon="6.74397">
        <ele>409</ele>
        <time>2015-11-11T10:38:24.000Z</time>
      </trkpt>
      <trkpt lat="47.42999" lon="6.74392">
        <ele>408</ele>
        <time>2015-11-11T10:38:25.000Z</time>
      </trkpt>
      <trkpt lat="47.43004" lon="6.74387">
        <ele>408</ele>
        <time>2015-11-11T10:38:26.000Z</time>
      </trkpt>
      <trkpt lat="47.43011" lon="6.74384">
        <ele>408</ele>
        <time>2015-11-11T10:38:27.000Z</time>
      </trkpt>
      <trkpt lat="47.43018" lon="6.74379">
        <ele>407</ele>
        <time>2015-11-11T10:38:28.000Z</time>
      </trkpt>
      <trkpt lat="47.43022" lon="6.74374">
        <ele>407</ele>
        <time>2015-11-11T10:38:29.000Z</time>
      </trkpt>
      <trkpt lat="47.43027" lon="6.7437">
        <ele>407</ele>
        <time>2015-11-11T10:38:30.000Z</time>
      </trkpt>
      <trkpt lat="47.43031" lon="6.7437">
        <ele>407</ele>
        <time>2015-11-11T10:38:31.000Z</time>
      </trkpt>
      <trkpt lat="47.43036" lon="6.74368">
        <ele>407</ele>
        <time>2015-11-11T10:38:32.000Z</time>
      </trkpt>
      <trkpt lat="47.43041" lon="6.74365">
        <ele>407</ele>
        <time>2015-11-11T10:38:33.000Z</time>
      </trkpt>
      <trkpt lat="47.43046" lon="6.74362">
        <ele>407</ele>
        <time>2015-11-11T10:38:34.000Z</time>
      </trkpt>
      <trkpt lat="47.43052" lon="6.74357">
        <ele>406</ele>
        <time>2015-11-11T10:38:35.000Z</time>
      </trkpt>
      <trkpt lat="47.43057" lon="6.74353">
        <ele>406</ele>
        <time>2015-11-11T10:38:36.000Z</time>
      </trkpt>
      <trkpt lat="47.43062" lon="6.7435">
        <ele>406</ele>
        <time>2015-11-11T10:38:37.000Z</time>
      </trkpt>
      <trkpt lat="47.43069" lon="6.74348">
        <ele>405</ele>
        <time>2015-11-11T10:38:38.000Z</time>
      </trkpt>
      <trkpt lat="47.43074" lon="6.74344">
        <ele>405</ele>
        <time>2015-11-11T10:38:39.000Z</time>
      </trkpt>
      <trkpt lat="47.43081" lon="6.7434">
        <ele>403</ele>
        <time>2015-11-11T10:38:40.000Z</time>
      </trkpt>
      <trkpt lat="47.43089" lon="6.74337">
        <ele>403</ele>
        <time>2015-11-11T10:38:41.000Z</time>
      </trkpt>
      <trkpt lat="47.43097" lon="6.74334">
        <ele>404</ele>
        <time>2015-11-11T10:38:42.000Z</time>
      </trkpt>
      <trkpt lat="47.43106" lon="6.74332">
        <ele>404</ele>
        <time>2015-11-11T10:38:43.000Z</time>
      </trkpt>
      <trkpt lat="47.43116" lon="6.74326">
        <ele>404</ele>
        <time>2015-11-11T10:38:44.000Z</time>
      </trkpt>
      <trkpt lat="47.43128" lon="6.74323">
        <ele>404</ele>
        <time>2015-11-11T10:38:45.000Z</time>
      </trkpt>
      <trkpt lat="47.43137" lon="6.7432">
        <ele>404</ele>
        <time>2015-11-11T10:38:46.000Z</time>
      </trkpt>
      <trkpt lat="47.43148" lon="6.7432">
        <ele>403</ele>
        <time>2015-11-11T10:38:47.000Z</time>
      </trkpt>
      <trkpt lat="47.43159" lon="6.7432">
        <ele>402</ele>
        <time>2015-11-11T10:38:48.000Z</time>
      </trkpt>
      <trkpt lat="47.43167" lon="6.74324">
        <ele>401</ele>
        <time>2015-11-11T10:38:49.000Z</time>
      </trkpt>
      <trkpt lat="47.43176" lon="6.74328">
        <ele>401</ele>
        <time>2015-11-11T10:38:50.000Z</time>
      </trkpt>
      <trkpt lat="47.43184" lon="6.7433">
        <ele>401</ele>
        <time>2015-11-11T10:38:51.000Z</time>
      </trkpt>
      <trkpt lat="47.4319" lon="6.74333">
        <ele>401</ele>
        <time>2015-11-11T10:38:52.000Z</time>
      </trkpt>
      <trkpt lat="47.43197" lon="6.74335">
        <ele>400</ele>
        <time>2015-11-11T10:38:53.000Z</time>
      </trkpt>
      <trkpt lat="47.43203" lon="6.74338">
        <ele>400</ele>
        <time>2015-11-11T10:38:54.000Z</time>
      </trkpt>
      <trkpt lat="47.43209" lon="6.74339">
        <ele>399</ele>
        <time>2015-11-11T10:38:55.000Z</time>
      </trkpt>
      <trkpt lat="47.43214" lon="6.74342">
        <ele>399</ele>
        <time>2015-11-11T10:38:56.000Z</time>
      </trkpt>
      <trkpt lat="47.43219" lon="6.74343">
        <ele>399</ele>
        <time>2015-11-11T10:38:57.000Z</time>
      </trkpt>
      <trkpt lat="47.43226" lon="6.74343">
        <ele>399</ele>
        <time>2015-11-11T10:38:58.000Z</time>
      </trkpt>
      <trkpt lat="47.43232" lon="6.74343">
        <ele>398</ele>
        <time>2015-11-11T10:38:59.000Z</time>
      </trkpt>
      <trkpt lat="47.43237" lon="6.74344">
        <ele>398</ele>
        <time>2015-11-11T10:39:00.000Z</time>
      </trkpt>
      <trkpt lat="47.43242" lon="6.74347">
        <ele>398</ele>
        <time>2015-11-11T10:39:01.000Z</time>
      </trkpt>
      <trkpt lat="47.43247" lon="6.74348">
        <ele>398</ele>
        <time>2015-11-11T10:39:02.000Z</time>
      </trkpt>
      <trkpt lat="47.43252" lon="6.74349">
        <ele>395</ele>
        <time>2015-11-11T10:39:03.000Z</time>
      </trkpt>
      <trkpt lat="47.43258" lon="6.7435">
        <ele>395</ele>
        <time>2015-11-11T10:39:04.000Z</time>
      </trkpt>
      <trkpt lat="47.43264" lon="6.74352">
        <ele>395</ele>
        <time>2015-11-11T10:39:05.000Z</time>
      </trkpt>
      <trkpt lat="47.43268" lon="6.74353">
        <ele>395</ele>
        <time>2015-11-11T10:39:06.000Z</time>
      </trkpt>
      <trkpt lat="47.43272" lon="6.74355">
        <ele>395</ele>
        <time>2015-11-11T10:39:07.000Z</time>
      </trkpt>
      <trkpt lat="47.43277" lon="6.74355">
        <ele>395</ele>
        <time>2015-11-11T10:39:08.000Z</time>
      </trkpt>
      <trkpt lat="47.43282" lon="6.74356">
        <ele>395</ele>
        <time>2015-11-11T10:39:09.000Z</time>
      </trkpt>
      <trkpt lat="47.43287" lon="6.74359">
        <ele>395</ele>
        <time>2015-11-11T10:39:10.000Z</time>
      </trkpt>
      <trkpt lat="47.43292" lon="6.7436">
        <ele>395</ele>
        <time>2015-11-11T10:39:11.000Z</time>
      </trkpt>
      <trkpt lat="47.43297" lon="6.74362">
        <ele>395</ele>
        <time>2015-11-11T10:39:12.000Z</time>
      </trkpt>
      <trkpt lat="47.433" lon="6.74364">
        <ele>394</ele>
        <time>2015-11-11T10:39:13.000Z</time>
      </trkpt>
      <trkpt lat="47.43305" lon="6.74365">
        <ele>394</ele>
        <time>2015-11-11T10:39:14.000Z</time>
      </trkpt>
      <trkpt lat="47.4331" lon="6.74366">
        <ele>394</ele>
        <time>2015-11-11T10:39:15.000Z</time>
      </trkpt>
      <trkpt lat="47.43315" lon="6.7437">
        <ele>394</ele>
        <time>2015-11-11T10:39:16.000Z</time>
      </trkpt>
      <trkpt lat="47.43318" lon="6.74373">
        <ele>394</ele>
        <time>2015-11-11T10:39:17.000Z</time>
      </trkpt>
      <trkpt lat="47.43321" lon="6.74375">
        <ele>394</ele>
        <time>2015-11-11T10:39:18.000Z</time>
      </trkpt>
      <trkpt lat="47.43326" lon="6.74378">
        <ele>393</ele>
        <time>2015-11-11T10:39:19.000Z</time>
      </trkpt>
      <trkpt lat="47.4333" lon="6.74379">
        <ele>393</ele>
        <time>2015-11-11T10:39:20.000Z</time>
      </trkpt>
      <trkpt lat="47.43334" lon="6.74383">
        <ele>396</ele>
        <time>2015-11-11T10:39:21.000Z</time>
      </trkpt>
      <trkpt lat="47.43339" lon="6.74385">
        <ele>396</ele>
        <time>2015-11-11T10:39:22.000Z</time>
      </trkpt>
      <trkpt lat="47.43344" lon="6.74387">
        <ele>396</ele>
        <time>2015-11-11T10:39:23.000Z</time>
      </trkpt>
      <trkpt lat="47.43348" lon="6.74389">
        <ele>396</ele>
        <time>2015-11-11T10:39:24.000Z</time>
      </trkpt>
      <trkpt lat="47.43352" lon="6.74392">
        <ele>396</ele>
        <time>2015-11-11T10:39:25.000Z</time>
      </trkpt>
      <trkpt lat="47.43356" lon="6.74395">
        <ele>396</ele>
        <time>2015-11-11T10:39:26.000Z</time>
      </trkpt>
      <trkpt lat="47.43361" lon="6.74398">
        <ele>396</ele>
        <time>2015-11-11T10:39:27.000Z</time>
      </trkpt>
      <trkpt lat="47.43365" lon="6.74401">
        <ele>396</ele>
        <time>2015-11-11T10:39:28.000Z</time>
      </trkpt>
      <trkpt lat="47.43368" lon="6.74404">
        <ele>396</ele>
        <time>2015-11-11T10:39:29.000Z</time>
      </trkpt>
      <trkpt lat="47.43371" lon="6.74407">
        <ele>396</ele>
        <time>2015-11-11T10:39:30.000Z</time>
      </trkpt>
      <trkpt lat="47.43374" lon="6.74409">
        <ele>396</ele>
        <time>2015-11-11T10:39:31.000Z</time>
      </trkpt>
      <trkpt lat="47.43377" lon="6.7441">
        <ele>397</ele>
        <time>2015-11-11T10:39:32.000Z</time>
      </trkpt>
      <trkpt lat="47.43379" lon="6.74412">
        <ele>397</ele>
        <time>2015-11-11T10:39:33.000Z</time>
      </trkpt>
      <trkpt lat="47.43383" lon="6.74415">
        <ele>397</ele>
        <time>2015-11-11T10:39:34.000Z</time>
      </trkpt>
      <trkpt lat="47.43387" lon="6.74417">
        <ele>397</ele>
        <time>2015-11-11T10:39:35.000Z</time>
      </trkpt>
      <trkpt lat="47.43391" lon="6.74419">
        <ele>391</ele>
        <time>2015-11-11T10:39:36.000Z</time>
      </trkpt>
      <trkpt lat="47.43394" lon="6.7442">
        <ele>392</ele>
        <time>2015-11-11T10:39:37.000Z</time>
      </trkpt>
      <trkpt lat="47.43398" lon="6.74421">
        <ele>392</ele>
        <time>2015-11-11T10:39:38.000Z</time>
      </trkpt>
      <trkpt lat="47.43402" lon="6.74422">
        <ele>392</ele>
        <time>2015-11-11T10:39:39.000Z</time>
      </trkpt>
      <trkpt lat="47.43406" lon="6.74424">
        <ele>393</ele>
        <time>2015-11-11T10:39:40.000Z</time>
      </trkpt>
      <trkpt lat="47.4341" lon="6.74425">
        <ele>393</ele>
        <time>2015-11-11T10:39:41.000Z</time>
      </trkpt>
      <trkpt lat="47.43414" lon="6.74427">
        <ele>393</ele>
        <time>2015-11-11T10:39:42.000Z</time>
      </trkpt>
      <trkpt lat="47.43418" lon="6.74428">
        <ele>393</ele>
        <time>2015-11-11T10:39:43.000Z</time>
      </trkpt>
      <trkpt lat="47.43422" lon="6.7443">
        <ele>393</ele>
        <time>2015-11-11T10:39:44.000Z</time>
      </trkpt>
      <trkpt lat="47.43426" lon="6.74431">
        <ele>392</ele>
        <time>2015-11-11T10:39:45.000Z</time>
      </trkpt>
      <trkpt lat="47.43429" lon="6.74433">
        <ele>392</ele>
        <time>2015-11-11T10:39:46.000Z</time>
      </trkpt>
      <trkpt lat="47.43433" lon="6.74434">
        <ele>392</ele>
        <time>2015-11-11T10:39:47.000Z</time>
      </trkpt>
      <trkpt lat="47.43436" lon="6.74436">
        <ele>392</ele>
        <time>2015-11-11T10:39:48.000Z</time>
      </trkpt>
      <trkpt lat="47.43439" lon="6.74437">
        <ele>391</ele>
        <time>2015-11-11T10:39:49.000Z</time>
      </trkpt>
      <trkpt lat="47.43443" lon="6.74439">
        <ele>391</ele>
        <time>2015-11-11T10:39:50.000Z</time>
      </trkpt>
      <trkpt lat="47.43446" lon="6.7444">
        <ele>391</ele>
        <time>2015-11-11T10:39:51.000Z</time>
      </trkpt>
      <trkpt lat="47.43449" lon="6.74441">
        <ele>391</ele>
        <time>2015-11-11T10:39:52.000Z</time>
      </trkpt>
      <trkpt lat="47.43453" lon="6.74442">
        <ele>391</ele>
        <time>2015-11-11T10:39:53.000Z</time>
      </trkpt>
      <trkpt lat="47.43456" lon="6.74444">
        <ele>391</ele>
        <time>2015-11-11T10:39:54.000Z</time>
      </trkpt>
      <trkpt lat="47.43459" lon="6.74445">
        <ele>391</ele>
        <time>2015-11-11T10:39:55.000Z</time>
      </trkpt>
      <trkpt lat="47.43462" lon="6.74445">
        <ele>391</ele>
        <time>2015-11-11T10:39:56.000Z</time>
      </trkpt>
      <trkpt lat="47.43465" lon="6.74446">
        <ele>391</ele>
        <time>2015-11-11T10:39:57.000Z</time>
      </trkpt>
      <trkpt lat="47.43469" lon="6.74446">
        <ele>391</ele>
        <time>2015-11-11T10:39:58.000Z</time>
      </trkpt>
      <trkpt lat="47.43473" lon="6.74446">
        <ele>391</ele>
        <time>2015-11-11T10:39:59.000Z</time>
      </trkpt>
      <trkpt lat="47.43477" lon="6.74446">
        <ele>391</ele>
        <time>2015-11-11T10:40:00.000Z</time>
      </trkpt>
      <trkpt lat="47.43483" lon="6.74444">
        <ele>391</ele>
        <time>2015-11-11T10:40:01.000Z</time>
      </trkpt>
      <trkpt lat="47.43487" lon="6.74444">
        <ele>391</ele>
        <time>2015-11-11T10:40:02.000Z</time>
      </trkpt>
      <trkpt lat="47.43491" lon="6.74444">
        <ele>391</ele>
        <time>2015-11-11T10:40:03.000Z</time>
      </trkpt>
      <trkpt lat="47.43495" lon="6.74444">
        <ele>392</ele>
        <time>2015-11-11T10:40:04.000Z</time>
      </trkpt>
      <trkpt lat="47.435" lon="6.74445">
        <ele>391</ele>
        <time>2015-11-11T10:40:05.000Z</time>
      </trkpt>
      <trkpt lat="47.43504" lon="6.74446">
        <ele>393</ele>
        <time>2015-11-11T10:40:06.000Z</time>
      </trkpt>
      <trkpt lat="47.43509" lon="6.74447">
        <ele>393</ele>
        <time>2015-11-11T10:40:07.000Z</time>
      </trkpt>
      <trkpt lat="47.43513" lon="6.74449">
        <ele>392</ele>
        <time>2015-11-11T10:40:08.000Z</time>
      </trkpt>
      <trkpt lat="47.43517" lon="6.7445">
        <ele>392</ele>
        <time>2015-11-11T10:40:09.000Z</time>
      </trkpt>
      <trkpt lat="47.43521" lon="6.74452">
        <ele>392</ele>
        <time>2015-11-11T10:40:10.000Z</time>
      </trkpt>
      <trkpt lat="47.43525" lon="6.74454">
        <ele>392</ele>
        <time>2015-11-11T10:40:11.000Z</time>
      </trkpt>
      <trkpt lat="47.43529" lon="6.74455">
        <ele>392</ele>
        <time>2015-11-11T10:40:12.000Z</time>
      </trkpt>
      <trkpt lat="47.43533" lon="6.74457">
        <ele>392</ele>
        <time>2015-11-11T10:40:13.000Z</time>
      </trkpt>
      <trkpt lat="47.43536" lon="6.74458">
        <ele>392</ele>
        <time>2015-11-11T10:40:14.000Z</time>
      </trkpt>
      <trkpt lat="47.43539" lon="6.7446">
        <ele>392</ele>
        <time>2015-11-11T10:40:15.000Z</time>
      </trkpt>
      <trkpt lat="47.43542" lon="6.74461">
        <ele>392</ele>
        <time>2015-11-11T10:40:16.000Z</time>
      </trkpt>
      <trkpt lat="47.43546" lon="6.74463">
        <ele>392</ele>
        <time>2015-11-11T10:40:17.000Z</time>
      </trkpt>
      <trkpt lat="47.43549" lon="6.74465">
        <ele>392</ele>
        <time>2015-11-11T10:40:18.000Z</time>
      </trkpt>
      <trkpt lat="47.43553" lon="6.74468">
        <ele>392</ele>
        <time>2015-11-11T10:40:19.000Z</time>
      </trkpt>
      <trkpt lat="47.43557" lon="6.74471">
        <ele>391</ele>
        <time>2015-11-11T10:40:20.000Z</time>
      </trkpt>
      <trkpt lat="47.43561" lon="6.74473">
        <ele>391</ele>
        <time>2015-11-11T10:40:21.000Z</time>
      </trkpt>
      <trkpt lat="47.43564" lon="6.74475">
        <ele>391</ele>
        <time>2015-11-11T10:40:22.000Z</time>
      </trkpt>
      <trkpt lat="47.43568" lon="6.74477">
        <ele>391</ele>
        <time>2015-11-11T10:40:23.000Z</time>
      </trkpt>
      <trkpt lat="47.43572" lon="6.74479">
        <ele>391</ele>
        <time>2015-11-11T10:40:24.000Z</time>
      </trkpt>
      <trkpt lat="47.43575" lon="6.74481">
        <ele>390</ele>
        <time>2015-11-11T10:40:25.000Z</time>
      </trkpt>
      <trkpt lat="47.43579" lon="6.74483">
        <ele>390</ele>
        <time>2015-11-11T10:40:26.000Z</time>
      </trkpt>
      <trkpt lat="47.43583" lon="6.74485">
        <ele>390</ele>
        <time>2015-11-11T10:40:27.000Z</time>
      </trkpt>
      <trkpt lat="47.43586" lon="6.74486">
        <ele>392</ele>
        <time>2015-11-11T10:40:28.000Z</time>
      </trkpt>
      <trkpt lat="47.43589" lon="6.74488">
        <ele>392</ele>
        <time>2015-11-11T10:40:29.000Z</time>
      </trkpt>
      <trkpt lat="47.43593" lon="6.7449">
        <ele>392</ele>
        <time>2015-11-11T10:40:30.000Z</time>
      </trkpt>
      <trkpt lat="47.43596" lon="6.74493">
        <ele>392</ele>
        <time>2015-11-11T10:40:31.000Z</time>
      </trkpt>
      <trkpt lat="47.43599" lon="6.74496">
        <ele>392</ele>
        <time>2015-11-11T10:40:32.000Z</time>
      </trkpt>
      <trkpt lat="47.43603" lon="6.74499">
        <ele>393</ele>
        <time>2015-11-11T10:40:33.000Z</time>
      </trkpt>
      <trkpt lat="47.43607" lon="6.74503">
        <ele>387</ele>
        <time>2015-11-11T10:40:34.000Z</time>
      </trkpt>
      <trkpt lat="47.43611" lon="6.74507">
        <ele>387</ele>
        <time>2015-11-11T10:40:35.000Z</time>
      </trkpt>
      <trkpt lat="47.43614" lon="6.74511">
        <ele>387</ele>
        <time>2015-11-11T10:40:36.000Z</time>
      </trkpt>
      <trkpt lat="47.43619" lon="6.74519">
        <ele>387</ele>
        <time>2015-11-11T10:40:37.000Z</time>
      </trkpt>
      <trkpt lat="47.43623" lon="6.74525">
        <ele>386</ele>
        <time>2015-11-11T10:40:38.000Z</time>
      </trkpt>
      <trkpt lat="47.43627" lon="6.74531">
        <ele>386</ele>
        <time>2015-11-11T10:40:39.000Z</time>
      </trkpt>
      <trkpt lat="47.43632" lon="6.74537">
        <ele>386</ele>
        <time>2015-11-11T10:40:40.000Z</time>
      </trkpt>
      <trkpt lat="47.43636" lon="6.7454">
        <ele>386</ele>
        <time>2015-11-11T10:40:41.000Z</time>
      </trkpt>
      <trkpt lat="47.43642" lon="6.74547">
        <ele>385</ele>
        <time>2015-11-11T10:40:42.000Z</time>
      </trkpt>
      <trkpt lat="47.43648" lon="6.74554">
        <ele>385</ele>
        <time>2015-11-11T10:40:43.000Z</time>
      </trkpt>
      <trkpt lat="47.43653" lon="6.7456">
        <ele>384</ele>
        <time>2015-11-11T10:40:43.999Z</time>
      </trkpt>
      <trkpt lat="47.43659" lon="6.74564">
        <ele>384</ele>
        <time>2015-11-11T10:40:45.000Z</time>
      </trkpt>
      <trkpt lat="47.43667" lon="6.74571">
        <ele>384</ele>
        <time>2015-11-11T10:40:46.001Z</time>
      </trkpt>
      <trkpt lat="47.43675" lon="6.74579">
        <ele>383</ele>
        <time>2015-11-11T10:40:47.000Z</time>
      </trkpt>
      <trkpt lat="47.43682" lon="6.74588">
        <ele>380</ele>
        <time>2015-11-11T10:40:48.000Z</time>
      </trkpt>
      <trkpt lat="47.43689" lon="6.74597">
        <ele>380</ele>
        <time>2015-11-11T10:40:49.000Z</time>
      </trkpt>
      <trkpt lat="47.43697" lon="6.74605">
        <ele>379</ele>
        <time>2015-11-11T10:40:50.000Z</time>
      </trkpt>
      <trkpt lat="47.43705" lon="6.74612">
        <ele>379</ele>
        <time>2015-11-11T10:40:51.000Z</time>
      </trkpt>
      <trkpt lat="47.43713" lon="6.74621">
        <ele>379</ele>
        <time>2015-11-11T10:40:52.000Z</time>
      </trkpt>
      <trkpt lat="47.43722" lon="6.74628">
        <ele>379</ele>
        <time>2015-11-11T10:40:53.000Z</time>
      </trkpt>
      <trkpt lat="47.43731" lon="6.74636">
        <ele>378</ele>
        <time>2015-11-11T10:40:54.000Z</time>
      </trkpt>
      <trkpt lat="47.4374" lon="6.74645">
        <ele>377</ele>
        <time>2015-11-11T10:40:55.000Z</time>
      </trkpt>
      <trkpt lat="47.43748" lon="6.74653">
        <ele>376</ele>
        <time>2015-11-11T10:40:56.000Z</time>
      </trkpt>
      <trkpt lat="47.43757" lon="6.74662">
        <ele>377</ele>
        <time>2015-11-11T10:40:57.000Z</time>
      </trkpt>
      <trkpt lat="47.43767" lon="6.7467">
        <ele>376</ele>
        <time>2015-11-11T10:40:58.000Z</time>
      </trkpt>
      <trkpt lat="47.43776" lon="6.74678">
        <ele>377</ele>
        <time>2015-11-11T10:40:59.000Z</time>
      </trkpt>
      <trkpt lat="47.43785" lon="6.74686">
        <ele>378</ele>
        <time>2015-11-11T10:41:00.000Z</time>
      </trkpt>
      <trkpt lat="47.43794" lon="6.74694">
        <ele>378</ele>
        <time>2015-11-11T10:41:01.000Z</time>
      </trkpt>
      <trkpt lat="47.43802" lon="6.74704">
        <ele>378</ele>
        <time>2015-11-11T10:41:02.000Z</time>
      </trkpt>
      <trkpt lat="47.4381" lon="6.74712">
        <ele>378</ele>
        <time>2015-11-11T10:41:03.000Z</time>
      </trkpt>
      <trkpt lat="47.43818" lon="6.74721">
        <ele>378</ele>
        <time>2015-11-11T10:41:04.000Z</time>
      </trkpt>
      <trkpt lat="47.43828" lon="6.7473">
        <ele>377</ele>
        <time>2015-11-11T10:41:05.000Z</time>
      </trkpt>
      <trkpt lat="47.43836" lon="6.7474">
        <ele>381</ele>
        <time>2015-11-11T10:41:06.000Z</time>
      </trkpt>
      <trkpt lat="47.43842" lon="6.74746">
        <ele>380</ele>
        <time>2015-11-11T10:41:07.000Z</time>
      </trkpt>
      <trkpt lat="47.43848" lon="6.74755">
        <ele>377</ele>
        <time>2015-11-11T10:41:08.000Z</time>
      </trkpt>
      <trkpt lat="47.43855" lon="6.74765">
        <ele>378</ele>
        <time>2015-11-11T10:41:09.000Z</time>
      </trkpt>
      <trkpt lat="47.43861" lon="6.74773">
        <ele>378</ele>
        <time>2015-11-11T10:41:10.000Z</time>
      </trkpt>
      <trkpt lat="47.43868" lon="6.7478">
        <ele>378</ele>
        <time>2015-11-11T10:41:11.000Z</time>
      </trkpt>
      <trkpt lat="47.43874" lon="6.74786">
        <ele>379</ele>
        <time>2015-11-11T10:41:12.000Z</time>
      </trkpt>
      <trkpt lat="47.4388" lon="6.7479">
        <ele>379</ele>
        <time>2015-11-11T10:41:13.000Z</time>
      </trkpt>
      <trkpt lat="47.43888" lon="6.74796">
        <ele>379</ele>
        <time>2015-11-11T10:41:14.000Z</time>
      </trkpt>
      <trkpt lat="47.43896" lon="6.74801">
        <ele>378</ele>
        <time>2015-11-11T10:41:15.000Z</time>
      </trkpt>
      <trkpt lat="47.43902" lon="6.74805">
        <ele>378</ele>
        <time>2015-11-11T10:41:16.000Z</time>
      </trkpt>
      <trkpt lat="47.43909" lon="6.74808">
        <ele>378</ele>
        <time>2015-11-11T10:41:17.000Z</time>
      </trkpt>
      <trkpt lat="47.43917" lon="6.74809">
        <ele>384</ele>
        <time>2015-11-11T10:41:18.000Z</time>
      </trkpt>
      <trkpt lat="47.43924" lon="6.74812">
        <ele>384</ele>
        <time>2015-11-11T10:41:19.000Z</time>
      </trkpt>
      <trkpt lat="47.43931" lon="6.74816">
        <ele>384</ele>
        <time>2015-11-11T10:41:20.000Z</time>
      </trkpt>
      <trkpt lat="47.43938" lon="6.7482">
        <ele>384</ele>
        <time>2015-11-11T10:41:21.000Z</time>
      </trkpt>
      <trkpt lat="47.43944" lon="6.74824">
        <ele>385</ele>
        <time>2015-11-11T10:41:22.000Z</time>
      </trkpt>
      <trkpt lat="47.4395" lon="6.74828">
        <ele>386</ele>
        <time>2015-11-11T10:41:23.000Z</time>
      </trkpt>
      <trkpt lat="47.43956" lon="6.74832">
        <ele>387</ele>
        <time>2015-11-11T10:41:23.999Z</time>
      </trkpt>
      <trkpt lat="47.43963" lon="6.74836">
        <ele>378</ele>
        <time>2015-11-11T10:41:25.001Z</time>
      </trkpt>
      <trkpt lat="47.4397" lon="6.74841">
        <ele>379</ele>
        <time>2015-11-11T10:41:26.000Z</time>
      </trkpt>
      <trkpt lat="47.43976" lon="6.74848">
        <ele>380</ele>
        <time>2015-11-11T10:41:27.000Z</time>
      </trkpt>
      <trkpt lat="47.43982" lon="6.74853">
        <ele>380</ele>
        <time>2015-11-11T10:41:28.000Z</time>
      </trkpt>
      <trkpt lat="47.43988" lon="6.74859">
        <ele>380</ele>
        <time>2015-11-11T10:41:29.000Z</time>
      </trkpt>
      <trkpt lat="47.43994" lon="6.74865">
        <ele>379</ele>
        <time>2015-11-11T10:41:30.000Z</time>
      </trkpt>
      <trkpt lat="47.44" lon="6.74872">
        <ele>378</ele>
        <time>2015-11-11T10:41:31.000Z</time>
      </trkpt>
      <trkpt lat="47.44005" lon="6.74879">
        <ele>385</ele>
        <time>2015-11-11T10:41:32.000Z</time>
      </trkpt>
      <trkpt lat="47.4401" lon="6.74886">
        <ele>384</ele>
        <time>2015-11-11T10:41:33.000Z</time>
      </trkpt>
      <trkpt lat="47.44015" lon="6.74895">
        <ele>382</ele>
        <time>2015-11-11T10:41:34.000Z</time>
      </trkpt>
      <trkpt lat="47.44019" lon="6.74905">
        <ele>381</ele>
        <time>2015-11-11T10:41:35.000Z</time>
      </trkpt>
      <trkpt lat="47.44024" lon="6.74914">
        <ele>382</ele>
        <time>2015-11-11T10:41:36.000Z</time>
      </trkpt>
      <trkpt lat="47.44028" lon="6.74922">
        <ele>376</ele>
        <time>2015-11-11T10:41:37.000Z</time>
      </trkpt>
      <trkpt lat="47.44032" lon="6.74931">
        <ele>377</ele>
        <time>2015-11-11T10:41:38.000Z</time>
      </trkpt>
      <trkpt lat="47.44037" lon="6.74939">
        <ele>377</ele>
        <time>2015-11-11T10:41:39.000Z</time>
      </trkpt>
      <trkpt lat="47.44042" lon="6.74947">
        <ele>377</ele>
        <time>2015-11-11T10:41:40.000Z</time>
      </trkpt>
      <trkpt lat="47.44047" lon="6.74955">
        <ele>377</ele>
        <time>2015-11-11T10:41:41.000Z</time>
      </trkpt>
      <trkpt lat="47.44053" lon="6.74963">
        <ele>377</ele>
        <time>2015-11-11T10:41:42.000Z</time>
      </trkpt>
      <trkpt lat="47.44059" lon="6.74971">
        <ele>377</ele>
        <time>2015-11-11T10:41:43.000Z</time>
      </trkpt>
      <trkpt lat="47.44064" lon="6.74979">
        <ele>377</ele>
        <time>2015-11-11T10:41:44.000Z</time>
      </trkpt>
      <trkpt lat="47.44069" lon="6.74988">
        <ele>376</ele>
        <time>2015-11-11T10:41:45.000Z</time>
      </trkpt>
      <trkpt lat="47.44074" lon="6.74998">
        <ele>376</ele>
        <time>2015-11-11T10:41:46.000Z</time>
      </trkpt>
      <trkpt lat="47.4408" lon="6.75007">
        <ele>375</ele>
        <time>2015-11-11T10:41:47.000Z</time>
      </trkpt>
      <trkpt lat="47.44084" lon="6.75017">
        <ele>376</ele>
        <time>2015-11-11T10:41:48.000Z</time>
      </trkpt>
      <trkpt lat="47.44088" lon="6.75028">
        <ele>376</ele>
        <time>2015-11-11T10:41:49.000Z</time>
      </trkpt>
      <trkpt lat="47.44093" lon="6.75039">
        <ele>376</ele>
        <time>2015-11-11T10:41:50.000Z</time>
      </trkpt>
      <trkpt lat="47.44098" lon="6.75049">
        <ele>375</ele>
        <time>2015-11-11T10:41:51.000Z</time>
      </trkpt>
      <trkpt lat="47.44103" lon="6.7506">
        <ele>375</ele>
        <time>2015-11-11T10:41:52.000Z</time>
      </trkpt>
      <trkpt lat="47.44108" lon="6.75069">
        <ele>375</ele>
        <time>2015-11-11T10:41:53.000Z</time>
      </trkpt>
      <trkpt lat="47.44112" lon="6.75079">
        <ele>375</ele>
        <time>2015-11-11T10:41:54.000Z</time>
      </trkpt>
      <trkpt lat="47.44117" lon="6.75089">
        <ele>372</ele>
        <time>2015-11-11T10:41:55.000Z</time>
      </trkpt>
      <trkpt lat="47.44122" lon="6.75098">
        <ele>373</ele>
        <time>2015-11-11T10:41:56.000Z</time>
      </trkpt>
      <trkpt lat="47.44126" lon="6.75109">
        <ele>373</ele>
        <time>2015-11-11T10:41:57.000Z</time>
      </trkpt>
      <trkpt lat="47.4413" lon="6.75117">
        <ele>373</ele>
        <time>2015-11-11T10:41:58.000Z</time>
      </trkpt>
      <trkpt lat="47.44135" lon="6.75126">
        <ele>373</ele>
        <time>2015-11-11T10:41:59.000Z</time>
      </trkpt>
      <trkpt lat="47.4414" lon="6.75135">
        <ele>372</ele>
        <time>2015-11-11T10:42:00.000Z</time>
      </trkpt>
      <trkpt lat="47.44144" lon="6.75142">
        <ele>372</ele>
        <time>2015-11-11T10:42:01.000Z</time>
      </trkpt>
      <trkpt lat="47.44149" lon="6.7515">
        <ele>371</ele>
        <time>2015-11-11T10:42:02.001Z</time>
      </trkpt>
      <trkpt lat="47.44154" lon="6.75157">
        <ele>370</ele>
        <time>2015-11-11T10:42:03.000Z</time>
      </trkpt>
      <trkpt lat="47.44158" lon="6.75166">
        <ele>369</ele>
        <time>2015-11-11T10:42:04.000Z</time>
      </trkpt>
      <trkpt lat="47.44163" lon="6.75171">
        <ele>369</ele>
        <time>2015-11-11T10:42:05.000Z</time>
      </trkpt>
      <trkpt lat="47.44169" lon="6.75177">
        <ele>369</ele>
        <time>2015-11-11T10:42:06.000Z</time>
      </trkpt>
      <trkpt lat="47.44174" lon="6.75186">
        <ele>370</ele>
        <time>2015-11-11T10:42:07.000Z</time>
      </trkpt>
      <trkpt lat="47.44179" lon="6.75193">
        <ele>370</ele>
        <time>2015-11-11T10:42:08.000Z</time>
      </trkpt>
      <trkpt lat="47.44184" lon="6.75199">
        <ele>370</ele>
        <time>2015-11-11T10:42:09.000Z</time>
      </trkpt>
      <trkpt lat="47.44189" lon="6.75206">
        <ele>371</ele>
        <time>2015-11-11T10:42:10.000Z</time>
      </trkpt>
      <trkpt lat="47.44195" lon="6.75213">
        <ele>371</ele>
        <time>2015-11-11T10:42:10.999Z</time>
      </trkpt>
      <trkpt lat="47.44201" lon="6.75221">
        <ele>371</ele>
        <time>2015-11-11T10:42:12.000Z</time>
      </trkpt>
      <trkpt lat="47.44207" lon="6.75228">
        <ele>371</ele>
        <time>2015-11-11T10:42:12.999Z</time>
      </trkpt>
      <trkpt lat="47.44212" lon="6.75235">
        <ele>371</ele>
        <time>2015-11-11T10:42:14.000Z</time>
      </trkpt>
      <trkpt lat="47.4422" lon="6.7524">
        <ele>371</ele>
        <time>2015-11-11T10:42:15.000Z</time>
      </trkpt>
      <trkpt lat="47.44226" lon="6.75246">
        <ele>371</ele>
        <time>2015-11-11T10:42:16.000Z</time>
      </trkpt>
      <trkpt lat="47.44233" lon="6.75249">
        <ele>371</ele>
        <time>2015-11-11T10:42:17.000Z</time>
      </trkpt>
      <trkpt lat="47.44239" lon="6.75254">
        <ele>369</ele>
        <time>2015-11-11T10:42:18.000Z</time>
      </trkpt>
      <trkpt lat="47.44246" lon="6.75259">
        <ele>369</ele>
        <time>2015-11-11T10:42:19.000Z</time>
      </trkpt>
      <trkpt lat="47.44252" lon="6.75266">
        <ele>371</ele>
        <time>2015-11-11T10:42:20.000Z</time>
      </trkpt>
      <trkpt lat="47.44259" lon="6.75271">
        <ele>371</ele>
        <time>2015-11-11T10:42:20.999Z</time>
      </trkpt>
      <trkpt lat="47.44265" lon="6.75277">
        <ele>371</ele>
        <time>2015-11-11T10:42:22.000Z</time>
      </trkpt>
      <trkpt lat="47.44272" lon="6.75283">
        <ele>371</ele>
        <time>2015-11-11T10:42:23.000Z</time>
      </trkpt>
      <trkpt lat="47.44279" lon="6.75289">
        <ele>371</ele>
        <time>2015-11-11T10:42:24.000Z</time>
      </trkpt>
      <trkpt lat="47.44286" lon="6.75294">
        <ele>371</ele>
        <time>2015-11-11T10:42:25.001Z</time>
      </trkpt>
      <trkpt lat="47.44295" lon="6.75299">
        <ele>371</ele>
        <time>2015-11-11T10:42:26.000Z</time>
      </trkpt>
      <trkpt lat="47.44304" lon="6.75303">
        <ele>371</ele>
        <time>2015-11-11T10:42:27.000Z</time>
      </trkpt>
      <trkpt lat="47.44313" lon="6.75308">
        <ele>371</ele>
        <time>2015-11-11T10:42:28.000Z</time>
      </trkpt>
      <trkpt lat="47.44322" lon="6.75309">
        <ele>370</ele>
        <time>2015-11-11T10:42:29.000Z</time>
      </trkpt>
      <trkpt lat="47.44331" lon="6.75314">
        <ele>370</ele>
        <time>2015-11-11T10:42:30.000Z</time>
      </trkpt>
      <trkpt lat="47.44341" lon="6.75313">
        <ele>375</ele>
        <time>2015-11-11T10:42:31.000Z</time>
      </trkpt>
      <trkpt lat="47.44349" lon="6.75314">
        <ele>376</ele>
        <time>2015-11-11T10:42:32.000Z</time>
      </trkpt>
      <trkpt lat="47.44357" lon="6.75316">
        <ele>377</ele>
        <time>2015-11-11T10:42:33.000Z</time>
      </trkpt>
      <trkpt lat="47.44365" lon="6.75319">
        <ele>378</ele>
        <time>2015-11-11T10:42:34.001Z</time>
      </trkpt>
      <trkpt lat="47.44374" lon="6.75324">
        <ele>379</ele>
        <time>2015-11-11T10:42:35.000Z</time>
      </trkpt>
      <trkpt lat="47.44381" lon="6.75328">
        <ele>379</ele>
        <time>2015-11-11T10:42:36.000Z</time>
      </trkpt>
      <trkpt lat="47.44387" lon="6.75337">
        <ele>369</ele>
        <time>2015-11-11T10:42:37.000Z</time>
      </trkpt>
      <trkpt lat="47.44392" lon="6.75344">
        <ele>369</ele>
        <time>2015-11-11T10:42:38.000Z</time>
      </trkpt>
      <trkpt lat="47.44399" lon="6.75351">
        <ele>370</ele>
        <time>2015-11-11T10:42:39.000Z</time>
      </trkpt>
      <trkpt lat="47.44405" lon="6.75358">
        <ele>369</ele>
        <time>2015-11-11T10:42:40.000Z</time>
      </trkpt>
      <trkpt lat="47.44413" lon="6.75362">
        <ele>369</ele>
        <time>2015-11-11T10:42:41.000Z</time>
      </trkpt>
      <trkpt lat="47.44416" lon="6.75371">
        <ele>367</ele>
        <time>2015-11-11T10:42:42.000Z</time>
      </trkpt>
      <trkpt lat="47.44422" lon="6.75379">
        <ele>371</ele>
        <time>2015-11-11T10:42:43.000Z</time>
      </trkpt>
      <trkpt lat="47.44428" lon="6.75386">
        <ele>370</ele>
        <time>2015-11-11T10:42:44.000Z</time>
      </trkpt>
      <trkpt lat="47.44434" lon="6.75395">
        <ele>369</ele>
        <time>2015-11-11T10:42:45.000Z</time>
      </trkpt>
      <trkpt lat="47.44441" lon="6.75403">
        <ele>369</ele>
        <time>2015-11-11T10:42:46.000Z</time>
      </trkpt>
      <trkpt lat="47.44448" lon="6.7541">
        <ele>369</ele>
        <time>2015-11-11T10:42:46.999Z</time>
      </trkpt>
      <trkpt lat="47.44451" lon="6.75413">
        <ele>369</ele>
        <time>2015-11-11T10:42:48.000Z</time>
      </trkpt>
      <trkpt lat="47.44458" lon="6.75416">
        <ele>370</ele>
        <time>2015-11-11T10:42:49.000Z</time>
      </trkpt>
      <trkpt lat="47.44464" lon="6.7542">
        <ele>362</ele>
        <time>2015-11-11T10:42:49.999Z</time>
      </trkpt>
      <trkpt lat="47.44471" lon="6.75426">
        <ele>362</ele>
        <time>2015-11-11T10:42:51.000Z</time>
      </trkpt>
      <trkpt lat="47.44478" lon="6.7543">
        <ele>363</ele>
        <time>2015-11-11T10:42:52.000Z</time>
      </trkpt>
      <trkpt lat="47.44484" lon="6.75434">
        <ele>363</ele>
        <time>2015-11-11T10:42:53.000Z</time>
      </trkpt>
      <trkpt lat="47.44491" lon="6.75437">
        <ele>363</ele>
        <time>2015-11-11T10:42:54.000Z</time>
      </trkpt>
      <trkpt lat="47.44497" lon="6.75442">
        <ele>363</ele>
        <time>2015-11-11T10:42:55.000Z</time>
      </trkpt>
      <trkpt lat="47.44502" lon="6.75445">
        <ele>364</ele>
        <time>2015-11-11T10:42:56.000Z</time>
      </trkpt>
      <trkpt lat="47.44507" lon="6.75449">
        <ele>364</ele>
        <time>2015-11-11T10:42:57.000Z</time>
      </trkpt>
      <trkpt lat="47.44515" lon="6.75451">
        <ele>363</ele>
        <time>2015-11-11T10:42:58.000Z</time>
      </trkpt>
      <trkpt lat="47.44521" lon="6.75455">
        <ele>363</ele>
        <time>2015-11-11T10:42:59.000Z</time>
      </trkpt>
      <trkpt lat="47.44529" lon="6.75457">
        <ele>363</ele>
        <time>2015-11-11T10:43:00.000Z</time>
      </trkpt>
      <trkpt lat="47.44537" lon="6.75458">
        <ele>363</ele>
        <time>2015-11-11T10:43:01.001Z</time>
      </trkpt>
      <trkpt lat="47.44544" lon="6.75458">
        <ele>363</ele>
        <time>2015-11-11T10:43:02.000Z</time>
      </trkpt>
      <trkpt lat="47.44552" lon="6.75458">
        <ele>363</ele>
        <time>2015-11-11T10:43:03.000Z</time>
      </trkpt>
      <trkpt lat="47.4456" lon="6.75457">
        <ele>364</ele>
        <time>2015-11-11T10:43:04.000Z</time>
      </trkpt>
      <trkpt lat="47.44568" lon="6.75454">
        <ele>364</ele>
        <time>2015-11-11T10:43:05.000Z</time>
      </trkpt>
      <trkpt lat="47.44575" lon="6.75453">
        <ele>364</ele>
        <time>2015-11-11T10:43:06.000Z</time>
      </trkpt>
      <trkpt lat="47.44582" lon="6.75453">
        <ele>364</ele>
        <time>2015-11-11T10:43:07.000Z</time>
      </trkpt>
      <trkpt lat="47.44589" lon="6.75452">
        <ele>364</ele>
        <time>2015-11-11T10:43:08.000Z</time>
      </trkpt>
      <trkpt lat="47.44595" lon="6.75452">
        <ele>364</ele>
        <time>2015-11-11T10:43:09.000Z</time>
      </trkpt>
      <trkpt lat="47.44602" lon="6.75452">
        <ele>364</ele>
        <time>2015-11-11T10:43:10.000Z</time>
      </trkpt>
      <trkpt lat="47.44608" lon="6.75452">
        <ele>364</ele>
        <time>2015-11-11T10:43:11.000Z</time>
      </trkpt>
      <trkpt lat="47.44614" lon="6.75452">
        <ele>364</ele>
        <time>2015-11-11T10:43:12.000Z</time>
      </trkpt>
      <trkpt lat="47.44619" lon="6.75452">
        <ele>364</ele>
        <time>2015-11-11T10:43:13.000Z</time>
      </trkpt>
      <trkpt lat="47.44626" lon="6.75451">
        <ele>364</ele>
        <time>2015-11-11T10:43:14.000Z</time>
      </trkpt>
      <trkpt lat="47.44632" lon="6.75451">
        <ele>364</ele>
        <time>2015-11-11T10:43:15.000Z</time>
      </trkpt>
      <trkpt lat="47.44637" lon="6.75451">
        <ele>363</ele>
        <time>2015-11-11T10:43:16.000Z</time>
      </trkpt>
      <trkpt lat="47.44643" lon="6.75452">
        <ele>363</ele>
        <time>2015-11-11T10:43:17.000Z</time>
      </trkpt>
      <trkpt lat="47.44651" lon="6.75454">
        <ele>363</ele>
        <time>2015-11-11T10:43:18.000Z</time>
      </trkpt>
      <trkpt lat="47.44658" lon="6.75456">
        <ele>363</ele>
        <time>2015-11-11T10:43:19.000Z</time>
      </trkpt>
      <trkpt lat="47.44664" lon="6.75456">
        <ele>363</ele>
        <time>2015-11-11T10:43:20.000Z</time>
      </trkpt>
      <trkpt lat="47.44671" lon="6.75458">
        <ele>361</ele>
        <time>2015-11-11T10:43:21.000Z</time>
      </trkpt>
      <trkpt lat="47.44678" lon="6.75457">
        <ele>361</ele>
        <time>2015-11-11T10:43:22.000Z</time>
      </trkpt>
      <trkpt lat="47.44685" lon="6.75459">
        <ele>361</ele>
        <time>2015-11-11T10:43:23.000Z</time>
      </trkpt>
      <trkpt lat="47.44693" lon="6.75458">
        <ele>361</ele>
        <time>2015-11-11T10:43:24.000Z</time>
      </trkpt>
      <trkpt lat="47.44701" lon="6.75459">
        <ele>361</ele>
        <time>2015-11-11T10:43:25.000Z</time>
      </trkpt>
      <trkpt lat="47.44708" lon="6.75459">
        <ele>361</ele>
        <time>2015-11-11T10:43:26.000Z</time>
      </trkpt>
      <trkpt lat="47.44717" lon="6.75459">
        <ele>361</ele>
        <time>2015-11-11T10:43:27.000Z</time>
      </trkpt>
      <trkpt lat="47.44725" lon="6.75458">
        <ele>361</ele>
        <time>2015-11-11T10:43:28.000Z</time>
      </trkpt>
      <trkpt lat="47.44733" lon="6.75458">
        <ele>361</ele>
        <time>2015-11-11T10:43:29.000Z</time>
      </trkpt>
      <trkpt lat="47.44741" lon="6.75457">
        <ele>361</ele>
        <time>2015-11-11T10:43:30.000Z</time>
      </trkpt>
      <trkpt lat="47.44748" lon="6.75456">
        <ele>361</ele>
        <time>2015-11-11T10:43:31.000Z</time>
      </trkpt>
      <trkpt lat="47.44757" lon="6.75452">
        <ele>360</ele>
        <time>2015-11-11T10:43:32.000Z</time>
      </trkpt>
      <trkpt lat="47.44765" lon="6.75449">
        <ele>360</ele>
        <time>2015-11-11T10:43:33.000Z</time>
      </trkpt>
      <trkpt lat="47.44773" lon="6.75447">
        <ele>360</ele>
        <time>2015-11-11T10:43:34.000Z</time>
      </trkpt>
      <trkpt lat="47.4478" lon="6.75446">
        <ele>360</ele>
        <time>2015-11-11T10:43:35.000Z</time>
      </trkpt>
      <trkpt lat="47.44788" lon="6.75444">
        <ele>360</ele>
        <time>2015-11-11T10:43:36.000Z</time>
      </trkpt>
      <trkpt lat="47.44795" lon="6.75442">
        <ele>360</ele>
        <time>2015-11-11T10:43:37.000Z</time>
      </trkpt>
      <trkpt lat="47.44802" lon="6.7544">
        <ele>360</ele>
        <time>2015-11-11T10:43:38.000Z</time>
      </trkpt>
      <trkpt lat="47.44809" lon="6.75439">
        <ele>360</ele>
        <time>2015-11-11T10:43:38.999Z</time>
      </trkpt>
      <trkpt lat="47.44817" lon="6.75439">
        <ele>360</ele>
        <time>2015-11-11T10:43:40.000Z</time>
      </trkpt>
      <trkpt lat="47.44824" lon="6.75437">
        <ele>360</ele>
        <time>2015-11-11T10:43:41.000Z</time>
      </trkpt>
      <trkpt lat="47.4483" lon="6.75436">
        <ele>360</ele>
        <time>2015-11-11T10:43:42.000Z</time>
      </trkpt>
      <trkpt lat="47.44838" lon="6.75434">
        <ele>359</ele>
        <time>2015-11-11T10:43:43.000Z</time>
      </trkpt>
      <trkpt lat="47.44845" lon="6.75433">
        <ele>358</ele>
        <time>2015-11-11T10:43:44.000Z</time>
      </trkpt>
      <trkpt lat="47.44852" lon="6.75432">
        <ele>358</ele>
        <time>2015-11-11T10:43:45.000Z</time>
      </trkpt>
      <trkpt lat="47.44859" lon="6.75432">
        <ele>357</ele>
        <time>2015-11-11T10:43:46.000Z</time>
      </trkpt>
      <trkpt lat="47.44866" lon="6.75432">
        <ele>357</ele>
        <time>2015-11-11T10:43:47.000Z</time>
      </trkpt>
      <trkpt lat="47.44872" lon="6.75432">
        <ele>356</ele>
        <time>2015-11-11T10:43:48.000Z</time>
      </trkpt>
      <trkpt lat="47.4488" lon="6.75433">
        <ele>356</ele>
        <time>2015-11-11T10:43:49.000Z</time>
      </trkpt>
      <trkpt lat="47.44886" lon="6.75434">
        <ele>355</ele>
        <time>2015-11-11T10:43:50.000Z</time>
      </trkpt>
      <trkpt lat="47.44893" lon="6.75434">
        <ele>355</ele>
        <time>2015-11-11T10:43:51.000Z</time>
      </trkpt>
      <trkpt lat="47.449" lon="6.75433">
        <ele>355</ele>
        <time>2015-11-11T10:43:52.000Z</time>
      </trkpt>
      <trkpt lat="47.44907" lon="6.75434">
        <ele>355</ele>
        <time>2015-11-11T10:43:53.000Z</time>
      </trkpt>
      <trkpt lat="47.44913" lon="6.75434">
        <ele>355</ele>
        <time>2015-11-11T10:43:54.000Z</time>
      </trkpt>
      <trkpt lat="47.4492" lon="6.75436">
        <ele>353</ele>
        <time>2015-11-11T10:43:55.000Z</time>
      </trkpt>
      <trkpt lat="47.44927" lon="6.75437">
        <ele>353</ele>
        <time>2015-11-11T10:43:56.000Z</time>
      </trkpt>
      <trkpt lat="47.44933" lon="6.75437">
        <ele>353</ele>
        <time>2015-11-11T10:43:57.000Z</time>
      </trkpt>
      <trkpt lat="47.4494" lon="6.75436">
        <ele>353</ele>
        <time>2015-11-11T10:43:58.000Z</time>
      </trkpt>
      <trkpt lat="47.44947" lon="6.75438">
        <ele>353</ele>
        <time>2015-11-11T10:43:59.000Z</time>
      </trkpt>
      <trkpt lat="47.44954" lon="6.75439">
        <ele>352</ele>
        <time>2015-11-11T10:44:00.000Z</time>
      </trkpt>
      <trkpt lat="47.44961" lon="6.75441">
        <ele>352</ele>
        <time>2015-11-11T10:44:01.000Z</time>
      </trkpt>
      <trkpt lat="47.44968" lon="6.75442">
        <ele>352</ele>
        <time>2015-11-11T10:44:02.000Z</time>
      </trkpt>
      <trkpt lat="47.44976" lon="6.75442">
        <ele>352</ele>
        <time>2015-11-11T10:44:03.000Z</time>
      </trkpt>
      <trkpt lat="47.44983" lon="6.75444">
        <ele>352</ele>
        <time>2015-11-11T10:44:04.000Z</time>
      </trkpt>
      <trkpt lat="47.4499" lon="6.75445">
        <ele>352</ele>
        <time>2015-11-11T10:44:05.000Z</time>
      </trkpt>
      <trkpt lat="47.44997" lon="6.75446">
        <ele>352</ele>
        <time>2015-11-11T10:44:06.000Z</time>
      </trkpt>
      <trkpt lat="47.45005" lon="6.75447">
        <ele>351</ele>
        <time>2015-11-11T10:44:07.000Z</time>
      </trkpt>
      <trkpt lat="47.45012" lon="6.75448">
        <ele>351</ele>
        <time>2015-11-11T10:44:08.000Z</time>
      </trkpt>
      <trkpt lat="47.45019" lon="6.75448">
        <ele>351</ele>
        <time>2015-11-11T10:44:09.000Z</time>
      </trkpt>
      <trkpt lat="47.45027" lon="6.75448">
        <ele>351</ele>
        <time>2015-11-11T10:44:10.000Z</time>
      </trkpt>
      <trkpt lat="47.45034" lon="6.75448">
        <ele>351</ele>
        <time>2015-11-11T10:44:11.000Z</time>
      </trkpt>
      <trkpt lat="47.45042" lon="6.75447">
        <ele>351</ele>
        <time>2015-11-11T10:44:12.000Z</time>
      </trkpt>
      <trkpt lat="47.4505" lon="6.75446">
        <ele>351</ele>
        <time>2015-11-11T10:44:13.000Z</time>
      </trkpt>
      <trkpt lat="47.45058" lon="6.75445">
        <ele>351</ele>
        <time>2015-11-11T10:44:14.000Z</time>
      </trkpt>
      <trkpt lat="47.45065" lon="6.75444">
        <ele>351</ele>
        <time>2015-11-11T10:44:14.999Z</time>
      </trkpt>
      <trkpt lat="47.45072" lon="6.75442">
        <ele>351</ele>
        <time>2015-11-11T10:44:16.000Z</time>
      </trkpt>
      <trkpt lat="47.45079" lon="6.7544">
        <ele>351</ele>
        <time>2015-11-11T10:44:17.000Z</time>
      </trkpt>
      <trkpt lat="47.45086" lon="6.75439">
        <ele>350</ele>
        <time>2015-11-11T10:44:18.000Z</time>
      </trkpt>
      <trkpt lat="47.451" lon="6.75437">
        <ele>350</ele>
        <time>2015-11-11T10:44:20.000Z</time>
      </trkpt>
      <trkpt lat="47.45107" lon="6.75436">
        <ele>350</ele>
        <time>2015-11-11T10:44:21.000Z</time>
      </trkpt>
      <trkpt lat="47.45115" lon="6.75434">
        <ele>350</ele>
        <time>2015-11-11T10:44:22.000Z</time>
      </trkpt>
      <trkpt lat="47.45122" lon="6.75431">
        <ele>349</ele>
        <time>2015-11-11T10:44:23.000Z</time>
      </trkpt>
      <trkpt lat="47.45129" lon="6.7543">
        <ele>349</ele>
        <time>2015-11-11T10:44:24.000Z</time>
      </trkpt>
      <trkpt lat="47.45136" lon="6.7543">
        <ele>349</ele>
        <time>2015-11-11T10:44:25.000Z</time>
      </trkpt>
      <trkpt lat="47.45143" lon="6.75429">
        <ele>349</ele>
        <time>2015-11-11T10:44:26.000Z</time>
      </trkpt>
      <trkpt lat="47.4515" lon="6.75427">
        <ele>349</ele>
        <time>2015-11-11T10:44:27.000Z</time>
      </trkpt>
      <trkpt lat="47.45158" lon="6.75425">
        <ele>350</ele>
        <time>2015-11-11T10:44:28.000Z</time>
      </trkpt>
      <trkpt lat="47.45165" lon="6.75421">
        <ele>350</ele>
        <time>2015-11-11T10:44:29.000Z</time>
      </trkpt>
      <trkpt lat="47.45173" lon="6.75417">
        <ele>349</ele>
        <time>2015-11-11T10:44:30.000Z</time>
      </trkpt>
      <trkpt lat="47.4518" lon="6.75414">
        <ele>351</ele>
        <time>2015-11-11T10:44:31.000Z</time>
      </trkpt>
      <trkpt lat="47.45187" lon="6.75411">
        <ele>351</ele>
        <time>2015-11-11T10:44:32.000Z</time>
      </trkpt>
      <trkpt lat="47.45193" lon="6.75407">
        <ele>351</ele>
        <time>2015-11-11T10:44:33.000Z</time>
      </trkpt>
      <trkpt lat="47.452" lon="6.75404">
        <ele>351</ele>
        <time>2015-11-11T10:44:34.000Z</time>
      </trkpt>
      <trkpt lat="47.45206" lon="6.75399">
        <ele>351</ele>
        <time>2015-11-11T10:44:35.000Z</time>
      </trkpt>
      <trkpt lat="47.45212" lon="6.75396">
        <ele>351</ele>
        <time>2015-11-11T10:44:36.000Z</time>
      </trkpt>
      <trkpt lat="47.45218" lon="6.75392">
        <ele>350</ele>
        <time>2015-11-11T10:44:37.000Z</time>
      </trkpt>
      <trkpt lat="47.45224" lon="6.75389">
        <ele>350</ele>
        <time>2015-11-11T10:44:38.000Z</time>
      </trkpt>
      <trkpt lat="47.45231" lon="6.75386">
        <ele>350</ele>
        <time>2015-11-11T10:44:39.000Z</time>
      </trkpt>
      <trkpt lat="47.45236" lon="6.75384">
        <ele>350</ele>
        <time>2015-11-11T10:44:40.000Z</time>
      </trkpt>
      <trkpt lat="47.45241" lon="6.7538">
        <ele>350</ele>
        <time>2015-11-11T10:44:41.000Z</time>
      </trkpt>
      <trkpt lat="47.45246" lon="6.75376">
        <ele>351</ele>
        <time>2015-11-11T10:44:42.000Z</time>
      </trkpt>
      <trkpt lat="47.45252" lon="6.75373">
        <ele>348</ele>
        <time>2015-11-11T10:44:43.000Z</time>
      </trkpt>
      <trkpt lat="47.45257" lon="6.75371">
        <ele>348</ele>
        <time>2015-11-11T10:44:44.000Z</time>
      </trkpt>
      <trkpt lat="47.45262" lon="6.75368">
        <ele>348</ele>
        <time>2015-11-11T10:44:45.000Z</time>
      </trkpt>
      <trkpt lat="47.45266" lon="6.75365">
        <ele>348</ele>
        <time>2015-11-11T10:44:46.000Z</time>
      </trkpt>
      <trkpt lat="47.45272" lon="6.75363">
        <ele>348</ele>
        <time>2015-11-11T10:44:47.000Z</time>
      </trkpt>
      <trkpt lat="47.45276" lon="6.7536">
        <ele>348</ele>
        <time>2015-11-11T10:44:48.000Z</time>
      </trkpt>
      <trkpt lat="47.4528" lon="6.75358">
        <ele>348</ele>
        <time>2015-11-11T10:44:49.000Z</time>
      </trkpt>
      <trkpt lat="47.45284" lon="6.75357">
        <ele>348</ele>
        <time>2015-11-11T10:44:50.000Z</time>
      </trkpt>
      <trkpt lat="47.45288" lon="6.75355">
        <ele>348</ele>
        <time>2015-11-11T10:44:51.000Z</time>
      </trkpt>
      <trkpt lat="47.45292" lon="6.75353">
        <ele>348</ele>
        <time>2015-11-11T10:44:52.000Z</time>
      </trkpt>
      <trkpt lat="47.45295" lon="6.75351">
        <ele>348</ele>
        <time>2015-11-11T10:44:53.000Z</time>
      </trkpt>
      <trkpt lat="47.45298" lon="6.7535">
        <ele>348</ele>
        <time>2015-11-11T10:44:54.000Z</time>
      </trkpt>
      <trkpt lat="47.45302" lon="6.75349">
        <ele>348</ele>
        <time>2015-11-11T10:44:55.000Z</time>
      </trkpt>
      <trkpt lat="47.45304" lon="6.75347">
        <ele>348</ele>
        <time>2015-11-11T10:44:56.000Z</time>
      </trkpt>
      <trkpt lat="47.45308" lon="6.75346">
        <ele>348</ele>
        <time>2015-11-11T10:44:57.000Z</time>
      </trkpt>
      <trkpt lat="47.4531" lon="6.75346">
        <ele>348</ele>
        <time>2015-11-11T10:44:58.000Z</time>
      </trkpt>
      <trkpt lat="47.45312" lon="6.75345">
        <ele>348</ele>
        <time>2015-11-11T10:45:26.000Z</time>
      </trkpt>
      <trkpt lat="47.45314" lon="6.75343">
        <ele>348</ele>
        <time>2015-11-11T10:45:27.000Z</time>
      </trkpt>
      <trkpt lat="47.45316" lon="6.7534">
        <ele>348</ele>
        <time>2015-11-11T10:45:28.000Z</time>
      </trkpt>
      <trkpt lat="47.45318" lon="6.75338">
        <ele>348</ele>
        <time>2015-11-11T10:45:29.000Z</time>
      </trkpt>
      <trkpt lat="47.45321" lon="6.75335">
        <ele>348</ele>
        <time>2015-11-11T10:45:30.000Z</time>
      </trkpt>
      <trkpt lat="47.45324" lon="6.75332">
        <ele>349</ele>
        <time>2015-11-11T10:45:31.000Z</time>
      </trkpt>
      <trkpt lat="47.45327" lon="6.75331">
        <ele>349</ele>
        <time>2015-11-11T10:45:32.000Z</time>
      </trkpt>
      <trkpt lat="47.45329" lon="6.7533">
        <ele>349</ele>
        <time>2015-11-11T10:45:33.000Z</time>
      </trkpt>
      <trkpt lat="47.45332" lon="6.7533">
        <ele>349</ele>
        <time>2015-11-11T10:45:34.000Z</time>
      </trkpt>
      <trkpt lat="47.45335" lon="6.75329">
        <ele>349</ele>
        <time>2015-11-11T10:45:35.000Z</time>
      </trkpt>
      <trkpt lat="47.45351" lon="6.75318">
        <ele>351</ele>
        <time>2015-11-11T10:45:36.000Z</time>
      </trkpt>
      <trkpt lat="47.45358" lon="6.75312">
        <ele>351</ele>
        <time>2015-11-11T10:45:37.000Z</time>
      </trkpt>
      <trkpt lat="47.45364" lon="6.75307">
        <ele>352</ele>
        <time>2015-11-11T10:45:38.000Z</time>
      </trkpt>
      <trkpt lat="47.4537" lon="6.75303">
        <ele>352</ele>
        <time>2015-11-11T10:45:39.000Z</time>
      </trkpt>
      <trkpt lat="47.45376" lon="6.75301">
        <ele>352</ele>
        <time>2015-11-11T10:45:40.000Z</time>
      </trkpt>
      <trkpt lat="47.45384" lon="6.75299">
        <ele>352</ele>
        <time>2015-11-11T10:45:41.000Z</time>
      </trkpt>
      <trkpt lat="47.45391" lon="6.75298">
        <ele>353</ele>
        <time>2015-11-11T10:45:42.000Z</time>
      </trkpt>
      <trkpt lat="47.45398" lon="6.75298">
        <ele>353</ele>
        <time>2015-11-11T10:45:43.000Z</time>
      </trkpt>
      <trkpt lat="47.45405" lon="6.75299">
        <ele>352</ele>
        <time>2015-11-11T10:45:44.000Z</time>
      </trkpt>
      <trkpt lat="47.45413" lon="6.753">
        <ele>352</ele>
        <time>2015-11-11T10:45:45.000Z</time>
      </trkpt>
      <trkpt lat="47.4542" lon="6.75302">
        <ele>355</ele>
        <time>2015-11-11T10:45:46.000Z</time>
      </trkpt>
      <trkpt lat="47.45426" lon="6.75304">
        <ele>355</ele>
        <time>2015-11-11T10:45:47.000Z</time>
      </trkpt>
      <trkpt lat="47.45433" lon="6.75306">
        <ele>355</ele>
        <time>2015-11-11T10:45:48.000Z</time>
      </trkpt>
      <trkpt lat="47.4544" lon="6.75309">
        <ele>355</ele>
        <time>2015-11-11T10:45:49.000Z</time>
      </trkpt>
      <trkpt lat="47.45448" lon="6.75311">
        <ele>355</ele>
        <time>2015-11-11T10:45:50.000Z</time>
      </trkpt>
      <trkpt lat="47.45455" lon="6.75313">
        <ele>355</ele>
        <time>2015-11-11T10:45:51.000Z</time>
      </trkpt>
      <trkpt lat="47.45462" lon="6.75314">
        <ele>355</ele>
        <time>2015-11-11T10:45:52.000Z</time>
      </trkpt>
      <trkpt lat="47.4547" lon="6.75319">
        <ele>355</ele>
        <time>2015-11-11T10:45:53.000Z</time>
      </trkpt>
      <trkpt lat="47.45478" lon="6.75321">
        <ele>355</ele>
        <time>2015-11-11T10:45:54.000Z</time>
      </trkpt>
      <trkpt lat="47.45486" lon="6.75323">
        <ele>354</ele>
        <time>2015-11-11T10:45:55.000Z</time>
      </trkpt>
      <trkpt lat="47.45492" lon="6.75326">
        <ele>353</ele>
        <time>2015-11-11T10:45:56.000Z</time>
      </trkpt>
      <trkpt lat="47.45499" lon="6.75328">
        <ele>351</ele>
        <time>2015-11-11T10:45:56.999Z</time>
      </trkpt>
      <trkpt lat="47.45505" lon="6.75329">
        <ele>353</ele>
        <time>2015-11-11T10:45:58.000Z</time>
      </trkpt>
      <trkpt lat="47.45512" lon="6.75332">
        <ele>355</ele>
        <time>2015-11-11T10:45:59.000Z</time>
      </trkpt>
      <trkpt lat="47.45519" lon="6.75334">
        <ele>349</ele>
        <time>2015-11-11T10:46:00.000Z</time>
      </trkpt>
      <trkpt lat="47.45526" lon="6.75337">
        <ele>348</ele>
        <time>2015-11-11T10:46:01.000Z</time>
      </trkpt>
      <trkpt lat="47.45533" lon="6.7534">
        <ele>348</ele>
        <time>2015-11-11T10:46:02.000Z</time>
      </trkpt>
      <trkpt lat="47.45539" lon="6.75341">
        <ele>348</ele>
        <time>2015-11-11T10:46:03.000Z</time>
      </trkpt>
      <trkpt lat="47.45545" lon="6.75343">
        <ele>349</ele>
        <time>2015-11-11T10:46:03.998Z</time>
      </trkpt>
      <trkpt lat="47.45553" lon="6.75346">
        <ele>349</ele>
        <time>2015-11-11T10:46:05.000Z</time>
      </trkpt>
      <trkpt lat="47.45559" lon="6.75349">
        <ele>349</ele>
        <time>2015-11-11T10:46:05.999Z</time>
      </trkpt>
      <trkpt lat="47.45565" lon="6.75351">
        <ele>350</ele>
        <time>2015-11-11T10:46:07.000Z</time>
      </trkpt>
      <trkpt lat="47.45572" lon="6.75356">
        <ele>349</ele>
        <time>2015-11-11T10:46:08.000Z</time>
      </trkpt>
      <trkpt lat="47.45578" lon="6.75358">
        <ele>349</ele>
        <time>2015-11-11T10:46:09.000Z</time>
      </trkpt>
      <trkpt lat="47.45585" lon="6.75363">
        <ele>352</ele>
        <time>2015-11-11T10:46:10.000Z</time>
      </trkpt>
      <trkpt lat="47.45592" lon="6.75367">
        <ele>352</ele>
        <time>2015-11-11T10:46:11.001Z</time>
      </trkpt>
      <trkpt lat="47.45599" lon="6.75368">
        <ele>352</ele>
        <time>2015-11-11T10:46:12.000Z</time>
      </trkpt>
      <trkpt lat="47.45605" lon="6.75371">
        <ele>352</ele>
        <time>2015-11-11T10:46:13.000Z</time>
      </trkpt>
      <trkpt lat="47.45611" lon="6.75374">
        <ele>351</ele>
        <time>2015-11-11T10:46:14.000Z</time>
      </trkpt>
      <trkpt lat="47.45619" lon="6.75376">
        <ele>352</ele>
        <time>2015-11-11T10:46:15.000Z</time>
      </trkpt>
      <trkpt lat="47.45626" lon="6.7538">
        <ele>352</ele>
        <time>2015-11-11T10:46:16.000Z</time>
      </trkpt>
      <trkpt lat="47.45631" lon="6.75384">
        <ele>352</ele>
        <time>2015-11-11T10:46:17.000Z</time>
      </trkpt>
      <trkpt lat="47.45637" lon="6.75388">
        <ele>351</ele>
        <time>2015-11-11T10:46:17.998Z</time>
      </trkpt>
      <trkpt lat="47.45642" lon="6.75394">
        <ele>351</ele>
        <time>2015-11-11T10:46:18.999Z</time>
      </trkpt>
      <trkpt lat="47.45647" lon="6.75402">
        <ele>351</ele>
        <time>2015-11-11T10:46:20.000Z</time>
      </trkpt>
      <trkpt lat="47.45652" lon="6.75407">
        <ele>350</ele>
        <time>2015-11-11T10:46:21.000Z</time>
      </trkpt>
      <trkpt lat="47.45657" lon="6.75412">
        <ele>350</ele>
        <time>2015-11-11T10:46:22.000Z</time>
      </trkpt>
      <trkpt lat="47.45661" lon="6.75419">
        <ele>347</ele>
        <time>2015-11-11T10:46:23.000Z</time>
      </trkpt>
      <trkpt lat="47.45666" lon="6.75425">
        <ele>347</ele>
        <time>2015-11-11T10:46:24.000Z</time>
      </trkpt>
      <trkpt lat="47.4567" lon="6.75429">
        <ele>348</ele>
        <time>2015-11-11T10:46:25.000Z</time>
      </trkpt>
      <trkpt lat="47.45675" lon="6.75434">
        <ele>347</ele>
        <time>2015-11-11T10:46:26.000Z</time>
      </trkpt>
      <trkpt lat="47.4568" lon="6.75439">
        <ele>347</ele>
        <time>2015-11-11T10:46:26.999Z</time>
      </trkpt>
      <trkpt lat="47.45684" lon="6.75444">
        <ele>346</ele>
        <time>2015-11-11T10:46:28.000Z</time>
      </trkpt>
      <trkpt lat="47.45688" lon="6.75448">
        <ele>346</ele>
        <time>2015-11-11T10:46:29.000Z</time>
      </trkpt>
      <trkpt lat="47.45693" lon="6.75454">
        <ele>346</ele>
        <time>2015-11-11T10:46:30.000Z</time>
      </trkpt>
      <trkpt lat="47.45697" lon="6.7546">
        <ele>346</ele>
        <time>2015-11-11T10:46:31.000Z</time>
      </trkpt>
      <trkpt lat="47.45701" lon="6.75468">
        <ele>345</ele>
        <time>2015-11-11T10:46:32.000Z</time>
      </trkpt>
      <trkpt lat="47.45705" lon="6.75475">
        <ele>345</ele>
        <time>2015-11-11T10:46:33.000Z</time>
      </trkpt>
      <trkpt lat="47.4571" lon="6.75483">
        <ele>345</ele>
        <time>2015-11-11T10:46:34.000Z</time>
      </trkpt>
      <trkpt lat="47.45714" lon="6.7549">
        <ele>345</ele>
        <time>2015-11-11T10:46:35.000Z</time>
      </trkpt>
      <trkpt lat="47.45719" lon="6.75496">
        <ele>345</ele>
        <time>2015-11-11T10:46:36.000Z</time>
      </trkpt>
      <trkpt lat="47.45724" lon="6.75504">
        <ele>342</ele>
        <time>2015-11-11T10:46:37.000Z</time>
      </trkpt>
      <trkpt lat="47.45728" lon="6.75511">
        <ele>342</ele>
        <time>2015-11-11T10:46:38.000Z</time>
      </trkpt>
      <trkpt lat="47.45733" lon="6.75518">
        <ele>342</ele>
        <time>2015-11-11T10:46:38.999Z</time>
      </trkpt>
      <trkpt lat="47.45736" lon="6.75529">
        <ele>341</ele>
        <time>2015-11-11T10:46:40.000Z</time>
      </trkpt>
      <trkpt lat="47.4574" lon="6.75538">
        <ele>341</ele>
        <time>2015-11-11T10:46:41.000Z</time>
      </trkpt>
      <trkpt lat="47.45744" lon="6.75546">
        <ele>341</ele>
        <time>2015-11-11T10:46:41.999Z</time>
      </trkpt>
      <trkpt lat="47.45749" lon="6.75553">
        <ele>340</ele>
        <time>2015-11-11T10:46:43.000Z</time>
      </trkpt>
      <trkpt lat="47.45754" lon="6.75561">
        <ele>343</ele>
        <time>2015-11-11T10:46:44.000Z</time>
      </trkpt>
      <trkpt lat="47.45759" lon="6.75569">
        <ele>343</ele>
        <time>2015-11-11T10:46:45.000Z</time>
      </trkpt>
      <trkpt lat="47.45763" lon="6.75578">
        <ele>342</ele>
        <time>2015-11-11T10:46:46.000Z</time>
      </trkpt>
      <trkpt lat="47.45768" lon="6.75586">
        <ele>341</ele>
        <time>2015-11-11T10:46:47.000Z</time>
      </trkpt>
      <trkpt lat="47.45774" lon="6.75594">
        <ele>341</ele>
        <time>2015-11-11T10:46:48.000Z</time>
      </trkpt>
      <trkpt lat="47.45779" lon="6.75601">
        <ele>341</ele>
        <time>2015-11-11T10:46:49.000Z</time>
      </trkpt>
      <trkpt lat="47.45785" lon="6.75609">
        <ele>341</ele>
        <time>2015-11-11T10:46:50.000Z</time>
      </trkpt>
      <trkpt lat="47.45791" lon="6.75616">
        <ele>342</ele>
        <time>2015-11-11T10:46:51.000Z</time>
      </trkpt>
      <trkpt lat="47.45796" lon="6.75622">
        <ele>342</ele>
        <time>2015-11-11T10:46:52.000Z</time>
      </trkpt>
      <trkpt lat="47.45802" lon="6.75629">
        <ele>342</ele>
        <time>2015-11-11T10:46:53.000Z</time>
      </trkpt>
      <trkpt lat="47.45807" lon="6.75635">
        <ele>342</ele>
        <time>2015-11-11T10:46:54.001Z</time>
      </trkpt>
      <trkpt lat="47.45813" lon="6.7564">
        <ele>342</ele>
        <time>2015-11-11T10:46:55.000Z</time>
      </trkpt>
      <trkpt lat="47.45817" lon="6.75647">
        <ele>341</ele>
        <time>2015-11-11T10:46:56.000Z</time>
      </trkpt>
      <trkpt lat="47.45822" lon="6.75653">
        <ele>341</ele>
        <time>2015-11-11T10:46:56.999Z</time>
      </trkpt>
      <trkpt lat="47.45827" lon="6.75655">
        <ele>341</ele>
        <time>2015-11-11T10:46:58.000Z</time>
      </trkpt>
      <trkpt lat="47.45832" lon="6.75659">
        <ele>341</ele>
        <time>2015-11-11T10:46:59.000Z</time>
      </trkpt>
      <trkpt lat="47.45836" lon="6.75665">
        <ele>342</ele>
        <time>2015-11-11T10:47:00.000Z</time>
      </trkpt>
      <trkpt lat="47.4584" lon="6.7567">
        <ele>340</ele>
        <time>2015-11-11T10:47:01.000Z</time>
      </trkpt>
      <trkpt lat="47.45845" lon="6.75673">
        <ele>340</ele>
        <time>2015-11-11T10:47:02.000Z</time>
      </trkpt>
      <trkpt lat="47.4585" lon="6.75677">
        <ele>340</ele>
        <time>2015-11-11T10:47:03.000Z</time>
      </trkpt>
      <trkpt lat="47.45855" lon="6.75681">
        <ele>340</ele>
        <time>2015-11-11T10:47:04.000Z</time>
      </trkpt>
      <trkpt lat="47.45859" lon="6.75686">
        <ele>339</ele>
        <time>2015-11-11T10:47:05.000Z</time>
      </trkpt>
      <trkpt lat="47.45863" lon="6.75691">
        <ele>339</ele>
        <time>2015-11-11T10:47:06.000Z</time>
      </trkpt>
      <trkpt lat="47.45869" lon="6.75698">
        <ele>339</ele>
        <time>2015-11-11T10:47:07.000Z</time>
      </trkpt>
      <trkpt lat="47.45874" lon="6.75702">
        <ele>339</ele>
        <time>2015-11-11T10:47:08.000Z</time>
      </trkpt>
      <trkpt lat="47.45881" lon="6.75705">
        <ele>339</ele>
        <time>2015-11-11T10:47:09.000Z</time>
      </trkpt>
      <trkpt lat="47.45887" lon="6.75709">
        <ele>339</ele>
        <time>2015-11-11T10:47:09.999Z</time>
      </trkpt>
      <trkpt lat="47.45893" lon="6.75713">
        <ele>338</ele>
        <time>2015-11-11T10:47:11.000Z</time>
      </trkpt>
      <trkpt lat="47.45899" lon="6.75717">
        <ele>338</ele>
        <time>2015-11-11T10:47:12.000Z</time>
      </trkpt>
      <trkpt lat="47.45906" lon="6.7572">
        <ele>338</ele>
        <time>2015-11-11T10:47:13.000Z</time>
      </trkpt>
      <trkpt lat="47.45912" lon="6.75725">
        <ele>338</ele>
        <time>2015-11-11T10:47:14.000Z</time>
      </trkpt>
      <trkpt lat="47.45918" lon="6.7573">
        <ele>339</ele>
        <time>2015-11-11T10:47:15.000Z</time>
      </trkpt>
      <trkpt lat="47.45922" lon="6.75735">
        <ele>338</ele>
        <time>2015-11-11T10:47:16.000Z</time>
      </trkpt>
      <trkpt lat="47.45927" lon="6.7574">
        <ele>338</ele>
        <time>2015-11-11T10:47:17.000Z</time>
      </trkpt>
      <trkpt lat="47.45932" lon="6.75746">
        <ele>338</ele>
        <time>2015-11-11T10:47:18.000Z</time>
      </trkpt>
      <trkpt lat="47.45937" lon="6.75752">
        <ele>336</ele>
        <time>2015-11-11T10:47:19.000Z</time>
      </trkpt>
      <trkpt lat="47.45941" lon="6.75755">
        <ele>336</ele>
        <time>2015-11-11T10:47:20.000Z</time>
      </trkpt>
      <trkpt lat="47.45948" lon="6.75761">
        <ele>336</ele>
        <time>2015-11-11T10:47:21.000Z</time>
      </trkpt>
      <trkpt lat="47.45953" lon="6.75764">
        <ele>336</ele>
        <time>2015-11-11T10:47:22.000Z</time>
      </trkpt>
      <trkpt lat="47.45959" lon="6.75768">
        <ele>336</ele>
        <time>2015-11-11T10:47:23.000Z</time>
      </trkpt>
      <trkpt lat="47.45963" lon="6.75771">
        <ele>336</ele>
        <time>2015-11-11T10:47:24.000Z</time>
      </trkpt>
      <trkpt lat="47.45968" lon="6.75774">
        <ele>337</ele>
        <time>2015-11-11T10:47:25.000Z</time>
      </trkpt>
      <trkpt lat="47.45974" lon="6.75779">
        <ele>337</ele>
        <time>2015-11-11T10:47:26.000Z</time>
      </trkpt>
      <trkpt lat="47.45979" lon="6.75784">
        <ele>337</ele>
        <time>2015-11-11T10:47:26.999Z</time>
      </trkpt>
      <trkpt lat="47.45986" lon="6.75788">
        <ele>337</ele>
        <time>2015-11-11T10:47:28.000Z</time>
      </trkpt>
      <trkpt lat="47.45991" lon="6.75792">
        <ele>337</ele>
        <time>2015-11-11T10:47:29.000Z</time>
      </trkpt>
      <trkpt lat="47.45995" lon="6.75797">
        <ele>337</ele>
        <time>2015-11-11T10:47:30.000Z</time>
      </trkpt>
      <trkpt lat="47.45999" lon="6.75802">
        <ele>336</ele>
        <time>2015-11-11T10:47:31.000Z</time>
      </trkpt>
      <trkpt lat="47.46005" lon="6.75806">
        <ele>342</ele>
        <time>2015-11-11T10:47:32.000Z</time>
      </trkpt>
      <trkpt lat="47.4601" lon="6.75811">
        <ele>341</ele>
        <time>2015-11-11T10:47:33.000Z</time>
      </trkpt>
      <trkpt lat="47.46013" lon="6.75817">
        <ele>341</ele>
        <time>2015-11-11T10:47:34.000Z</time>
      </trkpt>
      <trkpt lat="47.46018" lon="6.75822">
        <ele>341</ele>
        <time>2015-11-11T10:47:35.000Z</time>
      </trkpt>
      <trkpt lat="47.46023" lon="6.75824">
        <ele>342</ele>
        <time>2015-11-11T10:47:36.000Z</time>
      </trkpt>
      <trkpt lat="47.46026" lon="6.75829">
        <ele>342</ele>
        <time>2015-11-11T10:47:37.000Z</time>
      </trkpt>
      <trkpt lat="47.46031" lon="6.75835">
        <ele>340</ele>
        <time>2015-11-11T10:47:38.000Z</time>
      </trkpt>
      <trkpt lat="47.46034" lon="6.75841">
        <ele>340</ele>
        <time>2015-11-11T10:47:39.000Z</time>
      </trkpt>
      <trkpt lat="47.46037" lon="6.75848">
        <ele>340</ele>
        <time>2015-11-11T10:47:40.000Z</time>
      </trkpt>
      <trkpt lat="47.4604" lon="6.75855">
        <ele>340</ele>
        <time>2015-11-11T10:47:41.000Z</time>
      </trkpt>
      <trkpt lat="47.46044" lon="6.75863">
        <ele>340</ele>
        <time>2015-11-11T10:47:42.000Z</time>
      </trkpt>
      <trkpt lat="47.46049" lon="6.75872">
        <ele>340</ele>
        <time>2015-11-11T10:47:43.000Z</time>
      </trkpt>
      <trkpt lat="47.46053" lon="6.75881">
        <ele>340</ele>
        <time>2015-11-11T10:47:44.000Z</time>
      </trkpt>
      <trkpt lat="47.46058" lon="6.7589">
        <ele>340</ele>
        <time>2015-11-11T10:47:45.000Z</time>
      </trkpt>
      <trkpt lat="47.46063" lon="6.75899">
        <ele>340</ele>
        <time>2015-11-11T10:47:46.000Z</time>
      </trkpt>
      <trkpt lat="47.46067" lon="6.75908">
        <ele>340</ele>
        <time>2015-11-11T10:47:47.000Z</time>
      </trkpt>
      <trkpt lat="47.46072" lon="6.75917">
        <ele>338</ele>
        <time>2015-11-11T10:47:48.000Z</time>
      </trkpt>
      <trkpt lat="47.46075" lon="6.75927">
        <ele>338</ele>
        <time>2015-11-11T10:47:49.000Z</time>
      </trkpt>
      <trkpt lat="47.46079" lon="6.75936">
        <ele>337</ele>
        <time>2015-11-11T10:47:50.000Z</time>
      </trkpt>
      <trkpt lat="47.46083" lon="6.75945">
        <ele>336</ele>
        <time>2015-11-11T10:47:51.000Z</time>
      </trkpt>
      <trkpt lat="47.46086" lon="6.75953">
        <ele>342</ele>
        <time>2015-11-11T10:47:52.001Z</time>
      </trkpt>
      <trkpt lat="47.4609" lon="6.75962">
        <ele>341</ele>
        <time>2015-11-11T10:47:52.999Z</time>
      </trkpt>
      <trkpt lat="47.46093" lon="6.75971">
        <ele>341</ele>
        <time>2015-11-11T10:47:54.000Z</time>
      </trkpt>
      <trkpt lat="47.46098" lon="6.75982">
        <ele>340</ele>
        <time>2015-11-11T10:47:55.000Z</time>
      </trkpt>
      <trkpt lat="47.46101" lon="6.75991">
        <ele>339</ele>
        <time>2015-11-11T10:47:56.000Z</time>
      </trkpt>
      <trkpt lat="47.46105" lon="6.76">
        <ele>336</ele>
        <time>2015-11-11T10:47:57.000Z</time>
      </trkpt>
      <trkpt lat="47.4611" lon="6.7601">
        <ele>337</ele>
        <time>2015-11-11T10:47:58.000Z</time>
      </trkpt>
      <trkpt lat="47.46115" lon="6.76018">
        <ele>337</ele>
        <time>2015-11-11T10:47:59.000Z</time>
      </trkpt>
      <trkpt lat="47.46119" lon="6.76027">
        <ele>337</ele>
        <time>2015-11-11T10:48:00.000Z</time>
      </trkpt>
      <trkpt lat="47.46122" lon="6.76034">
        <ele>338</ele>
        <time>2015-11-11T10:48:01.000Z</time>
      </trkpt>
      <trkpt lat="47.46126" lon="6.76042">
        <ele>338</ele>
        <time>2015-11-11T10:48:02.000Z</time>
      </trkpt>
      <trkpt lat="47.4613" lon="6.76052">
        <ele>337</ele>
        <time>2015-11-11T10:48:03.000Z</time>
      </trkpt>
      <trkpt lat="47.46135" lon="6.7606">
        <ele>337</ele>
        <time>2015-11-11T10:48:04.000Z</time>
      </trkpt>
      <trkpt lat="47.4614" lon="6.76069">
        <ele>338</ele>
        <time>2015-11-11T10:48:05.000Z</time>
      </trkpt>
      <trkpt lat="47.46144" lon="6.76078">
        <ele>338</ele>
        <time>2015-11-11T10:48:06.000Z</time>
      </trkpt>
      <trkpt lat="47.46151" lon="6.76087">
        <ele>335</ele>
        <time>2015-11-11T10:48:07.000Z</time>
      </trkpt>
      <trkpt lat="47.46156" lon="6.76095">
        <ele>336</ele>
        <time>2015-11-11T10:48:08.000Z</time>
      </trkpt>
      <trkpt lat="47.46161" lon="6.76103">
        <ele>335</ele>
        <time>2015-11-11T10:48:09.000Z</time>
      </trkpt>
      <trkpt lat="47.46166" lon="6.76111">
        <ele>334</ele>
        <time>2015-11-11T10:48:10.000Z</time>
      </trkpt>
      <trkpt lat="47.46172" lon="6.76119">
        <ele>338</ele>
        <time>2015-11-11T10:48:11.000Z</time>
      </trkpt>
      <trkpt lat="47.46178" lon="6.76127">
        <ele>338</ele>
        <time>2015-11-11T10:48:11.999Z</time>
      </trkpt>
      <trkpt lat="47.46182" lon="6.76135">
        <ele>337</ele>
        <time>2015-11-11T10:48:13.000Z</time>
      </trkpt>
      <trkpt lat="47.46188" lon="6.76143">
        <ele>337</ele>
        <time>2015-11-11T10:48:14.000Z</time>
      </trkpt>
      <trkpt lat="47.46193" lon="6.7615">
        <ele>337</ele>
        <time>2015-11-11T10:48:15.000Z</time>
      </trkpt>
      <trkpt lat="47.46199" lon="6.76157">
        <ele>337</ele>
        <time>2015-11-11T10:48:16.000Z</time>
      </trkpt>
      <trkpt lat="47.46205" lon="6.76164">
        <ele>338</ele>
        <time>2015-11-11T10:48:17.000Z</time>
      </trkpt>
      <trkpt lat="47.4621" lon="6.76172">
        <ele>333</ele>
        <time>2015-11-11T10:48:18.000Z</time>
      </trkpt>
      <trkpt lat="47.46216" lon="6.7618">
        <ele>333</ele>
        <time>2015-11-11T10:48:19.000Z</time>
      </trkpt>
      <trkpt lat="47.46222" lon="6.76186">
        <ele>334</ele>
        <time>2015-11-11T10:48:20.000Z</time>
      </trkpt>
      <trkpt lat="47.46228" lon="6.76193">
        <ele>334</ele>
        <time>2015-11-11T10:48:21.000Z</time>
      </trkpt>
      <trkpt lat="47.46233" lon="6.76199">
        <ele>333</ele>
        <time>2015-11-11T10:48:22.000Z</time>
      </trkpt>
      <trkpt lat="47.46238" lon="6.76205">
        <ele>333</ele>
        <time>2015-11-11T10:48:23.000Z</time>
      </trkpt>
      <trkpt lat="47.46244" lon="6.7621">
        <ele>333</ele>
        <time>2015-11-11T10:48:24.000Z</time>
      </trkpt>
      <trkpt lat="47.46249" lon="6.76216">
        <ele>332</ele>
        <time>2015-11-11T10:48:25.000Z</time>
      </trkpt>
      <trkpt lat="47.46255" lon="6.76222">
        <ele>335</ele>
        <time>2015-11-11T10:48:26.000Z</time>
      </trkpt>
      <trkpt lat="47.4626" lon="6.76229">
        <ele>334</ele>
        <time>2015-11-11T10:48:27.000Z</time>
      </trkpt>
      <trkpt lat="47.46264" lon="6.76234">
        <ele>334</ele>
        <time>2015-11-11T10:48:28.000Z</time>
      </trkpt>
      <trkpt lat="47.46271" lon="6.76236">
        <ele>335</ele>
        <time>2015-11-11T10:48:29.000Z</time>
      </trkpt>
      <trkpt lat="47.46277" lon="6.76238">
        <ele>335</ele>
        <time>2015-11-11T10:48:30.000Z</time>
      </trkpt>
      <trkpt lat="47.46283" lon="6.76241">
        <ele>336</ele>
        <time>2015-11-11T10:48:31.000Z</time>
      </trkpt>
      <trkpt lat="47.46291" lon="6.76242">
        <ele>336</ele>
        <time>2015-11-11T10:48:32.000Z</time>
      </trkpt>
      <trkpt lat="47.4629" lon="6.76243">
        <ele>336</ele>
        <time>2015-11-11T10:48:33.000Z</time>
      </trkpt>
      <trkpt lat="47.46295" lon="6.76246">
        <ele>336</ele>
        <time>2015-11-11T10:48:34.000Z</time>
      </trkpt>
      <trkpt lat="47.46296" lon="6.76248">
        <ele>336</ele>
        <time>2015-11-11T10:48:35.000Z</time>
      </trkpt>
      <trkpt lat="47.46301" lon="6.76252">
        <ele>332</ele>
        <time>2015-11-11T10:48:36.000Z</time>
      </trkpt>
      <trkpt lat="47.46305" lon="6.76256">
        <ele>332</ele>
        <time>2015-11-11T10:48:37.000Z</time>
      </trkpt>
      <trkpt lat="47.46309" lon="6.76256">
        <ele>333</ele>
        <time>2015-11-11T10:48:38.000Z</time>
      </trkpt>
      <trkpt lat="47.46311" lon="6.76256">
        <ele>333</ele>
        <time>2015-11-11T10:48:39.000Z</time>
      </trkpt>
      <trkpt lat="47.46315" lon="6.76259">
        <ele>333</ele>
        <time>2015-11-11T10:48:40.000Z</time>
      </trkpt>
      <trkpt lat="47.46318" lon="6.76263">
        <ele>333</ele>
        <time>2015-11-11T10:48:41.000Z</time>
      </trkpt>
      <trkpt lat="47.46321" lon="6.76265">
        <ele>333</ele>
        <time>2015-11-11T10:48:42.000Z</time>
      </trkpt>
      <trkpt lat="47.46324" lon="6.76267">
        <ele>333</ele>
        <time>2015-11-11T10:48:43.000Z</time>
      </trkpt>
      <trkpt lat="47.46328" lon="6.7627">
        <ele>333</ele>
        <time>2015-11-11T10:48:44.000Z</time>
      </trkpt>
      <trkpt lat="47.46331" lon="6.76271">
        <ele>333</ele>
        <time>2015-11-11T10:48:45.001Z</time>
      </trkpt>
      <trkpt lat="47.46335" lon="6.76273">
        <ele>334</ele>
        <time>2015-11-11T10:48:46.000Z</time>
      </trkpt>
      <trkpt lat="47.4634" lon="6.76274">
        <ele>334</ele>
        <time>2015-11-11T10:48:47.000Z</time>
      </trkpt>
      <trkpt lat="47.46355" lon="6.76275">
        <ele>334</ele>
        <time>2015-11-11T10:48:48.000Z</time>
      </trkpt>
      <trkpt lat="47.46362" lon="6.76273">
        <ele>334</ele>
        <time>2015-11-11T10:48:49.000Z</time>
      </trkpt>
      <trkpt lat="47.46367" lon="6.76272">
        <ele>334</ele>
        <time>2015-11-11T10:48:50.000Z</time>
      </trkpt>
      <trkpt lat="47.46373" lon="6.76273">
        <ele>334</ele>
        <time>2015-11-11T10:48:51.000Z</time>
      </trkpt>
      <trkpt lat="47.46377" lon="6.76271">
        <ele>334</ele>
        <time>2015-11-11T10:48:52.000Z</time>
      </trkpt>
      <trkpt lat="47.46383" lon="6.76271">
        <ele>334</ele>
        <time>2015-11-11T10:48:53.000Z</time>
      </trkpt>
      <trkpt lat="47.4639" lon="6.76271">
        <ele>334</ele>
        <time>2015-11-11T10:48:54.000Z</time>
      </trkpt>
      <trkpt lat="47.46394" lon="6.76271">
        <ele>334</ele>
        <time>2015-11-11T10:48:55.000Z</time>
      </trkpt>
      <trkpt lat="47.464" lon="6.76271">
        <ele>335</ele>
        <time>2015-11-11T10:48:56.000Z</time>
      </trkpt>
      <trkpt lat="47.46409" lon="6.76272">
        <ele>335</ele>
        <time>2015-11-11T10:48:57.000Z</time>
      </trkpt>
      <trkpt lat="47.46413" lon="6.76272">
        <ele>335</ele>
        <time>2015-11-11T10:48:58.000Z</time>
      </trkpt>
      <trkpt lat="47.46419" lon="6.76272">
        <ele>335</ele>
        <time>2015-11-11T10:48:59.000Z</time>
      </trkpt>
      <trkpt lat="47.46428" lon="6.76274">
        <ele>335</ele>
        <time>2015-11-11T10:49:00.000Z</time>
      </trkpt>
      <trkpt lat="47.46433" lon="6.76277">
        <ele>335</ele>
        <time>2015-11-11T10:49:01.000Z</time>
      </trkpt>
      <trkpt lat="47.4644" lon="6.76279">
        <ele>334</ele>
        <time>2015-11-11T10:49:02.000Z</time>
      </trkpt>
      <trkpt lat="47.46445" lon="6.76281">
        <ele>334</ele>
        <time>2015-11-11T10:49:03.000Z</time>
      </trkpt>
      <trkpt lat="47.46451" lon="6.76281">
        <ele>334</ele>
        <time>2015-11-11T10:49:04.000Z</time>
      </trkpt>
      <trkpt lat="47.46458" lon="6.7628">
        <ele>334</ele>
        <time>2015-11-11T10:49:05.000Z</time>
      </trkpt>
      <trkpt lat="47.46465" lon="6.76279">
        <ele>334</ele>
        <time>2015-11-11T10:49:06.000Z</time>
      </trkpt>
      <trkpt lat="47.46469" lon="6.76279">
        <ele>334</ele>
        <time>2015-11-11T10:49:07.000Z</time>
      </trkpt>
      <trkpt lat="47.46473" lon="6.76278">
        <ele>334</ele>
        <time>2015-11-11T10:49:08.000Z</time>
      </trkpt>
      <trkpt lat="47.46479" lon="6.7628">
        <ele>334</ele>
        <time>2015-11-11T10:49:09.000Z</time>
      </trkpt>
      <trkpt lat="47.46486" lon="6.76284">
        <ele>334</ele>
        <time>2015-11-11T10:49:10.000Z</time>
      </trkpt>
      <trkpt lat="47.46496" lon="6.76285">
        <ele>334</ele>
        <time>2015-11-11T10:49:11.000Z</time>
      </trkpt>
      <trkpt lat="47.46505" lon="6.76286">
        <ele>333</ele>
        <time>2015-11-11T10:49:12.000Z</time>
      </trkpt>
      <trkpt lat="47.4651" lon="6.76285">
        <ele>333</ele>
        <time>2015-11-11T10:49:13.000Z</time>
      </trkpt>
      <trkpt lat="47.46517" lon="6.76285">
        <ele>333</ele>
        <time>2015-11-11T10:49:14.000Z</time>
      </trkpt>
      <trkpt lat="47.46523" lon="6.76287">
        <ele>332</ele>
        <time>2015-11-11T10:49:15.000Z</time>
      </trkpt>
      <trkpt lat="47.46529" lon="6.76287">
        <ele>332</ele>
        <time>2015-11-11T10:49:16.000Z</time>
      </trkpt>
      <trkpt lat="47.46536" lon="6.76285">
        <ele>332</ele>
        <time>2015-11-11T10:49:17.000Z</time>
      </trkpt>
      <trkpt lat="47.46545" lon="6.76287">
        <ele>332</ele>
        <time>2015-11-11T10:49:18.000Z</time>
      </trkpt>
      <trkpt lat="47.46553" lon="6.76287">
        <ele>332</ele>
        <time>2015-11-11T10:49:19.000Z</time>
      </trkpt>
      <trkpt lat="47.46558" lon="6.76287">
        <ele>332</ele>
        <time>2015-11-11T10:49:20.000Z</time>
      </trkpt>
      <trkpt lat="47.46563" lon="6.76287">
        <ele>332</ele>
        <time>2015-11-11T10:49:21.000Z</time>
      </trkpt>
      <trkpt lat="47.46568" lon="6.76288">
        <ele>332</ele>
        <time>2015-11-11T10:49:22.000Z</time>
      </trkpt>
      <trkpt lat="47.46572" lon="6.76291">
        <ele>331</ele>
        <time>2015-11-11T10:49:23.000Z</time>
      </trkpt>
      <trkpt lat="47.46579" lon="6.76295">
        <ele>331</ele>
        <time>2015-11-11T10:49:24.000Z</time>
      </trkpt>
      <trkpt lat="47.46583" lon="6.76298">
        <ele>331</ele>
        <time>2015-11-11T10:49:25.000Z</time>
      </trkpt>
      <trkpt lat="47.46588" lon="6.76302">
        <ele>327</ele>
        <time>2015-11-11T10:49:26.000Z</time>
      </trkpt>
      <trkpt lat="47.46595" lon="6.76303">
        <ele>327</ele>
        <time>2015-11-11T10:49:27.000Z</time>
      </trkpt>
      <trkpt lat="47.46603" lon="6.76303">
        <ele>327</ele>
        <time>2015-11-11T10:49:28.000Z</time>
      </trkpt>
      <trkpt lat="47.46611" lon="6.76304">
        <ele>327</ele>
        <time>2015-11-11T10:49:29.000Z</time>
      </trkpt>
      <trkpt lat="47.46618" lon="6.76305">
        <ele>327</ele>
        <time>2015-11-11T10:49:30.000Z</time>
      </trkpt>
      <trkpt lat="47.46623" lon="6.76306">
        <ele>327</ele>
        <time>2015-11-11T10:49:30.999Z</time>
      </trkpt>
      <trkpt lat="47.4663" lon="6.76306">
        <ele>326</ele>
        <time>2015-11-11T10:49:32.000Z</time>
      </trkpt>
      <trkpt lat="47.46636" lon="6.76308">
        <ele>326</ele>
        <time>2015-11-11T10:49:33.000Z</time>
      </trkpt>
      <trkpt lat="47.46642" lon="6.76307">
        <ele>326</ele>
        <time>2015-11-11T10:49:34.000Z</time>
      </trkpt>
      <trkpt lat="47.46648" lon="6.76308">
        <ele>326</ele>
        <time>2015-11-11T10:49:35.000Z</time>
      </trkpt>
      <trkpt lat="47.46655" lon="6.76308">
        <ele>326</ele>
        <time>2015-11-11T10:49:36.000Z</time>
      </trkpt>
      <trkpt lat="47.4666" lon="6.76307">
        <ele>326</ele>
        <time>2015-11-11T10:49:37.000Z</time>
      </trkpt>
      <trkpt lat="47.46666" lon="6.76307">
        <ele>326</ele>
        <time>2015-11-11T10:49:38.000Z</time>
      </trkpt>
      <trkpt lat="47.46672" lon="6.76308">
        <ele>325</ele>
        <time>2015-11-11T10:49:39.000Z</time>
      </trkpt>
      <trkpt lat="47.46678" lon="6.76307">
        <ele>325</ele>
        <time>2015-11-11T10:49:40.000Z</time>
      </trkpt>
      <trkpt lat="47.46684" lon="6.76307">
        <ele>325</ele>
        <time>2015-11-11T10:49:41.000Z</time>
      </trkpt>
      <trkpt lat="47.46689" lon="6.76307">
        <ele>325</ele>
        <time>2015-11-11T10:49:42.000Z</time>
      </trkpt>
      <trkpt lat="47.46696" lon="6.76306">
        <ele>325</ele>
        <time>2015-11-11T10:49:43.000Z</time>
      </trkpt>
      <trkpt lat="47.46702" lon="6.76304">
        <ele>325</ele>
        <time>2015-11-11T10:49:44.000Z</time>
      </trkpt>
      <trkpt lat="47.46708" lon="6.76303">
        <ele>325</ele>
        <time>2015-11-11T10:49:45.000Z</time>
      </trkpt>
      <trkpt lat="47.46713" lon="6.76303">
        <ele>325</ele>
        <time>2015-11-11T10:49:46.000Z</time>
      </trkpt>
      <trkpt lat="47.4672" lon="6.76301">
        <ele>325</ele>
        <time>2015-11-11T10:49:47.000Z</time>
      </trkpt>
      <trkpt lat="47.46727" lon="6.763">
        <ele>325</ele>
        <time>2015-11-11T10:49:48.000Z</time>
      </trkpt>
      <trkpt lat="47.46734" lon="6.76299">
        <ele>326</ele>
        <time>2015-11-11T10:49:49.000Z</time>
      </trkpt>
      <trkpt lat="47.46742" lon="6.76297">
        <ele>326</ele>
        <time>2015-11-11T10:49:50.000Z</time>
      </trkpt>
      <trkpt lat="47.46749" lon="6.76296">
        <ele>326</ele>
        <time>2015-11-11T10:49:51.000Z</time>
      </trkpt>
      <trkpt lat="47.46755" lon="6.76296">
        <ele>325</ele>
        <time>2015-11-11T10:49:52.000Z</time>
      </trkpt>
      <trkpt lat="47.4679" lon="6.76303">
        <ele>324</ele>
        <time>2015-11-11T10:49:58.000Z</time>
      </trkpt>
      <trkpt lat="47.46799" lon="6.76304">
        <ele>324</ele>
        <time>2015-11-11T10:49:59.000Z</time>
      </trkpt>
      <trkpt lat="47.46803" lon="6.76307">
        <ele>324</ele>
        <time>2015-11-11T10:50:00.000Z</time>
      </trkpt>
      <trkpt lat="47.46808" lon="6.76308">
        <ele>324</ele>
        <time>2015-11-11T10:50:01.000Z</time>
      </trkpt>
      <trkpt lat="47.46814" lon="6.76311">
        <ele>324</ele>
        <time>2015-11-11T10:50:02.000Z</time>
      </trkpt>
      <trkpt lat="47.4682" lon="6.76311">
        <ele>323</ele>
        <time>2015-11-11T10:50:03.000Z</time>
      </trkpt>
      <trkpt lat="47.46826" lon="6.7631">
        <ele>323</ele>
        <time>2015-11-11T10:50:04.000Z</time>
      </trkpt>
      <trkpt lat="47.4683" lon="6.76306">
        <ele>323</ele>
        <time>2015-11-11T10:50:05.000Z</time>
      </trkpt>
      <trkpt lat="47.46835" lon="6.76303">
        <ele>322</ele>
        <time>2015-11-11T10:50:06.000Z</time>
      </trkpt>
      <trkpt lat="47.46841" lon="6.76298">
        <ele>322</ele>
        <time>2015-11-11T10:50:07.000Z</time>
      </trkpt>
      <trkpt lat="47.46846" lon="6.76297">
        <ele>321</ele>
        <time>2015-11-11T10:50:08.000Z</time>
      </trkpt>
      <trkpt lat="47.46851" lon="6.76296">
        <ele>321</ele>
        <time>2015-11-11T10:50:09.000Z</time>
      </trkpt>
      <trkpt lat="47.46857" lon="6.76297">
        <ele>321</ele>
        <time>2015-11-11T10:50:10.000Z</time>
      </trkpt>
      <trkpt lat="47.4686" lon="6.76299">
        <ele>321</ele>
        <time>2015-11-11T10:50:11.000Z</time>
      </trkpt>
      <trkpt lat="47.46865" lon="6.76303">
        <ele>321</ele>
        <time>2015-11-11T10:50:12.000Z</time>
      </trkpt>
      <trkpt lat="47.4687" lon="6.76308">
        <ele>321</ele>
        <time>2015-11-11T10:50:13.000Z</time>
      </trkpt>
      <trkpt lat="47.46875" lon="6.7631">
        <ele>321</ele>
        <time>2015-11-11T10:50:14.000Z</time>
      </trkpt>
      <trkpt lat="47.46881" lon="6.76315">
        <ele>321</ele>
        <time>2015-11-11T10:50:15.000Z</time>
      </trkpt>
      <trkpt lat="47.46885" lon="6.76318">
        <ele>321</ele>
        <time>2015-11-11T10:50:16.000Z</time>
      </trkpt>
      <trkpt lat="47.4689" lon="6.76322">
        <ele>321</ele>
        <time>2015-11-11T10:50:17.000Z</time>
      </trkpt>
      <trkpt lat="47.46894" lon="6.76326">
        <ele>321</ele>
        <time>2015-11-11T10:50:18.000Z</time>
      </trkpt>
      <trkpt lat="47.46899" lon="6.7633">
        <ele>321</ele>
        <time>2015-11-11T10:50:19.000Z</time>
      </trkpt>
      <trkpt lat="47.46904" lon="6.76333">
        <ele>321</ele>
        <time>2015-11-11T10:50:20.000Z</time>
      </trkpt>
      <trkpt lat="47.46909" lon="6.76335">
        <ele>321</ele>
        <time>2015-11-11T10:50:21.000Z</time>
      </trkpt>
      <trkpt lat="47.46914" lon="6.76336">
        <ele>320</ele>
        <time>2015-11-11T10:50:22.000Z</time>
      </trkpt>
      <trkpt lat="47.46919" lon="6.76336">
        <ele>320</ele>
        <time>2015-11-11T10:50:23.000Z</time>
      </trkpt>
      <trkpt lat="47.46923" lon="6.76337">
        <ele>320</ele>
        <time>2015-11-11T10:50:24.000Z</time>
      </trkpt>
      <trkpt lat="47.46928" lon="6.76338">
        <ele>320</ele>
        <time>2015-11-11T10:50:25.000Z</time>
      </trkpt>
      <trkpt lat="47.46933" lon="6.76336">
        <ele>320</ele>
        <time>2015-11-11T10:50:26.000Z</time>
      </trkpt>
      <trkpt lat="47.46937" lon="6.76337">
        <ele>320</ele>
        <time>2015-11-11T10:50:27.000Z</time>
      </trkpt>
      <trkpt lat="47.46942" lon="6.76338">
        <ele>320</ele>
        <time>2015-11-11T10:50:28.000Z</time>
      </trkpt>
      <trkpt lat="47.46948" lon="6.76338">
        <ele>320</ele>
        <time>2015-11-11T10:50:29.000Z</time>
      </trkpt>
      <trkpt lat="47.46954" lon="6.76338">
        <ele>320</ele>
        <time>2015-11-11T10:50:30.000Z</time>
      </trkpt>
      <trkpt lat="47.46959" lon="6.7634">
        <ele>319</ele>
        <time>2015-11-11T10:50:31.000Z</time>
      </trkpt>
      <trkpt lat="47.46964" lon="6.76342">
        <ele>319</ele>
        <time>2015-11-11T10:50:32.000Z</time>
      </trkpt>
      <trkpt lat="47.46969" lon="6.76342">
        <ele>319</ele>
        <time>2015-11-11T10:50:33.000Z</time>
      </trkpt>
      <trkpt lat="47.46974" lon="6.76343">
        <ele>319</ele>
        <time>2015-11-11T10:50:34.000Z</time>
      </trkpt>
      <trkpt lat="47.46981" lon="6.76344">
        <ele>319</ele>
        <time>2015-11-11T10:50:35.000Z</time>
      </trkpt>
      <trkpt lat="47.46987" lon="6.76346">
        <ele>319</ele>
        <time>2015-11-11T10:50:36.000Z</time>
      </trkpt>
      <trkpt lat="47.46992" lon="6.76347">
        <ele>319</ele>
        <time>2015-11-11T10:50:37.000Z</time>
      </trkpt>
      <trkpt lat="47.46997" lon="6.76348">
        <ele>319</ele>
        <time>2015-11-11T10:50:38.000Z</time>
      </trkpt>
      <trkpt lat="47.47002" lon="6.76349">
        <ele>318</ele>
        <time>2015-11-11T10:50:39.000Z</time>
      </trkpt>
      <trkpt lat="47.47008" lon="6.7635">
        <ele>318</ele>
        <time>2015-11-11T10:50:40.000Z</time>
      </trkpt>
      <trkpt lat="47.47014" lon="6.7635">
        <ele>318</ele>
        <time>2015-11-11T10:50:41.000Z</time>
      </trkpt>
      <trkpt lat="47.4702" lon="6.76351">
        <ele>318</ele>
        <time>2015-11-11T10:50:42.000Z</time>
      </trkpt>
      <trkpt lat="47.47024" lon="6.76354">
        <ele>318</ele>
        <time>2015-11-11T10:50:43.000Z</time>
      </trkpt>
      <trkpt lat="47.4703" lon="6.76355">
        <ele>318</ele>
        <time>2015-11-11T10:50:44.000Z</time>
      </trkpt>
      <trkpt lat="47.47036" lon="6.76357">
        <ele>318</ele>
        <time>2015-11-11T10:50:45.000Z</time>
      </trkpt>
      <trkpt lat="47.47042" lon="6.76358">
        <ele>318</ele>
        <time>2015-11-11T10:50:46.000Z</time>
      </trkpt>
      <trkpt lat="47.47048" lon="6.76359">
        <ele>318</ele>
        <time>2015-11-11T10:50:47.000Z</time>
      </trkpt>
      <trkpt lat="47.47054" lon="6.76361">
        <ele>317</ele>
        <time>2015-11-11T10:50:48.000Z</time>
      </trkpt>
      <trkpt lat="47.4706" lon="6.76364">
        <ele>317</ele>
        <time>2015-11-11T10:50:49.000Z</time>
      </trkpt>
      <trkpt lat="47.47066" lon="6.76366">
        <ele>317</ele>
        <time>2015-11-11T10:50:50.000Z</time>
      </trkpt>
      <trkpt lat="47.47073" lon="6.76368">
        <ele>317</ele>
        <time>2015-11-11T10:50:51.000Z</time>
      </trkpt>
      <trkpt lat="47.47079" lon="6.76367">
        <ele>317</ele>
        <time>2015-11-11T10:50:52.000Z</time>
      </trkpt>
      <trkpt lat="47.47085" lon="6.76368">
        <ele>317</ele>
        <time>2015-11-11T10:50:53.000Z</time>
      </trkpt>
      <trkpt lat="47.47091" lon="6.76369">
        <ele>317</ele>
        <time>2015-11-11T10:50:54.000Z</time>
      </trkpt>
      <trkpt lat="47.47096" lon="6.76368">
        <ele>317</ele>
        <time>2015-11-11T10:50:55.000Z</time>
      </trkpt>
      <trkpt lat="47.47102" lon="6.76369">
        <ele>317</ele>
        <time>2015-11-11T10:50:56.000Z</time>
      </trkpt>
      <trkpt lat="47.47108" lon="6.76371">
        <ele>317</ele>
        <time>2015-11-11T10:50:57.000Z</time>
      </trkpt>
      <trkpt lat="47.47113" lon="6.76373">
        <ele>317</ele>
        <time>2015-11-11T10:50:58.000Z</time>
      </trkpt>
      <trkpt lat="47.4712" lon="6.76377">
        <ele>317</ele>
        <time>2015-11-11T10:50:59.000Z</time>
      </trkpt>
      <trkpt lat="47.47126" lon="6.76378">
        <ele>317</ele>
        <time>2015-11-11T10:51:00.000Z</time>
      </trkpt>
      <trkpt lat="47.47132" lon="6.7638">
        <ele>317</ele>
        <time>2015-11-11T10:51:01.000Z</time>
      </trkpt>
      <trkpt lat="47.47138" lon="6.76381">
        <ele>317</ele>
        <time>2015-11-11T10:51:02.000Z</time>
      </trkpt>
      <trkpt lat="47.47145" lon="6.76381">
        <ele>317</ele>
        <time>2015-11-11T10:51:03.000Z</time>
      </trkpt>
      <trkpt lat="47.47152" lon="6.76384">
        <ele>317</ele>
        <time>2015-11-11T10:51:04.000Z</time>
      </trkpt>
      <trkpt lat="47.47157" lon="6.76385">
        <ele>317</ele>
        <time>2015-11-11T10:51:05.000Z</time>
      </trkpt>
      <trkpt lat="47.47164" lon="6.76386">
        <ele>317</ele>
        <time>2015-11-11T10:51:06.000Z</time>
      </trkpt>
      <trkpt lat="47.47169" lon="6.76386">
        <ele>318</ele>
        <time>2015-11-11T10:51:07.000Z</time>
      </trkpt>
      <trkpt lat="47.47173" lon="6.76387">
        <ele>318</ele>
        <time>2015-11-11T10:51:08.000Z</time>
      </trkpt>
      <trkpt lat="47.47179" lon="6.76388">
        <ele>318</ele>
        <time>2015-11-11T10:51:09.000Z</time>
      </trkpt>
      <trkpt lat="47.47185" lon="6.7639">
        <ele>318</ele>
        <time>2015-11-11T10:51:10.000Z</time>
      </trkpt>
      <trkpt lat="47.4719" lon="6.76393">
        <ele>318</ele>
        <time>2015-11-11T10:51:11.000Z</time>
      </trkpt>
      <trkpt lat="47.47199" lon="6.76398">
        <ele>318</ele>
        <time>2015-11-11T10:51:13.000Z</time>
      </trkpt>
      <trkpt lat="47.47204" lon="6.764">
        <ele>318</ele>
        <time>2015-11-11T10:51:14.000Z</time>
      </trkpt>
      <trkpt lat="47.4721" lon="6.764">
        <ele>318</ele>
        <time>2015-11-11T10:51:15.000Z</time>
      </trkpt>
      <trkpt lat="47.47213" lon="6.76402">
        <ele>318</ele>
        <time>2015-11-11T10:51:16.000Z</time>
      </trkpt>
      <trkpt lat="47.47217" lon="6.76404">
        <ele>318</ele>
        <time>2015-11-11T10:51:17.000Z</time>
      </trkpt>
      <trkpt lat="47.47222" lon="6.76404">
        <ele>318</ele>
        <time>2015-11-11T10:51:18.000Z</time>
      </trkpt>
      <trkpt lat="47.47228" lon="6.76405">
        <ele>317</ele>
        <time>2015-11-11T10:51:19.000Z</time>
      </trkpt>
      <trkpt lat="47.47233" lon="6.76405">
        <ele>317</ele>
        <time>2015-11-11T10:51:20.000Z</time>
      </trkpt>
      <trkpt lat="47.47238" lon="6.76403">
        <ele>317</ele>
        <time>2015-11-11T10:51:21.000Z</time>
      </trkpt>
      <trkpt lat="47.47245" lon="6.76401">
        <ele>317</ele>
        <time>2015-11-11T10:51:22.000Z</time>
      </trkpt>
      <trkpt lat="47.47249" lon="6.76398">
        <ele>317</ele>
        <time>2015-11-11T10:51:23.000Z</time>
      </trkpt>
      <trkpt lat="47.47255" lon="6.76395">
        <ele>318</ele>
        <time>2015-11-11T10:51:24.000Z</time>
      </trkpt>
      <trkpt lat="47.47261" lon="6.76393">
        <ele>318</ele>
        <time>2015-11-11T10:51:25.000Z</time>
      </trkpt>
      <trkpt lat="47.47267" lon="6.76391">
        <ele>318</ele>
        <time>2015-11-11T10:51:26.000Z</time>
      </trkpt>
      <trkpt lat="47.47274" lon="6.76393">
        <ele>318</ele>
        <time>2015-11-11T10:51:27.000Z</time>
      </trkpt>
      <trkpt lat="47.47278" lon="6.76393">
        <ele>318</ele>
        <time>2015-11-11T10:51:28.000Z</time>
      </trkpt>
      <trkpt lat="47.47283" lon="6.76389">
        <ele>318</ele>
        <time>2015-11-11T10:51:29.000Z</time>
      </trkpt>
      <trkpt lat="47.47289" lon="6.76386">
        <ele>318</ele>
        <time>2015-11-11T10:51:30.000Z</time>
      </trkpt>
      <trkpt lat="47.47296" lon="6.76385">
        <ele>318</ele>
        <time>2015-11-11T10:51:31.000Z</time>
      </trkpt>
      <trkpt lat="47.47301" lon="6.76385">
        <ele>318</ele>
        <time>2015-11-11T10:51:32.000Z</time>
      </trkpt>
      <trkpt lat="47.47306" lon="6.76384">
        <ele>318</ele>
        <time>2015-11-11T10:51:33.000Z</time>
      </trkpt>
      <trkpt lat="47.47311" lon="6.76386">
        <ele>318</ele>
        <time>2015-11-11T10:51:34.000Z</time>
      </trkpt>
      <trkpt lat="47.47319" lon="6.7639">
        <ele>318</ele>
        <time>2015-11-11T10:51:35.000Z</time>
      </trkpt>
      <trkpt lat="47.47324" lon="6.76391">
        <ele>318</ele>
        <time>2015-11-11T10:51:36.000Z</time>
      </trkpt>
      <trkpt lat="47.4733" lon="6.76394">
        <ele>318</ele>
        <time>2015-11-11T10:51:37.000Z</time>
      </trkpt>
      <trkpt lat="47.47336" lon="6.76396">
        <ele>317</ele>
        <time>2015-11-11T10:51:38.000Z</time>
      </trkpt>
      <trkpt lat="47.4734" lon="6.764">
        <ele>317</ele>
        <time>2015-11-11T10:51:39.000Z</time>
      </trkpt>
      <trkpt lat="47.47346" lon="6.76404">
        <ele>317</ele>
        <time>2015-11-11T10:51:40.000Z</time>
      </trkpt>
      <trkpt lat="47.47352" lon="6.76407">
        <ele>317</ele>
        <time>2015-11-11T10:51:41.000Z</time>
      </trkpt>
      <trkpt lat="47.47357" lon="6.7641">
        <ele>317</ele>
        <time>2015-11-11T10:51:42.000Z</time>
      </trkpt>
      <trkpt lat="47.47363" lon="6.76413">
        <ele>317</ele>
        <time>2015-11-11T10:51:43.000Z</time>
      </trkpt>
      <trkpt lat="47.47367" lon="6.76415">
        <ele>317</ele>
        <time>2015-11-11T10:51:44.000Z</time>
      </trkpt>
      <trkpt lat="47.47371" lon="6.76418">
        <ele>314</ele>
        <time>2015-11-11T10:51:45.000Z</time>
      </trkpt>
      <trkpt lat="47.47377" lon="6.76421">
        <ele>314</ele>
        <time>2015-11-11T10:51:46.000Z</time>
      </trkpt>
      <trkpt lat="47.4738" lon="6.76426">
        <ele>314</ele>
        <time>2015-11-11T10:51:47.000Z</time>
      </trkpt>
      <trkpt lat="47.47385" lon="6.76431">
        <ele>314</ele>
        <time>2015-11-11T10:51:48.000Z</time>
      </trkpt>
      <trkpt lat="47.47389" lon="6.76436">
        <ele>314</ele>
        <time>2015-11-11T10:51:49.000Z</time>
      </trkpt>
      <trkpt lat="47.47394" lon="6.7644">
        <ele>314</ele>
        <time>2015-11-11T10:51:50.000Z</time>
      </trkpt>
      <trkpt lat="47.47401" lon="6.76445">
        <ele>314</ele>
        <time>2015-11-11T10:51:51.000Z</time>
      </trkpt>
      <trkpt lat="47.47405" lon="6.76448">
        <ele>313</ele>
        <time>2015-11-11T10:51:52.000Z</time>
      </trkpt>
      <trkpt lat="47.47409" lon="6.76452">
        <ele>313</ele>
        <time>2015-11-11T10:51:53.000Z</time>
      </trkpt>
      <trkpt lat="47.47413" lon="6.76455">
        <ele>313</ele>
        <time>2015-11-11T10:51:54.000Z</time>
      </trkpt>
      <trkpt lat="47.4742" lon="6.76461">
        <ele>311</ele>
        <time>2015-11-11T10:51:55.000Z</time>
      </trkpt>
      <trkpt lat="47.47422" lon="6.76464">
        <ele>311</ele>
        <time>2015-11-11T10:51:56.000Z</time>
      </trkpt>
      <trkpt lat="47.47424" lon="6.76466">
        <ele>311</ele>
        <time>2015-11-11T10:51:56.999Z</time>
      </trkpt>
      <trkpt lat="47.47428" lon="6.76464">
        <ele>311</ele>
        <time>2015-11-11T10:52:02.000Z</time>
      </trkpt>
      <trkpt lat="47.47429" lon="6.76463">
        <ele>311</ele>
        <time>2015-11-11T10:52:03.000Z</time>
      </trkpt>
      <trkpt lat="47.47433" lon="6.76461">
        <ele>311</ele>
        <time>2015-11-11T10:52:04.000Z</time>
      </trkpt>
      <trkpt lat="47.47436" lon="6.7646">
        <ele>311</ele>
        <time>2015-11-11T10:52:05.000Z</time>
      </trkpt>
      <trkpt lat="47.47439" lon="6.76458">
        <ele>311</ele>
        <time>2015-11-11T10:52:06.000Z</time>
      </trkpt>
      <trkpt lat="47.47443" lon="6.76455">
        <ele>311</ele>
        <time>2015-11-11T10:52:07.000Z</time>
      </trkpt>
      <trkpt lat="47.47446" lon="6.76452">
        <ele>311</ele>
        <time>2015-11-11T10:52:08.000Z</time>
      </trkpt>
      <trkpt lat="47.4745" lon="6.76448">
        <ele>311</ele>
        <time>2015-11-11T10:52:09.000Z</time>
      </trkpt>
      <trkpt lat="47.47459" lon="6.76446">
        <ele>311</ele>
        <time>2015-11-11T10:52:10.000Z</time>
      </trkpt>
      <trkpt lat="47.47463" lon="6.76445">
        <ele>310</ele>
        <time>2015-11-11T10:52:11.000Z</time>
      </trkpt>
      <trkpt lat="47.47467" lon="6.76444">
        <ele>310</ele>
        <time>2015-11-11T10:52:12.000Z</time>
      </trkpt>
      <trkpt lat="47.47471" lon="6.76442">
        <ele>310</ele>
        <time>2015-11-11T10:52:13.000Z</time>
      </trkpt>
      <trkpt lat="47.47475" lon="6.76444">
        <ele>310</ele>
        <time>2015-11-11T10:52:14.000Z</time>
      </trkpt>
      <trkpt lat="47.4748" lon="6.76447">
        <ele>310</ele>
        <time>2015-11-11T10:52:15.000Z</time>
      </trkpt>
      <trkpt lat="47.47486" lon="6.76442">
        <ele>310</ele>
        <time>2015-11-11T10:52:16.000Z</time>
      </trkpt>
      <trkpt lat="47.47491" lon="6.76438">
        <ele>310</ele>
        <time>2015-11-11T10:52:17.000Z</time>
      </trkpt>
      <trkpt lat="47.47496" lon="6.7644">
        <ele>310</ele>
        <time>2015-11-11T10:52:18.000Z</time>
      </trkpt>
      <trkpt lat="47.47503" lon="6.76443">
        <ele>309</ele>
        <time>2015-11-11T10:52:19.000Z</time>
      </trkpt>
      <trkpt lat="47.47508" lon="6.76446">
        <ele>309</ele>
        <time>2015-11-11T10:52:20.000Z</time>
      </trkpt>
      <trkpt lat="47.47511" lon="6.76442">
        <ele>309</ele>
        <time>2015-11-11T10:52:22.000Z</time>
      </trkpt>
      <trkpt lat="47.47508" lon="6.76436">
        <ele>309</ele>
        <time>2015-11-11T10:52:23.000Z</time>
      </trkpt>
      <trkpt lat="47.47506" lon="6.76432">
        <ele>309</ele>
        <time>2015-11-11T10:52:24.000Z</time>
      </trkpt>
      <trkpt lat="47.47502" lon="6.76428">
        <ele>309</ele>
        <time>2015-11-11T10:52:25.000Z</time>
      </trkpt>
      <trkpt lat="47.47499" lon="6.76424">
        <ele>309</ele>
        <time>2015-11-11T10:52:26.000Z</time>
      </trkpt>
      <trkpt lat="47.47495" lon="6.76421">
        <ele>309</ele>
        <time>2015-11-11T10:52:27.000Z</time>
      </trkpt>
      <trkpt lat="47.47493" lon="6.76418">
        <ele>309</ele>
        <time>2015-11-11T10:52:28.000Z</time>
      </trkpt>
      <trkpt lat="47.47493" lon="6.76412">
        <ele>310</ele>
        <time>2015-11-11T10:52:29.000Z</time>
      </trkpt>
      <trkpt lat="47.47499" lon="6.76417">
        <ele>309</ele>
        <time>2015-11-11T10:52:30.000Z</time>
      </trkpt>
      <trkpt lat="47.47502" lon="6.76419">
        <ele>309</ele>
        <time>2015-11-11T10:52:31.000Z</time>
      </trkpt>
      <trkpt lat="47.47506" lon="6.7642">
        <ele>309</ele>
        <time>2015-11-11T10:52:32.000Z</time>
      </trkpt>
      <trkpt lat="47.47512" lon="6.76419">
        <ele>309</ele>
        <time>2015-11-11T10:52:33.000Z</time>
      </trkpt>
      <trkpt lat="47.47517" lon="6.76417">
        <ele>309</ele>
        <time>2015-11-11T10:52:34.000Z</time>
      </trkpt>
      <trkpt lat="47.47524" lon="6.76415">
        <ele>309</ele>
        <time>2015-11-11T10:52:35.000Z</time>
      </trkpt>
      <trkpt lat="47.47529" lon="6.76414">
        <ele>309</ele>
        <time>2015-11-11T10:52:36.000Z</time>
      </trkpt>
      <trkpt lat="47.47534" lon="6.76413">
        <ele>309</ele>
        <time>2015-11-11T10:52:36.998Z</time>
      </trkpt>
      <trkpt lat="47.47539" lon="6.76411">
        <ele>309</ele>
        <time>2015-11-11T10:52:38.000Z</time>
      </trkpt>
      <trkpt lat="47.47544" lon="6.76409">
        <ele>309</ele>
        <time>2015-11-11T10:52:39.000Z</time>
      </trkpt>
      <trkpt lat="47.47538" lon="6.76392">
        <ele>310</ele>
        <time>2015-11-11T10:52:40.002Z</time>
      </trkpt>
      <trkpt lat="47.47541" lon="6.76384">
        <ele>310</ele>
        <time>2015-11-11T10:52:41.000Z</time>
      </trkpt>
      <trkpt lat="47.47544" lon="6.76377">
        <ele>310</ele>
        <time>2015-11-11T10:52:42.000Z</time>
      </trkpt>
      <trkpt lat="47.47547" lon="6.76367">
        <ele>310</ele>
        <time>2015-11-11T10:52:43.000Z</time>
      </trkpt>
      <trkpt lat="47.47549" lon="6.76361">
        <ele>310</ele>
        <time>2015-11-11T10:52:44.000Z</time>
      </trkpt>
      <trkpt lat="47.47553" lon="6.76353">
        <ele>310</ele>
        <time>2015-11-11T10:52:45.000Z</time>
      </trkpt>
      <trkpt lat="47.47556" lon="6.76348">
        <ele>311</ele>
        <time>2015-11-11T10:52:46.000Z</time>
      </trkpt>
      <trkpt lat="47.47561" lon="6.76342">
        <ele>311</ele>
        <time>2015-11-11T10:52:47.000Z</time>
      </trkpt>
      <trkpt lat="47.47565" lon="6.76337">
        <ele>311</ele>
        <time>2015-11-11T10:52:48.000Z</time>
      </trkpt>
      <trkpt lat="47.4757" lon="6.76334">
        <ele>311</ele>
        <time>2015-11-11T10:52:49.000Z</time>
      </trkpt>
      <trkpt lat="47.47568" lon="6.76316">
        <ele>312</ele>
        <time>2015-11-11T10:52:50.000Z</time>
      </trkpt>
      <trkpt lat="47.47571" lon="6.76307">
        <ele>312</ele>
        <time>2015-11-11T10:52:51.000Z</time>
      </trkpt>
      <trkpt lat="47.47574" lon="6.76301">
        <ele>312</ele>
        <time>2015-11-11T10:52:52.000Z</time>
      </trkpt>
      <trkpt lat="47.47578" lon="6.76299">
        <ele>312</ele>
        <time>2015-11-11T10:52:53.000Z</time>
      </trkpt>
      <trkpt lat="47.47582" lon="6.76294">
        <ele>312</ele>
        <time>2015-11-11T10:52:54.000Z</time>
      </trkpt>
      <trkpt lat="47.47585" lon="6.76287">
        <ele>311</ele>
        <time>2015-11-11T10:52:55.000Z</time>
      </trkpt>
      <trkpt lat="47.47591" lon="6.76283">
        <ele>311</ele>
        <time>2015-11-11T10:52:56.000Z</time>
      </trkpt>
      <trkpt lat="47.47595" lon="6.76278">
        <ele>311</ele>
        <time>2015-11-11T10:52:57.000Z</time>
      </trkpt>
      <trkpt lat="47.476" lon="6.76275">
        <ele>311</ele>
        <time>2015-11-11T10:52:58.000Z</time>
      </trkpt>
      <trkpt lat="47.47604" lon="6.7627">
        <ele>311</ele>
        <time>2015-11-11T10:52:59.000Z</time>
      </trkpt>
      <trkpt lat="47.47607" lon="6.76262">
        <ele>311</ele>
        <time>2015-11-11T10:53:00.000Z</time>
      </trkpt>
      <trkpt lat="47.47608" lon="6.76258">
        <ele>311</ele>
        <time>2015-11-11T10:53:01.000Z</time>
      </trkpt>
      <trkpt lat="47.47612" lon="6.76251">
        <ele>311</ele>
        <time>2015-11-11T10:53:02.000Z</time>
      </trkpt>
      <trkpt lat="47.47615" lon="6.76245">
        <ele>311</ele>
        <time>2015-11-11T10:53:03.000Z</time>
      </trkpt>
      <trkpt lat="47.47618" lon="6.7624">
        <ele>311</ele>
        <time>2015-11-11T10:53:04.000Z</time>
      </trkpt>
      <trkpt lat="47.47619" lon="6.76234">
        <ele>311</ele>
        <time>2015-11-11T10:53:05.000Z</time>
      </trkpt>
      <trkpt lat="47.47622" lon="6.76226">
        <ele>311</ele>
        <time>2015-11-11T10:53:06.000Z</time>
      </trkpt>
      <trkpt lat="47.47624" lon="6.7622">
        <ele>311</ele>
        <time>2015-11-11T10:53:07.000Z</time>
      </trkpt>
      <trkpt lat="47.47627" lon="6.76211">
        <ele>311</ele>
        <time>2015-11-11T10:53:08.000Z</time>
      </trkpt>
      <trkpt lat="47.4763" lon="6.76205">
        <ele>311</ele>
        <time>2015-11-11T10:53:09.000Z</time>
      </trkpt>
      <trkpt lat="47.47633" lon="6.76198">
        <ele>311</ele>
        <time>2015-11-11T10:53:10.000Z</time>
      </trkpt>
      <trkpt lat="47.47636" lon="6.76191">
        <ele>311</ele>
        <time>2015-11-11T10:53:11.000Z</time>
      </trkpt>
      <trkpt lat="47.47639" lon="6.76186">
        <ele>311</ele>
        <time>2015-11-11T10:53:12.000Z</time>
      </trkpt>
      <trkpt lat="47.47641" lon="6.7618">
        <ele>311</ele>
        <time>2015-11-11T10:53:13.000Z</time>
      </trkpt>
      <trkpt lat="47.47644" lon="6.76172">
        <ele>311</ele>
        <time>2015-11-11T10:53:14.000Z</time>
      </trkpt>
      <trkpt lat="47.47646" lon="6.76165">
        <ele>311</ele>
        <time>2015-11-11T10:53:15.000Z</time>
      </trkpt>
      <trkpt lat="47.47648" lon="6.76158">
        <ele>311</ele>
        <time>2015-11-11T10:53:16.000Z</time>
      </trkpt>
      <trkpt lat="47.4765" lon="6.76153">
        <ele>311</ele>
        <time>2015-11-11T10:53:17.000Z</time>
      </trkpt>
      <trkpt lat="47.47653" lon="6.76147">
        <ele>311</ele>
        <time>2015-11-11T10:53:18.000Z</time>
      </trkpt>
      <trkpt lat="47.47655" lon="6.76141">
        <ele>311</ele>
        <time>2015-11-11T10:53:19.000Z</time>
      </trkpt>
      <trkpt lat="47.47657" lon="6.76134">
        <ele>311</ele>
        <time>2015-11-11T10:53:20.000Z</time>
      </trkpt>
      <trkpt lat="47.47659" lon="6.76128">
        <ele>311</ele>
        <time>2015-11-11T10:53:21.000Z</time>
      </trkpt>
      <trkpt lat="47.47661" lon="6.76122">
        <ele>311</ele>
        <time>2015-11-11T10:53:22.000Z</time>
      </trkpt>
      <trkpt lat="47.47664" lon="6.76116">
        <ele>311</ele>
        <time>2015-11-11T10:53:23.000Z</time>
      </trkpt>
      <trkpt lat="47.47666" lon="6.7611">
        <ele>311</ele>
        <time>2015-11-11T10:53:24.000Z</time>
      </trkpt>
      <trkpt lat="47.47669" lon="6.76105">
        <ele>310</ele>
        <time>2015-11-11T10:53:25.000Z</time>
      </trkpt>
      <trkpt lat="47.47671" lon="6.76098">
        <ele>310</ele>
        <time>2015-11-11T10:53:26.000Z</time>
      </trkpt>
      <trkpt lat="47.47673" lon="6.76092">
        <ele>311</ele>
        <time>2015-11-11T10:53:27.000Z</time>
      </trkpt>
      <trkpt lat="47.47673" lon="6.76085">
        <ele>311</ele>
        <time>2015-11-11T10:53:28.000Z</time>
      </trkpt>
      <trkpt lat="47.47675" lon="6.76083">
        <ele>311</ele>
        <time>2015-11-11T10:53:29.000Z</time>
      </trkpt>
      <trkpt lat="47.47677" lon="6.76081">
        <ele>311</ele>
        <time>2015-11-11T10:53:30.000Z</time>
      </trkpt>
      <trkpt lat="47.47678" lon="6.76083">
        <ele>311</ele>
        <time>2015-11-11T10:53:31.000Z</time>
      </trkpt>
      <trkpt lat="47.4768" lon="6.76089">
        <ele>310</ele>
        <time>2015-11-11T10:53:32.000Z</time>
      </trkpt>
      <trkpt lat="47.47682" lon="6.76092">
        <ele>310</ele>
        <time>2015-11-11T10:53:33.000Z</time>
      </trkpt>
      <trkpt lat="47.47683" lon="6.76095">
        <ele>310</ele>
        <time>2015-11-11T10:53:34.000Z</time>
      </trkpt>
      <trkpt lat="47.47686" lon="6.761">
        <ele>310</ele>
        <time>2015-11-11T10:53:35.000Z</time>
      </trkpt>
      <trkpt lat="47.47689" lon="6.76103">
        <ele>310</ele>
        <time>2015-11-11T10:53:36.000Z</time>
      </trkpt>
      <trkpt lat="47.47691" lon="6.76106">
        <ele>310</ele>
        <time>2015-11-11T10:53:37.000Z</time>
      </trkpt>
      <trkpt lat="47.47694" lon="6.76109">
        <ele>310</ele>
        <time>2015-11-11T10:53:38.000Z</time>
      </trkpt>
      <trkpt lat="47.47698" lon="6.76115">
        <ele>310</ele>
        <time>2015-11-11T10:53:39.000Z</time>
      </trkpt>
      <trkpt lat="47.47703" lon="6.76121">
        <ele>310</ele>
        <time>2015-11-11T10:53:40.000Z</time>
      </trkpt>
      <trkpt lat="47.47705" lon="6.76125">
        <ele>310</ele>
        <time>2015-11-11T10:53:41.000Z</time>
      </trkpt>
      <trkpt lat="47.47709" lon="6.76131">
        <ele>309</ele>
        <time>2015-11-11T10:53:42.000Z</time>
      </trkpt>
      <trkpt lat="47.47712" lon="6.76137">
        <ele>309</ele>
        <time>2015-11-11T10:53:43.000Z</time>
      </trkpt>
      <trkpt lat="47.47715" lon="6.76143">
        <ele>309</ele>
        <time>2015-11-11T10:53:44.000Z</time>
      </trkpt>
      <trkpt lat="47.47718" lon="6.76149">
        <ele>309</ele>
        <time>2015-11-11T10:53:45.000Z</time>
      </trkpt>
      <trkpt lat="47.47721" lon="6.76154">
        <ele>309</ele>
        <time>2015-11-11T10:53:46.000Z</time>
      </trkpt>
      <trkpt lat="47.47725" lon="6.76161">
        <ele>309</ele>
        <time>2015-11-11T10:53:47.000Z</time>
      </trkpt>
      <trkpt lat="47.47729" lon="6.76165">
        <ele>308</ele>
        <time>2015-11-11T10:53:48.000Z</time>
      </trkpt>
      <trkpt lat="47.47733" lon="6.7617">
        <ele>308</ele>
        <time>2015-11-11T10:53:49.000Z</time>
      </trkpt>
      <trkpt lat="47.47736" lon="6.76175">
        <ele>308</ele>
        <time>2015-11-11T10:53:50.000Z</time>
      </trkpt>
      <trkpt lat="47.47739" lon="6.76181">
        <ele>308</ele>
        <time>2015-11-11T10:53:51.000Z</time>
      </trkpt>
      <trkpt lat="47.47744" lon="6.76189">
        <ele>308</ele>
        <time>2015-11-11T10:53:52.000Z</time>
      </trkpt>
      <trkpt lat="47.47748" lon="6.76195">
        <ele>309</ele>
        <time>2015-11-11T10:53:53.000Z</time>
      </trkpt>
      <trkpt lat="47.47753" lon="6.762">
        <ele>309</ele>
        <time>2015-11-11T10:53:54.000Z</time>
      </trkpt>
      <trkpt lat="47.47757" lon="6.76208">
        <ele>309</ele>
        <time>2015-11-11T10:53:55.000Z</time>
      </trkpt>
      <trkpt lat="47.47759" lon="6.76213">
        <ele>309</ele>
        <time>2015-11-11T10:53:56.000Z</time>
      </trkpt>
      <trkpt lat="47.47762" lon="6.76219">
        <ele>309</ele>
        <time>2015-11-11T10:53:57.000Z</time>
      </trkpt>
      <trkpt lat="47.47767" lon="6.76225">
        <ele>309</ele>
        <time>2015-11-11T10:53:58.000Z</time>
      </trkpt>
      <trkpt lat="47.47772" lon="6.76232">
        <ele>309</ele>
        <time>2015-11-11T10:53:59.000Z</time>
      </trkpt>
      <trkpt lat="47.47775" lon="6.76237">
        <ele>309</ele>
        <time>2015-11-11T10:54:00.000Z</time>
      </trkpt>
      <trkpt lat="47.47779" lon="6.76242">
        <ele>309</ele>
        <time>2015-11-11T10:54:01.000Z</time>
      </trkpt>
      <trkpt lat="47.47783" lon="6.76247">
        <ele>309</ele>
        <time>2015-11-11T10:54:02.000Z</time>
      </trkpt>
      <trkpt lat="47.47788" lon="6.76252">
        <ele>310</ele>
        <time>2015-11-11T10:54:03.000Z</time>
      </trkpt>
      <trkpt lat="47.47793" lon="6.76255">
        <ele>310</ele>
        <time>2015-11-11T10:54:04.000Z</time>
      </trkpt>
      <trkpt lat="47.47799" lon="6.76259">
        <ele>310</ele>
        <time>2015-11-11T10:54:05.000Z</time>
      </trkpt>
      <trkpt lat="47.47805" lon="6.76263">
        <ele>310</ele>
        <time>2015-11-11T10:54:06.000Z</time>
      </trkpt>
      <trkpt lat="47.47812" lon="6.76266">
        <ele>310</ele>
        <time>2015-11-11T10:54:07.000Z</time>
      </trkpt>
      <trkpt lat="47.47818" lon="6.76268">
        <ele>310</ele>
        <time>2015-11-11T10:54:08.000Z</time>
      </trkpt>
      <trkpt lat="47.47824" lon="6.76273">
        <ele>310</ele>
        <time>2015-11-11T10:54:09.000Z</time>
      </trkpt>
      <trkpt lat="47.47829" lon="6.76276">
        <ele>310</ele>
        <time>2015-11-11T10:54:10.000Z</time>
      </trkpt>
      <trkpt lat="47.47833" lon="6.76281">
        <ele>310</ele>
        <time>2015-11-11T10:54:11.000Z</time>
      </trkpt>
      <trkpt lat="47.47843" lon="6.76292">
        <ele>310</ele>
        <time>2015-11-11T10:54:13.000Z</time>
      </trkpt>
      <trkpt lat="47.47846" lon="6.76297">
        <ele>310</ele>
        <time>2015-11-11T10:54:14.000Z</time>
      </trkpt>
      <trkpt lat="47.47851" lon="6.76303">
        <ele>310</ele>
        <time>2015-11-11T10:54:15.000Z</time>
      </trkpt>
      <trkpt lat="47.47853" lon="6.76311">
        <ele>310</ele>
        <time>2015-11-11T10:54:16.000Z</time>
      </trkpt>
      <trkpt lat="47.47856" lon="6.76317">
        <ele>311</ele>
        <time>2015-11-11T10:54:17.000Z</time>
      </trkpt>
      <trkpt lat="47.4786" lon="6.76324">
        <ele>310</ele>
        <time>2015-11-11T10:54:18.000Z</time>
      </trkpt>
      <trkpt lat="47.47864" lon="6.76331">
        <ele>310</ele>
        <time>2015-11-11T10:54:19.000Z</time>
      </trkpt>
      <trkpt lat="47.47867" lon="6.76335">
        <ele>311</ele>
        <time>2015-11-11T10:54:20.000Z</time>
      </trkpt>
      <trkpt lat="47.4787" lon="6.76342">
        <ele>311</ele>
        <time>2015-11-11T10:54:21.000Z</time>
      </trkpt>
      <trkpt lat="47.47872" lon="6.76349">
        <ele>311</ele>
        <time>2015-11-11T10:54:22.000Z</time>
      </trkpt>
      <trkpt lat="47.47876" lon="6.76356">
        <ele>311</ele>
        <time>2015-11-11T10:54:23.000Z</time>
      </trkpt>
      <trkpt lat="47.4788" lon="6.76363">
        <ele>311</ele>
        <time>2015-11-11T10:54:24.000Z</time>
      </trkpt>
      <trkpt lat="47.47883" lon="6.76371">
        <ele>311</ele>
        <time>2015-11-11T10:54:25.000Z</time>
      </trkpt>
      <trkpt lat="47.47886" lon="6.76377">
        <ele>311</ele>
        <time>2015-11-11T10:54:26.000Z</time>
      </trkpt>
      <trkpt lat="47.47889" lon="6.76383">
        <ele>311</ele>
        <time>2015-11-11T10:54:27.001Z</time>
      </trkpt>
      <trkpt lat="47.47893" lon="6.76391">
        <ele>311</ele>
        <time>2015-11-11T10:54:28.000Z</time>
      </trkpt>
      <trkpt lat="47.47894" lon="6.76398">
        <ele>311</ele>
        <time>2015-11-11T10:54:29.000Z</time>
      </trkpt>
      <trkpt lat="47.47897" lon="6.76405">
        <ele>311</ele>
        <time>2015-11-11T10:54:30.000Z</time>
      </trkpt>
      <trkpt lat="47.479" lon="6.76411">
        <ele>311</ele>
        <time>2015-11-11T10:54:31.000Z</time>
      </trkpt>
      <trkpt lat="47.47903" lon="6.76418">
        <ele>311</ele>
        <time>2015-11-11T10:54:32.000Z</time>
      </trkpt>
      <trkpt lat="47.47906" lon="6.76425">
        <ele>311</ele>
        <time>2015-11-11T10:54:33.000Z</time>
      </trkpt>
      <trkpt lat="47.47908" lon="6.76433">
        <ele>311</ele>
        <time>2015-11-11T10:54:34.000Z</time>
      </trkpt>
      <trkpt lat="47.4791" lon="6.76441">
        <ele>311</ele>
        <time>2015-11-11T10:54:35.000Z</time>
      </trkpt>
      <trkpt lat="47.47913" lon="6.76448">
        <ele>311</ele>
        <time>2015-11-11T10:54:36.000Z</time>
      </trkpt>
      <trkpt lat="47.47916" lon="6.76456">
        <ele>311</ele>
        <time>2015-11-11T10:54:37.000Z</time>
      </trkpt>
      <trkpt lat="47.47917" lon="6.76463">
        <ele>311</ele>
        <time>2015-11-11T10:54:38.000Z</time>
      </trkpt>
      <trkpt lat="47.4792" lon="6.76472">
        <ele>311</ele>
        <time>2015-11-11T10:54:39.000Z</time>
      </trkpt>
      <trkpt lat="47.47922" lon="6.76479">
        <ele>311</ele>
        <time>2015-11-11T10:54:40.000Z</time>
      </trkpt>
      <trkpt lat="47.47927" lon="6.76487">
        <ele>311</ele>
        <time>2015-11-11T10:54:41.000Z</time>
      </trkpt>
      <trkpt lat="47.47928" lon="6.76496">
        <ele>310</ele>
        <time>2015-11-11T10:54:42.000Z</time>
      </trkpt>
      <trkpt lat="47.4793" lon="6.76504">
        <ele>310</ele>
        <time>2015-11-11T10:54:42.999Z</time>
      </trkpt>
      <trkpt lat="47.47931" lon="6.76513">
        <ele>311</ele>
        <time>2015-11-11T10:54:44.000Z</time>
      </trkpt>
      <trkpt lat="47.47934" lon="6.76522">
        <ele>311</ele>
        <time>2015-11-11T10:54:45.000Z</time>
      </trkpt>
      <trkpt lat="47.47936" lon="6.7653">
        <ele>311</ele>
        <time>2015-11-11T10:54:46.000Z</time>
      </trkpt>
      <trkpt lat="47.47938" lon="6.7654">
        <ele>311</ele>
        <time>2015-11-11T10:54:47.000Z</time>
      </trkpt>
      <trkpt lat="47.47941" lon="6.76547">
        <ele>311</ele>
        <time>2015-11-11T10:54:48.000Z</time>
      </trkpt>
      <trkpt lat="47.47945" lon="6.76555">
        <ele>311</ele>
        <time>2015-11-11T10:54:49.000Z</time>
      </trkpt>
      <trkpt lat="47.47946" lon="6.76564">
        <ele>311</ele>
        <time>2015-11-11T10:54:50.000Z</time>
      </trkpt>
      <trkpt lat="47.47949" lon="6.76573">
        <ele>311</ele>
        <time>2015-11-11T10:54:51.000Z</time>
      </trkpt>
      <trkpt lat="47.47951" lon="6.76581">
        <ele>311</ele>
        <time>2015-11-11T10:54:52.000Z</time>
      </trkpt>
      <trkpt lat="47.47951" lon="6.7659">
        <ele>311</ele>
        <time>2015-11-11T10:54:53.000Z</time>
      </trkpt>
      <trkpt lat="47.47952" lon="6.76596">
        <ele>311</ele>
        <time>2015-11-11T10:54:54.000Z</time>
      </trkpt>
      <trkpt lat="47.47953" lon="6.76603">
        <ele>311</ele>
        <time>2015-11-11T10:54:55.000Z</time>
      </trkpt>
      <trkpt lat="47.47954" lon="6.76608">
        <ele>311</ele>
        <time>2015-11-11T10:54:56.000Z</time>
      </trkpt>
      <trkpt lat="47.47956" lon="6.76612">
        <ele>311</ele>
        <time>2015-11-11T10:54:57.000Z</time>
      </trkpt>
      <trkpt lat="47.47958" lon="6.76616">
        <ele>311</ele>
        <time>2015-11-11T10:54:59.000Z</time>
      </trkpt>
      <trkpt lat="47.47958" lon="6.76618">
        <ele>311</ele>
        <time>2015-11-11T10:55:00.000Z</time>
      </trkpt>
      <trkpt lat="47.4796" lon="6.76622">
        <ele>311</ele>
        <time>2015-11-11T10:55:02.000Z</time>
      </trkpt>
      <trkpt lat="47.47961" lon="6.76623">
        <ele>311</ele>
        <time>2015-11-11T10:55:03.000Z</time>
      </trkpt>
      <trkpt lat="47.47964" lon="6.76622">
        <ele>311</ele>
        <time>2015-11-11T10:55:04.000Z</time>
      </trkpt>
      <trkpt lat="47.47966" lon="6.76622">
        <ele>311</ele>
        <time>2015-11-11T10:55:05.000Z</time>
      </trkpt>
      <trkpt lat="47.47969" lon="6.7662">
        <ele>311</ele>
        <time>2015-11-11T10:55:06.000Z</time>
      </trkpt>
      <trkpt lat="47.47975" lon="6.76612">
        <ele>311</ele>
        <time>2015-11-11T10:55:07.000Z</time>
      </trkpt>
      <trkpt lat="47.4798" lon="6.76608">
        <ele>311</ele>
        <time>2015-11-11T10:55:08.000Z</time>
      </trkpt>
      <trkpt lat="47.47986" lon="6.76605">
        <ele>312</ele>
        <time>2015-11-11T10:55:09.000Z</time>
      </trkpt>
      <trkpt lat="47.47991" lon="6.766">
        <ele>312</ele>
        <time>2015-11-11T10:55:10.000Z</time>
      </trkpt>
      <trkpt lat="47.47993" lon="6.76599">
        <ele>312</ele>
        <time>2015-11-11T10:55:11.000Z</time>
      </trkpt>
      <trkpt lat="47.47999" lon="6.76594">
        <ele>312</ele>
        <time>2015-11-11T10:55:12.000Z</time>
      </trkpt>
      <trkpt lat="47.48005" lon="6.76593">
        <ele>312</ele>
        <time>2015-11-11T10:55:13.000Z</time>
      </trkpt>
      <trkpt lat="47.48011" lon="6.76589">
        <ele>312</ele>
        <time>2015-11-11T10:55:14.000Z</time>
      </trkpt>
      <trkpt lat="47.48018" lon="6.76584">
        <ele>312</ele>
        <time>2015-11-11T10:55:15.000Z</time>
      </trkpt>
      <trkpt lat="47.48024" lon="6.76581">
        <ele>312</ele>
        <time>2015-11-11T10:55:16.000Z</time>
      </trkpt>
      <trkpt lat="47.4803" lon="6.76577">
        <ele>312</ele>
        <time>2015-11-11T10:55:17.000Z</time>
      </trkpt>
      <trkpt lat="47.48035" lon="6.76573">
        <ele>312</ele>
        <time>2015-11-11T10:55:18.000Z</time>
      </trkpt>
      <trkpt lat="47.48041" lon="6.7657">
        <ele>312</ele>
        <time>2015-11-11T10:55:19.000Z</time>
      </trkpt>
      <trkpt lat="47.48046" lon="6.76566">
        <ele>312</ele>
        <time>2015-11-11T10:55:20.000Z</time>
      </trkpt>
      <trkpt lat="47.48052" lon="6.76561">
        <ele>312</ele>
        <time>2015-11-11T10:55:21.000Z</time>
      </trkpt>
      <trkpt lat="47.48058" lon="6.76558">
        <ele>312</ele>
        <time>2015-11-11T10:55:22.000Z</time>
      </trkpt>
      <trkpt lat="47.48062" lon="6.76554">
        <ele>312</ele>
        <time>2015-11-11T10:55:23.000Z</time>
      </trkpt>
      <trkpt lat="47.48066" lon="6.76547">
        <ele>312</ele>
        <time>2015-11-11T10:55:24.000Z</time>
      </trkpt>
      <trkpt lat="47.48072" lon="6.7654">
        <ele>312</ele>
        <time>2015-11-11T10:55:25.000Z</time>
      </trkpt>
      <trkpt lat="47.48076" lon="6.76533">
        <ele>312</ele>
        <time>2015-11-11T10:55:26.000Z</time>
      </trkpt>
      <trkpt lat="47.48082" lon="6.76527">
        <ele>312</ele>
        <time>2015-11-11T10:55:27.000Z</time>
      </trkpt>
      <trkpt lat="47.48086" lon="6.76521">
        <ele>317</ele>
        <time>2015-11-11T10:55:28.000Z</time>
      </trkpt>
      <trkpt lat="47.4809" lon="6.76514">
        <ele>316</ele>
        <time>2015-11-11T10:55:29.000Z</time>
      </trkpt>
      <trkpt lat="47.48095" lon="6.7651">
        <ele>317</ele>
        <time>2015-11-11T10:55:30.000Z</time>
      </trkpt>
      <trkpt lat="47.48099" lon="6.76511">
        <ele>317</ele>
        <time>2015-11-11T10:55:31.000Z</time>
      </trkpt>
      <trkpt lat="47.48104" lon="6.76514">
        <ele>318</ele>
        <time>2015-11-11T10:55:32.000Z</time>
      </trkpt>
      <trkpt lat="47.48108" lon="6.76519">
        <ele>319</ele>
        <time>2015-11-11T10:55:33.000Z</time>
      </trkpt>
      <trkpt lat="47.48112" lon="6.76524">
        <ele>319</ele>
        <time>2015-11-11T10:55:34.000Z</time>
      </trkpt>
      <trkpt lat="47.48113" lon="6.76529">
        <ele>319</ele>
        <time>2015-11-11T10:55:35.000Z</time>
      </trkpt>
      <trkpt lat="47.48115" lon="6.76535">
        <ele>319</ele>
        <time>2015-11-11T10:55:36.000Z</time>
      </trkpt>
      <trkpt lat="47.48116" lon="6.76543">
        <ele>319</ele>
        <time>2015-11-11T10:55:37.000Z</time>
      </trkpt>
      <trkpt lat="47.48117" lon="6.76551">
        <ele>319</ele>
        <time>2015-11-11T10:55:38.000Z</time>
      </trkpt>
      <trkpt lat="47.48115" lon="6.76559">
        <ele>318</ele>
        <time>2015-11-11T10:55:38.999Z</time>
      </trkpt>
      <trkpt lat="47.48111" lon="6.76567">
        <ele>317</ele>
        <time>2015-11-11T10:55:40.000Z</time>
      </trkpt>
      <trkpt lat="47.48109" lon="6.76575">
        <ele>317</ele>
        <time>2015-11-11T10:55:41.000Z</time>
      </trkpt>
      <trkpt lat="47.48106" lon="6.76581">
        <ele>316</ele>
        <time>2015-11-11T10:55:42.000Z</time>
      </trkpt>
      <trkpt lat="47.48103" lon="6.76587">
        <ele>313</ele>
        <time>2015-11-11T10:55:43.000Z</time>
      </trkpt>
      <trkpt lat="47.48101" lon="6.76593">
        <ele>313</ele>
        <time>2015-11-11T10:55:44.000Z</time>
      </trkpt>
      <trkpt lat="47.48101" lon="6.76599">
        <ele>313</ele>
        <time>2015-11-11T10:55:45.000Z</time>
      </trkpt>
      <trkpt lat="47.481" lon="6.76607">
        <ele>313</ele>
        <time>2015-11-11T10:55:46.000Z</time>
      </trkpt>
      <trkpt lat="47.48103" lon="6.76616">
        <ele>313</ele>
        <time>2015-11-11T10:55:47.000Z</time>
      </trkpt>
      <trkpt lat="47.48105" lon="6.76623">
        <ele>313</ele>
        <time>2015-11-11T10:55:48.000Z</time>
      </trkpt>
      <trkpt lat="47.48107" lon="6.76632">
        <ele>313</ele>
        <time>2015-11-11T10:55:49.000Z</time>
      </trkpt>
      <trkpt lat="47.48111" lon="6.76636">
        <ele>313</ele>
        <time>2015-11-11T10:55:50.000Z</time>
      </trkpt>
      <trkpt lat="47.48111" lon="6.76642">
        <ele>313</ele>
        <time>2015-11-11T10:55:51.000Z</time>
      </trkpt>
      <trkpt lat="47.48114" lon="6.7665">
        <ele>313</ele>
        <time>2015-11-11T10:55:52.000Z</time>
      </trkpt>
      <trkpt lat="47.48116" lon="6.76658">
        <ele>313</ele>
        <time>2015-11-11T10:55:53.000Z</time>
      </trkpt>
      <trkpt lat="47.48119" lon="6.76664">
        <ele>313</ele>
        <time>2015-11-11T10:55:54.000Z</time>
      </trkpt>
      <trkpt lat="47.48123" lon="6.76668">
        <ele>312</ele>
        <time>2015-11-11T10:55:55.000Z</time>
      </trkpt>
      <trkpt lat="47.48127" lon="6.76676">
        <ele>312</ele>
        <time>2015-11-11T10:55:56.000Z</time>
      </trkpt>
      <trkpt lat="47.4813" lon="6.76683">
        <ele>312</ele>
        <time>2015-11-11T10:55:57.000Z</time>
      </trkpt>
      <trkpt lat="47.48133" lon="6.7669">
        <ele>312</ele>
        <time>2015-11-11T10:55:58.001Z</time>
      </trkpt>
      <trkpt lat="47.48137" lon="6.76696">
        <ele>312</ele>
        <time>2015-11-11T10:55:59.000Z</time>
      </trkpt>
      <trkpt lat="47.48139" lon="6.76704">
        <ele>312</ele>
        <time>2015-11-11T10:56:00.000Z</time>
      </trkpt>
      <trkpt lat="47.48142" lon="6.76712">
        <ele>312</ele>
        <time>2015-11-11T10:56:01.000Z</time>
      </trkpt>
      <trkpt lat="47.48146" lon="6.76719">
        <ele>312</ele>
        <time>2015-11-11T10:56:02.000Z</time>
      </trkpt>
      <trkpt lat="47.48149" lon="6.76725">
        <ele>312</ele>
        <time>2015-11-11T10:56:03.000Z</time>
      </trkpt>
      <trkpt lat="47.48153" lon="6.76732">
        <ele>312</ele>
        <time>2015-11-11T10:56:04.000Z</time>
      </trkpt>
      <trkpt lat="47.48157" lon="6.7674">
        <ele>313</ele>
        <time>2015-11-11T10:56:05.000Z</time>
      </trkpt>
      <trkpt lat="47.48162" lon="6.76747">
        <ele>313</ele>
        <time>2015-11-11T10:56:06.000Z</time>
      </trkpt>
      <trkpt lat="47.48167" lon="6.76753">
        <ele>313</ele>
        <time>2015-11-11T10:56:07.000Z</time>
      </trkpt>
      <trkpt lat="47.48171" lon="6.76758">
        <ele>313</ele>
        <time>2015-11-11T10:56:08.000Z</time>
      </trkpt>
      <trkpt lat="47.48176" lon="6.76765">
        <ele>312</ele>
        <time>2015-11-11T10:56:09.000Z</time>
      </trkpt>
      <trkpt lat="47.48182" lon="6.7677">
        <ele>312</ele>
        <time>2015-11-11T10:56:10.000Z</time>
      </trkpt>
      <trkpt lat="47.48187" lon="6.76775">
        <ele>312</ele>
        <time>2015-11-11T10:56:11.000Z</time>
      </trkpt>
      <trkpt lat="47.48193" lon="6.76778">
        <ele>312</ele>
        <time>2015-11-11T10:56:12.000Z</time>
      </trkpt>
      <trkpt lat="47.48198" lon="6.76783">
        <ele>312</ele>
        <time>2015-11-11T10:56:13.000Z</time>
      </trkpt>
      <trkpt lat="47.48204" lon="6.76785">
        <ele>312</ele>
        <time>2015-11-11T10:56:14.000Z</time>
      </trkpt>
      <trkpt lat="47.48211" lon="6.76786">
        <ele>312</ele>
        <time>2015-11-11T10:56:15.000Z</time>
      </trkpt>
      <trkpt lat="47.48216" lon="6.76788">
        <ele>312</ele>
        <time>2015-11-11T10:56:16.000Z</time>
      </trkpt>
      <trkpt lat="47.48222" lon="6.76792">
        <ele>312</ele>
        <time>2015-11-11T10:56:17.000Z</time>
      </trkpt>
      <trkpt lat="47.48227" lon="6.76795">
        <ele>312</ele>
        <time>2015-11-11T10:56:18.000Z</time>
      </trkpt>
      <trkpt lat="47.48233" lon="6.76798">
        <ele>312</ele>
        <time>2015-11-11T10:56:19.000Z</time>
      </trkpt>
      <trkpt lat="47.48238" lon="6.76801">
        <ele>312</ele>
        <time>2015-11-11T10:56:20.000Z</time>
      </trkpt>
      <trkpt lat="47.48244" lon="6.76807">
        <ele>312</ele>
        <time>2015-11-11T10:56:21.000Z</time>
      </trkpt>
      <trkpt lat="47.48249" lon="6.76813">
        <ele>312</ele>
        <time>2015-11-11T10:56:22.000Z</time>
      </trkpt>
      <trkpt lat="47.48254" lon="6.76819">
        <ele>312</ele>
        <time>2015-11-11T10:56:23.000Z</time>
      </trkpt>
      <trkpt lat="47.48259" lon="6.76827">
        <ele>312</ele>
        <time>2015-11-11T10:56:24.000Z</time>
      </trkpt>
      <trkpt lat="47.48265" lon="6.76833">
        <ele>312</ele>
        <time>2015-11-11T10:56:25.000Z</time>
      </trkpt>
      <trkpt lat="47.4827" lon="6.76839">
        <ele>311</ele>
        <time>2015-11-11T10:56:26.000Z</time>
      </trkpt>
      <trkpt lat="47.48274" lon="6.76847">
        <ele>311</ele>
        <time>2015-11-11T10:56:27.000Z</time>
      </trkpt>
      <trkpt lat="47.48278" lon="6.76852">
        <ele>310</ele>
        <time>2015-11-11T10:56:28.000Z</time>
      </trkpt>
      <trkpt lat="47.48283" lon="6.7686">
        <ele>310</ele>
        <time>2015-11-11T10:56:29.000Z</time>
      </trkpt>
      <trkpt lat="47.48288" lon="6.76867">
        <ele>310</ele>
        <time>2015-11-11T10:56:30.000Z</time>
      </trkpt>
      <trkpt lat="47.48294" lon="6.76873">
        <ele>310</ele>
        <time>2015-11-11T10:56:31.000Z</time>
      </trkpt>
      <trkpt lat="47.483" lon="6.76878">
        <ele>310</ele>
        <time>2015-11-11T10:56:32.000Z</time>
      </trkpt>
      <trkpt lat="47.48306" lon="6.76884">
        <ele>310</ele>
        <time>2015-11-11T10:56:33.000Z</time>
      </trkpt>
      <trkpt lat="47.48312" lon="6.7689">
        <ele>310</ele>
        <time>2015-11-11T10:56:34.000Z</time>
      </trkpt>
      <trkpt lat="47.48319" lon="6.76897">
        <ele>310</ele>
        <time>2015-11-11T10:56:35.000Z</time>
      </trkpt>
      <trkpt lat="47.48325" lon="6.76901">
        <ele>310</ele>
        <time>2015-11-11T10:56:36.000Z</time>
      </trkpt>
      <trkpt lat="47.48331" lon="6.76905">
        <ele>309</ele>
        <time>2015-11-11T10:56:37.000Z</time>
      </trkpt>
      <trkpt lat="47.48337" lon="6.7691">
        <ele>310</ele>
        <time>2015-11-11T10:56:38.000Z</time>
      </trkpt>
      <trkpt lat="47.48343" lon="6.76914">
        <ele>310</ele>
        <time>2015-11-11T10:56:39.000Z</time>
      </trkpt>
      <trkpt lat="47.48349" lon="6.76916">
        <ele>310</ele>
        <time>2015-11-11T10:56:40.000Z</time>
      </trkpt>
      <trkpt lat="47.48356" lon="6.76921">
        <ele>311</ele>
        <time>2015-11-11T10:56:41.000Z</time>
      </trkpt>
      <trkpt lat="47.48362" lon="6.76926">
        <ele>311</ele>
        <time>2015-11-11T10:56:42.000Z</time>
      </trkpt>
      <trkpt lat="47.4837" lon="6.7693">
        <ele>312</ele>
        <time>2015-11-11T10:56:43.000Z</time>
      </trkpt>
      <trkpt lat="47.48378" lon="6.76935">
        <ele>312</ele>
        <time>2015-11-11T10:56:44.000Z</time>
      </trkpt>
      <trkpt lat="47.48384" lon="6.76938">
        <ele>312</ele>
        <time>2015-11-11T10:56:45.000Z</time>
      </trkpt>
      <trkpt lat="47.48391" lon="6.76943">
        <ele>312</ele>
        <time>2015-11-11T10:56:46.000Z</time>
      </trkpt>
      <trkpt lat="47.48397" lon="6.76947">
        <ele>312</ele>
        <time>2015-11-11T10:56:47.000Z</time>
      </trkpt>
      <trkpt lat="47.48404" lon="6.7695">
        <ele>312</ele>
        <time>2015-11-11T10:56:48.000Z</time>
      </trkpt>
      <trkpt lat="47.4841" lon="6.76954">
        <ele>312</ele>
        <time>2015-11-11T10:56:49.000Z</time>
      </trkpt>
      <trkpt lat="47.48416" lon="6.76956">
        <ele>312</ele>
        <time>2015-11-11T10:56:50.000Z</time>
      </trkpt>
      <trkpt lat="47.48422" lon="6.7696">
        <ele>314</ele>
        <time>2015-11-11T10:56:51.000Z</time>
      </trkpt>
      <trkpt lat="47.48428" lon="6.76962">
        <ele>314</ele>
        <time>2015-11-11T10:56:52.000Z</time>
      </trkpt>
      <trkpt lat="47.48433" lon="6.76965">
        <ele>314</ele>
        <time>2015-11-11T10:56:53.000Z</time>
      </trkpt>
      <trkpt lat="47.4844" lon="6.7697">
        <ele>315</ele>
        <time>2015-11-11T10:56:54.000Z</time>
      </trkpt>
      <trkpt lat="47.48446" lon="6.76975">
        <ele>315</ele>
        <time>2015-11-11T10:56:55.000Z</time>
      </trkpt>
      <trkpt lat="47.48452" lon="6.7698">
        <ele>315</ele>
        <time>2015-11-11T10:56:56.000Z</time>
      </trkpt>
      <trkpt lat="47.48458" lon="6.76984">
        <ele>315</ele>
        <time>2015-11-11T10:56:57.000Z</time>
      </trkpt>
      <trkpt lat="47.48464" lon="6.76989">
        <ele>315</ele>
        <time>2015-11-11T10:56:58.000Z</time>
      </trkpt>
      <trkpt lat="47.4847" lon="6.76991">
        <ele>315</ele>
        <time>2015-11-11T10:56:59.000Z</time>
      </trkpt>
      <trkpt lat="47.48474" lon="6.76993">
        <ele>315</ele>
        <time>2015-11-11T10:57:00.000Z</time>
      </trkpt>
      <trkpt lat="47.48481" lon="6.76998">
        <ele>315</ele>
        <time>2015-11-11T10:57:01.000Z</time>
      </trkpt>
      <trkpt lat="47.48488" lon="6.77001">
        <ele>315</ele>
        <time>2015-11-11T10:57:02.000Z</time>
      </trkpt>
      <trkpt lat="47.48494" lon="6.77006">
        <ele>315</ele>
        <time>2015-11-11T10:57:03.000Z</time>
      </trkpt>
      <trkpt lat="47.48498" lon="6.77011">
        <ele>315</ele>
        <time>2015-11-11T10:57:04.000Z</time>
      </trkpt>
      <trkpt lat="47.48503" lon="6.77013">
        <ele>315</ele>
        <time>2015-11-11T10:57:05.000Z</time>
      </trkpt>
      <trkpt lat="47.48509" lon="6.77018">
        <ele>315</ele>
        <time>2015-11-11T10:57:06.000Z</time>
      </trkpt>
      <trkpt lat="47.48514" lon="6.77023">
        <ele>315</ele>
        <time>2015-11-11T10:57:07.000Z</time>
      </trkpt>
      <trkpt lat="47.4852" lon="6.77028">
        <ele>314</ele>
        <time>2015-11-11T10:57:08.000Z</time>
      </trkpt>
      <trkpt lat="47.48525" lon="6.77033">
        <ele>314</ele>
        <time>2015-11-11T10:57:09.000Z</time>
      </trkpt>
      <trkpt lat="47.48531" lon="6.77036">
        <ele>314</ele>
        <time>2015-11-11T10:57:10.000Z</time>
      </trkpt>
      <trkpt lat="47.48537" lon="6.7704">
        <ele>314</ele>
        <time>2015-11-11T10:57:11.000Z</time>
      </trkpt>
      <trkpt lat="47.48543" lon="6.77045">
        <ele>314</ele>
        <time>2015-11-11T10:57:12.000Z</time>
      </trkpt>
      <trkpt lat="47.48549" lon="6.77048">
        <ele>314</ele>
        <time>2015-11-11T10:57:13.000Z</time>
      </trkpt>
      <trkpt lat="47.48554" lon="6.77048">
        <ele>314</ele>
        <time>2015-11-11T10:57:14.000Z</time>
      </trkpt>
      <trkpt lat="47.48559" lon="6.77051">
        <ele>314</ele>
        <time>2015-11-11T10:57:15.000Z</time>
      </trkpt>
      <trkpt lat="47.48562" lon="6.7705">
        <ele>314</ele>
        <time>2015-11-11T10:57:16.000Z</time>
      </trkpt>
      <trkpt lat="47.48569" lon="6.77054">
        <ele>314</ele>
        <time>2015-11-11T10:57:17.000Z</time>
      </trkpt>
      <trkpt lat="47.48573" lon="6.77058">
        <ele>314</ele>
        <time>2015-11-11T10:57:18.000Z</time>
      </trkpt>
      <trkpt lat="47.48578" lon="6.77061">
        <ele>314</ele>
        <time>2015-11-11T10:57:19.000Z</time>
      </trkpt>
      <trkpt lat="47.48585" lon="6.77064">
        <ele>313</ele>
        <time>2015-11-11T10:57:20.000Z</time>
      </trkpt>
      <trkpt lat="47.48591" lon="6.77066">
        <ele>313</ele>
        <time>2015-11-11T10:57:21.000Z</time>
      </trkpt>
      <trkpt lat="47.48597" lon="6.77069">
        <ele>313</ele>
        <time>2015-11-11T10:57:22.000Z</time>
      </trkpt>
      <trkpt lat="47.48604" lon="6.77073">
        <ele>313</ele>
        <time>2015-11-11T10:57:23.000Z</time>
      </trkpt>
      <trkpt lat="47.48607" lon="6.77076">
        <ele>313</ele>
        <time>2015-11-11T10:57:24.000Z</time>
      </trkpt>
      <trkpt lat="47.48613" lon="6.7708">
        <ele>313</ele>
        <time>2015-11-11T10:57:25.000Z</time>
      </trkpt>
      <trkpt lat="47.48619" lon="6.77083">
        <ele>313</ele>
        <time>2015-11-11T10:57:26.000Z</time>
      </trkpt>
      <trkpt lat="47.48624" lon="6.77087">
        <ele>312</ele>
        <time>2015-11-11T10:57:27.000Z</time>
      </trkpt>
      <trkpt lat="47.4863" lon="6.77089">
        <ele>312</ele>
        <time>2015-11-11T10:57:28.000Z</time>
      </trkpt>
      <trkpt lat="47.48634" lon="6.77095">
        <ele>312</ele>
        <time>2015-11-11T10:57:29.000Z</time>
      </trkpt>
      <trkpt lat="47.48639" lon="6.77101">
        <ele>312</ele>
        <time>2015-11-11T10:57:30.000Z</time>
      </trkpt>
      <trkpt lat="47.48645" lon="6.77107">
        <ele>312</ele>
        <time>2015-11-11T10:57:31.000Z</time>
      </trkpt>
      <trkpt lat="47.4865" lon="6.77112">
        <ele>312</ele>
        <time>2015-11-11T10:57:32.000Z</time>
      </trkpt>
      <trkpt lat="47.48656" lon="6.77117">
        <ele>312</ele>
        <time>2015-11-11T10:57:33.000Z</time>
      </trkpt>
      <trkpt lat="47.48659" lon="6.77123">
        <ele>312</ele>
        <time>2015-11-11T10:57:34.000Z</time>
      </trkpt>
      <trkpt lat="47.48664" lon="6.7713">
        <ele>312</ele>
        <time>2015-11-11T10:57:35.000Z</time>
      </trkpt>
      <trkpt lat="47.4867" lon="6.77135">
        <ele>312</ele>
        <time>2015-11-11T10:57:36.000Z</time>
      </trkpt>
      <trkpt lat="47.48675" lon="6.77141">
        <ele>311</ele>
        <time>2015-11-11T10:57:37.000Z</time>
      </trkpt>
      <trkpt lat="47.4868" lon="6.77147">
        <ele>311</ele>
        <time>2015-11-11T10:57:38.000Z</time>
      </trkpt>
      <trkpt lat="47.48685" lon="6.77154">
        <ele>311</ele>
        <time>2015-11-11T10:57:39.001Z</time>
      </trkpt>
      <trkpt lat="47.48689" lon="6.77159">
        <ele>311</ele>
        <time>2015-11-11T10:57:40.000Z</time>
      </trkpt>
      <trkpt lat="47.48695" lon="6.77164">
        <ele>311</ele>
        <time>2015-11-11T10:57:41.000Z</time>
      </trkpt>
      <trkpt lat="47.487" lon="6.77168">
        <ele>311</ele>
        <time>2015-11-11T10:57:42.000Z</time>
      </trkpt>
      <trkpt lat="47.48706" lon="6.77171">
        <ele>311</ele>
        <time>2015-11-11T10:57:43.000Z</time>
      </trkpt>
      <trkpt lat="47.48712" lon="6.77175">
        <ele>311</ele>
        <time>2015-11-11T10:57:44.000Z</time>
      </trkpt>
      <trkpt lat="47.48717" lon="6.7718">
        <ele>310</ele>
        <time>2015-11-11T10:57:45.000Z</time>
      </trkpt>
      <trkpt lat="47.48723" lon="6.77184">
        <ele>310</ele>
        <time>2015-11-11T10:57:46.000Z</time>
      </trkpt>
      <trkpt lat="47.48729" lon="6.77188">
        <ele>310</ele>
        <time>2015-11-11T10:57:47.000Z</time>
      </trkpt>
      <trkpt lat="47.48735" lon="6.77191">
        <ele>310</ele>
        <time>2015-11-11T10:57:48.000Z</time>
      </trkpt>
      <trkpt lat="47.4874" lon="6.77196">
        <ele>310</ele>
        <time>2015-11-11T10:57:49.000Z</time>
      </trkpt>
      <trkpt lat="47.48747" lon="6.772">
        <ele>310</ele>
        <time>2015-11-11T10:57:50.000Z</time>
      </trkpt>
      <trkpt lat="47.48752" lon="6.77206">
        <ele>310</ele>
        <time>2015-11-11T10:57:51.000Z</time>
      </trkpt>
      <trkpt lat="47.48758" lon="6.77209">
        <ele>310</ele>
        <time>2015-11-11T10:57:52.000Z</time>
      </trkpt>
      <trkpt lat="47.48763" lon="6.77214">
        <ele>310</ele>
        <time>2015-11-11T10:57:53.000Z</time>
      </trkpt>
      <trkpt lat="47.48768" lon="6.77218">
        <ele>310</ele>
        <time>2015-11-11T10:57:54.000Z</time>
      </trkpt>
      <trkpt lat="47.48774" lon="6.77223">
        <ele>310</ele>
        <time>2015-11-11T10:57:55.000Z</time>
      </trkpt>
      <trkpt lat="47.4878" lon="6.77227">
        <ele>310</ele>
        <time>2015-11-11T10:57:56.000Z</time>
      </trkpt>
      <trkpt lat="47.48786" lon="6.77231">
        <ele>310</ele>
        <time>2015-11-11T10:57:57.000Z</time>
      </trkpt>
      <trkpt lat="47.48792" lon="6.77235">
        <ele>310</ele>
        <time>2015-11-11T10:57:58.000Z</time>
      </trkpt>
      <trkpt lat="47.48798" lon="6.77239">
        <ele>310</ele>
        <time>2015-11-11T10:57:59.000Z</time>
      </trkpt>
      <trkpt lat="47.48803" lon="6.77245">
        <ele>310</ele>
        <time>2015-11-11T10:58:00.000Z</time>
      </trkpt>
      <trkpt lat="47.48809" lon="6.7725">
        <ele>311</ele>
        <time>2015-11-11T10:58:01.000Z</time>
      </trkpt>
      <trkpt lat="47.48815" lon="6.77253">
        <ele>310</ele>
        <time>2015-11-11T10:58:02.000Z</time>
      </trkpt>
      <trkpt lat="47.48821" lon="6.77257">
        <ele>310</ele>
        <time>2015-11-11T10:58:03.000Z</time>
      </trkpt>
      <trkpt lat="47.48827" lon="6.7726">
        <ele>310</ele>
        <time>2015-11-11T10:58:04.000Z</time>
      </trkpt>
      <trkpt lat="47.48833" lon="6.77265">
        <ele>310</ele>
        <time>2015-11-11T10:58:05.000Z</time>
      </trkpt>
      <trkpt lat="47.48839" lon="6.77268">
        <ele>310</ele>
        <time>2015-11-11T10:58:06.000Z</time>
      </trkpt>
      <trkpt lat="47.48846" lon="6.77273">
        <ele>310</ele>
        <time>2015-11-11T10:58:07.000Z</time>
      </trkpt>
      <trkpt lat="47.4885" lon="6.77276">
        <ele>310</ele>
        <time>2015-11-11T10:58:08.000Z</time>
      </trkpt>
      <trkpt lat="47.48856" lon="6.7728">
        <ele>310</ele>
        <time>2015-11-11T10:58:09.000Z</time>
      </trkpt>
      <trkpt lat="47.48862" lon="6.77282">
        <ele>310</ele>
        <time>2015-11-11T10:58:10.000Z</time>
      </trkpt>
      <trkpt lat="47.48868" lon="6.77286">
        <ele>310</ele>
        <time>2015-11-11T10:58:11.000Z</time>
      </trkpt>
      <trkpt lat="47.48874" lon="6.77289">
        <ele>310</ele>
        <time>2015-11-11T10:58:12.000Z</time>
      </trkpt>
      <trkpt lat="47.4888" lon="6.77291">
        <ele>310</ele>
        <time>2015-11-11T10:58:13.000Z</time>
      </trkpt>
      <trkpt lat="47.48886" lon="6.77294">
        <ele>310</ele>
        <time>2015-11-11T10:58:14.000Z</time>
      </trkpt>
      <trkpt lat="47.48893" lon="6.77297">
        <ele>310</ele>
        <time>2015-11-11T10:58:15.000Z</time>
      </trkpt>
      <trkpt lat="47.489" lon="6.77298">
        <ele>310</ele>
        <time>2015-11-11T10:58:16.000Z</time>
      </trkpt>
      <trkpt lat="47.48906" lon="6.773">
        <ele>310</ele>
        <time>2015-11-11T10:58:17.000Z</time>
      </trkpt>
      <trkpt lat="47.48912" lon="6.77302">
        <ele>310</ele>
        <time>2015-11-11T10:58:18.000Z</time>
      </trkpt>
      <trkpt lat="47.48918" lon="6.77305">
        <ele>311</ele>
        <time>2015-11-11T10:58:19.000Z</time>
      </trkpt>
      <trkpt lat="47.48924" lon="6.77308">
        <ele>311</ele>
        <time>2015-11-11T10:58:20.000Z</time>
      </trkpt>
      <trkpt lat="47.4893" lon="6.77311">
        <ele>311</ele>
        <time>2015-11-11T10:58:21.000Z</time>
      </trkpt>
      <trkpt lat="47.48937" lon="6.77311">
        <ele>311</ele>
        <time>2015-11-11T10:58:22.000Z</time>
      </trkpt>
      <trkpt lat="47.48943" lon="6.77314">
        <ele>311</ele>
        <time>2015-11-11T10:58:23.000Z</time>
      </trkpt>
      <trkpt lat="47.48949" lon="6.77317">
        <ele>311</ele>
        <time>2015-11-11T10:58:24.000Z</time>
      </trkpt>
      <trkpt lat="47.48955" lon="6.77319">
        <ele>311</ele>
        <time>2015-11-11T10:58:25.000Z</time>
      </trkpt>
      <trkpt lat="47.48961" lon="6.77321">
        <ele>311</ele>
        <time>2015-11-11T10:58:26.000Z</time>
      </trkpt>
      <trkpt lat="47.48967" lon="6.77322">
        <ele>311</ele>
        <time>2015-11-11T10:58:27.000Z</time>
      </trkpt>
      <trkpt lat="47.48973" lon="6.77323">
        <ele>311</ele>
        <time>2015-11-11T10:58:28.000Z</time>
      </trkpt>
      <trkpt lat="47.4898" lon="6.77324">
        <ele>311</ele>
        <time>2015-11-11T10:58:29.000Z</time>
      </trkpt>
      <trkpt lat="47.48986" lon="6.77324">
        <ele>311</ele>
        <time>2015-11-11T10:58:30.000Z</time>
      </trkpt>
      <trkpt lat="47.48992" lon="6.77324">
        <ele>311</ele>
        <time>2015-11-11T10:58:31.000Z</time>
      </trkpt>
      <trkpt lat="47.48998" lon="6.77324">
        <ele>311</ele>
        <time>2015-11-11T10:58:32.000Z</time>
      </trkpt>
      <trkpt lat="47.49004" lon="6.77324">
        <ele>311</ele>
        <time>2015-11-11T10:58:33.000Z</time>
      </trkpt>
      <trkpt lat="47.49011" lon="6.77325">
        <ele>311</ele>
        <time>2015-11-11T10:58:34.000Z</time>
      </trkpt>
      <trkpt lat="47.49017" lon="6.77327">
        <ele>311</ele>
        <time>2015-11-11T10:58:35.000Z</time>
      </trkpt>
      <trkpt lat="47.49022" lon="6.77327">
        <ele>311</ele>
        <time>2015-11-11T10:58:36.000Z</time>
      </trkpt>
      <trkpt lat="47.49029" lon="6.77327">
        <ele>311</ele>
        <time>2015-11-11T10:58:37.000Z</time>
      </trkpt>
      <trkpt lat="47.49033" lon="6.77328">
        <ele>311</ele>
        <time>2015-11-11T10:58:38.000Z</time>
      </trkpt>
      <trkpt lat="47.49038" lon="6.77328">
        <ele>311</ele>
        <time>2015-11-11T10:58:38.998Z</time>
      </trkpt>
      <trkpt lat="47.49043" lon="6.77327">
        <ele>311</ele>
        <time>2015-11-11T10:58:40.000Z</time>
      </trkpt>
      <trkpt lat="47.49049" lon="6.77327">
        <ele>311</ele>
        <time>2015-11-11T10:58:41.000Z</time>
      </trkpt>
      <trkpt lat="47.49055" lon="6.77327">
        <ele>311</ele>
        <time>2015-11-11T10:58:41.999Z</time>
      </trkpt>
      <trkpt lat="47.49062" lon="6.77327">
        <ele>311</ele>
        <time>2015-11-11T10:58:43.000Z</time>
      </trkpt>
      <trkpt lat="47.49068" lon="6.77328">
        <ele>311</ele>
        <time>2015-11-11T10:58:44.000Z</time>
      </trkpt>
      <trkpt lat="47.49074" lon="6.77328">
        <ele>311</ele>
        <time>2015-11-11T10:58:45.000Z</time>
      </trkpt>
      <trkpt lat="47.4908" lon="6.77328">
        <ele>311</ele>
        <time>2015-11-11T10:58:46.000Z</time>
      </trkpt>
      <trkpt lat="47.49085" lon="6.77329">
        <ele>311</ele>
        <time>2015-11-11T10:58:47.000Z</time>
      </trkpt>
      <trkpt lat="47.49092" lon="6.7733">
        <ele>311</ele>
        <time>2015-11-11T10:58:48.000Z</time>
      </trkpt>
      <trkpt lat="47.49098" lon="6.7733">
        <ele>311</ele>
        <time>2015-11-11T10:58:49.000Z</time>
      </trkpt>
      <trkpt lat="47.49105" lon="6.77331">
        <ele>311</ele>
        <time>2015-11-11T10:58:50.000Z</time>
      </trkpt>
      <trkpt lat="47.49112" lon="6.77332">
        <ele>311</ele>
        <time>2015-11-11T10:58:51.000Z</time>
      </trkpt>
      <trkpt lat="47.49117" lon="6.77333">
        <ele>311</ele>
        <time>2015-11-11T10:58:52.000Z</time>
      </trkpt>
      <trkpt lat="47.49123" lon="6.77333">
        <ele>311</ele>
        <time>2015-11-11T10:58:53.000Z</time>
      </trkpt>
      <trkpt lat="47.4913" lon="6.77333">
        <ele>311</ele>
        <time>2015-11-11T10:58:54.000Z</time>
      </trkpt>
      <trkpt lat="47.49137" lon="6.77333">
        <ele>311</ele>
        <time>2015-11-11T10:58:55.000Z</time>
      </trkpt>
      <trkpt lat="47.49143" lon="6.77333">
        <ele>311</ele>
        <time>2015-11-11T10:58:56.000Z</time>
      </trkpt>
      <trkpt lat="47.49149" lon="6.77334">
        <ele>310</ele>
        <time>2015-11-11T10:58:57.000Z</time>
      </trkpt>
      <trkpt lat="47.49155" lon="6.77334">
        <ele>310</ele>
        <time>2015-11-11T10:58:58.000Z</time>
      </trkpt>
      <trkpt lat="47.49161" lon="6.77334">
        <ele>310</ele>
        <time>2015-11-11T10:58:59.000Z</time>
      </trkpt>
      <trkpt lat="47.49167" lon="6.77335">
        <ele>310</ele>
        <time>2015-11-11T10:59:00.000Z</time>
      </trkpt>
      <trkpt lat="47.49172" lon="6.77335">
        <ele>310</ele>
        <time>2015-11-11T10:59:00.999Z</time>
      </trkpt>
      <trkpt lat="47.49178" lon="6.77337">
        <ele>310</ele>
        <time>2015-11-11T10:59:02.000Z</time>
      </trkpt>
      <trkpt lat="47.49184" lon="6.77337">
        <ele>310</ele>
        <time>2015-11-11T10:59:03.000Z</time>
      </trkpt>
      <trkpt lat="47.49186" lon="6.77336">
        <ele>310</ele>
        <time>2015-11-11T10:59:04.000Z</time>
      </trkpt>
      <trkpt lat="47.49188" lon="6.77334">
        <ele>309</ele>
        <time>2015-11-11T10:59:05.000Z</time>
      </trkpt>
      <trkpt lat="47.49184" lon="6.77331">
        <ele>310</ele>
        <time>2015-11-11T10:59:18.000Z</time>
      </trkpt>
      <trkpt lat="47.49183" lon="6.77331">
        <ele>310</ele>
        <time>2015-11-11T10:59:19.000Z</time>
      </trkpt>
      <trkpt lat="47.49188" lon="6.77332">
        <ele>310</ele>
        <time>2015-11-11T11:00:54.000Z</time>
      </trkpt>
      <trkpt lat="47.49188" lon="6.77333">
        <ele>310</ele>
        <time>2015-11-11T11:00:55.000Z</time>
      </trkpt>
      <trkpt lat="47.49191" lon="6.77337">
        <ele>309</ele>
        <time>2015-11-11T11:01:26.000Z</time>
      </trkpt>
      <trkpt lat="47.49192" lon="6.77337">
        <ele>309</ele>
        <time>2015-11-11T11:01:27.000Z</time>
      </trkpt>
      <trkpt lat="47.49195" lon="6.77336">
        <ele>309</ele>
        <time>2015-11-11T11:01:30.000Z</time>
      </trkpt>
      <trkpt lat="47.49196" lon="6.77334">
        <ele>309</ele>
        <time>2015-11-11T11:01:31.000Z</time>
      </trkpt>
      <trkpt lat="47.49195" lon="6.77329">
        <ele>310</ele>
        <time>2015-11-11T11:01:33.000Z</time>
      </trkpt>
      <trkpt lat="47.49194" lon="6.77327">
        <ele>310</ele>
        <time>2015-11-11T11:01:34.000Z</time>
      </trkpt>
      <trkpt lat="47.49192" lon="6.77324">
        <ele>310</ele>
        <time>2015-11-11T11:01:35.000Z</time>
      </trkpt>
      <trkpt lat="47.49189" lon="6.77321">
        <ele>310</ele>
        <time>2015-11-11T11:01:36.000Z</time>
      </trkpt>
      <trkpt lat="47.49187" lon="6.77317">
        <ele>311</ele>
        <time>2015-11-11T11:01:37.000Z</time>
      </trkpt>
      <trkpt lat="47.49186" lon="6.77312">
        <ele>311</ele>
        <time>2015-11-11T11:01:38.000Z</time>
      </trkpt>
      <trkpt lat="47.49185" lon="6.77306">
        <ele>311</ele>
        <time>2015-11-11T11:01:39.000Z</time>
      </trkpt>
      <trkpt lat="47.49185" lon="6.77301">
        <ele>311</ele>
        <time>2015-11-11T11:01:40.000Z</time>
      </trkpt>
      <trkpt lat="47.49186" lon="6.77295">
        <ele>311</ele>
        <time>2015-11-11T11:01:41.000Z</time>
      </trkpt>
      <trkpt lat="47.49186" lon="6.7729">
        <ele>311</ele>
        <time>2015-11-11T11:01:42.000Z</time>
      </trkpt>
      <trkpt lat="47.49187" lon="6.77283">
        <ele>311</ele>
        <time>2015-11-11T11:01:43.000Z</time>
      </trkpt>
      <trkpt lat="47.49187" lon="6.77277">
        <ele>311</ele>
        <time>2015-11-11T11:01:44.000Z</time>
      </trkpt>
      <trkpt lat="47.49188" lon="6.77271">
        <ele>311</ele>
        <time>2015-11-11T11:01:45.000Z</time>
      </trkpt>
      <trkpt lat="47.49188" lon="6.77264">
        <ele>311</ele>
        <time>2015-11-11T11:01:46.000Z</time>
      </trkpt>
      <trkpt lat="47.49189" lon="6.77258">
        <ele>311</ele>
        <time>2015-11-11T11:01:47.000Z</time>
      </trkpt>
      <trkpt lat="47.49189" lon="6.77252">
        <ele>311</ele>
        <time>2015-11-11T11:01:48.000Z</time>
      </trkpt>
      <trkpt lat="47.4919" lon="6.77246">
        <ele>312</ele>
        <time>2015-11-11T11:01:49.000Z</time>
      </trkpt>
      <trkpt lat="47.4919" lon="6.7724">
        <ele>312</ele>
        <time>2015-11-11T11:01:50.000Z</time>
      </trkpt>
      <trkpt lat="47.4919" lon="6.77235">
        <ele>312</ele>
        <time>2015-11-11T11:01:51.000Z</time>
      </trkpt>
      <trkpt lat="47.4919" lon="6.77229">
        <ele>312</ele>
        <time>2015-11-11T11:01:52.000Z</time>
      </trkpt>
      <trkpt lat="47.4919" lon="6.77223">
        <ele>312</ele>
        <time>2015-11-11T11:01:53.000Z</time>
      </trkpt>
      <trkpt lat="47.4919" lon="6.77217">
        <ele>312</ele>
        <time>2015-11-11T11:01:54.000Z</time>
      </trkpt>
      <trkpt lat="47.4919" lon="6.77212">
        <ele>312</ele>
        <time>2015-11-11T11:01:55.000Z</time>
      </trkpt>
      <trkpt lat="47.4919" lon="6.77207">
        <ele>312</ele>
        <time>2015-11-11T11:01:56.000Z</time>
      </trkpt>
      <trkpt lat="47.49189" lon="6.77201">
        <ele>312</ele>
        <time>2015-11-11T11:01:57.000Z</time>
      </trkpt>
      <trkpt lat="47.49189" lon="6.77194">
        <ele>312</ele>
        <time>2015-11-11T11:01:58.000Z</time>
      </trkpt>
      <trkpt lat="47.49189" lon="6.77188">
        <ele>312</ele>
        <time>2015-11-11T11:01:59.000Z</time>
      </trkpt>
      <trkpt lat="47.49189" lon="6.77182">
        <ele>313</ele>
        <time>2015-11-11T11:02:00.000Z</time>
      </trkpt>
      <trkpt lat="47.4919" lon="6.77175">
        <ele>313</ele>
        <time>2015-11-11T11:02:01.000Z</time>
      </trkpt>
      <trkpt lat="47.49189" lon="6.77168">
        <ele>313</ele>
        <time>2015-11-11T11:02:02.000Z</time>
      </trkpt>
      <trkpt lat="47.49188" lon="6.77161">
        <ele>313</ele>
        <time>2015-11-11T11:02:03.000Z</time>
      </trkpt>
      <trkpt lat="47.49188" lon="6.77157">
        <ele>313</ele>
        <time>2015-11-11T11:02:04.000Z</time>
      </trkpt>
      <trkpt lat="47.49188" lon="6.77151">
        <ele>313</ele>
        <time>2015-11-11T11:02:05.000Z</time>
      </trkpt>
      <trkpt lat="47.49188" lon="6.77145">
        <ele>313</ele>
        <time>2015-11-11T11:02:06.000Z</time>
      </trkpt>
      <trkpt lat="47.49188" lon="6.77141">
        <ele>313</ele>
        <time>2015-11-11T11:02:07.000Z</time>
      </trkpt>
      <trkpt lat="47.49189" lon="6.77138">
        <ele>313</ele>
        <time>2015-11-11T11:02:08.000Z</time>
      </trkpt>
      <trkpt lat="47.49189" lon="6.77133">
        <ele>313</ele>
        <time>2015-11-11T11:02:21.000Z</time>
      </trkpt>
      <trkpt lat="47.49189" lon="6.77131">
        <ele>313</ele>
        <time>2015-11-11T11:02:22.000Z</time>
      </trkpt>
      <trkpt lat="47.49188" lon="6.77128">
        <ele>313</ele>
        <time>2015-11-11T11:02:23.000Z</time>
      </trkpt>
      <trkpt lat="47.49187" lon="6.77125">
        <ele>313</ele>
        <time>2015-11-11T11:02:24.000Z</time>
      </trkpt>
      <trkpt lat="47.49185" lon="6.77121">
        <ele>313</ele>
        <time>2015-11-11T11:02:25.000Z</time>
      </trkpt>
      <trkpt lat="47.49183" lon="6.77116">
        <ele>313</ele>
        <time>2015-11-11T11:02:26.000Z</time>
      </trkpt>
      <trkpt lat="47.49181" lon="6.77111">
        <ele>313</ele>
        <time>2015-11-11T11:02:27.000Z</time>
      </trkpt>
      <trkpt lat="47.49179" lon="6.77105">
        <ele>313</ele>
        <time>2015-11-11T11:02:28.000Z</time>
      </trkpt>
      <trkpt lat="47.49177" lon="6.771">
        <ele>312</ele>
        <time>2015-11-11T11:02:29.000Z</time>
      </trkpt>
      <trkpt lat="47.4917" lon="6.77095">
        <ele>312</ele>
        <time>2015-11-11T11:02:30.000Z</time>
      </trkpt>
      <trkpt lat="47.49167" lon="6.77091">
        <ele>312</ele>
        <time>2015-11-11T11:02:31.000Z</time>
      </trkpt>
      <trkpt lat="47.49165" lon="6.77085">
        <ele>312</ele>
        <time>2015-11-11T11:02:32.000Z</time>
      </trkpt>
      <trkpt lat="47.49166" lon="6.7708">
        <ele>312</ele>
        <time>2015-11-11T11:02:33.000Z</time>
      </trkpt>
      <trkpt lat="47.49165" lon="6.77073">
        <ele>312</ele>
        <time>2015-11-11T11:02:34.000Z</time>
      </trkpt>
      <trkpt lat="47.49165" lon="6.77067">
        <ele>312</ele>
        <time>2015-11-11T11:02:35.000Z</time>
      </trkpt>
      <trkpt lat="47.49166" lon="6.7706">
        <ele>312</ele>
        <time>2015-11-11T11:02:36.000Z</time>
      </trkpt>
      <trkpt lat="47.49166" lon="6.77053">
        <ele>312</ele>
        <time>2015-11-11T11:02:37.000Z</time>
      </trkpt>
      <trkpt lat="47.49167" lon="6.77045">
        <ele>313</ele>
        <time>2015-11-11T11:02:38.000Z</time>
      </trkpt>
      <trkpt lat="47.49167" lon="6.77037">
        <ele>313</ele>
        <time>2015-11-11T11:02:39.000Z</time>
      </trkpt>
      <trkpt lat="47.49167" lon="6.77031">
        <ele>313</ele>
        <time>2015-11-11T11:02:40.000Z</time>
      </trkpt>
      <trkpt lat="47.49167" lon="6.77026">
        <ele>313</ele>
        <time>2015-11-11T11:02:41.000Z</time>
      </trkpt>
      <trkpt lat="47.49167" lon="6.7702">
        <ele>313</ele>
        <time>2015-11-11T11:02:42.000Z</time>
      </trkpt>
      <trkpt lat="47.49166" lon="6.77015">
        <ele>312</ele>
        <time>2015-11-11T11:02:43.000Z</time>
      </trkpt>
      <trkpt lat="47.49164" lon="6.77011">
        <ele>312</ele>
        <time>2015-11-11T11:02:44.000Z</time>
      </trkpt>
      <trkpt lat="47.49156" lon="6.77005">
        <ele>312</ele>
        <time>2015-11-11T11:02:45.000Z</time>
      </trkpt>
      <trkpt lat="47.49155" lon="6.76999">
        <ele>312</ele>
        <time>2015-11-11T11:02:46.000Z</time>
      </trkpt>
      <trkpt lat="47.49152" lon="6.76991">
        <ele>312</ele>
        <time>2015-11-11T11:02:47.000Z</time>
      </trkpt>
      <trkpt lat="47.49152" lon="6.76983">
        <ele>312</ele>
        <time>2015-11-11T11:02:48.000Z</time>
      </trkpt>
      <trkpt lat="47.4915" lon="6.76977">
        <ele>312</ele>
        <time>2015-11-11T11:02:49.000Z</time>
      </trkpt>
      <trkpt lat="47.4915" lon="6.76973">
        <ele>312</ele>
        <time>2015-11-11T11:02:50.000Z</time>
      </trkpt>
      <trkpt lat="47.49152" lon="6.76968">
        <ele>312</ele>
        <time>2015-11-11T11:02:51.000Z</time>
      </trkpt>
      <trkpt lat="47.49152" lon="6.76965">
        <ele>312</ele>
        <time>2015-11-11T11:02:52.000Z</time>
      </trkpt>
      <trkpt lat="47.49152" lon="6.76958">
        <ele>312</ele>
        <time>2015-11-11T11:02:53.000Z</time>
      </trkpt>
      <trkpt lat="47.49155" lon="6.76952">
        <ele>312</ele>
        <time>2015-11-11T11:02:54.000Z</time>
      </trkpt>
      <trkpt lat="47.49156" lon="6.76945">
        <ele>312</ele>
        <time>2015-11-11T11:02:55.000Z</time>
      </trkpt>
      <trkpt lat="47.49156" lon="6.7694">
        <ele>312</ele>
        <time>2015-11-11T11:02:56.000Z</time>
      </trkpt>
      <trkpt lat="47.49157" lon="6.76936">
        <ele>312</ele>
        <time>2015-11-11T11:02:57.000Z</time>
      </trkpt>
      <trkpt lat="47.49158" lon="6.76931">
        <ele>312</ele>
        <time>2015-11-11T11:02:58.000Z</time>
      </trkpt>
      <trkpt lat="47.49159" lon="6.76926">
        <ele>313</ele>
        <time>2015-11-11T11:02:59.000Z</time>
      </trkpt>
      <trkpt lat="47.49159" lon="6.76921">
        <ele>313</ele>
        <time>2015-11-11T11:03:00.000Z</time>
      </trkpt>
      <trkpt lat="47.4916" lon="6.76916">
        <ele>313</ele>
        <time>2015-11-11T11:03:01.000Z</time>
      </trkpt>
      <trkpt lat="47.4916" lon="6.76909">
        <ele>313</ele>
        <time>2015-11-11T11:03:02.000Z</time>
      </trkpt>
      <trkpt lat="47.4916" lon="6.76902">
        <ele>313</ele>
        <time>2015-11-11T11:03:03.000Z</time>
      </trkpt>
      <trkpt lat="47.49155" lon="6.76884">
        <ele>312</ele>
        <time>2015-11-11T11:03:04.000Z</time>
      </trkpt>
      <trkpt lat="47.49152" lon="6.76873">
        <ele>312</ele>
        <time>2015-11-11T11:03:05.000Z</time>
      </trkpt>
      <trkpt lat="47.49152" lon="6.76868">
        <ele>312</ele>
        <time>2015-11-11T11:03:06.000Z</time>
      </trkpt>
      <trkpt lat="47.49153" lon="6.76861">
        <ele>312</ele>
        <time>2015-11-11T11:03:07.000Z</time>
      </trkpt>
      <trkpt lat="47.49154" lon="6.76853">
        <ele>312</ele>
        <time>2015-11-11T11:03:08.000Z</time>
      </trkpt>
      <trkpt lat="47.49154" lon="6.76845">
        <ele>313</ele>
        <time>2015-11-11T11:03:09.000Z</time>
      </trkpt>
      <trkpt lat="47.49152" lon="6.76837">
        <ele>313</ele>
        <time>2015-11-11T11:03:10.000Z</time>
      </trkpt>
      <trkpt lat="47.49153" lon="6.7683">
        <ele>313</ele>
        <time>2015-11-11T11:03:11.000Z</time>
      </trkpt>
      <trkpt lat="47.49153" lon="6.76824">
        <ele>313</ele>
        <time>2015-11-11T11:03:12.000Z</time>
      </trkpt>
      <trkpt lat="47.49152" lon="6.76817">
        <ele>313</ele>
        <time>2015-11-11T11:03:13.000Z</time>
      </trkpt>
      <trkpt lat="47.49152" lon="6.76812">
        <ele>313</ele>
        <time>2015-11-11T11:03:14.000Z</time>
      </trkpt>
      <trkpt lat="47.49153" lon="6.76803">
        <ele>312</ele>
        <time>2015-11-11T11:03:15.000Z</time>
      </trkpt>
      <trkpt lat="47.49152" lon="6.76795">
        <ele>312</ele>
        <time>2015-11-11T11:03:16.000Z</time>
      </trkpt>
      <trkpt lat="47.49153" lon="6.76789">
        <ele>312</ele>
        <time>2015-11-11T11:03:17.000Z</time>
      </trkpt>
      <trkpt lat="47.49152" lon="6.76784">
        <ele>312</ele>
        <time>2015-11-11T11:03:18.000Z</time>
      </trkpt>
      <trkpt lat="47.49152" lon="6.76778">
        <ele>313</ele>
        <time>2015-11-11T11:03:19.000Z</time>
      </trkpt>
      <trkpt lat="47.49152" lon="6.76772">
        <ele>313</ele>
        <time>2015-11-11T11:03:20.000Z</time>
      </trkpt>
      <trkpt lat="47.49152" lon="6.76767">
        <ele>313</ele>
        <time>2015-11-11T11:03:21.000Z</time>
      </trkpt>
      <trkpt lat="47.49151" lon="6.7676">
        <ele>313</ele>
        <time>2015-11-11T11:03:22.000Z</time>
      </trkpt>
      <trkpt lat="47.49152" lon="6.76758">
        <ele>313</ele>
        <time>2015-11-11T11:03:23.000Z</time>
      </trkpt>
      <trkpt lat="47.49152" lon="6.76753">
        <ele>313</ele>
        <time>2015-11-11T11:03:24.000Z</time>
      </trkpt>
      <trkpt lat="47.49153" lon="6.76749">
        <ele>313</ele>
        <time>2015-11-11T11:03:25.000Z</time>
      </trkpt>
      <trkpt lat="47.49153" lon="6.76744">
        <ele>313</ele>
        <time>2015-11-11T11:03:26.000Z</time>
      </trkpt>
      <trkpt lat="47.49153" lon="6.76738">
        <ele>313</ele>
        <time>2015-11-11T11:03:27.000Z</time>
      </trkpt>
      <trkpt lat="47.49152" lon="6.76733">
        <ele>313</ele>
        <time>2015-11-11T11:03:28.000Z</time>
      </trkpt>
      <trkpt lat="47.49152" lon="6.76727">
        <ele>313</ele>
        <time>2015-11-11T11:03:29.000Z</time>
      </trkpt>
      <trkpt lat="47.49151" lon="6.76721">
        <ele>313</ele>
        <time>2015-11-11T11:03:30.000Z</time>
      </trkpt>
      <trkpt lat="47.4915" lon="6.76714">
        <ele>313</ele>
        <time>2015-11-11T11:03:31.000Z</time>
      </trkpt>
      <trkpt lat="47.49148" lon="6.76709">
        <ele>313</ele>
        <time>2015-11-11T11:03:32.000Z</time>
      </trkpt>
      <trkpt lat="47.49144" lon="6.76703">
        <ele>313</ele>
        <time>2015-11-11T11:03:33.000Z</time>
      </trkpt>
      <trkpt lat="47.49144" lon="6.76697">
        <ele>313</ele>
        <time>2015-11-11T11:03:34.000Z</time>
      </trkpt>
      <trkpt lat="47.49145" lon="6.76693">
        <ele>313</ele>
        <time>2015-11-11T11:03:35.000Z</time>
      </trkpt>
      <trkpt lat="47.49147" lon="6.76692">
        <ele>313</ele>
        <time>2015-11-11T11:03:36.000Z</time>
      </trkpt>
      <trkpt lat="47.49146" lon="6.76683">
        <ele>314</ele>
        <time>2015-11-11T11:03:37.000Z</time>
      </trkpt>
      <trkpt lat="47.49145" lon="6.76675">
        <ele>314</ele>
        <time>2015-11-11T11:03:38.000Z</time>
      </trkpt>
      <trkpt lat="47.49145" lon="6.76667">
        <ele>314</ele>
        <time>2015-11-11T11:03:39.000Z</time>
      </trkpt>
      <trkpt lat="47.49144" lon="6.7666">
        <ele>314</ele>
        <time>2015-11-11T11:03:40.000Z</time>
      </trkpt>
      <trkpt lat="47.49143" lon="6.76654">
        <ele>314</ele>
        <time>2015-11-11T11:03:41.000Z</time>
      </trkpt>
      <trkpt lat="47.49142" lon="6.76647">
        <ele>314</ele>
        <time>2015-11-11T11:03:42.000Z</time>
      </trkpt>
      <trkpt lat="47.4914" lon="6.76638">
        <ele>314</ele>
        <time>2015-11-11T11:03:43.000Z</time>
      </trkpt>
      <trkpt lat="47.49139" lon="6.76631">
        <ele>314</ele>
        <time>2015-11-11T11:03:44.000Z</time>
      </trkpt>
      <trkpt lat="47.49138" lon="6.76624">
        <ele>314</ele>
        <time>2015-11-11T11:03:45.000Z</time>
      </trkpt>
      <trkpt lat="47.49137" lon="6.76619">
        <ele>314</ele>
        <time>2015-11-11T11:03:46.000Z</time>
      </trkpt>
      <trkpt lat="47.49136" lon="6.76612">
        <ele>314</ele>
        <time>2015-11-11T11:03:47.000Z</time>
      </trkpt>
      <trkpt lat="47.49135" lon="6.76604">
        <ele>314</ele>
        <time>2015-11-11T11:03:48.000Z</time>
      </trkpt>
      <trkpt lat="47.49134" lon="6.76598">
        <ele>314</ele>
        <time>2015-11-11T11:03:49.000Z</time>
      </trkpt>
      <trkpt lat="47.49133" lon="6.76589">
        <ele>314</ele>
        <time>2015-11-11T11:03:50.000Z</time>
      </trkpt>
      <trkpt lat="47.49133" lon="6.76581">
        <ele>315</ele>
        <time>2015-11-11T11:03:51.000Z</time>
      </trkpt>
      <trkpt lat="47.49132" lon="6.76574">
        <ele>315</ele>
        <time>2015-11-11T11:03:52.000Z</time>
      </trkpt>
      <trkpt lat="47.49132" lon="6.7657">
        <ele>315</ele>
        <time>2015-11-11T11:03:53.000Z</time>
      </trkpt>
      <trkpt lat="47.49132" lon="6.76563">
        <ele>315</ele>
        <time>2015-11-11T11:03:54.000Z</time>
      </trkpt>
      <trkpt lat="47.49131" lon="6.76557">
        <ele>315</ele>
        <time>2015-11-11T11:03:55.000Z</time>
      </trkpt>
      <trkpt lat="47.4913" lon="6.76551">
        <ele>315</ele>
        <time>2015-11-11T11:03:56.000Z</time>
      </trkpt>
      <trkpt lat="47.4913" lon="6.76545">
        <ele>316</ele>
        <time>2015-11-11T11:03:58.000Z</time>
      </trkpt>
      <trkpt lat="47.4913" lon="6.76539">
        <ele>316</ele>
        <time>2015-11-11T11:03:59.000Z</time>
      </trkpt>
      <trkpt lat="47.49129" lon="6.76532">
        <ele>316</ele>
        <time>2015-11-11T11:04:00.000Z</time>
      </trkpt>
      <trkpt lat="47.49129" lon="6.76527">
        <ele>316</ele>
        <time>2015-11-11T11:04:01.000Z</time>
      </trkpt>
      <trkpt lat="47.49129" lon="6.76521">
        <ele>316</ele>
        <time>2015-11-11T11:04:02.000Z</time>
      </trkpt>
      <trkpt lat="47.49129" lon="6.76515">
        <ele>316</ele>
        <time>2015-11-11T11:04:03.000Z</time>
      </trkpt>
      <trkpt lat="47.49129" lon="6.76509">
        <ele>316</ele>
        <time>2015-11-11T11:04:04.000Z</time>
      </trkpt>
      <trkpt lat="47.49129" lon="6.76503">
        <ele>316</ele>
        <time>2015-11-11T11:04:05.000Z</time>
      </trkpt>
      <trkpt lat="47.49129" lon="6.76496">
        <ele>317</ele>
        <time>2015-11-11T11:04:06.000Z</time>
      </trkpt>
      <trkpt lat="47.49129" lon="6.76488">
        <ele>317</ele>
        <time>2015-11-11T11:04:07.000Z</time>
      </trkpt>
      <trkpt lat="47.49129" lon="6.76482">
        <ele>317</ele>
        <time>2015-11-11T11:04:08.000Z</time>
      </trkpt>
      <trkpt lat="47.49129" lon="6.76476">
        <ele>317</ele>
        <time>2015-11-11T11:04:09.000Z</time>
      </trkpt>
      <trkpt lat="47.49129" lon="6.76469">
        <ele>317</ele>
        <time>2015-11-11T11:04:10.000Z</time>
      </trkpt>
      <trkpt lat="47.49129" lon="6.76463">
        <ele>317</ele>
        <time>2015-11-11T11:04:11.000Z</time>
      </trkpt>
      <trkpt lat="47.49129" lon="6.76457">
        <ele>317</ele>
        <time>2015-11-11T11:04:12.000Z</time>
      </trkpt>
      <trkpt lat="47.4913" lon="6.7645">
        <ele>317</ele>
        <time>2015-11-11T11:04:13.000Z</time>
      </trkpt>
      <trkpt lat="47.4913" lon="6.76444">
        <ele>317</ele>
        <time>2015-11-11T11:04:14.000Z</time>
      </trkpt>
      <trkpt lat="47.4913" lon="6.76437">
        <ele>317</ele>
        <time>2015-11-11T11:04:15.000Z</time>
      </trkpt>
      <trkpt lat="47.4913" lon="6.76431">
        <ele>317</ele>
        <time>2015-11-11T11:04:16.000Z</time>
      </trkpt>
      <trkpt lat="47.4913" lon="6.76425">
        <ele>317</ele>
        <time>2015-11-11T11:04:17.000Z</time>
      </trkpt>
      <trkpt lat="47.4913" lon="6.76419">
        <ele>317</ele>
        <time>2015-11-11T11:04:18.000Z</time>
      </trkpt>
      <trkpt lat="47.49129" lon="6.76413">
        <ele>317</ele>
        <time>2015-11-11T11:04:19.000Z</time>
      </trkpt>
      <trkpt lat="47.49129" lon="6.76409">
        <ele>317</ele>
        <time>2015-11-11T11:04:20.000Z</time>
      </trkpt>
      <trkpt lat="47.49129" lon="6.76404">
        <ele>317</ele>
        <time>2015-11-11T11:04:21.000Z</time>
      </trkpt>
      <trkpt lat="47.49128" lon="6.764">
        <ele>317</ele>
        <time>2015-11-11T11:04:22.000Z</time>
      </trkpt>
      <trkpt lat="47.49128" lon="6.76394">
        <ele>317</ele>
        <time>2015-11-11T11:04:23.000Z</time>
      </trkpt>
      <trkpt lat="47.49127" lon="6.76383">
        <ele>318</ele>
        <time>2015-11-11T11:04:24.000Z</time>
      </trkpt>
      <trkpt lat="47.49126" lon="6.76371">
        <ele>318</ele>
        <time>2015-11-11T11:04:25.000Z</time>
      </trkpt>
      <trkpt lat="47.49123" lon="6.76357">
        <ele>318</ele>
        <time>2015-11-11T11:04:26.000Z</time>
      </trkpt>
      <trkpt lat="47.49121" lon="6.76348">
        <ele>318</ele>
        <time>2015-11-11T11:04:27.000Z</time>
      </trkpt>
      <trkpt lat="47.49119" lon="6.76339">
        <ele>319</ele>
        <time>2015-11-11T11:04:28.000Z</time>
      </trkpt>
      <trkpt lat="47.49121" lon="6.76351">
        <ele>318</ele>
        <time>2015-11-11T11:04:29.000Z</time>
      </trkpt>
      <trkpt lat="47.49123" lon="6.76348">
        <ele>318</ele>
        <time>2015-11-11T11:04:32.000Z</time>
      </trkpt>
      <trkpt lat="47.49122" lon="6.76336">
        <ele>318</ele>
        <time>2015-11-11T11:04:33.000Z</time>
      </trkpt>
      <trkpt lat="47.49122" lon="6.76329">
        <ele>319</ele>
        <time>2015-11-11T11:04:34.000Z</time>
      </trkpt>
      <trkpt lat="47.49125" lon="6.76322">
        <ele>319</ele>
        <time>2015-11-11T11:04:35.000Z</time>
      </trkpt>
      <trkpt lat="47.49126" lon="6.76319">
        <ele>319</ele>
        <time>2015-11-11T11:04:36.000Z</time>
      </trkpt>
      <trkpt lat="47.49127" lon="6.76313">
        <ele>319</ele>
        <time>2015-11-11T11:04:37.000Z</time>
      </trkpt>
      <trkpt lat="47.49127" lon="6.7631">
        <ele>319</ele>
        <time>2015-11-11T11:04:38.001Z</time>
      </trkpt>
      <trkpt lat="47.49127" lon="6.76297">
        <ele>319</ele>
        <time>2015-11-11T11:04:39.000Z</time>
      </trkpt>
      <trkpt lat="47.4913" lon="6.7629">
        <ele>319</ele>
        <time>2015-11-11T11:04:40.000Z</time>
      </trkpt>
      <trkpt lat="47.49131" lon="6.76283">
        <ele>319</ele>
        <time>2015-11-11T11:04:41.000Z</time>
      </trkpt>
      <trkpt lat="47.49132" lon="6.76276">
        <ele>319</ele>
        <time>2015-11-11T11:04:42.000Z</time>
      </trkpt>
      <trkpt lat="47.49132" lon="6.76267">
        <ele>319</ele>
        <time>2015-11-11T11:04:43.000Z</time>
      </trkpt>
      <trkpt lat="47.49133" lon="6.7626">
        <ele>319</ele>
        <time>2015-11-11T11:04:44.000Z</time>
      </trkpt>
      <trkpt lat="47.49133" lon="6.76253">
        <ele>319</ele>
        <time>2015-11-11T11:04:45.000Z</time>
      </trkpt>
      <trkpt lat="47.49133" lon="6.76246">
        <ele>320</ele>
        <time>2015-11-11T11:04:46.000Z</time>
      </trkpt>
      <trkpt lat="47.49133" lon="6.76239">
        <ele>320</ele>
        <time>2015-11-11T11:04:47.000Z</time>
      </trkpt>
      <trkpt lat="47.49132" lon="6.76224">
        <ele>321</ele>
        <time>2015-11-11T11:04:48.000Z</time>
      </trkpt>
      <trkpt lat="47.49133" lon="6.76214">
        <ele>321</ele>
        <time>2015-11-11T11:04:49.000Z</time>
      </trkpt>
      <trkpt lat="47.49133" lon="6.76203">
        <ele>321</ele>
        <time>2015-11-11T11:04:50.000Z</time>
      </trkpt>
      <trkpt lat="47.49134" lon="6.76191">
        <ele>321</ele>
        <time>2015-11-11T11:04:51.000Z</time>
      </trkpt>
      <trkpt lat="47.49136" lon="6.76182">
        <ele>321</ele>
        <time>2015-11-11T11:04:52.000Z</time>
      </trkpt>
      <trkpt lat="47.49138" lon="6.76174">
        <ele>321</ele>
        <time>2015-11-11T11:04:53.000Z</time>
      </trkpt>
      <trkpt lat="47.4914" lon="6.76168">
        <ele>320</ele>
        <time>2015-11-11T11:04:54.000Z</time>
      </trkpt>
      <trkpt lat="47.49138" lon="6.76157">
        <ele>321</ele>
        <time>2015-11-11T11:04:55.000Z</time>
      </trkpt>
      <trkpt lat="47.49138" lon="6.76148">
        <ele>321</ele>
        <time>2015-11-11T11:04:56.000Z</time>
      </trkpt>
      <trkpt lat="47.4914" lon="6.76142">
        <ele>321</ele>
        <time>2015-11-11T11:04:57.000Z</time>
      </trkpt>
      <trkpt lat="47.49142" lon="6.76133">
        <ele>321</ele>
        <time>2015-11-11T11:04:58.000Z</time>
      </trkpt>
      <trkpt lat="47.49143" lon="6.76123">
        <ele>321</ele>
        <time>2015-11-11T11:04:59.000Z</time>
      </trkpt>
      <trkpt lat="47.49145" lon="6.76116">
        <ele>321</ele>
        <time>2015-11-11T11:05:00.000Z</time>
      </trkpt>
      <trkpt lat="47.49147" lon="6.76109">
        <ele>321</ele>
        <time>2015-11-11T11:05:01.000Z</time>
      </trkpt>
      <trkpt lat="47.49149" lon="6.76102">
        <ele>321</ele>
        <time>2015-11-11T11:05:02.000Z</time>
      </trkpt>
      <trkpt lat="47.49151" lon="6.76095">
        <ele>320</ele>
        <time>2015-11-11T11:05:03.000Z</time>
      </trkpt>
      <trkpt lat="47.49153" lon="6.76088">
        <ele>320</ele>
        <time>2015-11-11T11:05:04.000Z</time>
      </trkpt>
      <trkpt lat="47.49154" lon="6.76081">
        <ele>321</ele>
        <time>2015-11-11T11:05:05.000Z</time>
      </trkpt>
      <trkpt lat="47.49154" lon="6.76073">
        <ele>321</ele>
        <time>2015-11-11T11:05:06.000Z</time>
      </trkpt>
      <trkpt lat="47.49156" lon="6.76065">
        <ele>322</ele>
        <time>2015-11-11T11:05:07.000Z</time>
      </trkpt>
      <trkpt lat="47.49157" lon="6.76059">
        <ele>322</ele>
        <time>2015-11-11T11:05:08.000Z</time>
      </trkpt>
      <trkpt lat="47.49158" lon="6.76052">
        <ele>322</ele>
        <time>2015-11-11T11:05:09.000Z</time>
      </trkpt>
      <trkpt lat="47.49161" lon="6.76045">
        <ele>322</ele>
        <time>2015-11-11T11:05:10.000Z</time>
      </trkpt>
      <trkpt lat="47.49164" lon="6.7604">
        <ele>322</ele>
        <time>2015-11-11T11:05:11.000Z</time>
      </trkpt>
      <trkpt lat="47.49167" lon="6.76036">
        <ele>322</ele>
        <time>2015-11-11T11:05:12.000Z</time>
      </trkpt>
      <trkpt lat="47.49167" lon="6.7603">
        <ele>320</ele>
        <time>2015-11-11T11:05:13.000Z</time>
      </trkpt>
      <trkpt lat="47.49169" lon="6.76026">
        <ele>320</ele>
        <time>2015-11-11T11:05:14.000Z</time>
      </trkpt>
      <trkpt lat="47.49171" lon="6.76021">
        <ele>320</ele>
        <time>2015-11-11T11:05:15.000Z</time>
      </trkpt>
      <trkpt lat="47.49173" lon="6.76016">
        <ele>320</ele>
        <time>2015-11-11T11:05:16.000Z</time>
      </trkpt>
      <trkpt lat="47.49175" lon="6.76009">
        <ele>320</ele>
        <time>2015-11-11T11:05:17.000Z</time>
      </trkpt>
      <trkpt lat="47.49178" lon="6.76003">
        <ele>320</ele>
        <time>2015-11-11T11:05:18.000Z</time>
      </trkpt>
      <trkpt lat="47.49181" lon="6.75997">
        <ele>320</ele>
        <time>2015-11-11T11:05:19.000Z</time>
      </trkpt>
      <trkpt lat="47.49182" lon="6.75992">
        <ele>320</ele>
        <time>2015-11-11T11:05:20.000Z</time>
      </trkpt>
      <trkpt lat="47.4918" lon="6.75987">
        <ele>320</ele>
        <time>2015-11-11T11:05:21.000Z</time>
      </trkpt>
      <trkpt lat="47.49181" lon="6.75983">
        <ele>320</ele>
        <time>2015-11-11T11:05:22.000Z</time>
      </trkpt>
      <trkpt lat="47.49183" lon="6.75979">
        <ele>320</ele>
        <time>2015-11-11T11:05:23.000Z</time>
      </trkpt>
      <trkpt lat="47.49186" lon="6.75973">
        <ele>320</ele>
        <time>2015-11-11T11:05:24.000Z</time>
      </trkpt>
      <trkpt lat="47.49188" lon="6.75968">
        <ele>320</ele>
        <time>2015-11-11T11:05:25.000Z</time>
      </trkpt>
      <trkpt lat="47.4919" lon="6.75963">
        <ele>320</ele>
        <time>2015-11-11T11:05:26.000Z</time>
      </trkpt>
      <trkpt lat="47.49194" lon="6.75958">
        <ele>320</ele>
        <time>2015-11-11T11:05:27.000Z</time>
      </trkpt>
      <trkpt lat="47.49198" lon="6.75953">
        <ele>320</ele>
        <time>2015-11-11T11:05:28.000Z</time>
      </trkpt>
      <trkpt lat="47.49198" lon="6.75947">
        <ele>320</ele>
        <time>2015-11-11T11:05:29.000Z</time>
      </trkpt>
      <trkpt lat="47.49199" lon="6.75938">
        <ele>320</ele>
        <time>2015-11-11T11:05:30.000Z</time>
      </trkpt>
      <trkpt lat="47.492" lon="6.75934">
        <ele>320</ele>
        <time>2015-11-11T11:05:31.000Z</time>
      </trkpt>
      <trkpt lat="47.492" lon="6.75929">
        <ele>320</ele>
        <time>2015-11-11T11:05:32.000Z</time>
      </trkpt>
      <trkpt lat="47.492" lon="6.75924">
        <ele>320</ele>
        <time>2015-11-11T11:05:33.000Z</time>
      </trkpt>
      <trkpt lat="47.49201" lon="6.75919">
        <ele>320</ele>
        <time>2015-11-11T11:05:34.000Z</time>
      </trkpt>
      <trkpt lat="47.49204" lon="6.75913">
        <ele>320</ele>
        <time>2015-11-11T11:05:35.000Z</time>
      </trkpt>
      <trkpt lat="47.49206" lon="6.75906">
        <ele>320</ele>
        <time>2015-11-11T11:05:36.000Z</time>
      </trkpt>
      <trkpt lat="47.4921" lon="6.75899">
        <ele>319</ele>
        <time>2015-11-11T11:05:37.000Z</time>
      </trkpt>
      <trkpt lat="47.49214" lon="6.75892">
        <ele>319</ele>
        <time>2015-11-11T11:05:38.000Z</time>
      </trkpt>
      <trkpt lat="47.49218" lon="6.75885">
        <ele>319</ele>
        <time>2015-11-11T11:05:39.000Z</time>
      </trkpt>
      <trkpt lat="47.49221" lon="6.75879">
        <ele>319</ele>
        <time>2015-11-11T11:05:40.000Z</time>
      </trkpt>
      <trkpt lat="47.49223" lon="6.75871">
        <ele>319</ele>
        <time>2015-11-11T11:05:41.000Z</time>
      </trkpt>
      <trkpt lat="47.49226" lon="6.75863">
        <ele>318</ele>
        <time>2015-11-11T11:05:42.000Z</time>
      </trkpt>
      <trkpt lat="47.49231" lon="6.75857">
        <ele>318</ele>
        <time>2015-11-11T11:05:43.000Z</time>
      </trkpt>
      <trkpt lat="47.49234" lon="6.75851">
        <ele>317</ele>
        <time>2015-11-11T11:05:44.000Z</time>
      </trkpt>
      <trkpt lat="47.49238" lon="6.75844">
        <ele>316</ele>
        <time>2015-11-11T11:05:45.000Z</time>
      </trkpt>
      <trkpt lat="47.49241" lon="6.75838">
        <ele>315</ele>
        <time>2015-11-11T11:05:46.000Z</time>
      </trkpt>
      <trkpt lat="47.49244" lon="6.75833">
        <ele>315</ele>
        <time>2015-11-11T11:05:47.000Z</time>
      </trkpt>
      <trkpt lat="47.49247" lon="6.75827">
        <ele>315</ele>
        <time>2015-11-11T11:05:48.000Z</time>
      </trkpt>
      <trkpt lat="47.49251" lon="6.75821">
        <ele>315</ele>
        <time>2015-11-11T11:05:49.000Z</time>
      </trkpt>
      <trkpt lat="47.49255" lon="6.75815">
        <ele>316</ele>
        <time>2015-11-11T11:05:50.000Z</time>
      </trkpt>
      <trkpt lat="47.49259" lon="6.7581">
        <ele>316</ele>
        <time>2015-11-11T11:05:51.000Z</time>
      </trkpt>
      <trkpt lat="47.49261" lon="6.75806">
        <ele>317</ele>
        <time>2015-11-11T11:05:52.000Z</time>
      </trkpt>
      <trkpt lat="47.49264" lon="6.75801">
        <ele>317</ele>
        <time>2015-11-11T11:05:53.000Z</time>
      </trkpt>
      <trkpt lat="47.49267" lon="6.75795">
        <ele>317</ele>
        <time>2015-11-11T11:05:54.000Z</time>
      </trkpt>
      <trkpt lat="47.49269" lon="6.7579">
        <ele>318</ele>
        <time>2015-11-11T11:05:55.000Z</time>
      </trkpt>
      <trkpt lat="47.49271" lon="6.75785">
        <ele>318</ele>
        <time>2015-11-11T11:05:56.000Z</time>
      </trkpt>
      <trkpt lat="47.49274" lon="6.75779">
        <ele>318</ele>
        <time>2015-11-11T11:05:57.000Z</time>
      </trkpt>
      <trkpt lat="47.49277" lon="6.75775">
        <ele>318</ele>
        <time>2015-11-11T11:05:58.000Z</time>
      </trkpt>
      <trkpt lat="47.4928" lon="6.75771">
        <ele>318</ele>
        <time>2015-11-11T11:05:59.000Z</time>
      </trkpt>
      <trkpt lat="47.49283" lon="6.75767">
        <ele>318</ele>
        <time>2015-11-11T11:06:00.000Z</time>
      </trkpt>
      <trkpt lat="47.49284" lon="6.75764">
        <ele>318</ele>
        <time>2015-11-11T11:06:01.000Z</time>
      </trkpt>
      <trkpt lat="47.49287" lon="6.75759">
        <ele>318</ele>
        <time>2015-11-11T11:06:02.000Z</time>
      </trkpt>
      <trkpt lat="47.49288" lon="6.75755">
        <ele>318</ele>
        <time>2015-11-11T11:06:03.000Z</time>
      </trkpt>
      <trkpt lat="47.49294" lon="6.7575">
        <ele>318</ele>
        <time>2015-11-11T11:06:04.000Z</time>
      </trkpt>
      <trkpt lat="47.49297" lon="6.75747">
        <ele>319</ele>
        <time>2015-11-11T11:06:05.000Z</time>
      </trkpt>
      <trkpt lat="47.49301" lon="6.75744">
        <ele>319</ele>
        <time>2015-11-11T11:06:06.000Z</time>
      </trkpt>
      <trkpt lat="47.49307" lon="6.75741">
        <ele>319</ele>
        <time>2015-11-11T11:06:07.000Z</time>
      </trkpt>
      <trkpt lat="47.4932" lon="6.75739">
        <ele>319</ele>
        <time>2015-11-11T11:06:08.000Z</time>
      </trkpt>
      <trkpt lat="47.49325" lon="6.75737">
        <ele>319</ele>
        <time>2015-11-11T11:06:09.000Z</time>
      </trkpt>
      <trkpt lat="47.49329" lon="6.75736">
        <ele>319</ele>
        <time>2015-11-11T11:06:10.000Z</time>
      </trkpt>
      <trkpt lat="47.49333" lon="6.75734">
        <ele>319</ele>
        <time>2015-11-11T11:06:11.000Z</time>
      </trkpt>
      <trkpt lat="47.49337" lon="6.75732">
        <ele>318</ele>
        <time>2015-11-11T11:06:12.000Z</time>
      </trkpt>
      <trkpt lat="47.49341" lon="6.75728">
        <ele>318</ele>
        <time>2015-11-11T11:06:13.000Z</time>
      </trkpt>
      <trkpt lat="47.49343" lon="6.75726">
        <ele>318</ele>
        <time>2015-11-11T11:06:14.000Z</time>
      </trkpt>
      <trkpt lat="47.49347" lon="6.75725">
        <ele>319</ele>
        <time>2015-11-11T11:06:15.000Z</time>
      </trkpt>
      <trkpt lat="47.49349" lon="6.75722">
        <ele>319</ele>
        <time>2015-11-11T11:06:16.000Z</time>
      </trkpt>
      <trkpt lat="47.49351" lon="6.7572">
        <ele>319</ele>
        <time>2015-11-11T11:06:17.000Z</time>
      </trkpt>
      <trkpt lat="47.49355" lon="6.75721">
        <ele>319</ele>
        <time>2015-11-11T11:06:18.000Z</time>
      </trkpt>
      <trkpt lat="47.49357" lon="6.75721">
        <ele>319</ele>
        <time>2015-11-11T11:06:19.000Z</time>
      </trkpt>
      <trkpt lat="47.4936" lon="6.75721">
        <ele>319</ele>
        <time>2015-11-11T11:06:22.000Z</time>
      </trkpt>
      <trkpt lat="47.49362" lon="6.7572">
        <ele>319</ele>
        <time>2015-11-11T11:06:23.000Z</time>
      </trkpt>
      <trkpt lat="47.49365" lon="6.75719">
        <ele>319</ele>
        <time>2015-11-11T11:06:24.000Z</time>
      </trkpt>
      <trkpt lat="47.49368" lon="6.75717">
        <ele>319</ele>
        <time>2015-11-11T11:06:25.000Z</time>
      </trkpt>
      <trkpt lat="47.4937" lon="6.75716">
        <ele>319</ele>
        <time>2015-11-11T11:06:26.000Z</time>
      </trkpt>
      <trkpt lat="47.49384" lon="6.75707">
        <ele>319</ele>
        <time>2015-11-11T11:06:27.000Z</time>
      </trkpt>
      <trkpt lat="47.49389" lon="6.75704">
        <ele>319</ele>
        <time>2015-11-11T11:06:28.000Z</time>
      </trkpt>
      <trkpt lat="47.49392" lon="6.75701">
        <ele>319</ele>
        <time>2015-11-11T11:06:29.000Z</time>
      </trkpt>
      <trkpt lat="47.49395" lon="6.75697">
        <ele>319</ele>
        <time>2015-11-11T11:06:30.000Z</time>
      </trkpt>
      <trkpt lat="47.494" lon="6.75692">
        <ele>319</ele>
        <time>2015-11-11T11:06:31.000Z</time>
      </trkpt>
      <trkpt lat="47.49405" lon="6.75688">
        <ele>319</ele>
        <time>2015-11-11T11:06:32.000Z</time>
      </trkpt>
      <trkpt lat="47.4941" lon="6.75683">
        <ele>319</ele>
        <time>2015-11-11T11:06:33.000Z</time>
      </trkpt>
      <trkpt lat="47.49414" lon="6.75681">
        <ele>319</ele>
        <time>2015-11-11T11:06:34.000Z</time>
      </trkpt>
      <trkpt lat="47.49417" lon="6.75678">
        <ele>320</ele>
        <time>2015-11-11T11:06:35.000Z</time>
      </trkpt>
      <trkpt lat="47.49421" lon="6.75674">
        <ele>320</ele>
        <time>2015-11-11T11:06:36.000Z</time>
      </trkpt>
      <trkpt lat="47.49424" lon="6.75671">
        <ele>320</ele>
        <time>2015-11-11T11:06:37.000Z</time>
      </trkpt>
      <trkpt lat="47.49427" lon="6.75667">
        <ele>320</ele>
        <time>2015-11-11T11:06:38.000Z</time>
      </trkpt>
      <trkpt lat="47.49431" lon="6.75667">
        <ele>320</ele>
        <time>2015-11-11T11:06:39.000Z</time>
      </trkpt>
      <trkpt lat="47.49434" lon="6.75669">
        <ele>320</ele>
        <time>2015-11-11T11:06:40.000Z</time>
      </trkpt>
      <trkpt lat="47.49434" lon="6.75677">
        <ele>320</ele>
        <time>2015-11-11T11:06:41.000Z</time>
      </trkpt>
      <trkpt lat="47.49437" lon="6.75683">
        <ele>320</ele>
        <time>2015-11-11T11:06:42.000Z</time>
      </trkpt>
      <trkpt lat="47.49439" lon="6.75687">
        <ele>320</ele>
        <time>2015-11-11T11:06:43.000Z</time>
      </trkpt>
      <trkpt lat="47.49441" lon="6.75692">
        <ele>320</ele>
        <time>2015-11-11T11:06:44.000Z</time>
      </trkpt>
      <trkpt lat="47.49443" lon="6.75697">
        <ele>321</ele>
        <time>2015-11-11T11:06:45.000Z</time>
      </trkpt>
      <trkpt lat="47.49446" lon="6.75701">
        <ele>321</ele>
        <time>2015-11-11T11:06:46.000Z</time>
      </trkpt>
      <trkpt lat="47.4945" lon="6.75701">
        <ele>321</ele>
        <time>2015-11-11T11:06:47.000Z</time>
      </trkpt>
      <trkpt lat="47.49455" lon="6.757">
        <ele>321</ele>
        <time>2015-11-11T11:06:48.000Z</time>
      </trkpt>
      <trkpt lat="47.49459" lon="6.75699">
        <ele>321</ele>
        <time>2015-11-11T11:06:49.000Z</time>
      </trkpt>
      <trkpt lat="47.49462" lon="6.75698">
        <ele>321</ele>
        <time>2015-11-11T11:06:50.000Z</time>
      </trkpt>
      <trkpt lat="47.49466" lon="6.75699">
        <ele>321</ele>
        <time>2015-11-11T11:06:51.000Z</time>
      </trkpt>
      <trkpt lat="47.49469" lon="6.75702">
        <ele>321</ele>
        <time>2015-11-11T11:06:52.000Z</time>
      </trkpt>
      <trkpt lat="47.49472" lon="6.75705">
        <ele>321</ele>
        <time>2015-11-11T11:06:53.000Z</time>
      </trkpt>
      <trkpt lat="47.49475" lon="6.75713">
        <ele>321</ele>
        <time>2015-11-11T11:06:54.000Z</time>
      </trkpt>
      <trkpt lat="47.49478" lon="6.7572">
        <ele>322</ele>
        <time>2015-11-11T11:06:55.000Z</time>
      </trkpt>
      <trkpt lat="47.49479" lon="6.75727">
        <ele>322</ele>
        <time>2015-11-11T11:06:56.000Z</time>
      </trkpt>
      <trkpt lat="47.49481" lon="6.75732">
        <ele>322</ele>
        <time>2015-11-11T11:06:57.000Z</time>
      </trkpt>
      <trkpt lat="47.49484" lon="6.75737">
        <ele>322</ele>
        <time>2015-11-11T11:06:58.000Z</time>
      </trkpt>
      <trkpt lat="47.49487" lon="6.75741">
        <ele>323</ele>
        <time>2015-11-11T11:06:59.000Z</time>
      </trkpt>
      <trkpt lat="47.4949" lon="6.75746">
        <ele>323</ele>
        <time>2015-11-11T11:07:00.000Z</time>
      </trkpt>
      <trkpt lat="47.49497" lon="6.75742">
        <ele>323</ele>
        <time>2015-11-11T11:07:01.000Z</time>
      </trkpt>
      <trkpt lat="47.49501" lon="6.75741">
        <ele>324</ele>
        <time>2015-11-11T11:07:02.000Z</time>
      </trkpt>
      <trkpt lat="47.49505" lon="6.75741">
        <ele>324</ele>
        <time>2015-11-11T11:07:03.000Z</time>
      </trkpt>
      <trkpt lat="47.49509" lon="6.75739">
        <ele>325</ele>
        <time>2015-11-11T11:07:04.000Z</time>
      </trkpt>
      <trkpt lat="47.49513" lon="6.75735">
        <ele>325</ele>
        <time>2015-11-11T11:07:05.000Z</time>
      </trkpt>
      <trkpt lat="47.49517" lon="6.75733">
        <ele>325</ele>
        <time>2015-11-11T11:07:06.000Z</time>
      </trkpt>
      <trkpt lat="47.49521" lon="6.7573">
        <ele>325</ele>
        <time>2015-11-11T11:07:07.000Z</time>
      </trkpt>
      <trkpt lat="47.49525" lon="6.75728">
        <ele>325</ele>
        <time>2015-11-11T11:07:08.000Z</time>
      </trkpt>
      <trkpt lat="47.4953" lon="6.75726">
        <ele>325</ele>
        <time>2015-11-11T11:07:09.000Z</time>
      </trkpt>
      <trkpt lat="47.49534" lon="6.75723">
        <ele>325</ele>
        <time>2015-11-11T11:07:10.000Z</time>
      </trkpt>
      <trkpt lat="47.49538" lon="6.7572">
        <ele>325</ele>
        <time>2015-11-11T11:07:11.000Z</time>
      </trkpt>
      <trkpt lat="47.49542" lon="6.75717">
        <ele>325</ele>
        <time>2015-11-11T11:07:12.000Z</time>
      </trkpt>
      <trkpt lat="47.49545" lon="6.75714">
        <ele>325</ele>
        <time>2015-11-11T11:07:13.000Z</time>
      </trkpt>
      <trkpt lat="47.49549" lon="6.7571">
        <ele>325</ele>
        <time>2015-11-11T11:07:14.000Z</time>
      </trkpt>
      <trkpt lat="47.49553" lon="6.75706">
        <ele>325</ele>
        <time>2015-11-11T11:07:15.000Z</time>
      </trkpt>
      <trkpt lat="47.49556" lon="6.75702">
        <ele>325</ele>
        <time>2015-11-11T11:07:16.000Z</time>
      </trkpt>
      <trkpt lat="47.49559" lon="6.75698">
        <ele>325</ele>
        <time>2015-11-11T11:07:17.000Z</time>
      </trkpt>
      <trkpt lat="47.49562" lon="6.75693">
        <ele>324</ele>
        <time>2015-11-11T11:07:18.000Z</time>
      </trkpt>
      <trkpt lat="47.49566" lon="6.75689">
        <ele>324</ele>
        <time>2015-11-11T11:07:19.000Z</time>
      </trkpt>
      <trkpt lat="47.49568" lon="6.75684">
        <ele>324</ele>
        <time>2015-11-11T11:07:20.000Z</time>
      </trkpt>
      <trkpt lat="47.4957" lon="6.75676">
        <ele>323</ele>
        <time>2015-11-11T11:07:21.000Z</time>
      </trkpt>
      <trkpt lat="47.49572" lon="6.75671">
        <ele>323</ele>
        <time>2015-11-11T11:07:21.999Z</time>
      </trkpt>
      <trkpt lat="47.49575" lon="6.75669">
        <ele>322</ele>
        <time>2015-11-11T11:07:23.000Z</time>
      </trkpt>
      <trkpt lat="47.49579" lon="6.75671">
        <ele>322</ele>
        <time>2015-11-11T11:07:24.000Z</time>
      </trkpt>
      <trkpt lat="47.49583" lon="6.75675">
        <ele>322</ele>
        <time>2015-11-11T11:07:25.000Z</time>
      </trkpt>
      <trkpt lat="47.49586" lon="6.75679">
        <ele>325</ele>
        <time>2015-11-11T11:07:26.000Z</time>
      </trkpt>
      <trkpt lat="47.49588" lon="6.75683">
        <ele>326</ele>
        <time>2015-11-11T11:07:27.000Z</time>
      </trkpt>
      <trkpt lat="47.49588" lon="6.75685">
        <ele>327</ele>
        <time>2015-11-11T11:07:28.000Z</time>
      </trkpt>
      <trkpt lat="47.4959" lon="6.75688">
        <ele>327</ele>
        <time>2015-11-11T11:07:29.000Z</time>
      </trkpt>
      <trkpt lat="47.49592" lon="6.75691">
        <ele>328</ele>
        <time>2015-11-11T11:07:30.000Z</time>
      </trkpt>
      <trkpt lat="47.49593" lon="6.75696">
        <ele>329</ele>
        <time>2015-11-11T11:07:32.000Z</time>
      </trkpt>
      <trkpt lat="47.49594" lon="6.75698">
        <ele>329</ele>
        <time>2015-11-11T11:07:33.000Z</time>
      </trkpt>
      <trkpt lat="47.49594" lon="6.75704">
        <ele>330</ele>
        <time>2015-11-11T11:07:36.000Z</time>
      </trkpt>
      <trkpt lat="47.49593" lon="6.75707">
        <ele>330</ele>
        <time>2015-11-11T11:07:37.000Z</time>
      </trkpt>
      <trkpt lat="47.49591" lon="6.7571">
        <ele>330</ele>
        <time>2015-11-11T11:07:38.000Z</time>
      </trkpt>
      <trkpt lat="47.49589" lon="6.75713">
        <ele>331</ele>
        <time>2015-11-11T11:07:39.000Z</time>
      </trkpt>
      <trkpt lat="47.49588" lon="6.75717">
        <ele>331</ele>
        <time>2015-11-11T11:07:40.000Z</time>
      </trkpt>
      <trkpt lat="47.49585" lon="6.75721">
        <ele>331</ele>
        <time>2015-11-11T11:07:41.000Z</time>
      </trkpt>
      <trkpt lat="47.49583" lon="6.75725">
        <ele>328</ele>
        <time>2015-11-11T11:07:42.000Z</time>
      </trkpt>
      <trkpt lat="47.49581" lon="6.75729">
        <ele>329</ele>
        <time>2015-11-11T11:07:43.000Z</time>
      </trkpt>
      <trkpt lat="47.49578" lon="6.75733">
        <ele>329</ele>
        <time>2015-11-11T11:07:44.000Z</time>
      </trkpt>
      <trkpt lat="47.49576" lon="6.75737">
        <ele>330</ele>
        <time>2015-11-11T11:07:45.000Z</time>
      </trkpt>
      <trkpt lat="47.49573" lon="6.75741">
        <ele>330</ele>
        <time>2015-11-11T11:07:46.000Z</time>
      </trkpt>
      <trkpt lat="47.4957" lon="6.75744">
        <ele>330</ele>
        <time>2015-11-11T11:07:47.000Z</time>
      </trkpt>
      <trkpt lat="47.49568" lon="6.75747">
        <ele>330</ele>
        <time>2015-11-11T11:07:48.000Z</time>
      </trkpt>
      <trkpt lat="47.49565" lon="6.7575">
        <ele>329</ele>
        <time>2015-11-11T11:07:49.000Z</time>
      </trkpt>
      <trkpt lat="47.49562" lon="6.75752">
        <ele>335</ele>
        <time>2015-11-11T11:07:50.000Z</time>
      </trkpt>
      <trkpt lat="47.4956" lon="6.75754">
        <ele>335</ele>
        <time>2015-11-11T11:07:51.000Z</time>
      </trkpt>
      <trkpt lat="47.49557" lon="6.75756">
        <ele>335</ele>
        <time>2015-11-11T11:07:52.000Z</time>
      </trkpt>
      <trkpt lat="47.49555" lon="6.75758">
        <ele>335</ele>
        <time>2015-11-11T11:07:53.000Z</time>
      </trkpt>
      <trkpt lat="47.49553" lon="6.75762">
        <ele>335</ele>
        <time>2015-11-11T11:07:55.000Z</time>
      </trkpt>
      <trkpt lat="47.49552" lon="6.75763">
        <ele>335</ele>
        <time>2015-11-11T11:07:56.000Z</time>
      </trkpt>
      <trkpt lat="47.49554" lon="6.75769">
        <ele>335</ele>
        <time>2015-11-11T11:07:59.000Z</time>
      </trkpt>
      <trkpt lat="47.49556" lon="6.75772">
        <ele>335</ele>
        <time>2015-11-11T11:08:00.000Z</time>
      </trkpt>
      <trkpt lat="47.49559" lon="6.75775">
        <ele>336</ele>
        <time>2015-11-11T11:08:02.000Z</time>
      </trkpt>
      <trkpt lat="47.49561" lon="6.75776">
        <ele>336</ele>
        <time>2015-11-11T11:08:03.000Z</time>
      </trkpt>
      <trkpt lat="47.49565" lon="6.75779">
        <ele>336</ele>
        <time>2015-11-11T11:08:05.000Z</time>
      </trkpt>
      <trkpt lat="47.49566" lon="6.7578">
        <ele>336</ele>
        <time>2015-11-11T11:08:06.000Z</time>
      </trkpt>
      <trkpt lat="47.4957" lon="6.75783">
        <ele>337</ele>
        <time>2015-11-11T11:08:09.000Z</time>
      </trkpt>
      <trkpt lat="47.49571" lon="6.75783">
        <ele>337</ele>
        <time>2015-11-11T11:08:10.000Z</time>
      </trkpt>
      <trkpt lat="47.49575" lon="6.75782">
        <ele>337</ele>
        <time>2015-11-11T11:08:13.999Z</time>
      </trkpt>
      <trkpt lat="47.49577" lon="6.75784">
        <ele>337</ele>
        <time>2015-11-11T11:08:15.000Z</time>
      </trkpt>
      <trkpt lat="47.49581" lon="6.75787">
        <ele>338</ele>
        <time>2015-11-11T11:08:17.000Z</time>
      </trkpt>
      <trkpt lat="47.49582" lon="6.75789">
        <ele>338</ele>
        <time>2015-11-11T11:08:18.000Z</time>
      </trkpt>
      <trkpt lat="47.49585" lon="6.75787">
        <ele>344</ele>
        <time>2015-11-11T11:08:21.000Z</time>
      </trkpt>
      <trkpt lat="47.49586" lon="6.75784">
        <ele>343</ele>
        <time>2015-11-11T11:08:22.000Z</time>
      </trkpt>
      <trkpt lat="47.49585" lon="6.75778">
        <ele>342</ele>
        <time>2015-11-11T11:08:25.000Z</time>
      </trkpt>
      <trkpt lat="47.49584" lon="6.75777">
        <ele>342</ele>
        <time>2015-11-11T11:08:26.001Z</time>
      </trkpt>
      <trkpt lat="47.49587" lon="6.75776">
        <ele>342</ele>
        <time>2015-11-11T11:08:29.000Z</time>
      </trkpt>
      <trkpt lat="47.49589" lon="6.75775">
        <ele>342</ele>
        <time>2015-11-11T11:08:30.000Z</time>
      </trkpt>
      <trkpt lat="47.49592" lon="6.75776">
        <ele>342</ele>
        <time>2015-11-11T11:08:32.000Z</time>
      </trkpt>
      <trkpt lat="47.49594" lon="6.75776">
        <ele>342</ele>
        <time>2015-11-11T11:08:33.000Z</time>
      </trkpt>
      <trkpt lat="47.49597" lon="6.75777">
        <ele>343</ele>
        <time>2015-11-11T11:08:35.000Z</time>
      </trkpt>
      <trkpt lat="47.49598" lon="6.75778">
        <ele>343</ele>
        <time>2015-11-11T11:08:36.000Z</time>
      </trkpt>
      <trkpt lat="47.49602" lon="6.75781">
        <ele>344</ele>
        <time>2015-11-11T11:08:39.000Z</time>
      </trkpt>
      <trkpt lat="47.49603" lon="6.75781">
        <ele>344</ele>
        <time>2015-11-11T11:08:40.000Z</time>
      </trkpt>
      <trkpt lat="47.49608" lon="6.75782">
        <ele>344</ele>
        <time>2015-11-11T11:08:43.000Z</time>
      </trkpt>
      <trkpt lat="47.49608" lon="6.75783">
        <ele>344</ele>
        <time>2015-11-11T11:08:44.000Z</time>
      </trkpt>
      <trkpt lat="47.49612" lon="6.75784">
        <ele>345</ele>
        <time>2015-11-11T11:08:49.000Z</time>
      </trkpt>
      <trkpt lat="47.49614" lon="6.75785">
        <ele>345</ele>
        <time>2015-11-11T11:08:50.000Z</time>
      </trkpt>
      <trkpt lat="47.49616" lon="6.75786">
        <ele>345</ele>
        <time>2015-11-11T11:08:51.000Z</time>
      </trkpt>
      <trkpt lat="47.49618" lon="6.75788">
        <ele>346</ele>
        <time>2015-11-11T11:08:52.000Z</time>
      </trkpt>
      <trkpt lat="47.4962" lon="6.7579">
        <ele>346</ele>
        <time>2015-11-11T11:08:53.000Z</time>
      </trkpt>
      <trkpt lat="47.49622" lon="6.75792">
        <ele>346</ele>
        <time>2015-11-11T11:08:54.000Z</time>
      </trkpt>
      <trkpt lat="47.49626" lon="6.75795">
        <ele>347</ele>
        <time>2015-11-11T11:08:58.000Z</time>
      </trkpt>
      <trkpt lat="47.49627" lon="6.75795">
        <ele>347</ele>
        <time>2015-11-11T11:08:59.000Z</time>
      </trkpt>
      <trkpt lat="47.49631" lon="6.75796">
        <ele>347</ele>
        <time>2015-11-11T11:09:03.000Z</time>
      </trkpt>
      <trkpt lat="47.49632" lon="6.75796">
        <ele>347</ele>
        <time>2015-11-11T11:09:04.000Z</time>
      </trkpt>
      <trkpt lat="47.49635" lon="6.75798">
        <ele>347</ele>
        <time>2015-11-11T11:09:07.000Z</time>
      </trkpt>
      <trkpt lat="47.49637" lon="6.75799">
        <ele>348</ele>
        <time>2015-11-11T11:09:08.000Z</time>
      </trkpt>
      <trkpt lat="47.49639" lon="6.75798">
        <ele>348</ele>
        <time>2015-11-11T11:09:10.000Z</time>
      </trkpt>
      <trkpt lat="47.4964" lon="6.75794">
        <ele>347</ele>
        <time>2015-11-11T11:09:11.000Z</time>
      </trkpt>
      <trkpt lat="47.49641" lon="6.75788">
        <ele>347</ele>
        <time>2015-11-11T11:09:15.000Z</time>
      </trkpt>
      <trkpt lat="47.49642" lon="6.75787">
        <ele>347</ele>
        <time>2015-11-11T11:09:16.000Z</time>
      </trkpt>
      <trkpt lat="47.49646" lon="6.75786">
        <ele>347</ele>
        <time>2015-11-11T11:09:21.000Z</time>
      </trkpt>
      <trkpt lat="47.49647" lon="6.75785">
        <ele>347</ele>
        <time>2015-11-11T11:09:22.000Z</time>
      </trkpt>
      <trkpt lat="47.4965" lon="6.75784">
        <ele>347</ele>
        <time>2015-11-11T11:09:24.000Z</time>
      </trkpt>
      <trkpt lat="47.49652" lon="6.75783">
        <ele>347</ele>
        <time>2015-11-11T11:09:25.000Z</time>
      </trkpt>
      <trkpt lat="47.49654" lon="6.75782">
        <ele>347</ele>
        <time>2015-11-11T11:09:26.000Z</time>
      </trkpt>
      <trkpt lat="47.49656" lon="6.75781">
        <ele>347</ele>
        <time>2015-11-11T11:09:27.000Z</time>
      </trkpt>
      <trkpt lat="47.49661" lon="6.75779">
        <ele>347</ele>
        <time>2015-11-11T11:09:29.000Z</time>
      </trkpt>
      <trkpt lat="47.49663" lon="6.75779">
        <ele>347</ele>
        <time>2015-11-11T11:09:30.000Z</time>
      </trkpt>
      <trkpt lat="47.49665" lon="6.75778">
        <ele>347</ele>
        <time>2015-11-11T11:09:31.000Z</time>
      </trkpt>
      <trkpt lat="47.49668" lon="6.75778">
        <ele>351</ele>
        <time>2015-11-11T11:09:32.000Z</time>
      </trkpt>
      <trkpt lat="47.4967" lon="6.75778">
        <ele>352</ele>
        <time>2015-11-11T11:09:33.000Z</time>
      </trkpt>
      <trkpt lat="47.49673" lon="6.75778">
        <ele>351</ele>
        <time>2015-11-11T11:09:34.000Z</time>
      </trkpt>
      <trkpt lat="47.49675" lon="6.75777">
        <ele>351</ele>
        <time>2015-11-11T11:09:35.000Z</time>
      </trkpt>
      <trkpt lat="47.49677" lon="6.75776">
        <ele>351</ele>
        <time>2015-11-11T11:09:36.000Z</time>
      </trkpt>
      <trkpt lat="47.4968" lon="6.75776">
        <ele>352</ele>
        <time>2015-11-11T11:09:37.000Z</time>
      </trkpt>
      <trkpt lat="47.49683" lon="6.75775">
        <ele>352</ele>
        <time>2015-11-11T11:09:38.000Z</time>
      </trkpt>
      <trkpt lat="47.49686" lon="6.75775">
        <ele>352</ele>
        <time>2015-11-11T11:09:39.000Z</time>
      </trkpt>
      <trkpt lat="47.49689" lon="6.75775">
        <ele>352</ele>
        <time>2015-11-11T11:09:40.000Z</time>
      </trkpt>
      <trkpt lat="47.49692" lon="6.75774">
        <ele>352</ele>
        <time>2015-11-11T11:09:41.000Z</time>
      </trkpt>
      <trkpt lat="47.49694" lon="6.75772">
        <ele>352</ele>
        <time>2015-11-11T11:09:42.000Z</time>
      </trkpt>
      <trkpt lat="47.49696" lon="6.75769">
        <ele>352</ele>
        <time>2015-11-11T11:09:43.000Z</time>
      </trkpt>
      <trkpt lat="47.49698" lon="6.75767">
        <ele>352</ele>
        <time>2015-11-11T11:09:44.000Z</time>
      </trkpt>
      <trkpt lat="47.497" lon="6.75764">
        <ele>352</ele>
        <time>2015-11-11T11:09:45.000Z</time>
      </trkpt>
      <trkpt lat="47.49702" lon="6.75763">
        <ele>352</ele>
        <time>2015-11-11T11:09:46.000Z</time>
      </trkpt>
      <trkpt lat="47.49705" lon="6.75762">
        <ele>352</ele>
        <time>2015-11-11T11:09:47.000Z</time>
      </trkpt>
      <trkpt lat="47.49707" lon="6.75761">
        <ele>352</ele>
        <time>2015-11-11T11:09:48.000Z</time>
      </trkpt>
      <trkpt lat="47.49709" lon="6.75761">
        <ele>352</ele>
        <time>2015-11-11T11:09:49.000Z</time>
      </trkpt>
      <trkpt lat="47.49712" lon="6.75761">
        <ele>353</ele>
        <time>2015-11-11T11:09:50.000Z</time>
      </trkpt>
      <trkpt lat="47.49715" lon="6.75761">
        <ele>353</ele>
        <time>2015-11-11T11:09:51.000Z</time>
      </trkpt>
      <trkpt lat="47.49717" lon="6.75761">
        <ele>353</ele>
        <time>2015-11-11T11:09:52.000Z</time>
      </trkpt>
      <trkpt lat="47.4972" lon="6.7576">
        <ele>353</ele>
        <time>2015-11-11T11:09:54.000Z</time>
      </trkpt>
      <trkpt lat="47.49722" lon="6.75759">
        <ele>353</ele>
        <time>2015-11-11T11:09:55.000Z</time>
      </trkpt>
      <trkpt lat="47.49726" lon="6.75758">
        <ele>353</ele>
        <time>2015-11-11T11:09:57.000Z</time>
      </trkpt>
      <trkpt lat="47.49727" lon="6.75757">
        <ele>353</ele>
        <time>2015-11-11T11:09:58.000Z</time>
      </trkpt>
      <trkpt lat="47.4973" lon="6.75756">
        <ele>353</ele>
        <time>2015-11-11T11:10:00.000Z</time>
      </trkpt>
      <trkpt lat="47.49732" lon="6.75755">
        <ele>353</ele>
        <time>2015-11-11T11:10:01.000Z</time>
      </trkpt>
      <trkpt lat="47.49734" lon="6.75754">
        <ele>353</ele>
        <time>2015-11-11T11:10:02.000Z</time>
      </trkpt>
      <trkpt lat="47.49737" lon="6.75752">
        <ele>352</ele>
        <time>2015-11-11T11:10:03.000Z</time>
      </trkpt>
      <trkpt lat="47.49738" lon="6.75751">
        <ele>352</ele>
        <time>2015-11-11T11:10:04.001Z</time>
      </trkpt>
      <trkpt lat="47.49743" lon="6.75749">
        <ele>348</ele>
        <time>2015-11-11T11:10:05.000Z</time>
      </trkpt>
      <trkpt lat="47.49746" lon="6.75748">
        <ele>349</ele>
        <time>2015-11-11T11:10:06.000Z</time>
      </trkpt>
      <trkpt lat="47.49749" lon="6.75747">
        <ele>350</ele>
        <time>2015-11-11T11:10:07.000Z</time>
      </trkpt>
      <trkpt lat="47.49753" lon="6.75747">
        <ele>351</ele>
        <time>2015-11-11T11:10:08.000Z</time>
      </trkpt>
      <trkpt lat="47.49756" lon="6.75748">
        <ele>351</ele>
        <time>2015-11-11T11:10:09.000Z</time>
      </trkpt>
      <trkpt lat="47.49759" lon="6.75747">
        <ele>351</ele>
        <time>2015-11-11T11:10:10.000Z</time>
      </trkpt>
      <trkpt lat="47.49762" lon="6.75747">
        <ele>351</ele>
        <time>2015-11-11T11:10:11.000Z</time>
      </trkpt>
      <trkpt lat="47.49765" lon="6.75748">
        <ele>351</ele>
        <time>2015-11-11T11:10:12.000Z</time>
      </trkpt>
      <trkpt lat="47.49767" lon="6.75748">
        <ele>351</ele>
        <time>2015-11-11T11:10:13.000Z</time>
      </trkpt>
      <trkpt lat="47.4977" lon="6.75748">
        <ele>351</ele>
        <time>2015-11-11T11:10:14.000Z</time>
      </trkpt>
      <trkpt lat="47.49772" lon="6.75747">
        <ele>351</ele>
        <time>2015-11-11T11:10:15.000Z</time>
      </trkpt>
      <trkpt lat="47.49776" lon="6.75747">
        <ele>351</ele>
        <time>2015-11-11T11:10:17.000Z</time>
      </trkpt>
      <trkpt lat="47.49778" lon="6.75746">
        <ele>351</ele>
        <time>2015-11-11T11:10:18.000Z</time>
      </trkpt>
      <trkpt lat="47.49782" lon="6.75744">
        <ele>351</ele>
        <time>2015-11-11T11:10:21.000Z</time>
      </trkpt>
      <trkpt lat="47.49783" lon="6.75743">
        <ele>351</ele>
        <time>2015-11-11T11:10:22.000Z</time>
      </trkpt>
      <trkpt lat="47.49787" lon="6.75742">
        <ele>352</ele>
        <time>2015-11-11T11:10:24.000Z</time>
      </trkpt>
      <trkpt lat="47.49789" lon="6.75742">
        <ele>352</ele>
        <time>2015-11-11T11:10:25.000Z</time>
      </trkpt>
      <trkpt lat="47.49793" lon="6.7574">
        <ele>352</ele>
        <time>2015-11-11T11:10:28.001Z</time>
      </trkpt>
      <trkpt lat="47.49794" lon="6.75739">
        <ele>352</ele>
        <time>2015-11-11T11:10:29.000Z</time>
      </trkpt>
      <trkpt lat="47.49795" lon="6.75734">
        <ele>352</ele>
        <time>2015-11-11T11:10:33.000Z</time>
      </trkpt>
      <trkpt lat="47.49796" lon="6.75733">
        <ele>352</ele>
        <time>2015-11-11T11:10:34.000Z</time>
      </trkpt>
      <trkpt lat="47.49798" lon="6.75733">
        <ele>352</ele>
        <time>2015-11-11T11:10:38.000Z</time>
      </trkpt>
      <trkpt lat="47.498" lon="6.75735">
        <ele>352</ele>
        <time>2015-11-11T11:10:39.000Z</time>
      </trkpt>
      <trkpt lat="47.49803" lon="6.75737">
        <ele>353</ele>
        <time>2015-11-11T11:10:40.000Z</time>
      </trkpt>
      <trkpt lat="47.49806" lon="6.7574">
        <ele>353</ele>
        <time>2015-11-11T11:10:41.000Z</time>
      </trkpt>
      <trkpt lat="47.49808" lon="6.75741">
        <ele>354</ele>
        <time>2015-11-11T11:10:42.000Z</time>
      </trkpt>
      <trkpt lat="47.4981" lon="6.75742">
        <ele>354</ele>
        <time>2015-11-11T11:10:43.000Z</time>
      </trkpt>
      <trkpt lat="47.49812" lon="6.75743">
        <ele>354</ele>
        <time>2015-11-11T11:10:44.001Z</time>
      </trkpt>
      <trkpt lat="47.49817" lon="6.75739">
        <ele>354</ele>
        <time>2015-11-11T11:10:45.000Z</time>
      </trkpt>
      <trkpt lat="47.4982" lon="6.75737">
        <ele>355</ele>
        <time>2015-11-11T11:10:46.000Z</time>
      </trkpt>
      <trkpt lat="47.49822" lon="6.75736">
        <ele>355</ele>
        <time>2015-11-11T11:10:47.000Z</time>
      </trkpt>
      <trkpt lat="47.49825" lon="6.75734">
        <ele>355</ele>
        <time>2015-11-11T11:10:48.000Z</time>
      </trkpt>
      <trkpt lat="47.49827" lon="6.75734">
        <ele>355</ele>
        <time>2015-11-11T11:10:49.000Z</time>
      </trkpt>
      <trkpt lat="47.49831" lon="6.75732">
        <ele>355</ele>
        <time>2015-11-11T11:10:51.000Z</time>
      </trkpt>
      <trkpt lat="47.49833" lon="6.75731">
        <ele>355</ele>
        <time>2015-11-11T11:10:52.000Z</time>
      </trkpt>
      <trkpt lat="47.49837" lon="6.7573">
        <ele>361</ele>
        <time>2015-11-11T11:10:54.000Z</time>
      </trkpt>
      <trkpt lat="47.49839" lon="6.7573">
        <ele>361</ele>
        <time>2015-11-11T11:10:55.000Z</time>
      </trkpt>
      <trkpt lat="47.49843" lon="6.75729">
        <ele>361</ele>
        <time>2015-11-11T11:10:57.000Z</time>
      </trkpt>
      <trkpt lat="47.49844" lon="6.75729">
        <ele>361</ele>
        <time>2015-11-11T11:10:58.000Z</time>
      </trkpt>
      <trkpt lat="47.49847" lon="6.75728">
        <ele>361</ele>
        <time>2015-11-11T11:11:00.000Z</time>
      </trkpt>
      <trkpt lat="47.49849" lon="6.75727">
        <ele>361</ele>
        <time>2015-11-11T11:11:01.001Z</time>
      </trkpt>
      <trkpt lat="47.49852" lon="6.75726">
        <ele>361</ele>
        <time>2015-11-11T11:11:03.000Z</time>
      </trkpt>
      <trkpt lat="47.49854" lon="6.75726">
        <ele>361</ele>
        <time>2015-11-11T11:11:04.000Z</time>
      </trkpt>
      <trkpt lat="47.49857" lon="6.75724">
        <ele>362</ele>
        <time>2015-11-11T11:11:06.000Z</time>
      </trkpt>
      <trkpt lat="47.49858" lon="6.75723">
        <ele>362</ele>
        <time>2015-11-11T11:11:07.000Z</time>
      </trkpt>
      <trkpt lat="47.49862" lon="6.75721">
        <ele>362</ele>
        <time>2015-11-11T11:11:10.001Z</time>
      </trkpt>
      <trkpt lat="47.49863" lon="6.7572">
        <ele>362</ele>
        <time>2015-11-11T11:11:11.000Z</time>
      </trkpt>
      <trkpt lat="47.49867" lon="6.75718">
        <ele>362</ele>
        <time>2015-11-11T11:11:14.000Z</time>
      </trkpt>
      <trkpt lat="47.49868" lon="6.75717">
        <ele>362</ele>
        <time>2015-11-11T11:11:15.000Z</time>
      </trkpt>
      <trkpt lat="47.49872" lon="6.75714">
        <ele>362</ele>
        <time>2015-11-11T11:11:18.000Z</time>
      </trkpt>
      <trkpt lat="47.49874" lon="6.75715">
        <ele>363</ele>
        <time>2015-11-11T11:11:19.000Z</time>
      </trkpt>
      <trkpt lat="47.49876" lon="6.75716">
        <ele>363</ele>
        <time>2015-11-11T11:11:20.000Z</time>
      </trkpt>
      <trkpt lat="47.49879" lon="6.75718">
        <ele>363</ele>
        <time>2015-11-11T11:11:21.000Z</time>
      </trkpt>
      <trkpt lat="47.49882" lon="6.75719">
        <ele>363</ele>
        <time>2015-11-11T11:11:22.000Z</time>
      </trkpt>
      <trkpt lat="47.49884" lon="6.75721">
        <ele>363</ele>
        <time>2015-11-11T11:11:23.000Z</time>
      </trkpt>
      <trkpt lat="47.49888" lon="6.75723">
        <ele>364</ele>
        <time>2015-11-11T11:11:25.000Z</time>
      </trkpt>
      <trkpt lat="47.4989" lon="6.75722">
        <ele>364</ele>
        <time>2015-11-11T11:11:26.000Z</time>
      </trkpt>
      <trkpt lat="47.49893" lon="6.75723">
        <ele>364</ele>
        <time>2015-11-11T11:11:28.000Z</time>
      </trkpt>
      <trkpt lat="47.49894" lon="6.75724">
        <ele>364</ele>
        <time>2015-11-11T11:11:29.000Z</time>
      </trkpt>
      <trkpt lat="47.49898" lon="6.75725">
        <ele>364</ele>
        <time>2015-11-11T11:11:31.000Z</time>
      </trkpt>
      <trkpt lat="47.499" lon="6.75726">
        <ele>365</ele>
        <time>2015-11-11T11:11:32.000Z</time>
      </trkpt>
      <trkpt lat="47.49903" lon="6.75726">
        <ele>365</ele>
        <time>2015-11-11T11:11:34.000Z</time>
      </trkpt>
      <trkpt lat="47.49905" lon="6.75726">
        <ele>365</ele>
        <time>2015-11-11T11:11:35.000Z</time>
      </trkpt>
      <trkpt lat="47.49909" lon="6.75724">
        <ele>365</ele>
        <time>2015-11-11T11:11:38.000Z</time>
      </trkpt>
      <trkpt lat="47.49911" lon="6.75725">
        <ele>365</ele>
        <time>2015-11-11T11:11:39.000Z</time>
      </trkpt>
      <trkpt lat="47.49914" lon="6.75726">
        <ele>365</ele>
        <time>2015-11-11T11:11:41.000Z</time>
      </trkpt>
      <trkpt lat="47.49916" lon="6.75727">
        <ele>366</ele>
        <time>2015-11-11T11:11:42.000Z</time>
      </trkpt>
      <trkpt lat="47.4992" lon="6.75729">
        <ele>370</ele>
        <time>2015-11-11T11:11:44.000Z</time>
      </trkpt>
      <trkpt lat="47.49922" lon="6.75731">
        <ele>370</ele>
        <time>2015-11-11T11:11:45.001Z</time>
      </trkpt>
      <trkpt lat="47.49926" lon="6.75733">
        <ele>370</ele>
        <time>2015-11-11T11:11:48.000Z</time>
      </trkpt>
      <trkpt lat="47.49927" lon="6.75733">
        <ele>370</ele>
        <time>2015-11-11T11:11:49.000Z</time>
      </trkpt>
      <trkpt lat="47.4993" lon="6.75737">
        <ele>370</ele>
        <time>2015-11-11T11:11:53.000Z</time>
      </trkpt>
      <trkpt lat="47.49931" lon="6.75738">
        <ele>370</ele>
        <time>2015-11-11T11:11:54.000Z</time>
      </trkpt>
      <trkpt lat="47.49932" lon="6.75744">
        <ele>370</ele>
        <time>2015-11-11T11:11:59.000Z</time>
      </trkpt>
      <trkpt lat="47.49933" lon="6.75745">
        <ele>370</ele>
        <time>2015-11-11T11:12:00.000Z</time>
      </trkpt>
      <trkpt lat="47.49935" lon="6.75749">
        <ele>370</ele>
        <time>2015-11-11T11:12:02.000Z</time>
      </trkpt>
      <trkpt lat="47.49937" lon="6.75751">
        <ele>372</ele>
        <time>2015-11-11T11:12:03.000Z</time>
      </trkpt>
      <trkpt lat="47.49939" lon="6.75755">
        <ele>372</ele>
        <time>2015-11-11T11:12:05.000Z</time>
      </trkpt>
      <trkpt lat="47.4994" lon="6.75757">
        <ele>372</ele>
        <time>2015-11-11T11:12:06.000Z</time>
      </trkpt>
      <trkpt lat="47.49941" lon="6.75761">
        <ele>372</ele>
        <time>2015-11-11T11:12:08.000Z</time>
      </trkpt>
      <trkpt lat="47.49942" lon="6.75764">
        <ele>372</ele>
        <time>2015-11-11T11:12:09.000Z</time>
      </trkpt>
      <trkpt lat="47.49944" lon="6.75768">
        <ele>373</ele>
        <time>2015-11-11T11:12:11.000Z</time>
      </trkpt>
      <trkpt lat="47.49945" lon="6.75769">
        <ele>373</ele>
        <time>2015-11-11T11:12:12.000Z</time>
      </trkpt>
      <trkpt lat="47.49948" lon="6.75771">
        <ele>373</ele>
        <time>2015-11-11T11:12:14.000Z</time>
      </trkpt>
      <trkpt lat="47.49949" lon="6.75772">
        <ele>373</ele>
        <time>2015-11-11T11:12:15.000Z</time>
      </trkpt>
      <trkpt lat="47.49951" lon="6.75776">
        <ele>373</ele>
        <time>2015-11-11T11:12:18.000Z</time>
      </trkpt>
      <trkpt lat="47.49952" lon="6.75777">
        <ele>373</ele>
        <time>2015-11-11T11:12:19.000Z</time>
      </trkpt>
      <trkpt lat="47.49955" lon="6.75782">
        <ele>373</ele>
        <time>2015-11-11T11:12:22.001Z</time>
      </trkpt>
      <trkpt lat="47.49958" lon="6.75784">
        <ele>374</ele>
        <time>2015-11-11T11:12:23.000Z</time>
      </trkpt>
      <trkpt lat="47.4996" lon="6.75785">
        <ele>374</ele>
        <time>2015-11-11T11:12:24.000Z</time>
      </trkpt>
      <trkpt lat="47.49962" lon="6.75786">
        <ele>374</ele>
        <time>2015-11-11T11:12:25.000Z</time>
      </trkpt>
      <trkpt lat="47.49964" lon="6.75788">
        <ele>374</ele>
        <time>2015-11-11T11:12:26.000Z</time>
      </trkpt>
      <trkpt lat="47.49967" lon="6.75789">
        <ele>374</ele>
        <time>2015-11-11T11:12:27.000Z</time>
      </trkpt>
      <trkpt lat="47.49971" lon="6.75792">
        <ele>374</ele>
        <time>2015-11-11T11:12:29.000Z</time>
      </trkpt>
      <trkpt lat="47.49972" lon="6.75794">
        <ele>374</ele>
        <time>2015-11-11T11:12:30.000Z</time>
      </trkpt>
      <trkpt lat="47.49974" lon="6.75798">
        <ele>375</ele>
        <time>2015-11-11T11:12:32.000Z</time>
      </trkpt>
      <trkpt lat="47.49975" lon="6.75799">
        <ele>375</ele>
        <time>2015-11-11T11:12:33.000Z</time>
      </trkpt>
      <trkpt lat="47.49976" lon="6.75805">
        <ele>375</ele>
        <time>2015-11-11T11:12:36.000Z</time>
      </trkpt>
      <trkpt lat="47.49977" lon="6.75808">
        <ele>375</ele>
        <time>2015-11-11T11:12:37.000Z</time>
      </trkpt>
      <trkpt lat="47.4998" lon="6.75812">
        <ele>375</ele>
        <time>2015-11-11T11:12:39.000Z</time>
      </trkpt>
      <trkpt lat="47.49981" lon="6.75814">
        <ele>375</ele>
        <time>2015-11-11T11:12:40.000Z</time>
      </trkpt>
      <trkpt lat="47.49983" lon="6.75819">
        <ele>376</ele>
        <time>2015-11-11T11:12:42.000Z</time>
      </trkpt>
      <trkpt lat="47.49984" lon="6.75821">
        <ele>376</ele>
        <time>2015-11-11T11:12:43.000Z</time>
      </trkpt>
      <trkpt lat="47.49987" lon="6.75824">
        <ele>376</ele>
        <time>2015-11-11T11:12:45.000Z</time>
      </trkpt>
      <trkpt lat="47.49988" lon="6.75825">
        <ele>377</ele>
        <time>2015-11-11T11:12:46.000Z</time>
      </trkpt>
      <trkpt lat="47.49992" lon="6.75829">
        <ele>377</ele>
        <time>2015-11-11T11:12:50.000Z</time>
      </trkpt>
      <trkpt lat="47.49993" lon="6.7583">
        <ele>377</ele>
        <time>2015-11-11T11:12:51.000Z</time>
      </trkpt>
      <trkpt lat="47.49996" lon="6.75832">
        <ele>378</ele>
        <time>2015-11-11T11:12:54.000Z</time>
      </trkpt>
      <trkpt lat="47.49997" lon="6.75836">
        <ele>379</ele>
        <time>2015-11-11T11:12:55.000Z</time>
      </trkpt>
      <trkpt lat="47.49999" lon="6.75841">
        <ele>378</ele>
        <time>2015-11-11T11:12:57.000Z</time>
      </trkpt>
      <trkpt lat="47.5" lon="6.75844">
        <ele>378</ele>
        <time>2015-11-11T11:12:58.000Z</time>
      </trkpt>
      <trkpt lat="47.50003" lon="6.75849">
        <ele>378</ele>
        <time>2015-11-11T11:13:00.000Z</time>
      </trkpt>
      <trkpt lat="47.50005" lon="6.75851">
        <ele>377</ele>
        <time>2015-11-11T11:13:01.000Z</time>
      </trkpt>
      <trkpt lat="47.50007" lon="6.75855">
        <ele>377</ele>
        <time>2015-11-11T11:13:03.000Z</time>
      </trkpt>
      <trkpt lat="47.50008" lon="6.75856">
        <ele>377</ele>
        <time>2015-11-11T11:13:04.000Z</time>
      </trkpt>
      <trkpt lat="47.50011" lon="6.7586">
        <ele>377</ele>
        <time>2015-11-11T11:13:06.000Z</time>
      </trkpt>
      <trkpt lat="47.50012" lon="6.75863">
        <ele>377</ele>
        <time>2015-11-11T11:13:07.000Z</time>
      </trkpt>
      <trkpt lat="47.50015" lon="6.75867">
        <ele>377</ele>
        <time>2015-11-11T11:13:09.000Z</time>
      </trkpt>
      <trkpt lat="47.50016" lon="6.75869">
        <ele>377</ele>
        <time>2015-11-11T11:13:10.000Z</time>
      </trkpt>
      <trkpt lat="47.50019" lon="6.75872">
        <ele>377</ele>
        <time>2015-11-11T11:13:12.000Z</time>
      </trkpt>
      <trkpt lat="47.50021" lon="6.75875">
        <ele>377</ele>
        <time>2015-11-11T11:13:13.000Z</time>
      </trkpt>
      <trkpt lat="47.50023" lon="6.7588">
        <ele>377</ele>
        <time>2015-11-11T11:13:15.000Z</time>
      </trkpt>
      <trkpt lat="47.50024" lon="6.75882">
        <ele>376</ele>
        <time>2015-11-11T11:13:16.000Z</time>
      </trkpt>
      <trkpt lat="47.50026" lon="6.75887">
        <ele>376</ele>
        <time>2015-11-11T11:13:18.000Z</time>
      </trkpt>
      <trkpt lat="47.50027" lon="6.75889">
        <ele>376</ele>
        <time>2015-11-11T11:13:19.000Z</time>
      </trkpt>
      <trkpt lat="47.50028" lon="6.75892">
        <ele>376</ele>
        <time>2015-11-11T11:13:20.000Z</time>
      </trkpt>
      <trkpt lat="47.5003" lon="6.75895">
        <ele>376</ele>
        <time>2015-11-11T11:13:21.000Z</time>
      </trkpt>
      <trkpt lat="47.50031" lon="6.75898">
        <ele>376</ele>
        <time>2015-11-11T11:13:22.000Z</time>
      </trkpt>
      <trkpt lat="47.50032" lon="6.75901">
        <ele>376</ele>
        <time>2015-11-11T11:13:23.000Z</time>
      </trkpt>
      <trkpt lat="47.50033" lon="6.75903">
        <ele>376</ele>
        <time>2015-11-11T11:13:24.000Z</time>
      </trkpt>
      <trkpt lat="47.50035" lon="6.75907">
        <ele>376</ele>
        <time>2015-11-11T11:13:25.000Z</time>
      </trkpt>
      <trkpt lat="47.50036" lon="6.7591">
        <ele>376</ele>
        <time>2015-11-11T11:13:26.000Z</time>
      </trkpt>
      <trkpt lat="47.50037" lon="6.75914">
        <ele>376</ele>
        <time>2015-11-11T11:13:27.000Z</time>
      </trkpt>
      <trkpt lat="47.50038" lon="6.75918">
        <ele>378</ele>
        <time>2015-11-11T11:13:28.000Z</time>
      </trkpt>
      <trkpt lat="47.5004" lon="6.75921">
        <ele>378</ele>
        <time>2015-11-11T11:13:29.000Z</time>
      </trkpt>
      <trkpt lat="47.50042" lon="6.75923">
        <ele>378</ele>
        <time>2015-11-11T11:13:30.000Z</time>
      </trkpt>
      <trkpt lat="47.50044" lon="6.75925">
        <ele>378</ele>
        <time>2015-11-11T11:13:31.000Z</time>
      </trkpt>
      <trkpt lat="47.50048" lon="6.75928">
        <ele>378</ele>
        <time>2015-11-11T11:13:33.000Z</time>
      </trkpt>
      <trkpt lat="47.50049" lon="6.7593">
        <ele>378</ele>
        <time>2015-11-11T11:13:34.000Z</time>
      </trkpt>
      <trkpt lat="47.50051" lon="6.75935">
        <ele>378</ele>
        <time>2015-11-11T11:13:36.000Z</time>
      </trkpt>
      <trkpt lat="47.50052" lon="6.75938">
        <ele>378</ele>
        <time>2015-11-11T11:13:37.000Z</time>
      </trkpt>
      <trkpt lat="47.50054" lon="6.75941">
        <ele>378</ele>
        <time>2015-11-11T11:13:38.000Z</time>
      </trkpt>
      <trkpt lat="47.50056" lon="6.75944">
        <ele>378</ele>
        <time>2015-11-11T11:13:39.000Z</time>
      </trkpt>
      <trkpt lat="47.50058" lon="6.75947">
        <ele>378</ele>
        <time>2015-11-11T11:13:40.000Z</time>
      </trkpt>
      <trkpt lat="47.5006" lon="6.7595">
        <ele>378</ele>
        <time>2015-11-11T11:13:41.000Z</time>
      </trkpt>
      <trkpt lat="47.50062" lon="6.75954">
        <ele>378</ele>
        <time>2015-11-11T11:13:42.000Z</time>
      </trkpt>
      <trkpt lat="47.50064" lon="6.75957">
        <ele>378</ele>
        <time>2015-11-11T11:13:43.000Z</time>
      </trkpt>
      <trkpt lat="47.50066" lon="6.75961">
        <ele>378</ele>
        <time>2015-11-11T11:13:44.000Z</time>
      </trkpt>
      <trkpt lat="47.50069" lon="6.75965">
        <ele>379</ele>
        <time>2015-11-11T11:13:45.000Z</time>
      </trkpt>
      <trkpt lat="47.50072" lon="6.75969">
        <ele>379</ele>
        <time>2015-11-11T11:13:46.000Z</time>
      </trkpt>
      <trkpt lat="47.50075" lon="6.75973">
        <ele>379</ele>
        <time>2015-11-11T11:13:47.000Z</time>
      </trkpt>
      <trkpt lat="47.50077" lon="6.75976">
        <ele>379</ele>
        <time>2015-11-11T11:13:48.000Z</time>
      </trkpt>
      <trkpt lat="47.5008" lon="6.75979">
        <ele>379</ele>
        <time>2015-11-11T11:13:49.000Z</time>
      </trkpt>
      <trkpt lat="47.50082" lon="6.75981">
        <ele>379</ele>
        <time>2015-11-11T11:13:50.000Z</time>
      </trkpt>
      <trkpt lat="47.50084" lon="6.75984">
        <ele>376</ele>
        <time>2015-11-11T11:13:51.000Z</time>
      </trkpt>
      <trkpt lat="47.50087" lon="6.75986">
        <ele>377</ele>
        <time>2015-11-11T11:13:52.000Z</time>
      </trkpt>
      <trkpt lat="47.50089" lon="6.75989">
        <ele>377</ele>
        <time>2015-11-11T11:13:53.000Z</time>
      </trkpt>
      <trkpt lat="47.50092" lon="6.75991">
        <ele>377</ele>
        <time>2015-11-11T11:13:54.000Z</time>
      </trkpt>
      <trkpt lat="47.50094" lon="6.75994">
        <ele>377</ele>
        <time>2015-11-11T11:13:55.000Z</time>
      </trkpt>
      <trkpt lat="47.50095" lon="6.75998">
        <ele>377</ele>
        <time>2015-11-11T11:13:56.000Z</time>
      </trkpt>
      <trkpt lat="47.50096" lon="6.76001">
        <ele>379</ele>
        <time>2015-11-11T11:13:57.000Z</time>
      </trkpt>
      <trkpt lat="47.50096" lon="6.76004">
        <ele>379</ele>
        <time>2015-11-11T11:13:58.000Z</time>
      </trkpt>
      <trkpt lat="47.50097" lon="6.76008">
        <ele>379</ele>
        <time>2015-11-11T11:13:59.000Z</time>
      </trkpt>
      <trkpt lat="47.50097" lon="6.76011">
        <ele>379</ele>
        <time>2015-11-11T11:14:00.000Z</time>
      </trkpt>
      <trkpt lat="47.50097" lon="6.76015">
        <ele>379</ele>
        <time>2015-11-11T11:14:01.000Z</time>
      </trkpt>
      <trkpt lat="47.50098" lon="6.76019">
        <ele>379</ele>
        <time>2015-11-11T11:14:02.000Z</time>
      </trkpt>
      <trkpt lat="47.50098" lon="6.76023">
        <ele>379</ele>
        <time>2015-11-11T11:14:03.000Z</time>
      </trkpt>
      <trkpt lat="47.50099" lon="6.76027">
        <ele>379</ele>
        <time>2015-11-11T11:14:04.000Z</time>
      </trkpt>
      <trkpt lat="47.50099" lon="6.7603">
        <ele>380</ele>
        <time>2015-11-11T11:14:05.000Z</time>
      </trkpt>
      <trkpt lat="47.501" lon="6.76033">
        <ele>380</ele>
        <time>2015-11-11T11:14:06.000Z</time>
      </trkpt>
      <trkpt lat="47.50101" lon="6.76038">
        <ele>380</ele>
        <time>2015-11-11T11:14:07.000Z</time>
      </trkpt>
      <trkpt lat="47.50101" lon="6.76041">
        <ele>380</ele>
        <time>2015-11-11T11:14:08.000Z</time>
      </trkpt>
      <trkpt lat="47.50101" lon="6.76046">
        <ele>380</ele>
        <time>2015-11-11T11:14:09.000Z</time>
      </trkpt>
      <trkpt lat="47.50104" lon="6.76051">
        <ele>381</ele>
        <time>2015-11-11T11:14:11.000Z</time>
      </trkpt>
      <trkpt lat="47.50106" lon="6.76052">
        <ele>381</ele>
        <time>2015-11-11T11:14:12.000Z</time>
      </trkpt>
      <trkpt lat="47.50108" lon="6.76054">
        <ele>380</ele>
        <time>2015-11-11T11:14:13.000Z</time>
      </trkpt>
      <trkpt lat="47.5011" lon="6.76056">
        <ele>380</ele>
        <time>2015-11-11T11:14:14.000Z</time>
      </trkpt>
      <trkpt lat="47.50112" lon="6.76059">
        <ele>380</ele>
        <time>2015-11-11T11:14:15.000Z</time>
      </trkpt>
      <trkpt lat="47.50112" lon="6.76063">
        <ele>381</ele>
        <time>2015-11-11T11:14:16.000Z</time>
      </trkpt>
      <trkpt lat="47.50111" lon="6.76068">
        <ele>381</ele>
        <time>2015-11-11T11:14:17.000Z</time>
      </trkpt>
      <trkpt lat="47.50109" lon="6.76073">
        <ele>382</ele>
        <time>2015-11-11T11:14:18.000Z</time>
      </trkpt>
      <trkpt lat="47.50108" lon="6.76078">
        <ele>382</ele>
        <time>2015-11-11T11:14:19.000Z</time>
      </trkpt>
      <trkpt lat="47.50106" lon="6.76088">
        <ele>386</ele>
        <time>2015-11-11T11:14:21.000Z</time>
      </trkpt>
      <trkpt lat="47.50103" lon="6.76092">
        <ele>386</ele>
        <time>2015-11-11T11:14:22.000Z</time>
      </trkpt>
      <trkpt lat="47.501" lon="6.76095">
        <ele>386</ele>
        <time>2015-11-11T11:14:23.000Z</time>
      </trkpt>
      <trkpt lat="47.50098" lon="6.76098">
        <ele>386</ele>
        <time>2015-11-11T11:14:24.000Z</time>
      </trkpt>
      <trkpt lat="47.50095" lon="6.76101">
        <ele>386</ele>
        <time>2015-11-11T11:14:25.000Z</time>
      </trkpt>
      <trkpt lat="47.50093" lon="6.76106">
        <ele>386</ele>
        <time>2015-11-11T11:14:27.000Z</time>
      </trkpt>
      <trkpt lat="47.50094" lon="6.76109">
        <ele>386</ele>
        <time>2015-11-11T11:14:28.000Z</time>
      </trkpt>
      <trkpt lat="47.50094" lon="6.76111">
        <ele>386</ele>
        <time>2015-11-11T11:14:29.000Z</time>
      </trkpt>
      <trkpt lat="47.50096" lon="6.76116">
        <ele>386</ele>
        <time>2015-11-11T11:14:30.000Z</time>
      </trkpt>
      <trkpt lat="47.50097" lon="6.76119">
        <ele>386</ele>
        <time>2015-11-11T11:14:31.000Z</time>
      </trkpt>
      <trkpt lat="47.50099" lon="6.76123">
        <ele>386</ele>
        <time>2015-11-11T11:14:32.000Z</time>
      </trkpt>
      <trkpt lat="47.501" lon="6.76127">
        <ele>386</ele>
        <time>2015-11-11T11:14:33.000Z</time>
      </trkpt>
      <trkpt lat="47.50102" lon="6.76131">
        <ele>386</ele>
        <time>2015-11-11T11:14:34.000Z</time>
      </trkpt>
      <trkpt lat="47.50104" lon="6.76134">
        <ele>387</ele>
        <time>2015-11-11T11:14:35.000Z</time>
      </trkpt>
      <trkpt lat="47.50106" lon="6.76137">
        <ele>387</ele>
        <time>2015-11-11T11:14:36.000Z</time>
      </trkpt>
      <trkpt lat="47.50108" lon="6.76141">
        <ele>387</ele>
        <time>2015-11-11T11:14:37.000Z</time>
      </trkpt>
      <trkpt lat="47.5011" lon="6.76144">
        <ele>386</ele>
        <time>2015-11-11T11:14:38.000Z</time>
      </trkpt>
      <trkpt lat="47.50113" lon="6.76148">
        <ele>386</ele>
        <time>2015-11-11T11:14:39.000Z</time>
      </trkpt>
      <trkpt lat="47.50115" lon="6.76151">
        <ele>386</ele>
        <time>2015-11-11T11:14:40.000Z</time>
      </trkpt>
      <trkpt lat="47.50116" lon="6.76154">
        <ele>386</ele>
        <time>2015-11-11T11:14:41.000Z</time>
      </trkpt>
      <trkpt lat="47.50117" lon="6.76157">
        <ele>386</ele>
        <time>2015-11-11T11:14:42.000Z</time>
      </trkpt>
      <trkpt lat="47.50119" lon="6.76163">
        <ele>386</ele>
        <time>2015-11-11T11:14:44.000Z</time>
      </trkpt>
      <trkpt lat="47.5012" lon="6.76166">
        <ele>386</ele>
        <time>2015-11-11T11:14:45.000Z</time>
      </trkpt>
      <trkpt lat="47.5012" lon="6.76173">
        <ele>390</ele>
        <time>2015-11-11T11:14:47.000Z</time>
      </trkpt>
      <trkpt lat="47.5012" lon="6.76176">
        <ele>390</ele>
        <time>2015-11-11T11:14:48.000Z</time>
      </trkpt>
      <trkpt lat="47.50121" lon="6.76179">
        <ele>390</ele>
        <time>2015-11-11T11:14:49.000Z</time>
      </trkpt>
      <trkpt lat="47.50123" lon="6.76182">
        <ele>390</ele>
        <time>2015-11-11T11:14:50.000Z</time>
      </trkpt>
      <trkpt lat="47.50126" lon="6.76187">
        <ele>389</ele>
        <time>2015-11-11T11:14:52.000Z</time>
      </trkpt>
      <trkpt lat="47.50127" lon="6.7619">
        <ele>389</ele>
        <time>2015-11-11T11:14:53.000Z</time>
      </trkpt>
      <trkpt lat="47.50127" lon="6.76193">
        <ele>390</ele>
        <time>2015-11-11T11:14:54.000Z</time>
      </trkpt>
      <trkpt lat="47.50128" lon="6.76196">
        <ele>390</ele>
        <time>2015-11-11T11:14:55.000Z</time>
      </trkpt>
      <trkpt lat="47.50131" lon="6.76199">
        <ele>389</ele>
        <time>2015-11-11T11:14:56.000Z</time>
      </trkpt>
      <trkpt lat="47.50134" lon="6.76202">
        <ele>389</ele>
        <time>2015-11-11T11:14:57.000Z</time>
      </trkpt>
      <trkpt lat="47.50137" lon="6.76205">
        <ele>389</ele>
        <time>2015-11-11T11:14:58.000Z</time>
      </trkpt>
      <trkpt lat="47.5014" lon="6.76209">
        <ele>389</ele>
        <time>2015-11-11T11:14:59.000Z</time>
      </trkpt>
      <trkpt lat="47.50142" lon="6.76214">
        <ele>389</ele>
        <time>2015-11-11T11:15:00.000Z</time>
      </trkpt>
      <trkpt lat="47.50143" lon="6.76218">
        <ele>389</ele>
        <time>2015-11-11T11:15:01.000Z</time>
      </trkpt>
      <trkpt lat="47.50144" lon="6.76221">
        <ele>389</ele>
        <time>2015-11-11T11:15:02.001Z</time>
      </trkpt>
      <trkpt lat="47.50144" lon="6.76229">
        <ele>389</ele>
        <time>2015-11-11T11:15:03.000Z</time>
      </trkpt>
      <trkpt lat="47.50145" lon="6.76234">
        <ele>389</ele>
        <time>2015-11-11T11:15:04.000Z</time>
      </trkpt>
      <trkpt lat="47.50145" lon="6.76239">
        <ele>389</ele>
        <time>2015-11-11T11:15:05.000Z</time>
      </trkpt>
      <trkpt lat="47.50145" lon="6.76243">
        <ele>389</ele>
        <time>2015-11-11T11:15:06.000Z</time>
      </trkpt>
      <trkpt lat="47.50144" lon="6.76247">
        <ele>389</ele>
        <time>2015-11-11T11:15:07.000Z</time>
      </trkpt>
      <trkpt lat="47.50144" lon="6.76251">
        <ele>393</ele>
        <time>2015-11-11T11:15:08.000Z</time>
      </trkpt>
      <trkpt lat="47.50143" lon="6.76255">
        <ele>393</ele>
        <time>2015-11-11T11:15:09.000Z</time>
      </trkpt>
      <trkpt lat="47.50142" lon="6.76258">
        <ele>393</ele>
        <time>2015-11-11T11:15:10.000Z</time>
      </trkpt>
      <trkpt lat="47.50142" lon="6.76262">
        <ele>394</ele>
        <time>2015-11-11T11:15:11.000Z</time>
      </trkpt>
      <trkpt lat="47.50143" lon="6.76267">
        <ele>394</ele>
        <time>2015-11-11T11:15:13.000Z</time>
      </trkpt>
      <trkpt lat="47.50143" lon="6.76269">
        <ele>394</ele>
        <time>2015-11-11T11:15:14.000Z</time>
      </trkpt>
      <trkpt lat="47.50143" lon="6.76274">
        <ele>394</ele>
        <time>2015-11-11T11:15:17.000Z</time>
      </trkpt>
      <trkpt lat="47.50143" lon="6.76276">
        <ele>395</ele>
        <time>2015-11-11T11:15:18.000Z</time>
      </trkpt>
      <trkpt lat="47.50146" lon="6.76281">
        <ele>395</ele>
        <time>2015-11-11T11:15:20.000Z</time>
      </trkpt>
      <trkpt lat="47.50148" lon="6.76284">
        <ele>395</ele>
        <time>2015-11-11T11:15:21.000Z</time>
      </trkpt>
      <trkpt lat="47.50149" lon="6.76287">
        <ele>395</ele>
        <time>2015-11-11T11:15:22.000Z</time>
      </trkpt>
      <trkpt lat="47.5015" lon="6.76291">
        <ele>395</ele>
        <time>2015-11-11T11:15:23.000Z</time>
      </trkpt>
      <trkpt lat="47.50151" lon="6.76294">
        <ele>395</ele>
        <time>2015-11-11T11:15:24.000Z</time>
      </trkpt>
      <trkpt lat="47.50152" lon="6.76297">
        <ele>395</ele>
        <time>2015-11-11T11:15:25.000Z</time>
      </trkpt>
      <trkpt lat="47.50154" lon="6.76303">
        <ele>395</ele>
        <time>2015-11-11T11:15:27.000Z</time>
      </trkpt>
      <trkpt lat="47.50156" lon="6.76305">
        <ele>395</ele>
        <time>2015-11-11T11:15:28.000Z</time>
      </trkpt>
      <trkpt lat="47.50157" lon="6.7631">
        <ele>395</ele>
        <time>2015-11-11T11:15:30.000Z</time>
      </trkpt>
      <trkpt lat="47.50157" lon="6.76312">
        <ele>394</ele>
        <time>2015-11-11T11:15:31.000Z</time>
      </trkpt>
      <trkpt lat="47.50158" lon="6.76318">
        <ele>394</ele>
        <time>2015-11-11T11:15:33.000Z</time>
      </trkpt>
      <trkpt lat="47.50158" lon="6.76321">
        <ele>394</ele>
        <time>2015-11-11T11:15:34.000Z</time>
      </trkpt>
      <trkpt lat="47.5016" lon="6.76326">
        <ele>393</ele>
        <time>2015-11-11T11:15:36.000Z</time>
      </trkpt>
      <trkpt lat="47.50161" lon="6.76329">
        <ele>393</ele>
        <time>2015-11-11T11:15:37.000Z</time>
      </trkpt>
      <trkpt lat="47.50163" lon="6.76335">
        <ele>393</ele>
        <time>2015-11-11T11:15:39.000Z</time>
      </trkpt>
      <trkpt lat="47.50163" lon="6.76337">
        <ele>393</ele>
        <time>2015-11-11T11:15:40.000Z</time>
      </trkpt>
      <trkpt lat="47.50166" lon="6.76341">
        <ele>394</ele>
        <time>2015-11-11T11:15:42.000Z</time>
      </trkpt>
      <trkpt lat="47.50167" lon="6.76344">
        <ele>391</ele>
        <time>2015-11-11T11:15:43.000Z</time>
      </trkpt>
      <trkpt lat="47.50169" lon="6.76349">
        <ele>390</ele>
        <time>2015-11-11T11:15:45.000Z</time>
      </trkpt>
      <trkpt lat="47.50171" lon="6.76352">
        <ele>390</ele>
        <time>2015-11-11T11:15:46.000Z</time>
      </trkpt>
      <trkpt lat="47.50172" lon="6.76356">
        <ele>390</ele>
        <time>2015-11-11T11:15:47.000Z</time>
      </trkpt>
      <trkpt lat="47.50173" lon="6.7636">
        <ele>390</ele>
        <time>2015-11-11T11:15:48.000Z</time>
      </trkpt>
      <trkpt lat="47.50174" lon="6.76364">
        <ele>391</ele>
        <time>2015-11-11T11:15:49.000Z</time>
      </trkpt>
      <trkpt lat="47.50174" lon="6.76367">
        <ele>391</ele>
        <time>2015-11-11T11:15:50.000Z</time>
      </trkpt>
      <trkpt lat="47.50175" lon="6.76374">
        <ele>391</ele>
        <time>2015-11-11T11:15:52.000Z</time>
      </trkpt>
      <trkpt lat="47.50176" lon="6.76376">
        <ele>391</ele>
        <time>2015-11-11T11:15:53.000Z</time>
      </trkpt>
      <trkpt lat="47.50177" lon="6.76382">
        <ele>391</ele>
        <time>2015-11-11T11:15:55.000Z</time>
      </trkpt>
      <trkpt lat="47.50178" lon="6.76384">
        <ele>392</ele>
        <time>2015-11-11T11:15:56.000Z</time>
      </trkpt>
      <trkpt lat="47.5018" lon="6.76388">
        <ele>392</ele>
        <time>2015-11-11T11:15:57.000Z</time>
      </trkpt>
      <trkpt lat="47.50181" lon="6.7639">
        <ele>392</ele>
        <time>2015-11-11T11:15:58.000Z</time>
      </trkpt>
      <trkpt lat="47.50183" lon="6.76393">
        <ele>392</ele>
        <time>2015-11-11T11:15:59.000Z</time>
      </trkpt>
      <trkpt lat="47.50185" lon="6.76395">
        <ele>392</ele>
        <time>2015-11-11T11:16:00.000Z</time>
      </trkpt>
      <trkpt lat="47.50188" lon="6.764">
        <ele>392</ele>
        <time>2015-11-11T11:16:02.000Z</time>
      </trkpt>
      <trkpt lat="47.50189" lon="6.76403">
        <ele>392</ele>
        <time>2015-11-11T11:16:03.000Z</time>
      </trkpt>
      <trkpt lat="47.50189" lon="6.76408">
        <ele>393</ele>
        <time>2015-11-11T11:16:05.000Z</time>
      </trkpt>
      <trkpt lat="47.50189" lon="6.76411">
        <ele>393</ele>
        <time>2015-11-11T11:16:06.000Z</time>
      </trkpt>
      <trkpt lat="47.5019" lon="6.76413">
        <ele>393</ele>
        <time>2015-11-11T11:16:07.000Z</time>
      </trkpt>
      <trkpt lat="47.5019" lon="6.76417">
        <ele>396</ele>
        <time>2015-11-11T11:16:08.000Z</time>
      </trkpt>
      <trkpt lat="47.50191" lon="6.76421">
        <ele>396</ele>
        <time>2015-11-11T11:16:09.000Z</time>
      </trkpt>
      <trkpt lat="47.50192" lon="6.76425">
        <ele>396</ele>
        <time>2015-11-11T11:16:10.000Z</time>
      </trkpt>
      <trkpt lat="47.50193" lon="6.76429">
        <ele>396</ele>
        <time>2015-11-11T11:16:11.000Z</time>
      </trkpt>
      <trkpt lat="47.50195" lon="6.76433">
        <ele>396</ele>
        <time>2015-11-11T11:16:12.000Z</time>
      </trkpt>
      <trkpt lat="47.50197" lon="6.76436">
        <ele>395</ele>
        <time>2015-11-11T11:16:13.000Z</time>
      </trkpt>
      <trkpt lat="47.50199" lon="6.76439">
        <ele>395</ele>
        <time>2015-11-11T11:16:14.000Z</time>
      </trkpt>
      <trkpt lat="47.50201" lon="6.76442">
        <ele>395</ele>
        <time>2015-11-11T11:16:15.000Z</time>
      </trkpt>
      <trkpt lat="47.50203" lon="6.76444">
        <ele>395</ele>
        <time>2015-11-11T11:16:16.000Z</time>
      </trkpt>
      <trkpt lat="47.50204" lon="6.76446">
        <ele>395</ele>
        <time>2015-11-11T11:16:17.000Z</time>
      </trkpt>
      <trkpt lat="47.50206" lon="6.76448">
        <ele>395</ele>
        <time>2015-11-11T11:16:18.000Z</time>
      </trkpt>
      <trkpt lat="47.50208" lon="6.76452">
        <ele>395</ele>
        <time>2015-11-11T11:16:19.000Z</time>
      </trkpt>
      <trkpt lat="47.50209" lon="6.76456">
        <ele>395</ele>
        <time>2015-11-11T11:16:20.000Z</time>
      </trkpt>
      <trkpt lat="47.5021" lon="6.76459">
        <ele>395</ele>
        <time>2015-11-11T11:16:21.000Z</time>
      </trkpt>
      <trkpt lat="47.5021" lon="6.76463">
        <ele>395</ele>
        <time>2015-11-11T11:16:22.000Z</time>
      </trkpt>
      <trkpt lat="47.50211" lon="6.76467">
        <ele>395</ele>
        <time>2015-11-11T11:16:23.000Z</time>
      </trkpt>
      <trkpt lat="47.50212" lon="6.76471">
        <ele>396</ele>
        <time>2015-11-11T11:16:24.000Z</time>
      </trkpt>
      <trkpt lat="47.50213" lon="6.76476">
        <ele>396</ele>
        <time>2015-11-11T11:16:25.000Z</time>
      </trkpt>
      <trkpt lat="47.50214" lon="6.76481">
        <ele>396</ele>
        <time>2015-11-11T11:16:26.000Z</time>
      </trkpt>
      <trkpt lat="47.50216" lon="6.76487">
        <ele>396</ele>
        <time>2015-11-11T11:16:27.000Z</time>
      </trkpt>
      <trkpt lat="47.50217" lon="6.76492">
        <ele>395</ele>
        <time>2015-11-11T11:16:28.000Z</time>
      </trkpt>
      <trkpt lat="47.50219" lon="6.76498">
        <ele>395</ele>
        <time>2015-11-11T11:16:29.000Z</time>
      </trkpt>
      <trkpt lat="47.5022" lon="6.76504">
        <ele>399</ele>
        <time>2015-11-11T11:16:30.000Z</time>
      </trkpt>
      <trkpt lat="47.5022" lon="6.76509">
        <ele>399</ele>
        <time>2015-11-11T11:16:31.000Z</time>
      </trkpt>
      <trkpt lat="47.5022" lon="6.76514">
        <ele>399</ele>
        <time>2015-11-11T11:16:32.000Z</time>
      </trkpt>
      <trkpt lat="47.5022" lon="6.76519">
        <ele>399</ele>
        <time>2015-11-11T11:16:33.000Z</time>
      </trkpt>
      <trkpt lat="47.5022" lon="6.76523">
        <ele>399</ele>
        <time>2015-11-11T11:16:34.000Z</time>
      </trkpt>
      <trkpt lat="47.5022" lon="6.76527">
        <ele>399</ele>
        <time>2015-11-11T11:16:35.000Z</time>
      </trkpt>
      <trkpt lat="47.50219" lon="6.7653">
        <ele>400</ele>
        <time>2015-11-11T11:16:36.000Z</time>
      </trkpt>
      <trkpt lat="47.50218" lon="6.76536">
        <ele>400</ele>
        <time>2015-11-11T11:16:38.000Z</time>
      </trkpt>
      <trkpt lat="47.50217" lon="6.76539">
        <ele>400</ele>
        <time>2015-11-11T11:16:39.000Z</time>
      </trkpt>
      <trkpt lat="47.50214" lon="6.76542">
        <ele>400</ele>
        <time>2015-11-11T11:16:41.000Z</time>
      </trkpt>
      <trkpt lat="47.50212" lon="6.76543">
        <ele>401</ele>
        <time>2015-11-11T11:16:42.000Z</time>
      </trkpt>
      <trkpt lat="47.50208" lon="6.76546">
        <ele>401</ele>
        <time>2015-11-11T11:16:44.000Z</time>
      </trkpt>
      <trkpt lat="47.50206" lon="6.76547">
        <ele>401</ele>
        <time>2015-11-11T11:16:45.000Z</time>
      </trkpt>
      <trkpt lat="47.50202" lon="6.76549">
        <ele>401</ele>
        <time>2015-11-11T11:16:48.000Z</time>
      </trkpt>
      <trkpt lat="47.50201" lon="6.76549">
        <ele>401</ele>
        <time>2015-11-11T11:16:49.000Z</time>
      </trkpt>
      <trkpt lat="47.50198" lon="6.76553">
        <ele>402</ele>
        <time>2015-11-11T11:16:52.000Z</time>
      </trkpt>
      <trkpt lat="47.50198" lon="6.76554">
        <ele>402</ele>
        <time>2015-11-11T11:16:53.000Z</time>
      </trkpt>
      <trkpt lat="47.50194" lon="6.76555">
        <ele>402</ele>
        <time>2015-11-11T11:18:19.000Z</time>
      </trkpt>
      <trkpt lat="47.50194" lon="6.76557">
        <ele>402</ele>
        <time>2015-11-11T11:18:20.000Z</time>
      </trkpt>
      <trkpt lat="47.50194" lon="6.76561">
        <ele>402</ele>
        <time>2015-11-11T11:18:22.000Z</time>
      </trkpt>
      <trkpt lat="47.50194" lon="6.76564">
        <ele>402</ele>
        <time>2015-11-11T11:18:23.000Z</time>
      </trkpt>
      <trkpt lat="47.50195" lon="6.76571">
        <ele>402</ele>
        <time>2015-11-11T11:18:24.999Z</time>
      </trkpt>
      <trkpt lat="47.50196" lon="6.76576">
        <ele>402</ele>
        <time>2015-11-11T11:18:26.000Z</time>
      </trkpt>
      <trkpt lat="47.50197" lon="6.7658">
        <ele>402</ele>
        <time>2015-11-11T11:18:27.000Z</time>
      </trkpt>
      <trkpt lat="47.50197" lon="6.76585">
        <ele>403</ele>
        <time>2015-11-11T11:18:28.000Z</time>
      </trkpt>
      <trkpt lat="47.50198" lon="6.76589">
        <ele>403</ele>
        <time>2015-11-11T11:18:29.000Z</time>
      </trkpt>
      <trkpt lat="47.50198" lon="6.76593">
        <ele>403</ele>
        <time>2015-11-11T11:18:30.000Z</time>
      </trkpt>
      <trkpt lat="47.50199" lon="6.76597">
        <ele>403</ele>
        <time>2015-11-11T11:18:31.000Z</time>
      </trkpt>
      <trkpt lat="47.502" lon="6.766">
        <ele>403</ele>
        <time>2015-11-11T11:18:32.000Z</time>
      </trkpt>
      <trkpt lat="47.50201" lon="6.76604">
        <ele>403</ele>
        <time>2015-11-11T11:18:33.000Z</time>
      </trkpt>
      <trkpt lat="47.50202" lon="6.76608">
        <ele>402</ele>
        <time>2015-11-11T11:18:34.000Z</time>
      </trkpt>
      <trkpt lat="47.50203" lon="6.76612">
        <ele>402</ele>
        <time>2015-11-11T11:18:35.000Z</time>
      </trkpt>
      <trkpt lat="47.50204" lon="6.76617">
        <ele>402</ele>
        <time>2015-11-11T11:18:36.000Z</time>
      </trkpt>
      <trkpt lat="47.50205" lon="6.76621">
        <ele>402</ele>
        <time>2015-11-11T11:18:37.000Z</time>
      </trkpt>
      <trkpt lat="47.50207" lon="6.76625">
        <ele>402</ele>
        <time>2015-11-11T11:18:38.000Z</time>
      </trkpt>
      <trkpt lat="47.50208" lon="6.76629">
        <ele>402</ele>
        <time>2015-11-11T11:18:39.000Z</time>
      </trkpt>
      <trkpt lat="47.50209" lon="6.76633">
        <ele>402</ele>
        <time>2015-11-11T11:18:40.000Z</time>
      </trkpt>
      <trkpt lat="47.5021" lon="6.76637">
        <ele>402</ele>
        <time>2015-11-11T11:18:41.000Z</time>
      </trkpt>
      <trkpt lat="47.50211" lon="6.76642">
        <ele>402</ele>
        <time>2015-11-11T11:18:42.000Z</time>
      </trkpt>
      <trkpt lat="47.50213" lon="6.76646">
        <ele>402</ele>
        <time>2015-11-11T11:18:43.000Z</time>
      </trkpt>
      <trkpt lat="47.50214" lon="6.76651">
        <ele>402</ele>
        <time>2015-11-11T11:18:44.000Z</time>
      </trkpt>
      <trkpt lat="47.50215" lon="6.76656">
        <ele>402</ele>
        <time>2015-11-11T11:18:45.000Z</time>
      </trkpt>
      <trkpt lat="47.50217" lon="6.7666">
        <ele>401</ele>
        <time>2015-11-11T11:18:46.000Z</time>
      </trkpt>
      <trkpt lat="47.50218" lon="6.76665">
        <ele>401</ele>
        <time>2015-11-11T11:18:47.000Z</time>
      </trkpt>
      <trkpt lat="47.50219" lon="6.76669">
        <ele>401</ele>
        <time>2015-11-11T11:18:48.000Z</time>
      </trkpt>
      <trkpt lat="47.5022" lon="6.76674">
        <ele>401</ele>
        <time>2015-11-11T11:20:25.000Z</time>
      </trkpt>
      <trkpt lat="47.50221" lon="6.76677">
        <ele>401</ele>
        <time>2015-11-11T11:20:26.000Z</time>
      </trkpt>
      <trkpt lat="47.50222" lon="6.7668">
        <ele>401</ele>
        <time>2015-11-11T11:20:27.000Z</time>
      </trkpt>
      <trkpt lat="47.50223" lon="6.76683">
        <ele>401</ele>
        <time>2015-11-11T11:20:28.000Z</time>
      </trkpt>
      <trkpt lat="47.50224" lon="6.76687">
        <ele>401</ele>
        <time>2015-11-11T11:20:29.000Z</time>
      </trkpt>
      <trkpt lat="47.50225" lon="6.76691">
        <ele>401</ele>
        <time>2015-11-11T11:20:30.000Z</time>
      </trkpt>
      <trkpt lat="47.50227" lon="6.76694">
        <ele>401</ele>
        <time>2015-11-11T11:20:31.000Z</time>
      </trkpt>
      <trkpt lat="47.50228" lon="6.76698">
        <ele>402</ele>
        <time>2015-11-11T11:20:32.000Z</time>
      </trkpt>
      <trkpt lat="47.50229" lon="6.76701">
        <ele>402</ele>
        <time>2015-11-11T11:20:33.000Z</time>
      </trkpt>
      <trkpt lat="47.5023" lon="6.76704">
        <ele>402</ele>
        <time>2015-11-11T11:20:34.000Z</time>
      </trkpt>
      <trkpt lat="47.50231" lon="6.76708">
        <ele>402</ele>
        <time>2015-11-11T11:20:35.000Z</time>
      </trkpt>
      <trkpt lat="47.50233" lon="6.76711">
        <ele>402</ele>
        <time>2015-11-11T11:20:36.000Z</time>
      </trkpt>
      <trkpt lat="47.50234" lon="6.76714">
        <ele>402</ele>
        <time>2015-11-11T11:20:37.000Z</time>
      </trkpt>
      <trkpt lat="47.50235" lon="6.76718">
        <ele>401</ele>
        <time>2015-11-11T11:20:38.000Z</time>
      </trkpt>
      <trkpt lat="47.50236" lon="6.76721">
        <ele>401</ele>
        <time>2015-11-11T11:20:38.999Z</time>
      </trkpt>
      <trkpt lat="47.50238" lon="6.76724">
        <ele>401</ele>
        <time>2015-11-11T11:20:40.001Z</time>
      </trkpt>
      <trkpt lat="47.50239" lon="6.76727">
        <ele>401</ele>
        <time>2015-11-11T11:20:41.000Z</time>
      </trkpt>
      <trkpt lat="47.5024" lon="6.76731">
        <ele>401</ele>
        <time>2015-11-11T11:20:42.000Z</time>
      </trkpt>
      <trkpt lat="47.50242" lon="6.76734">
        <ele>401</ele>
        <time>2015-11-11T11:20:43.000Z</time>
      </trkpt>
      <trkpt lat="47.50242" lon="6.76738">
        <ele>401</ele>
        <time>2015-11-11T11:20:44.000Z</time>
      </trkpt>
      <trkpt lat="47.50243" lon="6.76741">
        <ele>401</ele>
        <time>2015-11-11T11:20:45.000Z</time>
      </trkpt>
      <trkpt lat="47.50244" lon="6.76745">
        <ele>401</ele>
        <time>2015-11-11T11:20:46.000Z</time>
      </trkpt>
      <trkpt lat="47.50245" lon="6.76748">
        <ele>400</ele>
        <time>2015-11-11T11:20:47.000Z</time>
      </trkpt>
      <trkpt lat="47.50247" lon="6.76751">
        <ele>400</ele>
        <time>2015-11-11T11:20:48.000Z</time>
      </trkpt>
      <trkpt lat="47.5025" lon="6.76751">
        <ele>400</ele>
        <time>2015-11-11T11:20:49.000Z</time>
      </trkpt>
      <trkpt lat="47.50253" lon="6.76752">
        <ele>399</ele>
        <time>2015-11-11T11:20:50.000Z</time>
      </trkpt>
      <trkpt lat="47.50258" lon="6.76751">
        <ele>399</ele>
        <time>2015-11-11T11:20:51.000Z</time>
      </trkpt>
      <trkpt lat="47.50262" lon="6.7675">
        <ele>399</ele>
        <time>2015-11-11T11:20:52.000Z</time>
      </trkpt>
      <trkpt lat="47.50266" lon="6.76747">
        <ele>399</ele>
        <time>2015-11-11T11:20:53.000Z</time>
      </trkpt>
      <trkpt lat="47.5027" lon="6.76745">
        <ele>399</ele>
        <time>2015-11-11T11:20:54.000Z</time>
      </trkpt>
      <trkpt lat="47.50274" lon="6.76743">
        <ele>399</ele>
        <time>2015-11-11T11:20:55.000Z</time>
      </trkpt>
      <trkpt lat="47.50278" lon="6.76741">
        <ele>399</ele>
        <time>2015-11-11T11:20:56.000Z</time>
      </trkpt>
      <trkpt lat="47.50282" lon="6.76739">
        <ele>399</ele>
        <time>2015-11-11T11:20:57.000Z</time>
      </trkpt>
      <trkpt lat="47.50286" lon="6.76737">
        <ele>399</ele>
        <time>2015-11-11T11:20:58.000Z</time>
      </trkpt>
      <trkpt lat="47.5029" lon="6.76736">
        <ele>399</ele>
        <time>2015-11-11T11:20:59.000Z</time>
      </trkpt>
      <trkpt lat="47.50293" lon="6.76736">
        <ele>399</ele>
        <time>2015-11-11T11:21:00.000Z</time>
      </trkpt>
      <trkpt lat="47.50297" lon="6.76735">
        <ele>399</ele>
        <time>2015-11-11T11:21:01.000Z</time>
      </trkpt>
      <trkpt lat="47.50299" lon="6.76734">
        <ele>399</ele>
        <time>2015-11-11T11:21:02.000Z</time>
      </trkpt>
      <trkpt lat="47.50301" lon="6.76733">
        <ele>398</ele>
        <time>2015-11-11T11:21:03.000Z</time>
      </trkpt>
      <trkpt lat="47.50306" lon="6.76731">
        <ele>398</ele>
        <time>2015-11-11T11:21:05.000Z</time>
      </trkpt>
      <trkpt lat="47.50309" lon="6.76729">
        <ele>398</ele>
        <time>2015-11-11T11:21:06.000Z</time>
      </trkpt>
      <trkpt lat="47.50313" lon="6.76728">
        <ele>398</ele>
        <time>2015-11-11T11:21:07.000Z</time>
      </trkpt>
      <trkpt lat="47.50322" lon="6.76725">
        <ele>398</ele>
        <time>2015-11-11T11:21:08.000Z</time>
      </trkpt>
      <trkpt lat="47.50327" lon="6.76723">
        <ele>398</ele>
        <time>2015-11-11T11:21:09.000Z</time>
      </trkpt>
      <trkpt lat="47.50332" lon="6.76722">
        <ele>398</ele>
        <time>2015-11-11T11:21:10.000Z</time>
      </trkpt>
      <trkpt lat="47.50337" lon="6.76721">
        <ele>398</ele>
        <time>2015-11-11T11:21:11.000Z</time>
      </trkpt>
      <trkpt lat="47.50341" lon="6.76719">
        <ele>398</ele>
        <time>2015-11-11T11:21:12.000Z</time>
      </trkpt>
      <trkpt lat="47.50345" lon="6.76718">
        <ele>398</ele>
        <time>2015-11-11T11:21:13.000Z</time>
      </trkpt>
      <trkpt lat="47.5035" lon="6.76717">
        <ele>398</ele>
        <time>2015-11-11T11:21:14.000Z</time>
      </trkpt>
      <trkpt lat="47.50354" lon="6.76716">
        <ele>398</ele>
        <time>2015-11-11T11:21:15.000Z</time>
      </trkpt>
      <trkpt lat="47.50358" lon="6.76714">
        <ele>398</ele>
        <time>2015-11-11T11:21:16.000Z</time>
      </trkpt>
      <trkpt lat="47.50361" lon="6.76712">
        <ele>398</ele>
        <time>2015-11-11T11:21:17.000Z</time>
      </trkpt>
      <trkpt lat="47.50366" lon="6.76711">
        <ele>398</ele>
        <time>2015-11-11T11:21:18.000Z</time>
      </trkpt>
      <trkpt lat="47.50369" lon="6.76709">
        <ele>398</ele>
        <time>2015-11-11T11:21:19.000Z</time>
      </trkpt>
      <trkpt lat="47.50373" lon="6.76707">
        <ele>397</ele>
        <time>2015-11-11T11:21:20.000Z</time>
      </trkpt>
      <trkpt lat="47.50377" lon="6.76706">
        <ele>397</ele>
        <time>2015-11-11T11:21:21.000Z</time>
      </trkpt>
      <trkpt lat="47.50381" lon="6.76704">
        <ele>397</ele>
        <time>2015-11-11T11:21:22.000Z</time>
      </trkpt>
      <trkpt lat="47.50384" lon="6.76701">
        <ele>397</ele>
        <time>2015-11-11T11:21:23.000Z</time>
      </trkpt>
      <trkpt lat="47.50388" lon="6.767">
        <ele>397</ele>
        <time>2015-11-11T11:21:24.001Z</time>
      </trkpt>
      <trkpt lat="47.50391" lon="6.76698">
        <ele>397</ele>
        <time>2015-11-11T11:21:25.000Z</time>
      </trkpt>
      <trkpt lat="47.50395" lon="6.76696">
        <ele>397</ele>
        <time>2015-11-11T11:21:26.000Z</time>
      </trkpt>
      <trkpt lat="47.50398" lon="6.76694">
        <ele>397</ele>
        <time>2015-11-11T11:21:27.000Z</time>
      </trkpt>
      <trkpt lat="47.50401" lon="6.76693">
        <ele>397</ele>
        <time>2015-11-11T11:21:28.000Z</time>
      </trkpt>
      <trkpt lat="47.50405" lon="6.76691">
        <ele>397</ele>
        <time>2015-11-11T11:21:29.000Z</time>
      </trkpt>
      <trkpt lat="47.50409" lon="6.76689">
        <ele>397</ele>
        <time>2015-11-11T11:21:30.000Z</time>
      </trkpt>
      <trkpt lat="47.50412" lon="6.76687">
        <ele>397</ele>
        <time>2015-11-11T11:21:30.999Z</time>
      </trkpt>
      <trkpt lat="47.50417" lon="6.76685">
        <ele>397</ele>
        <time>2015-11-11T11:21:32.000Z</time>
      </trkpt>
      <trkpt lat="47.50421" lon="6.76683">
        <ele>397</ele>
        <time>2015-11-11T11:21:33.000Z</time>
      </trkpt>
      <trkpt lat="47.50425" lon="6.76681">
        <ele>397</ele>
        <time>2015-11-11T11:21:34.000Z</time>
      </trkpt>
      <trkpt lat="47.50429" lon="6.76679">
        <ele>397</ele>
        <time>2015-11-11T11:21:35.000Z</time>
      </trkpt>
      <trkpt lat="47.50434" lon="6.76677">
        <ele>397</ele>
        <time>2015-11-11T11:21:36.000Z</time>
      </trkpt>
      <trkpt lat="47.50438" lon="6.76676">
        <ele>397</ele>
        <time>2015-11-11T11:21:37.000Z</time>
      </trkpt>
      <trkpt lat="47.50442" lon="6.76675">
        <ele>397</ele>
        <time>2015-11-11T11:21:38.000Z</time>
      </trkpt>
      <trkpt lat="47.50447" lon="6.76673">
        <ele>397</ele>
        <time>2015-11-11T11:21:39.000Z</time>
      </trkpt>
      <trkpt lat="47.50451" lon="6.76671">
        <ele>397</ele>
        <time>2015-11-11T11:21:40.000Z</time>
      </trkpt>
      <trkpt lat="47.50455" lon="6.7667">
        <ele>397</ele>
        <time>2015-11-11T11:21:41.000Z</time>
      </trkpt>
      <trkpt lat="47.5046" lon="6.76668">
        <ele>397</ele>
        <time>2015-11-11T11:21:42.000Z</time>
      </trkpt>
      <trkpt lat="47.50464" lon="6.76667">
        <ele>398</ele>
        <time>2015-11-11T11:21:43.000Z</time>
      </trkpt>
      <trkpt lat="47.50467" lon="6.76665">
        <ele>398</ele>
        <time>2015-11-11T11:21:44.000Z</time>
      </trkpt>
      <trkpt lat="47.50471" lon="6.76662">
        <ele>398</ele>
        <time>2015-11-11T11:21:45.000Z</time>
      </trkpt>
      <trkpt lat="47.50476" lon="6.76661">
        <ele>398</ele>
        <time>2015-11-11T11:21:46.000Z</time>
      </trkpt>
      <trkpt lat="47.50479" lon="6.76658">
        <ele>399</ele>
        <time>2015-11-11T11:21:47.000Z</time>
      </trkpt>
      <trkpt lat="47.50483" lon="6.76657">
        <ele>399</ele>
        <time>2015-11-11T11:21:48.000Z</time>
      </trkpt>
      <trkpt lat="47.50486" lon="6.76655">
        <ele>399</ele>
        <time>2015-11-11T11:21:49.000Z</time>
      </trkpt>
      <trkpt lat="47.50492" lon="6.76654">
        <ele>399</ele>
        <time>2015-11-11T11:21:50.000Z</time>
      </trkpt>
      <trkpt lat="47.50497" lon="6.76653">
        <ele>399</ele>
        <time>2015-11-11T11:21:51.000Z</time>
      </trkpt>
      <trkpt lat="47.505" lon="6.76652">
        <ele>399</ele>
        <time>2015-11-11T11:21:52.000Z</time>
      </trkpt>
      <trkpt lat="47.50503" lon="6.76652">
        <ele>399</ele>
        <time>2015-11-11T11:21:53.000Z</time>
      </trkpt>
      <trkpt lat="47.50506" lon="6.7665">
        <ele>399</ele>
        <time>2015-11-11T11:21:54.000Z</time>
      </trkpt>
      <trkpt lat="47.5051" lon="6.76649">
        <ele>399</ele>
        <time>2015-11-11T11:21:55.000Z</time>
      </trkpt>
      <trkpt lat="47.50513" lon="6.76648">
        <ele>399</ele>
        <time>2015-11-11T11:21:56.000Z</time>
      </trkpt>
      <trkpt lat="47.50517" lon="6.76647">
        <ele>399</ele>
        <time>2015-11-11T11:21:57.000Z</time>
      </trkpt>
      <trkpt lat="47.5052" lon="6.76645">
        <ele>399</ele>
        <time>2015-11-11T11:21:58.000Z</time>
      </trkpt>
      <trkpt lat="47.50524" lon="6.76644">
        <ele>399</ele>
        <time>2015-11-11T11:21:59.000Z</time>
      </trkpt>
      <trkpt lat="47.50527" lon="6.76643">
        <ele>399</ele>
        <time>2015-11-11T11:22:00.000Z</time>
      </trkpt>
      <trkpt lat="47.5053" lon="6.76642">
        <ele>399</ele>
        <time>2015-11-11T11:22:01.000Z</time>
      </trkpt>
      <trkpt lat="47.50534" lon="6.76641">
        <ele>399</ele>
        <time>2015-11-11T11:22:02.000Z</time>
      </trkpt>
      <trkpt lat="47.50537" lon="6.7664">
        <ele>399</ele>
        <time>2015-11-11T11:22:03.000Z</time>
      </trkpt>
      <trkpt lat="47.50541" lon="6.76639">
        <ele>399</ele>
        <time>2015-11-11T11:22:04.000Z</time>
      </trkpt>
      <trkpt lat="47.50545" lon="6.76638">
        <ele>399</ele>
        <time>2015-11-11T11:22:05.000Z</time>
      </trkpt>
      <trkpt lat="47.50548" lon="6.76637">
        <ele>399</ele>
        <time>2015-11-11T11:22:06.000Z</time>
      </trkpt>
      <trkpt lat="47.50552" lon="6.76635">
        <ele>399</ele>
        <time>2015-11-11T11:22:07.000Z</time>
      </trkpt>
      <trkpt lat="47.50558" lon="6.76635">
        <ele>399</ele>
        <time>2015-11-11T11:22:08.000Z</time>
      </trkpt>
      <trkpt lat="47.50562" lon="6.76634">
        <ele>399</ele>
        <time>2015-11-11T11:22:09.000Z</time>
      </trkpt>
      <trkpt lat="47.50567" lon="6.76633">
        <ele>399</ele>
        <time>2015-11-11T11:22:10.000Z</time>
      </trkpt>
      <trkpt lat="47.50572" lon="6.76631">
        <ele>399</ele>
        <time>2015-11-11T11:22:11.000Z</time>
      </trkpt>
      <trkpt lat="47.50575" lon="6.76631">
        <ele>399</ele>
        <time>2015-11-11T11:22:12.000Z</time>
      </trkpt>
      <trkpt lat="47.5058" lon="6.76629">
        <ele>399</ele>
        <time>2015-11-11T11:22:13.000Z</time>
      </trkpt>
      <trkpt lat="47.50585" lon="6.76628">
        <ele>398</ele>
        <time>2015-11-11T11:22:14.000Z</time>
      </trkpt>
      <trkpt lat="47.5059" lon="6.76626">
        <ele>398</ele>
        <time>2015-11-11T11:22:15.000Z</time>
      </trkpt>
      <trkpt lat="47.50596" lon="6.76624">
        <ele>398</ele>
        <time>2015-11-11T11:22:16.000Z</time>
      </trkpt>
      <trkpt lat="47.50603" lon="6.76624">
        <ele>398</ele>
        <time>2015-11-11T11:22:17.000Z</time>
      </trkpt>
      <trkpt lat="47.50608" lon="6.76622">
        <ele>398</ele>
        <time>2015-11-11T11:22:18.000Z</time>
      </trkpt>
      <trkpt lat="47.50614" lon="6.76619">
        <ele>397</ele>
        <time>2015-11-11T11:22:19.000Z</time>
      </trkpt>
      <trkpt lat="47.5062" lon="6.76616">
        <ele>397</ele>
        <time>2015-11-11T11:22:20.000Z</time>
      </trkpt>
      <trkpt lat="47.50624" lon="6.76612">
        <ele>397</ele>
        <time>2015-11-11T11:22:21.000Z</time>
      </trkpt>
      <trkpt lat="47.50629" lon="6.76609">
        <ele>397</ele>
        <time>2015-11-11T11:22:22.000Z</time>
      </trkpt>
      <trkpt lat="47.50635" lon="6.76605">
        <ele>397</ele>
        <time>2015-11-11T11:22:23.000Z</time>
      </trkpt>
      <trkpt lat="47.5064" lon="6.76603">
        <ele>397</ele>
        <time>2015-11-11T11:22:24.000Z</time>
      </trkpt>
      <trkpt lat="47.50646" lon="6.76599">
        <ele>397</ele>
        <time>2015-11-11T11:22:25.000Z</time>
      </trkpt>
      <trkpt lat="47.50652" lon="6.76596">
        <ele>397</ele>
        <time>2015-11-11T11:22:26.000Z</time>
      </trkpt>
      <trkpt lat="47.50658" lon="6.76595">
        <ele>397</ele>
        <time>2015-11-11T11:22:27.000Z</time>
      </trkpt>
      <trkpt lat="47.50664" lon="6.76593">
        <ele>397</ele>
        <time>2015-11-11T11:22:28.000Z</time>
      </trkpt>
      <trkpt lat="47.50669" lon="6.76593">
        <ele>396</ele>
        <time>2015-11-11T11:22:29.000Z</time>
      </trkpt>
      <trkpt lat="47.50676" lon="6.76591">
        <ele>396</ele>
        <time>2015-11-11T11:22:30.000Z</time>
      </trkpt>
      <trkpt lat="47.50682" lon="6.76591">
        <ele>396</ele>
        <time>2015-11-11T11:22:31.000Z</time>
      </trkpt>
      <trkpt lat="47.50689" lon="6.7659">
        <ele>395</ele>
        <time>2015-11-11T11:22:32.000Z</time>
      </trkpt>
      <trkpt lat="47.50696" lon="6.76591">
        <ele>395</ele>
        <time>2015-11-11T11:22:33.000Z</time>
      </trkpt>
      <trkpt lat="47.50702" lon="6.7659">
        <ele>395</ele>
        <time>2015-11-11T11:22:34.000Z</time>
      </trkpt>
      <trkpt lat="47.50707" lon="6.76591">
        <ele>395</ele>
        <time>2015-11-11T11:22:35.000Z</time>
      </trkpt>
      <trkpt lat="47.50712" lon="6.76593">
        <ele>395</ele>
        <time>2015-11-11T11:22:36.000Z</time>
      </trkpt>
      <trkpt lat="47.50718" lon="6.76593">
        <ele>394</ele>
        <time>2015-11-11T11:22:37.000Z</time>
      </trkpt>
      <trkpt lat="47.50723" lon="6.76593">
        <ele>394</ele>
        <time>2015-11-11T11:22:38.000Z</time>
      </trkpt>
      <trkpt lat="47.50728" lon="6.76595">
        <ele>394</ele>
        <time>2015-11-11T11:22:39.000Z</time>
      </trkpt>
      <trkpt lat="47.50734" lon="6.76595">
        <ele>394</ele>
        <time>2015-11-11T11:22:40.000Z</time>
      </trkpt>
      <trkpt lat="47.50739" lon="6.76595">
        <ele>394</ele>
        <time>2015-11-11T11:22:41.000Z</time>
      </trkpt>
      <trkpt lat="47.50747" lon="6.76598">
        <ele>394</ele>
        <time>2015-11-11T11:22:42.000Z</time>
      </trkpt>
      <trkpt lat="47.50753" lon="6.76596">
        <ele>393</ele>
        <time>2015-11-11T11:22:43.000Z</time>
      </trkpt>
      <trkpt lat="47.50758" lon="6.76596">
        <ele>392</ele>
        <time>2015-11-11T11:22:44.000Z</time>
      </trkpt>
      <trkpt lat="47.50764" lon="6.76596">
        <ele>392</ele>
        <time>2015-11-11T11:22:45.000Z</time>
      </trkpt>
      <trkpt lat="47.5077" lon="6.76596">
        <ele>392</ele>
        <time>2015-11-11T11:22:46.000Z</time>
      </trkpt>
      <trkpt lat="47.50777" lon="6.76596">
        <ele>392</ele>
        <time>2015-11-11T11:22:47.000Z</time>
      </trkpt>
      <trkpt lat="47.50783" lon="6.76598">
        <ele>391</ele>
        <time>2015-11-11T11:22:48.000Z</time>
      </trkpt>
      <trkpt lat="47.5079" lon="6.76595">
        <ele>391</ele>
        <time>2015-11-11T11:22:49.000Z</time>
      </trkpt>
      <trkpt lat="47.50797" lon="6.76595">
        <ele>391</ele>
        <time>2015-11-11T11:22:50.000Z</time>
      </trkpt>
      <trkpt lat="47.50803" lon="6.76593">
        <ele>391</ele>
        <time>2015-11-11T11:22:51.000Z</time>
      </trkpt>
      <trkpt lat="47.50807" lon="6.76591">
        <ele>390</ele>
        <time>2015-11-11T11:22:52.000Z</time>
      </trkpt>
      <trkpt lat="47.5081" lon="6.76591">
        <ele>390</ele>
        <time>2015-11-11T11:22:53.000Z</time>
      </trkpt>
      <trkpt lat="47.50812" lon="6.76595">
        <ele>390</ele>
        <time>2015-11-11T11:22:55.000Z</time>
      </trkpt>
      <trkpt lat="47.50811" lon="6.76598">
        <ele>390</ele>
        <time>2015-11-11T11:22:56.000Z</time>
      </trkpt>
      <trkpt lat="47.50815" lon="6.76599">
        <ele>390</ele>
        <time>2015-11-11T11:22:57.000Z</time>
      </trkpt>
      <trkpt lat="47.50818" lon="6.76599">
        <ele>390</ele>
        <time>2015-11-11T11:22:58.000Z</time>
      </trkpt>
      <trkpt lat="47.50822" lon="6.76596">
        <ele>390</ele>
        <time>2015-11-11T11:22:59.000Z</time>
      </trkpt>
      <trkpt lat="47.50825" lon="6.76597">
        <ele>390</ele>
        <time>2015-11-11T11:23:00.000Z</time>
      </trkpt>
      <trkpt lat="47.50828" lon="6.76598">
        <ele>390</ele>
        <time>2015-11-11T11:23:01.000Z</time>
      </trkpt>
      <trkpt lat="47.50829" lon="6.76601">
        <ele>390</ele>
        <time>2015-11-11T11:23:02.000Z</time>
      </trkpt>
      <trkpt lat="47.50831" lon="6.76606">
        <ele>390</ele>
        <time>2015-11-11T11:23:03.000Z</time>
      </trkpt>
      <trkpt lat="47.5083" lon="6.76618">
        <ele>390</ele>
        <time>2015-11-11T11:23:04.000Z</time>
      </trkpt>
      <trkpt lat="47.50832" lon="6.76625">
        <ele>390</ele>
        <time>2015-11-11T11:23:05.000Z</time>
      </trkpt>
      <trkpt lat="47.50836" lon="6.76631">
        <ele>387</ele>
        <time>2015-11-11T11:23:06.000Z</time>
      </trkpt>
      <trkpt lat="47.5084" lon="6.76638">
        <ele>387</ele>
        <time>2015-11-11T11:23:07.000Z</time>
      </trkpt>
      <trkpt lat="47.50843" lon="6.76644">
        <ele>387</ele>
        <time>2015-11-11T11:23:08.000Z</time>
      </trkpt>
      <trkpt lat="47.50848" lon="6.7665">
        <ele>387</ele>
        <time>2015-11-11T11:23:09.000Z</time>
      </trkpt>
      <trkpt lat="47.50852" lon="6.76658">
        <ele>387</ele>
        <time>2015-11-11T11:23:10.000Z</time>
      </trkpt>
      <trkpt lat="47.50854" lon="6.76671">
        <ele>386</ele>
        <time>2015-11-11T11:23:11.000Z</time>
      </trkpt>
      <trkpt lat="47.50857" lon="6.7668">
        <ele>385</ele>
        <time>2015-11-11T11:23:12.000Z</time>
      </trkpt>
      <trkpt lat="47.50862" lon="6.76689">
        <ele>384</ele>
        <time>2015-11-11T11:23:13.000Z</time>
      </trkpt>
      <trkpt lat="47.50865" lon="6.76699">
        <ele>384</ele>
        <time>2015-11-11T11:23:14.000Z</time>
      </trkpt>
      <trkpt lat="47.50867" lon="6.76709">
        <ele>384</ele>
        <time>2015-11-11T11:23:15.000Z</time>
      </trkpt>
      <trkpt lat="47.50872" lon="6.76719">
        <ele>383</ele>
        <time>2015-11-11T11:23:16.000Z</time>
      </trkpt>
      <trkpt lat="47.50875" lon="6.76728">
        <ele>383</ele>
        <time>2015-11-11T11:23:17.000Z</time>
      </trkpt>
      <trkpt lat="47.50879" lon="6.76738">
        <ele>383</ele>
        <time>2015-11-11T11:23:18.000Z</time>
      </trkpt>
      <trkpt lat="47.50883" lon="6.76749">
        <ele>382</ele>
        <time>2015-11-11T11:23:19.000Z</time>
      </trkpt>
      <trkpt lat="47.50885" lon="6.76757">
        <ele>381</ele>
        <time>2015-11-11T11:23:20.000Z</time>
      </trkpt>
      <trkpt lat="47.50888" lon="6.76767">
        <ele>381</ele>
        <time>2015-11-11T11:23:21.000Z</time>
      </trkpt>
      <trkpt lat="47.50892" lon="6.76777">
        <ele>381</ele>
        <time>2015-11-11T11:23:22.000Z</time>
      </trkpt>
      <trkpt lat="47.50896" lon="6.76787">
        <ele>381</ele>
        <time>2015-11-11T11:23:23.000Z</time>
      </trkpt>
      <trkpt lat="47.50901" lon="6.76796">
        <ele>381</ele>
        <time>2015-11-11T11:23:24.000Z</time>
      </trkpt>
      <trkpt lat="47.50904" lon="6.76805">
        <ele>381</ele>
        <time>2015-11-11T11:23:25.000Z</time>
      </trkpt>
      <trkpt lat="47.50909" lon="6.76814">
        <ele>381</ele>
        <time>2015-11-11T11:23:26.000Z</time>
      </trkpt>
      <trkpt lat="47.50913" lon="6.76825">
        <ele>380</ele>
        <time>2015-11-11T11:23:27.000Z</time>
      </trkpt>
      <trkpt lat="47.50917" lon="6.76834">
        <ele>380</ele>
        <time>2015-11-11T11:23:28.000Z</time>
      </trkpt>
      <trkpt lat="47.50921" lon="6.76843">
        <ele>379</ele>
        <time>2015-11-11T11:23:29.000Z</time>
      </trkpt>
      <trkpt lat="47.50924" lon="6.76853">
        <ele>379</ele>
        <time>2015-11-11T11:23:30.000Z</time>
      </trkpt>
      <trkpt lat="47.50929" lon="6.7686">
        <ele>378</ele>
        <time>2015-11-11T11:23:31.000Z</time>
      </trkpt>
      <trkpt lat="47.50935" lon="6.76867">
        <ele>378</ele>
        <time>2015-11-11T11:23:32.000Z</time>
      </trkpt>
      <trkpt lat="47.5094" lon="6.76874">
        <ele>378</ele>
        <time>2015-11-11T11:23:33.000Z</time>
      </trkpt>
      <trkpt lat="47.50947" lon="6.7688">
        <ele>378</ele>
        <time>2015-11-11T11:23:34.000Z</time>
      </trkpt>
      <trkpt lat="47.50953" lon="6.76886">
        <ele>378</ele>
        <time>2015-11-11T11:23:35.000Z</time>
      </trkpt>
      <trkpt lat="47.50959" lon="6.76892">
        <ele>377</ele>
        <time>2015-11-11T11:23:36.000Z</time>
      </trkpt>
      <trkpt lat="47.50965" lon="6.76898">
        <ele>377</ele>
        <time>2015-11-11T11:23:37.000Z</time>
      </trkpt>
      <trkpt lat="47.50973" lon="6.76897">
        <ele>377</ele>
        <time>2015-11-11T11:23:38.000Z</time>
      </trkpt>
      <trkpt lat="47.50979" lon="6.76896">
        <ele>377</ele>
        <time>2015-11-11T11:23:39.000Z</time>
      </trkpt>
      <trkpt lat="47.50986" lon="6.76898">
        <ele>377</ele>
        <time>2015-11-11T11:23:40.000Z</time>
      </trkpt>
      <trkpt lat="47.50992" lon="6.76904">
        <ele>377</ele>
        <time>2015-11-11T11:23:41.000Z</time>
      </trkpt>
      <trkpt lat="47.50998" lon="6.76911">
        <ele>376</ele>
        <time>2015-11-11T11:23:42.000Z</time>
      </trkpt>
      <trkpt lat="47.51002" lon="6.76918">
        <ele>376</ele>
        <time>2015-11-11T11:23:43.000Z</time>
      </trkpt>
      <trkpt lat="47.51005" lon="6.76925">
        <ele>376</ele>
        <time>2015-11-11T11:23:44.000Z</time>
      </trkpt>
      <trkpt lat="47.51011" lon="6.76929">
        <ele>375</ele>
        <time>2015-11-11T11:23:45.000Z</time>
      </trkpt>
      <trkpt lat="47.51017" lon="6.76929">
        <ele>375</ele>
        <time>2015-11-11T11:23:46.000Z</time>
      </trkpt>
      <trkpt lat="47.51024" lon="6.76936">
        <ele>375</ele>
        <time>2015-11-11T11:23:47.000Z</time>
      </trkpt>
      <trkpt lat="47.51028" lon="6.76942">
        <ele>375</ele>
        <time>2015-11-11T11:23:48.000Z</time>
      </trkpt>
      <trkpt lat="47.51035" lon="6.76947">
        <ele>375</ele>
        <time>2015-11-11T11:23:49.000Z</time>
      </trkpt>
      <trkpt lat="47.51042" lon="6.76952">
        <ele>375</ele>
        <time>2015-11-11T11:23:50.000Z</time>
      </trkpt>
      <trkpt lat="47.51052" lon="6.76956">
        <ele>375</ele>
        <time>2015-11-11T11:23:51.000Z</time>
      </trkpt>
      <trkpt lat="47.51055" lon="6.76963">
        <ele>375</ele>
        <time>2015-11-11T11:23:52.000Z</time>
      </trkpt>
      <trkpt lat="47.5106" lon="6.76969">
        <ele>375</ele>
        <time>2015-11-11T11:23:53.000Z</time>
      </trkpt>
      <trkpt lat="47.51066" lon="6.76974">
        <ele>375</ele>
        <time>2015-11-11T11:23:54.000Z</time>
      </trkpt>
      <trkpt lat="47.5107" lon="6.76982">
        <ele>375</ele>
        <time>2015-11-11T11:23:55.000Z</time>
      </trkpt>
      <trkpt lat="47.51074" lon="6.76989">
        <ele>375</ele>
        <time>2015-11-11T11:23:56.000Z</time>
      </trkpt>
      <trkpt lat="47.5108" lon="6.76996">
        <ele>375</ele>
        <time>2015-11-11T11:23:57.000Z</time>
      </trkpt>
      <trkpt lat="47.51084" lon="6.77002">
        <ele>375</ele>
        <time>2015-11-11T11:23:58.000Z</time>
      </trkpt>
      <trkpt lat="47.5109" lon="6.77007">
        <ele>375</ele>
        <time>2015-11-11T11:23:59.000Z</time>
      </trkpt>
      <trkpt lat="47.51095" lon="6.77013">
        <ele>375</ele>
        <time>2015-11-11T11:24:00.000Z</time>
      </trkpt>
      <trkpt lat="47.511" lon="6.77017">
        <ele>375</ele>
        <time>2015-11-11T11:24:01.000Z</time>
      </trkpt>
      <trkpt lat="47.51106" lon="6.77022">
        <ele>375</ele>
        <time>2015-11-11T11:24:02.000Z</time>
      </trkpt>
      <trkpt lat="47.51112" lon="6.77027">
        <ele>375</ele>
        <time>2015-11-11T11:24:03.000Z</time>
      </trkpt>
      <trkpt lat="47.51118" lon="6.77032">
        <ele>375</ele>
        <time>2015-11-11T11:24:04.000Z</time>
      </trkpt>
      <trkpt lat="47.51124" lon="6.77037">
        <ele>375</ele>
        <time>2015-11-11T11:24:05.000Z</time>
      </trkpt>
      <trkpt lat="47.51129" lon="6.77042">
        <ele>375</ele>
        <time>2015-11-11T11:24:06.000Z</time>
      </trkpt>
      <trkpt lat="47.51133" lon="6.77048">
        <ele>375</ele>
        <time>2015-11-11T11:24:07.000Z</time>
      </trkpt>
      <trkpt lat="47.51138" lon="6.77052">
        <ele>376</ele>
        <time>2015-11-11T11:24:08.000Z</time>
      </trkpt>
      <trkpt lat="47.51142" lon="6.77057">
        <ele>376</ele>
        <time>2015-11-11T11:24:09.000Z</time>
      </trkpt>
      <trkpt lat="47.51148" lon="6.77062">
        <ele>376</ele>
        <time>2015-11-11T11:24:10.000Z</time>
      </trkpt>
      <trkpt lat="47.51153" lon="6.77067">
        <ele>376</ele>
        <time>2015-11-11T11:24:11.000Z</time>
      </trkpt>
      <trkpt lat="47.51158" lon="6.77072">
        <ele>377</ele>
        <time>2015-11-11T11:24:12.000Z</time>
      </trkpt>
      <trkpt lat="47.51162" lon="6.77078">
        <ele>377</ele>
        <time>2015-11-11T11:24:13.000Z</time>
      </trkpt>
      <trkpt lat="47.51166" lon="6.77084">
        <ele>378</ele>
        <time>2015-11-11T11:24:14.000Z</time>
      </trkpt>
      <trkpt lat="47.5117" lon="6.7709">
        <ele>378</ele>
        <time>2015-11-11T11:24:15.000Z</time>
      </trkpt>
      <trkpt lat="47.51173" lon="6.77096">
        <ele>378</ele>
        <time>2015-11-11T11:24:16.000Z</time>
      </trkpt>
      <trkpt lat="47.51177" lon="6.77101">
        <ele>378</ele>
        <time>2015-11-11T11:24:17.000Z</time>
      </trkpt>
      <trkpt lat="47.51181" lon="6.77106">
        <ele>378</ele>
        <time>2015-11-11T11:24:18.000Z</time>
      </trkpt>
      <trkpt lat="47.51183" lon="6.77112">
        <ele>378</ele>
        <time>2015-11-11T11:24:19.000Z</time>
      </trkpt>
      <trkpt lat="47.51186" lon="6.77117">
        <ele>378</ele>
        <time>2015-11-11T11:24:20.000Z</time>
      </trkpt>
      <trkpt lat="47.51188" lon="6.77122">
        <ele>378</ele>
        <time>2015-11-11T11:24:21.000Z</time>
      </trkpt>
      <trkpt lat="47.5119" lon="6.77128">
        <ele>378</ele>
        <time>2015-11-11T11:24:22.000Z</time>
      </trkpt>
      <trkpt lat="47.51194" lon="6.77134">
        <ele>378</ele>
        <time>2015-11-11T11:24:23.000Z</time>
      </trkpt>
      <trkpt lat="47.51197" lon="6.77139">
        <ele>378</ele>
        <time>2015-11-11T11:24:24.000Z</time>
      </trkpt>
      <trkpt lat="47.512" lon="6.77144">
        <ele>378</ele>
        <time>2015-11-11T11:24:25.000Z</time>
      </trkpt>
      <trkpt lat="47.51204" lon="6.7715">
        <ele>378</ele>
        <time>2015-11-11T11:24:26.000Z</time>
      </trkpt>
      <trkpt lat="47.51206" lon="6.77155">
        <ele>378</ele>
        <time>2015-11-11T11:24:27.000Z</time>
      </trkpt>
      <trkpt lat="47.51209" lon="6.7716">
        <ele>378</ele>
        <time>2015-11-11T11:24:28.000Z</time>
      </trkpt>
      <trkpt lat="47.51211" lon="6.77165">
        <ele>378</ele>
        <time>2015-11-11T11:24:29.000Z</time>
      </trkpt>
      <trkpt lat="47.51214" lon="6.77169">
        <ele>376</ele>
        <time>2015-11-11T11:24:30.000Z</time>
      </trkpt>
      <trkpt lat="47.51217" lon="6.77174">
        <ele>376</ele>
        <time>2015-11-11T11:24:31.000Z</time>
      </trkpt>
      <trkpt lat="47.51219" lon="6.7718">
        <ele>376</ele>
        <time>2015-11-11T11:24:32.000Z</time>
      </trkpt>
      <trkpt lat="47.51221" lon="6.77186">
        <ele>376</ele>
        <time>2015-11-11T11:24:33.000Z</time>
      </trkpt>
      <trkpt lat="47.51224" lon="6.7719">
        <ele>376</ele>
        <time>2015-11-11T11:24:34.000Z</time>
      </trkpt>
      <trkpt lat="47.51228" lon="6.77196">
        <ele>376</ele>
        <time>2015-11-11T11:24:35.000Z</time>
      </trkpt>
      <trkpt lat="47.51229" lon="6.77204">
        <ele>376</ele>
        <time>2015-11-11T11:24:36.000Z</time>
      </trkpt>
      <trkpt lat="47.5123" lon="6.77209">
        <ele>376</ele>
        <time>2015-11-11T11:24:37.000Z</time>
      </trkpt>
      <trkpt lat="47.51233" lon="6.77214">
        <ele>376</ele>
        <time>2015-11-11T11:24:38.000Z</time>
      </trkpt>
      <trkpt lat="47.51236" lon="6.77219">
        <ele>376</ele>
        <time>2015-11-11T11:24:39.000Z</time>
      </trkpt>
      <trkpt lat="47.51239" lon="6.77224">
        <ele>376</ele>
        <time>2015-11-11T11:24:40.000Z</time>
      </trkpt>
      <trkpt lat="47.51243" lon="6.77226">
        <ele>376</ele>
        <time>2015-11-11T11:24:41.000Z</time>
      </trkpt>
      <trkpt lat="47.51246" lon="6.77231">
        <ele>377</ele>
        <time>2015-11-11T11:24:42.000Z</time>
      </trkpt>
      <trkpt lat="47.5125" lon="6.77237">
        <ele>378</ele>
        <time>2015-11-11T11:24:43.000Z</time>
      </trkpt>
      <trkpt lat="47.51252" lon="6.77243">
        <ele>379</ele>
        <time>2015-11-11T11:24:44.000Z</time>
      </trkpt>
      <trkpt lat="47.51254" lon="6.77251">
        <ele>379</ele>
        <time>2015-11-11T11:24:45.000Z</time>
      </trkpt>
      <trkpt lat="47.51258" lon="6.77256">
        <ele>378</ele>
        <time>2015-11-11T11:24:46.000Z</time>
      </trkpt>
      <trkpt lat="47.51261" lon="6.77259">
        <ele>378</ele>
        <time>2015-11-11T11:24:47.000Z</time>
      </trkpt>
      <trkpt lat="47.51264" lon="6.77262">
        <ele>378</ele>
        <time>2015-11-11T11:24:48.000Z</time>
      </trkpt>
      <trkpt lat="47.51269" lon="6.77267">
        <ele>377</ele>
        <time>2015-11-11T11:24:49.000Z</time>
      </trkpt>
      <trkpt lat="47.51272" lon="6.77268">
        <ele>377</ele>
        <time>2015-11-11T11:24:50.000Z</time>
      </trkpt>
      <trkpt lat="47.51276" lon="6.77271">
        <ele>377</ele>
        <time>2015-11-11T11:24:51.000Z</time>
      </trkpt>
      <trkpt lat="47.51281" lon="6.77273">
        <ele>377</ele>
        <time>2015-11-11T11:24:52.000Z</time>
      </trkpt>
      <trkpt lat="47.51286" lon="6.77276">
        <ele>377</ele>
        <time>2015-11-11T11:24:53.000Z</time>
      </trkpt>
      <trkpt lat="47.51291" lon="6.77278">
        <ele>377</ele>
        <time>2015-11-11T11:24:54.000Z</time>
      </trkpt>
      <trkpt lat="47.51297" lon="6.77279">
        <ele>377</ele>
        <time>2015-11-11T11:24:55.000Z</time>
      </trkpt>
      <trkpt lat="47.51302" lon="6.77282">
        <ele>377</ele>
        <time>2015-11-11T11:24:56.000Z</time>
      </trkpt>
      <trkpt lat="47.51308" lon="6.77283">
        <ele>377</ele>
        <time>2015-11-11T11:24:57.000Z</time>
      </trkpt>
      <trkpt lat="47.51314" lon="6.77285">
        <ele>377</ele>
        <time>2015-11-11T11:24:58.000Z</time>
      </trkpt>
      <trkpt lat="47.5132" lon="6.77286">
        <ele>377</ele>
        <time>2015-11-11T11:24:59.000Z</time>
      </trkpt>
      <trkpt lat="47.51327" lon="6.77287">
        <ele>378</ele>
        <time>2015-11-11T11:25:00.000Z</time>
      </trkpt>
      <trkpt lat="47.51332" lon="6.77288">
        <ele>378</ele>
        <time>2015-11-11T11:25:01.000Z</time>
      </trkpt>
      <trkpt lat="47.51338" lon="6.77286">
        <ele>378</ele>
        <time>2015-11-11T11:25:02.000Z</time>
      </trkpt>
      <trkpt lat="47.51344" lon="6.77282">
        <ele>378</ele>
        <time>2015-11-11T11:25:03.000Z</time>
      </trkpt>
      <trkpt lat="47.5135" lon="6.77278">
        <ele>378</ele>
        <time>2015-11-11T11:25:04.000Z</time>
      </trkpt>
      <trkpt lat="47.51355" lon="6.77272">
        <ele>378</ele>
        <time>2015-11-11T11:25:05.000Z</time>
      </trkpt>
      <trkpt lat="47.5136" lon="6.77267">
        <ele>378</ele>
        <time>2015-11-11T11:25:06.000Z</time>
      </trkpt>
      <trkpt lat="47.51368" lon="6.77261">
        <ele>378</ele>
        <time>2015-11-11T11:25:07.000Z</time>
      </trkpt>
      <trkpt lat="47.51375" lon="6.77256">
        <ele>377</ele>
        <time>2015-11-11T11:25:08.000Z</time>
      </trkpt>
      <trkpt lat="47.51382" lon="6.77253">
        <ele>377</ele>
        <time>2015-11-11T11:25:09.000Z</time>
      </trkpt>
      <trkpt lat="47.51389" lon="6.77247">
        <ele>376</ele>
        <time>2015-11-11T11:25:10.000Z</time>
      </trkpt>
      <trkpt lat="47.51398" lon="6.77241">
        <ele>376</ele>
        <time>2015-11-11T11:25:11.000Z</time>
      </trkpt>
      <trkpt lat="47.51405" lon="6.77236">
        <ele>376</ele>
        <time>2015-11-11T11:25:12.000Z</time>
      </trkpt>
      <trkpt lat="47.51412" lon="6.77231">
        <ele>376</ele>
        <time>2015-11-11T11:25:13.000Z</time>
      </trkpt>
      <trkpt lat="47.51419" lon="6.77229">
        <ele>375</ele>
        <time>2015-11-11T11:25:14.000Z</time>
      </trkpt>
      <trkpt lat="47.51427" lon="6.77226">
        <ele>375</ele>
        <time>2015-11-11T11:25:15.000Z</time>
      </trkpt>
      <trkpt lat="47.51433" lon="6.77222">
        <ele>375</ele>
        <time>2015-11-11T11:25:16.000Z</time>
      </trkpt>
      <trkpt lat="47.51439" lon="6.77219">
        <ele>375</ele>
        <time>2015-11-11T11:25:17.000Z</time>
      </trkpt>
      <trkpt lat="47.51446" lon="6.77214">
        <ele>375</ele>
        <time>2015-11-11T11:25:18.000Z</time>
      </trkpt>
      <trkpt lat="47.51452" lon="6.77212">
        <ele>375</ele>
        <time>2015-11-11T11:25:19.000Z</time>
      </trkpt>
      <trkpt lat="47.51458" lon="6.77209">
        <ele>375</ele>
        <time>2015-11-11T11:25:20.000Z</time>
      </trkpt>
      <trkpt lat="47.51464" lon="6.77207">
        <ele>375</ele>
        <time>2015-11-11T11:25:21.000Z</time>
      </trkpt>
      <trkpt lat="47.51469" lon="6.77205">
        <ele>375</ele>
        <time>2015-11-11T11:25:22.000Z</time>
      </trkpt>
      <trkpt lat="47.51473" lon="6.77205">
        <ele>375</ele>
        <time>2015-11-11T11:25:23.000Z</time>
      </trkpt>
      <trkpt lat="47.51476" lon="6.77205">
        <ele>375</ele>
        <time>2015-11-11T11:25:24.000Z</time>
      </trkpt>
      <trkpt lat="47.51481" lon="6.7721">
        <ele>375</ele>
        <time>2015-11-11T11:25:25.000Z</time>
      </trkpt>
      <trkpt lat="47.51483" lon="6.77215">
        <ele>375</ele>
        <time>2015-11-11T11:25:26.000Z</time>
      </trkpt>
      <trkpt lat="47.51484" lon="6.77222">
        <ele>375</ele>
        <time>2015-11-11T11:25:27.000Z</time>
      </trkpt>
      <trkpt lat="47.51485" lon="6.77229">
        <ele>375</ele>
        <time>2015-11-11T11:25:28.000Z</time>
      </trkpt>
      <trkpt lat="47.51486" lon="6.77237">
        <ele>375</ele>
        <time>2015-11-11T11:25:29.000Z</time>
      </trkpt>
      <trkpt lat="47.51486" lon="6.77244">
        <ele>376</ele>
        <time>2015-11-11T11:25:30.000Z</time>
      </trkpt>
      <trkpt lat="47.51486" lon="6.77251">
        <ele>376</ele>
        <time>2015-11-11T11:25:31.000Z</time>
      </trkpt>
      <trkpt lat="47.51487" lon="6.77259">
        <ele>376</ele>
        <time>2015-11-11T11:25:32.000Z</time>
      </trkpt>
      <trkpt lat="47.51487" lon="6.77266">
        <ele>376</ele>
        <time>2015-11-11T11:25:33.000Z</time>
      </trkpt>
      <trkpt lat="47.51488" lon="6.77274">
        <ele>377</ele>
        <time>2015-11-11T11:25:34.000Z</time>
      </trkpt>
      <trkpt lat="47.51488" lon="6.77282">
        <ele>377</ele>
        <time>2015-11-11T11:25:35.000Z</time>
      </trkpt>
      <trkpt lat="47.51489" lon="6.7729">
        <ele>377</ele>
        <time>2015-11-11T11:25:36.000Z</time>
      </trkpt>
      <trkpt lat="47.5149" lon="6.77298">
        <ele>377</ele>
        <time>2015-11-11T11:25:37.000Z</time>
      </trkpt>
      <trkpt lat="47.51491" lon="6.77306">
        <ele>377</ele>
        <time>2015-11-11T11:25:38.000Z</time>
      </trkpt>
      <trkpt lat="47.51493" lon="6.77314">
        <ele>377</ele>
        <time>2015-11-11T11:25:39.000Z</time>
      </trkpt>
      <trkpt lat="47.51496" lon="6.77318">
        <ele>377</ele>
        <time>2015-11-11T11:25:40.000Z</time>
      </trkpt>
      <trkpt lat="47.51501" lon="6.77323">
        <ele>378</ele>
        <time>2015-11-11T11:25:41.000Z</time>
      </trkpt>
      <trkpt lat="47.51504" lon="6.77327">
        <ele>378</ele>
        <time>2015-11-11T11:25:42.000Z</time>
      </trkpt>
      <trkpt lat="47.51509" lon="6.7733">
        <ele>378</ele>
        <time>2015-11-11T11:25:43.000Z</time>
      </trkpt>
      <trkpt lat="47.51512" lon="6.77333">
        <ele>378</ele>
        <time>2015-11-11T11:25:44.000Z</time>
      </trkpt>
      <trkpt lat="47.51513" lon="6.77336">
        <ele>379</ele>
        <time>2015-11-11T11:25:45.000Z</time>
      </trkpt>
      <trkpt lat="47.51516" lon="6.77338">
        <ele>379</ele>
        <time>2015-11-11T11:25:46.000Z</time>
      </trkpt>
      <trkpt lat="47.5152" lon="6.7734">
        <ele>379</ele>
        <time>2015-11-11T11:25:47.000Z</time>
      </trkpt>
      <trkpt lat="47.51522" lon="6.77343">
        <ele>380</ele>
        <time>2015-11-11T11:25:48.000Z</time>
      </trkpt>
      <trkpt lat="47.51525" lon="6.77345">
        <ele>380</ele>
        <time>2015-11-11T11:25:49.000Z</time>
      </trkpt>
      <trkpt lat="47.51526" lon="6.77347">
        <ele>380</ele>
        <time>2015-11-11T11:25:50.000Z</time>
      </trkpt>
      <trkpt lat="47.51528" lon="6.77351">
        <ele>380</ele>
        <time>2015-11-11T11:25:51.000Z</time>
      </trkpt>
      <trkpt lat="47.51531" lon="6.77353">
        <ele>380</ele>
        <time>2015-11-11T11:25:52.000Z</time>
      </trkpt>
      <trkpt lat="47.51534" lon="6.77356">
        <ele>380</ele>
        <time>2015-11-11T11:25:53.000Z</time>
      </trkpt>
      <trkpt lat="47.51537" lon="6.77359">
        <ele>380</ele>
        <time>2015-11-11T11:25:54.000Z</time>
      </trkpt>
      <trkpt lat="47.51539" lon="6.77362">
        <ele>380</ele>
        <time>2015-11-11T11:25:55.000Z</time>
      </trkpt>
      <trkpt lat="47.51541" lon="6.77365">
        <ele>380</ele>
        <time>2015-11-11T11:25:56.000Z</time>
      </trkpt>
      <trkpt lat="47.51543" lon="6.77368">
        <ele>380</ele>
        <time>2015-11-11T11:25:57.000Z</time>
      </trkpt>
      <trkpt lat="47.51545" lon="6.7737">
        <ele>381</ele>
        <time>2015-11-11T11:25:58.000Z</time>
      </trkpt>
      <trkpt lat="47.51548" lon="6.77373">
        <ele>381</ele>
        <time>2015-11-11T11:25:59.000Z</time>
      </trkpt>
      <trkpt lat="47.5155" lon="6.77376">
        <ele>381</ele>
        <time>2015-11-11T11:26:00.000Z</time>
      </trkpt>
      <trkpt lat="47.51553" lon="6.77381">
        <ele>381</ele>
        <time>2015-11-11T11:26:01.000Z</time>
      </trkpt>
      <trkpt lat="47.51556" lon="6.77386">
        <ele>381</ele>
        <time>2015-11-11T11:26:02.000Z</time>
      </trkpt>
      <trkpt lat="47.51558" lon="6.77392">
        <ele>381</ele>
        <time>2015-11-11T11:26:03.000Z</time>
      </trkpt>
      <trkpt lat="47.51561" lon="6.77393">
        <ele>381</ele>
        <time>2015-11-11T11:26:04.000Z</time>
      </trkpt>
      <trkpt lat="47.51564" lon="6.77392">
        <ele>381</ele>
        <time>2015-11-11T11:26:05.000Z</time>
      </trkpt>
      <trkpt lat="47.51568" lon="6.77396">
        <ele>381</ele>
        <time>2015-11-11T11:26:06.000Z</time>
      </trkpt>
      <trkpt lat="47.51572" lon="6.77398">
        <ele>382</ele>
        <time>2015-11-11T11:26:07.000Z</time>
      </trkpt>
      <trkpt lat="47.51575" lon="6.77401">
        <ele>382</ele>
        <time>2015-11-11T11:26:08.000Z</time>
      </trkpt>
      <trkpt lat="47.51577" lon="6.77404">
        <ele>382</ele>
        <time>2015-11-11T11:26:09.000Z</time>
      </trkpt>
      <trkpt lat="47.51579" lon="6.77407">
        <ele>382</ele>
        <time>2015-11-11T11:26:10.000Z</time>
      </trkpt>
      <trkpt lat="47.51581" lon="6.7741">
        <ele>382</ele>
        <time>2015-11-11T11:26:11.000Z</time>
      </trkpt>
      <trkpt lat="47.51582" lon="6.77413">
        <ele>383</ele>
        <time>2015-11-11T11:26:12.000Z</time>
      </trkpt>
      <trkpt lat="47.51585" lon="6.77416">
        <ele>383</ele>
        <time>2015-11-11T11:26:13.000Z</time>
      </trkpt>
      <trkpt lat="47.51587" lon="6.77418">
        <ele>383</ele>
        <time>2015-11-11T11:26:14.000Z</time>
      </trkpt>
      <trkpt lat="47.5159" lon="6.77422">
        <ele>384</ele>
        <time>2015-11-11T11:26:15.000Z</time>
      </trkpt>
      <trkpt lat="47.51592" lon="6.77425">
        <ele>384</ele>
        <time>2015-11-11T11:26:16.000Z</time>
      </trkpt>
      <trkpt lat="47.51595" lon="6.77427">
        <ele>384</ele>
        <time>2015-11-11T11:26:17.000Z</time>
      </trkpt>
      <trkpt lat="47.51597" lon="6.7743">
        <ele>384</ele>
        <time>2015-11-11T11:26:18.000Z</time>
      </trkpt>
      <trkpt lat="47.51599" lon="6.77433">
        <ele>385</ele>
        <time>2015-11-11T11:26:19.000Z</time>
      </trkpt>
      <trkpt lat="47.51602" lon="6.77436">
        <ele>385</ele>
        <time>2015-11-11T11:26:20.000Z</time>
      </trkpt>
      <trkpt lat="47.51604" lon="6.77439">
        <ele>385</ele>
        <time>2015-11-11T11:26:21.000Z</time>
      </trkpt>
      <trkpt lat="47.51606" lon="6.77442">
        <ele>385</ele>
        <time>2015-11-11T11:26:22.000Z</time>
      </trkpt>
      <trkpt lat="47.51608" lon="6.77446">
        <ele>385</ele>
        <time>2015-11-11T11:26:23.000Z</time>
      </trkpt>
      <trkpt lat="47.5161" lon="6.77449">
        <ele>385</ele>
        <time>2015-11-11T11:26:24.000Z</time>
      </trkpt>
      <trkpt lat="47.51611" lon="6.77452">
        <ele>385</ele>
        <time>2015-11-11T11:26:25.000Z</time>
      </trkpt>
      <trkpt lat="47.51613" lon="6.77456">
        <ele>385</ele>
        <time>2015-11-11T11:26:26.000Z</time>
      </trkpt>
      <trkpt lat="47.51616" lon="6.77459">
        <ele>386</ele>
        <time>2015-11-11T11:26:27.000Z</time>
      </trkpt>
      <trkpt lat="47.51618" lon="6.77463">
        <ele>386</ele>
        <time>2015-11-11T11:26:28.000Z</time>
      </trkpt>
      <trkpt lat="47.5162" lon="6.77466">
        <ele>386</ele>
        <time>2015-11-11T11:26:29.000Z</time>
      </trkpt>
      <trkpt lat="47.51622" lon="6.77469">
        <ele>386</ele>
        <time>2015-11-11T11:26:30.000Z</time>
      </trkpt>
      <trkpt lat="47.51625" lon="6.77473">
        <ele>386</ele>
        <time>2015-11-11T11:26:31.000Z</time>
      </trkpt>
      <trkpt lat="47.51627" lon="6.77475">
        <ele>386</ele>
        <time>2015-11-11T11:26:32.000Z</time>
      </trkpt>
      <trkpt lat="47.5163" lon="6.77478">
        <ele>386</ele>
        <time>2015-11-11T11:26:33.000Z</time>
      </trkpt>
      <trkpt lat="47.51632" lon="6.7748">
        <ele>386</ele>
        <time>2015-11-11T11:26:34.000Z</time>
      </trkpt>
      <trkpt lat="47.51634" lon="6.77483">
        <ele>386</ele>
        <time>2015-11-11T11:26:35.000Z</time>
      </trkpt>
      <trkpt lat="47.51637" lon="6.77485">
        <ele>387</ele>
        <time>2015-11-11T11:26:36.000Z</time>
      </trkpt>
      <trkpt lat="47.51639" lon="6.77488">
        <ele>387</ele>
        <time>2015-11-11T11:26:37.000Z</time>
      </trkpt>
      <trkpt lat="47.51642" lon="6.77491">
        <ele>387</ele>
        <time>2015-11-11T11:26:38.000Z</time>
      </trkpt>
      <trkpt lat="47.51644" lon="6.77493">
        <ele>387</ele>
        <time>2015-11-11T11:26:39.000Z</time>
      </trkpt>
      <trkpt lat="47.51647" lon="6.77496">
        <ele>387</ele>
        <time>2015-11-11T11:26:40.000Z</time>
      </trkpt>
      <trkpt lat="47.51649" lon="6.77499">
        <ele>387</ele>
        <time>2015-11-11T11:26:41.000Z</time>
      </trkpt>
      <trkpt lat="47.51652" lon="6.77502">
        <ele>388</ele>
        <time>2015-11-11T11:26:42.000Z</time>
      </trkpt>
      <trkpt lat="47.51655" lon="6.77506">
        <ele>388</ele>
        <time>2015-11-11T11:26:43.000Z</time>
      </trkpt>
      <trkpt lat="47.51657" lon="6.77508">
        <ele>388</ele>
        <time>2015-11-11T11:26:44.000Z</time>
      </trkpt>
      <trkpt lat="47.5166" lon="6.77511">
        <ele>388</ele>
        <time>2015-11-11T11:26:45.000Z</time>
      </trkpt>
      <trkpt lat="47.51662" lon="6.77513">
        <ele>388</ele>
        <time>2015-11-11T11:26:46.000Z</time>
      </trkpt>
      <trkpt lat="47.51664" lon="6.77516">
        <ele>388</ele>
        <time>2015-11-11T11:26:47.000Z</time>
      </trkpt>
      <trkpt lat="47.51666" lon="6.77519">
        <ele>388</ele>
        <time>2015-11-11T11:26:48.000Z</time>
      </trkpt>
      <trkpt lat="47.51669" lon="6.77522">
        <ele>389</ele>
        <time>2015-11-11T11:26:49.000Z</time>
      </trkpt>
      <trkpt lat="47.51671" lon="6.77524">
        <ele>390</ele>
        <time>2015-11-11T11:26:50.000Z</time>
      </trkpt>
      <trkpt lat="47.51673" lon="6.77527">
        <ele>390</ele>
        <time>2015-11-11T11:26:51.000Z</time>
      </trkpt>
      <trkpt lat="47.51676" lon="6.7753">
        <ele>390</ele>
        <time>2015-11-11T11:26:52.000Z</time>
      </trkpt>
      <trkpt lat="47.51679" lon="6.77532">
        <ele>390</ele>
        <time>2015-11-11T11:26:53.000Z</time>
      </trkpt>
      <trkpt lat="47.51681" lon="6.77533">
        <ele>390</ele>
        <time>2015-11-11T11:26:54.000Z</time>
      </trkpt>
      <trkpt lat="47.51685" lon="6.77534">
        <ele>390</ele>
        <time>2015-11-11T11:26:55.000Z</time>
      </trkpt>
      <trkpt lat="47.51688" lon="6.77534">
        <ele>390</ele>
        <time>2015-11-11T11:26:56.000Z</time>
      </trkpt>
      <trkpt lat="47.51691" lon="6.77535">
        <ele>390</ele>
        <time>2015-11-11T11:26:57.000Z</time>
      </trkpt>
      <trkpt lat="47.51693" lon="6.77537">
        <ele>390</ele>
        <time>2015-11-11T11:26:58.000Z</time>
      </trkpt>
      <trkpt lat="47.51696" lon="6.77539">
        <ele>390</ele>
        <time>2015-11-11T11:26:59.000Z</time>
      </trkpt>
      <trkpt lat="47.51698" lon="6.77541">
        <ele>390</ele>
        <time>2015-11-11T11:27:00.000Z</time>
      </trkpt>
      <trkpt lat="47.517" lon="6.77544">
        <ele>390</ele>
        <time>2015-11-11T11:27:01.000Z</time>
      </trkpt>
      <trkpt lat="47.51703" lon="6.77548">
        <ele>390</ele>
        <time>2015-11-11T11:27:02.000Z</time>
      </trkpt>
      <trkpt lat="47.51706" lon="6.77551">
        <ele>390</ele>
        <time>2015-11-11T11:27:03.000Z</time>
      </trkpt>
      <trkpt lat="47.51708" lon="6.77554">
        <ele>390</ele>
        <time>2015-11-11T11:27:04.000Z</time>
      </trkpt>
      <trkpt lat="47.51711" lon="6.77555">
        <ele>390</ele>
        <time>2015-11-11T11:27:05.000Z</time>
      </trkpt>
      <trkpt lat="47.51713" lon="6.77555">
        <ele>390</ele>
        <time>2015-11-11T11:27:06.000Z</time>
      </trkpt>
      <trkpt lat="47.51715" lon="6.77552">
        <ele>390</ele>
        <time>2015-11-11T11:27:07.000Z</time>
      </trkpt>
      <trkpt lat="47.51716" lon="6.77548">
        <ele>390</ele>
        <time>2015-11-11T11:27:08.000Z</time>
      </trkpt>
      <trkpt lat="47.51718" lon="6.77543">
        <ele>390</ele>
        <time>2015-11-11T11:27:09.000Z</time>
      </trkpt>
      <trkpt lat="47.51719" lon="6.77536">
        <ele>390</ele>
        <time>2015-11-11T11:27:10.000Z</time>
      </trkpt>
      <trkpt lat="47.51721" lon="6.7753">
        <ele>390</ele>
        <time>2015-11-11T11:27:11.000Z</time>
      </trkpt>
      <trkpt lat="47.51722" lon="6.77523">
        <ele>390</ele>
        <time>2015-11-11T11:27:12.000Z</time>
      </trkpt>
      <trkpt lat="47.51724" lon="6.77517">
        <ele>390</ele>
        <time>2015-11-11T11:27:13.000Z</time>
      </trkpt>
      <trkpt lat="47.51726" lon="6.7751">
        <ele>390</ele>
        <time>2015-11-11T11:27:14.000Z</time>
      </trkpt>
      <trkpt lat="47.51728" lon="6.77504">
        <ele>390</ele>
        <time>2015-11-11T11:27:15.000Z</time>
      </trkpt>
      <trkpt lat="47.51729" lon="6.77498">
        <ele>389</ele>
        <time>2015-11-11T11:27:16.000Z</time>
      </trkpt>
      <trkpt lat="47.51731" lon="6.77491">
        <ele>389</ele>
        <time>2015-11-11T11:27:17.000Z</time>
      </trkpt>
      <trkpt lat="47.51733" lon="6.77485">
        <ele>389</ele>
        <time>2015-11-11T11:27:18.000Z</time>
      </trkpt>
      <trkpt lat="47.51736" lon="6.7748">
        <ele>389</ele>
        <time>2015-11-11T11:27:19.000Z</time>
      </trkpt>
      <trkpt lat="47.51739" lon="6.77478">
        <ele>389</ele>
        <time>2015-11-11T11:27:20.000Z</time>
      </trkpt>
      <trkpt lat="47.51743" lon="6.77476">
        <ele>389</ele>
        <time>2015-11-11T11:27:21.000Z</time>
      </trkpt>
      <trkpt lat="47.51747" lon="6.77476">
        <ele>389</ele>
        <time>2015-11-11T11:27:22.000Z</time>
      </trkpt>
      <trkpt lat="47.51751" lon="6.77476">
        <ele>389</ele>
        <time>2015-11-11T11:27:23.000Z</time>
      </trkpt>
      <trkpt lat="47.51754" lon="6.77477">
        <ele>389</ele>
        <time>2015-11-11T11:27:24.000Z</time>
      </trkpt>
      <trkpt lat="47.51758" lon="6.77478">
        <ele>389</ele>
        <time>2015-11-11T11:27:25.000Z</time>
      </trkpt>
      <trkpt lat="47.51762" lon="6.77479">
        <ele>389</ele>
        <time>2015-11-11T11:27:26.000Z</time>
      </trkpt>
      <trkpt lat="47.51772" lon="6.77485">
        <ele>388</ele>
        <time>2015-11-11T11:27:27.000Z</time>
      </trkpt>
      <trkpt lat="47.51778" lon="6.77486">
        <ele>388</ele>
        <time>2015-11-11T11:27:28.000Z</time>
      </trkpt>
      <trkpt lat="47.51781" lon="6.77487">
        <ele>388</ele>
        <time>2015-11-11T11:27:29.000Z</time>
      </trkpt>
      <trkpt lat="47.51783" lon="6.77488">
        <ele>388</ele>
        <time>2015-11-11T11:27:30.000Z</time>
      </trkpt>
      <trkpt lat="47.51787" lon="6.7749">
        <ele>388</ele>
        <time>2015-11-11T11:27:31.000Z</time>
      </trkpt>
      <trkpt lat="47.51789" lon="6.77491">
        <ele>388</ele>
        <time>2015-11-11T11:27:33.000Z</time>
      </trkpt>
      <trkpt lat="47.51792" lon="6.77492">
        <ele>388</ele>
        <time>2015-11-11T11:27:34.000Z</time>
      </trkpt>
      <trkpt lat="47.51796" lon="6.77494">
        <ele>388</ele>
        <time>2015-11-11T11:27:35.000Z</time>
      </trkpt>
      <trkpt lat="47.518" lon="6.77496">
        <ele>388</ele>
        <time>2015-11-11T11:27:37.000Z</time>
      </trkpt>
      <trkpt lat="47.51801" lon="6.77496">
        <ele>388</ele>
        <time>2015-11-11T11:27:38.000Z</time>
      </trkpt>
      <trkpt lat="47.51805" lon="6.77496">
        <ele>388</ele>
        <time>2015-11-11T11:27:42.000Z</time>
      </trkpt>
      <trkpt lat="47.51806" lon="6.77494">
        <ele>388</ele>
        <time>2015-11-11T11:27:43.000Z</time>
      </trkpt>
      <trkpt lat="47.51804" lon="6.77489">
        <ele>388</ele>
        <time>2015-11-11T11:27:46.000Z</time>
      </trkpt>
      <trkpt lat="47.51802" lon="6.77488">
        <ele>388</ele>
        <time>2015-11-11T11:27:47.000Z</time>
      </trkpt>
      <trkpt lat="47.51803" lon="6.77484">
        <ele>388</ele>
        <time>2015-11-11T11:27:52.000Z</time>
      </trkpt>
      <trkpt lat="47.51805" lon="6.7748">
        <ele>388</ele>
        <time>2015-11-11T11:27:53.000Z</time>
      </trkpt>
      <trkpt lat="47.51805" lon="6.77475">
        <ele>388</ele>
        <time>2015-11-11T11:27:54.000Z</time>
      </trkpt>
      <trkpt lat="47.51805" lon="6.7747">
        <ele>388</ele>
        <time>2015-11-11T11:27:55.000Z</time>
      </trkpt>
      <trkpt lat="47.51803" lon="6.77464">
        <ele>388</ele>
        <time>2015-11-11T11:27:56.000Z</time>
      </trkpt>
      <trkpt lat="47.51802" lon="6.7746">
        <ele>388</ele>
        <time>2015-11-11T11:27:57.000Z</time>
      </trkpt>
      <trkpt lat="47.51799" lon="6.77455">
        <ele>388</ele>
        <time>2015-11-11T11:27:59.000Z</time>
      </trkpt>
      <trkpt lat="47.51798" lon="6.77454">
        <ele>388</ele>
        <time>2015-11-11T11:28:00.000Z</time>
      </trkpt>
      <trkpt lat="47.51797" lon="6.7746">
        <ele>388</ele>
        <time>2015-11-11T11:28:15.001Z</time>
      </trkpt>
      <trkpt lat="47.51797" lon="6.77461">
        <ele>388</ele>
        <time>2015-11-11T11:28:16.000Z</time>
      </trkpt>
      <trkpt lat="47.51793" lon="6.77462">
        <ele>388</ele>
        <time>2015-11-11T11:28:29.000Z</time>
      </trkpt>
      <trkpt lat="47.51792" lon="6.77463">
        <ele>388</ele>
        <time>2015-11-11T11:28:30.000Z</time>
      </trkpt>
      <trkpt lat="47.51792" lon="6.77467">
        <ele>388</ele>
        <time>2015-11-11T11:28:32.000Z</time>
      </trkpt>
      <trkpt lat="47.51793" lon="6.77471">
        <ele>388</ele>
        <time>2015-11-11T11:28:33.000Z</time>
      </trkpt>
      <trkpt lat="47.51794" lon="6.77474">
        <ele>388</ele>
        <time>2015-11-11T11:28:34.000Z</time>
      </trkpt>
      <trkpt lat="47.51795" lon="6.77476">
        <ele>388</ele>
        <time>2015-11-11T11:28:35.000Z</time>
      </trkpt>
      <trkpt lat="47.518" lon="6.77476">
        <ele>388</ele>
        <time>2015-11-11T11:28:56.000Z</time>
      </trkpt>
      <trkpt lat="47.518" lon="6.77476">
        <ele>388</ele>
        <time>2015-11-11T11:28:57.000Z</time>
      </trkpt>
      <trkpt lat="47.51804" lon="6.77474">
        <ele>388</ele>
        <time>2015-11-11T11:30:27.000Z</time>
      </trkpt>
      <trkpt lat="47.51804" lon="6.77474">
        <ele>388</ele>
        <time>2015-11-11T11:30:28.000Z</time>
      </trkpt>
      <trkpt lat="47.51807" lon="6.77473">
        <ele>388</ele>
        <time>2015-11-11T11:30:52.000Z</time>
      </trkpt>
    </trkseg>
  </trk>
</gpx>